<?xml version='1.0' encoding='UTF-8'?><gpx version="1.1" creator="JPX - https://github.com/jenetics/jpx" xmlns="http://www.topografix.com/GPX/1/1"><trk><trkseg><trkpt lat="44.63856922519912" lon="11.696618303179045"><ele>11.0</ele><time>2026-03-29T09:14:42Z</time></trkpt><trkpt lat="44.63848742984351" lon="11.696722636977276"><ele>11.0</ele><time>2026-03-29T09:14:44Z</time></trkpt><trkpt lat="44.63841816278341" lon="11.696819951965788"><ele>11.0</ele><time>2026-03-29T09:14:46Z</time></trkpt><trkpt lat="44.638337213089876" lon="11.696935706747224"><ele>11.0</ele><time>2026-03-29T09:14:48Z</time></trkpt><trkpt lat="44.63827604146931" lon="11.697098014843911"><ele>10.5</ele><time>2026-03-29T09:14:50Z</time></trkpt><trkpt lat="44.638225462978085" lon="11.697206028885224"><ele>10.0</ele><time>2026-03-29T09:14:51Z</time></trkpt><trkpt lat="44.63816784835727" lon="11.697306519546686"><ele>9.5</ele><time>2026-03-29T09:14:52Z</time></trkpt><trkpt lat="44.638118345545195" lon="11.697380742396357"><ele>9.0</ele><time>2026-03-29T09:14:53Z</time></trkpt><trkpt lat="44.6380579334155" lon="11.697479085588832"><ele>8.5</ele><time>2026-03-29T09:14:54Z</time></trkpt><trkpt lat="44.637993980205174" lon="11.697568824076368"><ele>8.0</ele><time>2026-03-29T09:14:55Z</time></trkpt><trkpt lat="44.63792096717158" lon="11.697659428801453"><ele>8.0</ele><time>2026-03-29T09:14:56Z</time></trkpt><trkpt lat="44.637865274828734" lon="11.697743691574829"><ele>8.0</ele><time>2026-03-29T09:14:57Z</time></trkpt><trkpt lat="44.63782326593205" lon="11.697842611761805"><ele>8.0</ele><time>2026-03-29T09:14:58Z</time></trkpt><trkpt lat="44.63778964258291" lon="11.697961489108879"><ele>8.0</ele><time>2026-03-29T09:14:59Z</time></trkpt><trkpt lat="44.637773194908966" lon="11.698098500962514"><ele>8.0</ele><time>2026-03-29T09:15:00Z</time></trkpt><trkpt lat="44.63776442564806" lon="11.69824377798358"><ele>8.200000000000001</ele><time>2026-03-29T09:15:01Z</time></trkpt><trkpt lat="44.63776442141006" lon="11.698382277179483"><ele>8.4</ele><time>2026-03-29T09:15:02Z</time></trkpt><trkpt lat="44.63777207447363" lon="11.698530236503567"><ele>8.600000000000001</ele><time>2026-03-29T09:15:03Z</time></trkpt><trkpt lat="44.63777723070407" lon="11.69868060694799"><ele>8.8</ele><time>2026-03-29T09:15:04Z</time></trkpt><trkpt lat="44.63778152836292" lon="11.698815166475814"><ele>9.0</ele><time>2026-03-29T09:15:05Z</time></trkpt><trkpt lat="44.63778588215109" lon="11.698940384135813"><ele>9.0</ele><time>2026-03-29T09:15:06Z</time></trkpt><trkpt lat="44.63778748506812" lon="11.699073594611741"><ele>9.0</ele><time>2026-03-29T09:15:07Z</time></trkpt><trkpt lat="44.63778058947073" lon="11.69940985756557"><ele>9.0</ele><time>2026-03-29T09:15:09Z</time></trkpt><trkpt lat="44.63777685016888" lon="11.699590932113985"><ele>8.5</ele><time>2026-03-29T09:15:10Z</time></trkpt><trkpt lat="44.637768850153044" lon="11.699782088945472"><ele>8.0</ele><time>2026-03-29T09:15:11Z</time></trkpt><trkpt lat="44.63776244683733" lon="11.699955431646249"><ele>7.5</ele><time>2026-03-29T09:15:12Z</time></trkpt><trkpt lat="44.63775250457801" lon="11.700127981504593"><ele>7.0</ele><time>2026-03-29T09:15:13Z</time></trkpt><trkpt lat="44.63774796482212" lon="11.700305973599365"><ele>7.0</ele><time>2026-03-29T09:15:14Z</time></trkpt><trkpt lat="44.63773137069486" lon="11.70047069063369"><ele>7.0</ele><time>2026-03-29T09:15:15Z</time></trkpt><trkpt lat="44.637718851830705" lon="11.700653940447891"><ele>7.0</ele><time>2026-03-29T09:15:16Z</time></trkpt><trkpt lat="44.6377071950445" lon="11.700844610913235"><ele>7.0</ele><time>2026-03-29T09:15:17Z</time></trkpt><trkpt lat="44.63768701520674" lon="11.701037741649127"><ele>7.5</ele><time>2026-03-29T09:15:18Z</time></trkpt><trkpt lat="44.63767113152961" lon="11.70123154406596"><ele>8.0</ele><time>2026-03-29T09:15:19Z</time></trkpt><trkpt lat="44.637653830859776" lon="11.701423431334028"><ele>8.5</ele><time>2026-03-29T09:15:20Z</time></trkpt><trkpt lat="44.63763430200707" lon="11.70160119844176"><ele>9.0</ele><time>2026-03-29T09:15:21Z</time></trkpt><trkpt lat="44.63761648660459" lon="11.701784200757912"><ele>9.0</ele><time>2026-03-29T09:15:22Z</time></trkpt><trkpt lat="44.63759776070479" lon="11.701973546774195"><ele>9.0</ele><time>2026-03-29T09:15:23Z</time></trkpt><trkpt lat="44.63758011141853" lon="11.702174069245094"><ele>9.0</ele><time>2026-03-29T09:15:24Z</time></trkpt><trkpt lat="44.63756539174127" lon="11.702375268959477"><ele>9.0</ele><time>2026-03-29T09:15:25Z</time></trkpt><trkpt lat="44.63754558633466" lon="11.702573261196658"><ele>8.75</ele><time>2026-03-29T09:15:26Z</time></trkpt><trkpt lat="44.63752543894642" lon="11.70276848166905"><ele>8.5</ele><time>2026-03-29T09:15:27Z</time></trkpt><trkpt lat="44.637506614212434" lon="11.702961376511029"><ele>8.25</ele><time>2026-03-29T09:15:28Z</time></trkpt><trkpt lat="44.63748860144928" lon="11.70314928312918"><ele>8.0</ele><time>2026-03-29T09:15:29Z</time></trkpt><trkpt lat="44.637468585629634" lon="11.70333817463944"><ele>8.0</ele><time>2026-03-29T09:15:30Z</time></trkpt><trkpt lat="44.6374493810061" lon="11.703528597491077"><ele>8.0</ele><time>2026-03-29T09:15:31Z</time></trkpt><trkpt lat="44.637429399185514" lon="11.703719637667291"><ele>8.0</ele><time>2026-03-29T09:15:32Z</time></trkpt><trkpt lat="44.637408513401866" lon="11.703909474248213"><ele>8.0</ele><time>2026-03-29T09:15:33Z</time></trkpt><trkpt lat="44.637387131876864" lon="11.704103631221667"><ele>7.75</ele><time>2026-03-29T09:15:34Z</time></trkpt><trkpt lat="44.63736585914562" lon="11.704296105947593"><ele>7.5</ele><time>2026-03-29T09:15:35Z</time></trkpt><trkpt lat="44.637343534000884" lon="11.704484102664315"><ele>7.25</ele><time>2026-03-29T09:15:36Z</time></trkpt><trkpt lat="44.63731907423319" lon="11.704670187814363"><ele>7.0</ele><time>2026-03-29T09:15:37Z</time></trkpt><trkpt lat="44.63729172278482" lon="11.704853717793966"><ele>7.0</ele><time>2026-03-29T09:15:38Z</time></trkpt><trkpt lat="44.6372554733435" lon="11.705033623712547"><ele>7.0</ele><time>2026-03-29T09:15:39Z</time></trkpt><trkpt lat="44.637206303606305" lon="11.705202982652787"><ele>7.0</ele><time>2026-03-29T09:15:40Z</time></trkpt><trkpt lat="44.637151319902216" lon="11.705369524626342"><ele>7.0</ele><time>2026-03-29T09:15:41Z</time></trkpt><trkpt lat="44.63709820041667" lon="11.70552942539348"><ele>7.0</ele><time>2026-03-29T09:15:42Z</time></trkpt><trkpt lat="44.63704756412126" lon="11.705692891669463"><ele>7.0</ele><time>2026-03-29T09:15:43Z</time></trkpt><trkpt lat="44.63699860216605" lon="11.705861977554106"><ele>7.0</ele><time>2026-03-29T09:15:44Z</time></trkpt><trkpt lat="44.63695799691271" lon="11.70604046780683"><ele>7.0</ele><time>2026-03-29T09:15:45Z</time></trkpt><trkpt lat="44.6369268148819" lon="11.706219378884551"><ele>7.0</ele><time>2026-03-29T09:15:46Z</time></trkpt><trkpt lat="44.63690155337765" lon="11.70639962039308"><ele>7.0</ele><time>2026-03-29T09:15:46.999Z</time></trkpt><trkpt lat="44.63688866536615" lon="11.70657547504998"><ele>7.0</ele><time>2026-03-29T09:15:47.999Z</time></trkpt><trkpt lat="44.636885857959484" lon="11.7067427549287"><ele>7.0</ele><time>2026-03-29T09:15:48.999Z</time></trkpt><trkpt lat="44.636903423507846" lon="11.706919655138325"><ele>7.25</ele><time>2026-03-29T09:15:49.999Z</time></trkpt><trkpt lat="44.63694602656788" lon="11.707093720916772"><ele>7.5</ele><time>2026-03-29T09:15:50.999Z</time></trkpt><trkpt lat="44.63700716103453" lon="11.707249283410455"><ele>7.75</ele><time>2026-03-29T09:15:51.999Z</time></trkpt><trkpt lat="44.63709067080945" lon="11.707379162194965"><ele>8.0</ele><time>2026-03-29T09:15:52.999Z</time></trkpt><trkpt lat="44.637198152761115" lon="11.707473978496159"><ele>8.200000000000001</ele><time>2026-03-29T09:15:53.999Z</time></trkpt><trkpt lat="44.63731645239715" lon="11.707520931576601"><ele>8.4</ele><time>2026-03-29T09:15:54.999Z</time></trkpt><trkpt lat="44.63742404513833" lon="11.707532713198539"><ele>8.600000000000001</ele><time>2026-03-29T09:15:55.999Z</time></trkpt><trkpt lat="44.637512978547704" lon="11.707579545660483"><ele>8.8</ele><time>2026-03-29T09:15:56.999Z</time></trkpt><trkpt lat="44.63759038912835" lon="11.70764567043904"><ele>9.0</ele><time>2026-03-29T09:15:57.999Z</time></trkpt><trkpt lat="44.637656584678545" lon="11.70775082525021"><ele>9.25</ele><time>2026-03-29T09:15:58.999Z</time></trkpt><trkpt lat="44.63770364828984" lon="11.707899423694728"><ele>9.5</ele><time>2026-03-29T09:15:59.999Z</time></trkpt><trkpt lat="44.637721872517346" lon="11.70806779211267"><ele>9.75</ele><time>2026-03-29T09:16:00.999Z</time></trkpt><trkpt lat="44.63773654360881" lon="11.708259197500285"><ele>10.0</ele><time>2026-03-29T09:16:01.999Z</time></trkpt><trkpt lat="44.63770527546564" lon="11.708457000535347"><ele>9.5</ele><time>2026-03-29T09:16:02.999Z</time></trkpt><trkpt lat="44.637650004732706" lon="11.708643094436512"><ele>9.0</ele><time>2026-03-29T09:16:03.999Z</time></trkpt><trkpt lat="44.63757697488842" lon="11.708812230873592"><ele>8.5</ele><time>2026-03-29T09:16:04.999Z</time></trkpt><trkpt lat="44.637490309880384" lon="11.708962604909546"><ele>8.0</ele><time>2026-03-29T09:16:05.999Z</time></trkpt><trkpt lat="44.637384345413224" lon="11.709078845699059"><ele>8.0</ele><time>2026-03-29T09:16:06.999Z</time></trkpt><trkpt lat="44.637283079231814" lon="11.709170590262078"><ele>8.0</ele><time>2026-03-29T09:16:07.999Z</time></trkpt><trkpt lat="44.63718065210447" lon="11.709230330145155"><ele>8.0</ele><time>2026-03-29T09:16:08.999Z</time></trkpt><trkpt lat="44.63710399934493" lon="11.709303418187334"><ele>8.0</ele><time>2026-03-29T09:16:09.999Z</time></trkpt><trkpt lat="44.63702642014414" lon="11.709363266836625"><ele>8.0</ele><time>2026-03-29T09:16:10.999Z</time></trkpt><trkpt lat="44.63694018967322" lon="11.709432651436947"><ele>7.75</ele><time>2026-03-29T09:16:11.999Z</time></trkpt><trkpt lat="44.636854063717365" lon="11.70952590439901"><ele>7.5</ele><time>2026-03-29T09:16:12.999Z</time></trkpt><trkpt lat="44.63677703232765" lon="11.70965155221085"><ele>7.25</ele><time>2026-03-29T09:16:13.999Z</time></trkpt><trkpt lat="44.63671451662665" lon="11.709803049673193"><ele>7.0</ele><time>2026-03-29T09:16:14.999Z</time></trkpt><trkpt lat="44.636662341481475" lon="11.709969165063526"><ele>7.0</ele><time>2026-03-29T09:16:15.999Z</time></trkpt><trkpt lat="44.63662237339357" lon="11.710143728291804"><ele>7.0</ele><time>2026-03-29T09:16:16.999Z</time></trkpt><trkpt lat="44.63660234948692" lon="11.710324119791322"><ele>7.0</ele><time>2026-03-29T09:16:17.999Z</time></trkpt><trkpt lat="44.63660629360514" lon="11.71051090499748"><ele>7.0</ele><time>2026-03-29T09:16:18.999Z</time></trkpt><trkpt lat="44.63662695064534" lon="11.710710201635504"><ele>6.75</ele><time>2026-03-29T09:16:19.999Z</time></trkpt><trkpt lat="44.63666316338308" lon="11.71091701458813"><ele>6.5</ele><time>2026-03-29T09:16:20.999Z</time></trkpt><trkpt lat="44.63670464076753" lon="11.711113489233595"><ele>6.25</ele><time>2026-03-29T09:16:21.999Z</time></trkpt><trkpt lat="44.63674826308397" lon="11.711314375845022"><ele>6.0</ele><time>2026-03-29T09:16:22.999Z</time></trkpt><trkpt lat="44.63678605852931" lon="11.71148785503992"><ele>6.0</ele><time>2026-03-29T09:16:23.999Z</time></trkpt><trkpt lat="44.63682215366082" lon="11.711643097271592"><ele>6.0</ele><time>2026-03-29T09:16:24.999Z</time></trkpt><trkpt lat="44.63685799842762" lon="11.711791867319969"><ele>6.0</ele><time>2026-03-29T09:16:25.999Z</time></trkpt><trkpt lat="44.636896515664034" lon="11.711948357857514"><ele>6.0</ele><time>2026-03-29T09:16:26.999Z</time></trkpt><trkpt lat="44.636927567354405" lon="11.712107620982886"><ele>6.25</ele><time>2026-03-29T09:16:27.999Z</time></trkpt><trkpt lat="44.636941494438254" lon="11.712269121624823"><ele>6.5</ele><time>2026-03-29T09:16:28.999Z</time></trkpt><trkpt lat="44.63694432777755" lon="11.712440369528169"><ele>6.75</ele><time>2026-03-29T09:16:29.999Z</time></trkpt><trkpt lat="44.63693588963368" lon="11.712631415684431"><ele>7.0</ele><time>2026-03-29T09:16:30.999Z</time></trkpt><trkpt lat="44.63692812427722" lon="11.71282499912635"><ele>7.25</ele><time>2026-03-29T09:16:31.999Z</time></trkpt><trkpt lat="44.636918305112836" lon="11.71300026257685"><ele>7.5</ele><time>2026-03-29T09:16:32.999Z</time></trkpt><trkpt lat="44.63691088934458" lon="11.713160043996242"><ele>7.75</ele><time>2026-03-29T09:16:33.999Z</time></trkpt><trkpt lat="44.63690618721743" lon="11.713320192225833"><ele>8.0</ele><time>2026-03-29T09:16:34.999Z</time></trkpt><trkpt lat="44.63689895967786" lon="11.713485303008627"><ele>7.75</ele><time>2026-03-29T09:16:35.999Z</time></trkpt><trkpt lat="44.63689314566933" lon="11.71364867189005"><ele>7.5</ele><time>2026-03-29T09:16:36.999Z</time></trkpt><trkpt lat="44.636885609762864" lon="11.713812331671448"><ele>7.25</ele><time>2026-03-29T09:16:37.999Z</time></trkpt><trkpt lat="44.63687812321521" lon="11.713972275740593"><ele>7.0</ele><time>2026-03-29T09:16:38.999Z</time></trkpt><trkpt lat="44.636873178988765" lon="11.714136536942801"><ele>7.0</ele><time>2026-03-29T09:16:39.999Z</time></trkpt><trkpt lat="44.63686664673414" lon="11.714310500139561"><ele>7.0</ele><time>2026-03-29T09:16:41Z</time></trkpt><trkpt lat="44.63685811582451" lon="11.714491610576573"><ele>7.0</ele><time>2026-03-29T09:16:42Z</time></trkpt><trkpt lat="44.63684923272996" lon="11.714685002856301"><ele>7.0</ele><time>2026-03-29T09:16:43Z</time></trkpt><trkpt lat="44.63684140476523" lon="11.714889303381481"><ele>7.0</ele><time>2026-03-29T09:16:44Z</time></trkpt><trkpt lat="44.63683365475844" lon="11.715097677428481"><ele>7.0</ele><time>2026-03-29T09:16:45Z</time></trkpt><trkpt lat="44.636824624805726" lon="11.715308549519346"><ele>7.0</ele><time>2026-03-29T09:16:46Z</time></trkpt><trkpt lat="44.63681576734546" lon="11.715525269202544"><ele>7.333333333333334</ele><time>2026-03-29T09:16:47Z</time></trkpt><trkpt lat="44.636806073648174" lon="11.715746406150709"><ele>7.666666666666666</ele><time>2026-03-29T09:16:48Z</time></trkpt><trkpt lat="44.63679468420658" lon="11.715970817861294"><ele>8.0</ele><time>2026-03-29T09:16:49Z</time></trkpt><trkpt lat="44.6367839273987" lon="11.71619676283575"><ele>8.333333333333332</ele><time>2026-03-29T09:16:50Z</time></trkpt><trkpt lat="44.63677479832744" lon="11.716415388887427"><ele>8.666666666666666</ele><time>2026-03-29T09:16:51Z</time></trkpt><trkpt lat="44.63676302140183" lon="11.716634371758579"><ele>9.0</ele><time>2026-03-29T09:16:52Z</time></trkpt><trkpt lat="44.63675342562427" lon="11.716854956113039"><ele>8.666666666666666</ele><time>2026-03-29T09:16:53Z</time></trkpt><trkpt lat="44.63674523155991" lon="11.717077745114526"><ele>8.333333333333332</ele><time>2026-03-29T09:16:54Z</time></trkpt><trkpt lat="44.63673522682041" lon="11.717306492548007"><ele>8.0</ele><time>2026-03-29T09:16:55Z</time></trkpt><trkpt lat="44.63672891979417" lon="11.717544407372314"><ele>8.333333333333332</ele><time>2026-03-29T09:16:56Z</time></trkpt><trkpt lat="44.63672268766923" lon="11.717781148614057"><ele>8.666666666666666</ele><time>2026-03-29T09:16:57Z</time></trkpt><trkpt lat="44.636710456064506" lon="11.718013224109818"><ele>9.0</ele><time>2026-03-29T09:16:58Z</time></trkpt><trkpt lat="44.63669875162747" lon="11.718229521664353"><ele>9.0</ele><time>2026-03-29T09:16:59Z</time></trkpt><trkpt lat="44.63668728867012" lon="11.718447264993268"><ele>9.0</ele><time>2026-03-29T09:17:00Z</time></trkpt><trkpt lat="44.63667689855057" lon="11.718662415073304"><ele>9.0</ele><time>2026-03-29T09:17:01Z</time></trkpt><trkpt lat="44.63667016169461" lon="11.71888824906883"><ele>8.666666666666666</ele><time>2026-03-29T09:17:02Z</time></trkpt><trkpt lat="44.63666307354298" lon="11.719115885392755"><ele>8.333333333333332</ele><time>2026-03-29T09:17:03Z</time></trkpt><trkpt lat="44.63665346038816" lon="11.719340310730393"><ele>8.0</ele><time>2026-03-29T09:17:04Z</time></trkpt><trkpt lat="44.63664253767892" lon="11.719560631985194"><ele>7.666666666666666</ele><time>2026-03-29T09:17:05Z</time></trkpt><trkpt lat="44.63663323041443" lon="11.719781589913978"><ele>7.333333333333334</ele><time>2026-03-29T09:17:06Z</time></trkpt><trkpt lat="44.63662342166136" lon="11.720008150942789"><ele>7.0</ele><time>2026-03-29T09:17:07Z</time></trkpt><trkpt lat="44.63661410083635" lon="11.72023822070461"><ele>7.666666666666667</ele><time>2026-03-29T09:17:08Z</time></trkpt><trkpt lat="44.636604448296495" lon="11.720471036814638"><ele>8.333333333333334</ele><time>2026-03-29T09:17:09Z</time></trkpt><trkpt lat="44.636595831550565" lon="11.720695225713875"><ele>9.0</ele><time>2026-03-29T09:17:10Z</time></trkpt><trkpt lat="44.6365876814386" lon="11.720895289024321"><ele>9.0</ele><time>2026-03-29T09:17:11Z</time></trkpt><trkpt lat="44.63657895654025" lon="11.721085911803051"><ele>9.0</ele><time>2026-03-29T09:17:12Z</time></trkpt><trkpt lat="44.63657154969336" lon="11.721273836265668"><ele>9.0</ele><time>2026-03-29T09:17:13Z</time></trkpt><trkpt lat="44.636562757248385" lon="11.721470508921131"><ele>9.0</ele><time>2026-03-29T09:17:14Z</time></trkpt><trkpt lat="44.636553972084315" lon="11.721673408769965"><ele>9.0</ele><time>2026-03-29T09:17:15Z</time></trkpt><trkpt lat="44.636545839934264" lon="11.721888187300253"><ele>9.0</ele><time>2026-03-29T09:17:16Z</time></trkpt><trkpt lat="44.6365370117856" lon="11.722107552939242"><ele>9.0</ele><time>2026-03-29T09:17:17Z</time></trkpt><trkpt lat="44.63652979098596" lon="11.722328667265595"><ele>8.75</ele><time>2026-03-29T09:17:18Z</time></trkpt><trkpt lat="44.63652113257039" lon="11.722543079685819"><ele>8.5</ele><time>2026-03-29T09:17:19Z</time></trkpt><trkpt lat="44.636511927373896" lon="11.722746750469053"><ele>8.25</ele><time>2026-03-29T09:17:20Z</time></trkpt><trkpt lat="44.636504278298794" lon="11.72294288929936"><ele>8.0</ele><time>2026-03-29T09:17:21Z</time></trkpt><trkpt lat="44.636497136067526" lon="11.723120499067077"><ele>8.0</ele><time>2026-03-29T09:17:22Z</time></trkpt><trkpt lat="44.63648883603342" lon="11.723288652851627"><ele>8.0</ele><time>2026-03-29T09:17:23Z</time></trkpt><trkpt lat="44.6364814727638" lon="11.723460487252147"><ele>8.0</ele><time>2026-03-29T09:17:24Z</time></trkpt><trkpt lat="44.63647336785099" lon="11.723633690536067"><ele>8.0</ele><time>2026-03-29T09:17:25Z</time></trkpt><trkpt lat="44.63646316759635" lon="11.723791306363488"><ele>7.833333333333333</ele><time>2026-03-29T09:17:26Z</time></trkpt><trkpt lat="44.63645469967324" lon="11.723926206310427"><ele>7.666666666666666</ele><time>2026-03-29T09:17:27Z</time></trkpt><trkpt lat="44.63644707585344" lon="11.724041861246814"><ele>7.5</ele><time>2026-03-29T09:17:28Z</time></trkpt><trkpt lat="44.63643861181349" lon="11.7241392008716"><ele>7.333333333333334</ele><time>2026-03-29T09:17:29Z</time></trkpt><trkpt lat="44.636421226189675" lon="11.724280926986783"><ele>7.166666666666667</ele><time>2026-03-29T09:17:31Z</time></trkpt><trkpt lat="44.63647513553652" lon="11.724353726582557"><ele>7.0</ele><time>2026-03-29T09:17:33Z</time></trkpt><trkpt lat="44.6365817030625" lon="11.724322212909746"><ele>7.000000000000001</ele><time>2026-03-29T09:17:34.999Z</time></trkpt><trkpt lat="44.63659531881961" lon="11.724188714604837"><ele>7.0</ele><time>2026-03-29T09:17:35.999Z</time></trkpt><trkpt lat="44.63659816092167" lon="11.724081420587284"><ele>7.0</ele><time>2026-03-29T09:17:36.999Z</time></trkpt><trkpt lat="44.63661675045405" lon="11.72398986034595"><ele>7.0</ele><time>2026-03-29T09:17:37.999Z</time></trkpt><trkpt lat="44.636658946315436" lon="11.72392010171735"><ele>7.000000000000001</ele><time>2026-03-29T09:17:38.999Z</time></trkpt><trkpt lat="44.63672332086363" lon="11.723878448510112"><ele>7.0</ele><time>2026-03-29T09:17:39.999Z</time></trkpt><trkpt lat="44.6368012745632" lon="11.723875306422254"><ele>7.0</ele><time>2026-03-29T09:17:40.999Z</time></trkpt><trkpt lat="44.63689316005346" lon="11.723890302963774"><ele>6.999999999999999</ele><time>2026-03-29T09:17:41.999Z</time></trkpt><trkpt lat="44.63699695312096" lon="11.723900283101548"><ele>6.999999999999999</ele><time>2026-03-29T09:17:42.999Z</time></trkpt><trkpt lat="44.63710355382457" lon="11.723902440353967"><ele>7.0</ele><time>2026-03-29T09:17:43.999Z</time></trkpt><trkpt lat="44.63723754308077" lon="11.723910732145013"><ele>7.0</ele><time>2026-03-29T09:17:44.999Z</time></trkpt><trkpt lat="44.637374560916776" lon="11.723924548167744"><ele>7.0</ele><time>2026-03-29T09:17:45.999Z</time></trkpt><trkpt lat="44.63751292748389" lon="11.723936028482406"><ele>7.0</ele><time>2026-03-29T09:17:46.999Z</time></trkpt><trkpt lat="44.63765557873392" lon="11.72394972009691"><ele>7.0</ele><time>2026-03-29T09:17:47.999Z</time></trkpt><trkpt lat="44.63780634798562" lon="11.723964906309371"><ele>7.0</ele><time>2026-03-29T09:17:48.999Z</time></trkpt><trkpt lat="44.637951350172735" lon="11.723981114932876"><ele>7.5</ele><time>2026-03-29T09:17:49.999Z</time></trkpt><trkpt lat="44.63808844785259" lon="11.7239916000502"><ele>8.0</ele><time>2026-03-29T09:17:50.999Z</time></trkpt><trkpt lat="44.638229588727995" lon="11.724001797689075"><ele>8.5</ele><time>2026-03-29T09:17:51.999Z</time></trkpt><trkpt lat="44.638371004896996" lon="11.724011772699273"><ele>9.0</ele><time>2026-03-29T09:17:52.999Z</time></trkpt><trkpt lat="44.63850842279853" lon="11.724030435941714"><ele>8.5</ele><time>2026-03-29T09:17:53.999Z</time></trkpt><trkpt lat="44.63863845038707" lon="11.724043091397812"><ele>8.0</ele><time>2026-03-29T09:17:54.999Z</time></trkpt><trkpt lat="44.63876755010931" lon="11.724064136915509"><ele>7.5</ele><time>2026-03-29T09:17:55.999Z</time></trkpt><trkpt lat="44.63890622866729" lon="11.724078546985627"><ele>7.0</ele><time>2026-03-29T09:17:56.999Z</time></trkpt><trkpt lat="44.63903474302122" lon="11.724066313421147"><ele>7.0</ele><time>2026-03-29T09:17:57.999Z</time></trkpt><trkpt lat="44.63916067908605" lon="11.724081415087461"><ele>7.0</ele><time>2026-03-29T09:17:58.999Z</time></trkpt><trkpt lat="44.63927792816817" lon="11.724090469813074"><ele>7.0</ele><time>2026-03-29T09:17:59.999Z</time></trkpt><trkpt lat="44.63938792048626" lon="11.724102366138913"><ele>7.0</ele><time>2026-03-29T09:18:00.999Z</time></trkpt><trkpt lat="44.63949113822219" lon="11.724114889987383"><ele>6.833333333333334</ele><time>2026-03-29T09:18:01.999Z</time></trkpt><trkpt lat="44.63956492451322" lon="11.724125307443753"><ele>6.666666666666667</ele><time>2026-03-29T09:18:02.999Z</time></trkpt><trkpt lat="44.639640808112276" lon="11.724136217988017"><ele>6.5</ele><time>2026-03-29T09:18:03.999Z</time></trkpt><trkpt lat="44.63971384784516" lon="11.724187441314008"><ele>6.333333333333334</ele><time>2026-03-29T09:18:04.999Z</time></trkpt><trkpt lat="44.63980648523847" lon="11.724253634753424"><ele>6.166666666666667</ele><time>2026-03-29T09:18:05.999Z</time></trkpt><trkpt lat="44.63989620751504" lon="11.724320313345649"><ele>6.0</ele><time>2026-03-29T09:18:06.999Z</time></trkpt><trkpt lat="44.6399905992292" lon="11.72436781606988"><ele>6.0</ele><time>2026-03-29T09:18:07.999Z</time></trkpt><trkpt lat="44.64009685792055" lon="11.724425627669484"><ele>6.0</ele><time>2026-03-29T09:18:08.999Z</time></trkpt><trkpt lat="44.64020097042979" lon="11.724461025764619"><ele>6.0</ele><time>2026-03-29T09:18:09.999Z</time></trkpt><trkpt lat="44.6403199119356" lon="11.724517033553054"><ele>6.0</ele><time>2026-03-29T09:18:10.999Z</time></trkpt><trkpt lat="44.640440800363265" lon="11.724549501368742"><ele>6.0</ele><time>2026-03-29T09:18:11.999Z</time></trkpt><trkpt lat="44.64058137048062" lon="11.724559836460648"><ele>6.0</ele><time>2026-03-29T09:18:12.999Z</time></trkpt><trkpt lat="44.64072964439127" lon="11.724561965803387"><ele>6.0</ele><time>2026-03-29T09:18:13.999Z</time></trkpt><trkpt lat="44.64088411602522" lon="11.724546015479167"><ele>6.0</ele><time>2026-03-29T09:18:14.999Z</time></trkpt><trkpt lat="44.641043261425445" lon="11.72452781930907"><ele>6.0</ele><time>2026-03-29T09:18:15.999Z</time></trkpt><trkpt lat="44.641194475442724" lon="11.724511470716822"><ele>6.0</ele><time>2026-03-29T09:18:16.999Z</time></trkpt><trkpt lat="44.64135229711595" lon="11.724488117754838"><ele>6.0</ele><time>2026-03-29T09:18:17.999Z</time></trkpt><trkpt lat="44.6415121114698" lon="11.724462158711024"><ele>6.0</ele><time>2026-03-29T09:18:18.999Z</time></trkpt><trkpt lat="44.64166903261002" lon="11.724438590663208"><ele>6.0</ele><time>2026-03-29T09:18:19.999Z</time></trkpt><trkpt lat="44.64182360055531" lon="11.724413578222912"><ele>6.0</ele><time>2026-03-29T09:18:20.999Z</time></trkpt><trkpt lat="44.6419740320568" lon="11.724388283226906"><ele>6.0</ele><time>2026-03-29T09:18:21.999Z</time></trkpt><trkpt lat="44.642120888178425" lon="11.724347432004706"><ele>6.0</ele><time>2026-03-29T09:18:22.999Z</time></trkpt><trkpt lat="44.64227370937265" lon="11.724300730446501"><ele>6.0</ele><time>2026-03-29T09:18:23.999Z</time></trkpt><trkpt lat="44.642425326428025" lon="11.724264174831106"><ele>6.0</ele><time>2026-03-29T09:18:24.999Z</time></trkpt><trkpt lat="44.642589168609426" lon="11.724209212950681"><ele>6.0</ele><time>2026-03-29T09:18:25.999Z</time></trkpt><trkpt lat="44.64275313261365" lon="11.724148943085146"><ele>6.0</ele><time>2026-03-29T09:18:26.999Z</time></trkpt><trkpt lat="44.64290999236976" lon="11.72406432064161"><ele>6.0</ele><time>2026-03-29T09:18:27.999Z</time></trkpt><trkpt lat="44.64306823884892" lon="11.723994019909508"><ele>6.0</ele><time>2026-03-29T09:18:28.999Z</time></trkpt><trkpt lat="44.64322185358195" lon="11.723928501569809"><ele>6.0</ele><time>2026-03-29T09:18:29.999Z</time></trkpt><trkpt lat="44.64337540764426" lon="11.723857421697272"><ele>6.0</ele><time>2026-03-29T09:18:30.999Z</time></trkpt><trkpt lat="44.643534440642064" lon="11.723793540903545"><ele>6.0</ele><time>2026-03-29T09:18:31.999Z</time></trkpt><trkpt lat="44.64369646230039" lon="11.723729234883779"><ele>6.0</ele><time>2026-03-29T09:18:32.999Z</time></trkpt><trkpt lat="44.64385904303283" lon="11.723666204558453"><ele>6.333333333333334</ele><time>2026-03-29T09:18:33.999Z</time></trkpt><trkpt lat="44.64401432759001" lon="11.723599884669172"><ele>6.666666666666667</ele><time>2026-03-29T09:18:34.999Z</time></trkpt><trkpt lat="44.644172363471895" lon="11.723534277499157"><ele>7.0</ele><time>2026-03-29T09:18:35.999Z</time></trkpt><trkpt lat="44.644328916768025" lon="11.723469648983752"><ele>6.666666666666667</ele><time>2026-03-29T09:18:36.999Z</time></trkpt><trkpt lat="44.64448380025382" lon="11.723405645694395"><ele>6.333333333333334</ele><time>2026-03-29T09:18:37.999Z</time></trkpt><trkpt lat="44.644640982571325" lon="11.723343196698101"><ele>6.0</ele><time>2026-03-29T09:18:38.999Z</time></trkpt><trkpt lat="44.64479556545199" lon="11.723283945450742"><ele>6.0</ele><time>2026-03-29T09:18:39.999Z</time></trkpt><trkpt lat="44.64494732529882" lon="11.723224374857901"><ele>6.0</ele><time>2026-03-29T09:18:40.999Z</time></trkpt><trkpt lat="44.645103159603366" lon="11.723164720729303"><ele>6.0</ele><time>2026-03-29T09:18:41.999Z</time></trkpt><trkpt lat="44.645252095435254" lon="11.723105895599181"><ele>6.333333333333334</ele><time>2026-03-29T09:18:43Z</time></trkpt><trkpt lat="44.645403658129275" lon="11.723053713671892"><ele>6.666666666666667</ele><time>2026-03-29T09:18:44Z</time></trkpt><trkpt lat="44.645547804490604" lon="11.723000261527515"><ele>7.0</ele><time>2026-03-29T09:18:45Z</time></trkpt><trkpt lat="44.645694146833684" lon="11.722952101947191"><ele>7.0</ele><time>2026-03-29T09:18:46Z</time></trkpt><trkpt lat="44.64584467030207" lon="11.722919477801193"><ele>7.0</ele><time>2026-03-29T09:18:47Z</time></trkpt><trkpt lat="44.64599245516402" lon="11.722897033248602"><ele>7.0</ele><time>2026-03-29T09:18:48Z</time></trkpt><trkpt lat="44.64612358964543" lon="11.72288678902851"><ele>7.0</ele><time>2026-03-29T09:18:49Z</time></trkpt><trkpt lat="44.646249682289934" lon="11.722881182220263"><ele>6.75</ele><time>2026-03-29T09:18:50Z</time></trkpt><trkpt lat="44.646367216620355" lon="11.72290254566579"><ele>6.5</ele><time>2026-03-29T09:18:51Z</time></trkpt><trkpt lat="44.64647200294313" lon="11.72296090538631"><ele>6.25</ele><time>2026-03-29T09:18:52Z</time></trkpt><trkpt lat="44.646573581083395" lon="11.723047659400063"><ele>6.0</ele><time>2026-03-29T09:18:53Z</time></trkpt><trkpt lat="44.64667213629857" lon="11.723165063428294"><ele>6.0</ele><time>2026-03-29T09:18:54Z</time></trkpt><trkpt lat="44.64675911907972" lon="11.723316462963567"><ele>6.0</ele><time>2026-03-29T09:18:55Z</time></trkpt><trkpt lat="44.64683402785456" lon="11.72349305439988"><ele>6.0</ele><time>2026-03-29T09:18:56Z</time></trkpt><trkpt lat="44.646887051900826" lon="11.723691255809612"><ele>6.0</ele><time>2026-03-29T09:18:57Z</time></trkpt><trkpt lat="44.64694018490308" lon="11.723893580059736"><ele>5.5</ele><time>2026-03-29T09:18:58Z</time></trkpt><trkpt lat="44.64698249878668" lon="11.724084759651772"><ele>5.0</ele><time>2026-03-29T09:18:59Z</time></trkpt><trkpt lat="44.64703406081722" lon="11.724278467999884"><ele>4.5</ele><time>2026-03-29T09:19:00Z</time></trkpt><trkpt lat="44.64708684181434" lon="11.724473847077187"><ele>4.0</ele><time>2026-03-29T09:19:01Z</time></trkpt><trkpt lat="44.64714122811069" lon="11.724672788226304"><ele>4.0</ele><time>2026-03-29T09:19:02Z</time></trkpt><trkpt lat="44.6471977574827" lon="11.724875501459987"><ele>4.0</ele><time>2026-03-29T09:19:03Z</time></trkpt><trkpt lat="44.647247177266195" lon="11.72507223187428"><ele>4.0</ele><time>2026-03-29T09:19:04Z</time></trkpt><trkpt lat="44.64730050668209" lon="11.725260414330775"><ele>4.0</ele><time>2026-03-29T09:19:05Z</time></trkpt><trkpt lat="44.64734649102976" lon="11.725448097024572"><ele>4.5</ele><time>2026-03-29T09:19:06Z</time></trkpt><trkpt lat="44.647401996839335" lon="11.72562688325419"><ele>5.0</ele><time>2026-03-29T09:19:07Z</time></trkpt><trkpt lat="44.6474601041709" lon="11.725825560530764"><ele>5.5</ele><time>2026-03-29T09:19:08Z</time></trkpt><trkpt lat="44.64751317741036" lon="11.726025320389333"><ele>6.0</ele><time>2026-03-29T09:19:09Z</time></trkpt><trkpt lat="44.6475646804259" lon="11.726213664511977"><ele>6.5</ele><time>2026-03-29T09:19:10Z</time></trkpt><trkpt lat="44.64761433645741" lon="11.726394772675919"><ele>7.0</ele><time>2026-03-29T09:19:11Z</time></trkpt><trkpt lat="44.64766356644414" lon="11.726556181262412"><ele>7.5</ele><time>2026-03-29T09:19:12Z</time></trkpt><trkpt lat="44.6477095247267" lon="11.72672157511495"><ele>8.0</ele><time>2026-03-29T09:19:13Z</time></trkpt><trkpt lat="44.64776181196606" lon="11.726876160693255"><ele>7.5</ele><time>2026-03-29T09:19:14Z</time></trkpt><trkpt lat="44.647808377124434" lon="11.727027336500248"><ele>7.0</ele><time>2026-03-29T09:19:15Z</time></trkpt><trkpt lat="44.64788348004715" lon="11.727161869205244"><ele>6.5</ele><time>2026-03-29T09:19:16Z</time></trkpt><trkpt lat="44.647969138629946" lon="11.727287514022482"><ele>6.0</ele><time>2026-03-29T09:19:17Z</time></trkpt><trkpt lat="44.648062467714155" lon="11.727388840858193"><ele>6.0</ele><time>2026-03-29T09:19:18Z</time></trkpt><trkpt lat="44.64816238559003" lon="11.727488395163558"><ele>6.0</ele><time>2026-03-29T09:19:19Z</time></trkpt><trkpt lat="44.648268684874814" lon="11.727577410693598"><ele>6.0</ele><time>2026-03-29T09:19:20Z</time></trkpt><trkpt lat="44.64838173999842" lon="11.727655911634423"><ele>6.0</ele><time>2026-03-29T09:19:21Z</time></trkpt><trkpt lat="44.64849826781998" lon="11.727717369803198"><ele>6.25</ele><time>2026-03-29T09:19:22Z</time></trkpt><trkpt lat="44.648615652039986" lon="11.72774976499547"><ele>6.5</ele><time>2026-03-29T09:19:23Z</time></trkpt><trkpt lat="44.64873926326806" lon="11.727770194933065"><ele>6.75</ele><time>2026-03-29T09:19:24Z</time></trkpt><trkpt lat="44.64887545791788" lon="11.727777313502331"><ele>7.0</ele><time>2026-03-29T09:19:25Z</time></trkpt><trkpt lat="44.649005270082135" lon="11.72778018222555"><ele>7.0</ele><time>2026-03-29T09:19:26Z</time></trkpt><trkpt lat="44.64913180563865" lon="11.727683826481707"><ele>7.0</ele><time>2026-03-29T09:19:27Z</time></trkpt><trkpt lat="44.64927218277689" lon="11.727630998699501"><ele>7.0</ele><time>2026-03-29T09:19:28Z</time></trkpt><trkpt lat="44.64941489999785" lon="11.727538610963183"><ele>7.0</ele><time>2026-03-29T09:19:29Z</time></trkpt><trkpt lat="44.64955828197971" lon="11.727461497231001"><ele>7.0</ele><time>2026-03-29T09:19:30Z</time></trkpt><trkpt lat="44.64971425172298" lon="11.727374223281885"><ele>7.0</ele><time>2026-03-29T09:19:31Z</time></trkpt><trkpt lat="44.64987711636567" lon="11.727308674348714"><ele>7.0</ele><time>2026-03-29T09:19:32Z</time></trkpt><trkpt lat="44.65001806545404" lon="11.727229438019135"><ele>7.0</ele><time>2026-03-29T09:19:33Z</time></trkpt><trkpt lat="44.65015130482111" lon="11.727129141635759"><ele>7.0</ele><time>2026-03-29T09:19:34Z</time></trkpt><trkpt lat="44.65028383637362" lon="11.727059275127159"><ele>7.0</ele><time>2026-03-29T09:19:35Z</time></trkpt><trkpt lat="44.65041869288073" lon="11.726977845165434"><ele>7.0</ele><time>2026-03-29T09:19:36Z</time></trkpt><trkpt lat="44.65055026385342" lon="11.72689687151525"><ele>6.5</ele><time>2026-03-29T09:19:37Z</time></trkpt><trkpt lat="44.65068943519381" lon="11.726846995253645"><ele>6.0</ele><time>2026-03-29T09:19:38Z</time></trkpt><trkpt lat="44.65082571747381" lon="11.726764221392475"><ele>5.5</ele><time>2026-03-29T09:19:39Z</time></trkpt><trkpt lat="44.65096695810695" lon="11.726694228434765"><ele>5.0</ele><time>2026-03-29T09:19:40Z</time></trkpt><trkpt lat="44.65111741487331" lon="11.726632848967244"><ele>5.333333333333334</ele><time>2026-03-29T09:19:41Z</time></trkpt><trkpt lat="44.6512687918846" lon="11.726581826135115"><ele>5.666666666666667</ele><time>2026-03-29T09:19:42Z</time></trkpt><trkpt lat="44.65142165247583" lon="11.726539225700078"><ele>6.0</ele><time>2026-03-29T09:19:43Z</time></trkpt><trkpt lat="44.65156386796312" lon="11.726514920610903"><ele>6.0</ele><time>2026-03-29T09:19:44Z</time></trkpt><trkpt lat="44.65171530760816" lon="11.72650644419774"><ele>6.0</ele><time>2026-03-29T09:19:45Z</time></trkpt><trkpt lat="44.65187102462538" lon="11.726514584775275"><ele>6.0</ele><time>2026-03-29T09:19:46Z</time></trkpt><trkpt lat="44.65200868560009" lon="11.726536949294564"><ele>6.0</ele><time>2026-03-29T09:19:47Z</time></trkpt><trkpt lat="44.652144398792984" lon="11.726555169608588"><ele>6.0</ele><time>2026-03-29T09:19:48Z</time></trkpt><trkpt lat="44.652284456015614" lon="11.726579231087698"><ele>6.0</ele><time>2026-03-29T09:19:49Z</time></trkpt><trkpt lat="44.6524354740287" lon="11.72660817166911"><ele>6.0</ele><time>2026-03-29T09:19:50Z</time></trkpt><trkpt lat="44.65259804917408" lon="11.726646266307242"><ele>6.0</ele><time>2026-03-29T09:19:51Z</time></trkpt><trkpt lat="44.652748164133044" lon="11.726708250696715"><ele>6.0</ele><time>2026-03-29T09:19:52Z</time></trkpt><trkpt lat="44.652890687891386" lon="11.726783311578986"><ele>6.0</ele><time>2026-03-29T09:19:53Z</time></trkpt><trkpt lat="44.6530331811562" lon="11.726869935422577"><ele>6.0</ele><time>2026-03-29T09:19:54Z</time></trkpt><trkpt lat="44.653171148202006" lon="11.726969111846024"><ele>6.0</ele><time>2026-03-29T09:19:55Z</time></trkpt><trkpt lat="44.653296538995775" lon="11.727073953660074"><ele>6.0</ele><time>2026-03-29T09:19:56Z</time></trkpt><trkpt lat="44.65341407404747" lon="11.727171555068814"><ele>6.0</ele><time>2026-03-29T09:19:57Z</time></trkpt><trkpt lat="44.65352190410408" lon="11.727309205813961"><ele>6.0</ele><time>2026-03-29T09:19:58Z</time></trkpt><trkpt lat="44.6536555258736" lon="11.727449725019909"><ele>6.0</ele><time>2026-03-29T09:19:59Z</time></trkpt><trkpt lat="44.65378088368119" lon="11.727597895124564"><ele>6.0</ele><time>2026-03-29T09:20:00Z</time></trkpt><trkpt lat="44.65390254235824" lon="11.727741737478844"><ele>6.0</ele><time>2026-03-29T09:20:01Z</time></trkpt><trkpt lat="44.654024074010394" lon="11.727881730473419"><ele>6.0</ele><time>2026-03-29T09:20:02Z</time></trkpt><trkpt lat="44.654146807632536" lon="11.728019046955543"><ele>6.0</ele><time>2026-03-29T09:20:03Z</time></trkpt><trkpt lat="44.65426972659498" lon="11.728157224955618"><ele>6.0</ele><time>2026-03-29T09:20:04Z</time></trkpt><trkpt lat="44.65439655628784" lon="11.72829374620987"><ele>6.0</ele><time>2026-03-29T09:20:05Z</time></trkpt><trkpt lat="44.65451530739072" lon="11.728438159276799"><ele>6.0</ele><time>2026-03-29T09:20:06Z</time></trkpt><trkpt lat="44.65462938557313" lon="11.728597584213428"><ele>6.0</ele><time>2026-03-29T09:20:07Z</time></trkpt><trkpt lat="44.65473078455982" lon="11.728750844705523"><ele>6.0</ele><time>2026-03-29T09:20:08Z</time></trkpt><trkpt lat="44.65482888803422" lon="11.728906490453474"><ele>6.0</ele><time>2026-03-29T09:20:09Z</time></trkpt><trkpt lat="44.65493646952291" lon="11.729072216918983"><ele>6.0</ele><time>2026-03-29T09:20:10Z</time></trkpt><trkpt lat="44.65503589528582" lon="11.729240303544943"><ele>6.0</ele><time>2026-03-29T09:20:11Z</time></trkpt><trkpt lat="44.65513986479556" lon="11.72940597586646"><ele>6.0</ele><time>2026-03-29T09:20:12Z</time></trkpt><trkpt lat="44.65524358980244" lon="11.72958129541893"><ele>5.333333333333333</ele><time>2026-03-29T09:20:13Z</time></trkpt><trkpt lat="44.6553452827757" lon="11.72975315623009"><ele>4.666666666666666</ele><time>2026-03-29T09:20:14Z</time></trkpt><trkpt lat="44.65545502930522" lon="11.729933774893803"><ele>4.0</ele><time>2026-03-29T09:20:15Z</time></trkpt><trkpt lat="44.655564300228384" lon="11.730107713104466"><ele>5.0</ele><time>2026-03-29T09:20:16Z</time></trkpt><trkpt lat="44.65567874881066" lon="11.730282140261128"><ele>6.0</ele><time>2026-03-29T09:20:17Z</time></trkpt><trkpt lat="44.655781633536975" lon="11.730440847802914"><ele>7.0</ele><time>2026-03-29T09:20:18Z</time></trkpt><trkpt lat="44.655883760002496" lon="11.730595873494508"><ele>7.0</ele><time>2026-03-29T09:20:19Z</time></trkpt><trkpt lat="44.65598679809239" lon="11.730754059338004"><ele>7.0</ele><time>2026-03-29T09:20:20Z</time></trkpt><trkpt lat="44.65608009889986" lon="11.730919777427786"><ele>7.0</ele><time>2026-03-29T09:20:21Z</time></trkpt><trkpt lat="44.656165387166226" lon="11.731103560649045"><ele>6.0</ele><time>2026-03-29T09:20:22Z</time></trkpt><trkpt lat="44.65624803871007" lon="11.731300863452143"><ele>5.0</ele><time>2026-03-29T09:20:23Z</time></trkpt><trkpt lat="44.65632668368499" lon="11.731500920030564"><ele>4.0</ele><time>2026-03-29T09:20:24Z</time></trkpt><trkpt lat="44.65640473160836" lon="11.731710481704631"><ele>5.0</ele><time>2026-03-29T09:20:25Z</time></trkpt><trkpt lat="44.65648427376236" lon="11.73192234872382"><ele>6.0</ele><time>2026-03-29T09:20:26Z</time></trkpt><trkpt lat="44.656561222343214" lon="11.73213181176429"><ele>7.0</ele><time>2026-03-29T09:20:27Z</time></trkpt><trkpt lat="44.656632169489214" lon="11.73233805592091"><ele>7.0</ele><time>2026-03-29T09:20:28Z</time></trkpt><trkpt lat="44.65670055592014" lon="11.732544115771493"><ele>7.0</ele><time>2026-03-29T09:20:29Z</time></trkpt><trkpt lat="44.656759835783376" lon="11.732763480330727"><ele>7.0</ele><time>2026-03-29T09:20:29.999Z</time></trkpt><trkpt lat="44.65681064327705" lon="11.732982549809766"><ele>6.666666666666667</ele><time>2026-03-29T09:20:30.999Z</time></trkpt><trkpt lat="44.656860217374266" lon="11.733208810491352"><ele>6.333333333333334</ele><time>2026-03-29T09:20:31.999Z</time></trkpt><trkpt lat="44.656910256034244" lon="11.733439710957112"><ele>6.0</ele><time>2026-03-29T09:20:33Z</time></trkpt><trkpt lat="44.65695355883921" lon="11.733674007979744"><ele>4.333333333333333</ele><time>2026-03-29T09:20:34Z</time></trkpt><trkpt lat="44.65699651100128" lon="11.73390630087626"><ele>2.6666666666666665</ele><time>2026-03-29T09:20:35Z</time></trkpt><trkpt lat="44.65703872764472" lon="11.734139873783892"><ele>1.0</ele><time>2026-03-29T09:20:36Z</time></trkpt><trkpt lat="44.65707888497178" lon="11.73436969025158"><ele>1.5</ele><time>2026-03-29T09:20:37Z</time></trkpt><trkpt lat="44.65711205494696" lon="11.734576632851716"><ele>2.0</ele><time>2026-03-29T09:20:38Z</time></trkpt><trkpt lat="44.657136479743244" lon="11.734782355822965"><ele>2.5</ele><time>2026-03-29T09:20:39Z</time></trkpt><trkpt lat="44.65715345683854" lon="11.734984908537392"><ele>3.0</ele><time>2026-03-29T09:20:40Z</time></trkpt><trkpt lat="44.65717210288413" lon="11.735201175322576"><ele>2.3333333333333335</ele><time>2026-03-29T09:20:41Z</time></trkpt><trkpt lat="44.657183563234874" lon="11.735429399339045"><ele>1.6666666666666665</ele><time>2026-03-29T09:20:42Z</time></trkpt><trkpt lat="44.657189698385714" lon="11.735653571937643"><ele>1.0</ele><time>2026-03-29T09:20:43Z</time></trkpt><trkpt lat="44.65719488508174" lon="11.73588377442095"><ele>1.0</ele><time>2026-03-29T09:20:44Z</time></trkpt><trkpt lat="44.65720123509382" lon="11.736115738109461"><ele>1.0</ele><time>2026-03-29T09:20:45Z</time></trkpt><trkpt lat="44.657204844289296" lon="11.736344065779884"><ele>1.0</ele><time>2026-03-29T09:20:46Z</time></trkpt><trkpt lat="44.65720864573158" lon="11.736576247894975"><ele>1.0</ele><time>2026-03-29T09:20:47Z</time></trkpt><trkpt lat="44.65721329450702" lon="11.736817385964912"><ele>1.0</ele><time>2026-03-29T09:20:48Z</time></trkpt><trkpt lat="44.657218802400294" lon="11.737059539904564"><ele>1.0</ele><time>2026-03-29T09:20:49Z</time></trkpt><trkpt lat="44.6572305714132" lon="11.737307943287574"><ele>1.0</ele><time>2026-03-29T09:20:50Z</time></trkpt><trkpt lat="44.65723413773659" lon="11.737551531185888"><ele>1.0</ele><time>2026-03-29T09:20:51Z</time></trkpt><trkpt lat="44.65723418300886" lon="11.737784773461902"><ele>1.0</ele><time>2026-03-29T09:20:52Z</time></trkpt><trkpt lat="44.65723619100317" lon="11.738020021126738"><ele>1.3333333333333333</ele><time>2026-03-29T09:20:53Z</time></trkpt><trkpt lat="44.65722822158625" lon="11.738267922199261"><ele>1.6666666666666665</ele><time>2026-03-29T09:20:54Z</time></trkpt><trkpt lat="44.65721700488451" lon="11.738514322529474"><ele>2.0</ele><time>2026-03-29T09:20:55Z</time></trkpt><trkpt lat="44.65719943234153" lon="11.738744499871087"><ele>2.0</ele><time>2026-03-29T09:20:56Z</time></trkpt><trkpt lat="44.65718167611343" lon="11.738973490175747"><ele>2.0</ele><time>2026-03-29T09:20:57Z</time></trkpt><trkpt lat="44.6571649312312" lon="11.739203771583837"><ele>2.0</ele><time>2026-03-29T09:20:58Z</time></trkpt><trkpt lat="44.657152813286444" lon="11.73943304629074"><ele>1.6666666666666665</ele><time>2026-03-29T09:20:59Z</time></trkpt><trkpt lat="44.65713781658894" lon="11.73966074704872"><ele>1.3333333333333333</ele><time>2026-03-29T09:21:00Z</time></trkpt><trkpt lat="44.65712572745337" lon="11.73988501277566"><ele>1.0</ele><time>2026-03-29T09:21:01Z</time></trkpt><trkpt lat="44.65711097637033" lon="11.74010637321357"><ele>1.0</ele><time>2026-03-29T09:21:02Z</time></trkpt><trkpt lat="44.65709854234767" lon="11.740338350512662"><ele>1.0</ele><time>2026-03-29T09:21:03Z</time></trkpt><trkpt lat="44.65708397784203" lon="11.740592723626518"><ele>1.0</ele><time>2026-03-29T09:21:04Z</time></trkpt><trkpt lat="44.65706726062131" lon="11.740852287634924"><ele>1.3333333333333333</ele><time>2026-03-29T09:21:05Z</time></trkpt><trkpt lat="44.657055319112196" lon="11.74111096585558"><ele>1.6666666666666665</ele><time>2026-03-29T09:21:06Z</time></trkpt><trkpt lat="44.657040992623" lon="11.741370612745825"><ele>2.0</ele><time>2026-03-29T09:21:07Z</time></trkpt><trkpt lat="44.65702368185148" lon="11.741629749859085"><ele>2.6666666666666665</ele><time>2026-03-29T09:21:08Z</time></trkpt><trkpt lat="44.65700586959712" lon="11.741884103092564"><ele>3.333333333333333</ele><time>2026-03-29T09:21:09Z</time></trkpt><trkpt lat="44.656989695106006" lon="11.742138741109473"><ele>4.0</ele><time>2026-03-29T09:21:10Z</time></trkpt><trkpt lat="44.656974276870216" lon="11.7423865904174"><ele>4.0</ele><time>2026-03-29T09:21:11Z</time></trkpt><trkpt lat="44.65696947498267" lon="11.74263673187121"><ele>4.0</ele><time>2026-03-29T09:21:12Z</time></trkpt><trkpt lat="44.6569664404081" lon="11.742888510176586"><ele>4.0</ele><time>2026-03-29T09:21:13Z</time></trkpt><trkpt lat="44.65696873307772" lon="11.743146221609413"><ele>4.0</ele><time>2026-03-29T09:21:14Z</time></trkpt><trkpt lat="44.65697540998304" lon="11.743398439044489"><ele>4.0</ele><time>2026-03-29T09:21:15Z</time></trkpt><trkpt lat="44.6569822198367" lon="11.743640180070942"><ele>4.0</ele><time>2026-03-29T09:21:16Z</time></trkpt><trkpt lat="44.65698920367275" lon="11.743874302888313"><ele>3.333333333333333</ele><time>2026-03-29T09:21:17Z</time></trkpt><trkpt lat="44.656997998679635" lon="11.744085469611694"><ele>2.6666666666666665</ele><time>2026-03-29T09:21:18Z</time></trkpt><trkpt lat="44.65700816505512" lon="11.744297081310691"><ele>2.0</ele><time>2026-03-29T09:21:19Z</time></trkpt><trkpt lat="44.6570187226481" lon="11.744519630653693"><ele>1.6666666666666665</ele><time>2026-03-29T09:21:20Z</time></trkpt><trkpt lat="44.6570300303053" lon="11.74474030739388"><ele>1.3333333333333333</ele><time>2026-03-29T09:21:21Z</time></trkpt><trkpt lat="44.65703900561304" lon="11.74496035934075"><ele>1.0</ele><time>2026-03-29T09:21:22Z</time></trkpt><trkpt lat="44.657050376512174" lon="11.745176250744022"><ele>1.6666666666666665</ele><time>2026-03-29T09:21:23Z</time></trkpt><trkpt lat="44.65706366581311" lon="11.745393459435896"><ele>2.3333333333333335</ele><time>2026-03-29T09:21:24Z</time></trkpt><trkpt lat="44.65707410513241" lon="11.745626491302904"><ele>3.0</ele><time>2026-03-29T09:21:25Z</time></trkpt><trkpt lat="44.65708603300919" lon="11.745847697942352"><ele>3.333333333333333</ele><time>2026-03-29T09:21:26Z</time></trkpt><trkpt lat="44.65709320986061" lon="11.74606978288579"><ele>3.6666666666666665</ele><time>2026-03-29T09:21:27Z</time></trkpt><trkpt lat="44.65710617821841" lon="11.74628849726139"><ele>4.0</ele><time>2026-03-29T09:21:28Z</time></trkpt><trkpt lat="44.65711970345693" lon="11.746511694102272"><ele>4.0</ele><time>2026-03-29T09:21:29Z</time></trkpt><trkpt lat="44.65713399798665" lon="11.746737177659792"><ele>4.0</ele><time>2026-03-29T09:21:30Z</time></trkpt><trkpt lat="44.65714886414641" lon="11.7469713174356"><ele>4.0</ele><time>2026-03-29T09:21:31Z</time></trkpt><trkpt lat="44.65716011368002" lon="11.747216987789468"><ele>4.0</ele><time>2026-03-29T09:21:32Z</time></trkpt><trkpt lat="44.65717133557951" lon="11.747448327495293"><ele>4.0</ele><time>2026-03-29T09:21:33Z</time></trkpt><trkpt lat="44.657182867955676" lon="11.747678143121087"><ele>4.0</ele><time>2026-03-29T09:21:34Z</time></trkpt><trkpt lat="44.65719529327215" lon="11.747902508574867"><ele>4.0</ele><time>2026-03-29T09:21:35Z</time></trkpt><trkpt lat="44.65720728409102" lon="11.748130970590909"><ele>4.0</ele><time>2026-03-29T09:21:36Z</time></trkpt><trkpt lat="44.657217705198946" lon="11.748367196594401"><ele>4.0</ele><time>2026-03-29T09:21:37Z</time></trkpt><trkpt lat="44.65722951057421" lon="11.748601912423998"><ele>4.333333333333333</ele><time>2026-03-29T09:21:38Z</time></trkpt><trkpt lat="44.65724237181395" lon="11.748833266251197"><ele>4.666666666666667</ele><time>2026-03-29T09:21:39Z</time></trkpt><trkpt lat="44.65725770452765" lon="11.74905322198901"><ele>5.0</ele><time>2026-03-29T09:21:40Z</time></trkpt><trkpt lat="44.65727139627227" lon="11.749264767507258"><ele>5.0</ele><time>2026-03-29T09:21:41Z</time></trkpt><trkpt lat="44.65728413690794" lon="11.749470437703595"><ele>5.0</ele><time>2026-03-29T09:21:42Z</time></trkpt><trkpt lat="44.657294467051535" lon="11.749670185560968"><ele>5.0</ele><time>2026-03-29T09:21:43Z</time></trkpt><trkpt lat="44.65730465441953" lon="11.74986225236236"><ele>5.0</ele><time>2026-03-29T09:21:44Z</time></trkpt><trkpt lat="44.657318892604614" lon="11.750039121056068"><ele>5.0</ele><time>2026-03-29T09:21:45Z</time></trkpt><trkpt lat="44.657328847936746" lon="11.750218409408001"><ele>5.0</ele><time>2026-03-29T09:21:46Z</time></trkpt><trkpt lat="44.65733471624055" lon="11.750381102923793"><ele>5.0</ele><time>2026-03-29T09:21:47Z</time></trkpt><trkpt lat="44.65734149655115" lon="11.750529159215587"><ele>5.0</ele><time>2026-03-29T09:21:48Z</time></trkpt><trkpt lat="44.65734697785669" lon="11.750662074566996"><ele>5.0</ele><time>2026-03-29T09:21:49Z</time></trkpt><trkpt lat="44.65735222375952" lon="11.750778264879978"><ele>5.0</ele><time>2026-03-29T09:21:50Z</time></trkpt><trkpt lat="44.657361732706256" lon="11.750899594723675"><ele>5.0</ele><time>2026-03-29T09:21:51Z</time></trkpt><trkpt lat="44.65738068952188" lon="11.75105480802084"><ele>5.0</ele><time>2026-03-29T09:21:52Z</time></trkpt><trkpt lat="44.657375498443386" lon="11.751224643110683"><ele>5.0</ele><time>2026-03-29T09:21:53Z</time></trkpt><trkpt lat="44.657382922017284" lon="11.751392031662089"><ele>5.0</ele><time>2026-03-29T09:21:54Z</time></trkpt><trkpt lat="44.65739599897372" lon="11.751558237181213"><ele>5.0</ele><time>2026-03-29T09:21:55Z</time></trkpt><trkpt lat="44.65740375108584" lon="11.75172416782904"><ele>5.0</ele><time>2026-03-29T09:21:56Z</time></trkpt><trkpt lat="44.65740528192157" lon="11.751889713595736"><ele>5.0</ele><time>2026-03-29T09:21:57Z</time></trkpt><trkpt lat="44.65741341036876" lon="11.752061589084091"><ele>5.0</ele><time>2026-03-29T09:21:58Z</time></trkpt><trkpt lat="44.65742508496383" lon="11.752251593767813"><ele>5.0</ele><time>2026-03-29T09:21:59Z</time></trkpt><trkpt lat="44.65744180896357" lon="11.752446815636146"><ele>5.0</ele><time>2026-03-29T09:22:00Z</time></trkpt><trkpt lat="44.65745656747271" lon="11.752650733325508"><ele>5.0</ele><time>2026-03-29T09:22:01Z</time></trkpt><trkpt lat="44.65747384868602" lon="11.752857081970204"><ele>5.0</ele><time>2026-03-29T09:22:02Z</time></trkpt><trkpt lat="44.65749223780244" lon="11.753058290836746"><ele>5.0</ele><time>2026-03-29T09:22:03Z</time></trkpt><trkpt lat="44.657512677918206" lon="11.753258720734857"><ele>5.0</ele><time>2026-03-29T09:22:04Z</time></trkpt><trkpt lat="44.65753308783646" lon="11.75346138666657"><ele>5.0</ele><time>2026-03-29T09:22:05Z</time></trkpt><trkpt lat="44.65755653469144" lon="11.753663258963213"><ele>5.0</ele><time>2026-03-29T09:22:06Z</time></trkpt><trkpt lat="44.65757745818856" lon="11.753858886238227"><ele>5.25</ele><time>2026-03-29T09:22:07Z</time></trkpt><trkpt lat="44.657597942064655" lon="11.75405782178781"><ele>5.5</ele><time>2026-03-29T09:22:08Z</time></trkpt><trkpt lat="44.65761540869278" lon="11.75425926327106"><ele>5.75</ele><time>2026-03-29T09:22:09Z</time></trkpt><trkpt lat="44.65763119360165" lon="11.754466751475045"><ele>6.0</ele><time>2026-03-29T09:22:10Z</time></trkpt><trkpt lat="44.657644624482565" lon="11.754666433231206"><ele>6.0</ele><time>2026-03-29T09:22:11Z</time></trkpt><trkpt lat="44.65765894581644" lon="11.754859692325164"><ele>6.0</ele><time>2026-03-29T09:22:12Z</time></trkpt><trkpt lat="44.65766895435132" lon="11.75504201581789"><ele>6.0</ele><time>2026-03-29T09:22:13Z</time></trkpt><trkpt lat="44.65768238996461" lon="11.75521133112181"><ele>6.0</ele><time>2026-03-29T09:22:14Z</time></trkpt><trkpt lat="44.65769173634628" lon="11.755362592870977"><ele>6.0</ele><time>2026-03-29T09:22:15Z</time></trkpt><trkpt lat="44.65769637876356" lon="11.755512474219596"><ele>6.0</ele><time>2026-03-29T09:22:16Z</time></trkpt><trkpt lat="44.65769986396711" lon="11.755677872865153"><ele>6.0</ele><time>2026-03-29T09:22:17Z</time></trkpt><trkpt lat="44.65770394081754" lon="11.755847401742328"><ele>6.0</ele><time>2026-03-29T09:22:18Z</time></trkpt><trkpt lat="44.6576907877173" lon="11.756008903237756"><ele>6.0</ele><time>2026-03-29T09:22:19Z</time></trkpt><trkpt lat="44.65768323576908" lon="11.756183511669542"><ele>6.0</ele><time>2026-03-29T09:22:20Z</time></trkpt><trkpt lat="44.65766863888333" lon="11.756350354131756"><ele>6.0</ele><time>2026-03-29T09:22:21Z</time></trkpt><trkpt lat="44.65766323712573" lon="11.756524175451728"><ele>6.0</ele><time>2026-03-29T09:22:22Z</time></trkpt><trkpt lat="44.65764231956745" lon="11.756679954345985"><ele>6.0</ele><time>2026-03-29T09:22:23Z</time></trkpt><trkpt lat="44.65762454597346" lon="11.756832638391236"><ele>6.0</ele><time>2026-03-29T09:22:24Z</time></trkpt><trkpt lat="44.65758386774216" lon="11.756984402144578"><ele>6.0</ele><time>2026-03-29T09:22:25Z</time></trkpt><trkpt lat="44.65754098442297" lon="11.757123213400568"><ele>6.0</ele><time>2026-03-29T09:22:26Z</time></trkpt><trkpt lat="44.657501999103445" lon="11.757238348781188"><ele>6.0</ele><time>2026-03-29T09:22:27Z</time></trkpt><trkpt lat="44.65746465168928" lon="11.75731968073265"><ele>5.5</ele><time>2026-03-29T09:22:28Z</time></trkpt><trkpt lat="44.65743320185511" lon="11.757412313792429"><ele>5.0</ele><time>2026-03-29T09:22:29Z</time></trkpt><trkpt lat="44.65739359557485" lon="11.757509066815388"><ele>4.5</ele><time>2026-03-29T09:22:30Z</time></trkpt><trkpt lat="44.65736653186842" lon="11.757623781691883"><ele>4.0</ele><time>2026-03-29T09:22:31Z</time></trkpt><trkpt lat="44.65735870326477" lon="11.757755331525576"><ele>3.5</ele><time>2026-03-29T09:22:32Z</time></trkpt><trkpt lat="44.65738501923083" lon="11.757878927832214"><ele>3.0</ele><time>2026-03-29T09:22:33Z</time></trkpt><trkpt lat="44.657420768356666" lon="11.758038584218767"><ele>2.5</ele><time>2026-03-29T09:22:34Z</time></trkpt><trkpt lat="44.65744569246862" lon="11.758201197301148"><ele>2.0</ele><time>2026-03-29T09:22:35Z</time></trkpt><trkpt lat="44.65748472840332" lon="11.758365627684741"><ele>1.5</ele><time>2026-03-29T09:22:36Z</time></trkpt><trkpt lat="44.657523992739975" lon="11.758550598673143"><ele>1.0</ele><time>2026-03-29T09:22:37Z</time></trkpt><trkpt lat="44.65756742133089" lon="11.758745032385919"><ele>0.6666666666666666</ele><time>2026-03-29T09:22:38Z</time></trkpt><trkpt lat="44.65760495937481" lon="11.758966367980221"><ele>0.3333333333333333</ele><time>2026-03-29T09:22:39Z</time></trkpt><trkpt lat="44.65765244676304" lon="11.75919796804293"><ele>0.0</ele><time>2026-03-29T09:22:40Z</time></trkpt><trkpt lat="44.657690966473886" lon="11.75942039610668"><ele>0.0</ele><time>2026-03-29T09:22:41Z</time></trkpt><trkpt lat="44.65772178045376" lon="11.75961998668638"><ele>0.0</ele><time>2026-03-29T09:22:42Z</time></trkpt><trkpt lat="44.657758842506325" lon="11.759806932108411"><ele>0.0</ele><time>2026-03-29T09:22:43Z</time></trkpt><trkpt lat="44.65779845763146" lon="11.75998896975825"><ele>0.0</ele><time>2026-03-29T09:22:44Z</time></trkpt><trkpt lat="44.65784221469726" lon="11.76018076612925"><ele>0.6666666666666666</ele><time>2026-03-29T09:22:45Z</time></trkpt><trkpt lat="44.6578879096009" lon="11.76037723345258"><ele>1.3333333333333333</ele><time>2026-03-29T09:22:46Z</time></trkpt><trkpt lat="44.65793392746995" lon="11.76057711827724"><ele>2.0</ele><time>2026-03-29T09:22:47Z</time></trkpt><trkpt lat="44.65798768685622" lon="11.760780738317195"><ele>2.0</ele><time>2026-03-29T09:22:48Z</time></trkpt><trkpt lat="44.658043086776004" lon="11.760973702252992"><ele>2.0</ele><time>2026-03-29T09:22:49Z</time></trkpt><trkpt lat="44.6580928474343" lon="11.761145445393007"><ele>2.0</ele><time>2026-03-29T09:22:50Z</time></trkpt><trkpt lat="44.65814093601157" lon="11.761307354686922"><ele>2.0</ele><time>2026-03-29T09:22:51Z</time></trkpt><trkpt lat="44.65818602027937" lon="11.761449784338886"><ele>2.0</ele><time>2026-03-29T09:22:52Z</time></trkpt><trkpt lat="44.658225697968504" lon="11.761577106924634"><ele>2.0</ele><time>2026-03-29T09:22:53Z</time></trkpt><trkpt lat="44.658260873114514" lon="11.761689885438395"><ele>2.0</ele><time>2026-03-29T09:22:54Z</time></trkpt><trkpt lat="44.658290438705265" lon="11.7617881442607"><ele>2.0</ele><time>2026-03-29T09:22:55Z</time></trkpt><trkpt lat="44.6583374831439" lon="11.7619341557651"><ele>2.0</ele><time>2026-03-29T09:22:57Z</time></trkpt><trkpt lat="44.658379606712295" lon="11.76205893078192"><ele>2.0</ele><time>2026-03-29T09:22:59Z</time></trkpt><trkpt lat="44.65837887496718" lon="11.76224357707807"><ele>2.0</ele><time>2026-03-29T09:23:01Z</time></trkpt><trkpt lat="44.658345272696884" lon="11.762365084411579"><ele>2.0</ele><time>2026-03-29T09:23:02Z</time></trkpt><trkpt lat="44.658286277987024" lon="11.762515491631582"><ele>2.0</ele><time>2026-03-29T09:23:03Z</time></trkpt><trkpt lat="44.658215698807126" lon="11.762682479983848"><ele>1.6666666666666665</ele><time>2026-03-29T09:23:04Z</time></trkpt><trkpt lat="44.65814563133469" lon="11.76284139044732"><ele>1.3333333333333333</ele><time>2026-03-29T09:23:05Z</time></trkpt><trkpt lat="44.65806084938966" lon="11.763038577372098"><ele>1.0</ele><time>2026-03-29T09:23:06Z</time></trkpt><trkpt lat="44.65797052732998" lon="11.763237294821815"><ele>1.0</ele><time>2026-03-29T09:23:07Z</time></trkpt><trkpt lat="44.657873807464206" lon="11.763417137027014"><ele>1.0</ele><time>2026-03-29T09:23:08Z</time></trkpt><trkpt lat="44.657758297762726" lon="11.763603358086234"><ele>1.0</ele><time>2026-03-29T09:23:09Z</time></trkpt><trkpt lat="44.65762076287065" lon="11.763793575713384"><ele>1.3333333333333333</ele><time>2026-03-29T09:23:10Z</time></trkpt><trkpt lat="44.65747737278964" lon="11.763975987770124"><ele>1.6666666666666665</ele><time>2026-03-29T09:23:11Z</time></trkpt><trkpt lat="44.65734189211944" lon="11.764146472561608"><ele>2.0</ele><time>2026-03-29T09:23:12Z</time></trkpt><trkpt lat="44.657211952359184" lon="11.764315744736365"><ele>1.6666666666666665</ele><time>2026-03-29T09:23:13Z</time></trkpt><trkpt lat="44.65708695106934" lon="11.764480421050335"><ele>1.3333333333333333</ele><time>2026-03-29T09:23:14Z</time></trkpt><trkpt lat="44.65695285065893" lon="11.764664937829696"><ele>1.0</ele><time>2026-03-29T09:23:15Z</time></trkpt><trkpt lat="44.65681287738109" lon="11.764860079846198"><ele>1.0</ele><time>2026-03-29T09:23:16Z</time></trkpt><trkpt lat="44.65667310491788" lon="11.765060553752411"><ele>1.0</ele><time>2026-03-29T09:23:17Z</time></trkpt><trkpt lat="44.65652827682503" lon="11.765270911112134"><ele>1.0</ele><time>2026-03-29T09:23:18Z</time></trkpt><trkpt lat="44.65638351605138" lon="11.765479666965758"><ele>1.0</ele><time>2026-03-29T09:23:19Z</time></trkpt><trkpt lat="44.65624358382101" lon="11.765676823048018"><ele>1.0</ele><time>2026-03-29T09:23:20Z</time></trkpt><trkpt lat="44.65611164676305" lon="11.765857370675418"><ele>1.0</ele><time>2026-03-29T09:23:21Z</time></trkpt><trkpt lat="44.65598454407268" lon="11.766035637273824"><ele>0.6666666666666666</ele><time>2026-03-29T09:23:22Z</time></trkpt><trkpt lat="44.65585833071167" lon="11.7662129061623"><ele>0.3333333333333333</ele><time>2026-03-29T09:23:23Z</time></trkpt><trkpt lat="44.65573182940623" lon="11.766378572260262"><ele>0.0</ele><time>2026-03-29T09:23:24Z</time></trkpt><trkpt lat="44.65560083882731" lon="11.766540880401474"><ele>0.0</ele><time>2026-03-29T09:23:25Z</time></trkpt><trkpt lat="44.65546946774186" lon="11.766689987004769"><ele>0.0</ele><time>2026-03-29T09:23:26Z</time></trkpt><trkpt lat="44.655335951480566" lon="11.766835143900932"><ele>0.0</ele><time>2026-03-29T09:23:27Z</time></trkpt><trkpt lat="44.65520872661319" lon="11.766975781006952"><ele>0.6666666666666666</ele><time>2026-03-29T09:23:28Z</time></trkpt><trkpt lat="44.655080202157755" lon="11.767116071007528"><ele>1.3333333333333333</ele><time>2026-03-29T09:23:29Z</time></trkpt><trkpt lat="44.65495872997946" lon="11.767255184585652"><ele>2.0</ele><time>2026-03-29T09:23:30Z</time></trkpt><trkpt lat="44.65483692910502" lon="11.767393411555009"><ele>2.0</ele><time>2026-03-29T09:23:31Z</time></trkpt><trkpt lat="44.65471643719071" lon="11.767534489527876"><ele>2.0</ele><time>2026-03-29T09:23:32Z</time></trkpt><trkpt lat="44.654603581363055" lon="11.76769297462638"><ele>2.0</ele><time>2026-03-29T09:23:33Z</time></trkpt><trkpt lat="44.654504903836255" lon="11.767878640975418"><ele>2.6666666666666665</ele><time>2026-03-29T09:23:34Z</time></trkpt><trkpt lat="44.65441907364263" lon="11.768083125835654"><ele>3.333333333333333</ele><time>2026-03-29T09:23:35Z</time></trkpt><trkpt lat="44.654347850109076" lon="11.768278746122212"><ele>4.0</ele><time>2026-03-29T09:23:36Z</time></trkpt><trkpt lat="44.65428628151322" lon="11.76845880280092"><ele>4.25</ele><time>2026-03-29T09:23:37Z</time></trkpt><trkpt lat="44.65422848716907" lon="11.768626864535124"><ele>4.5</ele><time>2026-03-29T09:23:38Z</time></trkpt><trkpt lat="44.65417014466376" lon="11.768802079198277"><ele>4.75</ele><time>2026-03-29T09:23:39Z</time></trkpt><trkpt lat="44.65410392188607" lon="11.768987267635994"><ele>5.0</ele><time>2026-03-29T09:23:40Z</time></trkpt><trkpt lat="44.6540485442366" lon="11.769176452343459"><ele>5.0</ele><time>2026-03-29T09:23:41Z</time></trkpt><trkpt lat="44.65397677256714" lon="11.769356257777677"><ele>5.0</ele><time>2026-03-29T09:23:42Z</time></trkpt><trkpt lat="44.65390817718335" lon="11.76953580755553"><ele>5.0</ele><time>2026-03-29T09:23:43Z</time></trkpt><trkpt lat="44.65384544324382" lon="11.76971821969442"><ele>5.0</ele><time>2026-03-29T09:23:44Z</time></trkpt><trkpt lat="44.653789520965084" lon="11.76990445763046"><ele>4.75</ele><time>2026-03-29T09:23:45Z</time></trkpt><trkpt lat="44.65374681406382" lon="11.77008213469506"><ele>4.5</ele><time>2026-03-29T09:23:46Z</time></trkpt><trkpt lat="44.653723243662775" lon="11.770265650765246"><ele>4.25</ele><time>2026-03-29T09:23:47Z</time></trkpt><trkpt lat="44.6536955415137" lon="11.77046098346533"><ele>4.0</ele><time>2026-03-29T09:23:48Z</time></trkpt><trkpt lat="44.653665358352804" lon="11.770666303798373"><ele>4.0</ele><time>2026-03-29T09:23:49Z</time></trkpt><trkpt lat="44.653630611408545" lon="11.770864616947318"><ele>4.0</ele><time>2026-03-29T09:23:50Z</time></trkpt><trkpt lat="44.65359863999324" lon="11.7710590033015"><ele>4.0</ele><time>2026-03-29T09:23:51Z</time></trkpt><trkpt lat="44.65356743731276" lon="11.771249761200679"><ele>4.0</ele><time>2026-03-29T09:23:52Z</time></trkpt><trkpt lat="44.65353445998651" lon="11.771440172385"><ele>4.75</ele><time>2026-03-29T09:23:53Z</time></trkpt><trkpt lat="44.65350368085526" lon="11.77163128640257"><ele>5.5</ele><time>2026-03-29T09:23:54Z</time></trkpt><trkpt lat="44.653476931144596" lon="11.771826388111831"><ele>6.25</ele><time>2026-03-29T09:23:55Z</time></trkpt><trkpt lat="44.65344931526023" lon="11.77202652932178"><ele>7.0</ele><time>2026-03-29T09:23:56Z</time></trkpt><trkpt lat="44.65341950434739" lon="11.772222511450144"><ele>7.0</ele><time>2026-03-29T09:23:57Z</time></trkpt><trkpt lat="44.65339108256058" lon="11.772419118524791"><ele>7.0</ele><time>2026-03-29T09:23:58Z</time></trkpt><trkpt lat="44.65336215043584" lon="11.772615113957992"><ele>7.0</ele><time>2026-03-29T09:23:59Z</time></trkpt><trkpt lat="44.65333562066977" lon="11.772814323987614"><ele>7.0</ele><time>2026-03-29T09:24:00Z</time></trkpt><trkpt lat="44.65331163791744" lon="11.773013442328514"><ele>7.0</ele><time>2026-03-29T09:24:01Z</time></trkpt><trkpt lat="44.653276910372526" lon="11.773209512619092"><ele>7.0</ele><time>2026-03-29T09:24:02Z</time></trkpt><trkpt lat="44.65323700499121" lon="11.77340495239031"><ele>7.0</ele><time>2026-03-29T09:24:03Z</time></trkpt><trkpt lat="44.65320645547044" lon="11.773603946267801"><ele>7.0</ele><time>2026-03-29T09:24:04Z</time></trkpt><trkpt lat="44.65317407339403" lon="11.773802870871423"><ele>7.0</ele><time>2026-03-29T09:24:05Z</time></trkpt><trkpt lat="44.65314680599027" lon="11.774006459698759"><ele>7.0</ele><time>2026-03-29T09:24:06Z</time></trkpt><trkpt lat="44.65311336017701" lon="11.774217156021825"><ele>7.0</ele><time>2026-03-29T09:24:07Z</time></trkpt><trkpt lat="44.65307551903094" lon="11.774431000362922"><ele>6.666666666666667</ele><time>2026-03-29T09:24:08Z</time></trkpt><trkpt lat="44.65304246960496" lon="11.774646079853017"><ele>6.333333333333334</ele><time>2026-03-29T09:24:09Z</time></trkpt><trkpt lat="44.65300748828377" lon="11.774850701166422"><ele>6.0</ele><time>2026-03-29T09:24:10Z</time></trkpt><trkpt lat="44.65297184818829" lon="11.775050041129752"><ele>5.5</ele><time>2026-03-29T09:24:11Z</time></trkpt><trkpt lat="44.65294507585989" lon="11.775246485686047"><ele>5.0</ele><time>2026-03-29T09:24:12Z</time></trkpt><trkpt lat="44.65291533329826" lon="11.775445352247383"><ele>4.5</ele><time>2026-03-29T09:24:13Z</time></trkpt><trkpt lat="44.65288699816305" lon="11.77564056547664"><ele>4.0</ele><time>2026-03-29T09:24:14Z</time></trkpt><trkpt lat="44.65285637594247" lon="11.775834725273851"><ele>4.25</ele><time>2026-03-29T09:24:15Z</time></trkpt><trkpt lat="44.65282963831255" lon="11.77603132262753"><ele>4.5</ele><time>2026-03-29T09:24:16Z</time></trkpt><trkpt lat="44.6527968629947" lon="11.776228045533621"><ele>4.75</ele><time>2026-03-29T09:24:17Z</time></trkpt><trkpt lat="44.65276756363723" lon="11.776422462523115"><ele>5.0</ele><time>2026-03-29T09:24:18Z</time></trkpt><trkpt lat="44.65272307094651" lon="11.776614927494673"><ele>5.75</ele><time>2026-03-29T09:24:19Z</time></trkpt><trkpt lat="44.65270773737657" lon="11.776813284219498"><ele>6.5</ele><time>2026-03-29T09:24:20Z</time></trkpt><trkpt lat="44.652710094496655" lon="11.777021435034086"><ele>7.25</ele><time>2026-03-29T09:24:21Z</time></trkpt><trkpt lat="44.65272859111413" lon="11.777233797803664"><ele>8.0</ele><time>2026-03-29T09:24:22Z</time></trkpt><trkpt lat="44.65275025408442" lon="11.777444144988674"><ele>8.0</ele><time>2026-03-29T09:24:23Z</time></trkpt><trkpt lat="44.65276877703844" lon="11.777650034383136"><ele>8.0</ele><time>2026-03-29T09:24:24Z</time></trkpt><trkpt lat="44.65277491196" lon="11.777849808781983"><ele>8.0</ele><time>2026-03-29T09:24:25Z</time></trkpt><trkpt lat="44.652765818430396" lon="11.77805231867432"><ele>8.0</ele><time>2026-03-29T09:24:26Z</time></trkpt><trkpt lat="44.65274525266082" lon="11.778255423474963"><ele>7.5</ele><time>2026-03-29T09:24:27Z</time></trkpt><trkpt lat="44.652710557425884" lon="11.77845666913723"><ele>7.0</ele><time>2026-03-29T09:24:28Z</time></trkpt><trkpt lat="44.65265394988089" lon="11.778652952556042"><ele>6.5</ele><time>2026-03-29T09:24:29Z</time></trkpt><trkpt lat="44.65259908987828" lon="11.778849412393326"><ele>6.0</ele><time>2026-03-29T09:24:30Z</time></trkpt><trkpt lat="44.652550350648596" lon="11.779044624446312"><ele>5.25</ele><time>2026-03-29T09:24:31Z</time></trkpt><trkpt lat="44.652510963743616" lon="11.779226919048952"><ele>4.5</ele><time>2026-03-29T09:24:32Z</time></trkpt><trkpt lat="44.652467396094366" lon="11.779414758955724"><ele>3.75</ele><time>2026-03-29T09:24:33Z</time></trkpt><trkpt lat="44.652418400693676" lon="11.779603796729626"><ele>3.0</ele><time>2026-03-29T09:24:34Z</time></trkpt><trkpt lat="44.6523695676585" lon="11.779796638857981"><ele>3.0</ele><time>2026-03-29T09:24:35Z</time></trkpt><trkpt lat="44.65231935915087" lon="11.779985125947816"><ele>3.0</ele><time>2026-03-29T09:24:36Z</time></trkpt><trkpt lat="44.65227610022681" lon="11.780170561184342"><ele>3.0</ele><time>2026-03-29T09:24:37Z</time></trkpt><trkpt lat="44.65224594464835" lon="11.780343685395483"><ele>3.0</ele><time>2026-03-29T09:24:38Z</time></trkpt><trkpt lat="44.65222502644242" lon="11.780516154237839"><ele>3.0</ele><time>2026-03-29T09:24:39Z</time></trkpt><trkpt lat="44.652211045949585" lon="11.780693674096378"><ele>3.0</ele><time>2026-03-29T09:24:40Z</time></trkpt><trkpt lat="44.65220081803728" lon="11.780871827375178"><ele>3.0</ele><time>2026-03-29T09:24:41Z</time></trkpt><trkpt lat="44.65218872977271" lon="11.781047824741988"><ele>3.0</ele><time>2026-03-29T09:24:42Z</time></trkpt><trkpt lat="44.65216852041752" lon="11.781221849586732"><ele>3.0</ele><time>2026-03-29T09:24:43Z</time></trkpt><trkpt lat="44.652134886342616" lon="11.78139073504552"><ele>3.0</ele><time>2026-03-29T09:24:44Z</time></trkpt><trkpt lat="44.65208346111237" lon="11.781566613321594"><ele>3.0</ele><time>2026-03-29T09:24:45Z</time></trkpt><trkpt lat="44.65201625021618" lon="11.781738909040298"><ele>3.0</ele><time>2026-03-29T09:24:46Z</time></trkpt><trkpt lat="44.65194016179582" lon="11.781921895031573"><ele>3.333333333333333</ele><time>2026-03-29T09:24:47Z</time></trkpt><trkpt lat="44.65185754506254" lon="11.782117212540296"><ele>3.6666666666666665</ele><time>2026-03-29T09:24:48Z</time></trkpt><trkpt lat="44.651770734619085" lon="11.782320522032759"><ele>4.0</ele><time>2026-03-29T09:24:49Z</time></trkpt><trkpt lat="44.65168284127276" lon="11.782527683813553"><ele>2.6666666666666665</ele><time>2026-03-29T09:24:50Z</time></trkpt><trkpt lat="44.651592977421984" lon="11.782731280213811"><ele>1.3333333333333333</ele><time>2026-03-29T09:24:51Z</time></trkpt><trkpt lat="44.65149887663996" lon="11.782932209284006"><ele>0.0</ele><time>2026-03-29T09:24:52Z</time></trkpt><trkpt lat="44.6514004568484" lon="11.783134603446989"><ele>0.0</ele><time>2026-03-29T09:24:53Z</time></trkpt><trkpt lat="44.65129952261767" lon="11.783331857905175"><ele>0.0</ele><time>2026-03-29T09:24:54Z</time></trkpt><trkpt lat="44.65120571844538" lon="11.783514091533105"><ele>0.0</ele><time>2026-03-29T09:24:55Z</time></trkpt><trkpt lat="44.65112424896698" lon="11.78368505672731"><ele>0.5</ele><time>2026-03-29T09:24:56Z</time></trkpt><trkpt lat="44.65104414467128" lon="11.783846587763449"><ele>1.0</ele><time>2026-03-29T09:24:57Z</time></trkpt><trkpt lat="44.65095972675268" lon="11.784012075905821"><ele>1.5</ele><time>2026-03-29T09:24:58Z</time></trkpt><trkpt lat="44.65087676804286" lon="11.784175927273285"><ele>2.0</ele><time>2026-03-29T09:24:59Z</time></trkpt><trkpt lat="44.650795443453696" lon="11.784340377289933"><ele>2.5</ele><time>2026-03-29T09:25:00Z</time></trkpt><trkpt lat="44.650716704051035" lon="11.784506246846947"><ele>3.0</ele><time>2026-03-29T09:25:01Z</time></trkpt><trkpt lat="44.650632619268485" lon="11.784675029267223"><ele>3.5</ele><time>2026-03-29T09:25:02Z</time></trkpt><trkpt lat="44.65054631358275" lon="11.784844423024664"><ele>4.0</ele><time>2026-03-29T09:25:03Z</time></trkpt><trkpt lat="44.65046144716062" lon="11.785015296546021"><ele>4.0</ele><time>2026-03-29T09:25:04Z</time></trkpt><trkpt lat="44.65037433140341" lon="11.785190362011656"><ele>4.0</ele><time>2026-03-29T09:25:05Z</time></trkpt><trkpt lat="44.65028688507514" lon="11.785364447047812"><ele>4.0</ele><time>2026-03-29T09:25:06Z</time></trkpt><trkpt lat="44.65020242444269" lon="11.785536690362903"><ele>4.25</ele><time>2026-03-29T09:25:07Z</time></trkpt><trkpt lat="44.65012462517908" lon="11.785696891379148"><ele>4.5</ele><time>2026-03-29T09:25:08Z</time></trkpt><trkpt lat="44.65005202878773" lon="11.785850101964177"><ele>4.75</ele><time>2026-03-29T09:25:09Z</time></trkpt><trkpt lat="44.64998144592775" lon="11.785995654263129"><ele>5.0</ele><time>2026-03-29T09:25:10Z</time></trkpt><trkpt lat="44.64991545877491" lon="11.78613010857217"><ele>4.0</ele><time>2026-03-29T09:25:11Z</time></trkpt><trkpt lat="44.64984984475958" lon="11.786254875565737"><ele>3.0</ele><time>2026-03-29T09:25:12Z</time></trkpt><trkpt lat="44.64978321496809" lon="11.786391299788479"><ele>2.0</ele><time>2026-03-29T09:25:13Z</time></trkpt><trkpt lat="44.649718745738895" lon="11.786524696051549"><ele>1.0</ele><time>2026-03-29T09:25:14Z</time></trkpt><trkpt lat="44.649655076030186" lon="11.786659995784142"><ele>1.0</ele><time>2026-03-29T09:25:15Z</time></trkpt><trkpt lat="44.649591756450725" lon="11.786799454107916"><ele>1.0</ele><time>2026-03-29T09:25:16Z</time></trkpt><trkpt lat="44.64952650213939" lon="11.78694386182203"><ele>1.0</ele><time>2026-03-29T09:25:17Z</time></trkpt><trkpt lat="44.64946055356911" lon="11.787084142007599"><ele>1.0</ele><time>2026-03-29T09:25:18Z</time></trkpt><trkpt lat="44.64939276927624" lon="11.78720566522204"><ele>1.2000000000000002</ele><time>2026-03-29T09:25:19Z</time></trkpt><trkpt lat="44.6493279137522" lon="11.787302483227933"><ele>1.4000000000000001</ele><time>2026-03-29T09:25:20Z</time></trkpt><trkpt lat="44.64926589174274" lon="11.787392194989186"><ele>1.6</ele><time>2026-03-29T09:25:21Z</time></trkpt><trkpt lat="44.64919832220912" lon="11.787477891448708"><ele>1.8</ele><time>2026-03-29T09:25:22Z</time></trkpt><trkpt lat="44.649134902171525" lon="11.787577233878807"><ele>2.0</ele><time>2026-03-29T09:25:23Z</time></trkpt><trkpt lat="44.64906096655602" lon="11.787688820435967"><ele>2.25</ele><time>2026-03-29T09:25:24Z</time></trkpt><trkpt lat="44.64891950526725" lon="11.787717048145405"><ele>2.5</ele><time>2026-03-29T09:25:25Z</time></trkpt><trkpt lat="44.64880031280901" lon="11.787791451861104"><ele>2.75</ele><time>2026-03-29T09:25:26Z</time></trkpt><trkpt lat="44.64867778846543" lon="11.787854125288261"><ele>3.0</ele><time>2026-03-29T09:25:27Z</time></trkpt><trkpt lat="44.64856054966554" lon="11.787907627355004"><ele>3.0</ele><time>2026-03-29T09:25:28Z</time></trkpt><trkpt lat="44.64844550007037" lon="11.787964750873329"><ele>3.0</ele><time>2026-03-29T09:25:29Z</time></trkpt><trkpt lat="44.64832876497144" lon="11.788024969560908"><ele>3.0</ele><time>2026-03-29T09:25:30Z</time></trkpt><trkpt lat="44.64820401885681" lon="11.788088569713882"><ele>3.0</ele><time>2026-03-29T09:25:31Z</time></trkpt><trkpt lat="44.64806307897503" lon="11.788160383673722"><ele>3.0</ele><time>2026-03-29T09:25:32Z</time></trkpt><trkpt lat="44.64789765483711" lon="11.7882419403697"><ele>3.0</ele><time>2026-03-29T09:25:33Z</time></trkpt><trkpt lat="44.64773284936476" lon="11.788320422468471"><ele>3.0</ele><time>2026-03-29T09:25:34Z</time></trkpt><trkpt lat="44.647567740701746" lon="11.788403845496113"><ele>3.333333333333333</ele><time>2026-03-29T09:25:35Z</time></trkpt><trkpt lat="44.647383550426554" lon="11.788499288835482"><ele>3.6666666666666665</ele><time>2026-03-29T09:25:36Z</time></trkpt><trkpt lat="44.64719103095264" lon="11.788595888386727"><ele>4.0</ele><time>2026-03-29T09:25:37Z</time></trkpt><trkpt lat="44.64699706442182" lon="11.788695084013044"><ele>5.0</ele><time>2026-03-29T09:25:38Z</time></trkpt><trkpt lat="44.64681040519144" lon="11.7887900325493"><ele>6.0</ele><time>2026-03-29T09:25:39Z</time></trkpt><trkpt lat="44.64663964110048" lon="11.788875547861613"><ele>7.0</ele><time>2026-03-29T09:25:40Z</time></trkpt><trkpt lat="44.646474709629715" lon="11.788956614717895"><ele>7.0</ele><time>2026-03-29T09:25:41Z</time></trkpt><trkpt lat="44.646311010304544" lon="11.789035036814903"><ele>7.0</ele><time>2026-03-29T09:25:42Z</time></trkpt><trkpt lat="44.646153052830826" lon="11.78910587320879"><ele>7.0</ele><time>2026-03-29T09:25:43Z</time></trkpt><trkpt lat="44.64599703506128" lon="11.789200968736086"><ele>7.0</ele><time>2026-03-29T09:25:44Z</time></trkpt><trkpt lat="44.64585335366567" lon="11.78932391461016"><ele>7.0</ele><time>2026-03-29T09:25:45Z</time></trkpt><trkpt lat="44.6457308098658" lon="11.789500809365807"><ele>7.0</ele><time>2026-03-29T09:25:46Z</time></trkpt><trkpt lat="44.64563145876559" lon="11.789718315762297"><ele>7.0</ele><time>2026-03-29T09:25:47Z</time></trkpt><trkpt lat="44.6455501593472" lon="11.789950289184214"><ele>7.0</ele><time>2026-03-29T09:25:48Z</time></trkpt><trkpt lat="44.64547455560661" lon="11.790183093181929"><ele>7.0</ele><time>2026-03-29T09:25:49Z</time></trkpt><trkpt lat="44.64539615830477" lon="11.790418405674652"><ele>7.0</ele><time>2026-03-29T09:25:50Z</time></trkpt><trkpt lat="44.645313744802806" lon="11.790655611037813"><ele>7.0</ele><time>2026-03-29T09:25:51Z</time></trkpt><trkpt lat="44.6452339726162" lon="11.790891875801734"><ele>7.0</ele><time>2026-03-29T09:25:52Z</time></trkpt><trkpt lat="44.64515649697202" lon="11.791124269078187"><ele>5.333333333333334</ele><time>2026-03-29T09:25:53Z</time></trkpt><trkpt lat="44.64507966723745" lon="11.79136079998597"><ele>3.666666666666667</ele><time>2026-03-29T09:25:54Z</time></trkpt><trkpt lat="44.64499968716783" lon="11.79160003620812"><ele>2.0</ele><time>2026-03-29T09:25:55Z</time></trkpt><trkpt lat="44.6449173660414" lon="11.791835905775342"><ele>1.3333333333333333</ele><time>2026-03-29T09:25:56Z</time></trkpt><trkpt lat="44.64483604301741" lon="11.792074789864206"><ele>0.6666666666666666</ele><time>2026-03-29T09:25:57Z</time></trkpt><trkpt lat="44.644753114415124" lon="11.792311730971733"><ele>0.0</ele><time>2026-03-29T09:25:58Z</time></trkpt><trkpt lat="44.64466971305818" lon="11.792548559126748"><ele>0.3333333333333333</ele><time>2026-03-29T09:25:59Z</time></trkpt><trkpt lat="44.6445832525695" lon="11.792780087565061"><ele>0.6666666666666666</ele><time>2026-03-29T09:26:00Z</time></trkpt><trkpt lat="44.64449176655357" lon="11.792997665183256"><ele>1.0</ele><time>2026-03-29T09:26:01Z</time></trkpt><trkpt lat="44.64439131426348" lon="11.793210447211688"><ele>1.0</ele><time>2026-03-29T09:26:02Z</time></trkpt><trkpt lat="44.64428529091942" lon="11.793416290297113"><ele>1.0</ele><time>2026-03-29T09:26:03Z</time></trkpt><trkpt lat="44.64417255116695" lon="11.793621018243895"><ele>1.0</ele><time>2026-03-29T09:26:04Z</time></trkpt><trkpt lat="44.644057907841834" lon="11.793818214589674"><ele>1.0</ele><time>2026-03-29T09:26:05Z</time></trkpt><trkpt lat="44.64393968951994" lon="11.79401331668047"><ele>1.0</ele><time>2026-03-29T09:26:06Z</time></trkpt><trkpt lat="44.64381339701046" lon="11.794207424442058"><ele>1.0</ele><time>2026-03-29T09:26:07Z</time></trkpt><trkpt lat="44.64368242557083" lon="11.794403358175664"><ele>1.0</ele><time>2026-03-29T09:26:08Z</time></trkpt><trkpt lat="44.64355080652633" lon="11.794602924830874"><ele>1.0</ele><time>2026-03-29T09:26:09Z</time></trkpt><trkpt lat="44.64342120051432" lon="11.7948033441259"><ele>1.0</ele><time>2026-03-29T09:26:10Z</time></trkpt><trkpt lat="44.64329227467056" lon="11.795006496821618"><ele>1.0</ele><time>2026-03-29T09:26:11Z</time></trkpt><trkpt lat="44.64317055987599" lon="11.795209449696614"><ele>1.0</ele><time>2026-03-29T09:26:12Z</time></trkpt><trkpt lat="44.64305928895426" lon="11.795419245760936"><ele>1.0</ele><time>2026-03-29T09:26:13Z</time></trkpt><trkpt lat="44.64295422819041" lon="11.795631121939044"><ele>1.0</ele><time>2026-03-29T09:26:14Z</time></trkpt><trkpt lat="44.64284875706409" lon="11.795841045919774"><ele>1.0</ele><time>2026-03-29T09:26:15Z</time></trkpt><trkpt lat="44.64274306990741" lon="11.796052414136916"><ele>1.0</ele><time>2026-03-29T09:26:16Z</time></trkpt><trkpt lat="44.64263957054458" lon="11.796259017643354"><ele>1.3333333333333333</ele><time>2026-03-29T09:26:17Z</time></trkpt><trkpt lat="44.64253624450141" lon="11.796465481868994"><ele>1.6666666666666665</ele><time>2026-03-29T09:26:18Z</time></trkpt><trkpt lat="44.642433660218046" lon="11.796670129260999"><ele>2.0</ele><time>2026-03-29T09:26:19Z</time></trkpt><trkpt lat="44.64232825433885" lon="11.796874504237087"><ele>1.3333333333333333</ele><time>2026-03-29T09:26:20Z</time></trkpt><trkpt lat="44.64222629980773" lon="11.797077729574198"><ele>0.6666666666666666</ele><time>2026-03-29T09:26:21Z</time></trkpt><trkpt lat="44.642122068902" lon="11.797284804688298"><ele>0.0</ele><time>2026-03-29T09:26:22Z</time></trkpt><trkpt lat="44.64201794046651" lon="11.797489703247209"><ele>0.6666666666666666</ele><time>2026-03-29T09:26:23Z</time></trkpt><trkpt lat="44.64192143860262" lon="11.797680386275534"><ele>1.3333333333333333</ele><time>2026-03-29T09:26:24Z</time></trkpt><trkpt lat="44.64183346632447" lon="11.797852012428953"><ele>2.0</ele><time>2026-03-29T09:26:25Z</time></trkpt><trkpt lat="44.64174631649995" lon="11.798018845651832"><ele>2.0</ele><time>2026-03-29T09:26:26Z</time></trkpt><trkpt lat="44.64166568009945" lon="11.798171218825797"><ele>2.0</ele><time>2026-03-29T09:26:27Z</time></trkpt><trkpt lat="44.64159243161415" lon="11.798317538602532"><ele>2.0</ele><time>2026-03-29T09:26:28Z</time></trkpt><trkpt lat="44.641518888978915" lon="11.798468277729794"><ele>2.0</ele><time>2026-03-29T09:26:29Z</time></trkpt><trkpt lat="44.64143976449021" lon="11.798625963773102"><ele>1.5</ele><time>2026-03-29T09:26:30Z</time></trkpt><trkpt lat="44.64136082673445" lon="11.798782296538569"><ele>1.0</ele><time>2026-03-29T09:26:31Z</time></trkpt><trkpt lat="44.6412816217163" lon="11.798940842456924"><ele>0.5</ele><time>2026-03-29T09:26:32Z</time></trkpt><trkpt lat="44.64120107906652" lon="11.799102197903997"><ele>0.0</ele><time>2026-03-29T09:26:33Z</time></trkpt><trkpt lat="44.6411162336013" lon="11.799269205867864"><ele>2.0</ele><time>2026-03-29T09:26:34Z</time></trkpt><trkpt lat="44.64102245760598" lon="11.799432833098965"><ele>4.0</ele><time>2026-03-29T09:26:35Z</time></trkpt><trkpt lat="44.640923636082" lon="11.799598877954207"><ele>6.0</ele><time>2026-03-29T09:26:36Z</time></trkpt><trkpt lat="44.640820628208985" lon="11.799771579309148"><ele>6.0</ele><time>2026-03-29T09:26:37Z</time></trkpt><trkpt lat="44.640718402945026" lon="11.799944269309563"><ele>6.0</ele><time>2026-03-29T09:26:38Z</time></trkpt><trkpt lat="44.640618389387484" lon="11.800119744824277"><ele>6.0</ele><time>2026-03-29T09:26:39Z</time></trkpt><trkpt lat="44.64051789625587" lon="11.800297202538783"><ele>5.666666666666667</ele><time>2026-03-29T09:26:40Z</time></trkpt><trkpt lat="44.64041841641777" lon="11.8004670470978"><ele>5.333333333333334</ele><time>2026-03-29T09:26:41Z</time></trkpt><trkpt lat="44.640320564059195" lon="11.800656724738847"><ele>5.0</ele><time>2026-03-29T09:26:42Z</time></trkpt><trkpt lat="44.640222826992634" lon="11.800861482491134"><ele>4.666666666666667</ele><time>2026-03-29T09:26:43Z</time></trkpt><trkpt lat="44.64011723710073" lon="11.80106939453393"><ele>4.333333333333333</ele><time>2026-03-29T09:26:44Z</time></trkpt><trkpt lat="44.64000735315424" lon="11.801291222150056"><ele>4.0</ele><time>2026-03-29T09:26:45Z</time></trkpt><trkpt lat="44.63990640395498" lon="11.801515024573344"><ele>4.0</ele><time>2026-03-29T09:26:46Z</time></trkpt><trkpt lat="44.63980385746219" lon="11.801738286834974"><ele>4.0</ele><time>2026-03-29T09:26:47Z</time></trkpt><trkpt lat="44.63970453099603" lon="11.801948895347"><ele>4.0</ele><time>2026-03-29T09:26:48Z</time></trkpt><trkpt lat="44.639603880721864" lon="11.802165892622082"><ele>4.0</ele><time>2026-03-29T09:26:49Z</time></trkpt><trkpt lat="44.63950385478064" lon="11.802393165385189"><ele>4.0</ele><time>2026-03-29T09:26:50Z</time></trkpt><trkpt lat="44.63940213667072" lon="11.802625846240076"><ele>4.0</ele><time>2026-03-29T09:26:51Z</time></trkpt><trkpt lat="44.63930156305933" lon="11.80285187704087"><ele>4.0</ele><time>2026-03-29T09:26:52Z</time></trkpt><trkpt lat="44.639214124667795" lon="11.803090530956926"><ele>4.0</ele><time>2026-03-29T09:26:53Z</time></trkpt><trkpt lat="44.639125847024566" lon="11.803326895215"><ele>4.0</ele><time>2026-03-29T09:26:54Z</time></trkpt><trkpt lat="44.63903237306182" lon="11.803560606817467"><ele>3.333333333333333</ele><time>2026-03-29T09:26:55Z</time></trkpt><trkpt lat="44.63894120025552" lon="11.803783887642608"><ele>2.6666666666666665</ele><time>2026-03-29T09:26:56Z</time></trkpt><trkpt lat="44.63885388868963" lon="11.804008981842752"><ele>2.0</ele><time>2026-03-29T09:26:57Z</time></trkpt><trkpt lat="44.63876304129359" lon="11.804231552416033"><ele>1.3333333333333333</ele><time>2026-03-29T09:26:58Z</time></trkpt><trkpt lat="44.638676919862846" lon="11.804447172569994"><ele>0.6666666666666666</ele><time>2026-03-29T09:26:59Z</time></trkpt><trkpt lat="44.638595931905606" lon="11.804668540176166"><ele>0.0</ele><time>2026-03-29T09:27:00Z</time></trkpt><trkpt lat="44.63850375993162" lon="11.804882702503576"><ele>1.0</ele><time>2026-03-29T09:27:01Z</time></trkpt><trkpt lat="44.63841994810432" lon="11.805098866300012"><ele>2.0</ele><time>2026-03-29T09:27:02Z</time></trkpt><trkpt lat="44.63833541933068" lon="11.805310073792382"><ele>3.0</ele><time>2026-03-29T09:27:03Z</time></trkpt><trkpt lat="44.63824683332289" lon="11.805520852101864"><ele>3.0</ele><time>2026-03-29T09:27:04Z</time></trkpt><trkpt lat="44.63814966004867" lon="11.80572820923728"><ele>3.0</ele><time>2026-03-29T09:27:05Z</time></trkpt><trkpt lat="44.638047330475864" lon="11.805924406357049"><ele>3.0</ele><time>2026-03-29T09:27:06Z</time></trkpt><trkpt lat="44.6379391407325" lon="11.806116943950066"><ele>3.0</ele><time>2026-03-29T09:27:07Z</time></trkpt><trkpt lat="44.63783813548791" lon="11.806303851565056"><ele>3.0</ele><time>2026-03-29T09:27:08Z</time></trkpt><trkpt lat="44.637744023566555" lon="11.806490698540197"><ele>3.0</ele><time>2026-03-29T09:27:09Z</time></trkpt><trkpt lat="44.63765257863555" lon="11.806671806441848"><ele>2.6666666666666665</ele><time>2026-03-29T09:27:10Z</time></trkpt><trkpt lat="44.63754545181032" lon="11.806863108255603"><ele>2.333333333333333</ele><time>2026-03-29T09:27:11Z</time></trkpt><trkpt lat="44.637413238754164" lon="11.807060280976499"><ele>2.0</ele><time>2026-03-29T09:27:12Z</time></trkpt><trkpt lat="44.637262765379305" lon="11.807245274056301"><ele>2.0</ele><time>2026-03-29T09:27:13Z</time></trkpt><trkpt lat="44.63710310714473" lon="11.807430268372682"><ele>2.0</ele><time>2026-03-29T09:27:14Z</time></trkpt><trkpt lat="44.636942846745654" lon="11.807616800406159"><ele>2.0</ele><time>2026-03-29T09:27:15Z</time></trkpt><trkpt lat="44.63678007288148" lon="11.807813185328"><ele>1.3333333333333333</ele><time>2026-03-29T09:27:16Z</time></trkpt><trkpt lat="44.636607220693115" lon="11.808021022203997"><ele>0.6666666666666666</ele><time>2026-03-29T09:27:17Z</time></trkpt><trkpt lat="44.63644027911273" lon="11.808216263837174"><ele>0.0</ele><time>2026-03-29T09:27:18Z</time></trkpt><trkpt lat="44.63629041981383" lon="11.808392076934028"><ele>0.0</ele><time>2026-03-29T09:27:19Z</time></trkpt><trkpt lat="44.6361480682541" lon="11.8085543141211"><ele>0.0</ele><time>2026-03-29T09:27:20Z</time></trkpt><trkpt lat="44.63600739385383" lon="11.808711623845456"><ele>0.0</ele><time>2026-03-29T09:27:21Z</time></trkpt><trkpt lat="44.635869319666696" lon="11.808875856035735"><ele>0.3333333333333333</ele><time>2026-03-29T09:27:22Z</time></trkpt><trkpt lat="44.63573585337189" lon="11.809041831589628"><ele>0.6666666666666666</ele><time>2026-03-29T09:27:23Z</time></trkpt><trkpt lat="44.63560885627038" lon="11.809202336805589"><ele>1.0</ele><time>2026-03-29T09:27:24Z</time></trkpt><trkpt lat="44.6354792303806" lon="11.809358660422525"><ele>1.0</ele><time>2026-03-29T09:27:25Z</time></trkpt><trkpt lat="44.63534619556561" lon="11.809507811989992"><ele>1.0</ele><time>2026-03-29T09:27:26Z</time></trkpt><trkpt lat="44.63520360677346" lon="11.809637994052741"><ele>1.0</ele><time>2026-03-29T09:27:27Z</time></trkpt><trkpt lat="44.635047140697836" lon="11.809744173718551"><ele>1.0</ele><time>2026-03-29T09:27:28Z</time></trkpt><trkpt lat="44.63488475633981" lon="11.80982738205358"><ele>1.0</ele><time>2026-03-29T09:27:29Z</time></trkpt><trkpt lat="44.63471634892983" lon="11.80989448426322"><ele>1.0</ele><time>2026-03-29T09:27:30Z</time></trkpt><trkpt lat="44.634538118583706" lon="11.809928609356884"><ele>0.3333333333333333</ele><time>2026-03-29T09:27:31Z</time></trkpt><trkpt lat="44.63435206706796" lon="11.80993547045715"><ele>-0.3333333333333333</ele><time>2026-03-29T09:27:32Z</time></trkpt><trkpt lat="44.634182174027806" lon="11.809903412901654"><ele>-1.0</ele><time>2026-03-29T09:27:33Z</time></trkpt><trkpt lat="44.63402676966042" lon="11.809866685854628"><ele>-1.0</ele><time>2026-03-29T09:27:34Z</time></trkpt><trkpt lat="44.633877077332045" lon="11.809833501395213"><ele>-1.0</ele><time>2026-03-29T09:27:35Z</time></trkpt><trkpt lat="44.63373084988832" lon="11.809804422581916"><ele>-1.0</ele><time>2026-03-29T09:27:36Z</time></trkpt><trkpt lat="44.6335718463132" lon="11.809775102140835"><ele>0.0</ele><time>2026-03-29T09:27:37Z</time></trkpt><trkpt lat="44.63341513553529" lon="11.809743112786748"><ele>1.0</ele><time>2026-03-29T09:27:38Z</time></trkpt><trkpt lat="44.633253396522065" lon="11.809728111177114"><ele>2.0</ele><time>2026-03-29T09:27:39Z</time></trkpt><trkpt lat="44.63308662658597" lon="11.809739133974713"><ele>2.0</ele><time>2026-03-29T09:27:40Z</time></trkpt><trkpt lat="44.63291389744425" lon="11.809793049674024"><ele>2.0</ele><time>2026-03-29T09:27:41Z</time></trkpt><trkpt lat="44.63272819333584" lon="11.809874262163781"><ele>2.0</ele><time>2026-03-29T09:27:42Z</time></trkpt><trkpt lat="44.632531298513484" lon="11.809966253777715"><ele>2.0</ele><time>2026-03-29T09:27:43Z</time></trkpt><trkpt lat="44.632351592284635" lon="11.810062034904798"><ele>2.0</ele><time>2026-03-29T09:27:44Z</time></trkpt><trkpt lat="44.63218205990209" lon="11.810146475384755"><ele>2.0</ele><time>2026-03-29T09:27:45Z</time></trkpt><trkpt lat="44.632008964864816" lon="11.810228525716955"><ele>1.6666666666666665</ele><time>2026-03-29T09:27:46Z</time></trkpt><trkpt lat="44.63183901076127" lon="11.810310829420214"><ele>1.3333333333333333</ele><time>2026-03-29T09:27:47Z</time></trkpt><trkpt lat="44.631669260511885" lon="11.810391319898857"><ele>1.0</ele><time>2026-03-29T09:27:48Z</time></trkpt><trkpt lat="44.631500691529226" lon="11.810473392016943"><ele>1.0</ele><time>2026-03-29T09:27:49Z</time></trkpt><trkpt lat="44.631329846444594" lon="11.810560130747856"><ele>1.0</ele><time>2026-03-29T09:27:50Z</time></trkpt><trkpt lat="44.6311620268391" lon="11.810660359088644"><ele>1.0</ele><time>2026-03-29T09:27:51Z</time></trkpt><trkpt lat="44.63099451608306" lon="11.81076700340695"><ele>1.0</ele><time>2026-03-29T09:27:52Z</time></trkpt><trkpt lat="44.63082789940737" lon="11.8108765654698"><ele>1.0</ele><time>2026-03-29T09:27:53Z</time></trkpt><trkpt lat="44.63065889820008" lon="11.810992674244467"><ele>1.0</ele><time>2026-03-29T09:27:54Z</time></trkpt><trkpt lat="44.630497673165515" lon="11.811117334699437"><ele>1.0</ele><time>2026-03-29T09:27:55Z</time></trkpt><trkpt lat="44.63033804748955" lon="11.81125611905654"><ele>1.0</ele><time>2026-03-29T09:27:56Z</time></trkpt><trkpt lat="44.63017631755341" lon="11.811400437911395"><ele>1.0</ele><time>2026-03-29T09:27:57Z</time></trkpt><trkpt lat="44.63001938502421" lon="11.811540979258695"><ele>1.0</ele><time>2026-03-29T09:27:58Z</time></trkpt><trkpt lat="44.629859647428724" lon="11.811689550027737"><ele>1.0</ele><time>2026-03-29T09:27:59Z</time></trkpt><trkpt lat="44.629705441706285" lon="11.811829849624106"><ele>1.0</ele><time>2026-03-29T09:28:00Z</time></trkpt><trkpt lat="44.62955128701392" lon="11.811964453890395"><ele>1.3333333333333333</ele><time>2026-03-29T09:28:01Z</time></trkpt><trkpt lat="44.629398613963325" lon="11.81210356858295"><ele>1.6666666666666665</ele><time>2026-03-29T09:28:02Z</time></trkpt><trkpt lat="44.629245488818285" lon="11.812242864164256"><ele>2.0</ele><time>2026-03-29T09:28:03Z</time></trkpt><trkpt lat="44.6290929110176" lon="11.812390877952415"><ele>2.0</ele><time>2026-03-29T09:28:04Z</time></trkpt><trkpt lat="44.628939603300985" lon="11.812536269731078"><ele>2.0</ele><time>2026-03-29T09:28:05Z</time></trkpt><trkpt lat="44.62879210166142" lon="11.812685616981803"><ele>2.0</ele><time>2026-03-29T09:28:06Z</time></trkpt><trkpt lat="44.628647920281956" lon="11.812847928828296"><ele>2.0</ele><time>2026-03-29T09:28:07Z</time></trkpt><trkpt lat="44.62850768032408" lon="11.813016264371583"><ele>2.0</ele><time>2026-03-29T09:28:08Z</time></trkpt><trkpt lat="44.62837144558808" lon="11.813191135841473"><ele>2.0</ele><time>2026-03-29T09:28:09Z</time></trkpt><trkpt lat="44.628236672589296" lon="11.813366730623379"><ele>1.6666666666666665</ele><time>2026-03-29T09:28:10Z</time></trkpt><trkpt lat="44.6280972147263" lon="11.813541154842625"><ele>1.3333333333333333</ele><time>2026-03-29T09:28:11Z</time></trkpt><trkpt lat="44.62795901707716" lon="11.813715951064053"><ele>1.0</ele><time>2026-03-29T09:28:12Z</time></trkpt><trkpt lat="44.62781924293216" lon="11.813897248216376"><ele>1.6666666666666665</ele><time>2026-03-29T09:28:13Z</time></trkpt><trkpt lat="44.62767832357807" lon="11.81407982662993"><ele>2.3333333333333335</ele><time>2026-03-29T09:28:14Z</time></trkpt><trkpt lat="44.6275356039603" lon="11.814259946727018"><ele>3.0</ele><time>2026-03-29T09:28:15Z</time></trkpt><trkpt lat="44.627394955610654" lon="11.81443487059955"><ele>3.0</ele><time>2026-03-29T09:28:16Z</time></trkpt><trkpt lat="44.62725780893877" lon="11.814607914357296"><ele>3.0</ele><time>2026-03-29T09:28:17Z</time></trkpt><trkpt lat="44.6271188718869" lon="11.814778703940888"><ele>3.0</ele><time>2026-03-29T09:28:18Z</time></trkpt><trkpt lat="44.626980026092454" lon="11.814949512768875"><ele>3.0</ele><time>2026-03-29T09:28:19Z</time></trkpt><trkpt lat="44.62684141619583" lon="11.815115699286267"><ele>3.0</ele><time>2026-03-29T09:28:20Z</time></trkpt><trkpt lat="44.62670175161378" lon="11.815282702003664"><ele>3.0</ele><time>2026-03-29T09:28:21Z</time></trkpt><trkpt lat="44.62655864442646" lon="11.815449390503"><ele>3.0</ele><time>2026-03-29T09:28:22Z</time></trkpt><trkpt lat="44.626416521253276" lon="11.815614439253212"><ele>3.0</ele><time>2026-03-29T09:28:23Z</time></trkpt><trkpt lat="44.626273123634235" lon="11.815772368612956"><ele>3.0</ele><time>2026-03-29T09:28:24Z</time></trkpt><trkpt lat="44.62612838188911" lon="11.815928659997674"><ele>2.3333333333333335</ele><time>2026-03-29T09:28:25Z</time></trkpt><trkpt lat="44.62598251213469" lon="11.81608493569066"><ele>1.6666666666666665</ele><time>2026-03-29T09:28:26Z</time></trkpt><trkpt lat="44.625835661171806" lon="11.816238452231865"><ele>1.0</ele><time>2026-03-29T09:28:27Z</time></trkpt><trkpt lat="44.62568893905925" lon="11.81638604768244"><ele>1.0</ele><time>2026-03-29T09:28:28Z</time></trkpt><trkpt lat="44.62554248088285" lon="11.816529674119543"><ele>1.0</ele><time>2026-03-29T09:28:29Z</time></trkpt><trkpt lat="44.62539463196046" lon="11.816684591394495"><ele>1.0</ele><time>2026-03-29T09:28:30Z</time></trkpt><trkpt lat="44.625249708033635" lon="11.816835791044195"><ele>0.6666666666666666</ele><time>2026-03-29T09:28:31Z</time></trkpt><trkpt lat="44.62510694748574" lon="11.816975776759518"><ele>0.3333333333333333</ele><time>2026-03-29T09:28:32Z</time></trkpt><trkpt lat="44.624964098708475" lon="11.817101273543825"><ele>0.0</ele><time>2026-03-29T09:28:33Z</time></trkpt><trkpt lat="44.62482479475834" lon="11.817228209110764"><ele>0.0</ele><time>2026-03-29T09:28:34Z</time></trkpt><trkpt lat="44.624694608278055" lon="11.817356348271602"><ele>0.0</ele><time>2026-03-29T09:28:35Z</time></trkpt><trkpt lat="44.62456031939766" lon="11.817464377459354"><ele>0.0</ele><time>2026-03-29T09:28:36Z</time></trkpt><trkpt lat="44.62443347373623" lon="11.81756803257032"><ele>0.0</ele><time>2026-03-29T09:28:37Z</time></trkpt><trkpt lat="44.62431638760813" lon="11.817661245901073"><ele>0.0</ele><time>2026-03-29T09:28:38Z</time></trkpt><trkpt lat="44.62420299756594" lon="11.817753280947395"><ele>0.0</ele><time>2026-03-29T09:28:39Z</time></trkpt><trkpt lat="44.62409149774977" lon="11.817839893845075"><ele>0.0</ele><time>2026-03-29T09:28:40Z</time></trkpt><trkpt lat="44.62397786722034" lon="11.81792407853072"><ele>0.0</ele><time>2026-03-29T09:28:41Z</time></trkpt><trkpt lat="44.62387232231993" lon="11.817996225642277"><ele>0.0</ele><time>2026-03-29T09:28:42Z</time></trkpt><trkpt lat="44.62377105453153" lon="11.818065461097959"><ele>0.0</ele><time>2026-03-29T09:28:43Z</time></trkpt><trkpt lat="44.623672824258875" lon="11.818132143927677"><ele>0.0</ele><time>2026-03-29T09:28:44Z</time></trkpt><trkpt lat="44.62356987109353" lon="11.818210852360737"><ele>0.2</ele><time>2026-03-29T09:28:45Z</time></trkpt><trkpt lat="44.623476116961704" lon="11.818285372359567"><ele>0.4</ele><time>2026-03-29T09:28:46Z</time></trkpt><trkpt lat="44.62338843300761" lon="11.81836088928613"><ele>0.6000000000000001</ele><time>2026-03-29T09:28:47Z</time></trkpt><trkpt lat="44.62330199365335" lon="11.818448181452403"><ele>0.8</ele><time>2026-03-29T09:28:48Z</time></trkpt><trkpt lat="44.62321427946333" lon="11.818544052676094"><ele>1.0</ele><time>2026-03-29T09:28:49Z</time></trkpt><trkpt lat="44.623103403214564" lon="11.818637861874926"><ele>1.3333333333333333</ele><time>2026-03-29T09:28:50Z</time></trkpt><trkpt lat="44.62295571043488" lon="11.818724153587864"><ele>1.6666666666666665</ele><time>2026-03-29T09:28:51Z</time></trkpt><trkpt lat="44.62280704385123" lon="11.81881340075424"><ele>2.0</ele><time>2026-03-29T09:28:52Z</time></trkpt><trkpt lat="44.622659056326455" lon="11.818905817362406"><ele>2.0</ele><time>2026-03-29T09:28:53Z</time></trkpt><trkpt lat="44.62251096203594" lon="11.81896905772467"><ele>2.0</ele><time>2026-03-29T09:28:54Z</time></trkpt><trkpt lat="44.622357489427664" lon="11.819022865593906"><ele>2.0</ele><time>2026-03-29T09:28:55Z</time></trkpt><trkpt lat="44.62219208048856" lon="11.819114362170708"><ele>2.0</ele><time>2026-03-29T09:28:56Z</time></trkpt><trkpt lat="44.62203208543462" lon="11.81922863137821"><ele>2.0</ele><time>2026-03-29T09:28:57Z</time></trkpt><trkpt lat="44.62188306512556" lon="11.819338204218937"><ele>2.0</ele><time>2026-03-29T09:28:58Z</time></trkpt><trkpt lat="44.62172244903908" lon="11.81945985739563"><ele>2.6666666666666665</ele><time>2026-03-29T09:28:59Z</time></trkpt><trkpt lat="44.62155893547297" lon="11.819582979683856"><ele>3.333333333333333</ele><time>2026-03-29T09:29:00Z</time></trkpt><trkpt lat="44.621400249625985" lon="11.819709719246813"><ele>4.0</ele><time>2026-03-29T09:29:01Z</time></trkpt><trkpt lat="44.62124154602779" lon="11.819844990273014"><ele>4.0</ele><time>2026-03-29T09:29:02Z</time></trkpt><trkpt lat="44.6210894295696" lon="11.819969986004926"><ele>4.0</ele><time>2026-03-29T09:29:03Z</time></trkpt><trkpt lat="44.620947209402075" lon="11.820081127798442"><ele>4.0</ele><time>2026-03-29T09:29:04Z</time></trkpt><trkpt lat="44.62081755208449" lon="11.820188592019342"><ele>3.333333333333333</ele><time>2026-03-29T09:29:05Z</time></trkpt><trkpt lat="44.62068079632446" lon="11.820299853155351"><ele>2.6666666666666665</ele><time>2026-03-29T09:29:06Z</time></trkpt><trkpt lat="44.62054354761721" lon="11.820400616272144"><ele>2.0</ele><time>2026-03-29T09:29:07Z</time></trkpt><trkpt lat="44.620406315545274" lon="11.820495998370983"><ele>2.333333333333333</ele><time>2026-03-29T09:29:08Z</time></trkpt><trkpt lat="44.62025947698358" lon="11.820581293436693"><ele>2.6666666666666665</ele><time>2026-03-29T09:29:09Z</time></trkpt><trkpt lat="44.620112072921714" lon="11.820666981748008"><ele>3.0</ele><time>2026-03-29T09:29:10Z</time></trkpt><trkpt lat="44.61997277083416" lon="11.82075950186456"><ele>3.0</ele><time>2026-03-29T09:29:11Z</time></trkpt><trkpt lat="44.61983068356556" lon="11.820861344721683"><ele>3.0</ele><time>2026-03-29T09:29:12Z</time></trkpt><trkpt lat="44.61969232071292" lon="11.820955019441087"><ele>3.0</ele><time>2026-03-29T09:29:13Z</time></trkpt><trkpt lat="44.61955469484048" lon="11.821043063319545"><ele>3.0</ele><time>2026-03-29T09:29:14Z</time></trkpt><trkpt lat="44.61941613849221" lon="11.821131596294759"><ele>3.0</ele><time>2026-03-29T09:29:15Z</time></trkpt><trkpt lat="44.61928421325256" lon="11.82120995022429"><ele>3.0</ele><time>2026-03-29T09:29:16Z</time></trkpt><trkpt lat="44.61916175747388" lon="11.8212963819254"><ele>3.0</ele><time>2026-03-29T09:29:17Z</time></trkpt><trkpt lat="44.61904806980041" lon="11.821375361963725"><ele>3.0</ele><time>2026-03-29T09:29:18Z</time></trkpt><trkpt lat="44.618947631459804" lon="11.821454864455093"><ele>3.0</ele><time>2026-03-29T09:29:19Z</time></trkpt><trkpt lat="44.61884877703495" lon="11.821542959880531"><ele>3.0</ele><time>2026-03-29T09:29:20Z</time></trkpt><trkpt lat="44.61876102433343" lon="11.821653435474504"><ele>3.0</ele><time>2026-03-29T09:29:21Z</time></trkpt><trkpt lat="44.6186770673489" lon="11.821783194917282"><ele>3.25</ele><time>2026-03-29T09:29:22Z</time></trkpt><trkpt lat="44.61859399422371" lon="11.821924706439708"><ele>3.5</ele><time>2026-03-29T09:29:23Z</time></trkpt><trkpt lat="44.61850404723645" lon="11.822076852329376"><ele>3.75</ele><time>2026-03-29T09:29:24Z</time></trkpt><trkpt lat="44.6184147434129" lon="11.822226020542619"><ele>4.0</ele><time>2026-03-29T09:29:25Z</time></trkpt><trkpt lat="44.61833289064558" lon="11.822372612239665"><ele>4.0</ele><time>2026-03-29T09:29:26Z</time></trkpt><trkpt lat="44.61825737426987" lon="11.8225040387042"><ele>4.0</ele><time>2026-03-29T09:29:27Z</time></trkpt><trkpt lat="44.61819464762395" lon="11.822610767699336"><ele>4.0</ele><time>2026-03-29T09:29:28Z</time></trkpt><trkpt lat="44.61812750878156" lon="11.822723276766384"><ele>4.0</ele><time>2026-03-29T09:29:29Z</time></trkpt><trkpt lat="44.61805593949216" lon="11.822851426972854"><ele>4.0</ele><time>2026-03-29T09:29:30Z</time></trkpt><trkpt lat="44.617982196772225" lon="11.822984788319776"><ele>4.0</ele><time>2026-03-29T09:29:31Z</time></trkpt><trkpt lat="44.61790151565712" lon="11.823127966212823"><ele>4.0</ele><time>2026-03-29T09:29:32Z</time></trkpt><trkpt lat="44.61781759672683" lon="11.82327961695516"><ele>4.0</ele><time>2026-03-29T09:29:33Z</time></trkpt><trkpt lat="44.61773227730008" lon="11.823434162652436"><ele>4.0</ele><time>2026-03-29T09:29:34Z</time></trkpt><trkpt lat="44.61765419429932" lon="11.823574063059295"><ele>4.0</ele><time>2026-03-29T09:29:35Z</time></trkpt><trkpt lat="44.61757972065781" lon="11.823707444521057"><ele>4.0</ele><time>2026-03-29T09:29:36Z</time></trkpt><trkpt lat="44.6175001921005" lon="11.82384331831326"><ele>4.0</ele><time>2026-03-29T09:29:37Z</time></trkpt><trkpt lat="44.617426241945104" lon="11.823978817655496"><ele>4.0</ele><time>2026-03-29T09:29:38Z</time></trkpt><trkpt lat="44.61735896541137" lon="11.824103833354195"><ele>4.0</ele><time>2026-03-29T09:29:39Z</time></trkpt><trkpt lat="44.617294312027795" lon="11.824233206744507"><ele>4.0</ele><time>2026-03-29T09:29:40Z</time></trkpt><trkpt lat="44.617232877990226" lon="11.824373418781764"><ele>4.0</ele><time>2026-03-29T09:29:41Z</time></trkpt><trkpt lat="44.61717624024509" lon="11.824521576742129"><ele>4.0</ele><time>2026-03-29T09:29:42Z</time></trkpt><trkpt lat="44.61713003105586" lon="11.824664002174456"><ele>3.9999999999999996</ele><time>2026-03-29T09:29:43Z</time></trkpt><trkpt lat="44.61708947849945" lon="11.824792106070023"><ele>4.0</ele><time>2026-03-29T09:29:44Z</time></trkpt><trkpt lat="44.61705271996399" lon="11.824905884856244"><ele>4.0</ele><time>2026-03-29T09:29:45Z</time></trkpt><trkpt lat="44.61701959013526" lon="11.82501117853669"><ele>4.0</ele><time>2026-03-29T09:29:46Z</time></trkpt><trkpt lat="44.61699221555788" lon="11.825095686412958"><ele>3.9999999999999996</ele><time>2026-03-29T09:29:47Z</time></trkpt><trkpt lat="44.616942398992336" lon="11.825222668354307"><ele>4.0</ele><time>2026-03-29T09:29:49Z</time></trkpt><trkpt lat="44.61690449764662" lon="11.825317503901822"><ele>4.2</ele><time>2026-03-29T09:29:52Z</time></trkpt><trkpt lat="44.616895866435705" lon="11.825431320867972"><ele>4.4</ele><time>2026-03-29T09:30:50Z</time></trkpt><trkpt lat="44.61687993503967" lon="11.825522284119124"><ele>4.6</ele><time>2026-03-29T09:30:51Z</time></trkpt><trkpt lat="44.61684971047978" lon="11.825623501583499"><ele>4.8</ele><time>2026-03-29T09:30:52Z</time></trkpt><trkpt lat="44.61681087770695" lon="11.825768448520089"><ele>5.0</ele><time>2026-03-29T09:30:53Z</time></trkpt><trkpt lat="44.61677098001563" lon="11.825922105810601"><ele>5.0</ele><time>2026-03-29T09:30:54Z</time></trkpt><trkpt lat="44.61672468793053" lon="11.826080013771"><ele>5.0</ele><time>2026-03-29T09:30:55Z</time></trkpt><trkpt lat="44.61668683079103" lon="11.826235501390537"><ele>5.0</ele><time>2026-03-29T09:30:56Z</time></trkpt><trkpt lat="44.61664870881619" lon="11.826369627334213"><ele>5.0</ele><time>2026-03-29T09:30:57Z</time></trkpt><trkpt lat="44.61661500251981" lon="11.826488608858387"><ele>5.0</ele><time>2026-03-29T09:30:58Z</time></trkpt><trkpt lat="44.61658183960886" lon="11.826612660149156"><ele>5.0</ele><time>2026-03-29T09:30:59Z</time></trkpt><trkpt lat="44.61655704070969" lon="11.826737766521868"><ele>5.0</ele><time>2026-03-29T09:31:00Z</time></trkpt><trkpt lat="44.61651924244785" lon="11.82685122989244"><ele>5.0</ele><time>2026-03-29T09:31:01Z</time></trkpt><trkpt lat="44.616482810690286" lon="11.826949779729995"><ele>5.0</ele><time>2026-03-29T09:31:02Z</time></trkpt><trkpt lat="44.616435479989846" lon="11.827020669005659"><ele>5.0</ele><time>2026-03-29T09:31:03Z</time></trkpt><trkpt lat="44.61637074670564" lon="11.827068222041907"><ele>5.0</ele><time>2026-03-29T09:31:04Z</time></trkpt><trkpt lat="44.61628532745826" lon="11.827094933158584"><ele>5.0</ele><time>2026-03-29T09:31:05Z</time></trkpt><trkpt lat="44.61620991635717" lon="11.827111615890223"><ele>5.0</ele><time>2026-03-29T09:31:06Z</time></trkpt><trkpt lat="44.61607864275991" lon="11.826906628868196"><ele>5.0</ele><time>2026-03-29T09:31:08Z</time></trkpt><trkpt lat="44.616038484973004" lon="11.826773012607445"><ele>5.0</ele><time>2026-03-29T09:31:09Z</time></trkpt><trkpt lat="44.616026870848415" lon="11.826630718685767"><ele>5.25</ele><time>2026-03-29T09:31:10Z</time></trkpt><trkpt lat="44.61603434623829" lon="11.826461393509312"><ele>5.5</ele><time>2026-03-29T09:31:11Z</time></trkpt><trkpt lat="44.616050588792035" lon="11.826256550417929"><ele>5.75</ele><time>2026-03-29T09:31:12Z</time></trkpt><trkpt lat="44.6160692540185" lon="11.826020830445826"><ele>6.0</ele><time>2026-03-29T09:31:13Z</time></trkpt><trkpt lat="44.616083217484686" lon="11.82578581923366"><ele>6.0</ele><time>2026-03-29T09:31:14Z</time></trkpt><trkpt lat="44.61609450165996" lon="11.825531912855405"><ele>6.0</ele><time>2026-03-29T09:31:15Z</time></trkpt><trkpt lat="44.61610797297115" lon="11.825270121547856"><ele>6.0</ele><time>2026-03-29T09:31:16Z</time></trkpt><trkpt lat="44.61612353505486" lon="11.825049999223346"><ele>6.25</ele><time>2026-03-29T09:31:17Z</time></trkpt><trkpt lat="44.61613372308507" lon="11.824859295724771"><ele>6.5</ele><time>2026-03-29T09:31:18Z</time></trkpt><trkpt lat="44.61613877192992" lon="11.824676219766477"><ele>6.75</ele><time>2026-03-29T09:31:19Z</time></trkpt><trkpt lat="44.61612495627051" lon="11.824503277178266"><ele>7.0</ele><time>2026-03-29T09:31:20Z</time></trkpt><trkpt lat="44.61608265018788" lon="11.824337974322736"><ele>8.5</ele><time>2026-03-29T09:31:21Z</time></trkpt><trkpt lat="44.616018114233825" lon="11.824179896536267"><ele>10.0</ele><time>2026-03-29T09:31:22Z</time></trkpt><trkpt lat="44.615945859160696" lon="11.824048767471723"><ele>11.5</ele><time>2026-03-29T09:31:23Z</time></trkpt><trkpt lat="44.61587669369808" lon="11.823940913183193"><ele>13.0</ele><time>2026-03-29T09:31:24Z</time></trkpt><trkpt lat="44.61581354715815" lon="11.823828121539016"><ele>13.0</ele><time>2026-03-29T09:31:25Z</time></trkpt><trkpt lat="44.61574955219681" lon="11.823694776861418"><ele>13.0</ele><time>2026-03-29T09:31:26Z</time></trkpt><trkpt lat="44.61567898888143" lon="11.823567270908303"><ele>13.0</ele><time>2026-03-29T09:31:27Z</time></trkpt><trkpt lat="44.61561213479551" lon="11.823440889502885"><ele>13.0</ele><time>2026-03-29T09:31:28Z</time></trkpt><trkpt lat="44.61554231718029" lon="11.823310582152542"><ele>11.999999999999998</ele><time>2026-03-29T09:31:29Z</time></trkpt><trkpt lat="44.61547467299027" lon="11.82318725261627"><ele>11.0</ele><time>2026-03-29T09:31:30Z</time></trkpt><trkpt lat="44.61541924412345" lon="11.823080126776407"><ele>10.0</ele><time>2026-03-29T09:31:31Z</time></trkpt><trkpt lat="44.61537206284256" lon="11.822990629529503"><ele>9.0</ele><time>2026-03-29T09:31:32Z</time></trkpt><trkpt lat="44.61532796767924" lon="11.82290849501985"><ele>8.0</ele><time>2026-03-29T09:31:33Z</time></trkpt><trkpt lat="44.61528616973724" lon="11.82283476652088"><ele>7.0</ele><time>2026-03-29T09:31:34Z</time></trkpt><trkpt lat="44.6152455693655" lon="11.822758213546976"><ele>7.0</ele><time>2026-03-29T09:31:35Z</time></trkpt><trkpt lat="44.615172743645154" lon="11.82263096193164"><ele>6.999999999999999</ele><time>2026-03-29T09:31:37Z</time></trkpt><trkpt lat="44.615124291967874" lon="11.82254410784155"><ele>6.999999999999999</ele><time>2026-03-29T09:31:39Z</time></trkpt><trkpt lat="44.615011301080436" lon="11.822593971519796"><ele>7.0</ele><time>2026-03-29T09:31:44Z</time></trkpt><trkpt lat="44.61496776246512" lon="11.822674619727632"><ele>7.0</ele><time>2026-03-29T09:31:47Z</time></trkpt><trkpt lat="44.61488784192088" lon="11.822742238553813"><ele>7.0</ele><time>2026-03-29T09:33:43Z</time></trkpt><trkpt lat="44.61480026400574" lon="11.822816892553877"><ele>6.999999999999999</ele><time>2026-03-29T09:33:46Z</time></trkpt><trkpt lat="44.61469654228558" lon="11.822905899980075"><ele>6.999999999999999</ele><time>2026-03-29T09:33:48Z</time></trkpt><trkpt lat="44.614586357612254" lon="11.822981781565064"><ele>7.0</ele><time>2026-03-29T09:33:50Z</time></trkpt><trkpt lat="44.61450862594175" lon="11.82304563551332"><ele>7.0</ele><time>2026-03-29T09:33:51Z</time></trkpt><trkpt lat="44.614438822230305" lon="11.823103874451764"><ele>7.0</ele><time>2026-03-29T09:33:52Z</time></trkpt><trkpt lat="44.614382445327614" lon="11.82314650838881"><ele>6.999999999999999</ele><time>2026-03-29T09:33:53Z</time></trkpt><trkpt lat="44.614290766105874" lon="11.823231194060945"><ele>6.999999999999999</ele><time>2026-03-29T09:33:55Z</time></trkpt><trkpt lat="44.614186190718506" lon="11.823318781520081"><ele>7.0</ele><time>2026-03-29T09:33:57Z</time></trkpt><trkpt lat="44.61409370296375" lon="11.823411603254765"><ele>7.0</ele><time>2026-03-29T09:33:59Z</time></trkpt><trkpt lat="44.61404177251956" lon="11.823466448447746"><ele>6.666666666666667</ele><time>2026-03-29T09:34:00Z</time></trkpt><trkpt lat="44.61395236246306" lon="11.823548591422712"><ele>6.333333333333334</ele><time>2026-03-29T09:34:02Z</time></trkpt><trkpt lat="44.61386772721588" lon="11.823640320235643"><ele>6.0</ele><time>2026-03-29T09:34:04Z</time></trkpt><trkpt lat="44.6137965681145" lon="11.823716651401945"><ele>5.666666666666667</ele><time>2026-03-29T09:34:06Z</time></trkpt><trkpt lat="44.61373979528749" lon="11.823777048594863"><ele>5.333333333333334</ele><time>2026-03-29T09:34:09Z</time></trkpt><trkpt lat="44.61369305084315" lon="11.823846710752155"><ele>5.0</ele><time>2026-03-29T09:34:27Z</time></trkpt><trkpt lat="44.61360241832897" lon="11.823937526932825"><ele>5.0</ele><time>2026-03-29T09:34:29Z</time></trkpt><trkpt lat="44.613528509854035" lon="11.82401628037208"><ele>5.0</ele><time>2026-03-29T09:34:31Z</time></trkpt><trkpt lat="44.61345926568452" lon="11.824084492853896"><ele>5.0</ele><time>2026-03-29T09:34:33Z</time></trkpt><trkpt lat="44.61340822348518" lon="11.824136560860858"><ele>5.0</ele><time>2026-03-29T09:34:35Z</time></trkpt><trkpt lat="44.61335403529786" lon="11.824200572447726"><ele>5.0</ele><time>2026-03-29T09:34:37Z</time></trkpt><trkpt lat="44.6132911355428" lon="11.82425671751935"><ele>5.0</ele><time>2026-03-29T09:34:40Z</time></trkpt><trkpt lat="44.61321575851022" lon="11.824341686881276"><ele>5.0</ele><time>2026-03-29T09:35:22Z</time></trkpt><trkpt lat="44.613129487521185" lon="11.824428623674011"><ele>5.0</ele><time>2026-03-29T09:35:24Z</time></trkpt><trkpt lat="44.613077570275735" lon="11.82448082597317"><ele>5.0</ele><time>2026-03-29T09:35:25Z</time></trkpt><trkpt lat="44.613012749014864" lon="11.82455108714554"><ele>5.0</ele><time>2026-03-29T09:35:27Z</time></trkpt><trkpt lat="44.61294883316445" lon="11.824618101146307"><ele>5.0</ele><time>2026-03-29T09:35:30Z</time></trkpt><trkpt lat="44.612997402105336" lon="11.824547935513385"><ele>5.0</ele><time>2026-03-29T09:35:46Z</time></trkpt><trkpt lat="44.61308048860012" lon="11.824460303122292"><ele>5.0</ele><time>2026-03-29T09:35:48Z</time></trkpt><trkpt lat="44.61313324310715" lon="11.824404662321426"><ele>5.0</ele><time>2026-03-29T09:35:49Z</time></trkpt><trkpt lat="44.61327783304555" lon="11.824273533999929"><ele>5.0</ele><time>2026-03-29T09:35:51Z</time></trkpt><trkpt lat="44.613347636432614" lon="11.824206178351707"><ele>5.0</ele><time>2026-03-29T09:35:52Z</time></trkpt><trkpt lat="44.613401884632026" lon="11.824148735500389"><ele>5.0</ele><time>2026-03-29T09:35:53Z</time></trkpt><trkpt lat="44.613498231069805" lon="11.824044905506355"><ele>5.0</ele><time>2026-03-29T09:35:55Z</time></trkpt><trkpt lat="44.61355576659567" lon="11.823987236880585"><ele>5.0</ele><time>2026-03-29T09:35:56Z</time></trkpt><trkpt lat="44.61361293276307" lon="11.823931343290633"><ele>5.0</ele><time>2026-03-29T09:35:57Z</time></trkpt><trkpt lat="44.613670174534704" lon="11.823876332855914"><ele>5.0</ele><time>2026-03-29T09:35:58Z</time></trkpt><trkpt lat="44.613717745591835" lon="11.823801780338885"><ele>5.0</ele><time>2026-03-29T09:35:59Z</time></trkpt><trkpt lat="44.613829036095105" lon="11.82368368506671"><ele>5.0</ele><time>2026-03-29T09:36:01Z</time></trkpt><trkpt lat="44.613892492176525" lon="11.82361375564258"><ele>4.833333333333334</ele><time>2026-03-29T09:36:02Z</time></trkpt><trkpt lat="44.613962036027104" lon="11.823561140086904"><ele>4.666666666666667</ele><time>2026-03-29T09:36:03Z</time></trkpt><trkpt lat="44.61402113700193" lon="11.82349634512571"><ele>4.5</ele><time>2026-03-29T09:36:04Z</time></trkpt><trkpt lat="44.61408769579036" lon="11.823427869625101"><ele>4.333333333333333</ele><time>2026-03-29T09:36:05Z</time></trkpt><trkpt lat="44.614144492167135" lon="11.823336188059052"><ele>4.166666666666666</ele><time>2026-03-29T09:36:06Z</time></trkpt><trkpt lat="44.614228179916225" lon="11.823276677628776"><ele>4.0</ele><time>2026-03-29T09:36:07Z</time></trkpt><trkpt lat="44.61429840672313" lon="11.823199774924644"><ele>4.142857142857142</ele><time>2026-03-29T09:36:08Z</time></trkpt><trkpt lat="44.614365760349344" lon="11.823139874380804"><ele>4.285714285714286</ele><time>2026-03-29T09:36:09Z</time></trkpt><trkpt lat="44.61442877506613" lon="11.82309547190821"><ele>4.428571428571429</ele><time>2026-03-29T09:36:10Z</time></trkpt><trkpt lat="44.614489408384124" lon="11.823051148241117"><ele>4.571428571428571</ele><time>2026-03-29T09:36:11Z</time></trkpt><trkpt lat="44.61454929439341" lon="11.822998498623775"><ele>4.714285714285714</ele><time>2026-03-29T09:36:12Z</time></trkpt><trkpt lat="44.61461862316314" lon="11.822951859016543"><ele>4.857142857142857</ele><time>2026-03-29T09:36:13Z</time></trkpt><trkpt lat="44.61468237377543" lon="11.822897676181984"><ele>5.0</ele><time>2026-03-29T09:36:14Z</time></trkpt><trkpt lat="44.61474711639542" lon="11.822835552410622"><ele>5.0</ele><time>2026-03-29T09:36:15Z</time></trkpt><trkpt lat="44.61481531743872" lon="11.822788012574254"><ele>5.0</ele><time>2026-03-29T09:36:16Z</time></trkpt><trkpt lat="44.61489667414678" lon="11.82275221769075"><ele>5.0</ele><time>2026-03-29T09:36:17Z</time></trkpt><trkpt lat="44.61495140632573" lon="11.822685215412996"><ele>5.0</ele><time>2026-03-29T09:36:18Z</time></trkpt><trkpt lat="44.61501572072559" lon="11.822603764569433"><ele>5.0</ele><time>2026-03-29T09:36:20Z</time></trkpt><trkpt lat="44.61507068472946" lon="11.822555145757292"><ele>5.0</ele><time>2026-03-29T09:36:30Z</time></trkpt><trkpt lat="44.6151356475409" lon="11.822605862591944"><ele>5.0</ele><time>2026-03-29T09:36:32Z</time></trkpt><trkpt lat="44.61517621417105" lon="11.822687123408976"><ele>5.0</ele><time>2026-03-29T09:36:33Z</time></trkpt><trkpt lat="44.61521341490122" lon="11.82276037777687"><ele>5.0</ele><time>2026-03-29T09:36:34Z</time></trkpt><trkpt lat="44.615260327134926" lon="11.822852913660387"><ele>5.0</ele><time>2026-03-29T09:36:35Z</time></trkpt><trkpt lat="44.61532936443557" lon="11.822980331621183"><ele>5.0</ele><time>2026-03-29T09:36:36Z</time></trkpt><trkpt lat="44.61539311606884" lon="11.823102471020626"><ele>5.0</ele><time>2026-03-29T09:36:37Z</time></trkpt><trkpt lat="44.61546766990154" lon="11.823236554542415"><ele>5.4</ele><time>2026-03-29T09:36:38Z</time></trkpt><trkpt lat="44.61553534029958" lon="11.82336198742946"><ele>5.8</ele><time>2026-03-29T09:36:39Z</time></trkpt><trkpt lat="44.61559418979255" lon="11.823468326868886"><ele>6.199999999999999</ele><time>2026-03-29T09:36:40Z</time></trkpt><trkpt lat="44.61564450986521" lon="11.823562188768474"><ele>6.6</ele><time>2026-03-29T09:36:41Z</time></trkpt><trkpt lat="44.61569581055668" lon="11.823660738549519"><ele>7.0</ele><time>2026-03-29T09:36:42Z</time></trkpt><trkpt lat="44.615758766131144" lon="11.823771029292356"><ele>7.0</ele><time>2026-03-29T09:36:43Z</time></trkpt><trkpt lat="44.6158283715414" lon="11.823894506498952"><ele>6.999999999999999</ele><time>2026-03-29T09:36:44Z</time></trkpt><trkpt lat="44.61588942635631" lon="11.824013443884269"><ele>6.999999999999999</ele><time>2026-03-29T09:36:45Z</time></trkpt><trkpt lat="44.615940662566416" lon="11.82411710408395"><ele>7.0</ele><time>2026-03-29T09:36:46Z</time></trkpt><trkpt lat="44.61598981406108" lon="11.824218567478017"><ele>7.0</ele><time>2026-03-29T09:36:47Z</time></trkpt><trkpt lat="44.61604105234431" lon="11.824332582147363"><ele>7.0</ele><time>2026-03-29T09:36:48Z</time></trkpt><trkpt lat="44.61609190176333" lon="11.824474285282971"><ele>7.0</ele><time>2026-03-29T09:36:49Z</time></trkpt><trkpt lat="44.61609774858286" lon="11.824645595936623"><ele>7.0</ele><time>2026-03-29T09:36:50Z</time></trkpt><trkpt lat="44.6160981623604" lon="11.824825795052355"><ele>7.0</ele><time>2026-03-29T09:36:51Z</time></trkpt><trkpt lat="44.61608960116996" lon="11.825013281015304"><ele>6.75</ele><time>2026-03-29T09:36:52Z</time></trkpt><trkpt lat="44.616086136077776" lon="11.825216037111469"><ele>6.5</ele><time>2026-03-29T09:36:53Z</time></trkpt><trkpt lat="44.616076817438355" lon="11.825408779392758"><ele>6.25</ele><time>2026-03-29T09:36:54Z</time></trkpt><trkpt lat="44.61606562896966" lon="11.825585528898696"><ele>6.0</ele><time>2026-03-29T09:36:55Z</time></trkpt><trkpt lat="44.61605882246603" lon="11.82574748083467"><ele>6.0</ele><time>2026-03-29T09:36:56Z</time></trkpt><trkpt lat="44.61604939225772" lon="11.825898730797078"><ele>6.0</ele><time>2026-03-29T09:36:57Z</time></trkpt><trkpt lat="44.61603946680432" lon="11.826048200306529"><ele>6.0</ele><time>2026-03-29T09:36:58Z</time></trkpt><trkpt lat="44.61602991377503" lon="11.826202505484039"><ele>6.0</ele><time>2026-03-29T09:36:59Z</time></trkpt><trkpt lat="44.61602137253833" lon="11.82635849458002"><ele>6.0</ele><time>2026-03-29T09:37:00Z</time></trkpt><trkpt lat="44.61601454316905" lon="11.826500916300974"><ele>6.0</ele><time>2026-03-29T09:37:01Z</time></trkpt><trkpt lat="44.61600940608381" lon="11.826632421903444"><ele>6.0</ele><time>2026-03-29T09:37:02Z</time></trkpt><trkpt lat="44.616015955517184" lon="11.826757627065104"><ele>6.0</ele><time>2026-03-29T09:37:03Z</time></trkpt><trkpt lat="44.61603918263799" lon="11.826889087252336"><ele>6.0</ele><time>2026-03-29T09:37:04Z</time></trkpt><trkpt lat="44.61608334805364" lon="11.827009291024975"><ele>6.0</ele><time>2026-03-29T09:37:05Z</time></trkpt><trkpt lat="44.61614478253281" lon="11.82710961374533"><ele>5.833333333333333</ele><time>2026-03-29T09:37:06Z</time></trkpt><trkpt lat="44.61620104590173" lon="11.827185762827488"><ele>5.666666666666667</ele><time>2026-03-29T09:37:07Z</time></trkpt><trkpt lat="44.61627236909054" lon="11.827298445918204"><ele>5.5</ele><time>2026-03-29T09:37:09Z</time></trkpt><trkpt lat="44.61631247990922" lon="11.827402586275195"><ele>5.333333333333334</ele><time>2026-03-29T09:37:12Z</time></trkpt><trkpt lat="44.61632624727744" lon="11.827517109445061"><ele>5.166666666666667</ele><time>2026-03-29T09:37:14Z</time></trkpt><trkpt lat="44.616354873432186" lon="11.827597488170547"><ele>5.0</ele><time>2026-03-29T09:37:15Z</time></trkpt><trkpt lat="44.61629243714879" lon="11.827715041072294"><ele>5.0</ele><time>2026-03-29T09:37:16Z</time></trkpt><trkpt lat="44.61626615639985" lon="11.8278461989131"><ele>5.0</ele><time>2026-03-29T09:37:17Z</time></trkpt><trkpt lat="44.61622436538235" lon="11.828008456904396"><ele>5.0</ele><time>2026-03-29T09:37:18Z</time></trkpt><trkpt lat="44.61618482889937" lon="11.82814207986007"><ele>5.0</ele><time>2026-03-29T09:37:19Z</time></trkpt><trkpt lat="44.61615162826104" lon="11.828268775621781"><ele>5.0</ele><time>2026-03-29T09:37:20Z</time></trkpt><trkpt lat="44.616110179983124" lon="11.82840808534984"><ele>5.25</ele><time>2026-03-29T09:37:21Z</time></trkpt><trkpt lat="44.61605071035136" lon="11.828560045165547"><ele>5.5</ele><time>2026-03-29T09:37:22Z</time></trkpt><trkpt lat="44.615977893097664" lon="11.82870363172058"><ele>5.75</ele><time>2026-03-29T09:37:23Z</time></trkpt><trkpt lat="44.615908662979486" lon="11.828829451522445"><ele>6.0</ele><time>2026-03-29T09:37:24Z</time></trkpt><trkpt lat="44.61583274100488" lon="11.828956924053962"><ele>6.0</ele><time>2026-03-29T09:37:25Z</time></trkpt><trkpt lat="44.615765920239944" lon="11.829096566676993"><ele>6.0</ele><time>2026-03-29T09:37:26Z</time></trkpt><trkpt lat="44.61569485856416" lon="11.829230512339848"><ele>6.0</ele><time>2026-03-29T09:37:27Z</time></trkpt><trkpt lat="44.61562217763763" lon="11.829359795253113"><ele>6.0</ele><time>2026-03-29T09:37:28Z</time></trkpt><trkpt lat="44.615550391090856" lon="11.82949813814495"><ele>6.0</ele><time>2026-03-29T09:37:29Z</time></trkpt><trkpt lat="44.61548040626369" lon="11.82963220616872"><ele>6.0</ele><time>2026-03-29T09:37:30Z</time></trkpt><trkpt lat="44.61541175323743" lon="11.829771434005444"><ele>6.0</ele><time>2026-03-29T09:37:31Z</time></trkpt><trkpt lat="44.61534070789613" lon="11.829903789513208"><ele>6.0</ele><time>2026-03-29T09:37:32Z</time></trkpt><trkpt lat="44.615271265994245" lon="11.830033802698932"><ele>5.75</ele><time>2026-03-29T09:37:33Z</time></trkpt><trkpt lat="44.615199173991385" lon="11.83016271699038"><ele>5.5</ele><time>2026-03-29T09:37:34Z</time></trkpt><trkpt lat="44.61513019078316" lon="11.83029087789484"><ele>5.25</ele><time>2026-03-29T09:37:35Z</time></trkpt><trkpt lat="44.61506306569474" lon="11.830419065612375"><ele>5.0</ele><time>2026-03-29T09:37:36Z</time></trkpt><trkpt lat="44.61499280664613" lon="11.830553164056381"><ele>5.0</ele><time>2026-03-29T09:37:37Z</time></trkpt><trkpt lat="44.61492263421757" lon="11.830681491504848"><ele>5.0</ele><time>2026-03-29T09:37:38Z</time></trkpt><trkpt lat="44.614852302082205" lon="11.83081408949984"><ele>5.0</ele><time>2026-03-29T09:37:39Z</time></trkpt><trkpt lat="44.61478106029517" lon="11.830948518911958"><ele>5.0</ele><time>2026-03-29T09:37:40Z</time></trkpt><trkpt lat="44.61471010698216" lon="11.831087890345582"><ele>5.25</ele><time>2026-03-29T09:37:41Z</time></trkpt><trkpt lat="44.614637380454084" lon="11.831226996320565"><ele>5.5</ele><time>2026-03-29T09:37:42Z</time></trkpt><trkpt lat="44.61456201235301" lon="11.83136386775957"><ele>5.75</ele><time>2026-03-29T09:37:43Z</time></trkpt><trkpt lat="44.61448615350493" lon="11.831502398180872"><ele>6.0</ele><time>2026-03-29T09:37:44Z</time></trkpt><trkpt lat="44.61441453299962" lon="11.831641135491397"><ele>6.0</ele><time>2026-03-29T09:37:45Z</time></trkpt><trkpt lat="44.61434204235467" lon="11.83177812329952"><ele>6.0</ele><time>2026-03-29T09:37:46Z</time></trkpt><trkpt lat="44.61426914314569" lon="11.831914765838983"><ele>6.0</ele><time>2026-03-29T09:37:47Z</time></trkpt><trkpt lat="44.614196574666686" lon="11.832059295947019"><ele>6.0</ele><time>2026-03-29T09:37:48Z</time></trkpt><trkpt lat="44.61412347179025" lon="11.832203463538733"><ele>6.0</ele><time>2026-03-29T09:37:49Z</time></trkpt><trkpt lat="44.61404684559904" lon="11.832347330547567"><ele>6.0</ele><time>2026-03-29T09:37:50Z</time></trkpt><trkpt lat="44.61397034497329" lon="11.832495912500162"><ele>6.0</ele><time>2026-03-29T09:37:51Z</time></trkpt><trkpt lat="44.61389434764272" lon="11.832637893131634"><ele>6.0</ele><time>2026-03-29T09:37:52Z</time></trkpt><trkpt lat="44.61381803859157" lon="11.832777145020437"><ele>6.0</ele><time>2026-03-29T09:37:53Z</time></trkpt><trkpt lat="44.61374392951653" lon="11.83291811816815"><ele>6.0</ele><time>2026-03-29T09:37:54Z</time></trkpt><trkpt lat="44.61367053956691" lon="11.833061219806268"><ele>6.0</ele><time>2026-03-29T09:37:55Z</time></trkpt><trkpt lat="44.61359570033285" lon="11.833200705808244"><ele>6.0</ele><time>2026-03-29T09:37:56Z</time></trkpt><trkpt lat="44.613522781517204" lon="11.83333287163681"><ele>6.0</ele><time>2026-03-29T09:37:57Z</time></trkpt><trkpt lat="44.61345681669769" lon="11.833469714549285"><ele>6.0</ele><time>2026-03-29T09:37:58Z</time></trkpt><trkpt lat="44.61338863717927" lon="11.833604157990694"><ele>6.0</ele><time>2026-03-29T09:37:59Z</time></trkpt><trkpt lat="44.613320853927554" lon="11.833735120050207"><ele>6.0</ele><time>2026-03-29T09:38:00Z</time></trkpt><trkpt lat="44.613253823945236" lon="11.833862863718066"><ele>6.0</ele><time>2026-03-29T09:38:01Z</time></trkpt><trkpt lat="44.61318427088453" lon="11.83399735364989"><ele>6.0</ele><time>2026-03-29T09:38:02Z</time></trkpt><trkpt lat="44.61311698021508" lon="11.83412843337469"><ele>6.0</ele><time>2026-03-29T09:38:03Z</time></trkpt><trkpt lat="44.61305055217183" lon="11.834254189004897"><ele>6.0</ele><time>2026-03-29T09:38:04Z</time></trkpt><trkpt lat="44.612984662400926" lon="11.834374941473097"><ele>6.199999999999999</ele><time>2026-03-29T09:38:05Z</time></trkpt><trkpt lat="44.61292014526149" lon="11.834497478903204"><ele>6.3999999999999995</ele><time>2026-03-29T09:38:06Z</time></trkpt><trkpt lat="44.61285455509675" lon="11.834623187872797"><ele>6.6</ele><time>2026-03-29T09:38:07Z</time></trkpt><trkpt lat="44.612788960892345" lon="11.834754217445582"><ele>6.8</ele><time>2026-03-29T09:38:08Z</time></trkpt><trkpt lat="44.61272542648724" lon="11.834877336536202"><ele>7.0</ele><time>2026-03-29T09:38:09Z</time></trkpt><trkpt lat="44.612658358454624" lon="11.835003337370475"><ele>6.75</ele><time>2026-03-29T09:38:10Z</time></trkpt><trkpt lat="44.61259013257385" lon="11.83513603820913"><ele>6.5</ele><time>2026-03-29T09:38:11Z</time></trkpt><trkpt lat="44.61251945259572" lon="11.835266599058453"><ele>6.25</ele><time>2026-03-29T09:38:12Z</time></trkpt><trkpt lat="44.61244892691853" lon="11.835403249122574"><ele>6.0</ele><time>2026-03-29T09:38:13Z</time></trkpt><trkpt lat="44.612377797364104" lon="11.835540260005738"><ele>6.0</ele><time>2026-03-29T09:38:14Z</time></trkpt><trkpt lat="44.612303560221186" lon="11.835676375363587"><ele>6.0</ele><time>2026-03-29T09:38:15Z</time></trkpt><trkpt lat="44.612234350760964" lon="11.835805929477651"><ele>6.0</ele><time>2026-03-29T09:38:16Z</time></trkpt><trkpt lat="44.612169156529355" lon="11.835936355051428"><ele>6.0</ele><time>2026-03-29T09:38:17Z</time></trkpt><trkpt lat="44.6121047879991" lon="11.836055634935926"><ele>6.0</ele><time>2026-03-29T09:38:18Z</time></trkpt><trkpt lat="44.612044661314236" lon="11.836165981672675"><ele>6.0</ele><time>2026-03-29T09:38:19Z</time></trkpt><trkpt lat="44.611992413859134" lon="11.83626439010887"><ele>6.0</ele><time>2026-03-29T09:38:20Z</time></trkpt><trkpt lat="44.61194664744853" lon="11.836352362970583"><ele>6.0</ele><time>2026-03-29T09:38:21Z</time></trkpt><trkpt lat="44.611899939878796" lon="11.836449290053764"><ele>6.0</ele><time>2026-03-29T09:38:22Z</time></trkpt><trkpt lat="44.61184426139372" lon="11.836556786603115"><ele>6.0</ele><time>2026-03-29T09:38:23Z</time></trkpt><trkpt lat="44.61178319777227" lon="11.83667573161136"><ele>6.0</ele><time>2026-03-29T09:38:24Z</time></trkpt><trkpt lat="44.61171717174868" lon="11.836798858079787"><ele>6.0</ele><time>2026-03-29T09:38:25Z</time></trkpt><trkpt lat="44.611643037081116" lon="11.836922081884701"><ele>6.0</ele><time>2026-03-29T09:38:26Z</time></trkpt><trkpt lat="44.61156678255271" lon="11.837033039461152"><ele>6.0</ele><time>2026-03-29T09:38:27Z</time></trkpt><trkpt lat="44.61148084753539" lon="11.837129732899902"><ele>6.0</ele><time>2026-03-29T09:38:28Z</time></trkpt><trkpt lat="44.61138126244543" lon="11.837226204544388"><ele>5.75</ele><time>2026-03-29T09:38:29Z</time></trkpt><trkpt lat="44.611272610152724" lon="11.837311783100116"><ele>5.5</ele><time>2026-03-29T09:38:30Z</time></trkpt><trkpt lat="44.61116367423432" lon="11.83738295502993"><ele>5.25</ele><time>2026-03-29T09:38:31Z</time></trkpt><trkpt lat="44.61105696096234" lon="11.837453655701086"><ele>5.0</ele><time>2026-03-29T09:38:32Z</time></trkpt><trkpt lat="44.61094948790277" lon="11.837523014673916"><ele>5.0</ele><time>2026-03-29T09:38:33Z</time></trkpt><trkpt lat="44.61083714870872" lon="11.837599133097385"><ele>5.0</ele><time>2026-03-29T09:38:34Z</time></trkpt><trkpt lat="44.61072330348163" lon="11.837675822716932"><ele>5.0</ele><time>2026-03-29T09:38:35Z</time></trkpt><trkpt lat="44.61061714211879" lon="11.837752642055191"><ele>5.0</ele><time>2026-03-29T09:38:36Z</time></trkpt><trkpt lat="44.61051270936248" lon="11.837828218087672"><ele>5.25</ele><time>2026-03-29T09:38:37Z</time></trkpt><trkpt lat="44.61040190119044" lon="11.837905839197944"><ele>5.5</ele><time>2026-03-29T09:38:38Z</time></trkpt><trkpt lat="44.610293267837605" lon="11.837983230169627"><ele>5.75</ele><time>2026-03-29T09:38:39Z</time></trkpt><trkpt lat="44.610189523217" lon="11.838057676132523"><ele>6.0</ele><time>2026-03-29T09:38:40Z</time></trkpt><trkpt lat="44.61008634375243" lon="11.8381300132701"><ele>6.0</ele><time>2026-03-29T09:38:41Z</time></trkpt><trkpt lat="44.60998388005713" lon="11.838199850602974"><ele>6.0</ele><time>2026-03-29T09:38:42Z</time></trkpt><trkpt lat="44.609884519290546" lon="11.838267712794444"><ele>6.0</ele><time>2026-03-29T09:38:43Z</time></trkpt><trkpt lat="44.609787600152835" lon="11.838337780798435"><ele>6.0</ele><time>2026-03-29T09:38:44Z</time></trkpt><trkpt lat="44.60969423877675" lon="11.838405182052314"><ele>6.0</ele><time>2026-03-29T09:38:45Z</time></trkpt><trkpt lat="44.60959791689969" lon="11.838475880758251"><ele>5.75</ele><time>2026-03-29T09:38:46Z</time></trkpt><trkpt lat="44.60949916284022" lon="11.838549447383603"><ele>5.5</ele><time>2026-03-29T09:38:47Z</time></trkpt><trkpt lat="44.60939681936153" lon="11.838622906066973"><ele>5.25</ele><time>2026-03-29T09:38:48Z</time></trkpt><trkpt lat="44.60928940254392" lon="11.838700040553128"><ele>5.0</ele><time>2026-03-29T09:38:49Z</time></trkpt><trkpt lat="44.609181458403874" lon="11.83877548427723"><ele>5.5</ele><time>2026-03-29T09:38:50Z</time></trkpt><trkpt lat="44.609073196594686" lon="11.838853544319214"><ele>6.0</ele><time>2026-03-29T09:38:51Z</time></trkpt><trkpt lat="44.6089625099728" lon="11.838930860764265"><ele>6.5</ele><time>2026-03-29T09:38:52Z</time></trkpt><trkpt lat="44.608853534422096" lon="11.839012988364345"><ele>7.0</ele><time>2026-03-29T09:38:53Z</time></trkpt><trkpt lat="44.6087528704149" lon="11.839088423530114"><ele>6.833333333333334</ele><time>2026-03-29T09:38:54Z</time></trkpt><trkpt lat="44.60865922444434" lon="11.839149566691122"><ele>6.666666666666667</ele><time>2026-03-29T09:38:55Z</time></trkpt><trkpt lat="44.60857273570768" lon="11.839206548092786"><ele>6.5</ele><time>2026-03-29T09:38:56Z</time></trkpt><trkpt lat="44.608495349859254" lon="11.839253296124502"><ele>6.333333333333334</ele><time>2026-03-29T09:38:57Z</time></trkpt><trkpt lat="44.60842054334356" lon="11.839303152406364"><ele>6.166666666666667</ele><time>2026-03-29T09:38:58Z</time></trkpt><trkpt lat="44.608351846071685" lon="11.83935016128798"><ele>6.0</ele><time>2026-03-29T09:38:59Z</time></trkpt><trkpt lat="44.608285618508106" lon="11.839391835469547"><ele>5.5</ele><time>2026-03-29T09:39:00Z</time></trkpt><trkpt lat="44.60822303494109" lon="11.839439119990077"><ele>5.0</ele><time>2026-03-29T09:39:01Z</time></trkpt><trkpt lat="44.60812817959371" lon="11.839505406706957"><ele>4.5</ele><time>2026-03-29T09:39:02Z</time></trkpt><trkpt lat="44.60800992979297" lon="11.839595551923892"><ele>4.0</ele><time>2026-03-29T09:39:03Z</time></trkpt><trkpt lat="44.60787277460888" lon="11.839697618221214"><ele>4.333333333333333</ele><time>2026-03-29T09:39:04Z</time></trkpt><trkpt lat="44.60773151347652" lon="11.839799218679733"><ele>4.666666666666667</ele><time>2026-03-29T09:39:05Z</time></trkpt><trkpt lat="44.60755097482201" lon="11.83993121824868"><ele>5.0</ele><time>2026-03-29T09:39:06Z</time></trkpt><trkpt lat="44.60737459283527" lon="11.8400592962557"><ele>5.333333333333334</ele><time>2026-03-29T09:39:07Z</time></trkpt><trkpt lat="44.607214387952176" lon="11.840176312572494"><ele>5.666666666666667</ele><time>2026-03-29T09:39:08Z</time></trkpt><trkpt lat="44.607056991928324" lon="11.84028788989671"><ele>6.0</ele><time>2026-03-29T09:39:09Z</time></trkpt><trkpt lat="44.606885473376536" lon="11.840406527326218"><ele>6.0</ele><time>2026-03-29T09:39:10Z</time></trkpt><trkpt lat="44.606694666127545" lon="11.840535074743118"><ele>6.0</ele><time>2026-03-29T09:39:11Z</time></trkpt><trkpt lat="44.60653330077447" lon="11.840650429410653"><ele>6.0</ele><time>2026-03-29T09:39:12Z</time></trkpt><trkpt lat="44.6063865683643" lon="11.840756771692531"><ele>6.0</ele><time>2026-03-29T09:39:13Z</time></trkpt><trkpt lat="44.60624914174945" lon="11.840854700738147"><ele>6.0</ele><time>2026-03-29T09:39:14Z</time></trkpt><trkpt lat="44.60612277346201" lon="11.840946523106918"><ele>6.0</ele><time>2026-03-29T09:39:15Z</time></trkpt><trkpt lat="44.606000444817454" lon="11.8410326151386"><ele>6.0</ele><time>2026-03-29T09:39:16Z</time></trkpt><trkpt lat="44.60587621857158" lon="11.841116167453741"><ele>5.75</ele><time>2026-03-29T09:39:17Z</time></trkpt><trkpt lat="44.605749393060485" lon="11.841208755678746"><ele>5.5</ele><time>2026-03-29T09:39:18Z</time></trkpt><trkpt lat="44.605624551551614" lon="11.841298498172202"><ele>5.25</ele><time>2026-03-29T09:39:19Z</time></trkpt><trkpt lat="44.605502759965475" lon="11.841383320958599"><ele>5.0</ele><time>2026-03-29T09:39:20Z</time></trkpt><trkpt lat="44.605380812137874" lon="11.841469883674142"><ele>5.0</ele><time>2026-03-29T09:39:21Z</time></trkpt><trkpt lat="44.60526846842609" lon="11.841549977280284"><ele>5.0</ele><time>2026-03-29T09:39:22Z</time></trkpt><trkpt lat="44.605159272014866" lon="11.841632102587319"><ele>5.0</ele><time>2026-03-29T09:39:23Z</time></trkpt><trkpt lat="44.60504900495527" lon="11.841712208397047"><ele>5.0</ele><time>2026-03-29T09:39:24Z</time></trkpt><trkpt lat="44.60493765321795" lon="11.841793401717148"><ele>5.25</ele><time>2026-03-29T09:39:25Z</time></trkpt><trkpt lat="44.604828024435335" lon="11.841872890018147"><ele>5.5</ele><time>2026-03-29T09:39:26Z</time></trkpt><trkpt lat="44.60471751427768" lon="11.841955661142052"><ele>5.75</ele><time>2026-03-29T09:39:26.999Z</time></trkpt><trkpt lat="44.60460215403721" lon="11.842035428168012"><ele>6.0</ele><time>2026-03-29T09:39:27.999Z</time></trkpt><trkpt lat="44.604486284260965" lon="11.842112297494094"><ele>6.0</ele><time>2026-03-29T09:39:28.999Z</time></trkpt><trkpt lat="44.60437488169164" lon="11.842194491964095"><ele>6.0</ele><time>2026-03-29T09:39:29.999Z</time></trkpt><trkpt lat="44.60426560995019" lon="11.842274968693905"><ele>6.0</ele><time>2026-03-29T09:39:30.999Z</time></trkpt><trkpt lat="44.60415247818027" lon="11.842353591693135"><ele>6.0</ele><time>2026-03-29T09:39:31.999Z</time></trkpt><trkpt lat="44.604042189597905" lon="11.842430876052802"><ele>6.0</ele><time>2026-03-29T09:39:32.999Z</time></trkpt><trkpt lat="44.60393626627572" lon="11.842507120100368"><ele>6.0</ele><time>2026-03-29T09:39:33.999Z</time></trkpt><trkpt lat="44.60383216806871" lon="11.842577620124105"><ele>6.0</ele><time>2026-03-29T09:39:34.999Z</time></trkpt><trkpt lat="44.60372887696417" lon="11.8426503474327"><ele>6.0</ele><time>2026-03-29T09:39:35.999Z</time></trkpt><trkpt lat="44.60363351442537" lon="11.842720326037075"><ele>5.8</ele><time>2026-03-29T09:39:36.999Z</time></trkpt><trkpt lat="44.60353609140352" lon="11.842789863635348"><ele>5.6</ele><time>2026-03-29T09:39:37.999Z</time></trkpt><trkpt lat="44.60343896909538" lon="11.84285747961579"><ele>5.4</ele><time>2026-03-29T09:39:38.999Z</time></trkpt><trkpt lat="44.6033420738887" lon="11.842924873238578"><ele>5.2</ele><time>2026-03-29T09:39:39.999Z</time></trkpt><trkpt lat="44.60324244878861" lon="11.842998049457224"><ele>5.0</ele><time>2026-03-29T09:39:40.999Z</time></trkpt><trkpt lat="44.60314120100532" lon="11.843070855421507"><ele>5.0</ele><time>2026-03-29T09:39:41.999Z</time></trkpt><trkpt lat="44.603034907120716" lon="11.843146072350946"><ele>5.0</ele><time>2026-03-29T09:39:42.999Z</time></trkpt><trkpt lat="44.60292056271915" lon="11.843223343848988"><ele>5.0</ele><time>2026-03-29T09:39:43.999Z</time></trkpt><trkpt lat="44.60280586386571" lon="11.843303538455832"><ele>5.0</ele><time>2026-03-29T09:39:44.999Z</time></trkpt><trkpt lat="44.60269136043158" lon="11.843385419756796"><ele>5.0</ele><time>2026-03-29T09:39:46Z</time></trkpt><trkpt lat="44.602575901194534" lon="11.84346833801466"><ele>5.0</ele><time>2026-03-29T09:39:47Z</time></trkpt><trkpt lat="44.602462204096966" lon="11.843549472868222"><ele>5.0</ele><time>2026-03-29T09:39:48Z</time></trkpt><trkpt lat="44.602351895656696" lon="11.843626254537343"><ele>5.0</ele><time>2026-03-29T09:39:49Z</time></trkpt><trkpt lat="44.60224588942202" lon="11.843702117364947"><ele>5.0</ele><time>2026-03-29T09:39:50Z</time></trkpt><trkpt lat="44.60214290014465" lon="11.843782406428904"><ele>5.0</ele><time>2026-03-29T09:39:51Z</time></trkpt><trkpt lat="44.60203975432041" lon="11.843856923874776"><ele>5.0</ele><time>2026-03-29T09:39:52Z</time></trkpt><trkpt lat="44.601933021361575" lon="11.843934826567175"><ele>5.0</ele><time>2026-03-29T09:39:53Z</time></trkpt><trkpt lat="44.601826274253625" lon="11.844009627640773"><ele>5.0</ele><time>2026-03-29T09:39:54Z</time></trkpt><trkpt lat="44.60171631234299" lon="11.844090637459368"><ele>5.0</ele><time>2026-03-29T09:39:55Z</time></trkpt><trkpt lat="44.60160274719824" lon="11.84417379995697"><ele>5.0</ele><time>2026-03-29T09:39:56Z</time></trkpt><trkpt lat="44.60148923935735" lon="11.844255093193764"><ele>5.0</ele><time>2026-03-29T09:39:57Z</time></trkpt><trkpt lat="44.60138478278448" lon="11.844323080541269"><ele>4.8</ele><time>2026-03-29T09:39:58Z</time></trkpt><trkpt lat="44.601289345597976" lon="11.844386925010461"><ele>4.6</ele><time>2026-03-29T09:39:59Z</time></trkpt><trkpt lat="44.601190932414795" lon="11.844454276648651"><ele>4.4</ele><time>2026-03-29T09:40:00Z</time></trkpt><trkpt lat="44.60109448130577" lon="11.844525226527153"><ele>4.2</ele><time>2026-03-29T09:40:01Z</time></trkpt><trkpt lat="44.6009971981288" lon="11.844594823204089"><ele>4.0</ele><time>2026-03-29T09:40:02Z</time></trkpt><trkpt lat="44.600905152780726" lon="11.84465890224353"><ele>4.0</ele><time>2026-03-29T09:40:03Z</time></trkpt><trkpt lat="44.6008080328649" lon="11.844732008693295"><ele>4.0</ele><time>2026-03-29T09:40:04Z</time></trkpt><trkpt lat="44.60071012305001" lon="11.844797576518364"><ele>4.0</ele><time>2026-03-29T09:40:05Z</time></trkpt><trkpt lat="44.60060924664519" lon="11.844870269904655"><ele>4.0</ele><time>2026-03-29T09:40:06Z</time></trkpt><trkpt lat="44.60050545500418" lon="11.844943560364968"><ele>4.0</ele><time>2026-03-29T09:40:07Z</time></trkpt><trkpt lat="44.60039926006977" lon="11.845017933401014"><ele>4.25</ele><time>2026-03-29T09:40:08Z</time></trkpt><trkpt lat="44.60029096197295" lon="11.84509395670202"><ele>4.5</ele><time>2026-03-29T09:40:09Z</time></trkpt><trkpt lat="44.60018482623869" lon="11.845168388152997"><ele>4.75</ele><time>2026-03-29T09:40:10Z</time></trkpt><trkpt lat="44.6000802681913" lon="11.845243485327664"><ele>5.0</ele><time>2026-03-29T09:40:11Z</time></trkpt><trkpt lat="44.59997647983297" lon="11.845319361081813"><ele>4.5</ele><time>2026-03-29T09:40:12Z</time></trkpt><trkpt lat="44.59987193830064" lon="11.845392596981155"><ele>4.0</ele><time>2026-03-29T09:40:13Z</time></trkpt><trkpt lat="44.59977024253253" lon="11.84546468822179"><ele>3.5</ele><time>2026-03-29T09:40:14Z</time></trkpt><trkpt lat="44.59966695813246" lon="11.845538625535774"><ele>3.0</ele><time>2026-03-29T09:40:15Z</time></trkpt><trkpt lat="44.59956192621737" lon="11.845612067052347"><ele>3.0</ele><time>2026-03-29T09:40:16Z</time></trkpt><trkpt lat="44.5994610736731" lon="11.84568238536147"><ele>3.0</ele><time>2026-03-29T09:40:17Z</time></trkpt><trkpt lat="44.59935834097893" lon="11.845757335364143"><ele>3.0</ele><time>2026-03-29T09:40:18Z</time></trkpt><trkpt lat="44.59925526193972" lon="11.845829859789136"><ele>3.0</ele><time>2026-03-29T09:40:19Z</time></trkpt><trkpt lat="44.599152130872284" lon="11.845902422234708"><ele>4.0</ele><time>2026-03-29T09:40:20Z</time></trkpt><trkpt lat="44.59904897648393" lon="11.845976597099837"><ele>5.0</ele><time>2026-03-29T09:40:21Z</time></trkpt><trkpt lat="44.59894655981818" lon="11.846049753739845"><ele>6.0</ele><time>2026-03-29T09:40:22Z</time></trkpt><trkpt lat="44.59883944991385" lon="11.846132246829633"><ele>7.0</ele><time>2026-03-29T09:40:23Z</time></trkpt><trkpt lat="44.598734605813775" lon="11.846209606116926"><ele>6.25</ele><time>2026-03-29T09:40:24Z</time></trkpt><trkpt lat="44.59863011945427" lon="11.846294124027084"><ele>5.5</ele><time>2026-03-29T09:40:25Z</time></trkpt><trkpt lat="44.59853373742651" lon="11.84638094518881"><ele>4.75</ele><time>2026-03-29T09:40:26Z</time></trkpt><trkpt lat="44.598442343591046" lon="11.846470084272513"><ele>4.0</ele><time>2026-03-29T09:40:27Z</time></trkpt><trkpt lat="44.59835226388039" lon="11.846557658548912"><ele>4.0</ele><time>2026-03-29T09:40:28Z</time></trkpt><trkpt lat="44.598261326433715" lon="11.846651508921418"><ele>4.0</ele><time>2026-03-29T09:40:29Z</time></trkpt><trkpt lat="44.59817124862634" lon="11.846741456218357"><ele>4.0</ele><time>2026-03-29T09:40:30Z</time></trkpt><trkpt lat="44.598081170051636" lon="11.846832217825582"><ele>4.0</ele><time>2026-03-29T09:40:31Z</time></trkpt><trkpt lat="44.59798909568958" lon="11.846930273363965"><ele>4.25</ele><time>2026-03-29T09:40:32Z</time></trkpt><trkpt lat="44.59789944707939" lon="11.847024575727717"><ele>4.5</ele><time>2026-03-29T09:40:33Z</time></trkpt><trkpt lat="44.59780276102774" lon="11.84712445348035"><ele>4.75</ele><time>2026-03-29T09:40:34Z</time></trkpt><trkpt lat="44.59770683884213" lon="11.84722269342971"><ele>5.0</ele><time>2026-03-29T09:40:35Z</time></trkpt><trkpt lat="44.597608142086415" lon="11.847325992245654"><ele>5.0</ele><time>2026-03-29T09:40:36Z</time></trkpt><trkpt lat="44.59750713434872" lon="11.847429985235307"><ele>5.0</ele><time>2026-03-29T09:40:37Z</time></trkpt><trkpt lat="44.59739469865849" lon="11.847539070505805"><ele>5.0</ele><time>2026-03-29T09:40:38Z</time></trkpt><trkpt lat="44.59727349968062" lon="11.84766559719778"><ele>5.0</ele><time>2026-03-29T09:40:39Z</time></trkpt><trkpt lat="44.597141146686646" lon="11.847800014234227"><ele>3.666666666666667</ele><time>2026-03-29T09:40:40Z</time></trkpt><trkpt lat="44.59701009885983" lon="11.847934652176917"><ele>2.3333333333333335</ele><time>2026-03-29T09:40:41Z</time></trkpt><trkpt lat="44.5968701250263" lon="11.848074225715369"><ele>1.0</ele><time>2026-03-29T09:40:42Z</time></trkpt><trkpt lat="44.596734492822655" lon="11.848207718902074"><ele>1.0</ele><time>2026-03-29T09:40:43Z</time></trkpt><trkpt lat="44.596594044473214" lon="11.848351853496338"><ele>1.0</ele><time>2026-03-29T09:40:44Z</time></trkpt><trkpt lat="44.596437942205704" lon="11.848516111877721"><ele>1.0</ele><time>2026-03-29T09:40:45Z</time></trkpt><trkpt lat="44.59626470286141" lon="11.848695930767379"><ele>2.0</ele><time>2026-03-29T09:40:46Z</time></trkpt><trkpt lat="44.59608734276823" lon="11.848876223186364"><ele>3.0</ele><time>2026-03-29T09:40:47Z</time></trkpt><trkpt lat="44.595931914202644" lon="11.849040592437536"><ele>4.0</ele><time>2026-03-29T09:40:48Z</time></trkpt><trkpt lat="44.59578765276448" lon="11.84919637607493"><ele>4.333333333333333</ele><time>2026-03-29T09:40:49Z</time></trkpt><trkpt lat="44.59564197540709" lon="11.849354012083719"><ele>4.666666666666667</ele><time>2026-03-29T09:40:50Z</time></trkpt><trkpt lat="44.59549557094482" lon="11.849518674515858"><ele>5.0</ele><time>2026-03-29T09:40:51Z</time></trkpt><trkpt lat="44.59535124144936" lon="11.849681185525498"><ele>4.666666666666667</ele><time>2026-03-29T09:40:52Z</time></trkpt><trkpt lat="44.59521547391738" lon="11.849838246327979"><ele>4.333333333333333</ele><time>2026-03-29T09:40:53Z</time></trkpt><trkpt lat="44.595091322189724" lon="11.850011788123979"><ele>4.0</ele><time>2026-03-29T09:40:54Z</time></trkpt><trkpt lat="44.594970335315395" lon="11.850184955471432"><ele>4.0</ele><time>2026-03-29T09:40:55Z</time></trkpt><trkpt lat="44.594844979292944" lon="11.850371519295035"><ele>4.0</ele><time>2026-03-29T09:40:56Z</time></trkpt><trkpt lat="44.59471915956555" lon="11.850552979590386"><ele>4.0</ele><time>2026-03-29T09:40:57Z</time></trkpt><trkpt lat="44.59459130538644" lon="11.850727337616052"><ele>4.0</ele><time>2026-03-29T09:40:58Z</time></trkpt><trkpt lat="44.59446488473084" lon="11.85090626257893"><ele>4.0</ele><time>2026-03-29T09:40:59Z</time></trkpt><trkpt lat="44.59434354529051" lon="11.85107342786461"><ele>4.0</ele><time>2026-03-29T09:41:00Z</time></trkpt><trkpt lat="44.59421797904547" lon="11.851214879471645"><ele>3.6666666666666665</ele><time>2026-03-29T09:41:01Z</time></trkpt><trkpt lat="44.59408248377165" lon="11.85134526234382"><ele>3.333333333333333</ele><time>2026-03-29T09:41:02Z</time></trkpt><trkpt lat="44.59393279585777" lon="11.851444362784335"><ele>3.0</ele><time>2026-03-29T09:41:03Z</time></trkpt><trkpt lat="44.59376367998094" lon="11.85151386181738"><ele>3.333333333333333</ele><time>2026-03-29T09:41:04Z</time></trkpt><trkpt lat="44.593588760992084" lon="11.851557423793478"><ele>3.6666666666666665</ele><time>2026-03-29T09:41:05Z</time></trkpt><trkpt lat="44.5934080935579" lon="11.85156909430477"><ele>4.0</ele><time>2026-03-29T09:41:06Z</time></trkpt><trkpt lat="44.59322111168774" lon="11.851555645822069"><ele>4.0</ele><time>2026-03-29T09:41:07Z</time></trkpt><trkpt lat="44.59302472269332" lon="11.851515625343085"><ele>4.0</ele><time>2026-03-29T09:41:08Z</time></trkpt><trkpt lat="44.59283783010917" lon="11.851476526687403"><ele>4.0</ele><time>2026-03-29T09:41:09Z</time></trkpt><trkpt lat="44.59267136955282" lon="11.851425291346361"><ele>3.0</ele><time>2026-03-29T09:41:10Z</time></trkpt><trkpt lat="44.5925082962347" lon="11.851380953222165"><ele>2.0</ele><time>2026-03-29T09:41:11Z</time></trkpt><trkpt lat="44.59234887395023" lon="11.851353436475568"><ele>1.0</ele><time>2026-03-29T09:41:12Z</time></trkpt><trkpt lat="44.59219456043946" lon="11.85132562268743"><ele>1.0</ele><time>2026-03-29T09:41:13Z</time></trkpt><trkpt lat="44.59203091404108" lon="11.8513266876874"><ele>1.0</ele><time>2026-03-29T09:41:14Z</time></trkpt><trkpt lat="44.591857632612346" lon="11.851362270184136"><ele>1.0</ele><time>2026-03-29T09:41:15Z</time></trkpt><trkpt lat="44.59167619136253" lon="11.851424752920877"><ele>1.3333333333333333</ele><time>2026-03-29T09:41:16Z</time></trkpt><trkpt lat="44.59148669017523" lon="11.851496194976702"><ele>1.6666666666666665</ele><time>2026-03-29T09:41:17Z</time></trkpt><trkpt lat="44.59130525221993" lon="11.851569371739592"><ele>2.0</ele><time>2026-03-29T09:41:18Z</time></trkpt><trkpt lat="44.59113025497657" lon="11.85164435014452"><ele>2.0</ele><time>2026-03-29T09:41:19Z</time></trkpt><trkpt lat="44.59095704249894" lon="11.851715613783371"><ele>2.0</ele><time>2026-03-29T09:41:20Z</time></trkpt><trkpt lat="44.59078079233739" lon="11.851829364603963"><ele>2.0</ele><time>2026-03-29T09:41:21Z</time></trkpt><trkpt lat="44.590615806677114" lon="11.85199553827775"><ele>1.6666666666666665</ele><time>2026-03-29T09:41:22Z</time></trkpt><trkpt lat="44.59046940459928" lon="11.852193054798715"><ele>1.3333333333333333</ele><time>2026-03-29T09:41:23Z</time></trkpt><trkpt lat="44.590322023209374" lon="11.85241140654448"><ele>1.0</ele><time>2026-03-29T09:41:24Z</time></trkpt><trkpt lat="44.59016574016765" lon="11.852632453624983"><ele>0.5</ele><time>2026-03-29T09:41:25Z</time></trkpt><trkpt lat="44.589998772203046" lon="11.85285143658587"><ele>0.0</ele><time>2026-03-29T09:41:26Z</time></trkpt><trkpt lat="44.589828321052025" lon="11.853073336085833"><ele>0.0</ele><time>2026-03-29T09:41:27Z</time></trkpt><trkpt lat="44.589669677595985" lon="11.853282278752248"><ele>0.0</ele><time>2026-03-29T09:41:28Z</time></trkpt><trkpt lat="44.5895196364899" lon="11.853479136342298"><ele>0.0</ele><time>2026-03-29T09:41:29Z</time></trkpt><trkpt lat="44.58938074992471" lon="11.853663470797764"><ele>0.6666666666666666</ele><time>2026-03-29T09:41:30Z</time></trkpt><trkpt lat="44.58923879692038" lon="11.853836693404867"><ele>1.3333333333333333</ele><time>2026-03-29T09:41:31Z</time></trkpt><trkpt lat="44.589087069615516" lon="11.85399328141416"><ele>2.0</ele><time>2026-03-29T09:41:32Z</time></trkpt><trkpt lat="44.58891895431222" lon="11.854134552542439"><ele>2.0</ele><time>2026-03-29T09:41:33Z</time></trkpt><trkpt lat="44.588742803421496" lon="11.85426071312296"><ele>2.0</ele><time>2026-03-29T09:41:34Z</time></trkpt><trkpt lat="44.58856775802344" lon="11.854384973497503"><ele>2.0</ele><time>2026-03-29T09:41:35Z</time></trkpt><trkpt lat="44.58839333527522" lon="11.854524345138826"><ele>1.3333333333333333</ele><time>2026-03-29T09:41:36Z</time></trkpt><trkpt lat="44.58823040496282" lon="11.854656780714896"><ele>0.6666666666666666</ele><time>2026-03-29T09:41:37Z</time></trkpt><trkpt lat="44.58806547130151" lon="11.854798876760738"><ele>0.0</ele><time>2026-03-29T09:41:38Z</time></trkpt><trkpt lat="44.587909824161" lon="11.854961553144246"><ele>0.0</ele><time>2026-03-29T09:41:39Z</time></trkpt><trkpt lat="44.58776614249539" lon="11.855158903747244"><ele>0.0</ele><time>2026-03-29T09:41:40Z</time></trkpt><trkpt lat="44.5876399952569" lon="11.855378249983366"><ele>0.0</ele><time>2026-03-29T09:41:41Z</time></trkpt><trkpt lat="44.58752706258707" lon="11.855613246156466"><ele>0.0</ele><time>2026-03-29T09:41:42Z</time></trkpt><trkpt lat="44.58741951922744" lon="11.85585352486858"><ele>0.0</ele><time>2026-03-29T09:41:43Z</time></trkpt><trkpt lat="44.58730806836774" lon="11.856099566366277"><ele>0.0</ele><time>2026-03-29T09:41:44Z</time></trkpt><trkpt lat="44.58719230631785" lon="11.856334711848834"><ele>0.0</ele><time>2026-03-29T09:41:45Z</time></trkpt><trkpt lat="44.58707392284966" lon="11.856565619663593"><ele>0.0</ele><time>2026-03-29T09:41:46Z</time></trkpt><trkpt lat="44.58695026782604" lon="11.856792480711285"><ele>0.0</ele><time>2026-03-29T09:41:47Z</time></trkpt><trkpt lat="44.58682940218284" lon="11.857010433138221"><ele>0.3333333333333333</ele><time>2026-03-29T09:41:48Z</time></trkpt><trkpt lat="44.586712175625024" lon="11.857214315410094"><ele>0.6666666666666666</ele><time>2026-03-29T09:41:49Z</time></trkpt><trkpt lat="44.586584840849646" lon="11.857409422383922"><ele>1.0</ele><time>2026-03-29T09:41:50Z</time></trkpt><trkpt lat="44.586450551456686" lon="11.857591025474758"><ele>1.3333333333333333</ele><time>2026-03-29T09:41:51Z</time></trkpt><trkpt lat="44.58630725066182" lon="11.857756993133368"><ele>1.6666666666666665</ele><time>2026-03-29T09:41:52Z</time></trkpt><trkpt lat="44.58614663503756" lon="11.85790357591293"><ele>2.0</ele><time>2026-03-29T09:41:53Z</time></trkpt><trkpt lat="44.585977417442585" lon="11.858026732547073"><ele>2.0</ele><time>2026-03-29T09:41:54Z</time></trkpt><trkpt lat="44.58580092178982" lon="11.858139743940546"><ele>2.0</ele><time>2026-03-29T09:41:55Z</time></trkpt><trkpt lat="44.585622049937136" lon="11.858236111930708"><ele>2.0</ele><time>2026-03-29T09:41:56Z</time></trkpt><trkpt lat="44.585442906400615" lon="11.858323669697425"><ele>2.0</ele><time>2026-03-29T09:41:57Z</time></trkpt><trkpt lat="44.58526946361645" lon="11.858403971655337"><ele>2.0</ele><time>2026-03-29T09:41:58Z</time></trkpt><trkpt lat="44.58510024647593" lon="11.858473507952477"><ele>2.0</ele><time>2026-03-29T09:41:59Z</time></trkpt><trkpt lat="44.584935485667756" lon="11.85852760146319"><ele>1.6666666666666665</ele><time>2026-03-29T09:42:00Z</time></trkpt><trkpt lat="44.58477650020464" lon="11.858568851768467"><ele>1.3333333333333333</ele><time>2026-03-29T09:42:01Z</time></trkpt><trkpt lat="44.58463215380017" lon="11.858605663908717"><ele>1.0</ele><time>2026-03-29T09:42:02Z</time></trkpt><trkpt lat="44.584492920210714" lon="11.85864424862703"><ele>1.0</ele><time>2026-03-29T09:42:03Z</time></trkpt><trkpt lat="44.58435867926366" lon="11.858681388364486"><ele>1.0</ele><time>2026-03-29T09:42:04Z</time></trkpt><trkpt lat="44.584232099392025" lon="11.85874193164378"><ele>1.0</ele><time>2026-03-29T09:42:05Z</time></trkpt><trkpt lat="44.5841052004254" lon="11.858831352335747"><ele>1.0</ele><time>2026-03-29T09:42:06Z</time></trkpt><trkpt lat="44.58398401910597" lon="11.858941204566014"><ele>1.0</ele><time>2026-03-29T09:42:07Z</time></trkpt><trkpt lat="44.58388474685674" lon="11.859093537533251"><ele>1.0</ele><time>2026-03-29T09:42:08Z</time></trkpt><trkpt lat="44.583805970677815" lon="11.859285058336681"><ele>1.0</ele><time>2026-03-29T09:42:09Z</time></trkpt><trkpt lat="44.58375672217479" lon="11.859501482270655"><ele>1.3333333333333333</ele><time>2026-03-29T09:42:10Z</time></trkpt><trkpt lat="44.58373513666914" lon="11.859718568935605"><ele>1.6666666666666665</ele><time>2026-03-29T09:42:11Z</time></trkpt><trkpt lat="44.58372078321476" lon="11.859963508338794"><ele>2.0</ele><time>2026-03-29T09:42:12Z</time></trkpt><trkpt lat="44.58370743113109" lon="11.860199110601657"><ele>2.333333333333333</ele><time>2026-03-29T09:42:13Z</time></trkpt><trkpt lat="44.58369059277249" lon="11.860429553194273"><ele>2.6666666666666665</ele><time>2026-03-29T09:42:14Z</time></trkpt><trkpt lat="44.58367628598707" lon="11.860645276760382"><ele>3.0</ele><time>2026-03-29T09:42:15Z</time></trkpt><trkpt lat="44.58366479413335" lon="11.860842935646616"><ele>3.25</ele><time>2026-03-29T09:42:16Z</time></trkpt><trkpt lat="44.58366779689659" lon="11.861028089530736"><ele>3.5</ele><time>2026-03-29T09:42:17Z</time></trkpt><trkpt lat="44.583675139709136" lon="11.861212738817521"><ele>3.75</ele><time>2026-03-29T09:42:18Z</time></trkpt><trkpt lat="44.583684345925484" lon="11.861387993193299"><ele>4.0</ele><time>2026-03-29T09:42:19Z</time></trkpt><trkpt lat="44.5836921897374" lon="11.861565207661718"><ele>3.5</ele><time>2026-03-29T09:42:20Z</time></trkpt><trkpt lat="44.58370259548491" lon="11.861746061177842"><ele>3.0</ele><time>2026-03-29T09:42:21Z</time></trkpt><trkpt lat="44.58370703879749" lon="11.86193592752945"><ele>2.5</ele><time>2026-03-29T09:42:22Z</time></trkpt><trkpt lat="44.58371672638946" lon="11.862130073803467"><ele>2.0</ele><time>2026-03-29T09:42:23Z</time></trkpt><trkpt lat="44.58372891972068" lon="11.862328207937496"><ele>2.0</ele><time>2026-03-29T09:42:24Z</time></trkpt><trkpt lat="44.58374689978044" lon="11.862520297156935"><ele>2.0</ele><time>2026-03-29T09:42:25Z</time></trkpt><trkpt lat="44.5837723366003" lon="11.862712817635236"><ele>2.0</ele><time>2026-03-29T09:42:26Z</time></trkpt><trkpt lat="44.58380150209592" lon="11.862903548976167"><ele>2.0</ele><time>2026-03-29T09:42:27Z</time></trkpt><trkpt lat="44.58382914991035" lon="11.863089075810525"><ele>2.0</ele><time>2026-03-29T09:42:28Z</time></trkpt><trkpt lat="44.58385623842804" lon="11.863277374752853"><ele>2.0</ele><time>2026-03-29T09:42:29Z</time></trkpt><trkpt lat="44.58388494286579" lon="11.863462551097479"><ele>2.0</ele><time>2026-03-29T09:42:30Z</time></trkpt><trkpt lat="44.583914439509265" lon="11.863639558016088"><ele>2.0</ele><time>2026-03-29T09:42:31Z</time></trkpt><trkpt lat="44.58394736709123" lon="11.863816855312376"><ele>2.0</ele><time>2026-03-29T09:42:32Z</time></trkpt><trkpt lat="44.58397603411951" lon="11.863999980613078"><ele>2.0</ele><time>2026-03-29T09:42:33Z</time></trkpt><trkpt lat="44.584001911424025" lon="11.864182373173001"><ele>2.0</ele><time>2026-03-29T09:42:34Z</time></trkpt><trkpt lat="44.5840262353975" lon="11.864366978655582"><ele>2.0</ele><time>2026-03-29T09:42:35Z</time></trkpt><trkpt lat="44.58405347534423" lon="11.864559015754669"><ele>2.0</ele><time>2026-03-29T09:42:36Z</time></trkpt><trkpt lat="44.58407633105915" lon="11.86475470265011"><ele>2.0</ele><time>2026-03-29T09:42:37Z</time></trkpt><trkpt lat="44.58409242968009" lon="11.864956870770369"><ele>2.0</ele><time>2026-03-29T09:42:38Z</time></trkpt><trkpt lat="44.58410250474961" lon="11.865159869466488"><ele>2.0</ele><time>2026-03-29T09:42:39Z</time></trkpt><trkpt lat="44.58410125689199" lon="11.86536513904037"><ele>2.0</ele><time>2026-03-29T09:42:40Z</time></trkpt><trkpt lat="44.58408632775264" lon="11.865563795851862"><ele>2.0</ele><time>2026-03-29T09:42:41Z</time></trkpt><trkpt lat="44.5840650945956" lon="11.865758139513021"><ele>2.0</ele><time>2026-03-29T09:42:42Z</time></trkpt><trkpt lat="44.58403356844145" lon="11.865955603468837"><ele>2.0</ele><time>2026-03-29T09:42:43Z</time></trkpt><trkpt lat="44.584000416234744" lon="11.866153081745015"><ele>2.0</ele><time>2026-03-29T09:42:44Z</time></trkpt><trkpt lat="44.583968564677676" lon="11.866356833146195"><ele>2.0</ele><time>2026-03-29T09:42:45Z</time></trkpt><trkpt lat="44.58391751740641" lon="11.866561906312121"><ele>2.0</ele><time>2026-03-29T09:42:46Z</time></trkpt><trkpt lat="44.58387349825201" lon="11.866768267893365"><ele>2.0</ele><time>2026-03-29T09:42:47Z</time></trkpt><trkpt lat="44.58382897017424" lon="11.86697457427902"><ele>2.0</ele><time>2026-03-29T09:42:48Z</time></trkpt><trkpt lat="44.58378082064687" lon="11.867178448506024"><ele>2.0</ele><time>2026-03-29T09:42:49Z</time></trkpt><trkpt lat="44.58372970730113" lon="11.867380054191337"><ele>2.333333333333333</ele><time>2026-03-29T09:42:50Z</time></trkpt><trkpt lat="44.58367380655924" lon="11.867574311385589"><ele>2.6666666666666665</ele><time>2026-03-29T09:42:51Z</time></trkpt><trkpt lat="44.583608345542274" lon="11.867768846781873"><ele>3.0</ele><time>2026-03-29T09:42:52Z</time></trkpt><trkpt lat="44.58353506303869" lon="11.867975390118007"><ele>3.0</ele><time>2026-03-29T09:42:53Z</time></trkpt><trkpt lat="44.58345046392229" lon="11.86819832984938"><ele>3.0</ele><time>2026-03-29T09:42:54Z</time></trkpt><trkpt lat="44.58335924114537" lon="11.868422554576133"><ele>3.0</ele><time>2026-03-29T09:42:55Z</time></trkpt><trkpt lat="44.583266917500325" lon="11.868639890687499"><ele>2.6666666666666665</ele><time>2026-03-29T09:42:56Z</time></trkpt><trkpt lat="44.58316390140529" lon="11.868840258353025"><ele>2.333333333333333</ele><time>2026-03-29T09:42:57Z</time></trkpt><trkpt lat="44.58306009104924" lon="11.869039162187802"><ele>2.0</ele><time>2026-03-29T09:42:58Z</time></trkpt><trkpt lat="44.58295595248222" lon="11.86923159101647"><ele>1.6666666666666665</ele><time>2026-03-29T09:42:59Z</time></trkpt><trkpt lat="44.58284626092881" lon="11.869413053877919"><ele>1.3333333333333333</ele><time>2026-03-29T09:43:00Z</time></trkpt><trkpt lat="44.58273280463974" lon="11.869593100356031"><ele>1.0</ele><time>2026-03-29T09:43:01Z</time></trkpt><trkpt lat="44.58261195723769" lon="11.869766850867526"><ele>1.0</ele><time>2026-03-29T09:43:02Z</time></trkpt><trkpt lat="44.58249142699736" lon="11.86994845407346"><ele>1.0</ele><time>2026-03-29T09:43:03Z</time></trkpt><trkpt lat="44.582363025650295" lon="11.870127709996023"><ele>1.0</ele><time>2026-03-29T09:43:04Z</time></trkpt><trkpt lat="44.582233679287704" lon="11.870301709429642"><ele>0.6666666666666666</ele><time>2026-03-29T09:43:05Z</time></trkpt><trkpt lat="44.582101816452784" lon="11.870475883173475"><ele>0.3333333333333333</ele><time>2026-03-29T09:43:06Z</time></trkpt><trkpt lat="44.581972456835004" lon="11.870639530808555"><ele>0.0</ele><time>2026-03-29T09:43:07Z</time></trkpt><trkpt lat="44.58184204477044" lon="11.870808895112951"><ele>0.0</ele><time>2026-03-29T09:43:08Z</time></trkpt><trkpt lat="44.581708914962455" lon="11.870984910193252"><ele>0.0</ele><time>2026-03-29T09:43:09Z</time></trkpt><trkpt lat="44.58157422477483" lon="11.871171726303453"><ele>0.0</ele><time>2026-03-29T09:43:10Z</time></trkpt><trkpt lat="44.58143978016841" lon="11.871359223260281"><ele>0.0</ele><time>2026-03-29T09:43:11Z</time></trkpt><trkpt lat="44.58130756057092" lon="11.871550360003534"><ele>0.0</ele><time>2026-03-29T09:43:12Z</time></trkpt><trkpt lat="44.58118118894412" lon="11.87173894116285"><ele>0.0</ele><time>2026-03-29T09:43:13Z</time></trkpt><trkpt lat="44.58106200400005" lon="11.871925780850049"><ele>0.3333333333333333</ele><time>2026-03-29T09:43:14Z</time></trkpt><trkpt lat="44.58093713614674" lon="11.872106960722933"><ele>0.6666666666666666</ele><time>2026-03-29T09:43:15Z</time></trkpt><trkpt lat="44.58080359573349" lon="11.872295531300963"><ele>1.0</ele><time>2026-03-29T09:43:16Z</time></trkpt><trkpt lat="44.58066725305648" lon="11.872490479583098"><ele>1.6666666666666665</ele><time>2026-03-29T09:43:17Z</time></trkpt><trkpt lat="44.58053053371597" lon="11.872684094747292"><ele>2.3333333333333335</ele><time>2026-03-29T09:43:18Z</time></trkpt><trkpt lat="44.580394723970905" lon="11.872873037901275"><ele>3.0</ele><time>2026-03-29T09:43:19Z</time></trkpt><trkpt lat="44.58026122928225" lon="11.873046575969155"><ele>3.0</ele><time>2026-03-29T09:43:20Z</time></trkpt><trkpt lat="44.580122739436945" lon="11.87322266202518"><ele>3.0</ele><time>2026-03-29T09:43:21Z</time></trkpt><trkpt lat="44.57998329346714" lon="11.873401282317147"><ele>3.0</ele><time>2026-03-29T09:43:22Z</time></trkpt><trkpt lat="44.57984551073343" lon="11.873579393705155"><ele>3.0</ele><time>2026-03-29T09:43:23Z</time></trkpt><trkpt lat="44.579706192206025" lon="11.873757054107857"><ele>3.0</ele><time>2026-03-29T09:43:24Z</time></trkpt><trkpt lat="44.57957368787538" lon="11.873933430857235"><ele>3.0</ele><time>2026-03-29T09:43:25Z</time></trkpt><trkpt lat="44.57944285621411" lon="11.874109608860484"><ele>3.0</ele><time>2026-03-29T09:43:26Z</time></trkpt><trkpt lat="44.57930616945523" lon="11.87429183818673"><ele>3.0</ele><time>2026-03-29T09:43:27Z</time></trkpt><trkpt lat="44.57917609901042" lon="11.874461999250325"><ele>3.0</ele><time>2026-03-29T09:43:28Z</time></trkpt><trkpt lat="44.57904985287223" lon="11.874624220357079"><ele>3.0</ele><time>2026-03-29T09:43:29Z</time></trkpt><trkpt lat="44.57893348344259" lon="11.874775393572191"><ele>3.0</ele><time>2026-03-29T09:43:30Z</time></trkpt><trkpt lat="44.578825471673476" lon="11.874917729094989"><ele>3.0</ele><time>2026-03-29T09:43:31Z</time></trkpt><trkpt lat="44.5787262813583" lon="11.875046396440428"><ele>3.0</ele><time>2026-03-29T09:43:32Z</time></trkpt><trkpt lat="44.57863074735688" lon="11.875169057307284"><ele>3.8</ele><time>2026-03-29T09:43:33Z</time></trkpt><trkpt lat="44.57853551264939" lon="11.875283933393751"><ele>4.6</ele><time>2026-03-29T09:43:34Z</time></trkpt><trkpt lat="44.57845232223753" lon="11.87539487769544"><ele>5.3999999999999995</ele><time>2026-03-29T09:43:35Z</time></trkpt><trkpt lat="44.57838110418027" lon="11.875473790471261"><ele>6.199999999999999</ele><time>2026-03-29T09:43:36Z</time></trkpt><trkpt lat="44.57832436869101" lon="11.875535735998817"><ele>7.0</ele><time>2026-03-29T09:43:37Z</time></trkpt><trkpt lat="44.57826792529427" lon="11.875579371381715"><ele>7.000000000000001</ele><time>2026-03-29T09:43:38Z</time></trkpt><trkpt lat="44.5781682024269" lon="11.875606967859756"><ele>7.0</ele><time>2026-03-29T09:43:40Z</time></trkpt><trkpt lat="44.57813619249736" lon="11.875769449459074"><ele>7.0</ele><time>2026-03-29T09:43:42Z</time></trkpt><trkpt lat="44.5781110635078" lon="11.875866790283556"><ele>7.0</ele><time>2026-03-29T09:43:44Z</time></trkpt><trkpt lat="44.578062985187834" lon="11.875926464558777"><ele>7.000000000000001</ele><time>2026-03-29T09:43:46Z</time></trkpt><trkpt lat="44.577998419294666" lon="11.87596696434766"><ele>7.0</ele><time>2026-03-29T09:43:50Z</time></trkpt><trkpt lat="44.57792595695962" lon="11.875958187361036"><ele>7.0</ele><time>2026-03-29T09:43:53Z</time></trkpt><trkpt lat="44.57799238734735" lon="11.875947906279281"><ele>6.999999999999999</ele><time>2026-03-29T09:47:53.001Z</time></trkpt><trkpt lat="44.57807342408707" lon="11.875987049152155"><ele>6.999999999999999</ele><time>2026-03-29T09:48:03.001Z</time></trkpt><trkpt lat="44.57799006326231" lon="11.876236626323134"><ele>7.0</ele><time>2026-03-29T09:48:06.001Z</time></trkpt><trkpt lat="44.5780381232557" lon="11.876344419337073"><ele>7.0</ele><time>2026-03-29T09:48:07.001Z</time></trkpt><trkpt lat="44.578049322099965" lon="11.876494151249359"><ele>7.0</ele><time>2026-03-29T09:48:09.001Z</time></trkpt><trkpt lat="44.578066722967094" lon="11.876606241616603"><ele>6.999999999999999</ele><time>2026-03-29T09:48:10Z</time></trkpt><trkpt lat="44.57809357133176" lon="11.876751096422948"><ele>6.999999999999999</ele><time>2026-03-29T09:48:11Z</time></trkpt><trkpt lat="44.57810732729948" lon="11.876887827116631"><ele>7.0</ele><time>2026-03-29T09:48:12Z</time></trkpt><trkpt lat="44.578139200786495" lon="11.87702905729173"><ele>7.0</ele><time>2026-03-29T09:48:13Z</time></trkpt><trkpt lat="44.578180428610246" lon="11.877203316732867"><ele>7.0</ele><time>2026-03-29T09:48:14Z</time></trkpt><trkpt lat="44.57822365906234" lon="11.87738605275635"><ele>7.0</ele><time>2026-03-29T09:48:15Z</time></trkpt><trkpt lat="44.57826468663336" lon="11.877559542213218"><ele>7.0</ele><time>2026-03-29T09:48:16Z</time></trkpt><trkpt lat="44.57830926391054" lon="11.877748320028857"><ele>7.0</ele><time>2026-03-29T09:48:17Z</time></trkpt><trkpt lat="44.578354413630706" lon="11.8779430666614"><ele>6.666666666666667</ele><time>2026-03-29T09:48:18Z</time></trkpt><trkpt lat="44.57839961333447" lon="11.878138028409355"><ele>6.333333333333334</ele><time>2026-03-29T09:48:19Z</time></trkpt><trkpt lat="44.57845945456586" lon="11.878323456537409"><ele>6.0</ele><time>2026-03-29T09:48:20Z</time></trkpt><trkpt lat="44.578508434418225" lon="11.878539783464802"><ele>6.0</ele><time>2026-03-29T09:48:21Z</time></trkpt><trkpt lat="44.578557778156245" lon="11.878762931395393"><ele>6.0</ele><time>2026-03-29T09:48:22Z</time></trkpt><trkpt lat="44.57861079967918" lon="11.878979188403127"><ele>6.0</ele><time>2026-03-29T09:48:23Z</time></trkpt><trkpt lat="44.57866027535968" lon="11.87919189332911"><ele>5.75</ele><time>2026-03-29T09:48:24Z</time></trkpt><trkpt lat="44.57870488006684" lon="11.879396775971317"><ele>5.5</ele><time>2026-03-29T09:48:25Z</time></trkpt><trkpt lat="44.57874513646984" lon="11.879591651414938"><ele>5.25</ele><time>2026-03-29T09:48:26Z</time></trkpt><trkpt lat="44.578788664804264" lon="11.879783513425428"><ele>5.0</ele><time>2026-03-29T09:48:27Z</time></trkpt><trkpt lat="44.578832009179074" lon="11.879978355683857"><ele>5.0</ele><time>2026-03-29T09:48:28Z</time></trkpt><trkpt lat="44.57887502644776" lon="11.880175733664318"><ele>5.0</ele><time>2026-03-29T09:48:29Z</time></trkpt><trkpt lat="44.57891545919145" lon="11.88036316598638"><ele>5.0</ele><time>2026-03-29T09:48:30Z</time></trkpt><trkpt lat="44.5789579012634" lon="11.880550097201725"><ele>5.0</ele><time>2026-03-29T09:48:31Z</time></trkpt><trkpt lat="44.57899942704244" lon="11.880740353352445"><ele>3.666666666666667</ele><time>2026-03-29T09:48:32Z</time></trkpt><trkpt lat="44.5790301926176" lon="11.880948388386669"><ele>2.3333333333333335</ele><time>2026-03-29T09:48:33Z</time></trkpt><trkpt lat="44.57908249233849" lon="11.881149957430225"><ele>1.0</ele><time>2026-03-29T09:48:34Z</time></trkpt><trkpt lat="44.57913393216657" lon="11.881367851366315"><ele>1.0</ele><time>2026-03-29T09:48:35Z</time></trkpt><trkpt lat="44.57918075029302" lon="11.881583148755066"><ele>1.0</ele><time>2026-03-29T09:48:36Z</time></trkpt><trkpt lat="44.57922358614399" lon="11.881783247812226"><ele>1.0</ele><time>2026-03-29T09:48:37Z</time></trkpt><trkpt lat="44.57927383774359" lon="11.881984085075738"><ele>2.0</ele><time>2026-03-29T09:48:38Z</time></trkpt><trkpt lat="44.579330348000525" lon="11.882186845875122"><ele>3.0</ele><time>2026-03-29T09:48:39Z</time></trkpt><trkpt lat="44.579394975679485" lon="11.882379047146364"><ele>4.0</ele><time>2026-03-29T09:48:40Z</time></trkpt><trkpt lat="44.57946175070273" lon="11.882558526974604"><ele>2.6666666666666665</ele><time>2026-03-29T09:48:41Z</time></trkpt><trkpt lat="44.57953412856719" lon="11.882748534322523"><ele>1.3333333333333333</ele><time>2026-03-29T09:48:42Z</time></trkpt><trkpt lat="44.57960037159843" lon="11.882939670125637"><ele>0.0</ele><time>2026-03-29T09:48:43Z</time></trkpt><trkpt lat="44.579654143905884" lon="11.883156943618438"><ele>0.0</ele><time>2026-03-29T09:48:44Z</time></trkpt><trkpt lat="44.579704977602866" lon="11.88338842803871"><ele>0.0</ele><time>2026-03-29T09:48:45Z</time></trkpt><trkpt lat="44.57975581660722" lon="11.883625601754739"><ele>0.0</ele><time>2026-03-29T09:48:46Z</time></trkpt><trkpt lat="44.57980161897561" lon="11.883877754089388"><ele>0.3333333333333333</ele><time>2026-03-29T09:48:47Z</time></trkpt><trkpt lat="44.57985360105972" lon="11.884133701827624"><ele>0.6666666666666666</ele><time>2026-03-29T09:48:48Z</time></trkpt><trkpt lat="44.57991012573761" lon="11.884387419180607"><ele>1.0</ele><time>2026-03-29T09:48:49Z</time></trkpt><trkpt lat="44.579963667000634" lon="11.884644458963987"><ele>1.3333333333333333</ele><time>2026-03-29T09:48:50Z</time></trkpt><trkpt lat="44.58001689450714" lon="11.884900018741053"><ele>1.6666666666666665</ele><time>2026-03-29T09:48:51Z</time></trkpt><trkpt lat="44.58006979658578" lon="11.885151857651866"><ele>2.0</ele><time>2026-03-29T09:48:52Z</time></trkpt><trkpt lat="44.58011988972961" lon="11.885394972191555"><ele>2.0</ele><time>2026-03-29T09:48:53Z</time></trkpt><trkpt lat="44.58017700074099" lon="11.885643382781282"><ele>2.0</ele><time>2026-03-29T09:48:54Z</time></trkpt><trkpt lat="44.58023473769737" lon="11.88588718375057"><ele>2.0</ele><time>2026-03-29T09:48:55Z</time></trkpt><trkpt lat="44.58029224897039" lon="11.88613140979199"><ele>1.6666666666666665</ele><time>2026-03-29T09:48:56Z</time></trkpt><trkpt lat="44.580352720657814" lon="11.886379020979136"><ele>1.3333333333333333</ele><time>2026-03-29T09:48:57Z</time></trkpt><trkpt lat="44.58041609641864" lon="11.886627243519332"><ele>1.0</ele><time>2026-03-29T09:48:58Z</time></trkpt><trkpt lat="44.58047693043593" lon="11.886873213838431"><ele>1.0</ele><time>2026-03-29T09:48:59Z</time></trkpt><trkpt lat="44.58053819033262" lon="11.887124368273344"><ele>1.0</ele><time>2026-03-29T09:49:00Z</time></trkpt><trkpt lat="44.58059924522843" lon="11.887384631793847"><ele>1.0</ele><time>2026-03-29T09:49:01Z</time></trkpt><trkpt lat="44.58065828421766" lon="11.88764021629867"><ele>1.3333333333333333</ele><time>2026-03-29T09:49:02Z</time></trkpt><trkpt lat="44.580710608412154" lon="11.887895757093387"><ele>1.6666666666666665</ele><time>2026-03-29T09:49:03Z</time></trkpt><trkpt lat="44.580761408320384" lon="11.888158900246687"><ele>2.0</ele><time>2026-03-29T09:49:04Z</time></trkpt><trkpt lat="44.58081104584039" lon="11.888417674840019"><ele>2.0</ele><time>2026-03-29T09:49:05Z</time></trkpt><trkpt lat="44.5808608936836" lon="11.888676157870949"><ele>2.0</ele><time>2026-03-29T09:49:06Z</time></trkpt><trkpt lat="44.58090952590273" lon="11.888936361658827"><ele>2.0</ele><time>2026-03-29T09:49:07Z</time></trkpt><trkpt lat="44.58094456923682" lon="11.889198376815747"><ele>2.0</ele><time>2026-03-29T09:49:08Z</time></trkpt><trkpt lat="44.58099459133213" lon="11.889462553486116"><ele>2.0</ele><time>2026-03-29T09:49:09Z</time></trkpt><trkpt lat="44.581044263953764" lon="11.889724884672717"><ele>2.0</ele><time>2026-03-29T09:49:10Z</time></trkpt><trkpt lat="44.58109375705505" lon="11.889986267658431"><ele>2.0</ele><time>2026-03-29T09:49:11Z</time></trkpt><trkpt lat="44.58114356107311" lon="11.890249292686294"><ele>2.0</ele><time>2026-03-29T09:49:12Z</time></trkpt><trkpt lat="44.581192135202926" lon="11.89050804734658"><ele>2.0</ele><time>2026-03-29T09:49:13Z</time></trkpt><trkpt lat="44.5812412225072" lon="11.89077265725045"><ele>2.0</ele><time>2026-03-29T09:49:14Z</time></trkpt><trkpt lat="44.58129171293877" lon="11.891044830612675"><ele>2.0</ele><time>2026-03-29T09:49:15Z</time></trkpt><trkpt lat="44.58134141483977" lon="11.89131431171931"><ele>2.0</ele><time>2026-03-29T09:49:16Z</time></trkpt><trkpt lat="44.58139063064034" lon="11.89158717511228"><ele>2.0</ele><time>2026-03-29T09:49:17Z</time></trkpt><trkpt lat="44.58143920969137" lon="11.891856508325063"><ele>2.0</ele><time>2026-03-29T09:49:18Z</time></trkpt><trkpt lat="44.58148800089923" lon="11.892128063435548"><ele>2.0</ele><time>2026-03-29T09:49:19Z</time></trkpt><trkpt lat="44.58153560337318" lon="11.89239306571608"><ele>2.333333333333333</ele><time>2026-03-29T09:49:20Z</time></trkpt><trkpt lat="44.58158318563407" lon="11.892657955457528"><ele>2.6666666666666665</ele><time>2026-03-29T09:49:21Z</time></trkpt><trkpt lat="44.58162989498192" lon="11.89292009340362"><ele>3.0</ele><time>2026-03-29T09:49:22Z</time></trkpt><trkpt lat="44.58167544267683" lon="11.893178305718486"><ele>3.333333333333333</ele><time>2026-03-29T09:49:23Z</time></trkpt><trkpt lat="44.581721424388626" lon="11.893432656315069"><ele>3.6666666666666665</ele><time>2026-03-29T09:49:24Z</time></trkpt><trkpt lat="44.58177148279687" lon="11.893708971538706"><ele>4.0</ele><time>2026-03-29T09:49:25Z</time></trkpt><trkpt lat="44.58181940030756" lon="11.893973580199162"><ele>4.0</ele><time>2026-03-29T09:49:26Z</time></trkpt><trkpt lat="44.581866036756466" lon="11.894233813371862"><ele>4.0</ele><time>2026-03-29T09:49:27Z</time></trkpt><trkpt lat="44.58191320554532" lon="11.894497017117779"><ele>4.0</ele><time>2026-03-29T09:49:28Z</time></trkpt><trkpt lat="44.58195966618372" lon="11.894751673861949"><ele>3.0</ele><time>2026-03-29T09:49:29Z</time></trkpt><trkpt lat="44.58200708108968" lon="11.895010924277916"><ele>2.0</ele><time>2026-03-29T09:49:30Z</time></trkpt><trkpt lat="44.58205358484633" lon="11.895265192613955"><ele>1.0</ele><time>2026-03-29T09:49:31Z</time></trkpt><trkpt lat="44.58209976199518" lon="11.895518772724925"><ele>0.3333333333333333</ele><time>2026-03-29T09:49:32Z</time></trkpt><trkpt lat="44.582143003987845" lon="11.895763892579733"><ele>-0.3333333333333333</ele><time>2026-03-29T09:49:33Z</time></trkpt><trkpt lat="44.582183153271565" lon="11.896010963698641"><ele>-1.0</ele><time>2026-03-29T09:49:34Z</time></trkpt><trkpt lat="44.58221574807557" lon="11.896257533051513"><ele>-1.0</ele><time>2026-03-29T09:49:35Z</time></trkpt><trkpt lat="44.582245980951235" lon="11.896511004612133"><ele>-1.0</ele><time>2026-03-29T09:49:36Z</time></trkpt><trkpt lat="44.5822737320812" lon="11.896760900419729"><ele>-1.0</ele><time>2026-03-29T09:49:37Z</time></trkpt><trkpt lat="44.58230062502346" lon="11.897008726810503"><ele>-0.3333333333333333</ele><time>2026-03-29T09:49:38Z</time></trkpt><trkpt lat="44.58232702965313" lon="11.897252053233318"><ele>0.3333333333333333</ele><time>2026-03-29T09:49:39Z</time></trkpt><trkpt lat="44.58235307870944" lon="11.897474426246543"><ele>1.0</ele><time>2026-03-29T09:49:40Z</time></trkpt><trkpt lat="44.582390403855484" lon="11.89769673209123"><ele>1.6666666666666665</ele><time>2026-03-29T09:49:41Z</time></trkpt><trkpt lat="44.58246642803106" lon="11.897916273446159"><ele>2.3333333333333335</ele><time>2026-03-29T09:49:42Z</time></trkpt><trkpt lat="44.58254608362508" lon="11.898141846939746"><ele>3.0</ele><time>2026-03-29T09:49:43Z</time></trkpt><trkpt lat="44.58262750341667" lon="11.898367362833982"><ele>2.6666666666666665</ele><time>2026-03-29T09:49:44Z</time></trkpt><trkpt lat="44.582678352145415" lon="11.89861133073296"><ele>2.333333333333333</ele><time>2026-03-29T09:49:45Z</time></trkpt><trkpt lat="44.58272360264468" lon="11.898859232047291"><ele>2.0</ele><time>2026-03-29T09:49:46Z</time></trkpt><trkpt lat="44.58276123021509" lon="11.899093342036254"><ele>2.25</ele><time>2026-03-29T09:49:47Z</time></trkpt><trkpt lat="44.582794506582886" lon="11.899306789942052"><ele>2.5</ele><time>2026-03-29T09:49:48Z</time></trkpt><trkpt lat="44.58282482082725" lon="11.899502276440346"><ele>2.75</ele><time>2026-03-29T09:49:49Z</time></trkpt><trkpt lat="44.58285433987804" lon="11.899693830504773"><ele>3.0</ele><time>2026-03-29T09:49:50Z</time></trkpt><trkpt lat="44.582885253974126" lon="11.899890264904712"><ele>2.0</ele><time>2026-03-29T09:49:51Z</time></trkpt><trkpt lat="44.582931918396255" lon="11.90008425618523"><ele>1.0</ele><time>2026-03-29T09:49:52Z</time></trkpt><trkpt lat="44.5829573337417" lon="11.900289841514825"><ele>0.0</ele><time>2026-03-29T09:49:53Z</time></trkpt><trkpt lat="44.5829935111956" lon="11.900500907426562"><ele>-1.0</ele><time>2026-03-29T09:49:54Z</time></trkpt><trkpt lat="44.583033465196934" lon="11.90072214421529"><ele>-1.0</ele><time>2026-03-29T09:49:55Z</time></trkpt><trkpt lat="44.583078228549546" lon="11.900946130667561"><ele>-1.0</ele><time>2026-03-29T09:49:56Z</time></trkpt><trkpt lat="44.58311857460486" lon="11.90118126285435"><ele>-1.0</ele><time>2026-03-29T09:49:57Z</time></trkpt><trkpt lat="44.58315939033931" lon="11.901418567503756"><ele>-1.0</ele><time>2026-03-29T09:49:58Z</time></trkpt><trkpt lat="44.583200638513766" lon="11.901656559042243"><ele>-1.0</ele><time>2026-03-29T09:49:59Z</time></trkpt><trkpt lat="44.58324193669641" lon="11.90189330865921"><ele>-1.0</ele><time>2026-03-29T09:50:00Z</time></trkpt><trkpt lat="44.5832849690788" lon="11.90213098863819"><ele>-0.3333333333333333</ele><time>2026-03-29T09:50:01Z</time></trkpt><trkpt lat="44.58332537731172" lon="11.902375609441918"><ele>0.3333333333333333</ele><time>2026-03-29T09:50:02Z</time></trkpt><trkpt lat="44.583369732827755" lon="11.902610795459088"><ele>1.0</ele><time>2026-03-29T09:50:03Z</time></trkpt><trkpt lat="44.58341215776272" lon="11.902846878689342"><ele>1.3333333333333333</ele><time>2026-03-29T09:50:04Z</time></trkpt><trkpt lat="44.583461402451896" lon="11.90308681093089"><ele>1.6666666666666665</ele><time>2026-03-29T09:50:05Z</time></trkpt><trkpt lat="44.58351279337823" lon="11.903328382988061"><ele>2.0</ele><time>2026-03-29T09:50:06Z</time></trkpt><trkpt lat="44.583565213546564" lon="11.90357086585517"><ele>2.0</ele><time>2026-03-29T09:50:07Z</time></trkpt><trkpt lat="44.58361714359326" lon="11.903811074414032"><ele>2.0</ele><time>2026-03-29T09:50:08Z</time></trkpt><trkpt lat="44.58367361889639" lon="11.904053612830843"><ele>2.0</ele><time>2026-03-29T09:50:09Z</time></trkpt><trkpt lat="44.58372906800669" lon="11.904289555847285"><ele>1.3333333333333333</ele><time>2026-03-29T09:50:10Z</time></trkpt><trkpt lat="44.58378062824383" lon="11.904519159998538"><ele>0.6666666666666666</ele><time>2026-03-29T09:50:11Z</time></trkpt><trkpt lat="44.58382482693405" lon="11.904742055815605"><ele>0.0</ele><time>2026-03-29T09:50:12Z</time></trkpt><trkpt lat="44.58386733294873" lon="11.904959113673273"><ele>0.3333333333333333</ele><time>2026-03-29T09:50:13Z</time></trkpt><trkpt lat="44.583903334976974" lon="11.905177630530748"><ele>0.6666666666666666</ele><time>2026-03-29T09:50:14Z</time></trkpt><trkpt lat="44.58393618767943" lon="11.905391809092402"><ele>1.0</ele><time>2026-03-29T09:50:15Z</time></trkpt><trkpt lat="44.58396356057612" lon="11.905605718386544"><ele>1.0</ele><time>2026-03-29T09:50:16Z</time></trkpt><trkpt lat="44.5839868495521" lon="11.905827326884395"><ele>1.0</ele><time>2026-03-29T09:50:17Z</time></trkpt><trkpt lat="44.58400764757718" lon="11.906038775136317"><ele>1.0</ele><time>2026-03-29T09:50:18Z</time></trkpt><trkpt lat="44.58402019245303" lon="11.906238347920194"><ele>1.25</ele><time>2026-03-29T09:50:19Z</time></trkpt><trkpt lat="44.584034427733755" lon="11.906439509470369"><ele>1.5</ele><time>2026-03-29T09:50:20Z</time></trkpt><trkpt lat="44.58405005362633" lon="11.90664792356388"><ele>1.75</ele><time>2026-03-29T09:50:21Z</time></trkpt><trkpt lat="44.58407352222742" lon="11.906862944478851"><ele>2.0</ele><time>2026-03-29T09:50:22Z</time></trkpt><trkpt lat="44.58408927470616" lon="11.907081083630224"><ele>2.333333333333333</ele><time>2026-03-29T09:50:23Z</time></trkpt><trkpt lat="44.58411235765074" lon="11.90730107409528"><ele>2.6666666666666665</ele><time>2026-03-29T09:50:24Z</time></trkpt><trkpt lat="44.58413972438382" lon="11.907520618731557"><ele>3.0</ele><time>2026-03-29T09:50:25Z</time></trkpt><trkpt lat="44.58417141374212" lon="11.90774412095847"><ele>3.333333333333333</ele><time>2026-03-29T09:50:26Z</time></trkpt><trkpt lat="44.58420593972492" lon="11.907969052653142"><ele>3.6666666666666665</ele><time>2026-03-29T09:50:27Z</time></trkpt><trkpt lat="44.58425173863593" lon="11.908195903999605"><ele>4.0</ele><time>2026-03-29T09:50:28Z</time></trkpt><trkpt lat="44.584284328817276" lon="11.908420857962744"><ele>4.0</ele><time>2026-03-29T09:50:29Z</time></trkpt><trkpt lat="44.58431897593112" lon="11.908649832672445"><ele>4.0</ele><time>2026-03-29T09:50:30Z</time></trkpt><trkpt lat="44.58435622143592" lon="11.908867592575762"><ele>4.0</ele><time>2026-03-29T09:50:31Z</time></trkpt><trkpt lat="44.58439303286123" lon="11.909072613459601"><ele>4.0</ele><time>2026-03-29T09:50:32Z</time></trkpt><trkpt lat="44.584424790468205" lon="11.909268947348968"><ele>4.0</ele><time>2026-03-29T09:50:33Z</time></trkpt><trkpt lat="44.58446100385578" lon="11.909451972150356"><ele>4.0</ele><time>2026-03-29T09:50:34Z</time></trkpt><trkpt lat="44.584490469682656" lon="11.909617349302488"><ele>4.0</ele><time>2026-03-29T09:50:35Z</time></trkpt><trkpt lat="44.58452097782015" lon="11.909774520188067"><ele>3.25</ele><time>2026-03-29T09:50:36Z</time></trkpt><trkpt lat="44.58455121613439" lon="11.90992919884011"><ele>2.5</ele><time>2026-03-29T09:50:37Z</time></trkpt><trkpt lat="44.58458371718177" lon="11.910081499627118"><ele>1.75</ele><time>2026-03-29T09:50:38Z</time></trkpt><trkpt lat="44.58461670134312" lon="11.910232705301263"><ele>1.0</ele><time>2026-03-29T09:50:39Z</time></trkpt><trkpt lat="44.58465038340706" lon="11.910381242606883"><ele>1.0</ele><time>2026-03-29T09:50:40Z</time></trkpt><trkpt lat="44.58468367224756" lon="11.910527330899843"><ele>1.0</ele><time>2026-03-29T09:50:41Z</time></trkpt><trkpt lat="44.584717220124716" lon="11.910672890586284"><ele>1.0</ele><time>2026-03-29T09:50:42Z</time></trkpt><trkpt lat="44.58475060916669" lon="11.910819396045046"><ele>1.0</ele><time>2026-03-29T09:50:43Z</time></trkpt><trkpt lat="44.584783677913734" lon="11.910961877072276"><ele>1.0</ele><time>2026-03-29T09:50:44Z</time></trkpt><trkpt lat="44.58481560627714" lon="11.911109549113492"><ele>1.0</ele><time>2026-03-29T09:50:45Z</time></trkpt><trkpt lat="44.58484364680801" lon="11.911257467859096"><ele>1.0</ele><time>2026-03-29T09:50:46Z</time></trkpt><trkpt lat="44.58487283927123" lon="11.911403820027404"><ele>1.0</ele><time>2026-03-29T09:50:47Z</time></trkpt><trkpt lat="44.58489877399167" lon="11.911554710131702"><ele>1.0</ele><time>2026-03-29T09:50:48Z</time></trkpt><trkpt lat="44.5849245055473" lon="11.91170685021011"><ele>1.0</ele><time>2026-03-29T09:50:49Z</time></trkpt><trkpt lat="44.58494818772347" lon="11.911872824785554"><ele>1.0</ele><time>2026-03-29T09:50:50Z</time></trkpt><trkpt lat="44.584970935381605" lon="11.912041676690869"><ele>1.0</ele><time>2026-03-29T09:50:51Z</time></trkpt><trkpt lat="44.584997541967226" lon="11.912211188917768"><ele>1.0</ele><time>2026-03-29T09:50:52Z</time></trkpt><trkpt lat="44.58502553751062" lon="11.912382540488958"><ele>1.0</ele><time>2026-03-29T09:50:53Z</time></trkpt><trkpt lat="44.585052870303535" lon="11.912552099907733"><ele>1.5</ele><time>2026-03-29T09:50:54Z</time></trkpt><trkpt lat="44.58508406738548" lon="11.912728342605321"><ele>2.0</ele><time>2026-03-29T09:50:55Z</time></trkpt><trkpt lat="44.58511808354338" lon="11.912930007457225"><ele>2.5</ele><time>2026-03-29T09:50:56Z</time></trkpt><trkpt lat="44.58515603853644" lon="11.913150959724657"><ele>3.0</ele><time>2026-03-29T09:50:57Z</time></trkpt><trkpt lat="44.58519577676316" lon="11.913377104423885"><ele>3.666666666666667</ele><time>2026-03-29T09:50:58Z</time></trkpt><trkpt lat="44.5852329776723" lon="11.913597869711236"><ele>4.333333333333334</ele><time>2026-03-29T09:50:59Z</time></trkpt><trkpt lat="44.585271224626744" lon="11.913819812352243"><ele>5.0</ele><time>2026-03-29T09:51:00Z</time></trkpt><trkpt lat="44.585311855703786" lon="11.914054503064605"><ele>3.0</ele><time>2026-03-29T09:51:01Z</time></trkpt><trkpt lat="44.5853528572363" lon="11.914292038239441"><ele>1.0</ele><time>2026-03-29T09:51:02Z</time></trkpt><trkpt lat="44.58539625782233" lon="11.914533017105327"><ele>-1.0</ele><time>2026-03-29T09:51:03Z</time></trkpt><trkpt lat="44.58543814494467" lon="11.914778890085618"><ele>-1.0</ele><time>2026-03-29T09:51:04Z</time></trkpt><trkpt lat="44.585476758385894" lon="11.915019839774628"><ele>-1.0</ele><time>2026-03-29T09:51:05Z</time></trkpt><trkpt lat="44.5855196801181" lon="11.915257245079559"><ele>-1.0</ele><time>2026-03-29T09:51:06Z</time></trkpt><trkpt lat="44.585562161442226" lon="11.915492951467686"><ele>-0.6666666666666666</ele><time>2026-03-29T09:51:07Z</time></trkpt><trkpt lat="44.585604173867615" lon="11.915727455264426"><ele>-0.3333333333333333</ele><time>2026-03-29T09:51:08Z</time></trkpt><trkpt lat="44.585653554998025" lon="11.915968858467306"><ele>0.0</ele><time>2026-03-29T09:51:09Z</time></trkpt><trkpt lat="44.58569250013093" lon="11.916205459654348"><ele>0.3333333333333333</ele><time>2026-03-29T09:51:10Z</time></trkpt><trkpt lat="44.58573329933006" lon="11.916451802976038"><ele>0.6666666666666666</ele><time>2026-03-29T09:51:11Z</time></trkpt><trkpt lat="44.58577475655973" lon="11.916689948678005"><ele>1.0</ele><time>2026-03-29T09:51:12Z</time></trkpt><trkpt lat="44.585817346520635" lon="11.916929416320794"><ele>1.3333333333333333</ele><time>2026-03-29T09:51:13Z</time></trkpt><trkpt lat="44.58585549226694" lon="11.917171915968842"><ele>1.6666666666666665</ele><time>2026-03-29T09:51:14Z</time></trkpt><trkpt lat="44.585896937672636" lon="11.917412369387856"><ele>2.0</ele><time>2026-03-29T09:51:15Z</time></trkpt><trkpt lat="44.58593781513012" lon="11.917654849888036"><ele>2.0</ele><time>2026-03-29T09:51:16Z</time></trkpt><trkpt lat="44.58598054181295" lon="11.9179001452651"><ele>2.0</ele><time>2026-03-29T09:51:17Z</time></trkpt><trkpt lat="44.58602063411941" lon="11.918146556478648"><ele>2.0</ele><time>2026-03-29T09:51:18Z</time></trkpt><trkpt lat="44.586058868857116" lon="11.918390193214025"><ele>2.333333333333333</ele><time>2026-03-29T09:51:19Z</time></trkpt><trkpt lat="44.5860944751885" lon="11.918635258512742"><ele>2.6666666666666665</ele><time>2026-03-29T09:51:20Z</time></trkpt><trkpt lat="44.58613312548606" lon="11.918878054467845"><ele>3.0</ele><time>2026-03-29T09:51:21Z</time></trkpt><trkpt lat="44.58617361745641" lon="11.91912000704795"><ele>1.6666666666666667</ele><time>2026-03-29T09:51:22Z</time></trkpt><trkpt lat="44.58621347882533" lon="11.919372530884985"><ele>0.33333333333333337</ele><time>2026-03-29T09:51:23Z</time></trkpt><trkpt lat="44.58625134808001" lon="11.919631201665545"><ele>-1.0</ele><time>2026-03-29T09:51:24Z</time></trkpt><trkpt lat="44.586295251553594" lon="11.919881235387514"><ele>-1.0</ele><time>2026-03-29T09:51:25Z</time></trkpt><trkpt lat="44.58632745171344" lon="11.920108192896782"><ele>-1.0</ele><time>2026-03-29T09:51:26Z</time></trkpt><trkpt lat="44.58635782896587" lon="11.92031903928514"><ele>-1.0</ele><time>2026-03-29T09:51:27Z</time></trkpt><trkpt lat="44.586390671530054" lon="11.920516468745772"><ele>-1.0</ele><time>2026-03-29T09:51:28Z</time></trkpt><trkpt lat="44.58642247569176" lon="11.920710199204917"><ele>-1.0</ele><time>2026-03-29T09:51:29Z</time></trkpt><trkpt lat="44.58645285994553" lon="11.920904061829864"><ele>-1.0</ele><time>2026-03-29T09:51:30Z</time></trkpt><trkpt lat="44.586484661410516" lon="11.921095096313964"><ele>-1.0</ele><time>2026-03-29T09:51:31Z</time></trkpt><trkpt lat="44.586513812424826" lon="11.92127118622797"><ele>-0.75</ele><time>2026-03-29T09:51:32Z</time></trkpt><trkpt lat="44.58654271153677" lon="11.92143699353998"><ele>-0.5</ele><time>2026-03-29T09:51:33Z</time></trkpt><trkpt lat="44.58657097613921" lon="11.921607261483445"><ele>-0.25</ele><time>2026-03-29T09:51:34Z</time></trkpt><trkpt lat="44.5865996317784" lon="11.921783761285097"><ele>0.0</ele><time>2026-03-29T09:51:35Z</time></trkpt><trkpt lat="44.586632780095265" lon="11.921973860851077"><ele>0.5</ele><time>2026-03-29T09:51:36Z</time></trkpt><trkpt lat="44.586665441023264" lon="11.922166916064738"><ele>1.0</ele><time>2026-03-29T09:51:37Z</time></trkpt><trkpt lat="44.5866998195138" lon="11.922367743187205"><ele>1.5</ele><time>2026-03-29T09:51:38Z</time></trkpt><trkpt lat="44.58673374073128" lon="11.922563962718115"><ele>2.0</ele><time>2026-03-29T09:51:39Z</time></trkpt><trkpt lat="44.586765099647636" lon="11.922761316063898"><ele>2.0</ele><time>2026-03-29T09:51:40Z</time></trkpt><trkpt lat="44.5867972006235" lon="11.922961997849873"><ele>2.0</ele><time>2026-03-29T09:51:41Z</time></trkpt><trkpt lat="44.58683274258591" lon="11.923161331861131"><ele>2.0</ele><time>2026-03-29T09:51:42Z</time></trkpt><trkpt lat="44.586865772678394" lon="11.923361664091061"><ele>2.0</ele><time>2026-03-29T09:51:43Z</time></trkpt><trkpt lat="44.5868983835026" lon="11.923562659543194"><ele>2.0</ele><time>2026-03-29T09:51:44Z</time></trkpt><trkpt lat="44.58693077263404" lon="11.923764093699855"><ele>2.0</ele><time>2026-03-29T09:51:45Z</time></trkpt><trkpt lat="44.58696720221574" lon="11.923966786248894"><ele>2.0</ele><time>2026-03-29T09:51:46Z</time></trkpt><trkpt lat="44.587002140408856" lon="11.924153373859973"><ele>2.0</ele><time>2026-03-29T09:51:47Z</time></trkpt><trkpt lat="44.58703922065342" lon="11.92435731830876"><ele>2.0</ele><time>2026-03-29T09:51:48Z</time></trkpt><trkpt lat="44.58707518514928" lon="11.924553199678497"><ele>2.0</ele><time>2026-03-29T09:51:49Z</time></trkpt><trkpt lat="44.5871084401005" lon="11.924747185496072"><ele>2.0</ele><time>2026-03-29T09:51:50Z</time></trkpt><trkpt lat="44.58714214436383" lon="11.924953103018725"><ele>2.0</ele><time>2026-03-29T09:51:51Z</time></trkpt><trkpt lat="44.58717705701443" lon="11.925155065084082"><ele>2.0</ele><time>2026-03-29T09:51:52Z</time></trkpt><trkpt lat="44.58721444602545" lon="11.925356873999325"><ele>2.0</ele><time>2026-03-29T09:51:53Z</time></trkpt><trkpt lat="44.587251426898305" lon="11.925560103749717"><ele>2.0</ele><time>2026-03-29T09:51:54Z</time></trkpt><trkpt lat="44.587291169697416" lon="11.925757890285333"><ele>2.0</ele><time>2026-03-29T09:51:55Z</time></trkpt><trkpt lat="44.58732802366635" lon="11.925958383786169"><ele>2.0</ele><time>2026-03-29T09:51:56Z</time></trkpt><trkpt lat="44.58736492353906" lon="11.926159895329182"><ele>2.0</ele><time>2026-03-29T09:51:57Z</time></trkpt><trkpt lat="44.58740299089892" lon="11.926355791355322"><ele>2.0</ele><time>2026-03-29T09:51:58Z</time></trkpt><trkpt lat="44.58744093635839" lon="11.926554037079654"><ele>2.0</ele><time>2026-03-29T09:51:59Z</time></trkpt><trkpt lat="44.58747469727236" lon="11.926743936070565"><ele>2.0</ele><time>2026-03-29T09:52:00Z</time></trkpt><trkpt lat="44.58751132132892" lon="11.926935958876621"><ele>2.0</ele><time>2026-03-29T09:52:01Z</time></trkpt><trkpt lat="44.58754610785227" lon="11.927119806601475"><ele>2.0</ele><time>2026-03-29T09:52:02Z</time></trkpt><trkpt lat="44.587581926830644" lon="11.927300603707268"><ele>2.0</ele><time>2026-03-29T09:52:03Z</time></trkpt><trkpt lat="44.587618237477756" lon="11.927485856753309"><ele>2.25</ele><time>2026-03-29T09:52:04Z</time></trkpt><trkpt lat="44.58765083516904" lon="11.92766673605337"><ele>2.5</ele><time>2026-03-29T09:52:05Z</time></trkpt><trkpt lat="44.58768964846498" lon="11.927846352390208"><ele>2.75</ele><time>2026-03-29T09:52:06Z</time></trkpt><trkpt lat="44.58772773462877" lon="11.928025182522378"><ele>3.0</ele><time>2026-03-29T09:52:07Z</time></trkpt><trkpt lat="44.587766196426344" lon="11.928199546225319"><ele>3.0</ele><time>2026-03-29T09:52:08Z</time></trkpt><trkpt lat="44.5877999477629" lon="11.928371946597233"><ele>3.0</ele><time>2026-03-29T09:52:09Z</time></trkpt><trkpt lat="44.587836999556366" lon="11.928529543488933"><ele>3.0</ele><time>2026-03-29T09:52:10Z</time></trkpt><trkpt lat="44.587869720075645" lon="11.928674456104595"><ele>3.0</ele><time>2026-03-29T09:52:11Z</time></trkpt><trkpt lat="44.58790576033093" lon="11.928821614198311"><ele>2.75</ele><time>2026-03-29T09:52:12Z</time></trkpt><trkpt lat="44.587939942879245" lon="11.92897800899441"><ele>2.5</ele><time>2026-03-29T09:52:13Z</time></trkpt><trkpt lat="44.58797260180212" lon="11.929135905034622"><ele>2.25</ele><time>2026-03-29T09:52:14Z</time></trkpt><trkpt lat="44.58800247483968" lon="11.929289388518837"><ele>2.0</ele><time>2026-03-29T09:52:15Z</time></trkpt><trkpt lat="44.588035989294674" lon="11.929453519636978"><ele>2.25</ele><time>2026-03-29T09:52:16Z</time></trkpt><trkpt lat="44.588073745775475" lon="11.929633884202376"><ele>2.5</ele><time>2026-03-29T09:52:17Z</time></trkpt><trkpt lat="44.58811234611431" lon="11.929827316084605"><ele>2.75</ele><time>2026-03-29T09:52:18Z</time></trkpt><trkpt lat="44.588150601624875" lon="11.93003251640202"><ele>3.0</ele><time>2026-03-29T09:52:19Z</time></trkpt><trkpt lat="44.588193645471094" lon="11.93023982101289"><ele>3.0</ele><time>2026-03-29T09:52:20Z</time></trkpt><trkpt lat="44.588232090371775" lon="11.930445447367122"><ele>3.0</ele><time>2026-03-29T09:52:21Z</time></trkpt><trkpt lat="44.58826370944612" lon="11.930650283196595"><ele>3.0</ele><time>2026-03-29T09:52:22Z</time></trkpt><trkpt lat="44.58829576463035" lon="11.930857285996776"><ele>3.0</ele><time>2026-03-29T09:52:23Z</time></trkpt><trkpt lat="44.58832023236558" lon="11.93106649946879"><ele>3.0</ele><time>2026-03-29T09:52:24Z</time></trkpt><trkpt lat="44.58834639175659" lon="11.931275079022006"><ele>3.0</ele><time>2026-03-29T09:52:25Z</time></trkpt><trkpt lat="44.58837612536995" lon="11.931480308676308"><ele>3.0</ele><time>2026-03-29T09:52:26Z</time></trkpt><trkpt lat="44.58840948635075" lon="11.931690447633517"><ele>3.0</ele><time>2026-03-29T09:52:27Z</time></trkpt><trkpt lat="44.58843799720242" lon="11.931904560646723"><ele>3.0</ele><time>2026-03-29T09:52:28Z</time></trkpt><trkpt lat="44.5884733934163" lon="11.932114234221931"><ele>3.0</ele><time>2026-03-29T09:52:29Z</time></trkpt><trkpt lat="44.588513647301994" lon="11.932326742980164"><ele>3.0</ele><time>2026-03-29T09:52:30Z</time></trkpt><trkpt lat="44.588554718669535" lon="11.932537335409412"><ele>3.0</ele><time>2026-03-29T09:52:31Z</time></trkpt><trkpt lat="44.58859433563173" lon="11.932756095761825"><ele>2.6666666666666665</ele><time>2026-03-29T09:52:32Z</time></trkpt><trkpt lat="44.58863207465821" lon="11.93297520569679"><ele>2.333333333333333</ele><time>2026-03-29T09:52:33Z</time></trkpt><trkpt lat="44.588667242040394" lon="11.933187086766932"><ele>2.0</ele><time>2026-03-29T09:52:34Z</time></trkpt><trkpt lat="44.58870218316058" lon="11.933406483198636"><ele>1.3333333333333333</ele><time>2026-03-29T09:52:35Z</time></trkpt><trkpt lat="44.588735407721025" lon="11.93361851621918"><ele>0.6666666666666666</ele><time>2026-03-29T09:52:36Z</time></trkpt><trkpt lat="44.58876558319547" lon="11.933823139998104"><ele>0.0</ele><time>2026-03-29T09:52:37Z</time></trkpt><trkpt lat="44.5887959696411" lon="11.934031804003618"><ele>0.0</ele><time>2026-03-29T09:52:38Z</time></trkpt><trkpt lat="44.58882781037477" lon="11.934252463676685"><ele>0.0</ele><time>2026-03-29T09:52:39Z</time></trkpt><trkpt lat="44.58886085429513" lon="11.934481309805896"><ele>0.0</ele><time>2026-03-29T09:52:40Z</time></trkpt><trkpt lat="44.58889166285604" lon="11.934715036709372"><ele>0.0</ele><time>2026-03-29T09:52:41Z</time></trkpt><trkpt lat="44.58892246673892" lon="11.934949768873855"><ele>0.0</ele><time>2026-03-29T09:52:42Z</time></trkpt><trkpt lat="44.58895657316211" lon="11.935186912882369"><ele>0.0</ele><time>2026-03-29T09:52:43Z</time></trkpt><trkpt lat="44.58898916217653" lon="11.935438548753051"><ele>0.3333333333333333</ele><time>2026-03-29T09:52:44Z</time></trkpt><trkpt lat="44.58902668262934" lon="11.935694169917282"><ele>0.6666666666666666</ele><time>2026-03-29T09:52:45Z</time></trkpt><trkpt lat="44.58906244647705" lon="11.935945467914847"><ele>1.0</ele><time>2026-03-29T09:52:46Z</time></trkpt><trkpt lat="44.58909926429961" lon="11.936199665100133"><ele>1.3333333333333333</ele><time>2026-03-29T09:52:47Z</time></trkpt><trkpt lat="44.589134817515934" lon="11.936444976504132"><ele>1.6666666666666665</ele><time>2026-03-29T09:52:48Z</time></trkpt><trkpt lat="44.589174399145556" lon="11.936696928795259"><ele>2.0</ele><time>2026-03-29T09:52:49Z</time></trkpt><trkpt lat="44.58921529444342" lon="11.93694419018813"><ele>2.333333333333333</ele><time>2026-03-29T09:52:50Z</time></trkpt><trkpt lat="44.58925973561793" lon="11.93719036362647"><ele>2.6666666666666665</ele><time>2026-03-29T09:52:51Z</time></trkpt><trkpt lat="44.58930630831403" lon="11.937436361662671"><ele>3.0</ele><time>2026-03-29T09:52:52Z</time></trkpt><trkpt lat="44.58935827933223" lon="11.937673442812015"><ele>3.333333333333333</ele><time>2026-03-29T09:52:53Z</time></trkpt><trkpt lat="44.58941008069568" lon="11.937911150613965"><ele>3.6666666666666665</ele><time>2026-03-29T09:52:54Z</time></trkpt><trkpt lat="44.58945491116772" lon="11.93814649088262"><ele>4.0</ele><time>2026-03-29T09:52:55Z</time></trkpt><trkpt lat="44.589503370637644" lon="11.938381578425448"><ele>2.333333333333333</ele><time>2026-03-29T09:52:56Z</time></trkpt><trkpt lat="44.58954912020753" lon="11.93861686264433"><ele>0.6666666666666666</ele><time>2026-03-29T09:52:57Z</time></trkpt><trkpt lat="44.58959576393082" lon="11.938851806503859"><ele>-1.0</ele><time>2026-03-29T09:52:58Z</time></trkpt><trkpt lat="44.58964616811877" lon="11.939089043084536"><ele>-1.0</ele><time>2026-03-29T09:52:59Z</time></trkpt><trkpt lat="44.589690002342756" lon="11.93933510116888"><ele>-1.0</ele><time>2026-03-29T09:53:00Z</time></trkpt><trkpt lat="44.589745653397266" lon="11.939577221591875"><ele>-1.0</ele><time>2026-03-29T09:53:01Z</time></trkpt><trkpt lat="44.58979356412756" lon="11.9398307384159"><ele>-0.3333333333333333</ele><time>2026-03-29T09:53:02Z</time></trkpt><trkpt lat="44.58983632580179" lon="11.940078889388655"><ele>0.3333333333333333</ele><time>2026-03-29T09:53:03Z</time></trkpt><trkpt lat="44.58988370932108" lon="11.940330554119456"><ele>1.0</ele><time>2026-03-29T09:53:04Z</time></trkpt><trkpt lat="44.589931719896214" lon="11.940583099474491"><ele>1.0</ele><time>2026-03-29T09:53:05Z</time></trkpt><trkpt lat="44.589973242674276" lon="11.94083331155033"><ele>1.0</ele><time>2026-03-29T09:53:06Z</time></trkpt><trkpt lat="44.59001960131277" lon="11.941092467483415"><ele>1.0</ele><time>2026-03-29T09:53:07Z</time></trkpt><trkpt lat="44.590063163046835" lon="11.941349062339127"><ele>1.3333333333333333</ele><time>2026-03-29T09:53:08Z</time></trkpt><trkpt lat="44.59010998845771" lon="11.941604327585662"><ele>1.6666666666666665</ele><time>2026-03-29T09:53:09Z</time></trkpt><trkpt lat="44.59015464123873" lon="11.941862295641267"><ele>2.0</ele><time>2026-03-29T09:53:10Z</time></trkpt><trkpt lat="44.59019908205382" lon="11.942121576137849"><ele>2.333333333333333</ele><time>2026-03-29T09:53:11Z</time></trkpt><trkpt lat="44.59024299679617" lon="11.942382106304708"><ele>2.6666666666666665</ele><time>2026-03-29T09:53:12Z</time></trkpt><trkpt lat="44.59028821440755" lon="11.942638934260028"><ele>3.0</ele><time>2026-03-29T09:53:13Z</time></trkpt><trkpt lat="44.5903262176054" lon="11.94289315500992"><ele>2.3333333333333335</ele><time>2026-03-29T09:53:14Z</time></trkpt><trkpt lat="44.59036862434799" lon="11.943147661500891"><ele>1.6666666666666665</ele><time>2026-03-29T09:53:15Z</time></trkpt><trkpt lat="44.5904137161592" lon="11.943400956879096"><ele>1.0</ele><time>2026-03-29T09:53:16Z</time></trkpt><trkpt lat="44.59045813834927" lon="11.943653544301792"><ele>0.6666666666666666</ele><time>2026-03-29T09:53:17Z</time></trkpt><trkpt lat="44.590505950620425" lon="11.943903731734459"><ele>0.3333333333333333</ele><time>2026-03-29T09:53:18Z</time></trkpt><trkpt lat="44.59055205735835" lon="11.944152099859817"><ele>0.0</ele><time>2026-03-29T09:53:19Z</time></trkpt><trkpt lat="44.59060050023916" lon="11.944406009863744"><ele>0.0</ele><time>2026-03-29T09:53:20Z</time></trkpt><trkpt lat="44.5906449647356" lon="11.944652043728643"><ele>0.0</ele><time>2026-03-29T09:53:21Z</time></trkpt><trkpt lat="44.59068826268091" lon="11.944904226502759"><ele>0.0</ele><time>2026-03-29T09:53:22Z</time></trkpt><trkpt lat="44.59073057372777" lon="11.945149049227778"><ele>0.0</ele><time>2026-03-29T09:53:23Z</time></trkpt><trkpt lat="44.59077215015745" lon="11.945400733110409"><ele>0.0</ele><time>2026-03-29T09:53:24Z</time></trkpt><trkpt lat="44.59080642008098" lon="11.945650261903745"><ele>0.0</ele><time>2026-03-29T09:53:25Z</time></trkpt><trkpt lat="44.59083955002307" lon="11.945902836150925"><ele>0.0</ele><time>2026-03-29T09:53:26Z</time></trkpt><trkpt lat="44.59087181849012" lon="11.946153977318183"><ele>0.0</ele><time>2026-03-29T09:53:27Z</time></trkpt><trkpt lat="44.59090559843833" lon="11.94640807584481"><ele>0.0</ele><time>2026-03-29T09:53:28Z</time></trkpt><trkpt lat="44.590938491220086" lon="11.946656221787249"><ele>0.6666666666666666</ele><time>2026-03-29T09:53:29Z</time></trkpt><trkpt lat="44.59097964158595" lon="11.946911152140636"><ele>1.3333333333333333</ele><time>2026-03-29T09:53:30Z</time></trkpt><trkpt lat="44.59101388755034" lon="11.947166513480951"><ele>2.0</ele><time>2026-03-29T09:53:31Z</time></trkpt><trkpt lat="44.591057555435526" lon="11.94741865310633"><ele>2.333333333333333</ele><time>2026-03-29T09:53:32Z</time></trkpt><trkpt lat="44.591100221563714" lon="11.947675609855406"><ele>2.6666666666666665</ele><time>2026-03-29T09:53:33Z</time></trkpt><trkpt lat="44.591146835675744" lon="11.9479263530304"><ele>3.0</ele><time>2026-03-29T09:53:34Z</time></trkpt><trkpt lat="44.59118929339785" lon="11.948181530310489"><ele>2.3333333333333335</ele><time>2026-03-29T09:53:35Z</time></trkpt><trkpt lat="44.59123487612616" lon="11.948432212719338"><ele>1.6666666666666665</ele><time>2026-03-29T09:53:36Z</time></trkpt><trkpt lat="44.59128095608258" lon="11.948677730922151"><ele>1.0</ele><time>2026-03-29T09:53:37Z</time></trkpt><trkpt lat="44.59132481875366" lon="11.948922187986138"><ele>1.0</ele><time>2026-03-29T09:53:38Z</time></trkpt><trkpt lat="44.59140234289143" lon="11.949389059193456"><ele>1.0</ele><time>2026-03-29T09:53:40Z</time></trkpt><trkpt lat="44.59144551897889" lon="11.949611691293693"><ele>1.0</ele><time>2026-03-29T09:53:41Z</time></trkpt><trkpt lat="44.59148633941708" lon="11.949834922222044"><ele>1.0</ele><time>2026-03-29T09:53:42Z</time></trkpt><trkpt lat="44.59152290383943" lon="11.95006112228516"><ele>1.0</ele><time>2026-03-29T09:53:43Z</time></trkpt><trkpt lat="44.59156287861763" lon="11.950285941215265"><ele>1.3333333333333333</ele><time>2026-03-29T09:53:44Z</time></trkpt><trkpt lat="44.59160286064" lon="11.950507282770031"><ele>1.6666666666666665</ele><time>2026-03-29T09:53:45Z</time></trkpt><trkpt lat="44.59164336416927" lon="11.950732793397545"><ele>2.0</ele><time>2026-03-29T09:53:46Z</time></trkpt><trkpt lat="44.591686046636305" lon="11.950951908004496"><ele>2.333333333333333</ele><time>2026-03-29T09:53:47Z</time></trkpt><trkpt lat="44.591728651639976" lon="11.951171559016977"><ele>2.6666666666666665</ele><time>2026-03-29T09:53:48Z</time></trkpt><trkpt lat="44.59177417274368" lon="11.951390485332297"><ele>3.0</ele><time>2026-03-29T09:53:49Z</time></trkpt><trkpt lat="44.591819910677245" lon="11.9516071979556"><ele>3.0</ele><time>2026-03-29T09:53:50Z</time></trkpt><trkpt lat="44.59186701229044" lon="11.95182161908978"><ele>3.0</ele><time>2026-03-29T09:53:51Z</time></trkpt><trkpt lat="44.59191285885254" lon="11.952038778965779"><ele>3.0</ele><time>2026-03-29T09:53:52Z</time></trkpt><trkpt lat="44.59195717481793" lon="11.952256257528289"><ele>3.0</ele><time>2026-03-29T09:53:53Z</time></trkpt><trkpt lat="44.591997366288496" lon="11.952476768964747"><ele>3.0</ele><time>2026-03-29T09:53:54Z</time></trkpt><trkpt lat="44.59202556320059" lon="11.952691214817603"><ele>3.0</ele><time>2026-03-29T09:53:55Z</time></trkpt><trkpt lat="44.59207089352195" lon="11.95291239285046"><ele>3.0</ele><time>2026-03-29T09:53:56Z</time></trkpt><trkpt lat="44.59213017876681" lon="11.953127618833586"><ele>3.0</ele><time>2026-03-29T09:53:57Z</time></trkpt><trkpt lat="44.592178608099864" lon="11.953341472005732"><ele>3.0</ele><time>2026-03-29T09:53:58Z</time></trkpt><trkpt lat="44.592223515028365" lon="11.953554717820815"><ele>3.0</ele><time>2026-03-29T09:53:59Z</time></trkpt><trkpt lat="44.59226140924533" lon="11.953760077189159"><ele>3.0</ele><time>2026-03-29T09:54:00Z</time></trkpt><trkpt lat="44.592300463222195" lon="11.953953635491764"><ele>3.0</ele><time>2026-03-29T09:54:01Z</time></trkpt><trkpt lat="44.5923357822225" lon="11.954134765932158"><ele>3.0</ele><time>2026-03-29T09:54:02Z</time></trkpt><trkpt lat="44.592375378894786" lon="11.954321262185488"><ele>3.25</ele><time>2026-03-29T09:54:03Z</time></trkpt><trkpt lat="44.59241714234815" lon="11.95451355541034"><ele>3.5</ele><time>2026-03-29T09:54:04Z</time></trkpt><trkpt lat="44.5924600010282" lon="11.954715052868142"><ele>3.75</ele><time>2026-03-29T09:54:05Z</time></trkpt><trkpt lat="44.59249926506897" lon="11.95492535490384"><ele>4.0</ele><time>2026-03-29T09:54:06Z</time></trkpt><trkpt lat="44.592532440547465" lon="11.95514172185685"><ele>3.0</ele><time>2026-03-29T09:54:07Z</time></trkpt><trkpt lat="44.59256649952739" lon="11.955376053713247"><ele>2.0</ele><time>2026-03-29T09:54:08Z</time></trkpt><trkpt lat="44.5925927923831" lon="11.955631980982291"><ele>1.0</ele><time>2026-03-29T09:54:09Z</time></trkpt><trkpt lat="44.59261534692214" lon="11.95587921364106"><ele>1.0</ele><time>2026-03-29T09:54:10Z</time></trkpt><trkpt lat="44.59264358372177" lon="11.956108443543515"><ele>1.0</ele><time>2026-03-29T09:54:11Z</time></trkpt><trkpt lat="44.59267864312724" lon="11.95634557203481"><ele>1.0</ele><time>2026-03-29T09:54:12Z</time></trkpt><trkpt lat="44.59271977740555" lon="11.9565915047192"><ele>1.0</ele><time>2026-03-29T09:54:13Z</time></trkpt><trkpt lat="44.59276726768333" lon="11.95683985884351"><ele>1.0</ele><time>2026-03-29T09:54:14Z</time></trkpt><trkpt lat="44.592824517411586" lon="11.957085758610077"><ele>1.0</ele><time>2026-03-29T09:54:15Z</time></trkpt><trkpt lat="44.592876645551854" lon="11.95733584125779"><ele>0.6666666666666666</ele><time>2026-03-29T09:54:16Z</time></trkpt><trkpt lat="44.59292988604347" lon="11.9575839419009"><ele>0.3333333333333333</ele><time>2026-03-29T09:54:17Z</time></trkpt><trkpt lat="44.59298385655786" lon="11.957831708418727"><ele>0.0</ele><time>2026-03-29T09:54:18Z</time></trkpt><trkpt lat="44.5930342843415" lon="11.958076253593731"><ele>0.0</ele><time>2026-03-29T09:54:19Z</time></trkpt><trkpt lat="44.593080928670354" lon="11.958330131151536"><ele>0.0</ele><time>2026-03-29T09:54:20Z</time></trkpt><trkpt lat="44.59312000799719" lon="11.95857829820987"><ele>0.0</ele><time>2026-03-29T09:54:21Z</time></trkpt><trkpt lat="44.59315287948507" lon="11.958832261853305"><ele>-0.3333333333333333</ele><time>2026-03-29T09:54:22Z</time></trkpt><trkpt lat="44.59318610576731" lon="11.959087321254218"><ele>-0.6666666666666666</ele><time>2026-03-29T09:54:23Z</time></trkpt><trkpt lat="44.593217879107414" lon="11.959335690459557"><ele>-1.0</ele><time>2026-03-29T09:54:24Z</time></trkpt><trkpt lat="44.593250573123" lon="11.959585725159675"><ele>-1.0</ele><time>2026-03-29T09:54:25Z</time></trkpt><trkpt lat="44.59328957813099" lon="11.959828248487224"><ele>-1.0</ele><time>2026-03-29T09:54:26Z</time></trkpt><trkpt lat="44.59333382916954" lon="11.960067781561875"><ele>-1.0</ele><time>2026-03-29T09:54:27Z</time></trkpt><trkpt lat="44.5933848589277" lon="11.960313141577975"><ele>-0.6666666666666666</ele><time>2026-03-29T09:54:28Z</time></trkpt><trkpt lat="44.59343965369246" lon="11.960564872988561"><ele>-0.3333333333333333</ele><time>2026-03-29T09:54:29Z</time></trkpt><trkpt lat="44.59351123208362" lon="11.960820206779543"><ele>0.0</ele><time>2026-03-29T09:54:30Z</time></trkpt><trkpt lat="44.593591341078586" lon="11.96107862451457"><ele>0.3333333333333333</ele><time>2026-03-29T09:54:31Z</time></trkpt><trkpt lat="44.59367796264119" lon="11.961335177903742"><ele>0.6666666666666666</ele><time>2026-03-29T09:54:32Z</time></trkpt><trkpt lat="44.59376689260727" lon="11.961592321116827"><ele>1.0</ele><time>2026-03-29T09:54:33Z</time></trkpt><trkpt lat="44.59384474129016" lon="11.961840335106356"><ele>1.0</ele><time>2026-03-29T09:54:34Z</time></trkpt><trkpt lat="44.59390694414219" lon="11.96211346298912"><ele>1.0</ele><time>2026-03-29T09:54:35Z</time></trkpt><trkpt lat="44.593960935812106" lon="11.962383636809461"><ele>1.0</ele><time>2026-03-29T09:54:36Z</time></trkpt><trkpt lat="44.59401154069034" lon="11.962671605257336"><ele>0.0</ele><time>2026-03-29T09:54:37Z</time></trkpt><trkpt lat="44.59406173264293" lon="11.962986210462761"><ele>-1.0</ele><time>2026-03-29T09:54:38Z</time></trkpt><trkpt lat="44.594114401046625" lon="11.96333258354443"><ele>0.0</ele><time>2026-03-29T09:54:39Z</time></trkpt><trkpt lat="44.594159677910476" lon="11.96369215145305"><ele>1.0</ele><time>2026-03-29T09:54:40Z</time></trkpt><trkpt lat="44.59419801624705" lon="11.964029358661818"><ele>1.3333333333333333</ele><time>2026-03-29T09:54:41Z</time></trkpt><trkpt lat="44.594239070485465" lon="11.964336801008947"><ele>1.6666666666666665</ele><time>2026-03-29T09:54:42Z</time></trkpt><trkpt lat="44.59427973271414" lon="11.964631073303655"><ele>2.0</ele><time>2026-03-29T09:54:43Z</time></trkpt><trkpt lat="44.59432692074212" lon="11.964925623099537"><ele>1.6666666666666665</ele><time>2026-03-29T09:54:44Z</time></trkpt><trkpt lat="44.594370667926185" lon="11.965215094071645"><ele>1.3333333333333333</ele><time>2026-03-29T09:54:45Z</time></trkpt><trkpt lat="44.59441534663671" lon="11.965493685226322"><ele>1.0</ele><time>2026-03-29T09:54:46Z</time></trkpt><trkpt lat="44.59445510225485" lon="11.965757683207482"><ele>1.3333333333333333</ele><time>2026-03-29T09:54:47Z</time></trkpt><trkpt lat="44.59449280293285" lon="11.966020918929141"><ele>1.6666666666666665</ele><time>2026-03-29T09:54:48Z</time></trkpt><trkpt lat="44.59453277709374" lon="11.966283723691637"><ele>2.0</ele><time>2026-03-29T09:54:49Z</time></trkpt><trkpt lat="44.59457275136252" lon="11.966548234586963"><ele>1.3333333333333333</ele><time>2026-03-29T09:54:50Z</time></trkpt><trkpt lat="44.59461502070639" lon="11.966820898896293"><ele>0.6666666666666666</ele><time>2026-03-29T09:54:51Z</time></trkpt><trkpt lat="44.59465540538042" lon="11.967080587762325"><ele>0.0</ele><time>2026-03-29T09:54:52Z</time></trkpt><trkpt lat="44.59469129279057" lon="11.967343157709447"><ele>0.3333333333333333</ele><time>2026-03-29T09:54:53Z</time></trkpt><trkpt lat="44.594721999165245" lon="11.967600801907219"><ele>0.6666666666666666</ele><time>2026-03-29T09:54:54Z</time></trkpt><trkpt lat="44.59476297293262" lon="11.96789305248261"><ele>1.0</ele><time>2026-03-29T09:54:55Z</time></trkpt><trkpt lat="44.59479979770463" lon="11.968163702520847"><ele>1.0</ele><time>2026-03-29T09:54:56Z</time></trkpt><trkpt lat="44.594832386487845" lon="11.968437859641192"><ele>1.0</ele><time>2026-03-29T09:54:57Z</time></trkpt><trkpt lat="44.59486854363259" lon="11.968696483069097"><ele>1.0</ele><time>2026-03-29T09:54:58Z</time></trkpt><trkpt lat="44.59491262522441" lon="11.968960982197018"><ele>1.3333333333333333</ele><time>2026-03-29T09:54:59Z</time></trkpt><trkpt lat="44.5949468883174" lon="11.969227329267554"><ele>1.6666666666666665</ele><time>2026-03-29T09:55:00Z</time></trkpt><trkpt lat="44.594980287980775" lon="11.969498386984156"><ele>2.0</ele><time>2026-03-29T09:55:01Z</time></trkpt><trkpt lat="44.59502640539707" lon="11.969769975471792"><ele>1.6666666666666665</ele><time>2026-03-29T09:55:02Z</time></trkpt><trkpt lat="44.59506868374496" lon="11.970041870786114"><ele>1.3333333333333333</ele><time>2026-03-29T09:55:03Z</time></trkpt><trkpt lat="44.59511117847337" lon="11.970310429953134"><ele>1.0</ele><time>2026-03-29T09:55:04Z</time></trkpt><trkpt lat="44.59515197653108" lon="11.970582250405355"><ele>1.0</ele><time>2026-03-29T09:55:05Z</time></trkpt><trkpt lat="44.595191522672415" lon="11.970853168728446"><ele>1.0</ele><time>2026-03-29T09:55:06Z</time></trkpt><trkpt lat="44.59522768779386" lon="11.97111772495838"><ele>1.0</ele><time>2026-03-29T09:55:07Z</time></trkpt><trkpt lat="44.59526233610183" lon="11.97139160415623"><ele>1.0</ele><time>2026-03-29T09:55:08Z</time></trkpt><trkpt lat="44.59530109493398" lon="11.9716620716988"><ele>1.0</ele><time>2026-03-29T09:55:09Z</time></trkpt><trkpt lat="44.59533956390713" lon="11.971931522160501"><ele>1.0</ele><time>2026-03-29T09:55:10Z</time></trkpt><trkpt lat="44.595376284376385" lon="11.972202159410868"><ele>0.3333333333333333</ele><time>2026-03-29T09:55:11Z</time></trkpt><trkpt lat="44.595413888735706" lon="11.972466491483509"><ele>-0.3333333333333333</ele><time>2026-03-29T09:55:12Z</time></trkpt><trkpt lat="44.595456697823984" lon="11.972740611896652"><ele>-1.0</ele><time>2026-03-29T09:55:13Z</time></trkpt><trkpt lat="44.595495970979485" lon="11.9730009786681"><ele>-1.0</ele><time>2026-03-29T09:55:14Z</time></trkpt><trkpt lat="44.59553567924624" lon="11.973260610178887"><ele>-1.0</ele><time>2026-03-29T09:55:15Z</time></trkpt><trkpt lat="44.59557721005738" lon="11.973520227529383"><ele>-1.0</ele><time>2026-03-29T09:55:16Z</time></trkpt><trkpt lat="44.595622959420325" lon="11.973777963271841"><ele>-1.0</ele><time>2026-03-29T09:55:17Z</time></trkpt><trkpt lat="44.59567268671163" lon="11.97403571006761"><ele>-1.0</ele><time>2026-03-29T09:55:18Z</time></trkpt><trkpt lat="44.59571972637404" lon="11.97429123243156"><ele>-1.0</ele><time>2026-03-29T09:55:19Z</time></trkpt><trkpt lat="44.595765202269234" lon="11.974544621644874"><ele>-0.6666666666666666</ele><time>2026-03-29T09:55:20Z</time></trkpt><trkpt lat="44.595810733940475" lon="11.974795317820792"><ele>-0.3333333333333333</ele><time>2026-03-29T09:55:21Z</time></trkpt><trkpt lat="44.59584600547459" lon="11.975049911404625"><ele>0.0</ele><time>2026-03-29T09:55:22Z</time></trkpt><trkpt lat="44.59586396996705" lon="11.975305947995246"><ele>0.0</ele><time>2026-03-29T09:55:23Z</time></trkpt><trkpt lat="44.59585801333703" lon="11.975561645727616"><ele>0.0</ele><time>2026-03-29T09:55:24Z</time></trkpt><trkpt lat="44.595827911090126" lon="11.975816669021368"><ele>0.0</ele><time>2026-03-29T09:55:25Z</time></trkpt><trkpt lat="44.59579733514273" lon="11.976064879468272"><ele>-0.3333333333333333</ele><time>2026-03-29T09:55:26Z</time></trkpt><trkpt lat="44.59577925977348" lon="11.976312808462968"><ele>-0.6666666666666666</ele><time>2026-03-29T09:55:27Z</time></trkpt><trkpt lat="44.5957708095603" lon="11.976561141417397"><ele>-1.0</ele><time>2026-03-29T09:55:28Z</time></trkpt><trkpt lat="44.59577847443339" lon="11.976810747075476"><ele>-0.3333333333333333</ele><time>2026-03-29T09:55:29Z</time></trkpt><trkpt lat="44.59580236241229" lon="11.977062691317135"><ele>0.3333333333333333</ele><time>2026-03-29T09:55:30Z</time></trkpt><trkpt lat="44.595832596009394" lon="11.977317563988729"><ele>1.0</ele><time>2026-03-29T09:55:31Z</time></trkpt><trkpt lat="44.59585992400591" lon="11.977584030474967"><ele>1.0</ele><time>2026-03-29T09:55:32Z</time></trkpt><trkpt lat="44.59588423841877" lon="11.977848759309317"><ele>1.0</ele><time>2026-03-29T09:55:33Z</time></trkpt><trkpt lat="44.59591465198463" lon="11.978114423028094"><ele>1.0</ele><time>2026-03-29T09:55:34Z</time></trkpt><trkpt lat="44.59594180110075" lon="11.978382977035492"><ele>1.3333333333333333</ele><time>2026-03-29T09:55:35Z</time></trkpt><trkpt lat="44.59597342394694" lon="11.978649645532053"><ele>1.6666666666666665</ele><time>2026-03-29T09:55:36Z</time></trkpt><trkpt lat="44.59600385631745" lon="11.97891678130229"><ele>2.0</ele><time>2026-03-29T09:55:37Z</time></trkpt><trkpt lat="44.59604554841974" lon="11.97917958341509"><ele>2.333333333333333</ele><time>2026-03-29T09:55:38Z</time></trkpt><trkpt lat="44.59607634914443" lon="11.97944836471518"><ele>2.6666666666666665</ele><time>2026-03-29T09:55:39Z</time></trkpt><trkpt lat="44.59610830710441" lon="11.979722308754708"><ele>3.0</ele><time>2026-03-29T09:55:40Z</time></trkpt><trkpt lat="44.596139636105995" lon="11.979983942576297"><ele>3.0</ele><time>2026-03-29T09:55:41Z</time></trkpt><trkpt lat="44.59616817096131" lon="11.980251088920367"><ele>3.0</ele><time>2026-03-29T09:55:42Z</time></trkpt><trkpt lat="44.596195751785864" lon="11.980524347912018"><ele>3.0</ele><time>2026-03-29T09:55:43Z</time></trkpt><trkpt lat="44.596229198445606" lon="11.980798283849698"><ele>2.3333333333333335</ele><time>2026-03-29T09:55:44Z</time></trkpt><trkpt lat="44.59626508557057" lon="11.981066404948482"><ele>1.6666666666666665</ele><time>2026-03-29T09:55:45Z</time></trkpt><trkpt lat="44.59630216406237" lon="11.981339119864964"><ele>1.0</ele><time>2026-03-29T09:55:46Z</time></trkpt><trkpt lat="44.59634545642416" lon="11.981606437260762"><ele>0.6666666666666666</ele><time>2026-03-29T09:55:47Z</time></trkpt><trkpt lat="44.59638705902982" lon="11.98187468089428"><ele>0.3333333333333333</ele><time>2026-03-29T09:55:48Z</time></trkpt><trkpt lat="44.59643702149751" lon="11.982143543693788"><ele>0.0</ele><time>2026-03-29T09:55:49Z</time></trkpt><trkpt lat="44.596486291263034" lon="11.982409172571407"><ele>0.3333333333333333</ele><time>2026-03-29T09:55:50Z</time></trkpt><trkpt lat="44.59653218827986" lon="11.98268169838655"><ele>0.6666666666666666</ele><time>2026-03-29T09:55:51Z</time></trkpt><trkpt lat="44.59657840249203" lon="11.982959494145957"><ele>1.0</ele><time>2026-03-29T09:55:52Z</time></trkpt><trkpt lat="44.59661247750733" lon="11.983234105519342"><ele>1.3333333333333333</ele><time>2026-03-29T09:55:53Z</time></trkpt><trkpt lat="44.5966431553248" lon="11.983507833188453"><ele>1.6666666666666665</ele><time>2026-03-29T09:55:54Z</time></trkpt><trkpt lat="44.59668302320935" lon="11.98377813141364"><ele>2.0</ele><time>2026-03-29T09:55:55Z</time></trkpt><trkpt lat="44.59672807994681" lon="11.984051301650604"><ele>2.0</ele><time>2026-03-29T09:55:56Z</time></trkpt><trkpt lat="44.596774034389284" lon="11.984326112069693"><ele>2.0</ele><time>2026-03-29T09:55:57Z</time></trkpt><trkpt lat="44.59682311356062" lon="11.984593149177252"><ele>2.0</ele><time>2026-03-29T09:55:58Z</time></trkpt><trkpt lat="44.59687449748595" lon="11.984862661980168"><ele>2.0</ele><time>2026-03-29T09:55:59Z</time></trkpt><trkpt lat="44.596928753589985" lon="11.985133225261018"><ele>2.0</ele><time>2026-03-29T09:56:00Z</time></trkpt><trkpt lat="44.59698782846324" lon="11.985403808549131"><ele>2.0</ele><time>2026-03-29T09:56:01Z</time></trkpt><trkpt lat="44.59705390449865" lon="11.985677368411928"><ele>1.0</ele><time>2026-03-29T09:56:02Z</time></trkpt><trkpt lat="44.59712023722793" lon="11.985942876456166"><ele>0.0</ele><time>2026-03-29T09:56:03Z</time></trkpt><trkpt lat="44.59718916538021" lon="11.986208527468863"><ele>-1.0</ele><time>2026-03-29T09:56:04Z</time></trkpt><trkpt lat="44.597258485130546" lon="11.986478334268432"><ele>-0.3333333333333333</ele><time>2026-03-29T09:56:05Z</time></trkpt><trkpt lat="44.59732547405568" lon="11.98674639116584"><ele>0.3333333333333333</ele><time>2026-03-29T09:56:06Z</time></trkpt><trkpt lat="44.59739213650611" lon="11.987017293316475"><ele>1.0</ele><time>2026-03-29T09:56:07Z</time></trkpt><trkpt lat="44.59745669208498" lon="11.98728938290251"><ele>1.6666666666666665</ele><time>2026-03-29T09:56:08Z</time></trkpt><trkpt lat="44.597521291639076" lon="11.987558836742174"><ele>2.3333333333333335</ele><time>2026-03-29T09:56:09Z</time></trkpt><trkpt lat="44.59758735408041" lon="11.987825686036693"><ele>3.0</ele><time>2026-03-29T09:56:10Z</time></trkpt><trkpt lat="44.59765097443294" lon="11.988093112523176"><ele>2.6666666666666665</ele><time>2026-03-29T09:56:11Z</time></trkpt><trkpt lat="44.59771661318306" lon="11.98836614832611"><ele>2.333333333333333</ele><time>2026-03-29T09:56:12Z</time></trkpt><trkpt lat="44.597778902176124" lon="11.988634477109537"><ele>2.0</ele><time>2026-03-29T09:56:13Z</time></trkpt><trkpt lat="44.597842669054636" lon="11.988902439370099"><ele>1.0</ele><time>2026-03-29T09:56:14Z</time></trkpt><trkpt lat="44.59790520174114" lon="11.989168366681877"><ele>0.0</ele><time>2026-03-29T09:56:15Z</time></trkpt><trkpt lat="44.597965274410534" lon="11.989431885609592"><ele>-1.0</ele><time>2026-03-29T09:56:16Z</time></trkpt><trkpt lat="44.598027325573504" lon="11.989699227482337"><ele>-1.0</ele><time>2026-03-29T09:56:17Z</time></trkpt><trkpt lat="44.598091138672956" lon="11.989964683865937"><ele>-1.0</ele><time>2026-03-29T09:56:18Z</time></trkpt><trkpt lat="44.59815168530139" lon="11.990228380443968"><ele>-1.0</ele><time>2026-03-29T09:56:19Z</time></trkpt><trkpt lat="44.59821377976099" lon="11.990491198016514"><ele>-0.6666666666666666</ele><time>2026-03-29T09:56:20Z</time></trkpt><trkpt lat="44.59827396057194" lon="11.990750260238656"><ele>-0.3333333333333333</ele><time>2026-03-29T09:56:21Z</time></trkpt><trkpt lat="44.598332163207694" lon="11.991011731496704"><ele>0.0</ele><time>2026-03-29T09:56:22Z</time></trkpt><trkpt lat="44.59838175633683" lon="11.991281088119578"><ele>0.3333333333333333</ele><time>2026-03-29T09:56:23Z</time></trkpt><trkpt lat="44.5984218630573" lon="11.991541724948462"><ele>0.6666666666666666</ele><time>2026-03-29T09:56:24Z</time></trkpt><trkpt lat="44.598456337162006" lon="11.991813715629227"><ele>1.0</ele><time>2026-03-29T09:56:25Z</time></trkpt><trkpt lat="44.59848866391659" lon="11.992085713693989"><ele>1.0</ele><time>2026-03-29T09:56:26Z</time></trkpt><trkpt lat="44.598524854322136" lon="11.992345012265538"><ele>1.0</ele><time>2026-03-29T09:56:27Z</time></trkpt><trkpt lat="44.59855536990572" lon="11.992611586295041"><ele>1.0</ele><time>2026-03-29T09:56:28Z</time></trkpt><trkpt lat="44.59860827389317" lon="11.992871217401868"><ele>0.6666666666666666</ele><time>2026-03-29T09:56:29Z</time></trkpt><trkpt lat="44.59866393729418" lon="11.993127596064378"><ele>0.3333333333333333</ele><time>2026-03-29T09:56:30Z</time></trkpt><trkpt lat="44.59872697312833" lon="11.993367473728744"><ele>0.0</ele><time>2026-03-29T09:56:31Z</time></trkpt><trkpt lat="44.59879730413094" lon="11.99360140679523"><ele>0.0</ele><time>2026-03-29T09:56:32Z</time></trkpt><trkpt lat="44.59885952302066" lon="11.993824878853196"><ele>0.0</ele><time>2026-03-29T09:56:33Z</time></trkpt><trkpt lat="44.59892372266157" lon="11.99402926662165"><ele>0.0</ele><time>2026-03-29T09:56:34Z</time></trkpt><trkpt lat="44.59900020568051" lon="11.994233503446576"><ele>0.3333333333333333</ele><time>2026-03-29T09:56:35Z</time></trkpt><trkpt lat="44.59908870351753" lon="11.994434070499432"><ele>0.6666666666666666</ele><time>2026-03-29T09:56:36Z</time></trkpt><trkpt lat="44.59917500350173" lon="11.994627343025222"><ele>1.0</ele><time>2026-03-29T09:56:37Z</time></trkpt><trkpt lat="44.59925029161773" lon="11.994835266900674"><ele>1.3333333333333333</ele><time>2026-03-29T09:56:38Z</time></trkpt><trkpt lat="44.599316721900934" lon="11.99507107234671"><ele>1.6666666666666665</ele><time>2026-03-29T09:56:39Z</time></trkpt><trkpt lat="44.599363610760044" lon="11.995322503193949"><ele>2.0</ele><time>2026-03-29T09:56:40Z</time></trkpt><trkpt lat="44.59940114450676" lon="11.995567652340767"><ele>2.0</ele><time>2026-03-29T09:56:41Z</time></trkpt><trkpt lat="44.59943960151906" lon="11.995805023165069"><ele>2.0</ele><time>2026-03-29T09:56:42Z</time></trkpt><trkpt lat="44.599485140712865" lon="11.99604420165602"><ele>2.0</ele><time>2026-03-29T09:56:43Z</time></trkpt><trkpt lat="44.59953214460802" lon="11.996288096467987"><ele>1.6666666666666665</ele><time>2026-03-29T09:56:44Z</time></trkpt><trkpt lat="44.59957861337167" lon="11.996542227659136"><ele>1.3333333333333333</ele><time>2026-03-29T09:56:45Z</time></trkpt><trkpt lat="44.59963044094698" lon="11.996806485005852"><ele>1.0</ele><time>2026-03-29T09:56:46Z</time></trkpt><trkpt lat="44.59967618172088" lon="11.997071102640865"><ele>1.0</ele><time>2026-03-29T09:56:47Z</time></trkpt><trkpt lat="44.599728202223545" lon="11.997341196813805"><ele>1.0</ele><time>2026-03-29T09:56:48Z</time></trkpt><trkpt lat="44.59977485546131" lon="11.997609326233349"><ele>1.0</ele><time>2026-03-29T09:56:49Z</time></trkpt><trkpt lat="44.59982190603848" lon="11.997871188502533"><ele>1.0</ele><time>2026-03-29T09:56:50Z</time></trkpt><trkpt lat="44.59986543821779" lon="11.998137350608083"><ele>1.0</ele><time>2026-03-29T09:56:51Z</time></trkpt><trkpt lat="44.59990408871981" lon="11.998407142835955"><ele>1.0</ele><time>2026-03-29T09:56:52Z</time></trkpt><trkpt lat="44.59994291610365" lon="11.998681075054055"><ele>1.0</ele><time>2026-03-29T09:56:53Z</time></trkpt><trkpt lat="44.599970401675996" lon="11.998950088172947"><ele>1.0</ele><time>2026-03-29T09:56:54Z</time></trkpt><trkpt lat="44.60000413933612" lon="11.999225138851354"><ele>1.0</ele><time>2026-03-29T09:56:55Z</time></trkpt><trkpt lat="44.600042992556055" lon="11.999500000399248"><ele>1.0</ele><time>2026-03-29T09:56:56Z</time></trkpt><trkpt lat="44.600080876843165" lon="11.999771123498444"><ele>1.0</ele><time>2026-03-29T09:56:57Z</time></trkpt><trkpt lat="44.600116427000735" lon="12.000042288675894"><ele>1.0</ele><time>2026-03-29T09:56:58Z</time></trkpt><trkpt lat="44.60015104244665" lon="12.000316165432457"><ele>1.0</ele><time>2026-03-29T09:56:59Z</time></trkpt><trkpt lat="44.60017724039574" lon="12.000584996586163"><ele>1.0</ele><time>2026-03-29T09:57:00Z</time></trkpt><trkpt lat="44.60019799989024" lon="12.00084813594886"><ele>1.0</ele><time>2026-03-29T09:57:01Z</time></trkpt><trkpt lat="44.600208827508986" lon="12.00111704400181"><ele>1.3333333333333333</ele><time>2026-03-29T09:57:02Z</time></trkpt><trkpt lat="44.600224506926274" lon="12.001354065822817"><ele>1.6666666666666665</ele><time>2026-03-29T09:57:03Z</time></trkpt><trkpt lat="44.60022983697821" lon="12.001582103466365"><ele>2.0</ele><time>2026-03-29T09:57:04Z</time></trkpt><trkpt lat="44.600238675498055" lon="12.00180495793322"><ele>2.333333333333333</ele><time>2026-03-29T09:57:05Z</time></trkpt><trkpt lat="44.600249988936085" lon="12.002031032983433"><ele>2.6666666666666665</ele><time>2026-03-29T09:57:06Z</time></trkpt><trkpt lat="44.60026118589725" lon="12.002241346812099"><ele>3.0</ele><time>2026-03-29T09:57:07Z</time></trkpt><trkpt lat="44.60027073961054" lon="12.002439666693569"><ele>2.75</ele><time>2026-03-29T09:57:08Z</time></trkpt><trkpt lat="44.60027883973936" lon="12.00261721112064"><ele>2.5</ele><time>2026-03-29T09:57:09Z</time></trkpt><trkpt lat="44.60029043067517" lon="12.00278358907293"><ele>2.25</ele><time>2026-03-29T09:57:10Z</time></trkpt><trkpt lat="44.600301850446876" lon="12.002961288973196"><ele>2.0</ele><time>2026-03-29T09:57:11Z</time></trkpt><trkpt lat="44.600307560118175" lon="12.003143308602763"><ele>1.75</ele><time>2026-03-29T09:57:12Z</time></trkpt><trkpt lat="44.600303517145775" lon="12.003332501828773"><ele>1.5</ele><time>2026-03-29T09:57:13Z</time></trkpt><trkpt lat="44.60028576746218" lon="12.003522423297097"><ele>1.25</ele><time>2026-03-29T09:57:14Z</time></trkpt><trkpt lat="44.60026847208018" lon="12.003717273924167"><ele>1.0</ele><time>2026-03-29T09:57:15Z</time></trkpt><trkpt lat="44.6002452046169" lon="12.003915924732926"><ele>1.0</ele><time>2026-03-29T09:57:16Z</time></trkpt><trkpt lat="44.600230038333535" lon="12.004114055343344"><ele>1.0</ele><time>2026-03-29T09:57:17Z</time></trkpt><trkpt lat="44.600223992089056" lon="12.004310049836064"><ele>1.0</ele><time>2026-03-29T09:57:18Z</time></trkpt><trkpt lat="44.600229163856895" lon="12.00450496720776"><ele>1.0</ele><time>2026-03-29T09:57:19Z</time></trkpt><trkpt lat="44.6002479959756" lon="12.004705632187413"><ele>1.25</ele><time>2026-03-29T09:57:20Z</time></trkpt><trkpt lat="44.60026655523822" lon="12.004901454221653"><ele>1.5</ele><time>2026-03-29T09:57:21Z</time></trkpt><trkpt lat="44.60029102057006" lon="12.005084727411804"><ele>1.75</ele><time>2026-03-29T09:57:22Z</time></trkpt><trkpt lat="44.60031652901615" lon="12.005273147760015"><ele>2.0</ele><time>2026-03-29T09:57:23Z</time></trkpt><trkpt lat="44.60033774110872" lon="12.005468366262289"><ele>2.0</ele><time>2026-03-29T09:57:24Z</time></trkpt><trkpt lat="44.60034281369066" lon="12.005658238197073"><ele>2.0</ele><time>2026-03-29T09:57:25Z</time></trkpt><trkpt lat="44.60032249236645" lon="12.00584964451507"><ele>2.0</ele><time>2026-03-29T09:57:26Z</time></trkpt><trkpt lat="44.60027717949841" lon="12.006029705893964"><ele>2.0</ele><time>2026-03-29T09:57:27Z</time></trkpt><trkpt lat="44.6002040491833" lon="12.006195901293472"><ele>2.0</ele><time>2026-03-29T09:57:28Z</time></trkpt><trkpt lat="44.600099989011014" lon="12.006353840338464"><ele>2.0</ele><time>2026-03-29T09:57:29Z</time></trkpt><trkpt lat="44.599969483152734" lon="12.006492435329204"><ele>2.0</ele><time>2026-03-29T09:57:30Z</time></trkpt><trkpt lat="44.59983247914508" lon="12.006623474838767"><ele>2.0</ele><time>2026-03-29T09:57:31Z</time></trkpt><trkpt lat="44.59968934577388" lon="12.006769219965152"><ele>2.0</ele><time>2026-03-29T09:57:32Z</time></trkpt><trkpt lat="44.59953217488594" lon="12.006933956112414"><ele>2.0</ele><time>2026-03-29T09:57:33Z</time></trkpt><trkpt lat="44.599380950998786" lon="12.00709749664719"><ele>2.0</ele><time>2026-03-29T09:57:34Z</time></trkpt><trkpt lat="44.59924593644647" lon="12.007244190016925"><ele>2.0</ele><time>2026-03-29T09:57:35Z</time></trkpt><trkpt lat="44.5991121755854" lon="12.007378163526846"><ele>2.0</ele><time>2026-03-29T09:57:36Z</time></trkpt><trkpt lat="44.598975379585845" lon="12.007524023691397"><ele>2.0</ele><time>2026-03-29T09:57:37Z</time></trkpt><trkpt lat="44.59883709179054" lon="12.007673651280427"><ele>2.0</ele><time>2026-03-29T09:57:38Z</time></trkpt><trkpt lat="44.598694507424476" lon="12.007795748429292"><ele>2.0</ele><time>2026-03-29T09:57:39Z</time></trkpt><trkpt lat="44.59854717179722" lon="12.007922352302383"><ele>2.6666666666666665</ele><time>2026-03-29T09:57:40Z</time></trkpt><trkpt lat="44.59839890320805" lon="12.008043990707135"><ele>3.333333333333333</ele><time>2026-03-29T09:57:41Z</time></trkpt><trkpt lat="44.59825768158398" lon="12.008156459685377"><ele>4.0</ele><time>2026-03-29T09:57:42Z</time></trkpt><trkpt lat="44.598108977990094" lon="12.008254019684708"><ele>3.6666666666666665</ele><time>2026-03-29T09:57:43Z</time></trkpt><trkpt lat="44.59796294139101" lon="12.008351049849919"><ele>3.333333333333333</ele><time>2026-03-29T09:57:44Z</time></trkpt><trkpt lat="44.59782388363017" lon="12.00842743348035"><ele>3.0</ele><time>2026-03-29T09:57:45Z</time></trkpt><trkpt lat="44.59768563604688" lon="12.008497700406725"><ele>3.0</ele><time>2026-03-29T09:57:46Z</time></trkpt><trkpt lat="44.597540236202526" lon="12.008548327261408"><ele>3.0</ele><time>2026-03-29T09:57:47Z</time></trkpt><trkpt lat="44.59740080287772" lon="12.008572793804994"><ele>3.0</ele><time>2026-03-29T09:57:48Z</time></trkpt><trkpt lat="44.5972596487215" lon="12.008561396361928"><ele>3.0</ele><time>2026-03-29T09:57:49Z</time></trkpt><trkpt lat="44.59711732514561" lon="12.008515679342164"><ele>3.333333333333333</ele><time>2026-03-29T09:57:50Z</time></trkpt><trkpt lat="44.59696962135149" lon="12.008432146115007"><ele>3.6666666666666665</ele><time>2026-03-29T09:57:51Z</time></trkpt><trkpt lat="44.59682908125394" lon="12.008328918195604"><ele>4.0</ele><time>2026-03-29T09:57:52Z</time></trkpt><trkpt lat="44.59668617099464" lon="12.00823307205898"><ele>4.0</ele><time>2026-03-29T09:57:53Z</time></trkpt><trkpt lat="44.596538419559664" lon="12.008137426618797"><ele>4.0</ele><time>2026-03-29T09:57:54Z</time></trkpt><trkpt lat="44.596388854388245" lon="12.008045564673193"><ele>4.0</ele><time>2026-03-29T09:57:55Z</time></trkpt><trkpt lat="44.5962437748886" lon="12.00795837765882"><ele>4.0</ele><time>2026-03-29T09:57:56Z</time></trkpt><trkpt lat="44.59608539188677" lon="12.00789647947828"><ele>4.0</ele><time>2026-03-29T09:57:57Z</time></trkpt><trkpt lat="44.59591154719839" lon="12.007851391252332"><ele>4.0</ele><time>2026-03-29T09:57:58Z</time></trkpt><trkpt lat="44.59572837082896" lon="12.007819015451233"><ele>4.0</ele><time>2026-03-29T09:57:59Z</time></trkpt><trkpt lat="44.59554477353012" lon="12.007784367279921"><ele>4.0</ele><time>2026-03-29T09:58:00Z</time></trkpt><trkpt lat="44.59535862154947" lon="12.00773821074308"><ele>4.0</ele><time>2026-03-29T09:58:01Z</time></trkpt><trkpt lat="44.595175268399885" lon="12.0076761615656"><ele>3.6666666666666665</ele><time>2026-03-29T09:58:02Z</time></trkpt><trkpt lat="44.59499710655344" lon="12.00759105296993"><ele>3.333333333333333</ele><time>2026-03-29T09:58:03Z</time></trkpt><trkpt lat="44.59482180505044" lon="12.007492990942204"><ele>3.0</ele><time>2026-03-29T09:58:04Z</time></trkpt><trkpt lat="44.594650728807636" lon="12.007393439027929"><ele>3.0</ele><time>2026-03-29T09:58:05Z</time></trkpt><trkpt lat="44.59448086758809" lon="12.007297883870924"><ele>3.0</ele><time>2026-03-29T09:58:06Z</time></trkpt><trkpt lat="44.594311815158335" lon="12.007210983615218"><ele>3.0</ele><time>2026-03-29T09:58:07Z</time></trkpt><trkpt lat="44.59414002344277" lon="12.00713302283519"><ele>3.0</ele><time>2026-03-29T09:58:08Z</time></trkpt><trkpt lat="44.59396943071328" lon="12.007060786179567"><ele>3.0</ele><time>2026-03-29T09:58:09Z</time></trkpt><trkpt lat="44.59379981099392" lon="12.006998269395837"><ele>3.0</ele><time>2026-03-29T09:58:10Z</time></trkpt><trkpt lat="44.5936306256984" lon="12.006940317891331"><ele>3.0</ele><time>2026-03-29T09:58:11Z</time></trkpt><trkpt lat="44.593459498483014" lon="12.006891240291205"><ele>3.0</ele><time>2026-03-29T09:58:12Z</time></trkpt><trkpt lat="44.59329237788108" lon="12.006850460975771"><ele>3.0</ele><time>2026-03-29T09:58:13Z</time></trkpt><trkpt lat="44.59312160615178" lon="12.006824674408156"><ele>3.0</ele><time>2026-03-29T09:58:14Z</time></trkpt><trkpt lat="44.592949418618865" lon="12.006816495390252"><ele>3.0</ele><time>2026-03-29T09:58:15Z</time></trkpt><trkpt lat="44.59277049806466" lon="12.006829974770714"><ele>3.0</ele><time>2026-03-29T09:58:16Z</time></trkpt><trkpt lat="44.59258991418055" lon="12.006857849275468"><ele>3.666666666666667</ele><time>2026-03-29T09:58:17Z</time></trkpt><trkpt lat="44.59241779529557" lon="12.006885349662728"><ele>4.333333333333334</ele><time>2026-03-29T09:58:18Z</time></trkpt><trkpt lat="44.5922498493572" lon="12.00690696244141"><ele>5.0</ele><time>2026-03-29T09:58:19Z</time></trkpt><trkpt lat="44.59208559821927" lon="12.006930729278341"><ele>5.0</ele><time>2026-03-29T09:58:20Z</time></trkpt><trkpt lat="44.591936880511376" lon="12.006948461525555"><ele>5.0</ele><time>2026-03-29T09:58:21Z</time></trkpt><trkpt lat="44.59176788534123" lon="12.006984732463721"><ele>5.0</ele><time>2026-03-29T09:58:22Z</time></trkpt><trkpt lat="44.59160878148357" lon="12.007024929265327"><ele>5.0</ele><time>2026-03-29T09:58:23Z</time></trkpt><trkpt lat="44.591446326871555" lon="12.0070824221108"><ele>5.0</ele><time>2026-03-29T09:58:24Z</time></trkpt><trkpt lat="44.591290160686924" lon="12.007140056775318"><ele>5.0</ele><time>2026-03-29T09:58:25Z</time></trkpt><trkpt lat="44.59114233339117" lon="12.007200255939177"><ele>4.75</ele><time>2026-03-29T09:58:26Z</time></trkpt><trkpt lat="44.59100344500529" lon="12.007262455048199"><ele>4.5</ele><time>2026-03-29T09:58:27Z</time></trkpt><trkpt lat="44.59086944970397" lon="12.007321343904772"><ele>4.25</ele><time>2026-03-29T09:58:28Z</time></trkpt><trkpt lat="44.59074868119033" lon="12.007373092555799"><ele>4.0</ele><time>2026-03-29T09:58:29Z</time></trkpt><trkpt lat="44.590632412010834" lon="12.007425020315297"><ele>4.0</ele><time>2026-03-29T09:58:30Z</time></trkpt><trkpt lat="44.59051443887024" lon="12.007472986753026"><ele>4.0</ele><time>2026-03-29T09:58:31Z</time></trkpt><trkpt lat="44.590400713813736" lon="12.007529937266574"><ele>4.0</ele><time>2026-03-29T09:58:32Z</time></trkpt><trkpt lat="44.590278736696206" lon="12.00759624237718"><ele>4.0</ele><time>2026-03-29T09:58:33Z</time></trkpt><trkpt lat="44.59015239906936" lon="12.007658564339444"><ele>4.5</ele><time>2026-03-29T09:58:34Z</time></trkpt><trkpt lat="44.59003702623079" lon="12.007705925082785"><ele>5.0</ele><time>2026-03-29T09:58:35Z</time></trkpt><trkpt lat="44.58991839392274" lon="12.007780181921692"><ele>5.5</ele><time>2026-03-29T09:58:36Z</time></trkpt><trkpt lat="44.58978051927074" lon="12.00784694094566"><ele>6.0</ele><time>2026-03-29T09:58:37Z</time></trkpt><trkpt lat="44.58965463599646" lon="12.007886906546602"><ele>6.0</ele><time>2026-03-29T09:58:38Z</time></trkpt><trkpt lat="44.589529469208536" lon="12.007944570567076"><ele>6.0</ele><time>2026-03-29T09:58:39Z</time></trkpt><trkpt lat="44.589404529000355" lon="12.008001709287301"><ele>6.0</ele><time>2026-03-29T09:58:40Z</time></trkpt><trkpt lat="44.589282650900486" lon="12.008065265069387"><ele>6.0</ele><time>2026-03-29T09:58:41Z</time></trkpt><trkpt lat="44.58915199264785" lon="12.008118945746503"><ele>5.5</ele><time>2026-03-29T09:58:42Z</time></trkpt><trkpt lat="44.58903376597608" lon="12.008178340969854"><ele>5.0</ele><time>2026-03-29T09:58:43Z</time></trkpt><trkpt lat="44.58890873293784" lon="12.008229878913516"><ele>4.5</ele><time>2026-03-29T09:58:44Z</time></trkpt><trkpt lat="44.58878654571713" lon="12.008279733837929"><ele>4.0</ele><time>2026-03-29T09:58:45Z</time></trkpt><trkpt lat="44.58866102860533" lon="12.008331533286178"><ele>3.75</ele><time>2026-03-29T09:58:46Z</time></trkpt><trkpt lat="44.588536628094175" lon="12.008384221180783"><ele>3.5</ele><time>2026-03-29T09:58:47Z</time></trkpt><trkpt lat="44.58840928336591" lon="12.008428904900327"><ele>3.25</ele><time>2026-03-29T09:58:48Z</time></trkpt><trkpt lat="44.588285148235" lon="12.008460952221533"><ele>3.0</ele><time>2026-03-29T09:58:49Z</time></trkpt><trkpt lat="44.588152023623984" lon="12.008489299214807"><ele>3.0</ele><time>2026-03-29T09:58:50Z</time></trkpt><trkpt lat="44.588021520132195" lon="12.008516903737267"><ele>3.0</ele><time>2026-03-29T09:58:51Z</time></trkpt><trkpt lat="44.58789008673929" lon="12.008544093381111"><ele>3.0</ele><time>2026-03-29T09:58:52Z</time></trkpt><trkpt lat="44.587762671278696" lon="12.008568217946639"><ele>3.0</ele><time>2026-03-29T09:58:53Z</time></trkpt><trkpt lat="44.5876277888786" lon="12.008598079778878"><ele>3.25</ele><time>2026-03-29T09:58:54Z</time></trkpt><trkpt lat="44.58748979208208" lon="12.008611777459098"><ele>3.5</ele><time>2026-03-29T09:58:55Z</time></trkpt><trkpt lat="44.587353576564304" lon="12.008609367454087"><ele>3.75</ele><time>2026-03-29T09:58:56Z</time></trkpt><trkpt lat="44.58721770590437" lon="12.008600591616604"><ele>4.0</ele><time>2026-03-29T09:58:57Z</time></trkpt><trkpt lat="44.58708125433301" lon="12.008578400927584"><ele>3.75</ele><time>2026-03-29T09:58:58Z</time></trkpt><trkpt lat="44.58694524750423" lon="12.008558697513063"><ele>3.5</ele><time>2026-03-29T09:58:59Z</time></trkpt><trkpt lat="44.58680309248264" lon="12.008535634437854"><ele>3.25</ele><time>2026-03-29T09:59:00Z</time></trkpt><trkpt lat="44.58666224388527" lon="12.00850931909982"><ele>3.0</ele><time>2026-03-29T09:59:01Z</time></trkpt><trkpt lat="44.5865230867628" lon="12.008475979479066"><ele>3.0</ele><time>2026-03-29T09:59:02Z</time></trkpt><trkpt lat="44.58639149696048" lon="12.008425263554631"><ele>3.0</ele><time>2026-03-29T09:59:03Z</time></trkpt><trkpt lat="44.58626510138851" lon="12.008357291739927"><ele>3.0</ele><time>2026-03-29T09:59:04Z</time></trkpt><trkpt lat="44.586141346780856" lon="12.00827775161978"><ele>3.0</ele><time>2026-03-29T09:59:05Z</time></trkpt><trkpt lat="44.58602098249005" lon="12.008179793742816"><ele>3.0</ele><time>2026-03-29T09:59:06Z</time></trkpt><trkpt lat="44.58590234581845" lon="12.008074239004232"><ele>3.0</ele><time>2026-03-29T09:59:07Z</time></trkpt><trkpt lat="44.5857797374093" lon="12.007962540799657"><ele>3.0</ele><time>2026-03-29T09:59:08Z</time></trkpt><trkpt lat="44.585656148348974" lon="12.007852353392476"><ele>3.0</ele><time>2026-03-29T09:59:09Z</time></trkpt><trkpt lat="44.58553535208434" lon="12.007739794145916"><ele>3.0</ele><time>2026-03-29T09:59:10Z</time></trkpt><trkpt lat="44.58541857898637" lon="12.007627155404613"><ele>3.0</ele><time>2026-03-29T09:59:11Z</time></trkpt><trkpt lat="44.585301035596345" lon="12.007516915898472"><ele>3.0</ele><time>2026-03-29T09:59:12Z</time></trkpt><trkpt lat="44.585176447181865" lon="12.007396939476203"><ele>3.0</ele><time>2026-03-29T09:59:13Z</time></trkpt><trkpt lat="44.58504839740527" lon="12.00727255418352"><ele>3.0</ele><time>2026-03-29T09:59:14Z</time></trkpt><trkpt lat="44.584928884081336" lon="12.007145985812542"><ele>3.0</ele><time>2026-03-29T09:59:15Z</time></trkpt><trkpt lat="44.58481011709389" lon="12.007027371859074"><ele>3.0</ele><time>2026-03-29T09:59:16Z</time></trkpt><trkpt lat="44.58468115479124" lon="12.006927702926385"><ele>3.0</ele><time>2026-03-29T09:59:17Z</time></trkpt><trkpt lat="44.584552858764496" lon="12.006823326275422"><ele>3.0</ele><time>2026-03-29T09:59:18Z</time></trkpt><trkpt lat="44.584422860513" lon="12.006729969814806"><ele>3.0</ele><time>2026-03-29T09:59:19Z</time></trkpt><trkpt lat="44.584285966937045" lon="12.006642573093897"><ele>3.0</ele><time>2026-03-29T09:59:20Z</time></trkpt><trkpt lat="44.58414955652608" lon="12.006562234336984"><ele>3.0</ele><time>2026-03-29T09:59:21Z</time></trkpt><trkpt lat="44.58402275030162" lon="12.00650264551248"><ele>3.0</ele><time>2026-03-29T09:59:22Z</time></trkpt><trkpt lat="44.583904455276745" lon="12.006451712710891"><ele>3.0</ele><time>2026-03-29T09:59:23Z</time></trkpt><trkpt lat="44.583798044543116" lon="12.006398525391505"><ele>3.0</ele><time>2026-03-29T09:59:24Z</time></trkpt><trkpt lat="44.58368510732936" lon="12.006346938168624"><ele>3.0</ele><time>2026-03-29T09:59:25Z</time></trkpt><trkpt lat="44.58356531044047" lon="12.006289960709312"><ele>3.0</ele><time>2026-03-29T09:59:26Z</time></trkpt><trkpt lat="44.58344773558535" lon="12.006233227130942"><ele>3.0</ele><time>2026-03-29T09:59:27Z</time></trkpt><trkpt lat="44.58332385143812" lon="12.006186227287776"><ele>3.0</ele><time>2026-03-29T09:59:28Z</time></trkpt><trkpt lat="44.58318927933503" lon="12.006148324703888"><ele>3.0</ele><time>2026-03-29T09:59:29Z</time></trkpt><trkpt lat="44.583049594901716" lon="12.006115209778146"><ele>3.0</ele><time>2026-03-29T09:59:30Z</time></trkpt><trkpt lat="44.58290198813327" lon="12.006113604024053"><ele>3.0</ele><time>2026-03-29T09:59:31Z</time></trkpt><trkpt lat="44.58274807989267" lon="12.006132708725252"><ele>3.0</ele><time>2026-03-29T09:59:32Z</time></trkpt><trkpt lat="44.58259300676992" lon="12.006181024451593"><ele>3.0</ele><time>2026-03-29T09:59:33Z</time></trkpt><trkpt lat="44.58245603441451" lon="12.006246064943682"><ele>3.0</ele><time>2026-03-29T09:59:34Z</time></trkpt><trkpt lat="44.58233276561606" lon="12.006318733980594"><ele>3.0</ele><time>2026-03-29T09:59:35Z</time></trkpt><trkpt lat="44.58221030839104" lon="12.006404911890211"><ele>3.0</ele><time>2026-03-29T09:59:36Z</time></trkpt><trkpt lat="44.582080683594604" lon="12.00651015612767"><ele>2.6666666666666665</ele><time>2026-03-29T09:59:37Z</time></trkpt><trkpt lat="44.581953440162295" lon="12.006632909720574"><ele>2.333333333333333</ele><time>2026-03-29T09:59:38Z</time></trkpt><trkpt lat="44.58185043078053" lon="12.006786956189504"><ele>2.0</ele><time>2026-03-29T09:59:39Z</time></trkpt><trkpt lat="44.581764312039596" lon="12.006990976471533"><ele>2.0</ele><time>2026-03-29T09:59:40Z</time></trkpt><trkpt lat="44.58169596995418" lon="12.007218725438836"><ele>2.0</ele><time>2026-03-29T09:59:41Z</time></trkpt><trkpt lat="44.581633188630946" lon="12.007461283221124"><ele>2.0</ele><time>2026-03-29T09:59:42Z</time></trkpt><trkpt lat="44.581570164755064" lon="12.00769806645599"><ele>2.0</ele><time>2026-03-29T09:59:43Z</time></trkpt><trkpt lat="44.58150701450637" lon="12.007932772087734"><ele>2.0</ele><time>2026-03-29T09:59:44Z</time></trkpt><trkpt lat="44.58146054636012" lon="12.008172722718585"><ele>2.0</ele><time>2026-03-29T09:59:45Z</time></trkpt><trkpt lat="44.58144192614434" lon="12.008424698528385"><ele>2.0</ele><time>2026-03-29T09:59:46Z</time></trkpt><trkpt lat="44.58143107785366" lon="12.00867354233679"><ele>2.0</ele><time>2026-03-29T09:59:47Z</time></trkpt><trkpt lat="44.58142222097241" lon="12.008924866812755"><ele>2.0</ele><time>2026-03-29T09:59:48Z</time></trkpt><trkpt lat="44.581410379665726" lon="12.00918047897125"><ele>2.0</ele><time>2026-03-29T09:59:49Z</time></trkpt><trkpt lat="44.58139854711323" lon="12.009446467833097"><ele>2.0</ele><time>2026-03-29T09:59:50Z</time></trkpt><trkpt lat="44.581381355136735" lon="12.0097111754993"><ele>2.0</ele><time>2026-03-29T09:59:51Z</time></trkpt><trkpt lat="44.5813703971341" lon="12.009975315186269"><ele>1.6666666666666665</ele><time>2026-03-29T09:59:52Z</time></trkpt><trkpt lat="44.58135852259885" lon="12.010241420684842"><ele>1.3333333333333333</ele><time>2026-03-29T09:59:53Z</time></trkpt><trkpt lat="44.581347972322526" lon="12.0105097062728"><ele>1.0</ele><time>2026-03-29T09:59:54Z</time></trkpt><trkpt lat="44.5813391938403" lon="12.010783021175328"><ele>1.0</ele><time>2026-03-29T09:59:55Z</time></trkpt><trkpt lat="44.58133219482303" lon="12.011058308643042"><ele>1.0</ele><time>2026-03-29T09:59:56Z</time></trkpt><trkpt lat="44.581323790952034" lon="12.011337717894191"><ele>1.0</ele><time>2026-03-29T09:59:57Z</time></trkpt><trkpt lat="44.581316289107384" lon="12.011607942223685"><ele>0.6666666666666666</ele><time>2026-03-29T09:59:58Z</time></trkpt><trkpt lat="44.581306670761734" lon="12.011877253105164"><ele>0.3333333333333333</ele><time>2026-03-29T09:59:59Z</time></trkpt><trkpt lat="44.58129149710953" lon="12.012145567552185"><ele>0.0</ele><time>2026-03-29T10:00:00Z</time></trkpt><trkpt lat="44.58127583124785" lon="12.012425720300383"><ele>0.0</ele><time>2026-03-29T10:00:01Z</time></trkpt><trkpt lat="44.581257716010846" lon="12.012705331295662"><ele>0.0</ele><time>2026-03-29T10:00:02Z</time></trkpt><trkpt lat="44.58123188908697" lon="12.012963912040878"><ele>0.0</ele><time>2026-03-29T10:00:03Z</time></trkpt><trkpt lat="44.58119838186444" lon="12.01323145478257"><ele>1.0</ele><time>2026-03-29T10:00:04Z</time></trkpt><trkpt lat="44.58116041691029" lon="12.013501931351335"><ele>2.0</ele><time>2026-03-29T10:00:05Z</time></trkpt><trkpt lat="44.58111797298183" lon="12.013770627675687"><ele>3.0</ele><time>2026-03-29T10:00:06Z</time></trkpt><trkpt lat="44.581075189204135" lon="12.014034674942494"><ele>3.0</ele><time>2026-03-29T10:00:07Z</time></trkpt><trkpt lat="44.58103347192781" lon="12.014298920549427"><ele>3.0</ele><time>2026-03-29T10:00:08Z</time></trkpt><trkpt lat="44.58099321819876" lon="12.01456254243915"><ele>3.0</ele><time>2026-03-29T10:00:09Z</time></trkpt><trkpt lat="44.58095803935792" lon="12.014829400627669"><ele>2.0</ele><time>2026-03-29T10:00:10Z</time></trkpt><trkpt lat="44.58092377639693" lon="12.015093197981706"><ele>1.0</ele><time>2026-03-29T10:00:11Z</time></trkpt><trkpt lat="44.5808918066494" lon="12.0153706302201"><ele>0.0</ele><time>2026-03-29T10:00:12Z</time></trkpt><trkpt lat="44.58085851078719" lon="12.015648939400526"><ele>0.0</ele><time>2026-03-29T10:00:13Z</time></trkpt><trkpt lat="44.58082115359268" lon="12.015928317177845"><ele>0.0</ele><time>2026-03-29T10:00:14Z</time></trkpt><trkpt lat="44.58077338171176" lon="12.016208069345943"><ele>0.0</ele><time>2026-03-29T10:00:15Z</time></trkpt><trkpt lat="44.580717203181266" lon="12.016484354914104"><ele>-0.3333333333333333</ele><time>2026-03-29T10:00:16Z</time></trkpt><trkpt lat="44.58065520312907" lon="12.016759783305627"><ele>-0.6666666666666666</ele><time>2026-03-29T10:00:17Z</time></trkpt><trkpt lat="44.58059750218144" lon="12.017043029682782"><ele>-1.0</ele><time>2026-03-29T10:00:18Z</time></trkpt><trkpt lat="44.58053534607033" lon="12.017330485622038"><ele>-0.6666666666666666</ele><time>2026-03-29T10:00:19Z</time></trkpt><trkpt lat="44.580470873902144" lon="12.017619094362768"><ele>-0.3333333333333333</ele><time>2026-03-29T10:00:20Z</time></trkpt><trkpt lat="44.580411116142876" lon="12.01790027649794"><ele>0.0</ele><time>2026-03-29T10:00:21Z</time></trkpt><trkpt lat="44.58035930066566" lon="12.018170415645448"><ele>0.6666666666666666</ele><time>2026-03-29T10:00:22Z</time></trkpt><trkpt lat="44.580311470931306" lon="12.018422997961386"><ele>1.3333333333333333</ele><time>2026-03-29T10:00:23Z</time></trkpt><trkpt lat="44.58026510314688" lon="12.018664412497554"><ele>2.0</ele><time>2026-03-29T10:00:24Z</time></trkpt><trkpt lat="44.58021980442076" lon="12.018898553726277"><ele>2.0</ele><time>2026-03-29T10:00:25Z</time></trkpt><trkpt lat="44.580174230373395" lon="12.01913495973334"><ele>2.0</ele><time>2026-03-29T10:00:26Z</time></trkpt><trkpt lat="44.58012607983117" lon="12.019364538858772"><ele>2.0</ele><time>2026-03-29T10:00:27Z</time></trkpt><trkpt lat="44.5800771848568" lon="12.01959249383127"><ele>2.0</ele><time>2026-03-29T10:00:28Z</time></trkpt><trkpt lat="44.580027416620695" lon="12.019820103587685"><ele>2.0</ele><time>2026-03-29T10:00:29Z</time></trkpt><trkpt lat="44.57997639225826" lon="12.02005093835989"><ele>2.0</ele><time>2026-03-29T10:00:30Z</time></trkpt><trkpt lat="44.57992319256525" lon="12.020283543119064"><ele>1.3333333333333333</ele><time>2026-03-29T10:00:31Z</time></trkpt><trkpt lat="44.57987151960925" lon="12.020523582626453"><ele>0.6666666666666666</ele><time>2026-03-29T10:00:32Z</time></trkpt><trkpt lat="44.57981882747733" lon="12.0207678338463"><ele>0.0</ele><time>2026-03-29T10:00:33Z</time></trkpt><trkpt lat="44.579767654138585" lon="12.021013355654667"><ele>-0.3333333333333333</ele><time>2026-03-29T10:00:34Z</time></trkpt><trkpt lat="44.57971700407968" lon="12.021262276776692"><ele>-0.6666666666666666</ele><time>2026-03-29T10:00:35Z</time></trkpt><trkpt lat="44.579669990134406" lon="12.02150892731692"><ele>-1.0</ele><time>2026-03-29T10:00:36Z</time></trkpt><trkpt lat="44.579624629792825" lon="12.021754675590474"><ele>-1.0</ele><time>2026-03-29T10:00:37Z</time></trkpt><trkpt lat="44.579587787774514" lon="12.02199434032629"><ele>-1.0</ele><time>2026-03-29T10:00:38Z</time></trkpt><trkpt lat="44.57955420740769" lon="12.02223028299705"><ele>-1.0</ele><time>2026-03-29T10:00:39Z</time></trkpt><trkpt lat="44.57951370118435" lon="12.022474172881887"><ele>0.33333333333333337</ele><time>2026-03-29T10:00:40Z</time></trkpt><trkpt lat="44.57946726426028" lon="12.022716031148768"><ele>1.6666666666666667</ele><time>2026-03-29T10:00:41Z</time></trkpt><trkpt lat="44.57941089770494" lon="12.02295622312942"><ele>3.0</ele><time>2026-03-29T10:00:42Z</time></trkpt><trkpt lat="44.579344580410805" lon="12.023193368822593"><ele>2.0</ele><time>2026-03-29T10:00:43Z</time></trkpt><trkpt lat="44.579272771833395" lon="12.023423770844845"><ele>1.0</ele><time>2026-03-29T10:00:44Z</time></trkpt><trkpt lat="44.57919776078519" lon="12.023660252964342"><ele>0.0</ele><time>2026-03-29T10:00:45Z</time></trkpt><trkpt lat="44.57912576634599" lon="12.023883993075382"><ele>0.0</ele><time>2026-03-29T10:00:46Z</time></trkpt><trkpt lat="44.579054006964796" lon="12.024108704715921"><ele>0.0</ele><time>2026-03-29T10:00:47Z</time></trkpt><trkpt lat="44.578979982425004" lon="12.024328503321795"><ele>0.0</ele><time>2026-03-29T10:00:48Z</time></trkpt><trkpt lat="44.578894915545526" lon="12.024545398524598"><ele>0.0</ele><time>2026-03-29T10:00:49Z</time></trkpt><trkpt lat="44.57880730847957" lon="12.024749492476483"><ele>0.0</ele><time>2026-03-29T10:00:50Z</time></trkpt><trkpt lat="44.578723518398945" lon="12.024946001514243"><ele>0.0</ele><time>2026-03-29T10:00:51Z</time></trkpt><trkpt lat="44.57865150039745" lon="12.025130595595352"><ele>0.6666666666666666</ele><time>2026-03-29T10:00:52Z</time></trkpt><trkpt lat="44.578591142689824" lon="12.0253266334746"><ele>1.3333333333333333</ele><time>2026-03-29T10:00:53Z</time></trkpt><trkpt lat="44.57854429239312" lon="12.025537823281146"><ele>2.0</ele><time>2026-03-29T10:00:54Z</time></trkpt><trkpt lat="44.578488829618905" lon="12.02574706576474"><ele>1.6666666666666665</ele><time>2026-03-29T10:00:55Z</time></trkpt><trkpt lat="44.578405251152645" lon="12.025940757231863"><ele>1.3333333333333333</ele><time>2026-03-29T10:00:56Z</time></trkpt><trkpt lat="44.57829943436276" lon="12.026110550392039"><ele>1.0</ele><time>2026-03-29T10:00:57Z</time></trkpt><trkpt lat="44.57818018101682" lon="12.026264116759233"><ele>1.0</ele><time>2026-03-29T10:00:58Z</time></trkpt><trkpt lat="44.57805380499892" lon="12.026412673040005"><ele>1.0</ele><time>2026-03-29T10:00:59Z</time></trkpt><trkpt lat="44.57792371175164" lon="12.026567576394928"><ele>1.0</ele><time>2026-03-29T10:01:00Z</time></trkpt><trkpt lat="44.57778273717217" lon="12.026722708820747"><ele>1.0</ele><time>2026-03-29T10:01:01Z</time></trkpt><trkpt lat="44.577634668675536" lon="12.026856053919403"><ele>1.0</ele><time>2026-03-29T10:01:02Z</time></trkpt><trkpt lat="44.57747636288447" lon="12.0269700049166"><ele>1.0</ele><time>2026-03-29T10:01:03Z</time></trkpt><trkpt lat="44.577310924731776" lon="12.027061414265903"><ele>1.0</ele><time>2026-03-29T10:01:04Z</time></trkpt><trkpt lat="44.57714830290884" lon="12.027149480131941"><ele>1.0</ele><time>2026-03-29T10:01:05Z</time></trkpt><trkpt lat="44.576997510953134" lon="12.027233344349927"><ele>1.0</ele><time>2026-03-29T10:01:06Z</time></trkpt><trkpt lat="44.57686275185608" lon="12.027338444786201"><ele>1.25</ele><time>2026-03-29T10:01:07Z</time></trkpt><trkpt lat="44.57675036502881" lon="12.027467847662304"><ele>1.5</ele><time>2026-03-29T10:01:08Z</time></trkpt><trkpt lat="44.57664327048455" lon="12.027585775830165"><ele>1.75</ele><time>2026-03-29T10:01:09Z</time></trkpt><trkpt lat="44.57651732127962" lon="12.027668132035995"><ele>2.0</ele><time>2026-03-29T10:01:10Z</time></trkpt><trkpt lat="44.57637930173557" lon="12.027663300815652"><ele>2.0</ele><time>2026-03-29T10:01:11Z</time></trkpt><trkpt lat="44.57623176188163" lon="12.027640636435114"><ele>2.0</ele><time>2026-03-29T10:01:12Z</time></trkpt><trkpt lat="44.576074520802315" lon="12.027622854713234"><ele>2.0</ele><time>2026-03-29T10:01:13Z</time></trkpt><trkpt lat="44.575907734731956" lon="12.027633454995728"><ele>2.0</ele><time>2026-03-29T10:01:14Z</time></trkpt><trkpt lat="44.575730610765255" lon="12.027655461843397"><ele>2.0</ele><time>2026-03-29T10:01:15Z</time></trkpt><trkpt lat="44.57554898840759" lon="12.027644965619462"><ele>2.0</ele><time>2026-03-29T10:01:16Z</time></trkpt><trkpt lat="44.57535834362092" lon="12.027608122301302"><ele>1.6666666666666665</ele><time>2026-03-29T10:01:17Z</time></trkpt><trkpt lat="44.57517368827954" lon="12.02755358504236"><ele>1.3333333333333333</ele><time>2026-03-29T10:01:18Z</time></trkpt><trkpt lat="44.57499316491036" lon="12.0274868670761"><ele>1.0</ele><time>2026-03-29T10:01:19Z</time></trkpt><trkpt lat="44.574818945436924" lon="12.02744510406092"><ele>1.0</ele><time>2026-03-29T10:01:20Z</time></trkpt><trkpt lat="44.57464564214982" lon="12.027377085762119"><ele>1.0</ele><time>2026-03-29T10:01:21Z</time></trkpt><trkpt lat="44.57447416857328" lon="12.027314567900229"><ele>1.0</ele><time>2026-03-29T10:01:22Z</time></trkpt><trkpt lat="44.57429993129487" lon="12.027250892140989"><ele>1.3333333333333333</ele><time>2026-03-29T10:01:23Z</time></trkpt><trkpt lat="44.57412434194771" lon="12.027182374842688"><ele>1.6666666666666665</ele><time>2026-03-29T10:01:24Z</time></trkpt><trkpt lat="44.57395081557667" lon="12.027117738978616"><ele>2.0</ele><time>2026-03-29T10:01:25Z</time></trkpt><trkpt lat="44.5737750066577" lon="12.027055464446645"><ele>2.0</ele><time>2026-03-29T10:01:26Z</time></trkpt><trkpt lat="44.57360449171375" lon="12.026967099185711"><ele>2.0</ele><time>2026-03-29T10:01:27Z</time></trkpt><trkpt lat="44.573430514071916" lon="12.026900986418866"><ele>2.0</ele><time>2026-03-29T10:01:28Z</time></trkpt><trkpt lat="44.573258613007646" lon="12.02683318219255"><ele>2.0</ele><time>2026-03-29T10:01:29Z</time></trkpt><trkpt lat="44.57308593565772" lon="12.026784732594967"><ele>2.0</ele><time>2026-03-29T10:01:30Z</time></trkpt><trkpt lat="44.57291461872565" lon="12.02671499610702"><ele>2.0</ele><time>2026-03-29T10:01:31Z</time></trkpt><trkpt lat="44.57274761347251" lon="12.026613133939446"><ele>2.0</ele><time>2026-03-29T10:01:32Z</time></trkpt><trkpt lat="44.57257876806395" lon="12.026528756543586"><ele>2.0</ele><time>2026-03-29T10:01:33Z</time></trkpt><trkpt lat="44.5724063495699" lon="12.026441706881885"><ele>2.0</ele><time>2026-03-29T10:01:34Z</time></trkpt><trkpt lat="44.57224093331824" lon="12.026358192540554"><ele>2.0</ele><time>2026-03-29T10:01:35Z</time></trkpt><trkpt lat="44.572087571847916" lon="12.026280764267876"><ele>2.0</ele><time>2026-03-29T10:01:36Z</time></trkpt><trkpt lat="44.571951108891184" lon="12.026211732644704"><ele>2.0</ele><time>2026-03-29T10:01:37Z</time></trkpt><trkpt lat="44.57182326757719" lon="12.026154099686181"><ele>2.0</ele><time>2026-03-29T10:01:38Z</time></trkpt><trkpt lat="44.571704652090354" lon="12.026099055434477"><ele>2.0</ele><time>2026-03-29T10:01:39Z</time></trkpt><trkpt lat="44.57160041855316" lon="12.026040805408664"><ele>2.0</ele><time>2026-03-29T10:01:40Z</time></trkpt><trkpt lat="44.57149181171178" lon="12.025999750812828"><ele>2.0</ele><time>2026-03-29T10:01:41Z</time></trkpt><trkpt lat="44.57136256237347" lon="12.02597804639718"><ele>2.0</ele><time>2026-03-29T10:01:42Z</time></trkpt><trkpt lat="44.57121840374922" lon="12.025994914024457"><ele>2.333333333333333</ele><time>2026-03-29T10:01:43Z</time></trkpt><trkpt lat="44.57106740222026" lon="12.026046081263564"><ele>2.6666666666666665</ele><time>2026-03-29T10:01:44Z</time></trkpt><trkpt lat="44.570909073033675" lon="12.02611211820682"><ele>3.0</ele><time>2026-03-29T10:01:45Z</time></trkpt><trkpt lat="44.57075573570131" lon="12.026170107750666"><ele>3.0</ele><time>2026-03-29T10:01:46Z</time></trkpt><trkpt lat="44.570621230536226" lon="12.026216917157937"><ele>3.0</ele><time>2026-03-29T10:01:47Z</time></trkpt><trkpt lat="44.570488669088206" lon="12.026272990187804"><ele>3.0</ele><time>2026-03-29T10:01:48Z</time></trkpt><trkpt lat="44.57035585578761" lon="12.02634676826836"><ele>3.0</ele><time>2026-03-29T10:01:49Z</time></trkpt><trkpt lat="44.570228469364864" lon="12.026455287930665"><ele>2.6666666666666665</ele><time>2026-03-29T10:01:50Z</time></trkpt><trkpt lat="44.570119196377036" lon="12.026602420508322"><ele>2.333333333333333</ele><time>2026-03-29T10:01:51Z</time></trkpt><trkpt lat="44.57002457987696" lon="12.026784572480826"><ele>2.0</ele><time>2026-03-29T10:01:52Z</time></trkpt><trkpt lat="44.569959178673194" lon="12.026994229670985"><ele>1.6666666666666665</ele><time>2026-03-29T10:01:53Z</time></trkpt><trkpt lat="44.56991914278241" lon="12.027228079895067"><ele>1.3333333333333333</ele><time>2026-03-29T10:01:54Z</time></trkpt><trkpt lat="44.56989481316143" lon="12.02746693050227"><ele>1.0</ele><time>2026-03-29T10:01:55Z</time></trkpt><trkpt lat="44.56988859802242" lon="12.027724680744832"><ele>1.0</ele><time>2026-03-29T10:01:56Z</time></trkpt><trkpt lat="44.56988596282461" lon="12.027973990259591"><ele>1.0</ele><time>2026-03-29T10:01:57Z</time></trkpt><trkpt lat="44.569884987114484" lon="12.02822128850431"><ele>1.0</ele><time>2026-03-29T10:01:58Z</time></trkpt><trkpt lat="44.569882183431325" lon="12.02846771989885"><ele>1.0</ele><time>2026-03-29T10:01:59Z</time></trkpt><trkpt lat="44.56987649976433" lon="12.028715890080894"><ele>1.0</ele><time>2026-03-29T10:02:00Z</time></trkpt><trkpt lat="44.56987260728498" lon="12.02897279490655"><ele>1.0</ele><time>2026-03-29T10:02:01Z</time></trkpt><trkpt lat="44.56986896599767" lon="12.029223102251573"><ele>0.6666666666666666</ele><time>2026-03-29T10:02:02Z</time></trkpt><trkpt lat="44.569870502216226" lon="12.029476354422702"><ele>0.3333333333333333</ele><time>2026-03-29T10:02:03Z</time></trkpt><trkpt lat="44.569875874534404" lon="12.029729398068305"><ele>0.0</ele><time>2026-03-29T10:02:04Z</time></trkpt><trkpt lat="44.56988648433898" lon="12.029980826402838"><ele>0.0</ele><time>2026-03-29T10:02:05Z</time></trkpt><trkpt lat="44.569900369837754" lon="12.03023754708416"><ele>0.0</ele><time>2026-03-29T10:02:06Z</time></trkpt><trkpt lat="44.56991570038002" lon="12.03049098989775"><ele>0.0</ele><time>2026-03-29T10:02:07Z</time></trkpt><trkpt lat="44.56993213609552" lon="12.030746041694252"><ele>0.0</ele><time>2026-03-29T10:02:08Z</time></trkpt><trkpt lat="44.56994933747529" lon="12.03099707087002"><ele>0.0</ele><time>2026-03-29T10:02:09Z</time></trkpt><trkpt lat="44.56996819476576" lon="12.031243650991515"><ele>0.0</ele><time>2026-03-29T10:02:10Z</time></trkpt><trkpt lat="44.569987912646226" lon="12.03147923338071"><ele>0.6666666666666666</ele><time>2026-03-29T10:02:11Z</time></trkpt><trkpt lat="44.57000470305651" lon="12.031713361473546"><ele>1.3333333333333333</ele><time>2026-03-29T10:02:12Z</time></trkpt><trkpt lat="44.57000962294912" lon="12.03194631814069"><ele>2.0</ele><time>2026-03-29T10:02:13Z</time></trkpt><trkpt lat="44.56999622455664" lon="12.032179706356711"><ele>2.0</ele><time>2026-03-29T10:02:14Z</time></trkpt><trkpt lat="44.56996094858445" lon="12.032416737050166"><ele>2.0</ele><time>2026-03-29T10:02:15Z</time></trkpt><trkpt lat="44.56991026787787" lon="12.03264695148401"><ele>2.0</ele><time>2026-03-29T10:02:16Z</time></trkpt><trkpt lat="44.56983781395507" lon="12.032877656848004"><ele>2.0</ele><time>2026-03-29T10:02:17Z</time></trkpt><trkpt lat="44.56974225172988" lon="12.033080681325117"><ele>2.0</ele><time>2026-03-29T10:02:18Z</time></trkpt><trkpt lat="44.56962878098148" lon="12.033275540573765"><ele>2.0</ele><time>2026-03-29T10:02:19Z</time></trkpt><trkpt lat="44.56950971154415" lon="12.033453461294082"><ele>2.0</ele><time>2026-03-29T10:02:20Z</time></trkpt><trkpt lat="44.56938948186909" lon="12.033627317788083"><ele>2.0</ele><time>2026-03-29T10:02:21Z</time></trkpt><trkpt lat="44.5692766359808" lon="12.033797690633174"><ele>2.0</ele><time>2026-03-29T10:02:22Z</time></trkpt><trkpt lat="44.56916828701719" lon="12.03396700661774"><ele>2.0</ele><time>2026-03-29T10:02:23Z</time></trkpt><trkpt lat="44.56906511208524" lon="12.03413022450432"><ele>2.0</ele><time>2026-03-29T10:02:24Z</time></trkpt><trkpt lat="44.56896884135501" lon="12.034282280897058"><ele>2.0</ele><time>2026-03-29T10:02:25Z</time></trkpt><trkpt lat="44.56887625582135" lon="12.034436528677036"><ele>2.0</ele><time>2026-03-29T10:02:26Z</time></trkpt><trkpt lat="44.568762328204656" lon="12.034583227474362"><ele>2.333333333333333</ele><time>2026-03-29T10:02:27Z</time></trkpt><trkpt lat="44.56862435521904" lon="12.034703686751989"><ele>2.6666666666666665</ele><time>2026-03-29T10:02:28Z</time></trkpt><trkpt lat="44.568471115492976" lon="12.034796065674835"><ele>3.0</ele><time>2026-03-29T10:02:29Z</time></trkpt><trkpt lat="44.568313739867364" lon="12.034862586015613"><ele>3.0</ele><time>2026-03-29T10:02:30Z</time></trkpt><trkpt lat="44.56814092890522" lon="12.034927420119944"><ele>3.0</ele><time>2026-03-29T10:02:31Z</time></trkpt><trkpt lat="44.56796336803759" lon="12.034989623181263"><ele>3.0</ele><time>2026-03-29T10:02:32Z</time></trkpt><trkpt lat="44.56778924264916" lon="12.03504180791696"><ele>2.3333333333333335</ele><time>2026-03-29T10:02:33Z</time></trkpt><trkpt lat="44.56761783509137" lon="12.035071308414516"><ele>1.6666666666666665</ele><time>2026-03-29T10:02:34Z</time></trkpt><trkpt lat="44.56743202826909" lon="12.03508849242656"><ele>1.0</ele><time>2026-03-29T10:02:35Z</time></trkpt><trkpt lat="44.567253292889305" lon="12.035086135621057"><ele>1.0</ele><time>2026-03-29T10:02:36Z</time></trkpt><trkpt lat="44.56707771639521" lon="12.035086264110346"><ele>1.0</ele><time>2026-03-29T10:02:37Z</time></trkpt><trkpt lat="44.566905219457226" lon="12.035093521401755"><ele>1.0</ele><time>2026-03-29T10:02:38Z</time></trkpt><trkpt lat="44.56674120739051" lon="12.03511537918624"><ele>1.0</ele><time>2026-03-29T10:02:39Z</time></trkpt><trkpt lat="44.56658642768459" lon="12.03516261699263"><ele>1.0</ele><time>2026-03-29T10:02:40Z</time></trkpt><trkpt lat="44.56644790773832" lon="12.03522611577468"><ele>1.0</ele><time>2026-03-29T10:02:41Z</time></trkpt><trkpt lat="44.56631938949946" lon="12.035277885372981"><ele>1.0</ele><time>2026-03-29T10:02:42Z</time></trkpt><trkpt lat="44.56619384983911" lon="12.035273359650098"><ele>1.0</ele><time>2026-03-29T10:02:43Z</time></trkpt><trkpt lat="44.566074710509724" lon="12.03527996526549"><ele>1.0</ele><time>2026-03-29T10:02:44Z</time></trkpt><trkpt lat="44.565947963599804" lon="12.035243125877654"><ele>1.0</ele><time>2026-03-29T10:02:45Z</time></trkpt><trkpt lat="44.56581986601941" lon="12.035185703132031"><ele>1.0</ele><time>2026-03-29T10:02:46Z</time></trkpt><trkpt lat="44.565697826792224" lon="12.035114691284635"><ele>1.0</ele><time>2026-03-29T10:02:47Z</time></trkpt><trkpt lat="44.565588518095836" lon="12.035031431779608"><ele>1.0</ele><time>2026-03-29T10:02:48Z</time></trkpt><trkpt lat="44.565487856270686" lon="12.034945564597106"><ele>1.0</ele><time>2026-03-29T10:02:49Z</time></trkpt><trkpt lat="44.56538632540843" lon="12.034861870018798"><ele>1.0</ele><time>2026-03-29T10:02:50Z</time></trkpt><trkpt lat="44.565277679679454" lon="12.034785221598353"><ele>1.0</ele><time>2026-03-29T10:02:51Z</time></trkpt><trkpt lat="44.56516118127931" lon="12.034710466719128"><ele>1.0</ele><time>2026-03-29T10:02:52Z</time></trkpt><trkpt lat="44.565048756112354" lon="12.034649462540136"><ele>1.0</ele><time>2026-03-29T10:02:53Z</time></trkpt><trkpt lat="44.56493133918069" lon="12.034615533347585"><ele>1.0</ele><time>2026-03-29T10:02:54Z</time></trkpt><trkpt lat="44.564810942299026" lon="12.03461348083183"><ele>1.0</ele><time>2026-03-29T10:02:55Z</time></trkpt><trkpt lat="44.56470525420756" lon="12.03465235550275"><ele>1.0</ele><time>2026-03-29T10:02:56Z</time></trkpt><trkpt lat="44.56461657654705" lon="12.034719854800127"><ele>1.0</ele><time>2026-03-29T10:02:57Z</time></trkpt><trkpt lat="44.56453829975901" lon="12.034815962274026"><ele>1.0</ele><time>2026-03-29T10:02:58Z</time></trkpt><trkpt lat="44.564459191093526" lon="12.034946125122882"><ele>1.0</ele><time>2026-03-29T10:02:59Z</time></trkpt><trkpt lat="44.564390501652845" lon="12.035099486344183"><ele>0.5</ele><time>2026-03-29T10:03:00Z</time></trkpt><trkpt lat="44.56432212888924" lon="12.035263336786976"><ele>0.0</ele><time>2026-03-29T10:03:01Z</time></trkpt><trkpt lat="44.56424615492701" lon="12.035432888377146"><ele>-0.5</ele><time>2026-03-29T10:03:02Z</time></trkpt><trkpt lat="44.564170961016416" lon="12.035599299763147"><ele>-1.0</ele><time>2026-03-29T10:03:03Z</time></trkpt><trkpt lat="44.56409298955043" lon="12.035770514316338"><ele>-1.3333333333333333</ele><time>2026-03-29T10:03:04Z</time></trkpt><trkpt lat="44.56401028730664" lon="12.035957349336824"><ele>-1.6666666666666665</ele><time>2026-03-29T10:03:05Z</time></trkpt><trkpt lat="44.563920062679735" lon="12.036153824801792"><ele>-2.0</ele><time>2026-03-29T10:03:06Z</time></trkpt><trkpt lat="44.56382964479008" lon="12.036342267951461"><ele>-2.0</ele><time>2026-03-29T10:03:07Z</time></trkpt><trkpt lat="44.56373674063872" lon="12.0365370891018"><ele>-2.0</ele><time>2026-03-29T10:03:08Z</time></trkpt><trkpt lat="44.563640511104715" lon="12.036736908786272"><ele>-2.0</ele><time>2026-03-29T10:03:09Z</time></trkpt><trkpt lat="44.56354144097124" lon="12.036938452108165"><ele>-2.0</ele><time>2026-03-29T10:03:10Z</time></trkpt><trkpt lat="44.563441546334225" lon="12.037150771908728"><ele>-2.0</ele><time>2026-03-29T10:03:11Z</time></trkpt><trkpt lat="44.56333838958791" lon="12.037368103525159"><ele>-2.0</ele><time>2026-03-29T10:03:12Z</time></trkpt><trkpt lat="44.56323299163678" lon="12.03758885988516"><ele>-1.6666666666666665</ele><time>2026-03-29T10:03:13Z</time></trkpt><trkpt lat="44.56313172090859" lon="12.037816392755698"><ele>-1.3333333333333333</ele><time>2026-03-29T10:03:14Z</time></trkpt><trkpt lat="44.5630338808641" lon="12.038038548693205"><ele>-1.0</ele><time>2026-03-29T10:03:15Z</time></trkpt><trkpt lat="44.5629366667618" lon="12.038253333676261"><ele>-1.0</ele><time>2026-03-29T10:03:16Z</time></trkpt><trkpt lat="44.56283999341018" lon="12.038471062743545"><ele>-1.0</ele><time>2026-03-29T10:03:17Z</time></trkpt><trkpt lat="44.56274322896828" lon="12.038695941967116"><ele>-1.0</ele><time>2026-03-29T10:03:18Z</time></trkpt><trkpt lat="44.56264606518226" lon="12.038922953265192"><ele>-0.6666666666666666</ele><time>2026-03-29T10:03:19Z</time></trkpt><trkpt lat="44.56254281183245" lon="12.039145968682266"><ele>-0.3333333333333333</ele><time>2026-03-29T10:03:20Z</time></trkpt><trkpt lat="44.5624418826567" lon="12.039363564670587"><ele>0.0</ele><time>2026-03-29T10:03:21Z</time></trkpt><trkpt lat="44.56234332474868" lon="12.039583798098615"><ele>0.0</ele><time>2026-03-29T10:03:22Z</time></trkpt><trkpt lat="44.562239664128626" lon="12.039806120589295"><ele>0.0</ele><time>2026-03-29T10:03:23Z</time></trkpt><trkpt lat="44.56213462593302" lon="12.040025983431223"><ele>0.0</ele><time>2026-03-29T10:03:24Z</time></trkpt><trkpt lat="44.56203011761425" lon="12.040243453705283"><ele>-1.0</ele><time>2026-03-29T10:03:25Z</time></trkpt><trkpt lat="44.56192729665694" lon="12.040465763169653"><ele>-2.0</ele><time>2026-03-29T10:03:26Z</time></trkpt><trkpt lat="44.56182870067911" lon="12.040683770011542"><ele>-3.0</ele><time>2026-03-29T10:03:27Z</time></trkpt><trkpt lat="44.561725864390965" lon="12.040902449431561"><ele>-3.0</ele><time>2026-03-29T10:03:28Z</time></trkpt><trkpt lat="44.56162155990743" lon="12.041118297521628"><ele>-3.0</ele><time>2026-03-29T10:03:29Z</time></trkpt><trkpt lat="44.56152216673959" lon="12.041332105717037"><ele>-3.0</ele><time>2026-03-29T10:03:30Z</time></trkpt><trkpt lat="44.56141856485072" lon="12.041549812090906"><ele>-2.3333333333333335</ele><time>2026-03-29T10:03:31Z</time></trkpt><trkpt lat="44.56131446409312" lon="12.041762386802747"><ele>-1.6666666666666665</ele><time>2026-03-29T10:03:32Z</time></trkpt><trkpt lat="44.56121012432809" lon="12.041970486319052"><ele>-1.0</ele><time>2026-03-29T10:03:33Z</time></trkpt><trkpt lat="44.56109694845838" lon="12.042177123102258"><ele>-1.0</ele><time>2026-03-29T10:03:34Z</time></trkpt><trkpt lat="44.56097067548695" lon="12.04238479696371"><ele>-1.0</ele><time>2026-03-29T10:03:35Z</time></trkpt><trkpt lat="44.56084250718904" lon="12.042586880952122"><ele>-1.0</ele><time>2026-03-29T10:03:36Z</time></trkpt><trkpt lat="44.560710868696354" lon="12.042785369229552"><ele>-1.0</ele><time>2026-03-29T10:03:37Z</time></trkpt><trkpt lat="44.56057442158505" lon="12.042993660456679"><ele>-1.0</ele><time>2026-03-29T10:03:38Z</time></trkpt><trkpt lat="44.56044063154809" lon="12.043204568753037"><ele>-1.0</ele><time>2026-03-29T10:03:39Z</time></trkpt><trkpt lat="44.560308578065865" lon="12.043414596727443"><ele>-1.0</ele><time>2026-03-29T10:03:40Z</time></trkpt><trkpt lat="44.560175124674984" lon="12.043615969598244"><ele>-1.0</ele><time>2026-03-29T10:03:41Z</time></trkpt><trkpt lat="44.560039375478645" lon="12.043822441220314"><ele>-1.0</ele><time>2026-03-29T10:03:42Z</time></trkpt><trkpt lat="44.5599104544625" lon="12.044021410209629"><ele>-1.0</ele><time>2026-03-29T10:03:43Z</time></trkpt><trkpt lat="44.55978191438198" lon="12.044223369249107"><ele>-1.0</ele><time>2026-03-29T10:03:44Z</time></trkpt><trkpt lat="44.55965981881001" lon="12.044422288771763"><ele>-1.0</ele><time>2026-03-29T10:03:45Z</time></trkpt><trkpt lat="44.55953277776295" lon="12.044628306425583"><ele>-1.0</ele><time>2026-03-29T10:03:46Z</time></trkpt><trkpt lat="44.55940751473729" lon="12.044827036954127"><ele>-1.0</ele><time>2026-03-29T10:03:47Z</time></trkpt><trkpt lat="44.55928133424981" lon="12.045027576729083"><ele>-1.0</ele><time>2026-03-29T10:03:48Z</time></trkpt><trkpt lat="44.559161077464026" lon="12.045221558903341"><ele>-1.0</ele><time>2026-03-29T10:03:49Z</time></trkpt><trkpt lat="44.559039876276515" lon="12.045416297914226"><ele>-1.0</ele><time>2026-03-29T10:03:50Z</time></trkpt><trkpt lat="44.55891752614406" lon="12.04561704959118"><ele>-1.0</ele><time>2026-03-29T10:03:51Z</time></trkpt><trkpt lat="44.55879589671525" lon="12.04581804853368"><ele>-1.0</ele><time>2026-03-29T10:03:52Z</time></trkpt><trkpt lat="44.55867436269358" lon="12.046018959191507"><ele>-1.0</ele><time>2026-03-29T10:03:53Z</time></trkpt><trkpt lat="44.55855272312606" lon="12.046220062478687"><ele>-1.0</ele><time>2026-03-29T10:03:54Z</time></trkpt><trkpt lat="44.55842975507043" lon="12.04641956649793"><ele>-1.0</ele><time>2026-03-29T10:03:55Z</time></trkpt><trkpt lat="44.558304289913096" lon="12.04662030508939"><ele>-1.0</ele><time>2026-03-29T10:03:56Z</time></trkpt><trkpt lat="44.55817858039856" lon="12.046822408478327"><ele>-1.0</ele><time>2026-03-29T10:03:57Z</time></trkpt><trkpt lat="44.558054979841586" lon="12.047023683501761"><ele>-1.0</ele><time>2026-03-29T10:03:58Z</time></trkpt><trkpt lat="44.55793203938244" lon="12.047224232041065"><ele>-1.0</ele><time>2026-03-29T10:03:59Z</time></trkpt><trkpt lat="44.55780876596263" lon="12.04742442560253"><ele>-1.0</ele><time>2026-03-29T10:04:00Z</time></trkpt><trkpt lat="44.55768540106193" lon="12.047624731288373"><ele>-1.6666666666666665</ele><time>2026-03-29T10:04:01Z</time></trkpt><trkpt lat="44.557563765493555" lon="12.047825581046663"><ele>-2.3333333333333335</ele><time>2026-03-29T10:04:02Z</time></trkpt><trkpt lat="44.55744092939127" lon="12.048029132180494"><ele>-3.0</ele><time>2026-03-29T10:04:03Z</time></trkpt><trkpt lat="44.55731714106312" lon="12.048230654505218"><ele>-2.6666666666666665</ele><time>2026-03-29T10:04:04Z</time></trkpt><trkpt lat="44.55719023161695" lon="12.048432756816192"><ele>-2.333333333333333</ele><time>2026-03-29T10:04:05Z</time></trkpt><trkpt lat="44.5570656263769" lon="12.048633404306065"><ele>-2.0</ele><time>2026-03-29T10:04:06Z</time></trkpt><trkpt lat="44.55694472849133" lon="12.048835381177277"><ele>-1.6666666666666665</ele><time>2026-03-29T10:04:07Z</time></trkpt><trkpt lat="44.55682225836093" lon="12.049036815304177"><ele>-1.3333333333333333</ele><time>2026-03-29T10:04:08Z</time></trkpt><trkpt lat="44.55669639573579" lon="12.049238125289891"><ele>-1.0</ele><time>2026-03-29T10:04:09Z</time></trkpt><trkpt lat="44.55657014121027" lon="12.049445542770963"><ele>-1.0</ele><time>2026-03-29T10:04:10Z</time></trkpt><trkpt lat="44.55644281945973" lon="12.049654819123413"><ele>-1.0</ele><time>2026-03-29T10:04:11Z</time></trkpt><trkpt lat="44.55631581978568" lon="12.04986767625505"><ele>-1.0</ele><time>2026-03-29T10:04:12Z</time></trkpt><trkpt lat="44.5561860537424" lon="12.050083784240707"><ele>-1.3333333333333333</ele><time>2026-03-29T10:04:13Z</time></trkpt><trkpt lat="44.55605527639748" lon="12.050300000992118"><ele>-1.6666666666666665</ele><time>2026-03-29T10:04:14Z</time></trkpt><trkpt lat="44.55592434051299" lon="12.050514077444666"><ele>-2.0</ele><time>2026-03-29T10:04:15Z</time></trkpt><trkpt lat="44.55579274329912" lon="12.050731913630214"><ele>-2.333333333333333</ele><time>2026-03-29T10:04:16Z</time></trkpt><trkpt lat="44.55566099545266" lon="12.050948429888932"><ele>-2.6666666666666665</ele><time>2026-03-29T10:04:17Z</time></trkpt><trkpt lat="44.55552707049723" lon="12.051166433921596"><ele>-3.0</ele><time>2026-03-29T10:04:18Z</time></trkpt><trkpt lat="44.55539419145152" lon="12.05138466763433"><ele>-2.3333333333333335</ele><time>2026-03-29T10:04:19Z</time></trkpt><trkpt lat="44.555262422343596" lon="12.051604376377215"><ele>-1.6666666666666665</ele><time>2026-03-29T10:04:20Z</time></trkpt><trkpt lat="44.55512773597016" lon="12.051825074142712"><ele>-1.0</ele><time>2026-03-29T10:04:21Z</time></trkpt><trkpt lat="44.554993561854175" lon="12.052045560262954"><ele>-1.0</ele><time>2026-03-29T10:04:22Z</time></trkpt><trkpt lat="44.55485955197749" lon="12.05226676428131"><ele>-1.0</ele><time>2026-03-29T10:04:23Z</time></trkpt><trkpt lat="44.55472401060569" lon="12.05248881824904"><ele>-1.0</ele><time>2026-03-29T10:04:24Z</time></trkpt><trkpt lat="44.55458788655812" lon="12.05271087960013"><ele>-1.0</ele><time>2026-03-29T10:04:25Z</time></trkpt><trkpt lat="44.55445189940907" lon="12.052933545684606"><ele>-1.0</ele><time>2026-03-29T10:04:26Z</time></trkpt><trkpt lat="44.554314583604906" lon="12.053156870979516"><ele>-1.0</ele><time>2026-03-29T10:04:27Z</time></trkpt><trkpt lat="44.554176234428695" lon="12.053384198658431"><ele>-1.0</ele><time>2026-03-29T10:04:28Z</time></trkpt><trkpt lat="44.554034271360436" lon="12.053615963988545"><ele>-1.0</ele><time>2026-03-29T10:04:29Z</time></trkpt><trkpt lat="44.55389128266268" lon="12.053850630401154"><ele>-1.0</ele><time>2026-03-29T10:04:30Z</time></trkpt><trkpt lat="44.55375136204236" lon="12.054083936689679"><ele>-1.0</ele><time>2026-03-29T10:04:31Z</time></trkpt><trkpt lat="44.553612342221705" lon="12.054315059933895"><ele>-1.0</ele><time>2026-03-29T10:04:32Z</time></trkpt><trkpt lat="44.553473741891054" lon="12.054542750633308"><ele>-1.0</ele><time>2026-03-29T10:04:33Z</time></trkpt><trkpt lat="44.55333516340185" lon="12.054772902789102"><ele>-1.6666666666666665</ele><time>2026-03-29T10:04:34Z</time></trkpt><trkpt lat="44.55319591364099" lon="12.055000197115888"><ele>-2.3333333333333335</ele><time>2026-03-29T10:04:35Z</time></trkpt><trkpt lat="44.55305520833155" lon="12.055232627860436"><ele>-3.0</ele><time>2026-03-29T10:04:36Z</time></trkpt><trkpt lat="44.55291403942307" lon="12.055463443564246"><ele>-2.3333333333333335</ele><time>2026-03-29T10:04:37Z</time></trkpt><trkpt lat="44.552776413008296" lon="12.055692458830622"><ele>-1.6666666666666665</ele><time>2026-03-29T10:04:38Z</time></trkpt><trkpt lat="44.55263640490521" lon="12.055922403606205"><ele>-1.0</ele><time>2026-03-29T10:04:39Z</time></trkpt><trkpt lat="44.55249737973562" lon="12.056152775104477"><ele>-1.0</ele><time>2026-03-29T10:04:40Z</time></trkpt><trkpt lat="44.55235847659647" lon="12.056380650822556"><ele>-1.0</ele><time>2026-03-29T10:04:41Z</time></trkpt><trkpt lat="44.552218840463404" lon="12.056607164407785"><ele>-1.0</ele><time>2026-03-29T10:04:42Z</time></trkpt><trkpt lat="44.55208192288688" lon="12.056832578385576"><ele>-1.3333333333333333</ele><time>2026-03-29T10:04:43Z</time></trkpt><trkpt lat="44.551945230587876" lon="12.057060731401158"><ele>-1.6666666666666665</ele><time>2026-03-29T10:04:44Z</time></trkpt><trkpt lat="44.5518107871626" lon="12.057285249497946"><ele>-2.0</ele><time>2026-03-29T10:04:45Z</time></trkpt><trkpt lat="44.55167393743389" lon="12.057514299751258"><ele>-2.333333333333333</ele><time>2026-03-29T10:04:46Z</time></trkpt><trkpt lat="44.55153610006727" lon="12.05773955739844"><ele>-2.6666666666666665</ele><time>2026-03-29T10:04:47Z</time></trkpt><trkpt lat="44.5513975110362" lon="12.057965421194904"><ele>-3.0</ele><time>2026-03-29T10:04:48Z</time></trkpt><trkpt lat="44.55125882326161" lon="12.05819197922841"><ele>-2.3333333333333335</ele><time>2026-03-29T10:04:49Z</time></trkpt><trkpt lat="44.55112250919585" lon="12.058416835280317"><ele>-1.6666666666666665</ele><time>2026-03-29T10:04:50Z</time></trkpt><trkpt lat="44.550986296477426" lon="12.058639748999102"><ele>-1.0</ele><time>2026-03-29T10:04:51Z</time></trkpt><trkpt lat="44.550852118074936" lon="12.05885444307727"><ele>-1.0</ele><time>2026-03-29T10:04:52Z</time></trkpt><trkpt lat="44.55071964454107" lon="12.05906652174975"><ele>-1.0</ele><time>2026-03-29T10:04:53Z</time></trkpt><trkpt lat="44.55059692068505" lon="12.059267502927455"><ele>-1.0</ele><time>2026-03-29T10:04:54Z</time></trkpt><trkpt lat="44.550483832683355" lon="12.059457516195197"><ele>-1.0</ele><time>2026-03-29T10:04:55Z</time></trkpt><trkpt lat="44.55037183856715" lon="12.059640735758508"><ele>-1.0</ele><time>2026-03-29T10:04:56Z</time></trkpt><trkpt lat="44.55027314326179" lon="12.05980473571772"><ele>-1.0</ele><time>2026-03-29T10:04:57Z</time></trkpt><trkpt lat="44.55016921017314" lon="12.059967076537019"><ele>-1.0</ele><time>2026-03-29T10:04:58Z</time></trkpt><trkpt lat="44.55006694777538" lon="12.060127324849526"><ele>-1.0</ele><time>2026-03-29T10:04:59Z</time></trkpt><trkpt lat="44.54995878892357" lon="12.060293160058821"><ele>-1.0</ele><time>2026-03-29T10:05:00Z</time></trkpt><trkpt lat="44.549848348208926" lon="12.060459571320282"><ele>-1.0</ele><time>2026-03-29T10:05:01Z</time></trkpt><trkpt lat="44.5497396922488" lon="12.060624504684139"><ele>-1.0</ele><time>2026-03-29T10:05:02Z</time></trkpt><trkpt lat="44.549630010403035" lon="12.06078736242462"><ele>-1.0</ele><time>2026-03-29T10:05:03Z</time></trkpt><trkpt lat="44.549518349385544" lon="12.060952705501277"><ele>0.0</ele><time>2026-03-29T10:05:04Z</time></trkpt><trkpt lat="44.54940694745372" lon="12.061116021427814"><ele>1.0</ele><time>2026-03-29T10:05:05Z</time></trkpt><trkpt lat="44.549297884320886" lon="12.061286196008917"><ele>2.0</ele><time>2026-03-29T10:05:06Z</time></trkpt><trkpt lat="44.54918802451989" lon="12.061457019809204"><ele>1.75</ele><time>2026-03-29T10:05:07Z</time></trkpt><trkpt lat="44.54908611062422" lon="12.06161918104365"><ele>1.5</ele><time>2026-03-29T10:05:08Z</time></trkpt><trkpt lat="44.548993383467725" lon="12.061768316584548"><ele>1.25</ele><time>2026-03-29T10:05:09Z</time></trkpt><trkpt lat="44.548910441683404" lon="12.061903417916868"><ele>1.0</ele><time>2026-03-29T10:05:10Z</time></trkpt><trkpt lat="44.5488375919053" lon="12.062022066967819"><ele>1.0</ele><time>2026-03-29T10:05:11Z</time></trkpt><trkpt lat="44.548767870696736" lon="12.062151021724913"><ele>1.0</ele><time>2026-03-29T10:05:12Z</time></trkpt><trkpt lat="44.54871108305683" lon="12.062278366305001"><ele>1.0</ele><time>2026-03-29T10:05:13Z</time></trkpt><trkpt lat="44.54866564169021" lon="12.062418247848072"><ele>1.0</ele><time>2026-03-29T10:05:14Z</time></trkpt><trkpt lat="44.54863351553286" lon="12.062571954460237"><ele>1.0</ele><time>2026-03-29T10:05:15Z</time></trkpt><trkpt lat="44.54861955164107" lon="12.06272122957285"><ele>1.1666666666666665</ele><time>2026-03-29T10:05:16Z</time></trkpt><trkpt lat="44.54862078782542" lon="12.062858737657448"><ele>1.3333333333333333</ele><time>2026-03-29T10:05:17Z</time></trkpt><trkpt lat="44.54862762655513" lon="12.063004144572682"><ele>1.5</ele><time>2026-03-29T10:05:18Z</time></trkpt><trkpt lat="44.54863852440953" lon="12.063144032205518"><ele>1.6666666666666665</ele><time>2026-03-29T10:05:19Z</time></trkpt><trkpt lat="44.548648929536746" lon="12.063260130986958"><ele>1.8333333333333333</ele><time>2026-03-29T10:05:20Z</time></trkpt><trkpt lat="44.54866108871785" lon="12.063347292398113"><ele>2.0</ele><time>2026-03-29T10:05:21Z</time></trkpt><trkpt lat="44.5486684702848" lon="12.06343532007833"><ele>1.6</ele><time>2026-03-29T10:05:23Z</time></trkpt><trkpt lat="44.548736967373905" lon="12.063562904637323"><ele>1.2000000000000002</ele><time>2026-03-29T10:05:25Z</time></trkpt><trkpt lat="44.54880549597625" lon="12.063689430480334"><ele>0.8</ele><time>2026-03-29T10:05:27Z</time></trkpt><trkpt lat="44.548848269424745" lon="12.063761575976146"><ele>0.4</ele><time>2026-03-29T10:05:28Z</time></trkpt><trkpt lat="44.548914171906375" lon="12.063819928171956"><ele>0.0</ele><time>2026-03-29T10:05:29Z</time></trkpt><trkpt lat="44.54899895113566" lon="12.063853382853868"><ele>0.0</ele><time>2026-03-29T10:05:30Z</time></trkpt><trkpt lat="44.54908990043236" lon="12.063866311836511"><ele>0.0</ele><time>2026-03-29T10:05:31Z</time></trkpt><trkpt lat="44.54918457532534" lon="12.063867143921147"><ele>0.0</ele><time>2026-03-29T10:05:32Z</time></trkpt><trkpt lat="44.54927858649375" lon="12.063874037391496"><ele>0.0</ele><time>2026-03-29T10:05:33Z</time></trkpt><trkpt lat="44.54936312580422" lon="12.063895302148877"><ele>0.0</ele><time>2026-03-29T10:05:34Z</time></trkpt><trkpt lat="44.549445364618855" lon="12.063949517572038"><ele>0.0</ele><time>2026-03-29T10:05:35Z</time></trkpt><trkpt lat="44.54951873509263" lon="12.064048806751535"><ele>0.0</ele><time>2026-03-29T10:05:36Z</time></trkpt><trkpt lat="44.54957031671665" lon="12.064193091417458"><ele>0.0</ele><time>2026-03-29T10:05:37Z</time></trkpt><trkpt lat="44.5495875313859" lon="12.064352964203323"><ele>0.0</ele><time>2026-03-29T10:05:38Z</time></trkpt><trkpt lat="44.54959457244443" lon="12.064522243183543"><ele>0.0</ele><time>2026-03-29T10:05:39Z</time></trkpt><trkpt lat="44.5496049264663" lon="12.064683709597755"><ele>0.0</ele><time>2026-03-29T10:05:40Z</time></trkpt><trkpt lat="44.549644608206115" lon="12.064827306978325"><ele>0.0</ele><time>2026-03-29T10:05:41Z</time></trkpt><trkpt lat="44.549705588799824" lon="12.064955535879347"><ele>0.0</ele><time>2026-03-29T10:05:42Z</time></trkpt><trkpt lat="44.549797956308915" lon="12.065096748848271"><ele>0.5</ele><time>2026-03-29T10:05:43Z</time></trkpt><trkpt lat="44.54989010172976" lon="12.065218733797112"><ele>1.0</ele><time>2026-03-29T10:05:44Z</time></trkpt><trkpt lat="44.54999139923172" lon="12.06534018754225"><ele>1.5</ele><time>2026-03-29T10:05:45Z</time></trkpt><trkpt lat="44.55010555178034" lon="12.065500815501796"><ele>2.0</ele><time>2026-03-29T10:05:46Z</time></trkpt><trkpt lat="44.550252578810294" lon="12.065667749688433"><ele>1.6666666666666665</ele><time>2026-03-29T10:05:47Z</time></trkpt><trkpt lat="44.55041097704375" lon="12.065819851266735"><ele>1.3333333333333333</ele><time>2026-03-29T10:05:48Z</time></trkpt><trkpt lat="44.55057491867227" lon="12.065973371504839"><ele>1.0</ele><time>2026-03-29T10:05:49Z</time></trkpt><trkpt lat="44.550742983621525" lon="12.06612464507973"><ele>1.0</ele><time>2026-03-29T10:05:50Z</time></trkpt><trkpt lat="44.55089597243553" lon="12.066248859922954"><ele>1.0</ele><time>2026-03-29T10:05:51Z</time></trkpt><trkpt lat="44.55103569940678" lon="12.066349620063455"><ele>1.0</ele><time>2026-03-29T10:05:52Z</time></trkpt><trkpt lat="44.55117904426847" lon="12.06644131163624"><ele>0.6666666666666666</ele><time>2026-03-29T10:05:53Z</time></trkpt><trkpt lat="44.55132388847663" lon="12.066524644493283"><ele>0.3333333333333333</ele><time>2026-03-29T10:05:54Z</time></trkpt><trkpt lat="44.55147433276743" lon="12.066602581183455"><ele>0.0</ele><time>2026-03-29T10:05:55Z</time></trkpt><trkpt lat="44.55163397600211" lon="12.066674190807861"><ele>0.3333333333333333</ele><time>2026-03-29T10:05:56Z</time></trkpt><trkpt lat="44.55180153796267" lon="12.066744283028555"><ele>0.6666666666666666</ele><time>2026-03-29T10:05:57Z</time></trkpt><trkpt lat="44.55196066806343" lon="12.066798774621237"><ele>1.0</ele><time>2026-03-29T10:05:58Z</time></trkpt><trkpt lat="44.552123641300035" lon="12.066839494832328"><ele>1.0</ele><time>2026-03-29T10:05:59Z</time></trkpt><trkpt lat="44.552285758350436" lon="12.0668707645961"><ele>1.0</ele><time>2026-03-29T10:06:00Z</time></trkpt><trkpt lat="44.55244809380705" lon="12.066898134234531"><ele>1.0</ele><time>2026-03-29T10:06:01Z</time></trkpt><trkpt lat="44.552615145595446" lon="12.066919136308226"><ele>1.0</ele><time>2026-03-29T10:06:02Z</time></trkpt><trkpt lat="44.552782255820716" lon="12.066924526385439"><ele>1.0</ele><time>2026-03-29T10:06:03Z</time></trkpt><trkpt lat="44.55295654193936" lon="12.066916430142747"><ele>1.0</ele><time>2026-03-29T10:06:04Z</time></trkpt><trkpt lat="44.55313388911668" lon="12.066902936204944"><ele>0.6666666666666666</ele><time>2026-03-29T10:06:05Z</time></trkpt><trkpt lat="44.553306332563764" lon="12.066888769922937"><ele>0.3333333333333333</ele><time>2026-03-29T10:06:06Z</time></trkpt><trkpt lat="44.55347529292235" lon="12.066860649924454"><ele>0.0</ele><time>2026-03-29T10:06:07Z</time></trkpt><trkpt lat="44.553648580447856" lon="12.066832553948304"><ele>0.3333333333333333</ele><time>2026-03-29T10:06:08Z</time></trkpt><trkpt lat="44.55381667858013" lon="12.06680070151988"><ele>0.6666666666666666</ele><time>2026-03-29T10:06:09Z</time></trkpt><trkpt lat="44.55398255363669" lon="12.066768592346586"><ele>1.0</ele><time>2026-03-29T10:06:10Z</time></trkpt><trkpt lat="44.554143380267114" lon="12.066734931247964"><ele>1.0</ele><time>2026-03-29T10:06:11Z</time></trkpt><trkpt lat="44.55431255757659" lon="12.066698287083794"><ele>1.0</ele><time>2026-03-29T10:06:12Z</time></trkpt><trkpt lat="44.55447530955216" lon="12.066663780344866"><ele>1.0</ele><time>2026-03-29T10:06:13Z</time></trkpt><trkpt lat="44.55463373852697" lon="12.0666322893116"><ele>0.75</ele><time>2026-03-29T10:06:14Z</time></trkpt><trkpt lat="44.55478915314092" lon="12.066598827407399"><ele>0.5</ele><time>2026-03-29T10:06:15Z</time></trkpt><trkpt lat="44.55493534741043" lon="12.066561809698449"><ele>0.25</ele><time>2026-03-29T10:06:16Z</time></trkpt><trkpt lat="44.55505993074744" lon="12.066530996471"><ele>0.0</ele><time>2026-03-29T10:06:17Z</time></trkpt><trkpt lat="44.55518711027198" lon="12.066501037989415"><ele>0.0</ele><time>2026-03-29T10:06:18Z</time></trkpt><trkpt lat="44.55531629596304" lon="12.066463155484074"><ele>0.0</ele><time>2026-03-29T10:06:19Z</time></trkpt><trkpt lat="44.55544610030301" lon="12.066428885040876"><ele>0.0</ele><time>2026-03-29T10:06:20Z</time></trkpt><trkpt lat="44.555570550053076" lon="12.066392867537203"><ele>0.0</ele><time>2026-03-29T10:06:21Z</time></trkpt><trkpt lat="44.55569665330754" lon="12.066355034998717"><ele>0.0</ele><time>2026-03-29T10:06:22Z</time></trkpt><trkpt lat="44.555822055784176" lon="12.066326594166101"><ele>0.0</ele><time>2026-03-29T10:06:23Z</time></trkpt><trkpt lat="44.555959343590494" lon="12.066321053444703"><ele>0.0</ele><time>2026-03-29T10:06:24Z</time></trkpt><trkpt lat="44.55610530386256" lon="12.066330811655309"><ele>0.0</ele><time>2026-03-29T10:06:25Z</time></trkpt><trkpt lat="44.55625867610544" lon="12.066362479133765"><ele>0.0</ele><time>2026-03-29T10:06:26Z</time></trkpt><trkpt lat="44.55640899322348" lon="12.066392740984877"><ele>0.0</ele><time>2026-03-29T10:06:27Z</time></trkpt><trkpt lat="44.556565599811556" lon="12.066414720068323"><ele>0.0</ele><time>2026-03-29T10:06:28Z</time></trkpt><trkpt lat="44.55670915786761" lon="12.066435549538433"><ele>0.0</ele><time>2026-03-29T10:06:29Z</time></trkpt><trkpt lat="44.55685753289988" lon="12.066454642221876"><ele>0.0</ele><time>2026-03-29T10:06:30Z</time></trkpt><trkpt lat="44.557001735474145" lon="12.066466500412142"><ele>0.0</ele><time>2026-03-29T10:06:31Z</time></trkpt><trkpt lat="44.55714518647391" lon="12.066479095747674"><ele>0.0</ele><time>2026-03-29T10:06:32Z</time></trkpt><trkpt lat="44.55729086418345" lon="12.066494215405665"><ele>0.0</ele><time>2026-03-29T10:06:33Z</time></trkpt><trkpt lat="44.55743059612157" lon="12.066518085088807"><ele>0.0</ele><time>2026-03-29T10:06:34Z</time></trkpt><trkpt lat="44.55756107462632" lon="12.066531165901905"><ele>0.0</ele><time>2026-03-29T10:06:35Z</time></trkpt><trkpt lat="44.557694584468955" lon="12.066563911396397"><ele>0.0</ele><time>2026-03-29T10:06:36Z</time></trkpt><trkpt lat="44.55782540471263" lon="12.066616001359414"><ele>-0.25</ele><time>2026-03-29T10:06:37Z</time></trkpt><trkpt lat="44.557959838912716" lon="12.066684901750202"><ele>-0.5</ele><time>2026-03-29T10:06:38Z</time></trkpt><trkpt lat="44.55809258065928" lon="12.066773233676525"><ele>-0.75</ele><time>2026-03-29T10:06:39Z</time></trkpt><trkpt lat="44.55822687236132" lon="12.066878887277834"><ele>-1.0</ele><time>2026-03-29T10:06:40Z</time></trkpt><trkpt lat="44.55837000573502" lon="12.067000656020227"><ele>-1.0</ele><time>2026-03-29T10:06:41Z</time></trkpt><trkpt lat="44.558504423872805" lon="12.067126175931284"><ele>-1.0</ele><time>2026-03-29T10:06:42Z</time></trkpt><trkpt lat="44.558635777455656" lon="12.067247785273041"><ele>-1.0</ele><time>2026-03-29T10:06:43Z</time></trkpt><trkpt lat="44.558765641663406" lon="12.067372480755502"><ele>-0.6666666666666666</ele><time>2026-03-29T10:06:44Z</time></trkpt><trkpt lat="44.5588969380154" lon="12.06749675564228"><ele>-0.3333333333333333</ele><time>2026-03-29T10:06:45Z</time></trkpt><trkpt lat="44.55903320769892" lon="12.067621485494398"><ele>0.0</ele><time>2026-03-29T10:06:46Z</time></trkpt><trkpt lat="44.55916379818379" lon="12.06774681249966"><ele>0.0</ele><time>2026-03-29T10:06:47Z</time></trkpt><trkpt lat="44.55930072671935" lon="12.067873156964918"><ele>0.0</ele><time>2026-03-29T10:06:48Z</time></trkpt><trkpt lat="44.559432978240906" lon="12.068000981048426"><ele>0.0</ele><time>2026-03-29T10:06:49Z</time></trkpt><trkpt lat="44.559554832848484" lon="12.068114743605548"><ele>0.0</ele><time>2026-03-29T10:06:50Z</time></trkpt><trkpt lat="44.559668645238915" lon="12.068221873512483"><ele>0.0</ele><time>2026-03-29T10:06:51Z</time></trkpt><trkpt lat="44.55977498126238" lon="12.06832531963854"><ele>0.0</ele><time>2026-03-29T10:06:52Z</time></trkpt><trkpt lat="44.559876194693246" lon="12.068439411723872"><ele>0.0</ele><time>2026-03-29T10:06:53Z</time></trkpt><trkpt lat="44.559979741773375" lon="12.068571863034645"><ele>0.0</ele><time>2026-03-29T10:06:54Z</time></trkpt><trkpt lat="44.560060092422944" lon="12.068741262276058"><ele>0.0</ele><time>2026-03-29T10:06:55Z</time></trkpt><trkpt lat="44.56011960266227" lon="12.068926837750752"><ele>0.0</ele><time>2026-03-29T10:06:56Z</time></trkpt><trkpt lat="44.56016972526641" lon="12.069123782868457"><ele>0.0</ele><time>2026-03-29T10:06:57Z</time></trkpt><trkpt lat="44.560224162707044" lon="12.069330288148658"><ele>0.3333333333333333</ele><time>2026-03-29T10:06:58Z</time></trkpt><trkpt lat="44.560281175503846" lon="12.069543541532033"><ele>0.6666666666666666</ele><time>2026-03-29T10:06:59Z</time></trkpt><trkpt lat="44.56034386028309" lon="12.069763508445584"><ele>1.0</ele><time>2026-03-29T10:07:00Z</time></trkpt><trkpt lat="44.560412900835466" lon="12.069983749748662"><ele>0.3333333333333333</ele><time>2026-03-29T10:07:01Z</time></trkpt><trkpt lat="44.56048087681023" lon="12.070203781465368"><ele>-0.3333333333333333</ele><time>2026-03-29T10:07:02Z</time></trkpt><trkpt lat="44.56055019202851" lon="12.070434430496121"><ele>-1.0</ele><time>2026-03-29T10:07:03Z</time></trkpt><trkpt lat="44.56061850522404" lon="12.070672235449342"><ele>-1.0</ele><time>2026-03-29T10:07:04Z</time></trkpt><trkpt lat="44.56068653005515" lon="12.070914634150375"><ele>-1.0</ele><time>2026-03-29T10:07:05Z</time></trkpt><trkpt lat="44.560758800135" lon="12.071164239671019"><ele>-1.0</ele><time>2026-03-29T10:07:06Z</time></trkpt><trkpt lat="44.560833536661576" lon="12.071422191565054"><ele>-0.6666666666666666</ele><time>2026-03-29T10:07:07Z</time></trkpt><trkpt lat="44.560907774289596" lon="12.071673272131068"><ele>-0.3333333333333333</ele><time>2026-03-29T10:07:08Z</time></trkpt><trkpt lat="44.56097602349382" lon="12.071904986280215"><ele>0.0</ele><time>2026-03-29T10:07:09Z</time></trkpt><trkpt lat="44.56103829053501" lon="12.072117221166147"><ele>0.0</ele><time>2026-03-29T10:07:10Z</time></trkpt><trkpt lat="44.561098038224" lon="12.0723165634388"><ele>0.0</ele><time>2026-03-29T10:07:11Z</time></trkpt><trkpt lat="44.56115935579995" lon="12.072518944600944"><ele>0.0</ele><time>2026-03-29T10:07:12Z</time></trkpt><trkpt lat="44.561221403772116" lon="12.072720233804981"><ele>0.0</ele><time>2026-03-29T10:07:13Z</time></trkpt><trkpt lat="44.561282989547806" lon="12.072927499790609"><ele>0.0</ele><time>2026-03-29T10:07:14Z</time></trkpt><trkpt lat="44.56133973436282" lon="12.073128298856929"><ele>0.0</ele><time>2026-03-29T10:07:15Z</time></trkpt><trkpt lat="44.5613936483527" lon="12.073313650385332"><ele>-0.5</ele><time>2026-03-29T10:07:16Z</time></trkpt><trkpt lat="44.56144508640938" lon="12.073482685077867"><ele>-1.0</ele><time>2026-03-29T10:07:17Z</time></trkpt><trkpt lat="44.561497495873574" lon="12.073649019601051"><ele>-1.5</ele><time>2026-03-29T10:07:18Z</time></trkpt><trkpt lat="44.56154317777306" lon="12.073807464247471"><ele>-2.0</ele><time>2026-03-29T10:07:19Z</time></trkpt><trkpt lat="44.56158355876119" lon="12.07395206683476"><ele>-2.0</ele><time>2026-03-29T10:07:20Z</time></trkpt><trkpt lat="44.561620293107985" lon="12.074087517406651"><ele>-2.0</ele><time>2026-03-29T10:07:21Z</time></trkpt><trkpt lat="44.56165264940393" lon="12.074209767571743"><ele>-2.0</ele><time>2026-03-29T10:07:22Z</time></trkpt><trkpt lat="44.56169122129189" lon="12.074319277757013"><ele>-2.0</ele><time>2026-03-29T10:07:23Z</time></trkpt><trkpt lat="44.56175691879069" lon="12.074428223246684"><ele>-2.0</ele><time>2026-03-29T10:07:24Z</time></trkpt><trkpt lat="44.56185268067493" lon="12.074523376764658"><ele>-1.75</ele><time>2026-03-29T10:07:25Z</time></trkpt><trkpt lat="44.56196982435428" lon="12.07459005749783"><ele>-1.5</ele><time>2026-03-29T10:07:26Z</time></trkpt><trkpt lat="44.56210008055523" lon="12.074621696920852"><ele>-1.25</ele><time>2026-03-29T10:07:27Z</time></trkpt><trkpt lat="44.56223284906873" lon="12.074634654065319"><ele>-1.0</ele><time>2026-03-29T10:07:28Z</time></trkpt><trkpt lat="44.562358679354965" lon="12.074661078270204"><ele>-1.0</ele><time>2026-03-29T10:07:29Z</time></trkpt><trkpt lat="44.562490110476176" lon="12.074688501023731"><ele>-1.0</ele><time>2026-03-29T10:07:30Z</time></trkpt><trkpt lat="44.56262673133752" lon="12.074710568684763"><ele>-1.0</ele><time>2026-03-29T10:07:31Z</time></trkpt><trkpt lat="44.56276643128527" lon="12.074733753321254"><ele>-1.0</ele><time>2026-03-29T10:07:32Z</time></trkpt><trkpt lat="44.56290500224407" lon="12.074754895024174"><ele>-0.75</ele><time>2026-03-29T10:07:33Z</time></trkpt><trkpt lat="44.56304072810901" lon="12.074775975824425"><ele>-0.5</ele><time>2026-03-29T10:07:34Z</time></trkpt><trkpt lat="44.56318283039606" lon="12.07479773772725"><ele>-0.25</ele><time>2026-03-29T10:07:35Z</time></trkpt><trkpt lat="44.56332406873709" lon="12.074818831019181"><ele>0.0</ele><time>2026-03-29T10:07:36Z</time></trkpt><trkpt lat="44.56345893433761" lon="12.074843742261901"><ele>0.0</ele><time>2026-03-29T10:07:37Z</time></trkpt><trkpt lat="44.56358267331823" lon="12.074864389138702"><ele>0.0</ele><time>2026-03-29T10:07:38Z</time></trkpt><trkpt lat="44.56370189120115" lon="12.074883274778612"><ele>0.0</ele><time>2026-03-29T10:07:39Z</time></trkpt><trkpt lat="44.56381712917827" lon="12.07490686121632"><ele>0.0</ele><time>2026-03-29T10:07:40Z</time></trkpt><trkpt lat="44.563933027126275" lon="12.074938269134703"><ele>-0.25</ele><time>2026-03-29T10:07:41Z</time></trkpt><trkpt lat="44.56405160894373" lon="12.074972377001975"><ele>-0.5</ele><time>2026-03-29T10:07:42Z</time></trkpt><trkpt lat="44.56416912614208" lon="12.075004961095267"><ele>-0.75</ele><time>2026-03-29T10:07:43Z</time></trkpt><trkpt lat="44.56428823701849" lon="12.07503671032385"><ele>-1.0</ele><time>2026-03-29T10:07:44Z</time></trkpt><trkpt lat="44.56440886110748" lon="12.075069416904823"><ele>-1.0</ele><time>2026-03-29T10:07:45Z</time></trkpt><trkpt lat="44.564526560293565" lon="12.075099673114622"><ele>-1.0</ele><time>2026-03-29T10:07:46Z</time></trkpt><trkpt lat="44.56463558370458" lon="12.075129365569596"><ele>-1.0</ele><time>2026-03-29T10:07:47Z</time></trkpt><trkpt lat="44.56473278681789" lon="12.075156825373726"><ele>-1.0</ele><time>2026-03-29T10:07:48Z</time></trkpt><trkpt lat="44.56482639195412" lon="12.075179708375934"><ele>-1.0</ele><time>2026-03-29T10:07:49Z</time></trkpt><trkpt lat="44.5649124511998" lon="12.075202191828364"><ele>-0.9999999999999999</ele><time>2026-03-29T10:07:50Z</time></trkpt><trkpt lat="44.56499407496654" lon="12.075223766009868"><ele>-1.0</ele><time>2026-03-29T10:07:51Z</time></trkpt><trkpt lat="44.56506999975064" lon="12.07524521871657"><ele>-1.0</ele><time>2026-03-29T10:07:52Z</time></trkpt><trkpt lat="44.565155288767656" lon="12.075267033600126"><ele>-1.0</ele><time>2026-03-29T10:07:53Z</time></trkpt><trkpt lat="44.56523877379497" lon="12.075291265533611"><ele>-0.9999999999999999</ele><time>2026-03-29T10:07:54Z</time></trkpt><trkpt lat="44.565320262020784" lon="12.075313139744052"><ele>-1.0</ele><time>2026-03-29T10:07:55Z</time></trkpt><trkpt lat="44.56539541940771" lon="12.075333392321495"><ele>-0.9999999999999999</ele><time>2026-03-29T10:07:56Z</time></trkpt><trkpt lat="44.56548041690981" lon="12.075357190524286"><ele>-1.0</ele><time>2026-03-29T10:07:57Z</time></trkpt><trkpt lat="44.56557151820416" lon="12.075375647023932"><ele>-1.0</ele><time>2026-03-29T10:07:58Z</time></trkpt><trkpt lat="44.565640923700556" lon="12.075403675907555"><ele>-1.0</ele><time>2026-03-29T10:07:59Z</time></trkpt><trkpt lat="44.56571205700398" lon="12.075424713763223"><ele>-0.9999999999999999</ele><time>2026-03-29T10:08:00Z</time></trkpt><trkpt lat="44.56578239491992" lon="12.075445645495188"><ele>-1.0</ele><time>2026-03-29T10:08:01Z</time></trkpt><trkpt lat="44.56584578498528" lon="12.075462046493971"><ele>-1.0</ele><time>2026-03-29T10:08:02Z</time></trkpt><trkpt lat="44.56593410026178" lon="12.075554434303768"><ele>-1.0</ele><time>2026-03-29T10:08:04Z</time></trkpt><trkpt lat="44.565903006013365" lon="12.075789530852452"><ele>-1.0</ele><time>2026-03-29T10:08:06Z</time></trkpt><trkpt lat="44.56588208225811" lon="12.075930812872748"><ele>-1.0</ele><time>2026-03-29T10:08:07Z</time></trkpt><trkpt lat="44.56586317530467" lon="12.076066623726923"><ele>-1.0</ele><time>2026-03-29T10:08:08Z</time></trkpt><trkpt lat="44.56583968263593" lon="12.076198645085015"><ele>-1.0</ele><time>2026-03-29T10:08:09Z</time></trkpt><trkpt lat="44.56582035229775" lon="12.07633593659962"><ele>-1.0</ele><time>2026-03-29T10:08:10Z</time></trkpt><trkpt lat="44.56580285975329" lon="12.076483188416118"><ele>-1.0</ele><time>2026-03-29T10:08:11Z</time></trkpt><trkpt lat="44.565782229815234" lon="12.076640752583144"><ele>-1.0</ele><time>2026-03-29T10:08:12Z</time></trkpt><trkpt lat="44.56576385472994" lon="12.076783095466558"><ele>-1.0</ele><time>2026-03-29T10:08:13Z</time></trkpt><trkpt lat="44.56574649303133" lon="12.07692174871257"><ele>-1.0</ele><time>2026-03-29T10:08:14Z</time></trkpt><trkpt lat="44.565727078063205" lon="12.077049279653066"><ele>-1.0</ele><time>2026-03-29T10:08:15Z</time></trkpt><trkpt lat="44.56570785534275" lon="12.077174561550791"><ele>-1.0</ele><time>2026-03-29T10:08:16Z</time></trkpt><trkpt lat="44.56569058443241" lon="12.077305114149445"><ele>-1.0</ele><time>2026-03-29T10:08:17Z</time></trkpt><trkpt lat="44.56567467387076" lon="12.077448390248966"><ele>-1.0</ele><time>2026-03-29T10:08:18Z</time></trkpt><trkpt lat="44.56565251159452" lon="12.077597646945268"><ele>-1.0</ele><time>2026-03-29T10:08:19Z</time></trkpt><trkpt lat="44.565632043214485" lon="12.077753225035389"><ele>-1.0</ele><time>2026-03-29T10:08:20Z</time></trkpt><trkpt lat="44.56560554434397" lon="12.07791535980306"><ele>-1.0</ele><time>2026-03-29T10:08:21Z</time></trkpt><trkpt lat="44.56558391814609" lon="12.078076559221751"><ele>-1.0</ele><time>2026-03-29T10:08:22Z</time></trkpt><trkpt lat="44.56555551570268" lon="12.078232436607518"><ele>-1.0</ele><time>2026-03-29T10:08:23Z</time></trkpt><trkpt lat="44.56552245849672" lon="12.078383630214832"><ele>-1.0</ele><time>2026-03-29T10:08:24Z</time></trkpt><trkpt lat="44.565470791896615" lon="12.078528743220847"><ele>-1.0</ele><time>2026-03-29T10:08:25Z</time></trkpt><trkpt lat="44.56545130822582" lon="12.078682969510437"><ele>-0.75</ele><time>2026-03-29T10:08:26Z</time></trkpt><trkpt lat="44.56540082978503" lon="12.078823540684782"><ele>-0.5</ele><time>2026-03-29T10:08:27Z</time></trkpt><trkpt lat="44.56536390661132" lon="12.078971510136782"><ele>-0.25</ele><time>2026-03-29T10:08:28Z</time></trkpt><trkpt lat="44.56532605210081" lon="12.079124450507397"><ele>0.0</ele><time>2026-03-29T10:08:29Z</time></trkpt><trkpt lat="44.56528348976962" lon="12.079296411327606"><ele>0.0</ele><time>2026-03-29T10:08:30Z</time></trkpt><trkpt lat="44.56523692774593" lon="12.079484531103155"><ele>0.0</ele><time>2026-03-29T10:08:31Z</time></trkpt><trkpt lat="44.56519026094858" lon="12.079674905001324"><ele>0.0</ele><time>2026-03-29T10:08:32Z</time></trkpt><trkpt lat="44.56514911979509" lon="12.07984734181452"><ele>0.0</ele><time>2026-03-29T10:08:33Z</time></trkpt><trkpt lat="44.565106387110404" lon="12.080024025489553"><ele>0.0</ele><time>2026-03-29T10:08:34Z</time></trkpt><trkpt lat="44.565061521264695" lon="12.080208793455137"><ele>0.0</ele><time>2026-03-29T10:08:35Z</time></trkpt><trkpt lat="44.565013519492354" lon="12.080406792992434"><ele>0.0</ele><time>2026-03-29T10:08:36Z</time></trkpt><trkpt lat="44.564963338135904" lon="12.080613755640726"><ele>0.0</ele><time>2026-03-29T10:08:37Z</time></trkpt><trkpt lat="44.56492435342952" lon="12.080841540075378"><ele>-0.3333333333333333</ele><time>2026-03-29T10:08:38Z</time></trkpt><trkpt lat="44.564849718531605" lon="12.081079188822677"><ele>-0.6666666666666666</ele><time>2026-03-29T10:08:39Z</time></trkpt><trkpt lat="44.56480944637802" lon="12.081313523703257"><ele>-1.0</ele><time>2026-03-29T10:08:40Z</time></trkpt><trkpt lat="44.56474405577561" lon="12.081511909001321"><ele>-0.75</ele><time>2026-03-29T10:08:41Z</time></trkpt><trkpt lat="44.564711522237104" lon="12.081715540641131"><ele>-0.5</ele><time>2026-03-29T10:08:42Z</time></trkpt><trkpt lat="44.56464957733517" lon="12.081902306377877"><ele>-0.25</ele><time>2026-03-29T10:08:43Z</time></trkpt><trkpt lat="44.564617573115456" lon="12.082104785369284"><ele>0.0</ele><time>2026-03-29T10:08:44Z</time></trkpt><trkpt lat="44.564566339051" lon="12.082300833865688"><ele>-0.75</ele><time>2026-03-29T10:08:45Z</time></trkpt><trkpt lat="44.564517094428034" lon="12.08249336760228"><ele>-1.5</ele><time>2026-03-29T10:08:46Z</time></trkpt><trkpt lat="44.56447098754592" lon="12.082678637419516"><ele>-2.25</ele><time>2026-03-29T10:08:47Z</time></trkpt><trkpt lat="44.56442774029885" lon="12.082857471904417"><ele>-3.0</ele><time>2026-03-29T10:08:48Z</time></trkpt><trkpt lat="44.56438881988474" lon="12.083024753004553"><ele>-3.0</ele><time>2026-03-29T10:08:49Z</time></trkpt><trkpt lat="44.56435818885278" lon="12.083179216116903"><ele>-3.0</ele><time>2026-03-29T10:08:50Z</time></trkpt><trkpt lat="44.564349140449174" lon="12.08334051882134"><ele>-3.0</ele><time>2026-03-29T10:08:51Z</time></trkpt><trkpt lat="44.56438161594907" lon="12.083521209483873"><ele>-3.0</ele><time>2026-03-29T10:08:52Z</time></trkpt><trkpt lat="44.564452055272426" lon="12.083671369952413"><ele>-3.0</ele><time>2026-03-29T10:08:53Z</time></trkpt><trkpt lat="44.56454137426463" lon="12.083782894449348"><ele>-3.0</ele><time>2026-03-29T10:08:54Z</time></trkpt><trkpt lat="44.56465059351583" lon="12.083889228904294"><ele>-3.0</ele><time>2026-03-29T10:08:55Z</time></trkpt><trkpt lat="44.56476781388079" lon="12.0839983456717"><ele>-3.0</ele><time>2026-03-29T10:08:56Z</time></trkpt><trkpt lat="44.56487566032163" lon="12.08410670902941"><ele>-3.0</ele><time>2026-03-29T10:08:57Z</time></trkpt><trkpt lat="44.564967805848795" lon="12.084200206125455"><ele>-3.0</ele><time>2026-03-29T10:08:58Z</time></trkpt><trkpt lat="44.565051796225816" lon="12.084290336941715"><ele>-3.0</ele><time>2026-03-29T10:08:59Z</time></trkpt><trkpt lat="44.565125645932135" lon="12.084375806891508"><ele>-3.0</ele><time>2026-03-29T10:09:00Z</time></trkpt><trkpt lat="44.565194703899955" lon="12.08447664958004"><ele>-3.0</ele><time>2026-03-29T10:09:01Z</time></trkpt><trkpt lat="44.56525263812626" lon="12.084624776499327"><ele>-3.0</ele><time>2026-03-29T10:09:02Z</time></trkpt><trkpt lat="44.56527799056523" lon="12.084802121127288"><ele>-3.0</ele><time>2026-03-29T10:09:03Z</time></trkpt><trkpt lat="44.56527344212213" lon="12.084993684045388"><ele>-3.0</ele><time>2026-03-29T10:09:04Z</time></trkpt><trkpt lat="44.56521444264485" lon="12.085187059731432"><ele>-3.0</ele><time>2026-03-29T10:09:05Z</time></trkpt><trkpt lat="44.565158438803564" lon="12.08537703380948"><ele>-2.6666666666666665</ele><time>2026-03-29T10:09:06Z</time></trkpt><trkpt lat="44.56510387634244" lon="12.085579544995513"><ele>-2.333333333333333</ele><time>2026-03-29T10:09:07Z</time></trkpt><trkpt lat="44.565037134103676" lon="12.08579216852617"><ele>-2.0</ele><time>2026-03-29T10:09:08Z</time></trkpt><trkpt lat="44.564974806806745" lon="12.086002990592487"><ele>-1.6666666666666665</ele><time>2026-03-29T10:09:09Z</time></trkpt><trkpt lat="44.56491346695451" lon="12.086207064494348"><ele>-1.3333333333333333</ele><time>2026-03-29T10:09:10Z</time></trkpt><trkpt lat="44.56484830648988" lon="12.086413036464508"><ele>-1.0</ele><time>2026-03-29T10:09:11Z</time></trkpt><trkpt lat="44.564778740733885" lon="12.086633067844494"><ele>-1.0</ele><time>2026-03-29T10:09:12Z</time></trkpt><trkpt lat="44.56471285304437" lon="12.086856662544966"><ele>-1.0</ele><time>2026-03-29T10:09:13Z</time></trkpt><trkpt lat="44.56464912447794" lon="12.087074869355526"><ele>-1.0</ele><time>2026-03-29T10:09:14Z</time></trkpt><trkpt lat="44.564582110745775" lon="12.087295054762894"><ele>-1.6666666666666665</ele><time>2026-03-29T10:09:15Z</time></trkpt><trkpt lat="44.56451557381992" lon="12.087505812369862"><ele>-2.3333333333333335</ele><time>2026-03-29T10:09:16Z</time></trkpt><trkpt lat="44.5644516332143" lon="12.087711530255742"><ele>-3.0</ele><time>2026-03-29T10:09:17Z</time></trkpt><trkpt lat="44.56439000124968" lon="12.087906173471719"><ele>-3.0</ele><time>2026-03-29T10:09:18Z</time></trkpt><trkpt lat="44.56432885285098" lon="12.088110025848454"><ele>-3.0</ele><time>2026-03-29T10:09:19Z</time></trkpt><trkpt lat="44.56426752169961" lon="12.088319647196853"><ele>-3.0</ele><time>2026-03-29T10:09:20Z</time></trkpt><trkpt lat="44.56420592620304" lon="12.088538180050332"><ele>-3.0</ele><time>2026-03-29T10:09:21Z</time></trkpt><trkpt lat="44.56414276179694" lon="12.088751499357002"><ele>-3.0</ele><time>2026-03-29T10:09:22Z</time></trkpt><trkpt lat="44.56407551663159" lon="12.088973211013558"><ele>-3.0</ele><time>2026-03-29T10:09:23Z</time></trkpt><trkpt lat="44.564007381265704" lon="12.08919704695769"><ele>-3.0</ele><time>2026-03-29T10:09:24Z</time></trkpt><trkpt lat="44.563940249870605" lon="12.089419284440453"><ele>-3.0</ele><time>2026-03-29T10:09:25Z</time></trkpt><trkpt lat="44.56387338110685" lon="12.089639034257177"><ele>-3.0</ele><time>2026-03-29T10:09:26Z</time></trkpt><trkpt lat="44.563732047394744" lon="12.090100670071882"><ele>-3.0</ele><time>2026-03-29T10:09:28Z</time></trkpt><trkpt lat="44.5636629549357" lon="12.09032467013609"><ele>-3.0</ele><time>2026-03-29T10:09:29Z</time></trkpt><trkpt lat="44.56359361864457" lon="12.09054303288419"><ele>-3.0</ele><time>2026-03-29T10:09:30Z</time></trkpt><trkpt lat="44.56352594781217" lon="12.090751161616447"><ele>-3.0</ele><time>2026-03-29T10:09:31Z</time></trkpt><trkpt lat="44.563464859061135" lon="12.090954296861508"><ele>-3.0</ele><time>2026-03-29T10:09:32Z</time></trkpt><trkpt lat="44.563402405826054" lon="12.091162589225098"><ele>-3.0</ele><time>2026-03-29T10:09:33Z</time></trkpt><trkpt lat="44.56333956695123" lon="12.091375581799799"><ele>-3.0</ele><time>2026-03-29T10:09:34Z</time></trkpt><trkpt lat="44.56327570732825" lon="12.091586167018795"><ele>-3.0</ele><time>2026-03-29T10:09:35Z</time></trkpt><trkpt lat="44.563213109419756" lon="12.091799408335856"><ele>-3.0</ele><time>2026-03-29T10:09:36Z</time></trkpt><trkpt lat="44.56315286089134" lon="12.092003979439212"><ele>-2.6666666666666665</ele><time>2026-03-29T10:09:37Z</time></trkpt><trkpt lat="44.563089770102685" lon="12.092202813643624"><ele>-2.333333333333333</ele><time>2026-03-29T10:09:38Z</time></trkpt><trkpt lat="44.56302811062729" lon="12.092397624191191"><ele>-2.0</ele><time>2026-03-29T10:09:39Z</time></trkpt><trkpt lat="44.56296884957901" lon="12.09259021325245"><ele>-2.0</ele><time>2026-03-29T10:09:40Z</time></trkpt><trkpt lat="44.562914467324326" lon="12.092766892671772"><ele>-2.0</ele><time>2026-03-29T10:09:41Z</time></trkpt><trkpt lat="44.56286168513747" lon="12.092931924666074"><ele>-2.0</ele><time>2026-03-29T10:09:42Z</time></trkpt><trkpt lat="44.562815295527194" lon="12.09307976422438"><ele>-2.0</ele><time>2026-03-29T10:09:43Z</time></trkpt><trkpt lat="44.56277417778596" lon="12.09322031927108"><ele>-1.8</ele><time>2026-03-29T10:09:44Z</time></trkpt><trkpt lat="44.56273365538602" lon="12.093354422585854"><ele>-1.6</ele><time>2026-03-29T10:09:45Z</time></trkpt><trkpt lat="44.56269220058917" lon="12.093488272889566"><ele>-1.4000000000000001</ele><time>2026-03-29T10:09:46Z</time></trkpt><trkpt lat="44.56265375934679" lon="12.093617174605486"><ele>-1.2000000000000002</ele><time>2026-03-29T10:09:47Z</time></trkpt><trkpt lat="44.562620521107284" lon="12.093733432238187"><ele>-1.0</ele><time>2026-03-29T10:09:48Z</time></trkpt><trkpt lat="44.56258945730708" lon="12.09383502619122"><ele>-0.9999999999999999</ele><time>2026-03-29T10:09:49Z</time></trkpt><trkpt lat="44.56256022344968" lon="12.093935593787707"><ele>-1.0</ele><time>2026-03-29T10:09:50Z</time></trkpt><trkpt lat="44.56253877630631" lon="12.094025438685998"><ele>-1.0</ele><time>2026-03-29T10:09:51Z</time></trkpt><trkpt lat="44.5625118013755" lon="12.09416638340676"><ele>-1.0</ele><time>2026-03-29T10:09:53Z</time></trkpt><trkpt lat="44.56250102046059" lon="12.094262110687932"><ele>-0.9999999999999999</ele><time>2026-03-29T10:10:31Z</time></trkpt><trkpt lat="44.56255548894792" lon="12.094347857027849"><ele>-1.0</ele><time>2026-03-29T10:10:35Z</time></trkpt><trkpt lat="44.56264247132875" lon="12.094435674521595"><ele>-0.8</ele><time>2026-03-29T10:10:37Z</time></trkpt><trkpt lat="44.562735714118595" lon="12.094549314294962"><ele>-0.6000000000000001</ele><time>2026-03-29T10:10:39Z</time></trkpt><trkpt lat="44.56279582696475" lon="12.09461789988536"><ele>-0.4</ele><time>2026-03-29T10:10:40Z</time></trkpt><trkpt lat="44.56285708286656" lon="12.094689564371091"><ele>-0.2</ele><time>2026-03-29T10:10:41Z</time></trkpt><trkpt lat="44.56295086322943" lon="12.094791281618823"><ele>0.0</ele><time>2026-03-29T10:10:43Z</time></trkpt><trkpt lat="44.56303692964456" lon="12.094889614139015"><ele>-0.5</ele><time>2026-03-29T10:10:45Z</time></trkpt><trkpt lat="44.563123353580536" lon="12.094983192995857"><ele>-1.0</ele><time>2026-03-29T10:10:47Z</time></trkpt><trkpt lat="44.563182897632046" lon="12.095047610498103"><ele>-1.5</ele><time>2026-03-29T10:10:48Z</time></trkpt><trkpt lat="44.56324920817458" lon="12.095124379677658"><ele>-2.0</ele><time>2026-03-29T10:10:49Z</time></trkpt><trkpt lat="44.56330537824107" lon="12.095189662470169"><ele>-2.5</ele><time>2026-03-29T10:10:50Z</time></trkpt><trkpt lat="44.563381682099305" lon="12.095274704971516"><ele>-3.0</ele><time>2026-03-29T10:10:51Z</time></trkpt><trkpt lat="44.56346524199926" lon="12.09536042540635"><ele>-3.0</ele><time>2026-03-29T10:10:52Z</time></trkpt><trkpt lat="44.563558006652336" lon="12.09545944551551"><ele>-3.0</ele><time>2026-03-29T10:10:53Z</time></trkpt><trkpt lat="44.563662979830504" lon="12.095569140763505"><ele>-3.0</ele><time>2026-03-29T10:10:54Z</time></trkpt><trkpt lat="44.563764778761204" lon="12.0956830856848"><ele>-3.0</ele><time>2026-03-29T10:10:55Z</time></trkpt><trkpt lat="44.56385268375918" lon="12.095776334740565"><ele>-2.6</ele><time>2026-03-29T10:10:56Z</time></trkpt><trkpt lat="44.56393120891157" lon="12.095863506418171"><ele>-2.1999999999999997</ele><time>2026-03-29T10:10:57Z</time></trkpt><trkpt lat="44.56400890203516" lon="12.09594715605175"><ele>-1.8</ele><time>2026-03-29T10:10:58Z</time></trkpt><trkpt lat="44.564085109046026" lon="12.096034548280358"><ele>-1.4</ele><time>2026-03-29T10:10:59Z</time></trkpt><trkpt lat="44.56416054734612" lon="12.096123560889668"><ele>-1.0</ele><time>2026-03-29T10:11:00Z</time></trkpt><trkpt lat="44.56423753581889" lon="12.096207511328101"><ele>-1.0</ele><time>2026-03-29T10:11:01Z</time></trkpt><trkpt lat="44.56431612561671" lon="12.096291588054967"><ele>-1.0</ele><time>2026-03-29T10:11:02Z</time></trkpt><trkpt lat="44.56439262497808" lon="12.096379440938007"><ele>-1.0</ele><time>2026-03-29T10:11:03Z</time></trkpt><trkpt lat="44.56447404019422" lon="12.096468098187891"><ele>-1.0</ele><time>2026-03-29T10:11:04Z</time></trkpt><trkpt lat="44.56455390082858" lon="12.096557052580774"><ele>-1.0</ele><time>2026-03-29T10:11:05Z</time></trkpt><trkpt lat="44.56463007157564" lon="12.096639324192221"><ele>-1.3333333333333333</ele><time>2026-03-29T10:11:06Z</time></trkpt><trkpt lat="44.564697624911254" lon="12.096712573493814"><ele>-1.6666666666666665</ele><time>2026-03-29T10:11:07Z</time></trkpt><trkpt lat="44.56476043573647" lon="12.096782619202262"><ele>-2.0</ele><time>2026-03-29T10:11:08Z</time></trkpt><trkpt lat="44.56482111451725" lon="12.096852394319368"><ele>-2.3333333333333335</ele><time>2026-03-29T10:11:09Z</time></trkpt><trkpt lat="44.56487402360822" lon="12.096908042277276"><ele>-2.6666666666666665</ele><time>2026-03-29T10:11:10Z</time></trkpt><trkpt lat="44.56495407363139" lon="12.096996469176844"><ele>-3.0</ele><time>2026-03-29T10:11:12Z</time></trkpt><trkpt lat="44.56499827185352" lon="12.097094157150938"><ele>-3.0</ele><time>2026-03-29T10:11:14Z</time></trkpt><trkpt lat="44.56489465683546" lon="12.097223657541536"><ele>-3.0</ele><time>2026-03-29T10:11:16Z</time></trkpt><trkpt lat="44.56483401291537" lon="12.097272312577868"><ele>-3.0</ele><time>2026-03-29T10:11:17Z</time></trkpt><trkpt lat="44.564766720851615" lon="12.097348026469719"><ele>-3.0</ele><time>2026-03-29T10:11:18Z</time></trkpt><trkpt lat="44.56467834657673" lon="12.097414299308731"><ele>-3.0</ele><time>2026-03-29T10:11:19Z</time></trkpt><trkpt lat="44.56459061051832" lon="12.097487674254266"><ele>-3.0</ele><time>2026-03-29T10:11:20Z</time></trkpt><trkpt lat="44.564496287678" lon="12.097562354636205"><ele>-3.0</ele><time>2026-03-29T10:11:21Z</time></trkpt><trkpt lat="44.56438896913131" lon="12.0976492329096"><ele>-3.0</ele><time>2026-03-29T10:11:22Z</time></trkpt><trkpt lat="44.56428050378783" lon="12.097738974741949"><ele>-3.0</ele><time>2026-03-29T10:11:23Z</time></trkpt><trkpt lat="44.56417300820791" lon="12.097826279905847"><ele>-3.0</ele><time>2026-03-29T10:11:24Z</time></trkpt><trkpt lat="44.56406611872726" lon="12.097920035011322"><ele>-3.0</ele><time>2026-03-29T10:11:25Z</time></trkpt><trkpt lat="44.563945831872594" lon="12.098029138315777"><ele>-3.0</ele><time>2026-03-29T10:11:26Z</time></trkpt><trkpt lat="44.563823462297215" lon="12.098129967797162"><ele>-3.0</ele><time>2026-03-29T10:11:27Z</time></trkpt><trkpt lat="44.56370882067368" lon="12.098224291757255"><ele>-2.6666666666666665</ele><time>2026-03-29T10:11:28Z</time></trkpt><trkpt lat="44.563583572642955" lon="12.098324639951107"><ele>-2.333333333333333</ele><time>2026-03-29T10:11:29Z</time></trkpt><trkpt lat="44.56345439879671" lon="12.098429650653951"><ele>-2.0</ele><time>2026-03-29T10:11:30Z</time></trkpt><trkpt lat="44.563320115209336" lon="12.098541980944773"><ele>-2.0</ele><time>2026-03-29T10:11:31Z</time></trkpt><trkpt lat="44.563188068416984" lon="12.098649641655179"><ele>-2.0</ele><time>2026-03-29T10:11:32Z</time></trkpt><trkpt lat="44.5630616610845" lon="12.098753241468726"><ele>-2.0</ele><time>2026-03-29T10:11:33Z</time></trkpt><trkpt lat="44.562932858794575" lon="12.098858874492985"><ele>-2.0</ele><time>2026-03-29T10:11:34Z</time></trkpt><trkpt lat="44.5628067128302" lon="12.09896085700885"><ele>-2.0</ele><time>2026-03-29T10:11:35Z</time></trkpt><trkpt lat="44.562680388714675" lon="12.099062634869691"><ele>-2.0</ele><time>2026-03-29T10:11:36Z</time></trkpt><trkpt lat="44.56255244665551" lon="12.099170127099402"><ele>-2.0</ele><time>2026-03-29T10:11:37Z</time></trkpt><trkpt lat="44.56242407102507" lon="12.099279034714645"><ele>-2.0</ele><time>2026-03-29T10:11:38Z</time></trkpt><trkpt lat="44.562298229670795" lon="12.099386112964508"><ele>-2.333333333333333</ele><time>2026-03-29T10:11:39Z</time></trkpt><trkpt lat="44.5621655343899" lon="12.099499502560564"><ele>-2.6666666666666665</ele><time>2026-03-29T10:11:40Z</time></trkpt><trkpt lat="44.56203289426174" lon="12.099602859949579"><ele>-3.0</ele><time>2026-03-29T10:11:41Z</time></trkpt><trkpt lat="44.561901410366296" lon="12.099712377372304"><ele>-3.0</ele><time>2026-03-29T10:11:42Z</time></trkpt><trkpt lat="44.56176582536393" lon="12.099826502294853"><ele>-3.0</ele><time>2026-03-29T10:11:43Z</time></trkpt><trkpt lat="44.56163267560859" lon="12.0999314071054"><ele>-3.0</ele><time>2026-03-29T10:11:44Z</time></trkpt><trkpt lat="44.56150440833722" lon="12.100040177327735"><ele>-3.0</ele><time>2026-03-29T10:11:45Z</time></trkpt><trkpt lat="44.56137978728049" lon="12.100146273034067"><ele>-3.0</ele><time>2026-03-29T10:11:46Z</time></trkpt><trkpt lat="44.561252931979155" lon="12.100250984285447"><ele>-3.0</ele><time>2026-03-29T10:11:47Z</time></trkpt><trkpt lat="44.5611244551135" lon="12.100355326811114"><ele>-3.0</ele><time>2026-03-29T10:11:48Z</time></trkpt><trkpt lat="44.5609984183802" lon="12.100457556698164"><ele>-3.0</ele><time>2026-03-29T10:11:49Z</time></trkpt><trkpt lat="44.560874472993625" lon="12.100560814358026"><ele>-3.0</ele><time>2026-03-29T10:11:50Z</time></trkpt><trkpt lat="44.56075098985666" lon="12.100659733866848"><ele>-3.0</ele><time>2026-03-29T10:11:51Z</time></trkpt><trkpt lat="44.56062630418116" lon="12.10075673268916"><ele>-3.0</ele><time>2026-03-29T10:11:52Z</time></trkpt><trkpt lat="44.560503789511245" lon="12.100856644070769"><ele>-3.0</ele><time>2026-03-29T10:11:53Z</time></trkpt><trkpt lat="44.560380570013656" lon="12.100958552420993"><ele>-3.0</ele><time>2026-03-29T10:11:54Z</time></trkpt><trkpt lat="44.560255680512945" lon="12.101062553976403"><ele>-3.0</ele><time>2026-03-29T10:11:55Z</time></trkpt><trkpt lat="44.560125145043116" lon="12.101170889094158"><ele>-3.0</ele><time>2026-03-29T10:11:56Z</time></trkpt><trkpt lat="44.55999691433017" lon="12.101278453899004"><ele>-2.75</ele><time>2026-03-29T10:11:57Z</time></trkpt><trkpt lat="44.559871000224874" lon="12.10138383869809"><ele>-2.5</ele><time>2026-03-29T10:11:58Z</time></trkpt><trkpt lat="44.5597515661689" lon="12.101482208362782"><ele>-2.25</ele><time>2026-03-29T10:11:59Z</time></trkpt><trkpt lat="44.55964255715194" lon="12.101571357685401"><ele>-2.0</ele><time>2026-03-29T10:12:00Z</time></trkpt><trkpt lat="44.55953231248836" lon="12.101664553467687"><ele>-1.75</ele><time>2026-03-29T10:12:01Z</time></trkpt><trkpt lat="44.559415844783715" lon="12.101765047934103"><ele>-1.5</ele><time>2026-03-29T10:12:02Z</time></trkpt><trkpt lat="44.559294462228635" lon="12.101861505498267"><ele>-1.25</ele><time>2026-03-29T10:12:03Z</time></trkpt><trkpt lat="44.55916952267" lon="12.101956592041097"><ele>-1.0</ele><time>2026-03-29T10:12:04Z</time></trkpt><trkpt lat="44.55905646372418" lon="12.102046975840512"><ele>-1.0</ele><time>2026-03-29T10:12:05Z</time></trkpt><trkpt lat="44.55896192680698" lon="12.102121350110814"><ele>-1.0</ele><time>2026-03-29T10:12:06Z</time></trkpt><trkpt lat="44.55886955993649" lon="12.102186463745397"><ele>-1.0</ele><time>2026-03-29T10:12:07Z</time></trkpt><trkpt lat="44.55879248792032" lon="12.102238376830865"><ele>-1.0</ele><time>2026-03-29T10:12:08Z</time></trkpt><trkpt lat="44.55872631463938" lon="12.102283745243058"><ele>-1.0</ele><time>2026-03-29T10:12:09Z</time></trkpt><trkpt lat="44.558659972194285" lon="12.10235188433771"><ele>-0.6000000000000001</ele><time>2026-03-29T10:12:10Z</time></trkpt><trkpt lat="44.55859929140521" lon="12.102444059885922"><ele>-0.20000000000000007</ele><time>2026-03-29T10:12:11Z</time></trkpt><trkpt lat="44.558549484213984" lon="12.10257469471339"><ele>0.20000000000000007</ele><time>2026-03-29T10:12:12Z</time></trkpt><trkpt lat="44.558516565814536" lon="12.102726705958755"><ele>0.6000000000000001</ele><time>2026-03-29T10:12:13Z</time></trkpt><trkpt lat="44.55849398823446" lon="12.102899553053607"><ele>1.0</ele><time>2026-03-29T10:12:14Z</time></trkpt><trkpt lat="44.5584746513462" lon="12.103078581406104"><ele>0.75</ele><time>2026-03-29T10:12:15Z</time></trkpt><trkpt lat="44.55845520879905" lon="12.103254613115807"><ele>0.5</ele><time>2026-03-29T10:12:16Z</time></trkpt><trkpt lat="44.558430272059354" lon="12.103452331142007"><ele>0.25</ele><time>2026-03-29T10:12:17Z</time></trkpt><trkpt lat="44.55840058098627" lon="12.103670397569678"><ele>0.0</ele><time>2026-03-29T10:12:18Z</time></trkpt><trkpt lat="44.55836545951632" lon="12.103893745747905"><ele>-0.6666666666666666</ele><time>2026-03-29T10:12:19Z</time></trkpt><trkpt lat="44.55833514586015" lon="12.104109007116792"><ele>-1.3333333333333333</ele><time>2026-03-29T10:12:20Z</time></trkpt><trkpt lat="44.55830103622443" lon="12.104334132421208"><ele>-2.0</ele><time>2026-03-29T10:12:21Z</time></trkpt><trkpt lat="44.558264055210905" lon="12.104562375954218"><ele>-2.0</ele><time>2026-03-29T10:12:22Z</time></trkpt><trkpt lat="44.55822872930044" lon="12.10478209034575"><ele>-2.0</ele><time>2026-03-29T10:12:23Z</time></trkpt><trkpt lat="44.55819441819457" lon="12.105012929441632"><ele>-2.0</ele><time>2026-03-29T10:12:24Z</time></trkpt><trkpt lat="44.55816146673219" lon="12.105248264210264"><ele>-2.333333333333333</ele><time>2026-03-29T10:12:25Z</time></trkpt><trkpt lat="44.55812236384596" lon="12.10549302025111"><ele>-2.6666666666666665</ele><time>2026-03-29T10:12:26Z</time></trkpt><trkpt lat="44.55808157927032" lon="12.105745713212215"><ele>-3.0</ele><time>2026-03-29T10:12:27Z</time></trkpt><trkpt lat="44.55804338280687" lon="12.105999440501844"><ele>-3.0</ele><time>2026-03-29T10:12:28Z</time></trkpt><trkpt lat="44.558005334390096" lon="12.106247578209873"><ele>-3.0</ele><time>2026-03-29T10:12:29Z</time></trkpt><trkpt lat="44.55796669554475" lon="12.106499806129689"><ele>-3.0</ele><time>2026-03-29T10:12:30Z</time></trkpt><trkpt lat="44.55792852998328" lon="12.106749702166837"><ele>-3.0</ele><time>2026-03-29T10:12:31Z</time></trkpt><trkpt lat="44.55788985396425" lon="12.107006570071627"><ele>-3.0</ele><time>2026-03-29T10:12:32Z</time></trkpt><trkpt lat="44.55785132645875" lon="12.107255578728843"><ele>-3.0</ele><time>2026-03-29T10:12:33Z</time></trkpt><trkpt lat="44.557814485018206" lon="12.107493489894384"><ele>-2.3333333333333335</ele><time>2026-03-29T10:12:34Z</time></trkpt><trkpt lat="44.55777891225457" lon="12.107728331080455"><ele>-1.6666666666666665</ele><time>2026-03-29T10:12:35Z</time></trkpt><trkpt lat="44.55774089704039" lon="12.107968076911796"><ele>-1.0</ele><time>2026-03-29T10:12:36Z</time></trkpt><trkpt lat="44.55770394006179" lon="12.108223522405824"><ele>-1.3333333333333333</ele><time>2026-03-29T10:12:37Z</time></trkpt><trkpt lat="44.557666966701866" lon="12.108478455982254"><ele>-1.6666666666666665</ele><time>2026-03-29T10:12:38Z</time></trkpt><trkpt lat="44.557628462225054" lon="12.108726722182507"><ele>-2.0</ele><time>2026-03-29T10:12:39Z</time></trkpt><trkpt lat="44.557588427692814" lon="12.10898465627111"><ele>-2.0</ele><time>2026-03-29T10:12:40Z</time></trkpt><trkpt lat="44.55755138804588" lon="12.109243893106969"><ele>-2.0</ele><time>2026-03-29T10:12:41Z</time></trkpt><trkpt lat="44.55751500305105" lon="12.109488551173829"><ele>-2.0</ele><time>2026-03-29T10:12:42Z</time></trkpt><trkpt lat="44.55747582196735" lon="12.109731433091037"><ele>-2.0</ele><time>2026-03-29T10:12:43Z</time></trkpt><trkpt lat="44.55744037032706" lon="12.109968745385933"><ele>-2.0</ele><time>2026-03-29T10:12:44Z</time></trkpt><trkpt lat="44.55740419631653" lon="12.110200003790148"><ele>-2.0</ele><time>2026-03-29T10:12:45Z</time></trkpt><trkpt lat="44.557368774546575" lon="12.110433618930136"><ele>-2.0</ele><time>2026-03-29T10:12:46Z</time></trkpt><trkpt lat="44.5573339625523" lon="12.110662299511823"><ele>-2.0</ele><time>2026-03-29T10:12:47Z</time></trkpt><trkpt lat="44.5572983075452" lon="12.110897186160464"><ele>-2.0</ele><time>2026-03-29T10:12:48Z</time></trkpt><trkpt lat="44.55726182979061" lon="12.111133812719101"><ele>-2.333333333333333</ele><time>2026-03-29T10:12:49Z</time></trkpt><trkpt lat="44.55722653810494" lon="12.111372381131131"><ele>-2.6666666666666665</ele><time>2026-03-29T10:12:50Z</time></trkpt><trkpt lat="44.55719237110794" lon="12.111608548031644"><ele>-3.0</ele><time>2026-03-29T10:12:51Z</time></trkpt><trkpt lat="44.557156460689676" lon="12.111841275484165"><ele>-3.0</ele><time>2026-03-29T10:12:52Z</time></trkpt><trkpt lat="44.55712120370545" lon="12.112075516837702"><ele>-3.0</ele><time>2026-03-29T10:12:53Z</time></trkpt><trkpt lat="44.5570850605848" lon="12.112308148740832"><ele>-3.0</ele><time>2026-03-29T10:12:54Z</time></trkpt><trkpt lat="44.55705130280572" lon="12.112528365220333"><ele>-2.6666666666666665</ele><time>2026-03-29T10:12:55Z</time></trkpt><trkpt lat="44.55701993318606" lon="12.112744828140105"><ele>-2.333333333333333</ele><time>2026-03-29T10:12:56Z</time></trkpt><trkpt lat="44.5569852932314" lon="12.112969385274683"><ele>-2.0</ele><time>2026-03-29T10:12:57Z</time></trkpt><trkpt lat="44.55695098679397" lon="12.113185236862359"><ele>-1.6666666666666665</ele><time>2026-03-29T10:12:58Z</time></trkpt><trkpt lat="44.55691646226948" lon="12.113413191425265"><ele>-1.3333333333333333</ele><time>2026-03-29T10:12:59Z</time></trkpt><trkpt lat="44.55687969394672" lon="12.113650902625489"><ele>-1.0</ele><time>2026-03-29T10:13:00Z</time></trkpt><trkpt lat="44.5568412868503" lon="12.113894998718035"><ele>-1.3333333333333333</ele><time>2026-03-29T10:13:01Z</time></trkpt><trkpt lat="44.55680018808406" lon="12.114151587731774"><ele>-1.6666666666666665</ele><time>2026-03-29T10:13:02Z</time></trkpt><trkpt lat="44.556761985586995" lon="12.114407693423566"><ele>-2.0</ele><time>2026-03-29T10:13:03Z</time></trkpt><trkpt lat="44.55672446061174" lon="12.114666094804374"><ele>-2.0</ele><time>2026-03-29T10:13:04Z</time></trkpt><trkpt lat="44.55668689123807" lon="12.114923879200488"><ele>-2.0</ele><time>2026-03-29T10:13:05Z</time></trkpt><trkpt lat="44.556647426497356" lon="12.11518056698563"><ele>-2.0</ele><time>2026-03-29T10:13:06Z</time></trkpt><trkpt lat="44.55660752036273" lon="12.115442232990937"><ele>-2.0</ele><time>2026-03-29T10:13:07Z</time></trkpt><trkpt lat="44.55656919926333" lon="12.115699357253058"><ele>-2.0</ele><time>2026-03-29T10:13:08Z</time></trkpt><trkpt lat="44.556528130306944" lon="12.115962147800438"><ele>-2.0</ele><time>2026-03-29T10:13:09Z</time></trkpt><trkpt lat="44.55648877567155" lon="12.116216482786815"><ele>-1.3333333333333333</ele><time>2026-03-29T10:13:10Z</time></trkpt><trkpt lat="44.556450561439334" lon="12.116476449559668"><ele>-0.6666666666666666</ele><time>2026-03-29T10:13:11Z</time></trkpt><trkpt lat="44.55641083335739" lon="12.116733911826996"><ele>0.0</ele><time>2026-03-29T10:13:12Z</time></trkpt><trkpt lat="44.55637109268477" lon="12.116996146871111"><ele>0.0</ele><time>2026-03-29T10:13:13Z</time></trkpt><trkpt lat="44.55633351212584" lon="12.11725326619673"><ele>0.0</ele><time>2026-03-29T10:13:14Z</time></trkpt><trkpt lat="44.55629765964293" lon="12.117510277861294"><ele>0.0</ele><time>2026-03-29T10:13:15Z</time></trkpt><trkpt lat="44.55626064108496" lon="12.117764275091531"><ele>-0.3333333333333333</ele><time>2026-03-29T10:13:16Z</time></trkpt><trkpt lat="44.55622115877201" lon="12.118020114012165"><ele>-0.6666666666666666</ele><time>2026-03-29T10:13:17Z</time></trkpt><trkpt lat="44.55618209649674" lon="12.118277091041536"><ele>-1.0</ele><time>2026-03-29T10:13:18Z</time></trkpt><trkpt lat="44.55614498596183" lon="12.118521380261285"><ele>-0.3333333333333333</ele><time>2026-03-29T10:13:19Z</time></trkpt><trkpt lat="44.55610925140807" lon="12.118763457455382"><ele>0.3333333333333333</ele><time>2026-03-29T10:13:20Z</time></trkpt><trkpt lat="44.55607533992692" lon="12.118993086756385"><ele>1.0</ele><time>2026-03-29T10:13:21Z</time></trkpt><trkpt lat="44.556044287878365" lon="12.119203838646778"><ele>1.0</ele><time>2026-03-29T10:13:22Z</time></trkpt><trkpt lat="44.55601406615449" lon="12.11940585816594"><ele>1.0</ele><time>2026-03-29T10:13:23Z</time></trkpt><trkpt lat="44.55598693401673" lon="12.11958987739198"><ele>1.0</ele><time>2026-03-29T10:13:24Z</time></trkpt><trkpt lat="44.55595294929279" lon="12.11977265205569"><ele>1.0</ele><time>2026-03-29T10:13:25Z</time></trkpt><trkpt lat="44.55593233224306" lon="12.119961206050586"><ele>0.5</ele><time>2026-03-29T10:13:26Z</time></trkpt><trkpt lat="44.55590457830489" lon="12.120144890720495"><ele>0.0</ele><time>2026-03-29T10:13:27Z</time></trkpt><trkpt lat="44.555874176690985" lon="12.120331840296314"><ele>-0.5</ele><time>2026-03-29T10:13:28Z</time></trkpt><trkpt lat="44.55584236235783" lon="12.12051987435925"><ele>-1.0</ele><time>2026-03-29T10:13:29Z</time></trkpt><trkpt lat="44.55581118920393" lon="12.120719033862434"><ele>-1.0</ele><time>2026-03-29T10:13:30Z</time></trkpt><trkpt lat="44.55577958955101" lon="12.120930231219587"><ele>-1.0</ele><time>2026-03-29T10:13:31Z</time></trkpt><trkpt lat="44.55574913838437" lon="12.121145511728447"><ele>-1.0</ele><time>2026-03-29T10:13:32Z</time></trkpt><trkpt lat="44.55571332760604" lon="12.121364645288347"><ele>-1.0</ele><time>2026-03-29T10:13:33Z</time></trkpt><trkpt lat="44.55567707181703" lon="12.121585183481809"><ele>-1.0</ele><time>2026-03-29T10:13:34Z</time></trkpt><trkpt lat="44.55564382192607" lon="12.12181011227541"><ele>-1.0</ele><time>2026-03-29T10:13:35Z</time></trkpt><trkpt lat="44.555609964587326" lon="12.122036545123068"><ele>-1.0</ele><time>2026-03-29T10:13:36Z</time></trkpt><trkpt lat="44.555576715642935" lon="12.122265891848878"><ele>-1.0</ele><time>2026-03-29T10:13:37Z</time></trkpt><trkpt lat="44.5555444675416" lon="12.122497384256802"><ele>-1.0</ele><time>2026-03-29T10:13:38Z</time></trkpt><trkpt lat="44.555511478652924" lon="12.122726084633024"><ele>-1.0</ele><time>2026-03-29T10:13:39Z</time></trkpt><trkpt lat="44.55547660454052" lon="12.122955821254758"><ele>-1.0</ele><time>2026-03-29T10:13:40Z</time></trkpt><trkpt lat="44.55544338966139" lon="12.123175677876405"><ele>-1.0</ele><time>2026-03-29T10:13:41Z</time></trkpt><trkpt lat="44.555411492051014" lon="12.123390210207564"><ele>-1.3333333333333333</ele><time>2026-03-29T10:13:42Z</time></trkpt><trkpt lat="44.55537789083282" lon="12.123601997300824"><ele>-1.6666666666666665</ele><time>2026-03-29T10:13:43Z</time></trkpt><trkpt lat="44.55534573252212" lon="12.123812386012979"><ele>-2.0</ele><time>2026-03-29T10:13:44Z</time></trkpt><trkpt lat="44.555314011833296" lon="12.124015778356226"><ele>-2.0</ele><time>2026-03-29T10:13:45Z</time></trkpt><trkpt lat="44.555283294896064" lon="12.12421174783992"><ele>-2.0</ele><time>2026-03-29T10:13:46Z</time></trkpt><trkpt lat="44.555254316380086" lon="12.124416472011085"><ele>-2.0</ele><time>2026-03-29T10:13:47Z</time></trkpt><trkpt lat="44.55522460117731" lon="12.124618325351033"><ele>-2.0</ele><time>2026-03-29T10:13:48Z</time></trkpt><trkpt lat="44.55519190948482" lon="12.124815044500256"><ele>-1.5</ele><time>2026-03-29T10:13:49Z</time></trkpt><trkpt lat="44.55516139707464" lon="12.125003945396825"><ele>-1.0</ele><time>2026-03-29T10:13:50Z</time></trkpt><trkpt lat="44.55513435883127" lon="12.12519546311585"><ele>-0.5</ele><time>2026-03-29T10:13:51Z</time></trkpt><trkpt lat="44.55510622724293" lon="12.12538233124136"><ele>0.0</ele><time>2026-03-29T10:13:52Z</time></trkpt><trkpt lat="44.55507936273213" lon="12.12557025931371"><ele>-0.25</ele><time>2026-03-29T10:13:53Z</time></trkpt><trkpt lat="44.55505220906281" lon="12.12576775519766"><ele>-0.5</ele><time>2026-03-29T10:13:54Z</time></trkpt><trkpt lat="44.55501908804423" lon="12.125966107266425"><ele>-0.75</ele><time>2026-03-29T10:13:55Z</time></trkpt><trkpt lat="44.55498785306093" lon="12.126175211727883"><ele>-1.0</ele><time>2026-03-29T10:13:56Z</time></trkpt><trkpt lat="44.55495771343059" lon="12.126383871971722"><ele>-1.3333333333333333</ele><time>2026-03-29T10:13:57Z</time></trkpt><trkpt lat="44.554926094597604" lon="12.1265957787066"><ele>-1.6666666666666665</ele><time>2026-03-29T10:13:58Z</time></trkpt><trkpt lat="44.554891731022344" lon="12.12682075999165"><ele>-2.0</ele><time>2026-03-29T10:13:59Z</time></trkpt><trkpt lat="44.55486079589975" lon="12.127039281206944"><ele>-2.0</ele><time>2026-03-29T10:14:00Z</time></trkpt><trkpt lat="44.554827021296425" lon="12.127250851700781"><ele>-2.0</ele><time>2026-03-29T10:14:01Z</time></trkpt><trkpt lat="44.55479212421711" lon="12.127467219242527"><ele>-2.0</ele><time>2026-03-29T10:14:02Z</time></trkpt><trkpt lat="44.554757342133094" lon="12.127694101359722"><ele>-1.6666666666666665</ele><time>2026-03-29T10:14:03Z</time></trkpt><trkpt lat="44.554722854281614" lon="12.127924659925174"><ele>-1.3333333333333333</ele><time>2026-03-29T10:14:04Z</time></trkpt><trkpt lat="44.55468742992516" lon="12.128167586396033"><ele>-1.0</ele><time>2026-03-29T10:14:05Z</time></trkpt><trkpt lat="44.55465144451437" lon="12.128414778774419"><ele>-1.3333333333333333</ele><time>2026-03-29T10:14:06Z</time></trkpt><trkpt lat="44.55461637038572" lon="12.128663399302864"><ele>-1.6666666666666665</ele><time>2026-03-29T10:14:07Z</time></trkpt><trkpt lat="44.55457949707453" lon="12.128912003500563"><ele>-2.0</ele><time>2026-03-29T10:14:08Z</time></trkpt><trkpt lat="44.55454527078106" lon="12.129142470795006"><ele>-2.0</ele><time>2026-03-29T10:14:09Z</time></trkpt><trkpt lat="44.554510946041475" lon="12.129360713435982"><ele>-2.0</ele><time>2026-03-29T10:14:10Z</time></trkpt><trkpt lat="44.55447788453443" lon="12.129584750766611"><ele>-2.0</ele><time>2026-03-29T10:14:11Z</time></trkpt><trkpt lat="44.55444320321344" lon="12.129808712163912"><ele>-2.0</ele><time>2026-03-29T10:14:12Z</time></trkpt><trkpt lat="44.55440909144965" lon="12.130034602613932"><ele>-2.0</ele><time>2026-03-29T10:14:13Z</time></trkpt><trkpt lat="44.554375579213264" lon="12.130257093470629"><ele>-2.0</ele><time>2026-03-29T10:14:14Z</time></trkpt><trkpt lat="44.55434216148227" lon="12.13048017438831"><ele>-2.0</ele><time>2026-03-29T10:14:15Z</time></trkpt><trkpt lat="44.55430898306465" lon="12.130695305670512"><ele>-2.0</ele><time>2026-03-29T10:14:16Z</time></trkpt><trkpt lat="44.55427754831286" lon="12.13090384479041"><ele>-2.0</ele><time>2026-03-29T10:14:17Z</time></trkpt><trkpt lat="44.55424849203443" lon="12.13111056355352"><ele>-2.25</ele><time>2026-03-29T10:14:18Z</time></trkpt><trkpt lat="44.55422296611925" lon="12.131307281089516"><ele>-2.5</ele><time>2026-03-29T10:14:19Z</time></trkpt><trkpt lat="44.5541942710821" lon="12.131494762743495"><ele>-2.75</ele><time>2026-03-29T10:14:20Z</time></trkpt><trkpt lat="44.55416594093664" lon="12.131665700461257"><ele>-3.0</ele><time>2026-03-29T10:14:21Z</time></trkpt><trkpt lat="44.55413814974926" lon="12.131838476309294"><ele>-3.0</ele><time>2026-03-29T10:14:22Z</time></trkpt><trkpt lat="44.55411007998017" lon="12.132007442703703"><ele>-3.0</ele><time>2026-03-29T10:14:23Z</time></trkpt><trkpt lat="44.55408600276358" lon="12.132163875230422"><ele>-3.0</ele><time>2026-03-29T10:14:24Z</time></trkpt><trkpt lat="44.55406336986473" lon="12.132312866299102"><ele>-3.0</ele><time>2026-03-29T10:14:25Z</time></trkpt><trkpt lat="44.55404459276919" lon="12.13244873967448"><ele>-3.0</ele><time>2026-03-29T10:14:26Z</time></trkpt><trkpt lat="44.554026207768274" lon="12.132579809856027"><ele>-2.8571428571428568</ele><time>2026-03-29T10:14:27Z</time></trkpt><trkpt lat="44.55400785641622" lon="12.132701772192853"><ele>-2.7142857142857144</ele><time>2026-03-29T10:14:28Z</time></trkpt><trkpt lat="44.55399095542525" lon="12.132811299763208"><ele>-2.571428571428571</ele><time>2026-03-29T10:14:29Z</time></trkpt><trkpt lat="44.553976757306515" lon="12.132913024150302"><ele>-2.4285714285714284</ele><time>2026-03-29T10:14:30Z</time></trkpt><trkpt lat="44.55396484206678" lon="12.13301001409071"><ele>-2.2857142857142856</ele><time>2026-03-29T10:14:31Z</time></trkpt><trkpt lat="44.553951896030036" lon="12.13309850218733"><ele>-2.142857142857143</ele><time>2026-03-29T10:14:32Z</time></trkpt><trkpt lat="44.5539274002218" lon="12.133189891512165"><ele>-2.0</ele><time>2026-03-29T10:14:33Z</time></trkpt><trkpt lat="44.55387862977761" lon="12.13327986894066"><ele>-1.9999999999999998</ele><time>2026-03-29T10:14:34Z</time></trkpt><trkpt lat="44.553808747833884" lon="12.133338523466039"><ele>-2.0</ele><time>2026-03-29T10:14:35Z</time></trkpt><trkpt lat="44.55373704629319" lon="12.133401974848754"><ele>-2.0</ele><time>2026-03-29T10:14:36Z</time></trkpt><trkpt lat="44.55365314304877" lon="12.13337360550772"><ele>-2.0</ele><time>2026-03-29T10:14:37Z</time></trkpt><trkpt lat="44.5535755297091" lon="12.133375126252467"><ele>-1.9999999999999998</ele><time>2026-03-29T10:14:38Z</time></trkpt><trkpt lat="44.553492100465334" lon="12.1333751569416"><ele>-2.0</ele><time>2026-03-29T10:14:39Z</time></trkpt><trkpt lat="44.55340170364058" lon="12.133395695161587"><ele>-1.6</ele><time>2026-03-29T10:14:40Z</time></trkpt><trkpt lat="44.55331592400021" lon="12.133387477038474"><ele>-1.2000000000000002</ele><time>2026-03-29T10:14:41Z</time></trkpt><trkpt lat="44.553227409615076" lon="12.133393691409992"><ele>-0.8</ele><time>2026-03-29T10:14:42Z</time></trkpt><trkpt lat="44.553136391222296" lon="12.133394213754533"><ele>-0.4</ele><time>2026-03-29T10:14:43Z</time></trkpt><trkpt lat="44.55303413174429" lon="12.133395425098554"><ele>0.0</ele><time>2026-03-29T10:14:44Z</time></trkpt><trkpt lat="44.5529156287225" lon="12.133396848251584"><ele>-0.2</ele><time>2026-03-29T10:14:45Z</time></trkpt><trkpt lat="44.5528059966856" lon="12.133402113292643"><ele>-0.4</ele><time>2026-03-29T10:14:46Z</time></trkpt><trkpt lat="44.552702108082585" lon="12.133398669573397"><ele>-0.6000000000000001</ele><time>2026-03-29T10:14:47Z</time></trkpt><trkpt lat="44.552589016861766" lon="12.133398585309253"><ele>-0.8</ele><time>2026-03-29T10:14:48Z</time></trkpt><trkpt lat="44.55247559656555" lon="12.133397051980555"><ele>-1.0</ele><time>2026-03-29T10:14:49Z</time></trkpt><trkpt lat="44.552362520776164" lon="12.133396119522317"><ele>-1.0</ele><time>2026-03-29T10:14:50Z</time></trkpt><trkpt lat="44.552248862449325" lon="12.133400244011598"><ele>-1.0</ele><time>2026-03-29T10:14:51Z</time></trkpt><trkpt lat="44.55213443016864" lon="12.13340293921504"><ele>-1.0</ele><time>2026-03-29T10:14:52Z</time></trkpt><trkpt lat="44.552026542022325" lon="12.133401530652362"><ele>-1.0</ele><time>2026-03-29T10:14:53Z</time></trkpt><trkpt lat="44.55191792303089" lon="12.13340371745886"><ele>-1.0</ele><time>2026-03-29T10:14:54Z</time></trkpt><trkpt lat="44.551810400810226" lon="12.133406902684706"><ele>-1.0</ele><time>2026-03-29T10:14:55Z</time></trkpt><trkpt lat="44.55170354361915" lon="12.133408614275513"><ele>-1.0</ele><time>2026-03-29T10:14:56Z</time></trkpt><trkpt lat="44.551596700950675" lon="12.133410421451734"><ele>-1.0</ele><time>2026-03-29T10:14:57Z</time></trkpt><trkpt lat="44.5514878913999" lon="12.133413014132955"><ele>-1.0</ele><time>2026-03-29T10:14:58Z</time></trkpt><trkpt lat="44.55138586767398" lon="12.133419039955607"><ele>-1.0</ele><time>2026-03-29T10:14:59Z</time></trkpt><trkpt lat="44.55129649256896" lon="12.133426693647682"><ele>-0.8</ele><time>2026-03-29T10:15:00Z</time></trkpt><trkpt lat="44.55120035375683" lon="12.133447363911909"><ele>-0.6000000000000001</ele><time>2026-03-29T10:15:01Z</time></trkpt><trkpt lat="44.551110994317824" lon="12.133476096582493"><ele>-0.4</ele><time>2026-03-29T10:15:02Z</time></trkpt><trkpt lat="44.5510190815801" lon="12.133501628147242"><ele>-0.2</ele><time>2026-03-29T10:15:03Z</time></trkpt><trkpt lat="44.55091503608083" lon="12.133542650480729"><ele>0.0</ele><time>2026-03-29T10:15:04Z</time></trkpt><trkpt lat="44.5508143823489" lon="12.133578599924142"><ele>0.0</ele><time>2026-03-29T10:15:05Z</time></trkpt><trkpt lat="44.550718871819335" lon="12.13362045445855"><ele>0.0</ele><time>2026-03-29T10:15:06Z</time></trkpt><trkpt lat="44.55061889508775" lon="12.133671675571026"><ele>0.0</ele><time>2026-03-29T10:15:07Z</time></trkpt><trkpt lat="44.55052730630741" lon="12.133726298858065"><ele>0.0</ele><time>2026-03-29T10:15:08Z</time></trkpt><trkpt lat="44.550443314414395" lon="12.133791472737629"><ele>0.0</ele><time>2026-03-29T10:15:09Z</time></trkpt><trkpt lat="44.55037176369352" lon="12.133856216215587"><ele>-0.16666666666666666</ele><time>2026-03-29T10:15:10Z</time></trkpt><trkpt lat="44.55029856702188" lon="12.133927242480778"><ele>-0.3333333333333333</ele><time>2026-03-29T10:15:11Z</time></trkpt><trkpt lat="44.55022334577121" lon="12.134001996924527"><ele>-0.5</ele><time>2026-03-29T10:15:12Z</time></trkpt><trkpt lat="44.5501592114655" lon="12.134078862966689"><ele>-0.6666666666666666</ele><time>2026-03-29T10:15:13Z</time></trkpt><trkpt lat="44.55010072095869" lon="12.134156043808451"><ele>-0.8333333333333333</ele><time>2026-03-29T10:15:14Z</time></trkpt><trkpt lat="44.55004448853665" lon="12.134249870922796"><ele>-1.0</ele><time>2026-03-29T10:15:15Z</time></trkpt><trkpt lat="44.5499824372389" lon="12.134361871292977"><ele>-0.9999999999999999</ele><time>2026-03-29T10:15:16Z</time></trkpt><trkpt lat="44.54990423549896" lon="12.134466063343174"><ele>-1.0</ele><time>2026-03-29T10:15:17Z</time></trkpt><trkpt lat="44.54984529207136" lon="12.13457455950122"><ele>-1.0</ele><time>2026-03-29T10:15:18Z</time></trkpt><trkpt lat="44.54980977016341" lon="12.134676720234863"><ele>-1.0</ele><time>2026-03-29T10:15:19Z</time></trkpt><trkpt lat="44.54976107709337" lon="12.134753458294721"><ele>-0.9999999999999999</ele><time>2026-03-29T10:15:20Z</time></trkpt><trkpt lat="44.54971179374139" lon="12.13483744630843"><ele>-1.0</ele><time>2026-03-29T10:15:21Z</time></trkpt><trkpt lat="44.54969164091358" lon="12.134932858848718"><ele>-0.8571428571428571</ele><time>2026-03-29T10:15:22Z</time></trkpt><trkpt lat="44.54967093718309" lon="12.135036814696894"><ele>-0.7142857142857142</ele><time>2026-03-29T10:15:23Z</time></trkpt><trkpt lat="44.5496633472367" lon="12.135139475655896"><ele>-0.5714285714285714</ele><time>2026-03-29T10:15:24Z</time></trkpt><trkpt lat="44.54966962523941" lon="12.135233237135731"><ele>-0.42857142857142855</ele><time>2026-03-29T10:15:25Z</time></trkpt><trkpt lat="44.549687808855566" lon="12.135323996414277"><ele>-0.2857142857142857</ele><time>2026-03-29T10:15:26Z</time></trkpt><trkpt lat="44.549713275975" lon="12.135420050428648"><ele>-0.14285714285714285</ele><time>2026-03-29T10:15:27Z</time></trkpt><trkpt lat="44.549746744300336" lon="12.135516832006102"><ele>0.0</ele><time>2026-03-29T10:15:28Z</time></trkpt><trkpt lat="44.549785427701195" lon="12.135611908398749"><ele>0.0</ele><time>2026-03-29T10:15:29Z</time></trkpt><trkpt lat="44.54980762600232" lon="12.135714591397491"><ele>0.0</ele><time>2026-03-29T10:15:30Z</time></trkpt><trkpt lat="44.54986393743275" lon="12.135811693207485"><ele>0.0</ele><time>2026-03-29T10:15:31Z</time></trkpt><trkpt lat="44.54989714839932" lon="12.135925417340276"><ele>0.0</ele><time>2026-03-29T10:15:32Z</time></trkpt><trkpt lat="44.54994058615469" lon="12.136029295253817"><ele>0.0</ele><time>2026-03-29T10:15:33Z</time></trkpt><trkpt lat="44.549998967484775" lon="12.136123671513763"><ele>0.0</ele><time>2026-03-29T10:15:34Z</time></trkpt><trkpt lat="44.55003918757985" lon="12.136237589724631"><ele>0.0</ele><time>2026-03-29T10:15:35Z</time></trkpt><trkpt lat="44.550088606246256" lon="12.136340303881521"><ele>0.0</ele><time>2026-03-29T10:15:36Z</time></trkpt><trkpt lat="44.550127980538875" lon="12.1364492534757"><ele>0.0</ele><time>2026-03-29T10:15:37Z</time></trkpt><trkpt lat="44.55018075716227" lon="12.136556903929948"><ele>0.0</ele><time>2026-03-29T10:15:38Z</time></trkpt><trkpt lat="44.55023079649688" lon="12.136669637986808"><ele>0.0</ele><time>2026-03-29T10:15:39Z</time></trkpt><trkpt lat="44.55027032178526" lon="12.136776896805326"><ele>0.0</ele><time>2026-03-29T10:15:40Z</time></trkpt><trkpt lat="44.55032380202269" lon="12.136842136496613"><ele>0.0</ele><time>2026-03-29T10:15:41Z</time></trkpt><trkpt lat="44.55038907189036" lon="12.136949591378686"><ele>0.0</ele><time>2026-03-29T10:15:43Z</time></trkpt><trkpt lat="44.55047722100585" lon="12.137088879042283"><ele>0.0</ele><time>2026-03-29T10:15:45Z</time></trkpt><trkpt lat="44.5505697772403" lon="12.137201490585793"><ele>0.0</ele><time>2026-03-29T10:15:47Z</time></trkpt><trkpt lat="44.55062137155319" lon="12.13726648843272"><ele>0.0</ele><time>2026-03-29T10:15:48Z</time></trkpt><trkpt lat="44.55066810270227" lon="12.137330481166995"><ele>0.4</ele><time>2026-03-29T10:15:49Z</time></trkpt><trkpt lat="44.550735347237044" lon="12.137431237785359"><ele>0.8</ele><time>2026-03-29T10:15:51Z</time></trkpt><trkpt lat="44.550790829866955" lon="12.137513481911679"><ele>1.2000000000000002</ele><time>2026-03-29T10:15:53Z</time></trkpt><trkpt lat="44.550852167518954" lon="12.137607077958034"><ele>1.6</ele><time>2026-03-29T10:15:56Z</time></trkpt><trkpt lat="44.55091542581555" lon="12.13771070962881"><ele>2.0</ele><time>2026-03-29T10:15:59Z</time></trkpt><trkpt lat="44.55097700077999" lon="12.137810023808267"><ele>2.0</ele><time>2026-03-29T10:16:01Z</time></trkpt><trkpt lat="44.55103671933134" lon="12.137907943818465"><ele>2.0</ele><time>2026-03-29T10:16:04Z</time></trkpt><trkpt lat="44.551087021147765" lon="12.138004515892437"><ele>2.0</ele><time>2026-03-29T10:16:07Z</time></trkpt><trkpt lat="44.55114156396287" lon="12.138103305603096"><ele>2.0</ele><time>2026-03-29T10:16:10Z</time></trkpt><trkpt lat="44.55121614167579" lon="12.138242867601651"><ele>2.0</ele><time>2026-03-29T10:16:12Z</time></trkpt><trkpt lat="44.55125418384364" lon="12.138323599218126"><ele>1.8</ele><time>2026-03-29T10:16:13Z</time></trkpt><trkpt lat="44.55130360371486" lon="12.138429804260943"><ele>1.6</ele><time>2026-03-29T10:16:14Z</time></trkpt><trkpt lat="44.551355393589226" lon="12.138544619482134"><ele>1.4000000000000001</ele><time>2026-03-29T10:16:15Z</time></trkpt><trkpt lat="44.551406496673565" lon="12.138655652098045"><ele>1.2000000000000002</ele><time>2026-03-29T10:16:16Z</time></trkpt><trkpt lat="44.5514508576094" lon="12.138765279403637"><ele>1.0</ele><time>2026-03-29T10:16:17Z</time></trkpt><trkpt lat="44.55149020153652" lon="12.138862771649329"><ele>0.9999999999999999</ele><time>2026-03-29T10:16:18Z</time></trkpt><trkpt lat="44.55152534784801" lon="12.138956067854476"><ele>1.0</ele><time>2026-03-29T10:16:19Z</time></trkpt><trkpt lat="44.551558598380964" lon="12.139055943653895"><ele>1.0</ele><time>2026-03-29T10:16:20Z</time></trkpt><trkpt lat="44.55159877350286" lon="12.139171815991107"><ele>1.0</ele><time>2026-03-29T10:16:21Z</time></trkpt><trkpt lat="44.55163694544699" lon="12.139286704467438"><ele>0.9999999999999999</ele><time>2026-03-29T10:16:22Z</time></trkpt><trkpt lat="44.55167429288312" lon="12.139397257636798"><ele>1.0</ele><time>2026-03-29T10:16:23Z</time></trkpt><trkpt lat="44.55170674666366" lon="12.139499719931202"><ele>1.1666666666666665</ele><time>2026-03-29T10:16:24Z</time></trkpt><trkpt lat="44.55173807596394" lon="12.139612330398412"><ele>1.3333333333333333</ele><time>2026-03-29T10:16:25Z</time></trkpt><trkpt lat="44.551766795259" lon="12.139721394100816"><ele>1.5</ele><time>2026-03-29T10:16:26Z</time></trkpt><trkpt lat="44.55179640513408" lon="12.139841377573688"><ele>1.6666666666666665</ele><time>2026-03-29T10:16:27Z</time></trkpt><trkpt lat="44.55182201426419" lon="12.139955295148216"><ele>1.8333333333333333</ele><time>2026-03-29T10:16:28Z</time></trkpt><trkpt lat="44.551845690853966" lon="12.140073296887767"><ele>2.0</ele><time>2026-03-29T10:16:29Z</time></trkpt><trkpt lat="44.551867697669294" lon="12.140201646103055"><ele>2.0</ele><time>2026-03-29T10:16:30Z</time></trkpt><trkpt lat="44.55188864210519" lon="12.140335411987797"><ele>2.0</ele><time>2026-03-29T10:16:31Z</time></trkpt><trkpt lat="44.55190880064456" lon="12.14046975451447"><ele>2.0</ele><time>2026-03-29T10:16:32Z</time></trkpt><trkpt lat="44.55192423869508" lon="12.140605363806477"><ele>2.0</ele><time>2026-03-29T10:16:33Z</time></trkpt><trkpt lat="44.5519378798937" lon="12.140747520427947"><ele>2.0</ele><time>2026-03-29T10:16:34Z</time></trkpt><trkpt lat="44.551948918039166" lon="12.14088992055365"><ele>2.0</ele><time>2026-03-29T10:16:35Z</time></trkpt><trkpt lat="44.55195997153625" lon="12.14103293044939"><ele>2.0</ele><time>2026-03-29T10:16:36Z</time></trkpt><trkpt lat="44.55196881360566" lon="12.14117335286991"><ele>2.0</ele><time>2026-03-29T10:16:37Z</time></trkpt><trkpt lat="44.551978515974355" lon="12.14131412547076"><ele>2.0</ele><time>2026-03-29T10:16:38Z</time></trkpt><trkpt lat="44.551985914960916" lon="12.141457711006588"><ele>2.0</ele><time>2026-03-29T10:16:39Z</time></trkpt><trkpt lat="44.55199151701435" lon="12.141604724260224"><ele>2.2</ele><time>2026-03-29T10:16:40Z</time></trkpt><trkpt lat="44.551995558638914" lon="12.14174940343834"><ele>2.4000000000000004</ele><time>2026-03-29T10:16:41Z</time></trkpt><trkpt lat="44.55199438785785" lon="12.141894014426567"><ele>2.5999999999999996</ele><time>2026-03-29T10:16:42Z</time></trkpt><trkpt lat="44.551989169546495" lon="12.142033644409286"><ele>2.8</ele><time>2026-03-29T10:16:43Z</time></trkpt><trkpt lat="44.55198183371216" lon="12.14217484314295"><ele>3.0</ele><time>2026-03-29T10:16:44Z</time></trkpt><trkpt lat="44.551971355784815" lon="12.142318054435796"><ele>3.2</ele><time>2026-03-29T10:16:45Z</time></trkpt><trkpt lat="44.55195465630281" lon="12.142460944262762"><ele>3.4</ele><time>2026-03-29T10:16:46Z</time></trkpt><trkpt lat="44.551932530845214" lon="12.14260550884726"><ele>3.6000000000000005</ele><time>2026-03-29T10:16:47Z</time></trkpt><trkpt lat="44.55190873370262" lon="12.14274281003943"><ele>3.8000000000000003</ele><time>2026-03-29T10:16:48Z</time></trkpt><trkpt lat="44.551881247851725" lon="12.142880698690707"><ele>4.0</ele><time>2026-03-29T10:16:49Z</time></trkpt><trkpt lat="44.55184870866114" lon="12.143017650911744"><ele>4.0</ele><time>2026-03-29T10:16:50Z</time></trkpt><trkpt lat="44.55181200640052" lon="12.143155770725022"><ele>4.0</ele><time>2026-03-29T10:16:51Z</time></trkpt><trkpt lat="44.55177133465084" lon="12.143293810102874"><ele>4.0</ele><time>2026-03-29T10:16:52Z</time></trkpt><trkpt lat="44.551727336111895" lon="12.143431932936453"><ele>4.0</ele><time>2026-03-29T10:16:53Z</time></trkpt><trkpt lat="44.551682609688996" lon="12.14356894876987"><ele>4.0</ele><time>2026-03-29T10:16:54Z</time></trkpt><trkpt lat="44.55163657639802" lon="12.143706443765566"><ele>3.6</ele><time>2026-03-29T10:16:55Z</time></trkpt><trkpt lat="44.55158794353555" lon="12.143840490202566"><ele>3.2</ele><time>2026-03-29T10:16:56Z</time></trkpt><trkpt lat="44.55153324842317" lon="12.1439708493927"><ele>2.8000000000000003</ele><time>2026-03-29T10:16:57Z</time></trkpt><trkpt lat="44.55147737060308" lon="12.144098905215731"><ele>2.4000000000000004</ele><time>2026-03-29T10:16:58Z</time></trkpt><trkpt lat="44.55141673241288" lon="12.14422172724794"><ele>2.0</ele><time>2026-03-29T10:16:59Z</time></trkpt><trkpt lat="44.551353699990436" lon="12.14434304102919"><ele>1.8</ele><time>2026-03-29T10:17:00Z</time></trkpt><trkpt lat="44.551293439764606" lon="12.144457917414526"><ele>1.6</ele><time>2026-03-29T10:17:01Z</time></trkpt><trkpt lat="44.551232462082645" lon="12.144568462295407"><ele>1.4000000000000001</ele><time>2026-03-29T10:17:02Z</time></trkpt><trkpt lat="44.551166225428304" lon="12.144678892466858"><ele>1.2000000000000002</ele><time>2026-03-29T10:17:03Z</time></trkpt><trkpt lat="44.55109567102573" lon="12.144789610251395"><ele>1.0</ele><time>2026-03-29T10:17:04Z</time></trkpt><trkpt lat="44.55102234281778" lon="12.144899141239163"><ele>1.4</ele><time>2026-03-29T10:17:05Z</time></trkpt><trkpt lat="44.550945453098606" lon="12.145009124952864"><ele>1.8</ele><time>2026-03-29T10:17:06Z</time></trkpt><trkpt lat="44.550866607912894" lon="12.145117080784454"><ele>2.1999999999999997</ele><time>2026-03-29T10:17:07Z</time></trkpt><trkpt lat="44.55078624120157" lon="12.145221793078846"><ele>2.6</ele><time>2026-03-29T10:17:08Z</time></trkpt><trkpt lat="44.550703130392385" lon="12.145322852450807"><ele>3.0</ele><time>2026-03-29T10:17:09Z</time></trkpt><trkpt lat="44.55061616972259" lon="12.145419975620097"><ele>3.0</ele><time>2026-03-29T10:17:10Z</time></trkpt><trkpt lat="44.5505279497182" lon="12.145517350138928"><ele>3.0</ele><time>2026-03-29T10:17:11Z</time></trkpt><trkpt lat="44.550438304517755" lon="12.145610066395147"><ele>3.0</ele><time>2026-03-29T10:17:12Z</time></trkpt><trkpt lat="44.55034804916585" lon="12.145700561394015"><ele>3.0</ele><time>2026-03-29T10:17:13Z</time></trkpt><trkpt lat="44.550260634585285" lon="12.145791283722588"><ele>3.0</ele><time>2026-03-29T10:17:14Z</time></trkpt><trkpt lat="44.55016486749681" lon="12.145884649065788"><ele>3.0</ele><time>2026-03-29T10:17:15Z</time></trkpt><trkpt lat="44.550059901858134" lon="12.145949164726794"><ele>3.0</ele><time>2026-03-29T10:17:16Z</time></trkpt><trkpt lat="44.54996662315582" lon="12.1460412590312"><ele>3.0</ele><time>2026-03-29T10:17:17Z</time></trkpt><trkpt lat="44.54986862039375" lon="12.146123553665692"><ele>3.0</ele><time>2026-03-29T10:17:18Z</time></trkpt><trkpt lat="44.54976609798228" lon="12.146206072846343"><ele>3.0</ele><time>2026-03-29T10:17:19Z</time></trkpt><trkpt lat="44.54966546127408" lon="12.146285123380535"><ele>3.0</ele><time>2026-03-29T10:17:20Z</time></trkpt><trkpt lat="44.54956750253651" lon="12.14636249614349"><ele>3.0</ele><time>2026-03-29T10:17:21Z</time></trkpt><trkpt lat="44.54947063946331" lon="12.14644193151243"><ele>3.0</ele><time>2026-03-29T10:17:22Z</time></trkpt><trkpt lat="44.549376920995144" lon="12.146523165799433"><ele>2.4</ele><time>2026-03-29T10:17:23Z</time></trkpt><trkpt lat="44.54928314246643" lon="12.146606631935448"><ele>1.7999999999999998</ele><time>2026-03-29T10:17:24Z</time></trkpt><trkpt lat="44.54918915175743" lon="12.146690023635552"><ele>1.2</ele><time>2026-03-29T10:17:25Z</time></trkpt><trkpt lat="44.54909937403227" lon="12.146769784698574"><ele>0.6</ele><time>2026-03-29T10:17:26Z</time></trkpt><trkpt lat="44.549020263681506" lon="12.146848039202824"><ele>0.0</ele><time>2026-03-29T10:17:27Z</time></trkpt><trkpt lat="44.548947767496465" lon="12.146920823117972"><ele>0.0</ele><time>2026-03-29T10:17:28Z</time></trkpt><trkpt lat="44.54888395894781" lon="12.146994489734613"><ele>0.0</ele><time>2026-03-29T10:17:29Z</time></trkpt><trkpt lat="44.54882653473316" lon="12.147074938832462"><ele>0.0</ele><time>2026-03-29T10:17:30Z</time></trkpt><trkpt lat="44.54877134462451" lon="12.147142461299683"><ele>0.0</ele><time>2026-03-29T10:17:31Z</time></trkpt><trkpt lat="44.548714725625516" lon="12.14720482216163"><ele>0.0</ele><time>2026-03-29T10:17:32Z</time></trkpt><trkpt lat="44.548662868557" lon="12.14726296843807"><ele>0.0</ele><time>2026-03-29T10:17:33Z</time></trkpt><trkpt lat="44.54857191732012" lon="12.147368244102665"><ele>0.2</ele><time>2026-03-29T10:17:35Z</time></trkpt><trkpt lat="44.54849703764937" lon="12.14746893727979"><ele>0.4</ele><time>2026-03-29T10:17:37Z</time></trkpt><trkpt lat="44.5484311423755" lon="12.147579075072038"><ele>0.6000000000000001</ele><time>2026-03-29T10:17:39Z</time></trkpt><trkpt lat="44.54840944017451" lon="12.147709749621121"><ele>0.8</ele><time>2026-03-29T10:17:41Z</time></trkpt><trkpt lat="44.5484227600482" lon="12.147828667490502"><ele>1.0</ele><time>2026-03-29T10:17:43Z</time></trkpt><trkpt lat="44.54843621650703" lon="12.1479612775285"><ele>0.9999999999999999</ele><time>2026-03-29T10:17:45Z</time></trkpt><trkpt lat="44.54842803435268" lon="12.148049784154106"><ele>1.0</ele><time>2026-03-29T10:17:48Z</time></trkpt><trkpt lat="44.54835988443614" lon="12.147935437016523"><ele>1.0</ele><time>2026-03-29T10:17:51Z</time></trkpt><trkpt lat="44.548356013355175" lon="12.14782587210355"><ele>1.0</ele><time>2026-03-29T10:17:53Z</time></trkpt><trkpt lat="44.5483514019737" lon="12.147720591517862"><ele>0.9999999999999999</ele><time>2026-03-29T10:17:55Z</time></trkpt><trkpt lat="44.548363035544476" lon="12.147622052249362"><ele>1.0</ele><time>2026-03-29T10:17:57Z</time></trkpt><trkpt lat="44.548385931092184" lon="12.147535503318073"><ele>0.9999999999999999</ele><time>2026-03-29T10:17:59Z</time></trkpt><trkpt lat="44.54840639090705" lon="12.147436726551737"><ele>1.0</ele><time>2026-03-29T10:18:01Z</time></trkpt><trkpt lat="44.54846669744791" lon="12.147348916987843"><ele>1.0</ele><time>2026-03-29T10:18:03Z</time></trkpt><trkpt lat="44.54851411326907" lon="12.147249419868738"><ele>1.0</ele><time>2026-03-29T10:18:05Z</time></trkpt><trkpt lat="44.54857433052711" lon="12.147178461249025"><ele>0.9999999999999999</ele><time>2026-03-29T10:18:07Z</time></trkpt><trkpt lat="44.54863885069736" lon="12.147102362325729"><ele>1.0</ele><time>2026-03-29T10:18:10Z</time></trkpt><trkpt lat="44.54867310576687" lon="12.14702085920845"><ele>1.0</ele><time>2026-03-29T10:18:15Z</time></trkpt><trkpt lat="44.54860840364403" lon="12.146946546364875"><ele>1.0</ele><time>2026-03-29T10:19:23Z</time></trkpt><trkpt lat="44.54857819629194" lon="12.146864861230691"><ele>1.0</ele><time>2026-03-29T10:19:27Z</time></trkpt><trkpt lat="44.54855304027206" lon="12.146777974192023"><ele>1.0</ele><time>2026-03-29T10:21:26Z</time></trkpt><trkpt lat="44.54836727966845" lon="12.14635799349023"><ele>0.9999999999999999</ele><time>2026-03-29T10:21:28Z</time></trkpt><trkpt lat="44.548331693546054" lon="12.14628002775867"><ele>1.0</ele><time>2026-03-29T10:21:41Z</time></trkpt><trkpt lat="44.548280562561146" lon="12.146190363109163"><ele>1.0</ele><time>2026-03-29T10:21:44Z</time></trkpt><trkpt lat="44.54821242528064" lon="12.146099090515587"><ele>1.0</ele><time>2026-03-29T10:21:46Z</time></trkpt><trkpt lat="44.54811499896498" lon="12.146033617496844"><ele>0.9999999999999999</ele><time>2026-03-29T10:21:48Z</time></trkpt><trkpt lat="44.54803922541574" lon="12.146009234205946"><ele>1.0</ele><time>2026-03-29T10:21:50Z</time></trkpt><trkpt lat="44.547970439316366" lon="12.146018222778972"><ele>0.9999999999999999</ele><time>2026-03-29T10:21:51Z</time></trkpt><trkpt lat="44.547902516182965" lon="12.14604384775739"><ele>1.0</ele><time>2026-03-29T10:21:52Z</time></trkpt><trkpt lat="44.547850712557896" lon="12.146096218518561"><ele>1.0</ele><time>2026-03-29T10:21:53Z</time></trkpt><trkpt lat="44.54772323552267" lon="12.146136007337343"><ele>1.0</ele><time>2026-03-29T10:21:55Z</time></trkpt><trkpt lat="44.54765078912803" lon="12.146173348320598"><ele>0.9999999999999999</ele><time>2026-03-29T10:21:56Z</time></trkpt><trkpt lat="44.54757717263548" lon="12.146215746896653"><ele>1.0</ele><time>2026-03-29T10:21:57Z</time></trkpt><trkpt lat="44.547513146881485" lon="12.146264001557727"><ele>0.9999999999999999</ele><time>2026-03-29T10:21:58Z</time></trkpt><trkpt lat="44.5474482617529" lon="12.146316897240684"><ele>1.0</ele><time>2026-03-29T10:21:59Z</time></trkpt><trkpt lat="44.54737554118033" lon="12.14639036942414"><ele>1.0</ele><time>2026-03-29T10:22:00Z</time></trkpt><trkpt lat="44.5473126013311" lon="12.146476778427992"><ele>1.0</ele><time>2026-03-29T10:22:01Z</time></trkpt><trkpt lat="44.547266213147736" lon="12.14656462367356"><ele>0.9999999999999999</ele><time>2026-03-29T10:22:02Z</time></trkpt><trkpt lat="44.54722527634017" lon="12.146654313751732"><ele>1.0</ele><time>2026-03-29T10:22:03Z</time></trkpt><trkpt lat="44.547192084755196" lon="12.1467418493423"><ele>0.8571428571428571</ele><time>2026-03-29T10:22:04Z</time></trkpt><trkpt lat="44.547160108532765" lon="12.14683520602217"><ele>0.7142857142857142</ele><time>2026-03-29T10:22:05Z</time></trkpt><trkpt lat="44.547133044243154" lon="12.146921709051691"><ele>0.5714285714285714</ele><time>2026-03-29T10:22:06Z</time></trkpt><trkpt lat="44.54712229403059" lon="12.147016447646012"><ele>0.42857142857142855</ele><time>2026-03-29T10:22:07Z</time></trkpt><trkpt lat="44.54708089305917" lon="12.1471026372067"><ele>0.2857142857142857</ele><time>2026-03-29T10:22:08Z</time></trkpt><trkpt lat="44.54705201386486" lon="12.147203420137952"><ele>0.14285714285714285</ele><time>2026-03-29T10:22:09Z</time></trkpt><trkpt lat="44.54702279527298" lon="12.147305387582756"><ele>0.0</ele><time>2026-03-29T10:22:10Z</time></trkpt><trkpt lat="44.54699306331492" lon="12.147408820112828"><ele>0.0</ele><time>2026-03-29T10:22:11Z</time></trkpt><trkpt lat="44.54696494237092" lon="12.14751992080828"><ele>0.0</ele><time>2026-03-29T10:22:12Z</time></trkpt><trkpt lat="44.54694405036819" lon="12.147622997745165"><ele>0.0</ele><time>2026-03-29T10:22:13Z</time></trkpt><trkpt lat="44.546925615838056" lon="12.147717478000924"><ele>0.0</ele><time>2026-03-29T10:22:14Z</time></trkpt><trkpt lat="44.54692353184648" lon="12.147815288711985"><ele>0.0</ele><time>2026-03-29T10:22:15Z</time></trkpt><trkpt lat="44.546890591880846" lon="12.147895355442298"><ele>0.0</ele><time>2026-03-29T10:22:16Z</time></trkpt><trkpt lat="44.546874471748545" lon="12.147983794392124"><ele>0.0</ele><time>2026-03-29T10:22:17Z</time></trkpt><trkpt lat="44.54685755821449" lon="12.148075476305886"><ele>0.0</ele><time>2026-03-29T10:22:18Z</time></trkpt><trkpt lat="44.54679420682716" lon="12.14813636933702"><ele>0.0</ele><time>2026-03-29T10:22:19Z</time></trkpt><trkpt lat="44.54672151651448" lon="12.148205200347329"><ele>0.0</ele><time>2026-03-29T10:22:20Z</time></trkpt><trkpt lat="44.54665130533645" lon="12.148260533198739"><ele>0.0</ele><time>2026-03-29T10:22:21Z</time></trkpt><trkpt lat="44.54657508475387" lon="12.148329108784546"><ele>0.0</ele><time>2026-03-29T10:22:22Z</time></trkpt><trkpt lat="44.54649091489603" lon="12.148391278042189"><ele>0.0</ele><time>2026-03-29T10:22:23Z</time></trkpt><trkpt lat="44.54640453471204" lon="12.14845706562622"><ele>0.2</ele><time>2026-03-29T10:22:24Z</time></trkpt><trkpt lat="44.5463161836255" lon="12.1485357569199"><ele>0.4</ele><time>2026-03-29T10:22:25Z</time></trkpt><trkpt lat="44.546230893179064" lon="12.148621436755263"><ele>0.6000000000000001</ele><time>2026-03-29T10:22:26Z</time></trkpt><trkpt lat="44.54614239863696" lon="12.14870417252427"><ele>0.8</ele><time>2026-03-29T10:22:27Z</time></trkpt><trkpt lat="44.546085878865455" lon="12.148772923044394"><ele>1.0</ele><time>2026-03-29T10:22:28Z</time></trkpt><trkpt lat="44.54603736964548" lon="12.148869371316682"><ele>1.0</ele><time>2026-03-29T10:22:29Z</time></trkpt><trkpt lat="44.54597300433169" lon="12.148958850960462"><ele>1.0</ele><time>2026-03-29T10:22:30Z</time></trkpt><trkpt lat="44.545905605466906" lon="12.14905072363541"><ele>1.0</ele><time>2026-03-29T10:22:31Z</time></trkpt><trkpt lat="44.54581436518583" lon="12.149150537096126"><ele>1.0</ele><time>2026-03-29T10:22:32Z</time></trkpt><trkpt lat="44.54573863424965" lon="12.149257267003676"><ele>1.0</ele><time>2026-03-29T10:22:33Z</time></trkpt><trkpt lat="44.54566610324694" lon="12.149369073184001"><ele>1.0</ele><time>2026-03-29T10:22:34Z</time></trkpt><trkpt lat="44.54559251560679" lon="12.14947826358597"><ele>1.0</ele><time>2026-03-29T10:22:35Z</time></trkpt><trkpt lat="44.54551713735958" lon="12.149592010092695"><ele>1.0</ele><time>2026-03-29T10:22:36Z</time></trkpt><trkpt lat="44.545443632695154" lon="12.149713012907444"><ele>1.0</ele><time>2026-03-29T10:22:37Z</time></trkpt><trkpt lat="44.54537928675893" lon="12.149819350074372"><ele>1.0</ele><time>2026-03-29T10:22:38Z</time></trkpt><trkpt lat="44.54532476064434" lon="12.149914345457463"><ele>0.8</ele><time>2026-03-29T10:22:39Z</time></trkpt><trkpt lat="44.54526977854639" lon="12.150008253263886"><ele>0.6000000000000001</ele><time>2026-03-29T10:22:40Z</time></trkpt><trkpt lat="44.54520924394923" lon="12.150107252288116"><ele>0.4</ele><time>2026-03-29T10:22:41Z</time></trkpt><trkpt lat="44.54515068582753" lon="12.150202775601521"><ele>0.2</ele><time>2026-03-29T10:22:42Z</time></trkpt><trkpt lat="44.54509168121596" lon="12.150301454072997"><ele>0.0</ele><time>2026-03-29T10:22:43Z</time></trkpt><trkpt lat="44.545031189044245" lon="12.15040633274992"><ele>0.0</ele><time>2026-03-29T10:22:44Z</time></trkpt><trkpt lat="44.544970389441424" lon="12.150506616987858"><ele>0.0</ele><time>2026-03-29T10:22:45Z</time></trkpt><trkpt lat="44.54491419012209" lon="12.15060107212224"><ele>0.0</ele><time>2026-03-29T10:22:46Z</time></trkpt><trkpt lat="44.54486880980512" lon="12.150689343616225"><ele>0.0</ele><time>2026-03-29T10:22:47Z</time></trkpt><trkpt lat="44.54481289058705" lon="12.150783064130918"><ele>0.0</ele><time>2026-03-29T10:22:48Z</time></trkpt><trkpt lat="44.544747700566376" lon="12.150894107305355"><ele>0.0</ele><time>2026-03-29T10:22:49Z</time></trkpt><trkpt lat="44.544677651452986" lon="12.151008650735662"><ele>0.2</ele><time>2026-03-29T10:22:50Z</time></trkpt><trkpt lat="44.54461228637552" lon="12.151124067390112"><ele>0.4</ele><time>2026-03-29T10:22:51Z</time></trkpt><trkpt lat="44.544546635147015" lon="12.151233253153974"><ele>0.6000000000000001</ele><time>2026-03-29T10:22:52Z</time></trkpt><trkpt lat="44.544484181121824" lon="12.151342099904278"><ele>0.8</ele><time>2026-03-29T10:22:53Z</time></trkpt><trkpt lat="44.54443305301791" lon="12.15144352016419"><ele>1.0</ele><time>2026-03-29T10:22:54Z</time></trkpt><trkpt lat="44.54438438679528" lon="12.151534554473358"><ele>1.1666666666666665</ele><time>2026-03-29T10:22:55Z</time></trkpt><trkpt lat="44.544327507003594" lon="12.151636104939994"><ele>1.3333333333333333</ele><time>2026-03-29T10:22:56Z</time></trkpt><trkpt lat="44.5442764626714" lon="12.151725830183148"><ele>1.5</ele><time>2026-03-29T10:22:57Z</time></trkpt><trkpt lat="44.54421853987117" lon="12.151798437828486"><ele>1.6666666666666665</ele><time>2026-03-29T10:22:58Z</time></trkpt><trkpt lat="44.54417410716529" lon="12.151896071977973"><ele>1.8333333333333333</ele><time>2026-03-29T10:22:59Z</time></trkpt><trkpt lat="44.54411981265369" lon="12.151991681682038"><ele>2.0</ele><time>2026-03-29T10:23:00Z</time></trkpt><trkpt lat="44.5440629771882" lon="12.15208945328901"><ele>2.0</ele><time>2026-03-29T10:23:01Z</time></trkpt><trkpt lat="44.543998371437816" lon="12.152181587640143"><ele>2.0</ele><time>2026-03-29T10:23:02Z</time></trkpt><trkpt lat="44.54393965589798" lon="12.15227008734464"><ele>2.0</ele><time>2026-03-29T10:23:03Z</time></trkpt><trkpt lat="44.54388575511741" lon="12.15237379514892"><ele>2.0</ele><time>2026-03-29T10:23:04Z</time></trkpt><trkpt lat="44.54383839335836" lon="12.15247134640311"><ele>2.0</ele><time>2026-03-29T10:23:05Z</time></trkpt><trkpt lat="44.54378863053966" lon="12.152585967216957"><ele>1.8</ele><time>2026-03-29T10:23:06Z</time></trkpt><trkpt lat="44.543748326932075" lon="12.152705222206466"><ele>1.6</ele><time>2026-03-29T10:23:07Z</time></trkpt><trkpt lat="44.54370123549792" lon="12.152824465401643"><ele>1.4000000000000001</ele><time>2026-03-29T10:23:08Z</time></trkpt><trkpt lat="44.54365226094914" lon="12.15293907755908"><ele>1.2000000000000002</ele><time>2026-03-29T10:23:09Z</time></trkpt><trkpt lat="44.54360866575097" lon="12.153054436450077"><ele>1.0</ele><time>2026-03-29T10:23:10Z</time></trkpt><trkpt lat="44.54356272612864" lon="12.153178424095122"><ele>1.5</ele><time>2026-03-29T10:23:11Z</time></trkpt><trkpt lat="44.54351554986776" lon="12.153297084410328"><ele>2.0</ele><time>2026-03-29T10:23:12Z</time></trkpt><trkpt lat="44.543479605343684" lon="12.153411192729"><ele>2.5</ele><time>2026-03-29T10:23:13Z</time></trkpt><trkpt lat="44.543446677857446" lon="12.153518903689246"><ele>3.0</ele><time>2026-03-29T10:23:14Z</time></trkpt><trkpt lat="44.54341817940609" lon="12.153622848700083"><ele>3.4999999999999996</ele><time>2026-03-29T10:23:15Z</time></trkpt><trkpt lat="44.54338254094391" lon="12.153736715855857"><ele>4.0</ele><time>2026-03-29T10:23:16Z</time></trkpt><trkpt lat="44.543339934824274" lon="12.153852646971579"><ele>4.0</ele><time>2026-03-29T10:23:17Z</time></trkpt><trkpt lat="44.543293065990156" lon="12.153976223830588"><ele>4.0</ele><time>2026-03-29T10:23:18Z</time></trkpt><trkpt lat="44.54324826205883" lon="12.15408369847662"><ele>4.0</ele><time>2026-03-29T10:23:19Z</time></trkpt><trkpt lat="44.54320207563119" lon="12.154190917641335"><ele>4.0</ele><time>2026-03-29T10:23:20Z</time></trkpt><trkpt lat="44.54316509256872" lon="12.154313425888295"><ele>4.0</ele><time>2026-03-29T10:23:21Z</time></trkpt><trkpt lat="44.543127934420035" lon="12.154414720373076"><ele>3.714285714285714</ele><time>2026-03-29T10:23:22Z</time></trkpt><trkpt lat="44.54309533919955" lon="12.154517272442778"><ele>3.428571428571428</ele><time>2026-03-29T10:23:23Z</time></trkpt><trkpt lat="44.543068734505624" lon="12.154612106855224"><ele>3.142857142857143</ele><time>2026-03-29T10:23:24Z</time></trkpt><trkpt lat="44.5430352485947" lon="12.154720461482157"><ele>2.8571428571428568</ele><time>2026-03-29T10:23:25Z</time></trkpt><trkpt lat="44.54300690091161" lon="12.154817172597532"><ele>2.571428571428571</ele><time>2026-03-29T10:23:26Z</time></trkpt><trkpt lat="44.54297768420254" lon="12.154904618523172"><ele>2.2857142857142856</ele><time>2026-03-29T10:23:27Z</time></trkpt><trkpt lat="44.54294959003963" lon="12.154991306135669"><ele>2.0</ele><time>2026-03-29T10:23:28Z</time></trkpt><trkpt lat="44.54291661123707" lon="12.155084352036177"><ele>1.9999999999999998</ele><time>2026-03-29T10:23:29Z</time></trkpt><trkpt lat="44.54288981306486" lon="12.155194341868595"><ele>2.0</ele><time>2026-03-29T10:23:30Z</time></trkpt><trkpt lat="44.54285894171952" lon="12.155294124944408"><ele>2.0</ele><time>2026-03-29T10:23:31Z</time></trkpt><trkpt lat="44.54281695853807" lon="12.155409674956257"><ele>2.0</ele><time>2026-03-29T10:23:32Z</time></trkpt><trkpt lat="44.54277570473919" lon="12.155529810810854"><ele>1.9999999999999998</ele><time>2026-03-29T10:23:33Z</time></trkpt><trkpt lat="44.54275165868864" lon="12.155654895405805"><ele>2.0</ele><time>2026-03-29T10:23:34Z</time></trkpt><trkpt lat="44.542713803940124" lon="12.155782687165633"><ele>2.0</ele><time>2026-03-29T10:23:35Z</time></trkpt><trkpt lat="44.54268118170305" lon="12.15591992557318"><ele>2.0</ele><time>2026-03-29T10:23:36Z</time></trkpt><trkpt lat="44.54264040884048" lon="12.156056869909294"><ele>2.0</ele><time>2026-03-29T10:23:37Z</time></trkpt><trkpt lat="44.5425823091365" lon="12.156177128572448"><ele>2.0</ele><time>2026-03-29T10:23:38Z</time></trkpt><trkpt lat="44.542481914929034" lon="12.156408751192412"><ele>2.0</ele><time>2026-03-29T10:23:40Z</time></trkpt><trkpt lat="44.542414999233486" lon="12.156528837300913"><ele>2.0</ele><time>2026-03-29T10:23:41Z</time></trkpt><trkpt lat="44.54234578668561" lon="12.15662483521867"><ele>2.0</ele><time>2026-03-29T10:23:42Z</time></trkpt><trkpt lat="44.54227613472069" lon="12.156723817446988"><ele>2.0</ele><time>2026-03-29T10:23:43Z</time></trkpt><trkpt lat="44.54221368982872" lon="12.15684271437571"><ele>2.0</ele><time>2026-03-29T10:23:44Z</time></trkpt><trkpt lat="44.54213048350756" lon="12.156944160631888"><ele>2.0</ele><time>2026-03-29T10:23:45Z</time></trkpt><trkpt lat="44.542054061176806" lon="12.157055014858202"><ele>2.0</ele><time>2026-03-29T10:23:46Z</time></trkpt><trkpt lat="44.54197797207054" lon="12.157157115688468"><ele>2.0</ele><time>2026-03-29T10:23:47Z</time></trkpt><trkpt lat="44.54189344869951" lon="12.157264890735933"><ele>2.0</ele><time>2026-03-29T10:23:48Z</time></trkpt><trkpt lat="44.54179394446774" lon="12.157373034316453"><ele>2.0</ele><time>2026-03-29T10:23:49Z</time></trkpt><trkpt lat="44.541697788450826" lon="12.15747319059544"><ele>2.0</ele><time>2026-03-29T10:23:50Z</time></trkpt><trkpt lat="44.541602007953536" lon="12.1575520734271"><ele>2.0</ele><time>2026-03-29T10:23:51Z</time></trkpt><trkpt lat="44.541507055914586" lon="12.157649307894888"><ele>2.0</ele><time>2026-03-29T10:23:52Z</time></trkpt><trkpt lat="44.54141691530157" lon="12.157741614721893"><ele>2.0</ele><time>2026-03-29T10:23:53Z</time></trkpt><trkpt lat="44.541327836558295" lon="12.157828858448601"><ele>2.0</ele><time>2026-03-29T10:23:54Z</time></trkpt><trkpt lat="44.541233230651116" lon="12.15792039548196"><ele>2.0</ele><time>2026-03-29T10:23:55Z</time></trkpt><trkpt lat="44.54113877141653" lon="12.158011054358713"><ele>2.0</ele><time>2026-03-29T10:23:56Z</time></trkpt><trkpt lat="44.54104362680065" lon="12.158100360256757"><ele>2.0</ele><time>2026-03-29T10:23:57Z</time></trkpt><trkpt lat="44.54095069085399" lon="12.158184967369797"><ele>2.0</ele><time>2026-03-29T10:23:58Z</time></trkpt><trkpt lat="44.54086613774622" lon="12.158259823082233"><ele>2.0</ele><time>2026-03-29T10:23:59Z</time></trkpt><trkpt lat="44.54077635101033" lon="12.158339516523766"><ele>2.0</ele><time>2026-03-29T10:24:00Z</time></trkpt><trkpt lat="44.54068779456217" lon="12.158418344030403"><ele>2.0</ele><time>2026-03-29T10:24:01Z</time></trkpt><trkpt lat="44.54059813819988" lon="12.158498150658227"><ele>2.2</ele><time>2026-03-29T10:24:02Z</time></trkpt><trkpt lat="44.54051534241821" lon="12.158570644930638"><ele>2.4000000000000004</ele><time>2026-03-29T10:24:03Z</time></trkpt><trkpt lat="44.54043452366951" lon="12.158640896122508"><ele>2.5999999999999996</ele><time>2026-03-29T10:24:04Z</time></trkpt><trkpt lat="44.54035098787116" lon="12.158713508119572"><ele>2.8</ele><time>2026-03-29T10:24:05Z</time></trkpt><trkpt lat="44.54027117022695" lon="12.158778563550126"><ele>3.0</ele><time>2026-03-29T10:24:06Z</time></trkpt><trkpt lat="44.54019258932588" lon="12.158844174816293"><ele>3.0</ele><time>2026-03-29T10:24:07Z</time></trkpt><trkpt lat="44.54011025680477" lon="12.158911250137102"><ele>3.0</ele><time>2026-03-29T10:24:08Z</time></trkpt><trkpt lat="44.5400369242026" lon="12.158996770813491"><ele>3.0</ele><time>2026-03-29T10:24:09Z</time></trkpt><trkpt lat="44.53996050362315" lon="12.159058392362844"><ele>3.0</ele><time>2026-03-29T10:24:10Z</time></trkpt><trkpt lat="44.539884093076324" lon="12.159116466850858"><ele>3.0</ele><time>2026-03-29T10:24:11Z</time></trkpt><trkpt lat="44.53980588538929" lon="12.159179479950266"><ele>2.8</ele><time>2026-03-29T10:24:12Z</time></trkpt><trkpt lat="44.53972343647487" lon="12.159245965849745"><ele>2.5999999999999996</ele><time>2026-03-29T10:24:13Z</time></trkpt><trkpt lat="44.539636894450496" lon="12.159314047111065"><ele>2.4000000000000004</ele><time>2026-03-29T10:24:14Z</time></trkpt><trkpt lat="44.53954979091937" lon="12.159364022318105"><ele>2.2</ele><time>2026-03-29T10:24:15Z</time></trkpt><trkpt lat="44.53946528505479" lon="12.15945688852527"><ele>2.0</ele><time>2026-03-29T10:24:16Z</time></trkpt><trkpt lat="44.539376125971785" lon="12.159533595654525"><ele>2.0</ele><time>2026-03-29T10:24:17Z</time></trkpt><trkpt lat="44.539286330674884" lon="12.159625203082788"><ele>2.0</ele><time>2026-03-29T10:24:18Z</time></trkpt><trkpt lat="44.53918908108819" lon="12.159694332913363"><ele>2.0</ele><time>2026-03-29T10:24:19Z</time></trkpt><trkpt lat="44.539110899998356" lon="12.15979641802187"><ele>2.0</ele><time>2026-03-29T10:24:20Z</time></trkpt><trkpt lat="44.53901777774312" lon="12.159889750667938"><ele>2.0</ele><time>2026-03-29T10:24:21Z</time></trkpt><trkpt lat="44.538930766651326" lon="12.159981152510737"><ele>2.0</ele><time>2026-03-29T10:24:22Z</time></trkpt><trkpt lat="44.53884412091779" lon="12.16007186407877"><ele>2.0</ele><time>2026-03-29T10:24:23Z</time></trkpt><trkpt lat="44.5387637655472" lon="12.160155623243808"><ele>2.0</ele><time>2026-03-29T10:24:24Z</time></trkpt><trkpt lat="44.53868542337582" lon="12.160231708540968"><ele>2.0</ele><time>2026-03-29T10:24:25Z</time></trkpt><trkpt lat="44.53860725519234" lon="12.160313006118072"><ele>2.0</ele><time>2026-03-29T10:24:26Z</time></trkpt><trkpt lat="44.53853482791504" lon="12.160395238223535"><ele>2.0</ele><time>2026-03-29T10:24:27Z</time></trkpt><trkpt lat="44.53845193654275" lon="12.160476586648665"><ele>2.0</ele><time>2026-03-29T10:24:28Z</time></trkpt><trkpt lat="44.538365889870846" lon="12.160558015717733"><ele>2.0</ele><time>2026-03-29T10:24:29Z</time></trkpt><trkpt lat="44.53826532127274" lon="12.160630142222416"><ele>2.0</ele><time>2026-03-29T10:24:30Z</time></trkpt><trkpt lat="44.53817066062384" lon="12.160721514389916"><ele>2.0</ele><time>2026-03-29T10:24:31Z</time></trkpt><trkpt lat="44.53807123316393" lon="12.160821173429326"><ele>1.9999999999999998</ele><time>2026-03-29T10:24:32Z</time></trkpt><trkpt lat="44.537993205191206" lon="12.160917455459037"><ele>2.0</ele><time>2026-03-29T10:24:33Z</time></trkpt><trkpt lat="44.537918353564564" lon="12.160984592109566"><ele>2.0</ele><time>2026-03-29T10:24:34Z</time></trkpt><trkpt lat="44.53783861371207" lon="12.161042298401512"><ele>2.0</ele><time>2026-03-29T10:24:35Z</time></trkpt><trkpt lat="44.537779180257424" lon="12.161088681547797"><ele>1.9999999999999998</ele><time>2026-03-29T10:24:36Z</time></trkpt><trkpt lat="44.53772396910566" lon="12.161132648109666"><ele>2.0</ele><time>2026-03-29T10:24:37Z</time></trkpt><trkpt lat="44.537655852568186" lon="12.161174602888675"><ele>2.4000000000000004</ele><time>2026-03-29T10:24:38Z</time></trkpt><trkpt lat="44.53759380878818" lon="12.161200018473053"><ele>2.8000000000000003</ele><time>2026-03-29T10:24:39Z</time></trkpt><trkpt lat="44.53749273483407" lon="12.161214229587442"><ele>3.2</ele><time>2026-03-29T10:24:41Z</time></trkpt><trkpt lat="44.53741534985746" lon="12.161232223532052"><ele>3.6</ele><time>2026-03-29T10:24:43Z</time></trkpt><trkpt lat="44.537308699936936" lon="12.161236341379286"><ele>4.0</ele><time>2026-03-29T10:24:45Z</time></trkpt><trkpt lat="44.53719547743291" lon="12.16121999754827"><ele>3.9999999999999996</ele><time>2026-03-29T10:24:47Z</time></trkpt><trkpt lat="44.537118603258946" lon="12.161256724108156"><ele>4.0</ele><time>2026-03-29T10:24:49Z</time></trkpt><trkpt lat="44.53710399274038" lon="12.16143559523301"><ele>4.0</ele><time>2026-03-29T10:24:50Z</time></trkpt><trkpt lat="44.53710058857212" lon="12.161539095461"><ele>4.0</ele><time>2026-03-29T10:24:51Z</time></trkpt><trkpt lat="44.53709450074791" lon="12.161652258229099"><ele>3.9999999999999996</ele><time>2026-03-29T10:24:52Z</time></trkpt><trkpt lat="44.537088976450825" lon="12.16176253670134"><ele>4.0</ele><time>2026-03-29T10:24:53Z</time></trkpt><trkpt lat="44.537089127490944" lon="12.161874131316738"><ele>3.8000000000000003</ele><time>2026-03-29T10:24:54Z</time></trkpt><trkpt lat="44.53707627331967" lon="12.161990169723868"><ele>3.6000000000000005</ele><time>2026-03-29T10:24:55Z</time></trkpt><trkpt lat="44.53707875877312" lon="12.162114319625847"><ele>3.4</ele><time>2026-03-29T10:24:56Z</time></trkpt><trkpt lat="44.537101068259226" lon="12.16225883195167"><ele>3.2</ele><time>2026-03-29T10:24:57Z</time></trkpt><trkpt lat="44.53711071713404" lon="12.162413722445361"><ele>3.0</ele><time>2026-03-29T10:24:58Z</time></trkpt><trkpt lat="44.53710833577076" lon="12.162561405047695"><ele>3.0</ele><time>2026-03-29T10:24:59Z</time></trkpt><trkpt lat="44.537129386122025" lon="12.162711858558456"><ele>3.0</ele><time>2026-03-29T10:25:00Z</time></trkpt><trkpt lat="44.53714966075539" lon="12.162869525270319"><ele>3.0</ele><time>2026-03-29T10:25:01Z</time></trkpt><trkpt lat="44.53716520020857" lon="12.163032204200809"><ele>3.0</ele><time>2026-03-29T10:25:02Z</time></trkpt><trkpt lat="44.537173976156275" lon="12.163196998971623"><ele>3.0</ele><time>2026-03-29T10:25:03Z</time></trkpt><trkpt lat="44.5371751575972" lon="12.163357333780398"><ele>3.0</ele><time>2026-03-29T10:25:04Z</time></trkpt><trkpt lat="44.537163636583564" lon="12.163515987274018"><ele>3.0</ele><time>2026-03-29T10:25:05Z</time></trkpt><trkpt lat="44.537146964448716" lon="12.163673029093939"><ele>3.0</ele><time>2026-03-29T10:25:06Z</time></trkpt><trkpt lat="44.5371287167249" lon="12.16383130269413"><ele>3.0</ele><time>2026-03-29T10:25:07Z</time></trkpt><trkpt lat="44.53710824815968" lon="12.163955459315266"><ele>3.0</ele><time>2026-03-29T10:25:08Z</time></trkpt><trkpt lat="44.53708581291901" lon="12.164064897710277"><ele>3.0</ele><time>2026-03-29T10:25:09Z</time></trkpt><trkpt lat="44.53706555179074" lon="12.1641693488363"><ele>3.0</ele><time>2026-03-29T10:25:10Z</time></trkpt><trkpt lat="44.5370479386493" lon="12.164271216279605"><ele>3.0</ele><time>2026-03-29T10:25:11Z</time></trkpt><trkpt lat="44.53702859726655" lon="12.164396437751712"><ele>3.0</ele><time>2026-03-29T10:25:12Z</time></trkpt><trkpt lat="44.53700270620081" lon="12.164545534201224"><ele>3.0</ele><time>2026-03-29T10:25:13Z</time></trkpt><trkpt lat="44.536973863322416" lon="12.164701821137776"><ele>3.0</ele><time>2026-03-29T10:25:14Z</time></trkpt><trkpt lat="44.536943449361594" lon="12.164868908647625"><ele>3.0</ele><time>2026-03-29T10:25:15Z</time></trkpt><trkpt lat="44.536918891960454" lon="12.165025817049573"><ele>3.0</ele><time>2026-03-29T10:25:16Z</time></trkpt><trkpt lat="44.536889223309224" lon="12.165193244535123"><ele>3.0</ele><time>2026-03-29T10:25:17Z</time></trkpt><trkpt lat="44.536858274659586" lon="12.165368390294073"><ele>3.0</ele><time>2026-03-29T10:25:18Z</time></trkpt><trkpt lat="44.53682814225313" lon="12.1655472581178"><ele>3.0</ele><time>2026-03-29T10:25:19Z</time></trkpt><trkpt lat="44.53679702371679" lon="12.165727642219727"><ele>3.0</ele><time>2026-03-29T10:25:20Z</time></trkpt><trkpt lat="44.53676623585506" lon="12.16591790087488"><ele>3.0</ele><time>2026-03-29T10:25:21Z</time></trkpt><trkpt lat="44.536732111592826" lon="12.16611463680341"><ele>3.0</ele><time>2026-03-29T10:25:22Z</time></trkpt><trkpt lat="44.536698139487996" lon="12.166319428041396"><ele>3.0</ele><time>2026-03-29T10:25:23Z</time></trkpt><trkpt lat="44.536661944793416" lon="12.166516753011782"><ele>3.0</ele><time>2026-03-29T10:25:24Z</time></trkpt><trkpt lat="44.53662614219522" lon="12.166724497449543"><ele>2.0</ele><time>2026-03-29T10:25:25Z</time></trkpt><trkpt lat="44.536589615058226" lon="12.166941631611293"><ele>1.0</ele><time>2026-03-29T10:25:26Z</time></trkpt><trkpt lat="44.5365561377273" lon="12.167166480135407"><ele>0.0</ele><time>2026-03-29T10:25:27Z</time></trkpt><trkpt lat="44.53651622155444" lon="12.167392563039545"><ele>0.0</ele><time>2026-03-29T10:25:28Z</time></trkpt><trkpt lat="44.53647618128451" lon="12.167622437958604"><ele>0.0</ele><time>2026-03-29T10:25:29Z</time></trkpt><trkpt lat="44.53643620437908" lon="12.167854381420808"><ele>0.0</ele><time>2026-03-29T10:25:30Z</time></trkpt><trkpt lat="44.536396776361464" lon="12.168084867936454"><ele>0.0</ele><time>2026-03-29T10:25:31Z</time></trkpt><trkpt lat="44.53635849626363" lon="12.16831408071376"><ele>0.0</ele><time>2026-03-29T10:25:32Z</time></trkpt><trkpt lat="44.53631648863197" lon="12.168552022853625"><ele>0.0</ele><time>2026-03-29T10:25:33Z</time></trkpt><trkpt lat="44.53627759614109" lon="12.168777481945128"><ele>0.0</ele><time>2026-03-29T10:25:34Z</time></trkpt><trkpt lat="44.536236534465374" lon="12.16900067072151"><ele>0.0</ele><time>2026-03-29T10:25:35Z</time></trkpt><trkpt lat="44.53619868361094" lon="12.169225128857438"><ele>0.0</ele><time>2026-03-29T10:25:36Z</time></trkpt><trkpt lat="44.53615950036909" lon="12.169449840555522"><ele>0.3333333333333333</ele><time>2026-03-29T10:25:37Z</time></trkpt><trkpt lat="44.53612103394141" lon="12.16967196643602"><ele>0.6666666666666666</ele><time>2026-03-29T10:25:38Z</time></trkpt><trkpt lat="44.53608295488713" lon="12.169894092313857"><ele>1.0</ele><time>2026-03-29T10:25:38.999Z</time></trkpt><trkpt lat="44.536040904467534" lon="12.170118277993222"><ele>1.0</ele><time>2026-03-29T10:25:39.999Z</time></trkpt><trkpt lat="44.536006304160715" lon="12.170343945074823"><ele>1.0</ele><time>2026-03-29T10:25:40.999Z</time></trkpt><trkpt lat="44.53596835532496" lon="12.170576502203643"><ele>1.0</ele><time>2026-03-29T10:25:41.999Z</time></trkpt><trkpt lat="44.53593160624733" lon="12.17080041888581"><ele>1.0</ele><time>2026-03-29T10:25:42.999Z</time></trkpt><trkpt lat="44.53589280841907" lon="12.171023946270417"><ele>1.0</ele><time>2026-03-29T10:25:43.999Z</time></trkpt><trkpt lat="44.53585454765117" lon="12.171248986783779"><ele>1.0</ele><time>2026-03-29T10:25:44.999Z</time></trkpt><trkpt lat="44.53581742836443" lon="12.171470373407328"><ele>1.3333333333333333</ele><time>2026-03-29T10:25:45.999Z</time></trkpt><trkpt lat="44.535779223285516" lon="12.17169193925882"><ele>1.6666666666666665</ele><time>2026-03-29T10:25:46.999Z</time></trkpt><trkpt lat="44.53574068062304" lon="12.171911316694617"><ele>2.0</ele><time>2026-03-29T10:25:47.999Z</time></trkpt><trkpt lat="44.53570305235907" lon="12.172130866697104"><ele>2.0</ele><time>2026-03-29T10:25:48.999Z</time></trkpt><trkpt lat="44.53566648431651" lon="12.17235365144276"><ele>2.0</ele><time>2026-03-29T10:25:50Z</time></trkpt><trkpt lat="44.53562672741746" lon="12.172570883236736"><ele>2.0</ele><time>2026-03-29T10:25:51Z</time></trkpt><trkpt lat="44.53558978056466" lon="12.172789526447378"><ele>2.0</ele><time>2026-03-29T10:25:52Z</time></trkpt><trkpt lat="44.5355547615559" lon="12.173001551778993"><ele>2.0</ele><time>2026-03-29T10:25:53Z</time></trkpt><trkpt lat="44.53551478525656" lon="12.173224072924144"><ele>2.0</ele><time>2026-03-29T10:25:54Z</time></trkpt><trkpt lat="44.53547521414898" lon="12.173449579298124"><ele>2.0</ele><time>2026-03-29T10:25:55Z</time></trkpt><trkpt lat="44.535442484432934" lon="12.173678710237573"><ele>2.0</ele><time>2026-03-29T10:25:56Z</time></trkpt><trkpt lat="44.53542364172796" lon="12.17390944476777"><ele>2.0</ele><time>2026-03-29T10:25:57Z</time></trkpt><trkpt lat="44.5354169915843" lon="12.174150891295502"><ele>2.0</ele><time>2026-03-29T10:25:58Z</time></trkpt><trkpt lat="44.535419717034856" lon="12.174391727967393"><ele>2.0</ele><time>2026-03-29T10:25:59Z</time></trkpt><trkpt lat="44.53543204798576" lon="12.174632668133313"><ele>2.0</ele><time>2026-03-29T10:26:00Z</time></trkpt><trkpt lat="44.53545690461336" lon="12.174872489660178"><ele>2.333333333333333</ele><time>2026-03-29T10:26:01Z</time></trkpt><trkpt lat="44.535495798190105" lon="12.175111762140304"><ele>2.6666666666666665</ele><time>2026-03-29T10:26:02Z</time></trkpt><trkpt lat="44.53554377248712" lon="12.175344606238703"><ele>3.0</ele><time>2026-03-29T10:26:03Z</time></trkpt><trkpt lat="44.53559997968994" lon="12.175578017960438"><ele>3.333333333333333</ele><time>2026-03-29T10:26:04Z</time></trkpt><trkpt lat="44.53566342862538" lon="12.17580370892392"><ele>3.6666666666666665</ele><time>2026-03-29T10:26:05Z</time></trkpt><trkpt lat="44.535728110935295" lon="12.176039441082843"><ele>4.0</ele><time>2026-03-29T10:26:06Z</time></trkpt><trkpt lat="44.53579794652592" lon="12.176267583411493"><ele>4.0</ele><time>2026-03-29T10:26:07Z</time></trkpt><trkpt lat="44.535869082915674" lon="12.176498219758516"><ele>4.0</ele><time>2026-03-29T10:26:08Z</time></trkpt><trkpt lat="44.53594002138149" lon="12.176728797893775"><ele>4.0</ele><time>2026-03-29T10:26:09Z</time></trkpt><trkpt lat="44.53601043715902" lon="12.176955382985378"><ele>3.333333333333333</ele><time>2026-03-29T10:26:10Z</time></trkpt><trkpt lat="44.53607635151759" lon="12.177172486176858"><ele>2.6666666666666665</ele><time>2026-03-29T10:26:11Z</time></trkpt><trkpt lat="44.536136948703046" lon="12.17738108689614"><ele>2.0</ele><time>2026-03-29T10:26:12Z</time></trkpt><trkpt lat="44.536198021492545" lon="12.177586876199026"><ele>1.3333333333333333</ele><time>2026-03-29T10:26:13Z</time></trkpt><trkpt lat="44.536257160004034" lon="12.177787747787734"><ele>0.6666666666666666</ele><time>2026-03-29T10:26:14Z</time></trkpt><trkpt lat="44.53631890973425" lon="12.177994715624543"><ele>0.0</ele><time>2026-03-29T10:26:15Z</time></trkpt><trkpt lat="44.53638194784388" lon="12.178201791969018"><ele>0.0</ele><time>2026-03-29T10:26:16Z</time></trkpt><trkpt lat="44.536442941891124" lon="12.178400837116135"><ele>0.0</ele><time>2026-03-29T10:26:17Z</time></trkpt><trkpt lat="44.5365055536375" lon="12.178594645643196"><ele>0.0</ele><time>2026-03-29T10:26:18Z</time></trkpt><trkpt lat="44.53656349765916" lon="12.178786216034272"><ele>0.0</ele><time>2026-03-29T10:26:19Z</time></trkpt><trkpt lat="44.5366222549353" lon="12.178981944563677"><ele>0.0</ele><time>2026-03-29T10:26:20Z</time></trkpt><trkpt lat="44.536681277855095" lon="12.179193611830298"><ele>0.0</ele><time>2026-03-29T10:26:21Z</time></trkpt><trkpt lat="44.53674194041412" lon="12.17940596257428"><ele>0.0</ele><time>2026-03-29T10:26:22Z</time></trkpt><trkpt lat="44.536805931419075" lon="12.179625239663656"><ele>0.0</ele><time>2026-03-29T10:26:23Z</time></trkpt><trkpt lat="44.536866438658386" lon="12.179848477954437"><ele>0.0</ele><time>2026-03-29T10:26:24Z</time></trkpt><trkpt lat="44.536931663180084" lon="12.180072454995729"><ele>0.0</ele><time>2026-03-29T10:26:25Z</time></trkpt><trkpt lat="44.537000897135215" lon="12.18030131093032"><ele>0.0</ele><time>2026-03-29T10:26:26Z</time></trkpt><trkpt lat="44.53707179543313" lon="12.180534634179486"><ele>0.0</ele><time>2026-03-29T10:26:27Z</time></trkpt><trkpt lat="44.53714510982698" lon="12.180773630056036"><ele>0.0</ele><time>2026-03-29T10:26:28Z</time></trkpt><trkpt lat="44.537217576532655" lon="12.181017153146076"><ele>0.0</ele><time>2026-03-29T10:26:29Z</time></trkpt><trkpt lat="44.53729251518471" lon="12.181269904839006"><ele>0.0</ele><time>2026-03-29T10:26:30Z</time></trkpt><trkpt lat="44.5373746243423" lon="12.18153709415611"><ele>0.0</ele><time>2026-03-29T10:26:31Z</time></trkpt><trkpt lat="44.537455797404434" lon="12.1817953008148"><ele>0.0</ele><time>2026-03-29T10:26:32Z</time></trkpt><trkpt lat="44.5375367618203" lon="12.18205233672993"><ele>0.0</ele><time>2026-03-29T10:26:33Z</time></trkpt><trkpt lat="44.537616032385934" lon="12.182314161077247"><ele>0.0</ele><time>2026-03-29T10:26:34Z</time></trkpt><trkpt lat="44.53769351128263" lon="12.182576435191274"><ele>0.0</ele><time>2026-03-29T10:26:35Z</time></trkpt><trkpt lat="44.53776977021863" lon="12.182836165881536"><ele>0.0</ele><time>2026-03-29T10:26:36Z</time></trkpt><trkpt lat="44.5378434362451" lon="12.183098528222459"><ele>-0.3333333333333333</ele><time>2026-03-29T10:26:37Z</time></trkpt><trkpt lat="44.53791501139474" lon="12.183355511206896"><ele>-0.6666666666666666</ele><time>2026-03-29T10:26:38Z</time></trkpt><trkpt lat="44.537985334695186" lon="12.183611434265558"><ele>-1.0</ele><time>2026-03-29T10:26:39Z</time></trkpt><trkpt lat="44.53805785411845" lon="12.183871222069142"><ele>-0.6666666666666666</ele><time>2026-03-29T10:26:40Z</time></trkpt><trkpt lat="44.5381236712981" lon="12.184118715588037"><ele>-0.3333333333333333</ele><time>2026-03-29T10:26:41Z</time></trkpt><trkpt lat="44.53818367091731" lon="12.184365630523116"><ele>0.0</ele><time>2026-03-29T10:26:42Z</time></trkpt><trkpt lat="44.538248347991384" lon="12.184613085758876"><ele>0.3333333333333333</ele><time>2026-03-29T10:26:43Z</time></trkpt><trkpt lat="44.5383103494108" lon="12.184861680157"><ele>0.6666666666666666</ele><time>2026-03-29T10:26:44Z</time></trkpt><trkpt lat="44.5383693530249" lon="12.185101817287466"><ele>1.0</ele><time>2026-03-29T10:26:45Z</time></trkpt><trkpt lat="44.53842823904435" lon="12.185343219727995"><ele>1.0</ele><time>2026-03-29T10:26:46Z</time></trkpt><trkpt lat="44.538486228853884" lon="12.18558366552027"><ele>1.0</ele><time>2026-03-29T10:26:47Z</time></trkpt><trkpt lat="44.538546649956" lon="12.185826659235111"><ele>1.0</ele><time>2026-03-29T10:26:48Z</time></trkpt><trkpt lat="44.538606381494354" lon="12.186076892914086"><ele>1.0</ele><time>2026-03-29T10:26:49Z</time></trkpt><trkpt lat="44.53866901018727" lon="12.18633065756561"><ele>1.0</ele><time>2026-03-29T10:26:50Z</time></trkpt><trkpt lat="44.538729069304516" lon="12.186587163083205"><ele>1.0</ele><time>2026-03-29T10:26:51Z</time></trkpt><trkpt lat="44.53878751734703" lon="12.186844799516878"><ele>1.0</ele><time>2026-03-29T10:26:52Z</time></trkpt><trkpt lat="44.53884459015217" lon="12.187100819600643"><ele>1.0</ele><time>2026-03-29T10:26:53Z</time></trkpt><trkpt lat="44.5388992770756" lon="12.187359894717689"><ele>1.0</ele><time>2026-03-29T10:26:54Z</time></trkpt><trkpt lat="44.538960121471796" lon="12.187623990140025"><ele>1.0</ele><time>2026-03-29T10:26:55Z</time></trkpt><trkpt lat="44.53902192910869" lon="12.187887479688243"><ele>1.0</ele><time>2026-03-29T10:26:56Z</time></trkpt><trkpt lat="44.539076656886344" lon="12.188147448744905"><ele>1.0</ele><time>2026-03-29T10:26:57Z</time></trkpt><trkpt lat="44.53912822883921" lon="12.188402130535371"><ele>1.0</ele><time>2026-03-29T10:26:58Z</time></trkpt><trkpt lat="44.53924354468346" lon="12.18891881806574"><ele>1.0</ele><time>2026-03-29T10:27:00Z</time></trkpt><trkpt lat="44.539299167034905" lon="12.189173791729605"><ele>1.0</ele><time>2026-03-29T10:27:01Z</time></trkpt><trkpt lat="44.53935978926929" lon="12.189431583418555"><ele>1.0</ele><time>2026-03-29T10:27:02Z</time></trkpt><trkpt lat="44.53942463789773" lon="12.189716181148592"><ele>1.0</ele><time>2026-03-29T10:27:03Z</time></trkpt><trkpt lat="44.53948954592318" lon="12.189987365555655"><ele>1.0</ele><time>2026-03-29T10:27:04Z</time></trkpt><trkpt lat="44.53955244532668" lon="12.19024643409177"><ele>1.0</ele><time>2026-03-29T10:27:05Z</time></trkpt><trkpt lat="44.53961536159947" lon="12.190495239587516"><ele>1.0</ele><time>2026-03-29T10:27:06Z</time></trkpt><trkpt lat="44.53967547734208" lon="12.19073028035753"><ele>1.0</ele><time>2026-03-29T10:27:07Z</time></trkpt><trkpt lat="44.53973751338064" lon="12.190940788255883"><ele>1.0</ele><time>2026-03-29T10:27:08Z</time></trkpt><trkpt lat="44.53979751009785" lon="12.191135552199285"><ele>1.0</ele><time>2026-03-29T10:27:09Z</time></trkpt><trkpt lat="44.53986194427337" lon="12.191331286380535"><ele>1.0</ele><time>2026-03-29T10:27:10Z</time></trkpt><trkpt lat="44.53993468458178" lon="12.191529446169186"><ele>1.0</ele><time>2026-03-29T10:27:11Z</time></trkpt><trkpt lat="44.5400132875026" lon="12.191737899749427"><ele>1.0</ele><time>2026-03-29T10:27:12Z</time></trkpt><trkpt lat="44.54009486074595" lon="12.191949275634327"><ele>1.0</ele><time>2026-03-29T10:27:13Z</time></trkpt><trkpt lat="44.54017563213896" lon="12.192167558552525"><ele>1.0</ele><time>2026-03-29T10:27:14Z</time></trkpt><trkpt lat="44.54025153500251" lon="12.19237965183878"><ele>1.0</ele><time>2026-03-29T10:27:15Z</time></trkpt><trkpt lat="44.540333956824206" lon="12.192602577090542"><ele>0.6666666666666666</ele><time>2026-03-29T10:27:16Z</time></trkpt><trkpt lat="44.540414177973474" lon="12.192828154757606"><ele>0.3333333333333333</ele><time>2026-03-29T10:27:17Z</time></trkpt><trkpt lat="44.54049494463097" lon="12.193057322235058"><ele>0.0</ele><time>2026-03-29T10:27:18Z</time></trkpt><trkpt lat="44.540575965087825" lon="12.19329446526846"><ele>0.0</ele><time>2026-03-29T10:27:19Z</time></trkpt><trkpt lat="44.54065807627599" lon="12.193536068311122"><ele>0.0</ele><time>2026-03-29T10:27:20Z</time></trkpt><trkpt lat="44.54073830632783" lon="12.193782891979211"><ele>0.0</ele><time>2026-03-29T10:27:21Z</time></trkpt><trkpt lat="44.54082096448237" lon="12.19403227816377"><ele>0.0</ele><time>2026-03-29T10:27:22Z</time></trkpt><trkpt lat="44.540902427784324" lon="12.194283019933465"><ele>0.0</ele><time>2026-03-29T10:27:23Z</time></trkpt><trkpt lat="44.54098377164761" lon="12.194537549689572"><ele>0.0</ele><time>2026-03-29T10:27:24Z</time></trkpt><trkpt lat="44.54106111476867" lon="12.194790139996268"><ele>0.5</ele><time>2026-03-29T10:27:25Z</time></trkpt><trkpt lat="44.541137434924096" lon="12.195042718818591"><ele>1.0</ele><time>2026-03-29T10:27:26Z</time></trkpt><trkpt lat="44.541279130997225" lon="12.195523732378605"><ele>1.0</ele><time>2026-03-29T10:27:28Z</time></trkpt><trkpt lat="44.541351354266354" lon="12.19576613617983"><ele>1.0</ele><time>2026-03-29T10:27:29Z</time></trkpt><trkpt lat="44.54141990985666" lon="12.19600983545351"><ele>1.0</ele><time>2026-03-29T10:27:30Z</time></trkpt><trkpt lat="44.54148836850533" lon="12.196252658690238"><ele>1.0</ele><time>2026-03-29T10:27:31Z</time></trkpt><trkpt lat="44.54155721285692" lon="12.196495784045549"><ele>1.0</ele><time>2026-03-29T10:27:32Z</time></trkpt><trkpt lat="44.541627244980766" lon="12.196739799178918"><ele>1.0</ele><time>2026-03-29T10:27:33Z</time></trkpt><trkpt lat="44.54169863633219" lon="12.196987598094621"><ele>1.0</ele><time>2026-03-29T10:27:34Z</time></trkpt><trkpt lat="44.54176827750555" lon="12.19723358129462"><ele>1.0</ele><time>2026-03-29T10:27:35Z</time></trkpt><trkpt lat="44.541841475432925" lon="12.197472573910403"><ele>1.0</ele><time>2026-03-29T10:27:36Z</time></trkpt><trkpt lat="44.541917031346465" lon="12.197713193744551"><ele>1.0</ele><time>2026-03-29T10:27:37Z</time></trkpt><trkpt lat="44.54198967280552" lon="12.197960436828854"><ele>1.0</ele><time>2026-03-29T10:27:38Z</time></trkpt><trkpt lat="44.54206400317218" lon="12.198204954451338"><ele>1.0</ele><time>2026-03-29T10:27:39Z</time></trkpt><trkpt lat="44.54213566341282" lon="12.198448866823755"><ele>1.0</ele><time>2026-03-29T10:27:40Z</time></trkpt><trkpt lat="44.54220551806544" lon="12.198695342849101"><ele>1.0</ele><time>2026-03-29T10:27:41Z</time></trkpt><trkpt lat="44.542275256869445" lon="12.198947170755753"><ele>1.0</ele><time>2026-03-29T10:27:42Z</time></trkpt><trkpt lat="44.542348929485534" lon="12.199203973465712"><ele>1.0</ele><time>2026-03-29T10:27:43Z</time></trkpt><trkpt lat="44.54242448895112" lon="12.199459477597395"><ele>1.0</ele><time>2026-03-29T10:27:44Z</time></trkpt><trkpt lat="44.54249268397871" lon="12.19970084749991"><ele>1.0</ele><time>2026-03-29T10:27:44.999Z</time></trkpt><trkpt lat="44.542560799029985" lon="12.199960907611779"><ele>1.0</ele><time>2026-03-29T10:27:45.999Z</time></trkpt><trkpt lat="44.542630505066164" lon="12.200213774330303"><ele>1.0</ele><time>2026-03-29T10:27:46.999Z</time></trkpt><trkpt lat="44.54269948431147" lon="12.2004565677494"><ele>1.0</ele><time>2026-03-29T10:27:47.999Z</time></trkpt><trkpt lat="44.542769587393686" lon="12.200707439909284"><ele>1.0</ele><time>2026-03-29T10:27:48.999Z</time></trkpt><trkpt lat="44.5428399806491" lon="12.200958224683177"><ele>1.0</ele><time>2026-03-29T10:27:49.999Z</time></trkpt><trkpt lat="44.542912155663764" lon="12.201203470515427"><ele>1.0</ele><time>2026-03-29T10:27:50.999Z</time></trkpt><trkpt lat="44.54297860441131" lon="12.201451497352918"><ele>0.6666666666666666</ele><time>2026-03-29T10:27:51.999Z</time></trkpt><trkpt lat="44.54304701873625" lon="12.201702820237143"><ele>0.3333333333333333</ele><time>2026-03-29T10:27:52.999Z</time></trkpt><trkpt lat="44.54312408597264" lon="12.201942448896979"><ele>0.0</ele><time>2026-03-29T10:27:53.999Z</time></trkpt><trkpt lat="44.543191612043" lon="12.202194662658954"><ele>0.3333333333333333</ele><time>2026-03-29T10:27:54.999Z</time></trkpt><trkpt lat="44.54325568196208" lon="12.202440278436228"><ele>0.6666666666666666</ele><time>2026-03-29T10:27:55.999Z</time></trkpt><trkpt lat="44.543322974350566" lon="12.202686509394399"><ele>1.0</ele><time>2026-03-29T10:27:56.999Z</time></trkpt><trkpt lat="44.54339264388037" lon="12.202931374239757"><ele>0.3333333333333333</ele><time>2026-03-29T10:27:57.999Z</time></trkpt><trkpt lat="44.54346132980158" lon="12.203177490080986"><ele>-0.3333333333333333</ele><time>2026-03-29T10:27:58.999Z</time></trkpt><trkpt lat="44.54352926651765" lon="12.203419338667718"><ele>-1.0</ele><time>2026-03-29T10:27:59.999Z</time></trkpt><trkpt lat="44.5435968004164" lon="12.203665772359946"><ele>-1.0</ele><time>2026-03-29T10:28:00.999Z</time></trkpt><trkpt lat="44.54366578232277" lon="12.203909967196418"><ele>-1.0</ele><time>2026-03-29T10:28:01.999Z</time></trkpt><trkpt lat="44.543740013865815" lon="12.204158155924448"><ele>-1.0</ele><time>2026-03-29T10:28:02.999Z</time></trkpt><trkpt lat="44.543811597745446" lon="12.204408244023755"><ele>-0.3333333333333333</ele><time>2026-03-29T10:28:04Z</time></trkpt><trkpt lat="44.54388390368645" lon="12.204649958505945"><ele>0.3333333333333333</ele><time>2026-03-29T10:28:05Z</time></trkpt><trkpt lat="44.54395562912295" lon="12.2048957488764"><ele>1.0</ele><time>2026-03-29T10:28:06Z</time></trkpt><trkpt lat="44.54402889353241" lon="12.205137072315091"><ele>1.0</ele><time>2026-03-29T10:28:07Z</time></trkpt><trkpt lat="44.54410247201162" lon="12.205386798749808"><ele>1.0</ele><time>2026-03-29T10:28:08Z</time></trkpt><trkpt lat="44.54417752472609" lon="12.205633382053735"><ele>1.0</ele><time>2026-03-29T10:28:09Z</time></trkpt><trkpt lat="44.5442522912768" lon="12.205881206819349"><ele>1.0</ele><time>2026-03-29T10:28:10Z</time></trkpt><trkpt lat="44.5443260029268" lon="12.206133560083813"><ele>1.0</ele><time>2026-03-29T10:28:11Z</time></trkpt><trkpt lat="44.54440161486439" lon="12.20638576040621"><ele>1.0</ele><time>2026-03-29T10:28:12Z</time></trkpt><trkpt lat="44.54447605244567" lon="12.206632210328014"><ele>1.0</ele><time>2026-03-29T10:28:13Z</time></trkpt><trkpt lat="44.54455585837148" lon="12.206885866297494"><ele>1.0</ele><time>2026-03-29T10:28:14Z</time></trkpt><trkpt lat="44.54463045102329" lon="12.20712953805123"><ele>1.0</ele><time>2026-03-29T10:28:15Z</time></trkpt><trkpt lat="44.5447085854626" lon="12.207379982113462"><ele>1.0</ele><time>2026-03-29T10:28:16Z</time></trkpt><trkpt lat="44.54478735561807" lon="12.207618665833909"><ele>1.0</ele><time>2026-03-29T10:28:17Z</time></trkpt><trkpt lat="44.544869823588016" lon="12.207852101197258"><ele>1.0</ele><time>2026-03-29T10:28:18Z</time></trkpt><trkpt lat="44.5449525000963" lon="12.208081023609363"><ele>1.3333333333333333</ele><time>2026-03-29T10:28:19Z</time></trkpt><trkpt lat="44.54503415805451" lon="12.208302572444973"><ele>1.6666666666666665</ele><time>2026-03-29T10:28:20Z</time></trkpt><trkpt lat="44.545113266932255" lon="12.208531996927684"><ele>2.0</ele><time>2026-03-29T10:28:21Z</time></trkpt><trkpt lat="44.5451903428179" lon="12.208772733864912"><ele>1.6666666666666665</ele><time>2026-03-29T10:28:22Z</time></trkpt><trkpt lat="44.545259243292115" lon="12.209013373427668"><ele>1.3333333333333333</ele><time>2026-03-29T10:28:23Z</time></trkpt><trkpt lat="44.54531939937432" lon="12.209247961120383"><ele>1.0</ele><time>2026-03-29T10:28:24Z</time></trkpt><trkpt lat="44.545379751221695" lon="12.209486830284565"><ele>1.0</ele><time>2026-03-29T10:28:25Z</time></trkpt><trkpt lat="44.545443755393535" lon="12.20972704500929"><ele>1.0</ele><time>2026-03-29T10:28:26Z</time></trkpt><trkpt lat="44.54551207438943" lon="12.209959535460001"><ele>1.0</ele><time>2026-03-29T10:28:27Z</time></trkpt><trkpt lat="44.54558766713295" lon="12.210197467575249"><ele>0.6666666666666666</ele><time>2026-03-29T10:28:28Z</time></trkpt><trkpt lat="44.545669544052906" lon="12.210423615042275"><ele>0.3333333333333333</ele><time>2026-03-29T10:28:29Z</time></trkpt><trkpt lat="44.545763825163526" lon="12.210652588654115"><ele>0.0</ele><time>2026-03-29T10:28:30Z</time></trkpt><trkpt lat="44.54586361963707" lon="12.210872284091144"><ele>0.6666666666666666</ele><time>2026-03-29T10:28:31Z</time></trkpt><trkpt lat="44.54596802597157" lon="12.211080888905745"><ele>1.3333333333333333</ele><time>2026-03-29T10:28:32Z</time></trkpt><trkpt lat="44.546083540811" lon="12.211286983074967"><ele>2.0</ele><time>2026-03-29T10:28:33Z</time></trkpt><trkpt lat="44.54620819343309" lon="12.211486341513204"><ele>2.0</ele><time>2026-03-29T10:28:34Z</time></trkpt><trkpt lat="44.5463360857055" lon="12.211675181792636"><ele>2.0</ele><time>2026-03-29T10:28:35Z</time></trkpt><trkpt lat="44.54646368684124" lon="12.211861496214208"><ele>2.0</ele><time>2026-03-29T10:28:36Z</time></trkpt><trkpt lat="44.54659364200908" lon="12.212052236151493"><ele>2.0</ele><time>2026-03-29T10:28:37Z</time></trkpt><trkpt lat="44.546720023285104" lon="12.212254220739908"><ele>2.0</ele><time>2026-03-29T10:28:38Z</time></trkpt><trkpt lat="44.54684528852216" lon="12.212472342178938"><ele>2.0</ele><time>2026-03-29T10:28:39Z</time></trkpt><trkpt lat="44.5469488057815" lon="12.212705262559947"><ele>1.6666666666666665</ele><time>2026-03-29T10:28:40Z</time></trkpt><trkpt lat="44.54707207792659" lon="12.212911682324501"><ele>1.3333333333333333</ele><time>2026-03-29T10:28:41Z</time></trkpt><trkpt lat="44.54718284714121" lon="12.213125389153058"><ele>1.0</ele><time>2026-03-29T10:28:42Z</time></trkpt><trkpt lat="44.54729383511825" lon="12.213331419164147"><ele>1.0</ele><time>2026-03-29T10:28:43Z</time></trkpt><trkpt lat="44.547384453640746" lon="12.213550128081252"><ele>1.0</ele><time>2026-03-29T10:28:44Z</time></trkpt><trkpt lat="44.547482913502996" lon="12.21375131746587"><ele>1.0</ele><time>2026-03-29T10:28:45Z</time></trkpt><trkpt lat="44.54758017261634" lon="12.213952343495416"><ele>0.6666666666666666</ele><time>2026-03-29T10:28:46Z</time></trkpt><trkpt lat="44.54768697805896" lon="12.214139376929745"><ele>0.3333333333333333</ele><time>2026-03-29T10:28:47Z</time></trkpt><trkpt lat="44.5477770391511" lon="12.214335581978045"><ele>0.0</ele><time>2026-03-29T10:28:48Z</time></trkpt><trkpt lat="44.54786800176523" lon="12.21452868193719"><ele>0.3333333333333333</ele><time>2026-03-29T10:28:49Z</time></trkpt><trkpt lat="44.547962990029575" lon="12.21473143720493"><ele>0.6666666666666666</ele><time>2026-03-29T10:28:50Z</time></trkpt><trkpt lat="44.548063199930226" lon="12.214944038669758"><ele>1.0</ele><time>2026-03-29T10:28:51Z</time></trkpt><trkpt lat="44.5481637949562" lon="12.215161194496774"><ele>1.0</ele><time>2026-03-29T10:28:52Z</time></trkpt><trkpt lat="44.54826564251331" lon="12.215381912970061"><ele>1.0</ele><time>2026-03-29T10:28:53Z</time></trkpt><trkpt lat="44.54836798207249" lon="12.21559675328368"><ele>1.0</ele><time>2026-03-29T10:28:54Z</time></trkpt><trkpt lat="44.54847315398568" lon="12.215813609157673"><ele>1.0</ele><time>2026-03-29T10:28:55Z</time></trkpt><trkpt lat="44.54857749736846" lon="12.21602409171566"><ele>1.0</ele><time>2026-03-29T10:28:56Z</time></trkpt><trkpt lat="44.54867764001879" lon="12.216229536750872"><ele>1.0</ele><time>2026-03-29T10:28:57Z</time></trkpt><trkpt lat="44.54877852427461" lon="12.21643841043322"><ele>0.6666666666666666</ele><time>2026-03-29T10:28:58Z</time></trkpt><trkpt lat="44.54887255508336" lon="12.216636422099091"><ele>0.3333333333333333</ele><time>2026-03-29T10:28:59Z</time></trkpt><trkpt lat="44.54896764415208" lon="12.216831303175594"><ele>0.0</ele><time>2026-03-29T10:29:00Z</time></trkpt><trkpt lat="44.5490671603647" lon="12.217031588356441"><ele>0.0</ele><time>2026-03-29T10:29:01Z</time></trkpt><trkpt lat="44.54916632493902" lon="12.217233333728533"><ele>0.0</ele><time>2026-03-29T10:29:02Z</time></trkpt><trkpt lat="44.54927384024287" lon="12.217447073936674"><ele>0.0</ele><time>2026-03-29T10:29:03Z</time></trkpt><trkpt lat="44.549375655286006" lon="12.217660473584974"><ele>0.3333333333333333</ele><time>2026-03-29T10:29:04Z</time></trkpt><trkpt lat="44.549485934524874" lon="12.21788940072745"><ele>0.6666666666666666</ele><time>2026-03-29T10:29:05Z</time></trkpt><trkpt lat="44.549610596360964" lon="12.218146817645277"><ele>1.0</ele><time>2026-03-29T10:29:06Z</time></trkpt><trkpt lat="44.54973020847338" lon="12.218388228236627"><ele>1.3333333333333333</ele><time>2026-03-29T10:29:07Z</time></trkpt><trkpt lat="44.549834785490894" lon="12.218602080449092"><ele>1.6666666666666665</ele><time>2026-03-29T10:29:08Z</time></trkpt><trkpt lat="44.54993282000188" lon="12.218803749136946"><ele>2.0</ele><time>2026-03-29T10:29:09Z</time></trkpt><trkpt lat="44.550021095342814" lon="12.21898992009021"><ele>2.25</ele><time>2026-03-29T10:29:10Z</time></trkpt><trkpt lat="44.550106482207596" lon="12.219169160555039"><ele>2.5</ele><time>2026-03-29T10:29:11Z</time></trkpt><trkpt lat="44.55018581836881" lon="12.219333122021736"><ele>2.75</ele><time>2026-03-29T10:29:12Z</time></trkpt><trkpt lat="44.55026532998035" lon="12.219492665515522"><ele>3.0</ele><time>2026-03-29T10:29:13Z</time></trkpt><trkpt lat="44.55034301992576" lon="12.21964919160868"><ele>2.75</ele><time>2026-03-29T10:29:14Z</time></trkpt><trkpt lat="44.55041817380691" lon="12.219801491326084"><ele>2.5</ele><time>2026-03-29T10:29:15Z</time></trkpt><trkpt lat="44.550495001977254" lon="12.21996153339545"><ele>2.25</ele><time>2026-03-29T10:29:16Z</time></trkpt><trkpt lat="44.550574227653634" lon="12.220124771686033"><ele>2.0</ele><time>2026-03-29T10:29:17Z</time></trkpt><trkpt lat="44.550657084208886" lon="12.220290311487046"><ele>2.0</ele><time>2026-03-29T10:29:18Z</time></trkpt><trkpt lat="44.55073930388603" lon="12.220450008051174"><ele>2.0</ele><time>2026-03-29T10:29:19Z</time></trkpt><trkpt lat="44.55081432841062" lon="12.220598643659708"><ele>2.0</ele><time>2026-03-29T10:29:20Z</time></trkpt><trkpt lat="44.55088068601718" lon="12.22073385311159"><ele>2.0</ele><time>2026-03-29T10:29:21Z</time></trkpt><trkpt lat="44.55094350072018" lon="12.220863945862735"><ele>2.2</ele><time>2026-03-29T10:29:22Z</time></trkpt><trkpt lat="44.551008144207835" lon="12.220994915308081"><ele>2.4000000000000004</ele><time>2026-03-29T10:29:23Z</time></trkpt><trkpt lat="44.551071210867235" lon="12.221119573982271"><ele>2.5999999999999996</ele><time>2026-03-29T10:29:24Z</time></trkpt><trkpt lat="44.55112814637353" lon="12.221231424913254"><ele>2.8</ele><time>2026-03-29T10:29:25Z</time></trkpt><trkpt lat="44.551176829128" lon="12.221330236196978"><ele>3.0</ele><time>2026-03-29T10:29:26Z</time></trkpt><trkpt lat="44.55122160869068" lon="12.221417280563914"><ele>3.0</ele><time>2026-03-29T10:29:27Z</time></trkpt><trkpt lat="44.551278338533194" lon="12.221535149768721"><ele>3.0</ele><time>2026-03-29T10:29:29Z</time></trkpt><trkpt lat="44.55122191089805" lon="12.221593737382394"><ele>3.0</ele><time>2026-03-29T10:29:31Z</time></trkpt><trkpt lat="44.55114566986718" lon="12.221667395986872"><ele>3.0</ele><time>2026-03-29T10:29:33Z</time></trkpt><trkpt lat="44.55105147642713" lon="12.221776931252487"><ele>3.0</ele><time>2026-03-29T10:29:35Z</time></trkpt><trkpt lat="44.55096205657042" lon="12.221853885032038"><ele>3.0</ele><time>2026-03-29T10:29:37Z</time></trkpt><trkpt lat="44.55090159830675" lon="12.221918047427115"><ele>3.0</ele><time>2026-03-29T10:29:39Z</time></trkpt><trkpt lat="44.55084874022559" lon="12.221966575350102"><ele>3.0</ele><time>2026-03-29T10:29:42Z</time></trkpt><trkpt lat="44.55088799429217" lon="12.222207007286228"><ele>3.0</ele><time>2026-03-29T10:30:15Z</time></trkpt><trkpt lat="44.55094515531711" lon="12.22233053746368"><ele>3.0</ele><time>2026-03-29T10:30:17Z</time></trkpt><trkpt lat="44.55098428668699" lon="12.222416287607032"><ele>3.0</ele><time>2026-03-29T10:30:18Z</time></trkpt><trkpt lat="44.55102649818492" lon="12.222508787056258"><ele>3.0</ele><time>2026-03-29T10:30:19Z</time></trkpt><trkpt lat="44.551081734567" lon="12.222589044261658"><ele>3.0</ele><time>2026-03-29T10:30:20Z</time></trkpt><trkpt lat="44.55112141047629" lon="12.222686861077559"><ele>3.0</ele><time>2026-03-29T10:30:21Z</time></trkpt><trkpt lat="44.55116877692826" lon="12.222804163995033"><ele>3.0</ele><time>2026-03-29T10:30:22Z</time></trkpt><trkpt lat="44.55121532464313" lon="12.222911501410616"><ele>3.0</ele><time>2026-03-29T10:30:23Z</time></trkpt><trkpt lat="44.55125266682936" lon="12.222998122169704"><ele>3.0</ele><time>2026-03-29T10:30:24Z</time></trkpt><trkpt lat="44.551291106698585" lon="12.22308080598126"><ele>3.0</ele><time>2026-03-29T10:30:25Z</time></trkpt><trkpt lat="44.55132986064324" lon="12.223170403100132"><ele>3.0</ele><time>2026-03-29T10:30:26Z</time></trkpt><trkpt lat="44.55137181301416" lon="12.223265178733445"><ele>3.0</ele><time>2026-03-29T10:30:27Z</time></trkpt><trkpt lat="44.551412847913625" lon="12.22335338862064"><ele>3.0</ele><time>2026-03-29T10:30:28Z</time></trkpt><trkpt lat="44.551451431318455" lon="12.22344641724079"><ele>3.0</ele><time>2026-03-29T10:30:29Z</time></trkpt><trkpt lat="44.551494089677625" lon="12.223549637627316"><ele>2.8333333333333335</ele><time>2026-03-29T10:30:30Z</time></trkpt><trkpt lat="44.551536545608194" lon="12.223652582450306"><ele>2.6666666666666665</ele><time>2026-03-29T10:30:31Z</time></trkpt><trkpt lat="44.551577721598115" lon="12.223752782648022"><ele>2.5</ele><time>2026-03-29T10:30:32Z</time></trkpt><trkpt lat="44.551617576810585" lon="12.223856005651148"><ele>2.333333333333333</ele><time>2026-03-29T10:30:33Z</time></trkpt><trkpt lat="44.551658388192976" lon="12.223958112951548"><ele>2.1666666666666665</ele><time>2026-03-29T10:30:34Z</time></trkpt><trkpt lat="44.55169324873719" lon="12.224070563976442"><ele>2.0</ele><time>2026-03-29T10:30:35Z</time></trkpt><trkpt lat="44.55173738768292" lon="12.224176627159439"><ele>2.0</ele><time>2026-03-29T10:30:36Z</time></trkpt><trkpt lat="44.5517816679989" lon="12.224290287531938"><ele>2.0</ele><time>2026-03-29T10:30:37Z</time></trkpt><trkpt lat="44.551823262258374" lon="12.224405087506321"><ele>2.0</ele><time>2026-03-29T10:30:38Z</time></trkpt><trkpt lat="44.55186778384856" lon="12.22451685916255"><ele>2.0</ele><time>2026-03-29T10:30:39Z</time></trkpt><trkpt lat="44.55191487773023" lon="12.224628073850406"><ele>2.0</ele><time>2026-03-29T10:30:40Z</time></trkpt><trkpt lat="44.55196133555294" lon="12.224741479874691"><ele>1.9999999999999998</ele><time>2026-03-29T10:30:41Z</time></trkpt><trkpt lat="44.55200648948131" lon="12.224851962616539"><ele>2.0</ele><time>2026-03-29T10:30:42Z</time></trkpt><trkpt lat="44.55204819502495" lon="12.224956633261153"><ele>2.0</ele><time>2026-03-29T10:30:43Z</time></trkpt><trkpt lat="44.552089231535255" lon="12.2250617098581"><ele>2.0</ele><time>2026-03-29T10:30:44Z</time></trkpt><trkpt lat="44.55212928770295" lon="12.2251688064313"><ele>1.9999999999999998</ele><time>2026-03-29T10:30:45Z</time></trkpt><trkpt lat="44.552168138379535" lon="12.225258593584192"><ele>2.0</ele><time>2026-03-29T10:30:46Z</time></trkpt><trkpt lat="44.55222442380568" lon="12.225361986472997"><ele>2.0</ele><time>2026-03-29T10:30:47Z</time></trkpt><trkpt lat="44.55227613812554" lon="12.22547310989466"><ele>2.0</ele><time>2026-03-29T10:30:48Z</time></trkpt><trkpt lat="44.55232652462803" lon="12.225581600880412"><ele>2.0</ele><time>2026-03-29T10:30:49Z</time></trkpt><trkpt lat="44.552376997507594" lon="12.225688558447796"><ele>2.0</ele><time>2026-03-29T10:30:50Z</time></trkpt><trkpt lat="44.55242796926975" lon="12.225796580406104"><ele>2.0</ele><time>2026-03-29T10:30:51Z</time></trkpt><trkpt lat="44.55247399260105" lon="12.225897838869843"><ele>1.8</ele><time>2026-03-29T10:30:52Z</time></trkpt><trkpt lat="44.55253023408454" lon="12.226005136173118"><ele>1.6</ele><time>2026-03-29T10:30:53Z</time></trkpt><trkpt lat="44.552586150227576" lon="12.226111055655608"><ele>1.4000000000000001</ele><time>2026-03-29T10:30:54Z</time></trkpt><trkpt lat="44.55264101476512" lon="12.226214393953406"><ele>1.2000000000000002</ele><time>2026-03-29T10:30:55Z</time></trkpt><trkpt lat="44.55269905704994" lon="12.226316664288293"><ele>1.0</ele><time>2026-03-29T10:30:56Z</time></trkpt><trkpt lat="44.552762031769625" lon="12.226420323430544"><ele>1.0</ele><time>2026-03-29T10:30:57Z</time></trkpt><trkpt lat="44.55282501680956" lon="12.226519816443401"><ele>1.0</ele><time>2026-03-29T10:30:58Z</time></trkpt><trkpt lat="44.552889689896865" lon="12.226623218233827"><ele>1.0</ele><time>2026-03-29T10:30:59Z</time></trkpt><trkpt lat="44.552954253868585" lon="12.226723286928369"><ele>1.0</ele><time>2026-03-29T10:31:00Z</time></trkpt><trkpt lat="44.553021436210216" lon="12.226822533982043"><ele>1.0</ele><time>2026-03-29T10:31:01Z</time></trkpt><trkpt lat="44.55308733612675" lon="12.226923190673173"><ele>1.3333333333333333</ele><time>2026-03-29T10:31:02Z</time></trkpt><trkpt lat="44.5531499484403" lon="12.227015359787185"><ele>1.6666666666666665</ele><time>2026-03-29T10:31:03Z</time></trkpt><trkpt lat="44.553210093900276" lon="12.227100933320054"><ele>2.0</ele><time>2026-03-29T10:31:04Z</time></trkpt><trkpt lat="44.55327158688498" lon="12.227192259270348"><ele>2.3333333333333335</ele><time>2026-03-29T10:31:05Z</time></trkpt><trkpt lat="44.55332827881806" lon="12.227273701595077"><ele>2.6666666666666665</ele><time>2026-03-29T10:31:06Z</time></trkpt><trkpt lat="44.55338647034865" lon="12.227362532811842"><ele>3.0</ele><time>2026-03-29T10:31:07Z</time></trkpt><trkpt lat="44.55344889965151" lon="12.227455305017928"><ele>3.0</ele><time>2026-03-29T10:31:08Z</time></trkpt><trkpt lat="44.553505220959295" lon="12.227547520150244"><ele>3.0</ele><time>2026-03-29T10:31:09Z</time></trkpt><trkpt lat="44.55356110215877" lon="12.227641592080387"><ele>3.0</ele><time>2026-03-29T10:31:10Z</time></trkpt><trkpt lat="44.5536164243067" lon="12.227735303324458"><ele>3.0</ele><time>2026-03-29T10:31:11Z</time></trkpt><trkpt lat="44.55367214742409" lon="12.227831796392628"><ele>3.0</ele><time>2026-03-29T10:31:12Z</time></trkpt><trkpt lat="44.55372964258152" lon="12.227932159309258"><ele>3.0</ele><time>2026-03-29T10:31:13Z</time></trkpt><trkpt lat="44.55378347784426" lon="12.22803558164315"><ele>3.0</ele><time>2026-03-29T10:31:14Z</time></trkpt><trkpt lat="44.553833686443696" lon="12.228140054356999"><ele>3.0</ele><time>2026-03-29T10:31:15Z</time></trkpt><trkpt lat="44.55388691707259" lon="12.22825188361205"><ele>3.0</ele><time>2026-03-29T10:31:16Z</time></trkpt><trkpt lat="44.55394170253875" lon="12.22836259871213"><ele>3.0</ele><time>2026-03-29T10:31:17Z</time></trkpt><trkpt lat="44.553992679716366" lon="12.228465449749319"><ele>3.0</ele><time>2026-03-29T10:31:18Z</time></trkpt><trkpt lat="44.55404303154055" lon="12.228571714297997"><ele>3.0</ele><time>2026-03-29T10:31:19Z</time></trkpt><trkpt lat="44.55409364083259" lon="12.228681625984148"><ele>3.0</ele><time>2026-03-29T10:31:20Z</time></trkpt><trkpt lat="44.55413975692248" lon="12.22878832922264"><ele>3.0</ele><time>2026-03-29T10:31:21Z</time></trkpt><trkpt lat="44.55418861193381" lon="12.228899668746998"><ele>3.0</ele><time>2026-03-29T10:31:22Z</time></trkpt><trkpt lat="44.55423691962716" lon="12.229006310470844"><ele>3.0</ele><time>2026-03-29T10:31:23Z</time></trkpt><trkpt lat="44.55428276527449" lon="12.2291131670633"><ele>3.0</ele><time>2026-03-29T10:31:24Z</time></trkpt><trkpt lat="44.554332103592046" lon="12.229222073458365"><ele>3.0</ele><time>2026-03-29T10:31:25Z</time></trkpt><trkpt lat="44.55437819944525" lon="12.22932845587428"><ele>3.0</ele><time>2026-03-29T10:31:26Z</time></trkpt><trkpt lat="44.55442196646327" lon="12.22943239116897"><ele>3.0</ele><time>2026-03-29T10:31:27Z</time></trkpt><trkpt lat="44.55446628191048" lon="12.229533571472631"><ele>3.0</ele><time>2026-03-29T10:31:28Z</time></trkpt><trkpt lat="44.554509953895476" lon="12.22963555328824"><ele>3.0</ele><time>2026-03-29T10:31:29Z</time></trkpt><trkpt lat="44.55455444203045" lon="12.229742561264139"><ele>2.8</ele><time>2026-03-29T10:31:30Z</time></trkpt><trkpt lat="44.55460654462671" lon="12.229860343669463"><ele>2.5999999999999996</ele><time>2026-03-29T10:31:31Z</time></trkpt><trkpt lat="44.55465937344564" lon="12.229976624524046"><ele>2.4000000000000004</ele><time>2026-03-29T10:31:32Z</time></trkpt><trkpt lat="44.554711719353776" lon="12.230087346544174"><ele>2.2</ele><time>2026-03-29T10:31:33Z</time></trkpt><trkpt lat="44.55476306680975" lon="12.23019334110907"><ele>2.0</ele><time>2026-03-29T10:31:34Z</time></trkpt><trkpt lat="44.55481314977202" lon="12.230302071084447"><ele>2.0</ele><time>2026-03-29T10:31:35Z</time></trkpt><trkpt lat="44.5548614990803" lon="12.230408882941374"><ele>2.0</ele><time>2026-03-29T10:31:36Z</time></trkpt><trkpt lat="44.55491014772422" lon="12.23051547890228"><ele>2.0</ele><time>2026-03-29T10:31:37Z</time></trkpt><trkpt lat="44.55496067054941" lon="12.230624166780578"><ele>2.0</ele><time>2026-03-29T10:31:38Z</time></trkpt><trkpt lat="44.555011804015656" lon="12.230733579455265"><ele>2.0</ele><time>2026-03-29T10:31:39Z</time></trkpt><trkpt lat="44.55506162985381" lon="12.230837162779565"><ele>1.9999999999999998</ele><time>2026-03-29T10:31:40Z</time></trkpt><trkpt lat="44.55511351166183" lon="12.230939116642395"><ele>2.0</ele><time>2026-03-29T10:31:41Z</time></trkpt><trkpt lat="44.55516608519928" lon="12.23103790284721"><ele>2.0</ele><time>2026-03-29T10:31:42Z</time></trkpt><trkpt lat="44.55522255757505" lon="12.23114399879141"><ele>2.0</ele><time>2026-03-29T10:31:43Z</time></trkpt><trkpt lat="44.555267377818865" lon="12.23122190589796"><ele>1.9999999999999998</ele><time>2026-03-29T10:31:44Z</time></trkpt><trkpt lat="44.555311698913954" lon="12.23130341101426"><ele>2.0</ele><time>2026-03-29T10:31:45Z</time></trkpt><trkpt lat="44.5553579665666" lon="12.231396582400139"><ele>1.8333333333333333</ele><time>2026-03-29T10:31:46Z</time></trkpt><trkpt lat="44.55541101487181" lon="12.231494294560008"><ele>1.6666666666666665</ele><time>2026-03-29T10:31:47Z</time></trkpt><trkpt lat="44.55546473020955" lon="12.23158386044467"><ele>1.5</ele><time>2026-03-29T10:31:48Z</time></trkpt><trkpt lat="44.55552093186223" lon="12.231680064607714"><ele>1.3333333333333333</ele><time>2026-03-29T10:31:49Z</time></trkpt><trkpt lat="44.55557452591551" lon="12.231780582553942"><ele>1.1666666666666665</ele><time>2026-03-29T10:31:50Z</time></trkpt><trkpt lat="44.55562575709567" lon="12.231883825788813"><ele>1.0</ele><time>2026-03-29T10:31:51Z</time></trkpt><trkpt lat="44.55568037393472" lon="12.231976186714883"><ele>0.9999999999999999</ele><time>2026-03-29T10:31:52Z</time></trkpt><trkpt lat="44.55573913652202" lon="12.23207555829586"><ele>1.0</ele><time>2026-03-29T10:31:53Z</time></trkpt><trkpt lat="44.555794314673506" lon="12.232169791947522"><ele>1.0</ele><time>2026-03-29T10:31:54Z</time></trkpt><trkpt lat="44.555850427010284" lon="12.232264319939127"><ele>1.0</ele><time>2026-03-29T10:31:55Z</time></trkpt><trkpt lat="44.55590479803936" lon="12.232355419207511"><ele>0.9999999999999999</ele><time>2026-03-29T10:31:56Z</time></trkpt><trkpt lat="44.55595881179112" lon="12.232446276740102"><ele>1.0</ele><time>2026-03-29T10:31:57Z</time></trkpt><trkpt lat="44.55601372619802" lon="12.232537407976016"><ele>0.8333333333333333</ele><time>2026-03-29T10:31:58Z</time></trkpt><trkpt lat="44.55606552268014" lon="12.23262689211425"><ele>0.6666666666666666</ele><time>2026-03-29T10:31:59Z</time></trkpt><trkpt lat="44.5561192388055" lon="12.23271983347238"><ele>0.5</ele><time>2026-03-29T10:32:00Z</time></trkpt><trkpt lat="44.5561705846469" lon="12.232811658670595"><ele>0.3333333333333333</ele><time>2026-03-29T10:32:01Z</time></trkpt><trkpt lat="44.5562206132874" lon="12.232900472600006"><ele>0.16666666666666666</ele><time>2026-03-29T10:32:02Z</time></trkpt><trkpt lat="44.55626858692089" lon="12.23298254237589"><ele>0.0</ele><time>2026-03-29T10:32:03Z</time></trkpt><trkpt lat="44.55631723991861" lon="12.233068524682734"><ele>0.3333333333333333</ele><time>2026-03-29T10:32:04Z</time></trkpt><trkpt lat="44.55636312543104" lon="12.233154718836762"><ele>0.6666666666666666</ele><time>2026-03-29T10:32:05Z</time></trkpt><trkpt lat="44.556414611614585" lon="12.233245490289221"><ele>1.0</ele><time>2026-03-29T10:32:06Z</time></trkpt><trkpt lat="44.55646216949117" lon="12.233339218316825"><ele>1.3333333333333333</ele><time>2026-03-29T10:32:07Z</time></trkpt><trkpt lat="44.55651061937556" lon="12.233430393658555"><ele>1.6666666666666665</ele><time>2026-03-29T10:32:08Z</time></trkpt><trkpt lat="44.55656499793137" lon="12.233523305413883"><ele>2.0</ele><time>2026-03-29T10:32:09Z</time></trkpt><trkpt lat="44.55662179297744" lon="12.23362013702553"><ele>2.0</ele><time>2026-03-29T10:32:10Z</time></trkpt><trkpt lat="44.556676267239766" lon="12.233715541665473"><ele>2.0</ele><time>2026-03-29T10:32:11Z</time></trkpt><trkpt lat="44.55673133827759" lon="12.233820679722443"><ele>2.0</ele><time>2026-03-29T10:32:12Z</time></trkpt><trkpt lat="44.55678807418393" lon="12.23392764513282"><ele>2.0</ele><time>2026-03-29T10:32:13Z</time></trkpt><trkpt lat="44.556843661219084" lon="12.234032972259184"><ele>2.0</ele><time>2026-03-29T10:32:14Z</time></trkpt><trkpt lat="44.556897180851415" lon="12.23413825013732"><ele>2.0</ele><time>2026-03-29T10:32:15Z</time></trkpt><trkpt lat="44.556952584186334" lon="12.23424225560883"><ele>2.0</ele><time>2026-03-29T10:32:16Z</time></trkpt><trkpt lat="44.557007278041276" lon="12.234345061128554"><ele>2.0</ele><time>2026-03-29T10:32:17Z</time></trkpt><trkpt lat="44.55706288787652" lon="12.234457228265272"><ele>2.0</ele><time>2026-03-29T10:32:18Z</time></trkpt><trkpt lat="44.55712111077365" lon="12.23457288531936"><ele>2.0</ele><time>2026-03-29T10:32:19Z</time></trkpt><trkpt lat="44.557180124678105" lon="12.234674135745442"><ele>2.0</ele><time>2026-03-29T10:32:20Z</time></trkpt><trkpt lat="44.55723287264593" lon="12.234782833170335"><ele>2.0</ele><time>2026-03-29T10:32:21Z</time></trkpt><trkpt lat="44.55728480891293" lon="12.234889134203938"><ele>2.0</ele><time>2026-03-29T10:32:22Z</time></trkpt><trkpt lat="44.55733538567489" lon="12.234993255784666"><ele>2.0</ele><time>2026-03-29T10:32:23Z</time></trkpt><trkpt lat="44.55738019075771" lon="12.235102236046794"><ele>2.0</ele><time>2026-03-29T10:32:24Z</time></trkpt><trkpt lat="44.55743192757144" lon="12.235215711617858"><ele>2.0</ele><time>2026-03-29T10:32:25Z</time></trkpt><trkpt lat="44.55748533565838" lon="12.235332038618397"><ele>2.0</ele><time>2026-03-29T10:32:26Z</time></trkpt><trkpt lat="44.55754105272323" lon="12.235449162770605"><ele>2.0</ele><time>2026-03-29T10:32:27Z</time></trkpt><trkpt lat="44.557593894451564" lon="12.235562608941025"><ele>2.0</ele><time>2026-03-29T10:32:28Z</time></trkpt><trkpt lat="44.55764423665257" lon="12.23567045425502"><ele>2.0</ele><time>2026-03-29T10:32:29Z</time></trkpt><trkpt lat="44.55769114019177" lon="12.235780128918051"><ele>1.8333333333333333</ele><time>2026-03-29T10:32:30Z</time></trkpt><trkpt lat="44.55773713723724" lon="12.235886051676387"><ele>1.6666666666666665</ele><time>2026-03-29T10:32:31Z</time></trkpt><trkpt lat="44.55778746113187" lon="12.235994527013089"><ele>1.5</ele><time>2026-03-29T10:32:32Z</time></trkpt><trkpt lat="44.55783552182141" lon="12.236098840226239"><ele>1.3333333333333333</ele><time>2026-03-29T10:32:33Z</time></trkpt><trkpt lat="44.557886203030414" lon="12.236203291496658"><ele>1.1666666666666665</ele><time>2026-03-29T10:32:34Z</time></trkpt><trkpt lat="44.55793515577389" lon="12.236304841334242"><ele>1.0</ele><time>2026-03-29T10:32:35Z</time></trkpt><trkpt lat="44.557984645833514" lon="12.236410596772656"><ele>0.8333333333333333</ele><time>2026-03-29T10:32:36Z</time></trkpt><trkpt lat="44.558031822496396" lon="12.236513089015371"><ele>0.6666666666666666</ele><time>2026-03-29T10:32:37Z</time></trkpt><trkpt lat="44.55807981590809" lon="12.236620876467814"><ele>0.5</ele><time>2026-03-29T10:32:38Z</time></trkpt><trkpt lat="44.558130872310265" lon="12.236732959314665"><ele>0.3333333333333333</ele><time>2026-03-29T10:32:39Z</time></trkpt><trkpt lat="44.558175709613096" lon="12.236836523887414"><ele>0.16666666666666666</ele><time>2026-03-29T10:32:40Z</time></trkpt><trkpt lat="44.55822560772583" lon="12.236942412140396"><ele>0.0</ele><time>2026-03-29T10:32:41Z</time></trkpt><trkpt lat="44.55827973028237" lon="12.237053545323498"><ele>0.0</ele><time>2026-03-29T10:32:42Z</time></trkpt><trkpt lat="44.55833191845441" lon="12.237162126156639"><ele>0.0</ele><time>2026-03-29T10:32:43Z</time></trkpt><trkpt lat="44.55838620665364" lon="12.237274941509591"><ele>0.0</ele><time>2026-03-29T10:32:44Z</time></trkpt><trkpt lat="44.55843764253083" lon="12.23738845163376"><ele>0.0</ele><time>2026-03-29T10:32:45Z</time></trkpt><trkpt lat="44.55848639193951" lon="12.23750242769745"><ele>0.0</ele><time>2026-03-29T10:32:46Z</time></trkpt><trkpt lat="44.55853984673006" lon="12.237611800144377"><ele>0.0</ele><time>2026-03-29T10:32:47Z</time></trkpt><trkpt lat="44.558588189258565" lon="12.237712536898153"><ele>0.0</ele><time>2026-03-29T10:32:48Z</time></trkpt><trkpt lat="44.55864107130142" lon="12.237815595156476"><ele>0.0</ele><time>2026-03-29T10:32:49Z</time></trkpt><trkpt lat="44.55869145216027" lon="12.237916051720083"><ele>0.0</ele><time>2026-03-29T10:32:50Z</time></trkpt><trkpt lat="44.55874122183445" lon="12.23802187548759"><ele>0.0</ele><time>2026-03-29T10:32:51Z</time></trkpt><trkpt lat="44.558794686667206" lon="12.238131266438868"><ele>0.0</ele><time>2026-03-29T10:32:52Z</time></trkpt><trkpt lat="44.55884557886573" lon="12.238241497242953"><ele>0.0</ele><time>2026-03-29T10:32:53Z</time></trkpt><trkpt lat="44.55889786681247" lon="12.238350488213397"><ele>0.0</ele><time>2026-03-29T10:32:54Z</time></trkpt><trkpt lat="44.55894932889583" lon="12.238456268165361"><ele>0.0</ele><time>2026-03-29T10:32:55Z</time></trkpt><trkpt lat="44.559003980938925" lon="12.238565906202835"><ele>0.0</ele><time>2026-03-29T10:32:56Z</time></trkpt><trkpt lat="44.55905758699281" lon="12.2386726186846"><ele>0.0</ele><time>2026-03-29T10:32:57Z</time></trkpt><trkpt lat="44.55911390385542" lon="12.238783373380612"><ele>0.0</ele><time>2026-03-29T10:32:58Z</time></trkpt><trkpt lat="44.559165616330496" lon="12.238888558508194"><ele>0.0</ele><time>2026-03-29T10:32:59Z</time></trkpt><trkpt lat="44.55921715332694" lon="12.238988604437168"><ele>0.0</ele><time>2026-03-29T10:33:00Z</time></trkpt><trkpt lat="44.55926630190592" lon="12.23908733037958"><ele>0.0</ele><time>2026-03-29T10:33:01Z</time></trkpt><trkpt lat="44.55931581635984" lon="12.239181060494838"><ele>0.0</ele><time>2026-03-29T10:33:02Z</time></trkpt><trkpt lat="44.559371153007795" lon="12.239278606197667"><ele>0.0</ele><time>2026-03-29T10:33:03Z</time></trkpt><trkpt lat="44.55942110835531" lon="12.239372779911887"><ele>0.0</ele><time>2026-03-29T10:33:04Z</time></trkpt><trkpt lat="44.559471325026806" lon="12.239472842273774"><ele>0.0</ele><time>2026-03-29T10:33:05Z</time></trkpt><trkpt lat="44.55952273881251" lon="12.239572740216566"><ele>0.0</ele><time>2026-03-29T10:33:06Z</time></trkpt><trkpt lat="44.55957669959171" lon="12.239677292902444"><ele>0.0</ele><time>2026-03-29T10:33:07Z</time></trkpt><trkpt lat="44.55963110810885" lon="12.239779747334287"><ele>0.0</ele><time>2026-03-29T10:33:08Z</time></trkpt><trkpt lat="44.559686035777254" lon="12.239880674368907"><ele>0.0</ele><time>2026-03-29T10:33:09Z</time></trkpt><trkpt lat="44.559742806353015" lon="12.239985570256488"><ele>0.4</ele><time>2026-03-29T10:33:10Z</time></trkpt><trkpt lat="44.559799269754606" lon="12.240093102167368"><ele>0.8</ele><time>2026-03-29T10:33:11Z</time></trkpt><trkpt lat="44.55986017329038" lon="12.240206818248726"><ele>1.2000000000000002</ele><time>2026-03-29T10:33:12Z</time></trkpt><trkpt lat="44.55991967993599" lon="12.240316144519834"><ele>1.6</ele><time>2026-03-29T10:33:13Z</time></trkpt><trkpt lat="44.55997586205639" lon="12.240421191282229"><ele>2.0</ele><time>2026-03-29T10:33:14Z</time></trkpt><trkpt lat="44.56003159361303" lon="12.240524840535402"><ele>2.0</ele><time>2026-03-29T10:33:15Z</time></trkpt><trkpt lat="44.560086452086935" lon="12.2406282408268"><ele>2.0</ele><time>2026-03-29T10:33:16Z</time></trkpt><trkpt lat="44.56014048762743" lon="12.240729818670754"><ele>2.0</ele><time>2026-03-29T10:33:17Z</time></trkpt><trkpt lat="44.56019470059562" lon="12.240832853164301"><ele>2.0</ele><time>2026-03-29T10:33:18Z</time></trkpt><trkpt lat="44.560247007074665" lon="12.240935177403976"><ele>2.0</ele><time>2026-03-29T10:33:19Z</time></trkpt><trkpt lat="44.56029966383912" lon="12.24103446859868"><ele>1.8</ele><time>2026-03-29T10:33:20Z</time></trkpt><trkpt lat="44.56035270103395" lon="12.241132359686887"><ele>1.6</ele><time>2026-03-29T10:33:21Z</time></trkpt><trkpt lat="44.56040377171527" lon="12.24122541800258"><ele>1.4000000000000001</ele><time>2026-03-29T10:33:22Z</time></trkpt><trkpt lat="44.560455980956064" lon="12.24132116189379"><ele>1.2000000000000002</ele><time>2026-03-29T10:33:23Z</time></trkpt><trkpt lat="44.560515432721516" lon="12.241433209475021"><ele>1.0</ele><time>2026-03-29T10:33:24Z</time></trkpt><trkpt lat="44.560591732294284" lon="12.241583870780982"><ele>0.8</ele><time>2026-03-29T10:33:25Z</time></trkpt><trkpt lat="44.560668530171874" lon="12.24172999086939"><ele>0.6000000000000001</ele><time>2026-03-29T10:33:26Z</time></trkpt><trkpt lat="44.56072779095454" lon="12.241846658692742"><ele>0.4</ele><time>2026-03-29T10:33:27Z</time></trkpt><trkpt lat="44.56078239599969" lon="12.241948329338753"><ele>0.2</ele><time>2026-03-29T10:33:28Z</time></trkpt><trkpt lat="44.560839219351955" lon="12.242061544232179"><ele>0.0</ele><time>2026-03-29T10:33:29Z</time></trkpt><trkpt lat="44.56089609481932" lon="12.242182604647402"><ele>0.0</ele><time>2026-03-29T10:33:30Z</time></trkpt><trkpt lat="44.56095085235471" lon="12.242297502789459"><ele>0.0</ele><time>2026-03-29T10:33:31Z</time></trkpt><trkpt lat="44.56099805889843" lon="12.242393721118"><ele>0.0</ele><time>2026-03-29T10:33:32Z</time></trkpt><trkpt lat="44.56104019534384" lon="12.242487044773462"><ele>0.0</ele><time>2026-03-29T10:33:33Z</time></trkpt><trkpt lat="44.561093241363196" lon="12.24259938490492"><ele>0.0</ele><time>2026-03-29T10:33:34Z</time></trkpt><trkpt lat="44.561151721700824" lon="12.242734948428643"><ele>0.0</ele><time>2026-03-29T10:33:35Z</time></trkpt><trkpt lat="44.56121558299633" lon="12.24288983319557"><ele>0.0</ele><time>2026-03-29T10:33:36Z</time></trkpt><trkpt lat="44.561269798249526" lon="12.24302404430278"><ele>0.0</ele><time>2026-03-29T10:33:37Z</time></trkpt><trkpt lat="44.56131417339142" lon="12.243150564756672"><ele>0.0</ele><time>2026-03-29T10:33:38Z</time></trkpt><trkpt lat="44.56135531564028" lon="12.243285429346273"><ele>0.0</ele><time>2026-03-29T10:33:39Z</time></trkpt><trkpt lat="44.561400403504464" lon="12.243430391802773"><ele>0.0</ele><time>2026-03-29T10:33:40Z</time></trkpt><trkpt lat="44.561438517972555" lon="12.243557451102825"><ele>0.0</ele><time>2026-03-29T10:33:41Z</time></trkpt><trkpt lat="44.561474768876096" lon="12.24367749598401"><ele>0.0</ele><time>2026-03-29T10:33:42Z</time></trkpt><trkpt lat="44.56151132658915" lon="12.243795040713668"><ele>0.0</ele><time>2026-03-29T10:33:43Z</time></trkpt><trkpt lat="44.561544308860896" lon="12.24389752906389"><ele>0.0</ele><time>2026-03-29T10:33:44Z</time></trkpt><trkpt lat="44.561575319442106" lon="12.243984213824914"><ele>0.0</ele><time>2026-03-29T10:33:45Z</time></trkpt><trkpt lat="44.56164089982983" lon="12.244145555237557"><ele>0.0</ele><time>2026-03-29T10:33:47Z</time></trkpt><trkpt lat="44.56168521919734" lon="12.244237348050973"><ele>0.0</ele><time>2026-03-29T10:33:48Z</time></trkpt><trkpt lat="44.56172989405576" lon="12.244333400416487"><ele>0.0</ele><time>2026-03-29T10:33:49Z</time></trkpt><trkpt lat="44.56177174171792" lon="12.244421346227583"><ele>0.0</ele><time>2026-03-29T10:33:50Z</time></trkpt><trkpt lat="44.56181076528982" lon="12.244503242540969"><ele>0.0</ele><time>2026-03-29T10:33:51Z</time></trkpt><trkpt lat="44.561865452575304" lon="12.244619539932202"><ele>0.0</ele><time>2026-03-29T10:33:53Z</time></trkpt><trkpt lat="44.56190934725629" lon="12.244716086879015"><ele>0.0</ele><time>2026-03-29T10:33:55Z</time></trkpt><trkpt lat="44.561953277390856" lon="12.244802410870099"><ele>0.0</ele><time>2026-03-29T10:33:57Z</time></trkpt><trkpt lat="44.5620515770338" lon="12.244831733964254"><ele>0.0</ele><time>2026-03-29T10:34:00Z</time></trkpt><trkpt lat="44.562114447264015" lon="12.244774453045897"><ele>0.0</ele><time>2026-03-29T10:34:02Z</time></trkpt><trkpt lat="44.562177951953394" lon="12.244719503973505"><ele>0.0</ele><time>2026-03-29T10:34:04Z</time></trkpt><trkpt lat="44.56224304370073" lon="12.244666037558067"><ele>0.0</ele><time>2026-03-29T10:34:06Z</time></trkpt><trkpt lat="44.562307250620655" lon="12.244624768275239"><ele>0.0</ele><time>2026-03-29T10:34:08Z</time></trkpt><trkpt lat="44.56236614081664" lon="12.244571818021612"><ele>0.0</ele><time>2026-03-29T10:34:10Z</time></trkpt><trkpt lat="44.562437743096034" lon="12.244522853729583"><ele>0.0</ele><time>2026-03-29T10:34:13Z</time></trkpt><trkpt lat="44.562503534181026" lon="12.244531665364828"><ele>0.0</ele><time>2026-03-29T10:34:41Z</time></trkpt><trkpt lat="44.56255237341114" lon="12.244651887651147"><ele>0.0</ele><time>2026-03-29T10:34:43Z</time></trkpt><trkpt lat="44.5625878025224" lon="12.24473754900094"><ele>0.0</ele><time>2026-03-29T10:34:44Z</time></trkpt><trkpt lat="44.56262355135071" lon="12.244823983360403"><ele>0.16666666666666666</ele><time>2026-03-29T10:34:45Z</time></trkpt><trkpt lat="44.56267237316539" lon="12.244913149714648"><ele>0.3333333333333333</ele><time>2026-03-29T10:34:46Z</time></trkpt><trkpt lat="44.56270317891865" lon="12.245006258837927"><ele>0.5</ele><time>2026-03-29T10:34:47Z</time></trkpt><trkpt lat="44.562744676497495" lon="12.245093842717909"><ele>0.6666666666666666</ele><time>2026-03-29T10:34:48Z</time></trkpt><trkpt lat="44.56278220259885" lon="12.245186020927251"><ele>0.8333333333333333</ele><time>2026-03-29T10:34:49Z</time></trkpt><trkpt lat="44.56281380978631" lon="12.245267632222104"><ele>1.0</ele><time>2026-03-29T10:34:50Z</time></trkpt><trkpt lat="44.562859382830425" lon="12.245381719637695"><ele>1.0</ele><time>2026-03-29T10:34:51Z</time></trkpt><trkpt lat="44.562920794336854" lon="12.245529767493206"><ele>1.0</ele><time>2026-03-29T10:34:52Z</time></trkpt><trkpt lat="44.5629816782291" lon="12.245680362256048"><ele>1.0</ele><time>2026-03-29T10:34:53Z</time></trkpt><trkpt lat="44.56305183212122" lon="12.245855448676725"><ele>1.0</ele><time>2026-03-29T10:34:54Z</time></trkpt><trkpt lat="44.56313129380697" lon="12.246034152948488"><ele>1.0</ele><time>2026-03-29T10:34:55Z</time></trkpt><trkpt lat="44.5632119888338" lon="12.246222221115884"><ele>1.0</ele><time>2026-03-29T10:34:56Z</time></trkpt><trkpt lat="44.56329506427908" lon="12.246425653641458"><ele>1.0</ele><time>2026-03-29T10:34:57Z</time></trkpt><trkpt lat="44.56337721075519" lon="12.246625347358776"><ele>0.6666666666666666</ele><time>2026-03-29T10:34:58Z</time></trkpt><trkpt lat="44.5634609336988" lon="12.246822855143408"><ele>0.3333333333333333</ele><time>2026-03-29T10:34:59Z</time></trkpt><trkpt lat="44.56354629851156" lon="12.247030275483148"><ele>0.0</ele><time>2026-03-29T10:35:00Z</time></trkpt><trkpt lat="44.56362786998493" lon="12.247230901690184"><ele>0.0</ele><time>2026-03-29T10:35:01Z</time></trkpt><trkpt lat="44.5637092319236" lon="12.247435416538384"><ele>0.0</ele><time>2026-03-29T10:35:02Z</time></trkpt><trkpt lat="44.56378940525583" lon="12.247630147444958"><ele>0.0</ele><time>2026-03-29T10:35:03Z</time></trkpt><trkpt lat="44.563863155682974" lon="12.247810574618814"><ele>0.0</ele><time>2026-03-29T10:35:04Z</time></trkpt><trkpt lat="44.56393960743767" lon="12.247983772626657"><ele>0.0</ele><time>2026-03-29T10:35:05Z</time></trkpt><trkpt lat="44.564017613771405" lon="12.248146460934635"><ele>0.0</ele><time>2026-03-29T10:35:06Z</time></trkpt><trkpt lat="44.56410582044048" lon="12.248304279360251"><ele>0.0</ele><time>2026-03-29T10:35:07Z</time></trkpt><trkpt lat="44.56420724519471" lon="12.248453667614127"><ele>0.0</ele><time>2026-03-29T10:35:08Z</time></trkpt><trkpt lat="44.56433065301622" lon="12.248596021895915"><ele>0.0</ele><time>2026-03-29T10:35:09Z</time></trkpt><trkpt lat="44.56446762174525" lon="12.248728212848548"><ele>0.0</ele><time>2026-03-29T10:35:10Z</time></trkpt><trkpt lat="44.56461849871791" lon="12.24884709738218"><ele>0.0</ele><time>2026-03-29T10:35:11Z</time></trkpt><trkpt lat="44.56477547724545" lon="12.24896164942255"><ele>0.0</ele><time>2026-03-29T10:35:12Z</time></trkpt><trkpt lat="44.56492482624557" lon="12.249055227801485"><ele>0.0</ele><time>2026-03-29T10:35:13Z</time></trkpt><trkpt lat="44.565054399422905" lon="12.24914343021313"><ele>0.0</ele><time>2026-03-29T10:35:14Z</time></trkpt><trkpt lat="44.565165822319635" lon="12.249236844670552"><ele>0.0</ele><time>2026-03-29T10:35:15Z</time></trkpt><trkpt lat="44.56527722300666" lon="12.249340278167592"><ele>0.0</ele><time>2026-03-29T10:35:16Z</time></trkpt><trkpt lat="44.565390844068524" lon="12.249449979115855"><ele>0.0</ele><time>2026-03-29T10:35:17Z</time></trkpt><trkpt lat="44.56550593898973" lon="12.249567860027458"><ele>0.0</ele><time>2026-03-29T10:35:18Z</time></trkpt><trkpt lat="44.565611555745946" lon="12.249685722514062"><ele>0.0</ele><time>2026-03-29T10:35:19Z</time></trkpt><trkpt lat="44.565703784274106" lon="12.249798905112469"><ele>0.0</ele><time>2026-03-29T10:35:20Z</time></trkpt><trkpt lat="44.56578442207838" lon="12.249911943131043"><ele>0.0</ele><time>2026-03-29T10:35:21Z</time></trkpt><trkpt lat="44.56585043759571" lon="12.25001984592012"><ele>0.0</ele><time>2026-03-29T10:35:22Z</time></trkpt><trkpt lat="44.565905197550734" lon="12.25012413089357"><ele>0.0</ele><time>2026-03-29T10:35:23Z</time></trkpt><trkpt lat="44.565942367360236" lon="12.250220440506478"><ele>0.0</ele><time>2026-03-29T10:35:24Z</time></trkpt><trkpt lat="44.565965765788725" lon="12.25031480016536"><ele>0.0</ele><time>2026-03-29T10:35:25Z</time></trkpt><trkpt lat="44.56597103896858" lon="12.250460898473683"><ele>0.0</ele><time>2026-03-29T10:35:27Z</time></trkpt><trkpt lat="44.56594062910886" lon="12.250550135070602"><ele>0.0</ele><time>2026-03-29T10:35:30Z</time></trkpt><trkpt lat="44.56589881395632" lon="12.250655703375903"><ele>0.2</ele><time>2026-03-29T10:35:34Z</time></trkpt><trkpt lat="44.5658190907951" lon="12.250787678173086"><ele>0.4</ele><time>2026-03-29T10:35:36Z</time></trkpt><trkpt lat="44.56577404368284" lon="12.250878762541264"><ele>0.6000000000000001</ele><time>2026-03-29T10:35:37Z</time></trkpt><trkpt lat="44.56574401428924" lon="12.251000906692381"><ele>0.8</ele><time>2026-03-29T10:35:38Z</time></trkpt><trkpt lat="44.565748578272135" lon="12.25113236584718"><ele>1.0</ele><time>2026-03-29T10:35:39Z</time></trkpt><trkpt lat="44.565780103117284" lon="12.25124745026442"><ele>1.0</ele><time>2026-03-29T10:35:40Z</time></trkpt><trkpt lat="44.5658336515474" lon="12.251352689922637"><ele>1.0</ele><time>2026-03-29T10:35:41Z</time></trkpt><trkpt lat="44.565908197215855" lon="12.251424640064364"><ele>1.0</ele><time>2026-03-29T10:35:42Z</time></trkpt><trkpt lat="44.56599895843772" lon="12.25147138194929"><ele>1.0</ele><time>2026-03-29T10:35:43Z</time></trkpt><trkpt lat="44.56609767641771" lon="12.251478520715489"><ele>1.0</ele><time>2026-03-29T10:35:44Z</time></trkpt><trkpt lat="44.56620014444011" lon="12.251446911317574"><ele>0.75</ele><time>2026-03-29T10:35:45Z</time></trkpt><trkpt lat="44.56629155536566" lon="12.251382922767053"><ele>0.5</ele><time>2026-03-29T10:35:46Z</time></trkpt><trkpt lat="44.56638883781858" lon="12.251307730486817"><ele>0.25</ele><time>2026-03-29T10:35:47Z</time></trkpt><trkpt lat="44.56650025953991" lon="12.251265892171896"><ele>0.0</ele><time>2026-03-29T10:35:48Z</time></trkpt><trkpt lat="44.566628275053745" lon="12.251275328106624"><ele>0.0</ele><time>2026-03-29T10:35:49Z</time></trkpt><trkpt lat="44.56675950864613" lon="12.251331010994843"><ele>0.0</ele><time>2026-03-29T10:35:50Z</time></trkpt><trkpt lat="44.56690240191467" lon="12.251391175127544"><ele>0.0</ele><time>2026-03-29T10:35:51Z</time></trkpt><trkpt lat="44.567055795407924" lon="12.251456634490468"><ele>0.0</ele><time>2026-03-29T10:35:52Z</time></trkpt><trkpt lat="44.56720235193001" lon="12.251528679746205"><ele>-0.3333333333333333</ele><time>2026-03-29T10:35:53Z</time></trkpt><trkpt lat="44.56735515044027" lon="12.251607999984438"><ele>-0.6666666666666666</ele><time>2026-03-29T10:35:54Z</time></trkpt><trkpt lat="44.567515902745264" lon="12.251686492911219"><ele>-1.0</ele><time>2026-03-29T10:35:55Z</time></trkpt><trkpt lat="44.56768174861955" lon="12.251763966930534"><ele>-1.0</ele><time>2026-03-29T10:35:56Z</time></trkpt><trkpt lat="44.56785849480396" lon="12.251845388139062"><ele>-1.0</ele><time>2026-03-29T10:35:57Z</time></trkpt><trkpt lat="44.56802287718963" lon="12.251922433791073"><ele>-1.0</ele><time>2026-03-29T10:35:58Z</time></trkpt><trkpt lat="44.56818790602562" lon="12.252001171743704"><ele>-1.0</ele><time>2026-03-29T10:35:59Z</time></trkpt><trkpt lat="44.56836510277254" lon="12.25207843165281"><ele>-1.0</ele><time>2026-03-29T10:36:00Z</time></trkpt><trkpt lat="44.56854459621085" lon="12.252159239948782"><ele>-1.0</ele><time>2026-03-29T10:36:01Z</time></trkpt><trkpt lat="44.5687273127242" lon="12.252245785907705"><ele>-1.0</ele><time>2026-03-29T10:36:02Z</time></trkpt><trkpt lat="44.56890565961127" lon="12.25233357114607"><ele>-1.0</ele><time>2026-03-29T10:36:03Z</time></trkpt><trkpt lat="44.56908557872998" lon="12.252416275999325"><ele>-1.0</ele><time>2026-03-29T10:36:04Z</time></trkpt><trkpt lat="44.569265919649055" lon="12.252496494858773"><ele>-1.0</ele><time>2026-03-29T10:36:05Z</time></trkpt><trkpt lat="44.56944567354232" lon="12.252577135804096"><ele>-1.0</ele><time>2026-03-29T10:36:06Z</time></trkpt><trkpt lat="44.569621646663705" lon="12.25266118830854"><ele>-1.0</ele><time>2026-03-29T10:36:07Z</time></trkpt><trkpt lat="44.56980481272053" lon="12.252748468190866"><ele>-1.3333333333333333</ele><time>2026-03-29T10:36:08Z</time></trkpt><trkpt lat="44.569987554058976" lon="12.252832348117748"><ele>-1.6666666666666665</ele><time>2026-03-29T10:36:09Z</time></trkpt><trkpt lat="44.57017218052079" lon="12.252919367101429"><ele>-2.0</ele><time>2026-03-29T10:36:10Z</time></trkpt><trkpt lat="44.570347563233156" lon="12.252997452756679"><ele>-1.6666666666666665</ele><time>2026-03-29T10:36:11Z</time></trkpt><trkpt lat="44.570523193881925" lon="12.253080390105017"><ele>-1.3333333333333333</ele><time>2026-03-29T10:36:12Z</time></trkpt><trkpt lat="44.5706985557586" lon="12.25316033807551"><ele>-1.0</ele><time>2026-03-29T10:36:13Z</time></trkpt><trkpt lat="44.5708772249874" lon="12.253241666378358"><ele>-1.0</ele><time>2026-03-29T10:36:14Z</time></trkpt><trkpt lat="44.57105786006197" lon="12.253327181524938"><ele>-1.0</ele><time>2026-03-29T10:36:15Z</time></trkpt><trkpt lat="44.57123896386452" lon="12.253416585204032"><ele>-1.0</ele><time>2026-03-29T10:36:16Z</time></trkpt><trkpt lat="44.57141832241024" lon="12.253502779338099"><ele>-0.3333333333333333</ele><time>2026-03-29T10:36:17Z</time></trkpt><trkpt lat="44.571601241523226" lon="12.253583972400957"><ele>0.3333333333333333</ele><time>2026-03-29T10:36:18Z</time></trkpt><trkpt lat="44.57177965365374" lon="12.253665709097424"><ele>1.0</ele><time>2026-03-29T10:36:19Z</time></trkpt><trkpt lat="44.57195720825614" lon="12.25375114564618"><ele>0.6666666666666666</ele><time>2026-03-29T10:36:20Z</time></trkpt><trkpt lat="44.572130982659104" lon="12.25383603695669"><ele>0.3333333333333333</ele><time>2026-03-29T10:36:21Z</time></trkpt><trkpt lat="44.57230575508044" lon="12.253916964296897"><ele>0.0</ele><time>2026-03-29T10:36:22Z</time></trkpt><trkpt lat="44.57247759882796" lon="12.253996880564989"><ele>0.0</ele><time>2026-03-29T10:36:23Z</time></trkpt><trkpt lat="44.57265105750615" lon="12.254077326968103"><ele>0.0</ele><time>2026-03-29T10:36:24Z</time></trkpt><trkpt lat="44.57283085563616" lon="12.254158144284299"><ele>0.0</ele><time>2026-03-29T10:36:25Z</time></trkpt><trkpt lat="44.57300395047405" lon="12.254238355215726"><ele>-0.3333333333333333</ele><time>2026-03-29T10:36:26Z</time></trkpt><trkpt lat="44.57318076491241" lon="12.254311115100233"><ele>-0.6666666666666666</ele><time>2026-03-29T10:36:27Z</time></trkpt><trkpt lat="44.573362203922514" lon="12.25437850735274"><ele>-1.0</ele><time>2026-03-29T10:36:28Z</time></trkpt><trkpt lat="44.57354548387308" lon="12.254436865101265"><ele>-1.0</ele><time>2026-03-29T10:36:29Z</time></trkpt><trkpt lat="44.573733092693374" lon="12.254486783649938"><ele>-1.0</ele><time>2026-03-29T10:36:30Z</time></trkpt><trkpt lat="44.573918289208166" lon="12.254531140529009"><ele>-1.0</ele><time>2026-03-29T10:36:31Z</time></trkpt><trkpt lat="44.5741070745759" lon="12.254576979368348"><ele>-1.0</ele><time>2026-03-29T10:36:32Z</time></trkpt><trkpt lat="44.574295119360976" lon="12.254618739436248"><ele>-1.0</ele><time>2026-03-29T10:36:33Z</time></trkpt><trkpt lat="44.57448222131138" lon="12.254656051298403"><ele>-1.0</ele><time>2026-03-29T10:36:34Z</time></trkpt><trkpt lat="44.57467122545351" lon="12.254687936526365"><ele>-0.6666666666666666</ele><time>2026-03-29T10:36:35Z</time></trkpt><trkpt lat="44.57486226116569" lon="12.254713998539335"><ele>-0.3333333333333333</ele><time>2026-03-29T10:36:36Z</time></trkpt><trkpt lat="44.57505336501263" lon="12.254730090054721"><ele>0.0</ele><time>2026-03-29T10:36:37Z</time></trkpt><trkpt lat="44.57524772935075" lon="12.25473543683039"><ele>-0.3333333333333333</ele><time>2026-03-29T10:36:38Z</time></trkpt><trkpt lat="44.57543838671752" lon="12.254737790784441"><ele>-0.6666666666666666</ele><time>2026-03-29T10:36:39Z</time></trkpt><trkpt lat="44.575632059685745" lon="12.254738276890153"><ele>-1.0</ele><time>2026-03-29T10:36:40Z</time></trkpt><trkpt lat="44.57582522173377" lon="12.254737758718232"><ele>-1.0</ele><time>2026-03-29T10:36:41Z</time></trkpt><trkpt lat="44.57601704227526" lon="12.254733880427608"><ele>-1.0</ele><time>2026-03-29T10:36:42Z</time></trkpt><trkpt lat="44.5762096045919" lon="12.254722700498295"><ele>-1.0</ele><time>2026-03-29T10:36:43Z</time></trkpt><trkpt lat="44.576400093884864" lon="12.254704033661017"><ele>-1.0</ele><time>2026-03-29T10:36:44Z</time></trkpt><trkpt lat="44.57659136577213" lon="12.254679515889205"><ele>-1.0</ele><time>2026-03-29T10:36:45Z</time></trkpt><trkpt lat="44.576782710575884" lon="12.254656268611654"><ele>-1.0</ele><time>2026-03-29T10:36:46Z</time></trkpt><trkpt lat="44.57697132565805" lon="12.254633723480593"><ele>-0.6666666666666666</ele><time>2026-03-29T10:36:47Z</time></trkpt><trkpt lat="44.57716310921246" lon="12.25461038147159"><ele>-0.3333333333333333</ele><time>2026-03-29T10:36:48Z</time></trkpt><trkpt lat="44.57735194472642" lon="12.254589329803352"><ele>0.0</ele><time>2026-03-29T10:36:49Z</time></trkpt><trkpt lat="44.577542888067896" lon="12.254570256365117"><ele>0.0</ele><time>2026-03-29T10:36:50Z</time></trkpt><trkpt lat="44.57773390006821" lon="12.254555291167721"><ele>0.0</ele><time>2026-03-29T10:36:51Z</time></trkpt><trkpt lat="44.57792688405259" lon="12.25453752311664"><ele>0.0</ele><time>2026-03-29T10:36:52Z</time></trkpt><trkpt lat="44.578117820840795" lon="12.254516931014242"><ele>0.3333333333333333</ele><time>2026-03-29T10:36:53Z</time></trkpt><trkpt lat="44.57830736477749" lon="12.25449648297148"><ele>0.6666666666666666</ele><time>2026-03-29T10:36:54Z</time></trkpt><trkpt lat="44.57849959463616" lon="12.254474721144478"><ele>1.0</ele><time>2026-03-29T10:36:55Z</time></trkpt><trkpt lat="44.5786900561227" lon="12.254453211811024"><ele>1.0</ele><time>2026-03-29T10:36:56Z</time></trkpt><trkpt lat="44.578882090597496" lon="12.25443152733776"><ele>1.0</ele><time>2026-03-29T10:36:57Z</time></trkpt><trkpt lat="44.57907794032973" lon="12.254411476310086"><ele>1.0</ele><time>2026-03-29T10:36:58Z</time></trkpt><trkpt lat="44.57927015337402" lon="12.254393186067828"><ele>1.0</ele><time>2026-03-29T10:36:59Z</time></trkpt><trkpt lat="44.579463925966486" lon="12.254372932923056"><ele>1.0</ele><time>2026-03-29T10:37:00Z</time></trkpt><trkpt lat="44.579657903497264" lon="12.254354294304013"><ele>1.0</ele><time>2026-03-29T10:37:01Z</time></trkpt><trkpt lat="44.579849295060036" lon="12.254334384996156"><ele>0.6666666666666666</ele><time>2026-03-29T10:37:02Z</time></trkpt><trkpt lat="44.58004214599389" lon="12.254313875904865"><ele>0.3333333333333333</ele><time>2026-03-29T10:37:03Z</time></trkpt><trkpt lat="44.580232497213416" lon="12.254294745454793"><ele>0.0</ele><time>2026-03-29T10:37:04Z</time></trkpt><trkpt lat="44.580425265424054" lon="12.254277587003392"><ele>0.0</ele><time>2026-03-29T10:37:05Z</time></trkpt><trkpt lat="44.580626977455154" lon="12.254250810763137"><ele>0.0</ele><time>2026-03-29T10:37:06Z</time></trkpt><trkpt lat="44.58082582470575" lon="12.25422548079307"><ele>0.0</ele><time>2026-03-29T10:37:07Z</time></trkpt><trkpt lat="44.58101580398609" lon="12.254208798792439"><ele>0.3333333333333333</ele><time>2026-03-29T10:37:08Z</time></trkpt><trkpt lat="44.581204438667086" lon="12.254190689342504"><ele>0.6666666666666666</ele><time>2026-03-29T10:37:09Z</time></trkpt><trkpt lat="44.581383837967195" lon="12.254171512691862"><ele>1.0</ele><time>2026-03-29T10:37:10Z</time></trkpt><trkpt lat="44.581559828296456" lon="12.254150398426601"><ele>1.0</ele><time>2026-03-29T10:37:11Z</time></trkpt><trkpt lat="44.58173998622933" lon="12.254134487284114"><ele>1.0</ele><time>2026-03-29T10:37:12Z</time></trkpt><trkpt lat="44.581913650863" lon="12.254118659861172"><ele>1.0</ele><time>2026-03-29T10:37:13Z</time></trkpt><trkpt lat="44.58209096962734" lon="12.254097758164017"><ele>0.6666666666666666</ele><time>2026-03-29T10:37:14Z</time></trkpt><trkpt lat="44.5822662330279" lon="12.254075834493548"><ele>0.3333333333333333</ele><time>2026-03-29T10:37:15Z</time></trkpt><trkpt lat="44.58243552459612" lon="12.254056101884256"><ele>0.0</ele><time>2026-03-29T10:37:16Z</time></trkpt><trkpt lat="44.582603082974714" lon="12.254034134305886"><ele>0.0</ele><time>2026-03-29T10:37:17Z</time></trkpt><trkpt lat="44.58276209969994" lon="12.254015880506508"><ele>0.0</ele><time>2026-03-29T10:37:18Z</time></trkpt><trkpt lat="44.58292044958736" lon="12.25399862306484"><ele>0.0</ele><time>2026-03-29T10:37:19Z</time></trkpt><trkpt lat="44.583074407691306" lon="12.253976252002275"><ele>0.0</ele><time>2026-03-29T10:37:20Z</time></trkpt><trkpt lat="44.5832112754575" lon="12.253953068431278"><ele>0.0</ele><time>2026-03-29T10:37:21Z</time></trkpt><trkpt lat="44.58334347295257" lon="12.253930624639931"><ele>0.0</ele><time>2026-03-29T10:37:22Z</time></trkpt><trkpt lat="44.583476914757476" lon="12.253907700233233"><ele>0.0</ele><time>2026-03-29T10:37:23Z</time></trkpt><trkpt lat="44.58361451047859" lon="12.253879923579207"><ele>-0.25</ele><time>2026-03-29T10:37:24Z</time></trkpt><trkpt lat="44.58374806367874" lon="12.25384729382746"><ele>-0.5</ele><time>2026-03-29T10:37:25Z</time></trkpt><trkpt lat="44.583881629307406" lon="12.253816646161557"><ele>-0.75</ele><time>2026-03-29T10:37:26Z</time></trkpt><trkpt lat="44.584014166495116" lon="12.253785269384512"><ele>-1.0</ele><time>2026-03-29T10:37:27Z</time></trkpt><trkpt lat="44.58415019197793" lon="12.253748044651335"><ele>-1.0</ele><time>2026-03-29T10:37:28Z</time></trkpt><trkpt lat="44.584293246436616" lon="12.2537059150892"><ele>-1.0</ele><time>2026-03-29T10:37:29Z</time></trkpt><trkpt lat="44.58443776234589" lon="12.25365808163679"><ele>-1.0</ele><time>2026-03-29T10:37:30Z</time></trkpt><trkpt lat="44.58458622198704" lon="12.253603935692118"><ele>-1.0</ele><time>2026-03-29T10:37:31Z</time></trkpt><trkpt lat="44.58473447365155" lon="12.253548861035942"><ele>-1.0</ele><time>2026-03-29T10:37:32Z</time></trkpt><trkpt lat="44.58487696077096" lon="12.253495984800551"><ele>-1.0</ele><time>2026-03-29T10:37:33Z</time></trkpt><trkpt lat="44.585018948531506" lon="12.253442501771648"><ele>-1.0</ele><time>2026-03-29T10:37:34Z</time></trkpt><trkpt lat="44.58516013131505" lon="12.253385986199637"><ele>-1.0</ele><time>2026-03-29T10:37:35Z</time></trkpt><trkpt lat="44.58530387734092" lon="12.25332217258232"><ele>-0.6666666666666666</ele><time>2026-03-29T10:37:36Z</time></trkpt><trkpt lat="44.58545140767709" lon="12.253257188082763"><ele>-0.3333333333333333</ele><time>2026-03-29T10:37:37Z</time></trkpt><trkpt lat="44.58560200852036" lon="12.253193413435216"><ele>0.0</ele><time>2026-03-29T10:37:38Z</time></trkpt><trkpt lat="44.585750196122135" lon="12.25312997407641"><ele>0.0</ele><time>2026-03-29T10:37:39Z</time></trkpt><trkpt lat="44.58590000051137" lon="12.253065306078735"><ele>0.0</ele><time>2026-03-29T10:37:40Z</time></trkpt><trkpt lat="44.58605288028161" lon="12.253000440083378"><ele>0.0</ele><time>2026-03-29T10:37:41Z</time></trkpt><trkpt lat="44.58621225376438" lon="12.252931270194745"><ele>-0.3333333333333333</ele><time>2026-03-29T10:37:42Z</time></trkpt><trkpt lat="44.5863700993509" lon="12.252859845109503"><ele>-0.6666666666666666</ele><time>2026-03-29T10:37:43Z</time></trkpt><trkpt lat="44.58653277801406" lon="12.25278878869631"><ele>-1.0</ele><time>2026-03-29T10:37:44Z</time></trkpt><trkpt lat="44.58670236731225" lon="12.252718833495077"><ele>-1.0</ele><time>2026-03-29T10:37:45Z</time></trkpt><trkpt lat="44.58687089236803" lon="12.252644091241002"><ele>-1.0</ele><time>2026-03-29T10:37:46Z</time></trkpt><trkpt lat="44.58704286255134" lon="12.252565254337597"><ele>-1.0</ele><time>2026-03-29T10:37:47Z</time></trkpt><trkpt lat="44.58721742071449" lon="12.252486206887813"><ele>-0.6666666666666666</ele><time>2026-03-29T10:37:48Z</time></trkpt><trkpt lat="44.5873905061181" lon="12.252410922517504"><ele>-0.3333333333333333</ele><time>2026-03-29T10:37:49Z</time></trkpt><trkpt lat="44.58756754017191" lon="12.252331886677338"><ele>0.0</ele><time>2026-03-29T10:37:50Z</time></trkpt><trkpt lat="44.58774182701254" lon="12.252252224394834"><ele>0.0</ele><time>2026-03-29T10:37:51Z</time></trkpt><trkpt lat="44.587917514513066" lon="12.252173735486485"><ele>0.0</ele><time>2026-03-29T10:37:52Z</time></trkpt><trkpt lat="44.5880935046925" lon="12.25209810219224"><ele>0.0</ele><time>2026-03-29T10:37:53Z</time></trkpt><trkpt lat="44.5882667991241" lon="12.252024336222423"><ele>0.0</ele><time>2026-03-29T10:37:54Z</time></trkpt><trkpt lat="44.58844261479698" lon="12.251945836565982"><ele>0.0</ele><time>2026-03-29T10:37:55Z</time></trkpt><trkpt lat="44.58861984866315" lon="12.25186535368199"><ele>0.0</ele><time>2026-03-29T10:37:56Z</time></trkpt><trkpt lat="44.58879587353418" lon="12.251786535907836"><ele>0.3333333333333333</ele><time>2026-03-29T10:37:57Z</time></trkpt><trkpt lat="44.58896673655731" lon="12.251712126977115"><ele>0.6666666666666666</ele><time>2026-03-29T10:37:58Z</time></trkpt><trkpt lat="44.58914456691631" lon="12.251638536673084"><ele>1.0</ele><time>2026-03-29T10:37:59Z</time></trkpt><trkpt lat="44.58931880740843" lon="12.251560186033887"><ele>1.0</ele><time>2026-03-29T10:38:00Z</time></trkpt><trkpt lat="44.589492032073174" lon="12.25147699001085"><ele>1.0</ele><time>2026-03-29T10:38:01Z</time></trkpt><trkpt lat="44.58967088708118" lon="12.251404897544154"><ele>1.0</ele><time>2026-03-29T10:38:02Z</time></trkpt><trkpt lat="44.58984774447966" lon="12.251326777446838"><ele>2.0</ele><time>2026-03-29T10:38:03Z</time></trkpt><trkpt lat="44.590028756453606" lon="12.251246649046248"><ele>3.0</ele><time>2026-03-29T10:38:04Z</time></trkpt><trkpt lat="44.59020025356813" lon="12.25116510069496"><ele>4.0</ele><time>2026-03-29T10:38:05Z</time></trkpt><trkpt lat="44.59037442090232" lon="12.251083773265794"><ele>4.0</ele><time>2026-03-29T10:38:06Z</time></trkpt><trkpt lat="44.59054752520969" lon="12.251008770074494"><ele>4.0</ele><time>2026-03-29T10:38:07Z</time></trkpt><trkpt lat="44.59071846728764" lon="12.250932732443488"><ele>4.0</ele><time>2026-03-29T10:38:08Z</time></trkpt><trkpt lat="44.59088644462414" lon="12.250857293185048"><ele>4.0</ele><time>2026-03-29T10:38:09Z</time></trkpt><trkpt lat="44.59106026733414" lon="12.250783625090534"><ele>4.0</ele><time>2026-03-29T10:38:10Z</time></trkpt><trkpt lat="44.59123309869157" lon="12.250715240783505"><ele>4.0</ele><time>2026-03-29T10:38:11Z</time></trkpt><trkpt lat="44.59140692446949" lon="12.250645342235682"><ele>4.0</ele><time>2026-03-29T10:38:12Z</time></trkpt><trkpt lat="44.59158115773943" lon="12.25056722755057"><ele>4.0</ele><time>2026-03-29T10:38:13Z</time></trkpt><trkpt lat="44.59175752703207" lon="12.250487865745706"><ele>4.0</ele><time>2026-03-29T10:38:14Z</time></trkpt><trkpt lat="44.59211577482327" lon="12.250326883220218"><ele>4.0</ele><time>2026-03-29T10:38:16Z</time></trkpt><trkpt lat="44.592293318082874" lon="12.250240737061109"><ele>4.0</ele><time>2026-03-29T10:38:17Z</time></trkpt><trkpt lat="44.59247566247939" lon="12.2501643502061"><ele>4.0</ele><time>2026-03-29T10:38:18Z</time></trkpt><trkpt lat="44.59265930512243" lon="12.250086826206646"><ele>3.333333333333333</ele><time>2026-03-29T10:38:19Z</time></trkpt><trkpt lat="44.592843852265425" lon="12.250005839059828"><ele>2.6666666666666665</ele><time>2026-03-29T10:38:20Z</time></trkpt><trkpt lat="44.59302567185226" lon="12.249926595560806"><ele>2.0</ele><time>2026-03-29T10:38:21Z</time></trkpt><trkpt lat="44.59321082290193" lon="12.249841929575494"><ele>2.333333333333333</ele><time>2026-03-29T10:38:22Z</time></trkpt><trkpt lat="44.593400611977565" lon="12.249758015899125"><ele>2.6666666666666665</ele><time>2026-03-29T10:38:23Z</time></trkpt><trkpt lat="44.593590544859275" lon="12.249674472090277"><ele>3.0</ele><time>2026-03-29T10:38:24Z</time></trkpt><trkpt lat="44.59378092834568" lon="12.249594762480978"><ele>3.666666666666667</ele><time>2026-03-29T10:38:25Z</time></trkpt><trkpt lat="44.59396454853484" lon="12.249513434546683"><ele>4.333333333333334</ele><time>2026-03-29T10:38:26Z</time></trkpt><trkpt lat="44.59415774138973" lon="12.249427972575871"><ele>5.0</ele><time>2026-03-29T10:38:27Z</time></trkpt><trkpt lat="44.59435087032377" lon="12.249342868356806"><ele>5.0</ele><time>2026-03-29T10:38:28Z</time></trkpt><trkpt lat="44.59454703073664" lon="12.249255955514817"><ele>5.0</ele><time>2026-03-29T10:38:29Z</time></trkpt><trkpt lat="44.59473397402201" lon="12.249169509216504"><ele>5.0</ele><time>2026-03-29T10:38:30Z</time></trkpt><trkpt lat="44.59492098920388" lon="12.249084671844031"><ele>5.0</ele><time>2026-03-29T10:38:31Z</time></trkpt><trkpt lat="44.595109581987145" lon="12.249004319504808"><ele>5.0</ele><time>2026-03-29T10:38:32Z</time></trkpt><trkpt lat="44.59529724309584" lon="12.248918512155013"><ele>5.0</ele><time>2026-03-29T10:38:33Z</time></trkpt><trkpt lat="44.59547976012412" lon="12.248836040118249"><ele>5.666666666666667</ele><time>2026-03-29T10:38:34Z</time></trkpt><trkpt lat="44.595670755000114" lon="12.248750861215939"><ele>6.333333333333334</ele><time>2026-03-29T10:38:35Z</time></trkpt><trkpt lat="44.59586012969413" lon="12.248667863480636"><ele>7.0</ele><time>2026-03-29T10:38:36Z</time></trkpt><trkpt lat="44.59604834582571" lon="12.248583820377617"><ele>6.333333333333334</ele><time>2026-03-29T10:38:37Z</time></trkpt><trkpt lat="44.59623817996415" lon="12.248498191560317"><ele>5.666666666666667</ele><time>2026-03-29T10:38:38Z</time></trkpt><trkpt lat="44.59642931126787" lon="12.248414358063188"><ele>5.0</ele><time>2026-03-29T10:38:39Z</time></trkpt><trkpt lat="44.59662292419617" lon="12.248327726116942"><ele>5.0</ele><time>2026-03-29T10:38:40Z</time></trkpt><trkpt lat="44.596817014118166" lon="12.248238263962557"><ele>5.0</ele><time>2026-03-29T10:38:41Z</time></trkpt><trkpt lat="44.59701123010152" lon="12.248147360725234"><ele>5.0</ele><time>2026-03-29T10:38:42Z</time></trkpt><trkpt lat="44.597204333411526" lon="12.248062161625363"><ele>5.333333333333334</ele><time>2026-03-29T10:38:43Z</time></trkpt><trkpt lat="44.597399464702214" lon="12.247985157311549"><ele>5.666666666666667</ele><time>2026-03-29T10:38:44Z</time></trkpt><trkpt lat="44.597589521709935" lon="12.247900418912394"><ele>6.0</ele><time>2026-03-29T10:38:45Z</time></trkpt><trkpt lat="44.59777816947599" lon="12.247818190387203"><ele>6.333333333333334</ele><time>2026-03-29T10:38:46Z</time></trkpt><trkpt lat="44.59797311196727" lon="12.24773395398583"><ele>6.666666666666667</ele><time>2026-03-29T10:38:47Z</time></trkpt><trkpt lat="44.598164221759404" lon="12.247649788170316"><ele>7.0</ele><time>2026-03-29T10:38:48Z</time></trkpt><trkpt lat="44.59835506098654" lon="12.247565474210417"><ele>7.0</ele><time>2026-03-29T10:38:49Z</time></trkpt><trkpt lat="44.598543932392275" lon="12.247480227767184"><ele>7.0</ele><time>2026-03-29T10:38:50Z</time></trkpt><trkpt lat="44.598736829277854" lon="12.24739455312748"><ele>7.0</ele><time>2026-03-29T10:38:51Z</time></trkpt><trkpt lat="44.59892885580389" lon="12.247308043138132"><ele>7.0</ele><time>2026-03-29T10:38:52Z</time></trkpt><trkpt lat="44.599122103429664" lon="12.247226004067421"><ele>7.0</ele><time>2026-03-29T10:38:53Z</time></trkpt><trkpt lat="44.59931175822914" lon="12.247144849187091"><ele>7.0</ele><time>2026-03-29T10:38:54Z</time></trkpt><trkpt lat="44.59950219839421" lon="12.247058948948432"><ele>6.333333333333334</ele><time>2026-03-29T10:38:55Z</time></trkpt><trkpt lat="44.599695049691064" lon="12.24697442782772"><ele>5.666666666666667</ele><time>2026-03-29T10:38:56Z</time></trkpt><trkpt lat="44.59989011566062" lon="12.246885436577633"><ele>5.0</ele><time>2026-03-29T10:38:57Z</time></trkpt><trkpt lat="44.60008222355214" lon="12.246800784732319"><ele>5.0</ele><time>2026-03-29T10:38:58Z</time></trkpt><trkpt lat="44.6002748288095" lon="12.246713104529386"><ele>5.0</ele><time>2026-03-29T10:38:59Z</time></trkpt><trkpt lat="44.60046260673568" lon="12.246629022535572"><ele>5.0</ele><time>2026-03-29T10:39:00Z</time></trkpt><trkpt lat="44.60065578660138" lon="12.246545013409749"><ele>5.0</ele><time>2026-03-29T10:39:01Z</time></trkpt><trkpt lat="44.600849364276925" lon="12.246452208159914"><ele>5.0</ele><time>2026-03-29T10:39:02Z</time></trkpt><trkpt lat="44.6010420004686" lon="12.246375708116588"><ele>5.0</ele><time>2026-03-29T10:39:03Z</time></trkpt><trkpt lat="44.60123508694615" lon="12.246289491137373"><ele>5.0</ele><time>2026-03-29T10:39:04Z</time></trkpt><trkpt lat="44.60143152240891" lon="12.246205323879462"><ele>5.0</ele><time>2026-03-29T10:39:05Z</time></trkpt><trkpt lat="44.60162676456093" lon="12.246117729046343"><ele>5.0</ele><time>2026-03-29T10:39:06Z</time></trkpt><trkpt lat="44.601821993568585" lon="12.246028806757947"><ele>5.0</ele><time>2026-03-29T10:39:07Z</time></trkpt><trkpt lat="44.60202031620902" lon="12.245941482236356"><ele>5.0</ele><time>2026-03-29T10:39:08Z</time></trkpt><trkpt lat="44.60222524170993" lon="12.245850834711682"><ele>5.0</ele><time>2026-03-29T10:39:09Z</time></trkpt><trkpt lat="44.60242380266053" lon="12.245761227539269"><ele>5.0</ele><time>2026-03-29T10:39:10Z</time></trkpt><trkpt lat="44.6026288403674" lon="12.245670899808825"><ele>5.0</ele><time>2026-03-29T10:39:11Z</time></trkpt><trkpt lat="44.60283415597416" lon="12.245581941573041"><ele>5.0</ele><time>2026-03-29T10:39:12Z</time></trkpt><trkpt lat="44.60303503175506" lon="12.245489264175806"><ele>4.666666666666667</ele><time>2026-03-29T10:39:13Z</time></trkpt><trkpt lat="44.60323820538849" lon="12.24540225665569"><ele>4.333333333333333</ele><time>2026-03-29T10:39:14Z</time></trkpt><trkpt lat="44.603438543928874" lon="12.245309185518346"><ele>4.0</ele><time>2026-03-29T10:39:15Z</time></trkpt><trkpt lat="44.60363652338051" lon="12.245220555000598"><ele>4.0</ele><time>2026-03-29T10:39:16Z</time></trkpt><trkpt lat="44.6038368118773" lon="12.24513305433667"><ele>4.0</ele><time>2026-03-29T10:39:17Z</time></trkpt><trkpt lat="44.60403305950474" lon="12.245046988585047"><ele>4.0</ele><time>2026-03-29T10:39:18Z</time></trkpt><trkpt lat="44.60422907053618" lon="12.244960610608006"><ele>4.0</ele><time>2026-03-29T10:39:19Z</time></trkpt><trkpt lat="44.604422920798754" lon="12.244874939062548"><ele>4.0</ele><time>2026-03-29T10:39:20Z</time></trkpt><trkpt lat="44.60461285984497" lon="12.244785697706197"><ele>4.0</ele><time>2026-03-29T10:39:21Z</time></trkpt><trkpt lat="44.60480189433827" lon="12.244704483919753"><ele>3.333333333333333</ele><time>2026-03-29T10:39:22Z</time></trkpt><trkpt lat="44.60499179577085" lon="12.244621269156058"><ele>2.6666666666666665</ele><time>2026-03-29T10:39:23Z</time></trkpt><trkpt lat="44.605180577483985" lon="12.244541378380978"><ele>2.0</ele><time>2026-03-29T10:39:24Z</time></trkpt><trkpt lat="44.60537332010097" lon="12.244455027714416"><ele>2.0</ele><time>2026-03-29T10:39:25Z</time></trkpt><trkpt lat="44.6055613697861" lon="12.244368022187428"><ele>2.0</ele><time>2026-03-29T10:39:26Z</time></trkpt><trkpt lat="44.60574706754502" lon="12.244283810678764"><ele>2.0</ele><time>2026-03-29T10:39:27Z</time></trkpt><trkpt lat="44.605939203287576" lon="12.244202379511531"><ele>2.0</ele><time>2026-03-29T10:39:28Z</time></trkpt><trkpt lat="44.606128662440184" lon="12.244118414210485"><ele>2.0</ele><time>2026-03-29T10:39:29Z</time></trkpt><trkpt lat="44.60631551235848" lon="12.244034075004746"><ele>2.0</ele><time>2026-03-29T10:39:30Z</time></trkpt><trkpt lat="44.60650521011451" lon="12.243967071989697"><ele>2.6666666666666665</ele><time>2026-03-29T10:39:31Z</time></trkpt><trkpt lat="44.60669667752639" lon="12.243902582251554"><ele>3.333333333333333</ele><time>2026-03-29T10:39:32Z</time></trkpt><trkpt lat="44.6068895870173" lon="12.243847214559501"><ele>4.0</ele><time>2026-03-29T10:39:33Z</time></trkpt><trkpt lat="44.60707236445711" lon="12.243794626654026"><ele>4.0</ele><time>2026-03-29T10:39:34Z</time></trkpt><trkpt lat="44.60726326549424" lon="12.243744831852768"><ele>4.0</ele><time>2026-03-29T10:39:35Z</time></trkpt><trkpt lat="44.60744719878892" lon="12.243702487604024"><ele>4.0</ele><time>2026-03-29T10:39:36Z</time></trkpt><trkpt lat="44.60763630700693" lon="12.243659675997732"><ele>4.0</ele><time>2026-03-29T10:39:37Z</time></trkpt><trkpt lat="44.607814826711014" lon="12.243639348905921"><ele>4.0</ele><time>2026-03-29T10:39:38Z</time></trkpt><trkpt lat="44.60800776117289" lon="12.243609175162822"><ele>4.0</ele><time>2026-03-29T10:39:39Z</time></trkpt><trkpt lat="44.60819832375543" lon="12.243600212460597"><ele>4.666666666666666</ele><time>2026-03-29T10:39:40Z</time></trkpt><trkpt lat="44.60838739721709" lon="12.243587982680552"><ele>5.333333333333333</ele><time>2026-03-29T10:39:41Z</time></trkpt><trkpt lat="44.60857919253039" lon="12.243580625279726"><ele>6.0</ele><time>2026-03-29T10:39:42Z</time></trkpt><trkpt lat="44.60877314147109" lon="12.243573258306359"><ele>6.0</ele><time>2026-03-29T10:39:43Z</time></trkpt><trkpt lat="44.60896740763017" lon="12.243582258215346"><ele>6.0</ele><time>2026-03-29T10:39:44Z</time></trkpt><trkpt lat="44.60916211139507" lon="12.243586638561217"><ele>6.0</ele><time>2026-03-29T10:39:45Z</time></trkpt><trkpt lat="44.60935530602744" lon="12.243595535884065"><ele>6.333333333333334</ele><time>2026-03-29T10:39:46Z</time></trkpt><trkpt lat="44.60954454474146" lon="12.243613291620463"><ele>6.666666666666667</ele><time>2026-03-29T10:39:47Z</time></trkpt><trkpt lat="44.60971476943464" lon="12.243632600621808"><ele>7.0</ele><time>2026-03-29T10:39:48Z</time></trkpt><trkpt lat="44.6099401095342" lon="12.243683857426232"><ele>7.0</ele><time>2026-03-29T10:39:49Z</time></trkpt><trkpt lat="44.610149038737056" lon="12.243726973582369"><ele>7.0</ele><time>2026-03-29T10:39:50Z</time></trkpt><trkpt lat="44.610366656881055" lon="12.243753509420785"><ele>7.0</ele><time>2026-03-29T10:39:51Z</time></trkpt><trkpt lat="44.6105698908841" lon="12.24378517807764"><ele>7.333333333333334</ele><time>2026-03-29T10:39:52Z</time></trkpt><trkpt lat="44.61077167987163" lon="12.243813801283451"><ele>7.666666666666666</ele><time>2026-03-29T10:39:53Z</time></trkpt><trkpt lat="44.61096640133777" lon="12.24384556626593"><ele>8.0</ele><time>2026-03-29T10:39:54Z</time></trkpt><trkpt lat="44.611161357843095" lon="12.24387394850087"><ele>7.333333333333333</ele><time>2026-03-29T10:39:55Z</time></trkpt><trkpt lat="44.61136004777897" lon="12.243907087627775"><ele>6.666666666666666</ele><time>2026-03-29T10:39:56Z</time></trkpt><trkpt lat="44.61155531991974" lon="12.24393839692692"><ele>6.0</ele><time>2026-03-29T10:39:57Z</time></trkpt><trkpt lat="44.61173885727007" lon="12.243968046418273"><ele>5.666666666666667</ele><time>2026-03-29T10:39:58Z</time></trkpt><trkpt lat="44.61192937467226" lon="12.243984527344324"><ele>5.333333333333334</ele><time>2026-03-29T10:39:59Z</time></trkpt><trkpt lat="44.61212277541459" lon="12.24401524679631"><ele>5.0</ele><time>2026-03-29T10:40:00Z</time></trkpt><trkpt lat="44.61230994325742" lon="12.244054641696753"><ele>4.333333333333334</ele><time>2026-03-29T10:40:01Z</time></trkpt><trkpt lat="44.612499129650125" lon="12.244089349503463"><ele>3.666666666666667</ele><time>2026-03-29T10:40:02Z</time></trkpt><trkpt lat="44.61268944541214" lon="12.244117740799611"><ele>3.0</ele><time>2026-03-29T10:40:03Z</time></trkpt><trkpt lat="44.612883248576495" lon="12.244139375264055"><ele>3.0</ele><time>2026-03-29T10:40:04Z</time></trkpt><trkpt lat="44.6130662269744" lon="12.244183060572512"><ele>3.0</ele><time>2026-03-29T10:40:05Z</time></trkpt><trkpt lat="44.61326630257765" lon="12.244222332926949"><ele>3.0</ele><time>2026-03-29T10:40:06Z</time></trkpt><trkpt lat="44.61346798922526" lon="12.244248017637025"><ele>3.333333333333333</ele><time>2026-03-29T10:40:07Z</time></trkpt><trkpt lat="44.613664011603724" lon="12.244280827120772"><ele>3.6666666666666665</ele><time>2026-03-29T10:40:08Z</time></trkpt><trkpt lat="44.61386383710652" lon="12.24431420412904"><ele>4.0</ele><time>2026-03-29T10:40:09Z</time></trkpt><trkpt lat="44.614062154802426" lon="12.244348291439332"><ele>4.0</ele><time>2026-03-29T10:40:10Z</time></trkpt><trkpt lat="44.61425811206213" lon="12.244378971577422"><ele>4.0</ele><time>2026-03-29T10:40:11Z</time></trkpt><trkpt lat="44.6144547358404" lon="12.24441012672404"><ele>4.0</ele><time>2026-03-29T10:40:12Z</time></trkpt><trkpt lat="44.61465517450108" lon="12.244442189792435"><ele>4.0</ele><time>2026-03-29T10:40:13Z</time></trkpt><trkpt lat="44.6148526492274" lon="12.24447459058092"><ele>4.0</ele><time>2026-03-29T10:40:14Z</time></trkpt><trkpt lat="44.61505261671292" lon="12.24450676254053"><ele>4.0</ele><time>2026-03-29T10:40:15Z</time></trkpt><trkpt lat="44.61525594998833" lon="12.244540291652328"><ele>4.666666666666666</ele><time>2026-03-29T10:40:16Z</time></trkpt><trkpt lat="44.61545385845674" lon="12.244575913861526"><ele>5.333333333333333</ele><time>2026-03-29T10:40:17Z</time></trkpt><trkpt lat="44.61565646953663" lon="12.244610482294535"><ele>6.0</ele><time>2026-03-29T10:40:18Z</time></trkpt><trkpt lat="44.61585538958396" lon="12.244643106175825"><ele>6.0</ele><time>2026-03-29T10:40:19Z</time></trkpt><trkpt lat="44.61605875048451" lon="12.244675462230749"><ele>6.0</ele><time>2026-03-29T10:40:20Z</time></trkpt><trkpt lat="44.61626301460801" lon="12.244705002373529"><ele>6.0</ele><time>2026-03-29T10:40:21Z</time></trkpt><trkpt lat="44.616475261229695" lon="12.244729146025048"><ele>6.0</ele><time>2026-03-29T10:40:22Z</time></trkpt><trkpt lat="44.616673792957634" lon="12.244766576644672"><ele>6.0</ele><time>2026-03-29T10:40:23Z</time></trkpt><trkpt lat="44.61687171777718" lon="12.244804118840785"><ele>6.0</ele><time>2026-03-29T10:40:24Z</time></trkpt><trkpt lat="44.61707593100392" lon="12.244833959133153"><ele>6.666666666666666</ele><time>2026-03-29T10:40:25Z</time></trkpt><trkpt lat="44.61728082072655" lon="12.244867275478875"><ele>7.333333333333333</ele><time>2026-03-29T10:40:26Z</time></trkpt><trkpt lat="44.61748942943516" lon="12.244897197465212"><ele>8.0</ele><time>2026-03-29T10:40:27Z</time></trkpt><trkpt lat="44.61769478867056" lon="12.244929993402527"><ele>8.0</ele><time>2026-03-29T10:40:28Z</time></trkpt><trkpt lat="44.61789520690676" lon="12.244966675240253"><ele>8.0</ele><time>2026-03-29T10:40:29Z</time></trkpt><trkpt lat="44.61810118715222" lon="12.244998648502666"><ele>8.0</ele><time>2026-03-29T10:40:30Z</time></trkpt><trkpt lat="44.61830541854796" lon="12.245029482636461"><ele>8.0</ele><time>2026-03-29T10:40:31Z</time></trkpt><trkpt lat="44.61850710762935" lon="12.24506287920999"><ele>8.0</ele><time>2026-03-29T10:40:32Z</time></trkpt><trkpt lat="44.618712214933765" lon="12.245097704035159"><ele>8.0</ele><time>2026-03-29T10:40:33Z</time></trkpt><trkpt lat="44.61891383230156" lon="12.245128232583177"><ele>8.0</ele><time>2026-03-29T10:40:34Z</time></trkpt><trkpt lat="44.61911831757604" lon="12.245160826188819"><ele>8.0</ele><time>2026-03-29T10:40:35Z</time></trkpt><trkpt lat="44.619322666961615" lon="12.245193510821517"><ele>8.0</ele><time>2026-03-29T10:40:36Z</time></trkpt><trkpt lat="44.619520979076896" lon="12.245224970496311"><ele>7.666666666666666</ele><time>2026-03-29T10:40:37Z</time></trkpt><trkpt lat="44.61972002687593" lon="12.245264304984977"><ele>7.333333333333334</ele><time>2026-03-29T10:40:38Z</time></trkpt><trkpt lat="44.61991496788914" lon="12.245295514156902"><ele>7.0</ele><time>2026-03-29T10:40:39Z</time></trkpt><trkpt lat="44.62011172174839" lon="12.245321505482487"><ele>7.0</ele><time>2026-03-29T10:40:40Z</time></trkpt><trkpt lat="44.62030242408043" lon="12.245351072237732"><ele>7.0</ele><time>2026-03-29T10:40:41Z</time></trkpt><trkpt lat="44.6204930175528" lon="12.245364895254918"><ele>7.0</ele><time>2026-03-29T10:40:42Z</time></trkpt><trkpt lat="44.62068949064908" lon="12.245361745223802"><ele>5.0</ele><time>2026-03-29T10:40:43Z</time></trkpt><trkpt lat="44.62089271552091" lon="12.245324074348046"><ele>3.0</ele><time>2026-03-29T10:40:44Z</time></trkpt><trkpt lat="44.621094202746484" lon="12.245265993352339"><ele>1.0</ele><time>2026-03-29T10:40:45Z</time></trkpt><trkpt lat="44.62129092890341" lon="12.24519424081767"><ele>1.0</ele><time>2026-03-29T10:40:46Z</time></trkpt><trkpt lat="44.6214869342916" lon="12.245109015737654"><ele>1.0</ele><time>2026-03-29T10:40:47Z</time></trkpt><trkpt lat="44.62167904814767" lon="12.245019184789223"><ele>1.0</ele><time>2026-03-29T10:40:48Z</time></trkpt><trkpt lat="44.62186503941575" lon="12.244930541883384"><ele>1.0</ele><time>2026-03-29T10:40:49Z</time></trkpt><trkpt lat="44.62204237409056" lon="12.244846725207802"><ele>1.0</ele><time>2026-03-29T10:40:50Z</time></trkpt><trkpt lat="44.622204205878646" lon="12.244770365446582"><ele>1.0</ele><time>2026-03-29T10:40:51Z</time></trkpt><trkpt lat="44.62235783238532" lon="12.244701398819807"><ele>2.3333333333333335</ele><time>2026-03-29T10:40:52Z</time></trkpt><trkpt lat="44.6225130376131" lon="12.24462657343278"><ele>3.666666666666667</ele><time>2026-03-29T10:40:53Z</time></trkpt><trkpt lat="44.62266548428424" lon="12.244551045396806"><ele>5.0</ele><time>2026-03-29T10:40:54Z</time></trkpt><trkpt lat="44.622823043871364" lon="12.244474359032216"><ele>5.0</ele><time>2026-03-29T10:40:55Z</time></trkpt><trkpt lat="44.622983758312145" lon="12.24439463133151"><ele>5.0</ele><time>2026-03-29T10:40:56Z</time></trkpt><trkpt lat="44.62315074456577" lon="12.24431427288528"><ele>5.0</ele><time>2026-03-29T10:40:57Z</time></trkpt><trkpt lat="44.62332681830739" lon="12.244230455737638"><ele>5.0</ele><time>2026-03-29T10:40:58Z</time></trkpt><trkpt lat="44.62350922386457" lon="12.244147982906762"><ele>5.0</ele><time>2026-03-29T10:40:59Z</time></trkpt><trkpt lat="44.62369740396795" lon="12.24406220302839"><ele>5.0</ele><time>2026-03-29T10:41:00Z</time></trkpt><trkpt lat="44.62388138555233" lon="12.243971160212144"><ele>5.0</ele><time>2026-03-29T10:41:01Z</time></trkpt><trkpt lat="44.624068093931804" lon="12.243877368101012"><ele>5.0</ele><time>2026-03-29T10:41:02Z</time></trkpt><trkpt lat="44.62425784425892" lon="12.243795241246318"><ele>5.0</ele><time>2026-03-29T10:41:03Z</time></trkpt><trkpt lat="44.62444681965253" lon="12.243703632932895"><ele>3.666666666666667</ele><time>2026-03-29T10:41:04Z</time></trkpt><trkpt lat="44.62463495647163" lon="12.243613267229144"><ele>2.3333333333333335</ele><time>2026-03-29T10:41:05Z</time></trkpt><trkpt lat="44.62482301161378" lon="12.24352325490151"><ele>1.0</ele><time>2026-03-29T10:41:06Z</time></trkpt><trkpt lat="44.62500988225755" lon="12.243439626638335"><ele>1.0</ele><time>2026-03-29T10:41:07Z</time></trkpt><trkpt lat="44.62519734946789" lon="12.243351095933324"><ele>1.0</ele><time>2026-03-29T10:41:08Z</time></trkpt><trkpt lat="44.62537520542087" lon="12.243264532141371"><ele>1.0</ele><time>2026-03-29T10:41:09Z</time></trkpt><trkpt lat="44.62553527616542" lon="12.243187350454797"><ele>1.3333333333333333</ele><time>2026-03-29T10:41:10Z</time></trkpt><trkpt lat="44.625691029545905" lon="12.243118052082096"><ele>1.6666666666666665</ele><time>2026-03-29T10:41:11Z</time></trkpt><trkpt lat="44.625838503710376" lon="12.243050177021464"><ele>2.0</ele><time>2026-03-29T10:41:12Z</time></trkpt><trkpt lat="44.625990114672135" lon="12.242977783830332"><ele>2.0</ele><time>2026-03-29T10:41:13Z</time></trkpt><trkpt lat="44.62613886805683" lon="12.242903092165209"><ele>2.0</ele><time>2026-03-29T10:41:14Z</time></trkpt><trkpt lat="44.62628813255474" lon="12.24283269004453"><ele>2.0</ele><time>2026-03-29T10:41:15Z</time></trkpt><trkpt lat="44.626439539052406" lon="12.242766454293218"><ele>2.0</ele><time>2026-03-29T10:41:16Z</time></trkpt><trkpt lat="44.6265875559774" lon="12.242694118110064"><ele>2.0</ele><time>2026-03-29T10:41:17Z</time></trkpt><trkpt lat="44.62673474940127" lon="12.242621005392278"><ele>2.0</ele><time>2026-03-29T10:41:18Z</time></trkpt><trkpt lat="44.62688251758195" lon="12.24255186346596"><ele>1.6666666666666665</ele><time>2026-03-29T10:41:19Z</time></trkpt><trkpt lat="44.62703303960501" lon="12.242482629973676"><ele>1.3333333333333333</ele><time>2026-03-29T10:41:20Z</time></trkpt><trkpt lat="44.62718161051928" lon="12.242413836773233"><ele>1.0</ele><time>2026-03-29T10:41:21Z</time></trkpt><trkpt lat="44.62732880158512" lon="12.242340742088876"><ele>1.3333333333333333</ele><time>2026-03-29T10:41:22Z</time></trkpt><trkpt lat="44.62747310132468" lon="12.24227242375445"><ele>1.6666666666666665</ele><time>2026-03-29T10:41:23Z</time></trkpt><trkpt lat="44.62762125933089" lon="12.242201431348693"><ele>2.0</ele><time>2026-03-29T10:41:24Z</time></trkpt><trkpt lat="44.62776865116655" lon="12.242135117240581"><ele>1.6666666666666665</ele><time>2026-03-29T10:41:25Z</time></trkpt><trkpt lat="44.62791897753814" lon="12.242063964922954"><ele>1.3333333333333333</ele><time>2026-03-29T10:41:26Z</time></trkpt><trkpt lat="44.62806799735175" lon="12.241995014373328"><ele>1.0</ele><time>2026-03-29T10:41:27Z</time></trkpt><trkpt lat="44.62822007502887" lon="12.241925126374777"><ele>1.0</ele><time>2026-03-29T10:41:28Z</time></trkpt><trkpt lat="44.628369630498014" lon="12.241855956546953"><ele>1.0</ele><time>2026-03-29T10:41:29Z</time></trkpt><trkpt lat="44.628521967846744" lon="12.24178635005838"><ele>1.0</ele><time>2026-03-29T10:41:30Z</time></trkpt><trkpt lat="44.62867341372357" lon="12.241715954300972"><ele>1.3333333333333333</ele><time>2026-03-29T10:41:31Z</time></trkpt><trkpt lat="44.6288281143192" lon="12.241643190660039"><ele>1.6666666666666665</ele><time>2026-03-29T10:41:32Z</time></trkpt><trkpt lat="44.62898098554702" lon="12.241579471493745"><ele>2.0</ele><time>2026-03-29T10:41:33Z</time></trkpt><trkpt lat="44.629141662719235" lon="12.241507316454296"><ele>1.6666666666666665</ele><time>2026-03-29T10:41:34Z</time></trkpt><trkpt lat="44.62930531721141" lon="12.241430055418741"><ele>1.3333333333333333</ele><time>2026-03-29T10:41:35Z</time></trkpt><trkpt lat="44.629474502636086" lon="12.241348599383713"><ele>1.0</ele><time>2026-03-29T10:41:36Z</time></trkpt><trkpt lat="44.62964592536005" lon="12.241264875605301"><ele>1.0</ele><time>2026-03-29T10:41:37Z</time></trkpt><trkpt lat="44.62982084451187" lon="12.241191858738276"><ele>1.0</ele><time>2026-03-29T10:41:38Z</time></trkpt><trkpt lat="44.63000209602957" lon="12.241110634543878"><ele>1.0</ele><time>2026-03-29T10:41:39Z</time></trkpt><trkpt lat="44.630187931587656" lon="12.241026416118018"><ele>1.0</ele><time>2026-03-29T10:41:40Z</time></trkpt><trkpt lat="44.63037243205552" lon="12.240940937892631"><ele>1.0</ele><time>2026-03-29T10:41:41Z</time></trkpt><trkpt lat="44.630552042958335" lon="12.240851141154765"><ele>1.0</ele><time>2026-03-29T10:41:42Z</time></trkpt><trkpt lat="44.63073509364956" lon="12.240769843722482"><ele>1.0</ele><time>2026-03-29T10:41:43Z</time></trkpt><trkpt lat="44.63091972872247" lon="12.240687457629628"><ele>1.0</ele><time>2026-03-29T10:41:44Z</time></trkpt><trkpt lat="44.63110023806703" lon="12.240602286763114"><ele>1.0</ele><time>2026-03-29T10:41:45Z</time></trkpt><trkpt lat="44.631282032468974" lon="12.240515765949695"><ele>1.0</ele><time>2026-03-29T10:41:46Z</time></trkpt><trkpt lat="44.63146537804471" lon="12.240434328920529"><ele>1.0</ele><time>2026-03-29T10:41:47Z</time></trkpt><trkpt lat="44.631651434164795" lon="12.2403479860145"><ele>1.0</ele><time>2026-03-29T10:41:48Z</time></trkpt><trkpt lat="44.63184464665173" lon="12.240260625214566"><ele>1.0</ele><time>2026-03-29T10:41:49Z</time></trkpt><trkpt lat="44.632036570529635" lon="12.24017252382942"><ele>1.0</ele><time>2026-03-29T10:41:50Z</time></trkpt><trkpt lat="44.632224899754874" lon="12.240087597158842"><ele>1.0</ele><time>2026-03-29T10:41:51Z</time></trkpt><trkpt lat="44.63242098704271" lon="12.240004044690352"><ele>1.0</ele><time>2026-03-29T10:41:52Z</time></trkpt><trkpt lat="44.63261581711261" lon="12.239927735618132"><ele>1.0</ele><time>2026-03-29T10:41:53Z</time></trkpt><trkpt lat="44.63281026103371" lon="12.23986027933398"><ele>1.0</ele><time>2026-03-29T10:41:54Z</time></trkpt><trkpt lat="44.633006007153185" lon="12.239804114983748"><ele>1.3333333333333333</ele><time>2026-03-29T10:41:55Z</time></trkpt><trkpt lat="44.63320518641696" lon="12.239760354219712"><ele>1.6666666666666665</ele><time>2026-03-29T10:41:56Z</time></trkpt><trkpt lat="44.63339900274816" lon="12.239721426097844"><ele>2.0</ele><time>2026-03-29T10:41:57Z</time></trkpt><trkpt lat="44.63358794859798" lon="12.23968107992646"><ele>2.333333333333333</ele><time>2026-03-29T10:41:58Z</time></trkpt><trkpt lat="44.63377376999534" lon="12.239642219744818"><ele>2.6666666666666665</ele><time>2026-03-29T10:41:59Z</time></trkpt><trkpt lat="44.633966676843706" lon="12.23959741367845"><ele>3.0</ele><time>2026-03-29T10:42:00Z</time></trkpt><trkpt lat="44.634160758304894" lon="12.239546607969066"><ele>3.0</ele><time>2026-03-29T10:42:01Z</time></trkpt><trkpt lat="44.63435846377858" lon="12.239493186494276"><ele>3.0</ele><time>2026-03-29T10:42:02Z</time></trkpt><trkpt lat="44.63454537107512" lon="12.239449035644673"><ele>3.0</ele><time>2026-03-29T10:42:03Z</time></trkpt><trkpt lat="44.63473887074747" lon="12.239393093564479"><ele>3.0</ele><time>2026-03-29T10:42:04Z</time></trkpt><trkpt lat="44.63493114850967" lon="12.239321022610241"><ele>3.0</ele><time>2026-03-29T10:42:05Z</time></trkpt><trkpt lat="44.635128931495764" lon="12.239243592261248"><ele>3.0</ele><time>2026-03-29T10:42:06Z</time></trkpt><trkpt lat="44.635323146745286" lon="12.239163466598901"><ele>3.0</ele><time>2026-03-29T10:42:07Z</time></trkpt><trkpt lat="44.63551485577045" lon="12.239088031436689"><ele>3.0</ele><time>2026-03-29T10:42:08Z</time></trkpt><trkpt lat="44.63570772638651" lon="12.239010733159688"><ele>3.0</ele><time>2026-03-29T10:42:09Z</time></trkpt><trkpt lat="44.63589438902699" lon="12.238936038507097"><ele>3.666666666666667</ele><time>2026-03-29T10:42:10Z</time></trkpt><trkpt lat="44.636079362830756" lon="12.23886387621244"><ele>4.333333333333334</ele><time>2026-03-29T10:42:11Z</time></trkpt><trkpt lat="44.63626017466429" lon="12.238790619826956"><ele>5.0</ele><time>2026-03-29T10:42:12Z</time></trkpt><trkpt lat="44.636445808212116" lon="12.238713212801807"><ele>5.0</ele><time>2026-03-29T10:42:13Z</time></trkpt><trkpt lat="44.63663298231997" lon="12.23863531714854"><ele>5.0</ele><time>2026-03-29T10:42:14Z</time></trkpt><trkpt lat="44.636816087910674" lon="12.238562923719304"><ele>5.0</ele><time>2026-03-29T10:42:15Z</time></trkpt><trkpt lat="44.636997355297524" lon="12.238491179558594"><ele>4.333333333333334</ele><time>2026-03-29T10:42:16Z</time></trkpt><trkpt lat="44.63717629841269" lon="12.238416668999848"><ele>3.666666666666667</ele><time>2026-03-29T10:42:17Z</time></trkpt><trkpt lat="44.63735651120148" lon="12.238338997612441"><ele>3.0</ele><time>2026-03-29T10:42:18Z</time></trkpt><trkpt lat="44.63754008123021" lon="12.238266973182848"><ele>3.0</ele><time>2026-03-29T10:42:19Z</time></trkpt><trkpt lat="44.63771606726297" lon="12.238197581116584"><ele>3.0</ele><time>2026-03-29T10:42:20Z</time></trkpt><trkpt lat="44.63787577000369" lon="12.238138878164897"><ele>3.0</ele><time>2026-03-29T10:42:21Z</time></trkpt><trkpt lat="44.63802147956831" lon="12.238084189242878"><ele>3.5</ele><time>2026-03-29T10:42:22Z</time></trkpt><trkpt lat="44.63816073833085" lon="12.238034642505738"><ele>4.0</ele><time>2026-03-29T10:42:23Z</time></trkpt><trkpt lat="44.63829585161506" lon="12.237990673365081"><ele>4.5</ele><time>2026-03-29T10:42:24Z</time></trkpt><trkpt lat="44.638426325980255" lon="12.23794937815632"><ele>5.0</ele><time>2026-03-29T10:42:25Z</time></trkpt><trkpt lat="44.63855147089691" lon="12.237912780057401"><ele>4.6</ele><time>2026-03-29T10:42:26Z</time></trkpt><trkpt lat="44.63867421476503" lon="12.237875889132697"><ele>4.2</ele><time>2026-03-29T10:42:27Z</time></trkpt><trkpt lat="44.638789829119375" lon="12.237846082367737"><ele>3.8</ele><time>2026-03-29T10:42:28Z</time></trkpt><trkpt lat="44.638892634487284" lon="12.237822701138093"><ele>3.4</ele><time>2026-03-29T10:42:29Z</time></trkpt><trkpt lat="44.63899081033216" lon="12.237796026805066"><ele>3.0</ele><time>2026-03-29T10:42:30Z</time></trkpt><trkpt lat="44.63908261243629" lon="12.237764236625326"><ele>3.0</ele><time>2026-03-29T10:42:31Z</time></trkpt><trkpt lat="44.639179753579405" lon="12.237727189398258"><ele>3.0</ele><time>2026-03-29T10:42:32Z</time></trkpt><trkpt lat="44.63927626916222" lon="12.237693296342094"><ele>3.0</ele><time>2026-03-29T10:42:33Z</time></trkpt><trkpt lat="44.63936391352222" lon="12.23766282241318"><ele>3.0</ele><time>2026-03-29T10:42:34Z</time></trkpt><trkpt lat="44.63944568237849" lon="12.237637698564654"><ele>3.0</ele><time>2026-03-29T10:42:35Z</time></trkpt><trkpt lat="44.6395356886609" lon="12.23760612228164"><ele>2.8333333333333335</ele><time>2026-03-29T10:42:36Z</time></trkpt><trkpt lat="44.63962178068771" lon="12.237570012147696"><ele>2.6666666666666665</ele><time>2026-03-29T10:42:37Z</time></trkpt><trkpt lat="44.63969792637352" lon="12.23753438906042"><ele>2.5</ele><time>2026-03-29T10:42:38Z</time></trkpt><trkpt lat="44.63976741546199" lon="12.237507546627903"><ele>2.333333333333333</ele><time>2026-03-29T10:42:39Z</time></trkpt><trkpt lat="44.63983225488295" lon="12.23748291952642"><ele>2.1666666666666665</ele><time>2026-03-29T10:42:40Z</time></trkpt><trkpt lat="44.639905380382345" lon="12.237471823825128"><ele>2.0</ele><time>2026-03-29T10:42:41Z</time></trkpt><trkpt lat="44.63998121476715" lon="12.23749044545229"><ele>1.9999999999999998</ele><time>2026-03-29T10:42:42Z</time></trkpt><trkpt lat="44.640046928279546" lon="12.2375384835033"><ele>2.0</ele><time>2026-03-29T10:42:43Z</time></trkpt><trkpt lat="44.64010609663929" lon="12.237610272553322"><ele>2.0</ele><time>2026-03-29T10:42:44Z</time></trkpt><trkpt lat="44.6401483730819" lon="12.237704428793117"><ele>2.0</ele><time>2026-03-29T10:42:45Z</time></trkpt><trkpt lat="44.640179452140515" lon="12.237827030503196"><ele>1.9999999999999998</ele><time>2026-03-29T10:42:46Z</time></trkpt><trkpt lat="44.64019714900783" lon="12.237962829107039"><ele>2.0</ele><time>2026-03-29T10:42:47Z</time></trkpt><trkpt lat="44.64021789958255" lon="12.238116421706787"><ele>2.0</ele><time>2026-03-29T10:42:48Z</time></trkpt><trkpt lat="44.64023611179101" lon="12.238255876776835"><ele>2.0</ele><time>2026-03-29T10:42:49Z</time></trkpt><trkpt lat="44.64025317351908" lon="12.238391406213134"><ele>2.0</ele><time>2026-03-29T10:42:50Z</time></trkpt><trkpt lat="44.640270023843804" lon="12.238527071494445"><ele>2.0</ele><time>2026-03-29T10:42:51Z</time></trkpt><trkpt lat="44.64029366765324" lon="12.238681794023528"><ele>2.0</ele><time>2026-03-29T10:42:52Z</time></trkpt><trkpt lat="44.640318786368276" lon="12.238845160862244"><ele>1.75</ele><time>2026-03-29T10:42:53Z</time></trkpt><trkpt lat="44.640350156947356" lon="12.239033246195877"><ele>1.5</ele><time>2026-03-29T10:42:54Z</time></trkpt><trkpt lat="44.64038556138548" lon="12.239214964945438"><ele>1.25</ele><time>2026-03-29T10:42:55Z</time></trkpt><trkpt lat="44.6404140924628" lon="12.239380458961845"><ele>1.0</ele><time>2026-03-29T10:42:56Z</time></trkpt><trkpt lat="44.640436559378436" lon="12.239525846171931"><ele>1.0</ele><time>2026-03-29T10:42:57Z</time></trkpt><trkpt lat="44.64045629546882" lon="12.239672307326682"><ele>1.0</ele><time>2026-03-29T10:42:58Z</time></trkpt><trkpt lat="44.64047788973627" lon="12.239833237273661"><ele>1.0</ele><time>2026-03-29T10:42:59Z</time></trkpt><trkpt lat="44.64050404952029" lon="12.240005310244369"><ele>1.0</ele><time>2026-03-29T10:43:00Z</time></trkpt><trkpt lat="44.64052843479328" lon="12.240191621825733"><ele>0.6666666666666666</ele><time>2026-03-29T10:43:01Z</time></trkpt><trkpt lat="44.64055896566893" lon="12.240407481134802"><ele>0.3333333333333333</ele><time>2026-03-29T10:43:02Z</time></trkpt><trkpt lat="44.6405941320728" lon="12.24064534045343"><ele>0.0</ele><time>2026-03-29T10:43:03Z</time></trkpt><trkpt lat="44.64062132734713" lon="12.240859710369916"><ele>0.0</ele><time>2026-03-29T10:43:04Z</time></trkpt><trkpt lat="44.64065212628549" lon="12.241050069246969"><ele>0.0</ele><time>2026-03-29T10:43:05Z</time></trkpt><trkpt lat="44.64068416980094" lon="12.241239175782036"><ele>0.0</ele><time>2026-03-29T10:43:06Z</time></trkpt><trkpt lat="44.64070719254558" lon="12.241426617116465"><ele>0.0</ele><time>2026-03-29T10:43:07Z</time></trkpt><trkpt lat="44.64073187521489" lon="12.241615816886126"><ele>0.0</ele><time>2026-03-29T10:43:08Z</time></trkpt><trkpt lat="44.64075994568067" lon="12.241810915298576"><ele>0.0</ele><time>2026-03-29T10:43:09Z</time></trkpt><trkpt lat="44.64078721615143" lon="12.242004529558113"><ele>0.0</ele><time>2026-03-29T10:43:10Z</time></trkpt><trkpt lat="44.64081885613184" lon="12.242210666551609"><ele>0.0</ele><time>2026-03-29T10:43:11Z</time></trkpt><trkpt lat="44.640850259232536" lon="12.242407450584386"><ele>0.0</ele><time>2026-03-29T10:43:12Z</time></trkpt><trkpt lat="44.64088213814715" lon="12.242602772268636"><ele>0.0</ele><time>2026-03-29T10:43:13Z</time></trkpt><trkpt lat="44.640904829213795" lon="12.242795912494357"><ele>0.0</ele><time>2026-03-29T10:43:14Z</time></trkpt><trkpt lat="44.640928700788756" lon="12.242972821672293"><ele>0.0</ele><time>2026-03-29T10:43:15Z</time></trkpt><trkpt lat="44.640948519071294" lon="12.243133717497008"><ele>0.2</ele><time>2026-03-29T10:43:16Z</time></trkpt><trkpt lat="44.640968796843296" lon="12.243281800434502"><ele>0.4</ele><time>2026-03-29T10:43:17Z</time></trkpt><trkpt lat="44.640988306950696" lon="12.243430174735481"><ele>0.6000000000000001</ele><time>2026-03-29T10:43:18Z</time></trkpt><trkpt lat="44.641013903774166" lon="12.243586494469644"><ele>0.8</ele><time>2026-03-29T10:43:19Z</time></trkpt><trkpt lat="44.64104067776669" lon="12.243745916187542"><ele>1.0</ele><time>2026-03-29T10:43:20Z</time></trkpt><trkpt lat="44.641064790750676" lon="12.243910298814978"><ele>1.0</ele><time>2026-03-29T10:43:21Z</time></trkpt><trkpt lat="44.64108320651971" lon="12.244075081454433"><ele>1.0</ele><time>2026-03-29T10:43:22Z</time></trkpt><trkpt lat="44.641107232959286" lon="12.24424078598664"><ele>1.0</ele><time>2026-03-29T10:43:23Z</time></trkpt><trkpt lat="44.641127363475874" lon="12.244388813966767"><ele>1.0</ele><time>2026-03-29T10:43:24Z</time></trkpt><trkpt lat="44.641145805470956" lon="12.24452375539726"><ele>1.0</ele><time>2026-03-29T10:43:25Z</time></trkpt><trkpt lat="44.64116333043755" lon="12.24465924128752"><ele>0.8</ele><time>2026-03-29T10:43:26Z</time></trkpt><trkpt lat="44.641185943848306" lon="12.244791959893828"><ele>0.6000000000000001</ele><time>2026-03-29T10:43:27Z</time></trkpt><trkpt lat="44.64120756716974" lon="12.244920457915365"><ele>0.4</ele><time>2026-03-29T10:43:28Z</time></trkpt><trkpt lat="44.6412272977099" lon="12.245052915028745"><ele>0.2</ele><time>2026-03-29T10:43:29Z</time></trkpt><trkpt lat="44.64124849428373" lon="12.245186538547156"><ele>0.0</ele><time>2026-03-29T10:43:30Z</time></trkpt><trkpt lat="44.64126605145183" lon="12.245312300566395"><ele>0.0</ele><time>2026-03-29T10:43:31Z</time></trkpt><trkpt lat="44.641279372970686" lon="12.245423296826427"><ele>0.0</ele><time>2026-03-29T10:43:32Z</time></trkpt><trkpt lat="44.64129021325136" lon="12.245515544441673"><ele>0.0</ele><time>2026-03-29T10:43:33Z</time></trkpt><trkpt lat="44.64128941398791" lon="12.245682273315433"><ele>0.0</ele><time>2026-03-29T10:43:35Z</time></trkpt><trkpt lat="44.64131422807311" lon="12.245771920212384"><ele>0.0</ele><time>2026-03-29T10:43:37Z</time></trkpt><trkpt lat="44.641296244771716" lon="12.24586828773851"><ele>0.0</ele><time>2026-03-29T10:49:32Z</time></trkpt><trkpt lat="44.641348855438764" lon="12.246006401454993"><ele>0.0</ele><time>2026-03-29T10:49:34Z</time></trkpt><trkpt lat="44.641383409582254" lon="12.246092352286963"><ele>0.0</ele><time>2026-03-29T10:49:35Z</time></trkpt><trkpt lat="44.641435249626184" lon="12.246223055592978"><ele>0.0</ele><time>2026-03-29T10:49:36Z</time></trkpt><trkpt lat="44.64148331508298" lon="12.246352631314862"><ele>0.0</ele><time>2026-03-29T10:49:37Z</time></trkpt><trkpt lat="44.641529485800575" lon="12.246481692692319"><ele>0.0</ele><time>2026-03-29T10:49:38Z</time></trkpt><trkpt lat="44.641580435689875" lon="12.246619408584577"><ele>0.4</ele><time>2026-03-29T10:49:39Z</time></trkpt><trkpt lat="44.64163707666286" lon="12.246755115453277"><ele>0.8</ele><time>2026-03-29T10:49:40Z</time></trkpt><trkpt lat="44.641695883138006" lon="12.24687900563734"><ele>1.2000000000000002</ele><time>2026-03-29T10:49:41Z</time></trkpt><trkpt lat="44.64174675958429" lon="12.247001377784136"><ele>1.6</ele><time>2026-03-29T10:49:42Z</time></trkpt><trkpt lat="44.641814267686286" lon="12.247133474879115"><ele>2.0</ele><time>2026-03-29T10:49:43Z</time></trkpt><trkpt lat="44.641882451838626" lon="12.247269368052297"><ele>2.4000000000000004</ele><time>2026-03-29T10:49:44Z</time></trkpt><trkpt lat="44.64194695849279" lon="12.247389252473134"><ele>2.8000000000000003</ele><time>2026-03-29T10:49:45Z</time></trkpt><trkpt lat="44.64201441064678" lon="12.247505032269268"><ele>3.2</ele><time>2026-03-29T10:49:46Z</time></trkpt><trkpt lat="44.64208537668913" lon="12.247628369602182"><ele>3.6</ele><time>2026-03-29T10:49:47Z</time></trkpt><trkpt lat="44.642163594494164" lon="12.247737721463475"><ele>4.0</ele><time>2026-03-29T10:49:48Z</time></trkpt><trkpt lat="44.642240401434734" lon="12.247834662604545"><ele>4.0</ele><time>2026-03-29T10:49:49Z</time></trkpt><trkpt lat="44.64232104598728" lon="12.24792283198296"><ele>4.0</ele><time>2026-03-29T10:49:50Z</time></trkpt><trkpt lat="44.642399656346214" lon="12.248004244705111"><ele>4.0</ele><time>2026-03-29T10:49:51Z</time></trkpt><trkpt lat="44.6424805290966" lon="12.248088770282298"><ele>4.0</ele><time>2026-03-29T10:49:52Z</time></trkpt><trkpt lat="44.64257137249897" lon="12.248158269988071"><ele>4.0</ele><time>2026-03-29T10:49:53Z</time></trkpt><trkpt lat="44.642673021739206" lon="12.248225920496388"><ele>4.2</ele><time>2026-03-29T10:49:54Z</time></trkpt><trkpt lat="44.64278765253279" lon="12.248274079501194"><ele>4.4</ele><time>2026-03-29T10:49:55Z</time></trkpt><trkpt lat="44.64290331065014" lon="12.248308806904324"><ele>4.6</ele><time>2026-03-29T10:49:56Z</time></trkpt><trkpt lat="44.64301122085948" lon="12.248319474861256"><ele>4.8</ele><time>2026-03-29T10:49:57Z</time></trkpt><trkpt lat="44.64310927335678" lon="12.248318479034486"><ele>5.0</ele><time>2026-03-29T10:49:58Z</time></trkpt><trkpt lat="44.643199226014524" lon="12.248309280607842"><ele>5.0</ele><time>2026-03-29T10:49:59Z</time></trkpt><trkpt lat="44.64328891041197" lon="12.24830194403205"><ele>5.0</ele><time>2026-03-29T10:50:00Z</time></trkpt><trkpt lat="44.64336323768391" lon="12.248304616791058"><ele>5.0</ele><time>2026-03-29T10:50:01Z</time></trkpt><trkpt lat="44.643427502268246" lon="12.248314826976717"><ele>5.0</ele><time>2026-03-29T10:50:02Z</time></trkpt><trkpt lat="44.64349204535601" lon="12.248334738800114"><ele>5.0</ele><time>2026-03-29T10:50:03Z</time></trkpt><trkpt lat="44.643596983541975" lon="12.248365011856963"><ele>5.0</ele><time>2026-03-29T10:50:05Z</time></trkpt><trkpt lat="44.643674993303534" lon="12.248358895874023"><ele>5.0</ele><time>2026-03-29T10:50:07Z</time></trkpt><trkpt lat="44.64377642389923" lon="12.24823318521891"><ele>5.0</ele><time>2026-03-29T10:50:09Z</time></trkpt><trkpt lat="44.643813035513155" lon="12.248130001062384"><ele>5.0</ele><time>2026-03-29T10:50:10Z</time></trkpt><trkpt lat="44.64384110624698" lon="12.248021688424695"><ele>5.0</ele><time>2026-03-29T10:50:11Z</time></trkpt><trkpt lat="44.643873161613755" lon="12.247892425692802"><ele>5.0</ele><time>2026-03-29T10:50:12Z</time></trkpt><trkpt lat="44.64390830917722" lon="12.2477562920146"><ele>5.0</ele><time>2026-03-29T10:50:13Z</time></trkpt><trkpt lat="44.64394388818514" lon="12.247643830263788"><ele>5.0</ele><time>2026-03-29T10:50:14Z</time></trkpt><trkpt lat="44.643982560769906" lon="12.247540107483788"><ele>5.0</ele><time>2026-03-29T10:50:15Z</time></trkpt><trkpt lat="44.64402228101448" lon="12.247411888192318"><ele>5.0</ele><time>2026-03-29T10:50:16Z</time></trkpt><trkpt lat="44.644071295050004" lon="12.247277289116733"><ele>5.0</ele><time>2026-03-29T10:50:17Z</time></trkpt><trkpt lat="44.644124423627126" lon="12.247134519375926"><ele>5.0</ele><time>2026-03-29T10:50:18Z</time></trkpt><trkpt lat="44.64418265849647" lon="12.246997329445628"><ele>5.0</ele><time>2026-03-29T10:50:19Z</time></trkpt><trkpt lat="44.6442363526348" lon="12.246851841194117"><ele>5.0</ele><time>2026-03-29T10:50:20Z</time></trkpt><trkpt lat="44.64429186341265" lon="12.24669546806694"><ele>5.0</ele><time>2026-03-29T10:50:21Z</time></trkpt><trkpt lat="44.64435861413428" lon="12.246529284748972"><ele>4.75</ele><time>2026-03-29T10:50:22Z</time></trkpt><trkpt lat="44.6444310323662" lon="12.246370894841661"><ele>4.5</ele><time>2026-03-29T10:50:23Z</time></trkpt><trkpt lat="44.64450261164709" lon="12.246223129407245"><ele>4.25</ele><time>2026-03-29T10:50:24Z</time></trkpt><trkpt lat="44.644569439185375" lon="12.246085780662609"><ele>4.0</ele><time>2026-03-29T10:50:25Z</time></trkpt><trkpt lat="44.64462794747898" lon="12.24595988681659"><ele>4.0</ele><time>2026-03-29T10:50:26Z</time></trkpt><trkpt lat="44.64468276613996" lon="12.245839440922675"><ele>4.0</ele><time>2026-03-29T10:50:27Z</time></trkpt><trkpt lat="44.64474278779619" lon="12.24572673752282"><ele>4.0</ele><time>2026-03-29T10:50:28Z</time></trkpt><trkpt lat="44.64479485148085" lon="12.245624585597623"><ele>4.0</ele><time>2026-03-29T10:50:29Z</time></trkpt><trkpt lat="44.644853448022005" lon="12.245548331299215"><ele>4.0</ele><time>2026-03-29T10:50:30Z</time></trkpt><trkpt lat="44.64490907605236" lon="12.245464488046027"><ele>4.0</ele><time>2026-03-29T10:50:31Z</time></trkpt><trkpt lat="44.644973163106314" lon="12.24536659607497"><ele>4.0</ele><time>2026-03-29T10:50:32Z</time></trkpt><trkpt lat="44.64505408326673" lon="12.245238558130698"><ele>4.0</ele><time>2026-03-29T10:50:33Z</time></trkpt><trkpt lat="44.64514729203906" lon="12.245112012934058"><ele>4.0</ele><time>2026-03-29T10:50:34Z</time></trkpt><trkpt lat="44.64525169021024" lon="12.244982723646512"><ele>4.0</ele><time>2026-03-29T10:50:35Z</time></trkpt><trkpt lat="44.6453619469639" lon="12.244852208785215"><ele>4.0</ele><time>2026-03-29T10:50:36Z</time></trkpt><trkpt lat="44.6454601304695" lon="12.244740285641065"><ele>4.0</ele><time>2026-03-29T10:50:37Z</time></trkpt><trkpt lat="44.64555162740791" lon="12.244649327365432"><ele>4.0</ele><time>2026-03-29T10:50:38Z</time></trkpt><trkpt lat="44.64564967569827" lon="12.244553374153853"><ele>4.0</ele><time>2026-03-29T10:50:39Z</time></trkpt><trkpt lat="44.645747424992486" lon="12.24446368198774"><ele>4.0</ele><time>2026-03-29T10:50:40Z</time></trkpt><trkpt lat="44.64584491738394" lon="12.244381408623907"><ele>4.0</ele><time>2026-03-29T10:50:41Z</time></trkpt><trkpt lat="44.64595069998768" lon="12.244304408885254"><ele>4.0</ele><time>2026-03-29T10:50:42Z</time></trkpt><trkpt lat="44.64605522032903" lon="12.24423149399912"><ele>4.0</ele><time>2026-03-29T10:50:43Z</time></trkpt><trkpt lat="44.64616011068863" lon="12.244158138575859"><ele>4.0</ele><time>2026-03-29T10:50:44Z</time></trkpt><trkpt lat="44.64626212308014" lon="12.244097146150814"><ele>4.0</ele><time>2026-03-29T10:50:45Z</time></trkpt><trkpt lat="44.64637205213071" lon="12.244028908411611"><ele>4.0</ele><time>2026-03-29T10:50:46Z</time></trkpt><trkpt lat="44.64647279822176" lon="12.243953281328519"><ele>4.0</ele><time>2026-03-29T10:50:47Z</time></trkpt><trkpt lat="44.64657339333451" lon="12.243885011726402"><ele>4.0</ele><time>2026-03-29T10:50:48Z</time></trkpt><trkpt lat="44.64668088947731" lon="12.243816599009415"><ele>4.0</ele><time>2026-03-29T10:50:49Z</time></trkpt><trkpt lat="44.64677855374107" lon="12.24375016516795"><ele>4.0</ele><time>2026-03-29T10:50:50Z</time></trkpt><trkpt lat="44.64687611054491" lon="12.243697566535648"><ele>4.0</ele><time>2026-03-29T10:50:51Z</time></trkpt><trkpt lat="44.646968990398335" lon="12.243633553518512"><ele>3.8000000000000003</ele><time>2026-03-29T10:50:52Z</time></trkpt><trkpt lat="44.64706730277937" lon="12.24356263640601"><ele>3.6000000000000005</ele><time>2026-03-29T10:50:53Z</time></trkpt><trkpt lat="44.647169102735965" lon="12.243500721587647"><ele>3.4</ele><time>2026-03-29T10:50:54Z</time></trkpt><trkpt lat="44.64726696229685" lon="12.243431392958135"><ele>3.2</ele><time>2026-03-29T10:50:55Z</time></trkpt><trkpt lat="44.64736754335391" lon="12.24336525603924"><ele>3.0</ele><time>2026-03-29T10:50:56Z</time></trkpt><trkpt lat="44.64746632909043" lon="12.2433024950623"><ele>3.0</ele><time>2026-03-29T10:50:57Z</time></trkpt><trkpt lat="44.647564263412185" lon="12.243241993135111"><ele>3.0</ele><time>2026-03-29T10:50:58Z</time></trkpt><trkpt lat="44.64766370200261" lon="12.2431776801249"><ele>3.0</ele><time>2026-03-29T10:50:59Z</time></trkpt><trkpt lat="44.6477631796974" lon="12.24312109913431"><ele>3.0</ele><time>2026-03-29T10:51:00Z</time></trkpt><trkpt lat="44.64786598643356" lon="12.243062366075236"><ele>3.0</ele><time>2026-03-29T10:51:01Z</time></trkpt><trkpt lat="44.647969117471824" lon="12.243009217312212"><ele>3.25</ele><time>2026-03-29T10:51:02Z</time></trkpt><trkpt lat="44.64807037867612" lon="12.242948167388278"><ele>3.5</ele><time>2026-03-29T10:51:03Z</time></trkpt><trkpt lat="44.64817344476855" lon="12.242877396650384"><ele>3.75</ele><time>2026-03-29T10:51:04Z</time></trkpt><trkpt lat="44.64828510596883" lon="12.242808226761394"><ele>4.0</ele><time>2026-03-29T10:51:05Z</time></trkpt><trkpt lat="44.64839310343441" lon="12.242738764699808"><ele>4.0</ele><time>2026-03-29T10:51:06Z</time></trkpt><trkpt lat="44.64849281621169" lon="12.242672630978387"><ele>4.0</ele><time>2026-03-29T10:51:07Z</time></trkpt><trkpt lat="44.64859259293571" lon="12.24260958580688"><ele>4.0</ele><time>2026-03-29T10:51:08Z</time></trkpt><trkpt lat="44.648694747369746" lon="12.24254720119513"><ele>4.0</ele><time>2026-03-29T10:51:09Z</time></trkpt><trkpt lat="44.648789434248634" lon="12.242498106974095"><ele>4.0</ele><time>2026-03-29T10:51:10Z</time></trkpt><trkpt lat="44.64887173882819" lon="12.24245139242515"><ele>3.5</ele><time>2026-03-29T10:51:11Z</time></trkpt><trkpt lat="44.648954833057445" lon="12.242411452913428"><ele>3.0</ele><time>2026-03-29T10:51:12Z</time></trkpt><trkpt lat="44.64905816686539" lon="12.24235274021127"><ele>2.5</ele><time>2026-03-29T10:51:13Z</time></trkpt><trkpt lat="44.64917155416897" lon="12.242299710573006"><ele>2.0</ele><time>2026-03-29T10:51:14Z</time></trkpt><trkpt lat="44.6493155653424" lon="12.242218278803552"><ele>2.0</ele><time>2026-03-29T10:51:15Z</time></trkpt><trkpt lat="44.649423711306376" lon="12.242155315130587"><ele>2.0</ele><time>2026-03-29T10:51:16Z</time></trkpt><trkpt lat="44.649523881958835" lon="12.24210586597171"><ele>2.0</ele><time>2026-03-29T10:51:17Z</time></trkpt><trkpt lat="44.64962657043505" lon="12.24205599367457"><ele>2.0</ele><time>2026-03-29T10:51:18Z</time></trkpt><trkpt lat="44.649727137580776" lon="12.242002221013244"><ele>2.0</ele><time>2026-03-29T10:51:19Z</time></trkpt><trkpt lat="44.649824887943474" lon="12.24193198677759"><ele>2.0</ele><time>2026-03-29T10:51:20Z</time></trkpt><trkpt lat="44.64993590034727" lon="12.241888067955065"><ele>2.0</ele><time>2026-03-29T10:51:21Z</time></trkpt><trkpt lat="44.65005205548147" lon="12.241842254748732"><ele>2.0</ele><time>2026-03-29T10:51:22Z</time></trkpt><trkpt lat="44.65016432342871" lon="12.241784326127403"><ele>2.0</ele><time>2026-03-29T10:51:23Z</time></trkpt><trkpt lat="44.650279733898415" lon="12.2417287180507"><ele>2.2</ele><time>2026-03-29T10:51:24Z</time></trkpt><trkpt lat="44.65038664331351" lon="12.241681815281986"><ele>2.4000000000000004</ele><time>2026-03-29T10:51:25Z</time></trkpt><trkpt lat="44.65048275323223" lon="12.241631023013152"><ele>2.5999999999999996</ele><time>2026-03-29T10:51:26Z</time></trkpt><trkpt lat="44.650575406275564" lon="12.241593387716902"><ele>2.8</ele><time>2026-03-29T10:51:27Z</time></trkpt><trkpt lat="44.65067985649315" lon="12.241559162864935"><ele>3.0</ele><time>2026-03-29T10:51:28Z</time></trkpt><trkpt lat="44.650785549818266" lon="12.241520243056218"><ele>3.0</ele><time>2026-03-29T10:51:29Z</time></trkpt><trkpt lat="44.65092211688919" lon="12.2414745907792"><ele>3.0</ele><time>2026-03-29T10:51:30Z</time></trkpt><trkpt lat="44.651074933067136" lon="12.241415093453007"><ele>3.0</ele><time>2026-03-29T10:51:31Z</time></trkpt><trkpt lat="44.651203086100196" lon="12.241363600778872"><ele>3.0</ele><time>2026-03-29T10:51:32Z</time></trkpt><trkpt lat="44.6513151359134" lon="12.241327874810166"><ele>2.8</ele><time>2026-03-29T10:51:33Z</time></trkpt><trkpt lat="44.65141697763959" lon="12.241292526667463"><ele>2.5999999999999996</ele><time>2026-03-29T10:51:34Z</time></trkpt><trkpt lat="44.65150938934595" lon="12.241266837700298"><ele>2.4000000000000004</ele><time>2026-03-29T10:51:35Z</time></trkpt><trkpt lat="44.65159246601718" lon="12.241250493740209"><ele>2.2</ele><time>2026-03-29T10:51:36Z</time></trkpt><trkpt lat="44.65166034706175" lon="12.241254064683961"><ele>2.0</ele><time>2026-03-29T10:51:37Z</time></trkpt><trkpt lat="44.651771919229375" lon="12.241354206998858"><ele>2.1666666666666665</ele><time>2026-03-29T10:51:39Z</time></trkpt><trkpt lat="44.65180818130618" lon="12.241466693705824"><ele>2.333333333333333</ele><time>2026-03-29T10:51:41Z</time></trkpt><trkpt lat="44.651803658012255" lon="12.241604820979713"><ele>2.5</ele><time>2026-03-29T10:51:47Z</time></trkpt><trkpt lat="44.65177666912719" lon="12.24168940253555"><ele>2.6666666666666665</ele><time>2026-03-29T10:51:48Z</time></trkpt><trkpt lat="44.65176807155063" lon="12.241787298452095"><ele>2.8333333333333335</ele><time>2026-03-29T10:51:49Z</time></trkpt><trkpt lat="44.651723157493244" lon="12.241946673076148"><ele>3.0</ele><time>2026-03-29T10:51:51Z</time></trkpt><trkpt lat="44.651691075183" lon="12.242062649234086"><ele>3.0</ele><time>2026-03-29T10:51:52Z</time></trkpt><trkpt lat="44.65166989941625" lon="12.242201664945972"><ele>3.0</ele><time>2026-03-29T10:51:53Z</time></trkpt><trkpt lat="44.6516473587216" lon="12.242335226722416"><ele>3.0</ele><time>2026-03-29T10:51:54Z</time></trkpt><trkpt lat="44.65163122518755" lon="12.242466074904883"><ele>3.0</ele><time>2026-03-29T10:51:55Z</time></trkpt><trkpt lat="44.65162208843488" lon="12.242597681401545"><ele>3.0</ele><time>2026-03-29T10:51:56Z</time></trkpt><trkpt lat="44.651617106685826" lon="12.24271556569861"><ele>3.0</ele><time>2026-03-29T10:51:57Z</time></trkpt><trkpt lat="44.651610603729004" lon="12.242809768815073"><ele>3.0</ele><time>2026-03-29T10:51:58Z</time></trkpt><trkpt lat="44.65161007554553" lon="12.2429297176616"><ele>3.0</ele><time>2026-03-29T10:52:00Z</time></trkpt><trkpt lat="44.6515993703558" lon="12.243017978531372"><ele>3.0</ele><time>2026-03-29T10:52:03Z</time></trkpt><trkpt lat="44.651728983590736" lon="12.242979973734393"><ele>3.0</ele><time>2026-03-29T10:52:05Z</time></trkpt><trkpt lat="44.65177305849514" lon="12.242908246962479"><ele>3.0</ele><time>2026-03-29T10:52:06Z</time></trkpt><trkpt lat="44.65187496711688" lon="12.242792849304335"><ele>3.0</ele><time>2026-03-29T10:52:08Z</time></trkpt><trkpt lat="44.651944594829175" lon="12.242721995420737"><ele>3.0</ele><time>2026-03-29T10:52:09Z</time></trkpt><trkpt lat="44.65201716043655" lon="12.242662472246128"><ele>3.0</ele><time>2026-03-29T10:52:10Z</time></trkpt><trkpt lat="44.65209938305356" lon="12.242606603946742"><ele>3.0</ele><time>2026-03-29T10:52:11Z</time></trkpt><trkpt lat="44.65220222360086" lon="12.242551199651842"><ele>3.0</ele><time>2026-03-29T10:52:12Z</time></trkpt><trkpt lat="44.65231992636726" lon="12.242507561845713"><ele>3.0</ele><time>2026-03-29T10:52:13Z</time></trkpt><trkpt lat="44.652428986180034" lon="12.242474961922435"><ele>3.0</ele><time>2026-03-29T10:52:14Z</time></trkpt><trkpt lat="44.652542558139764" lon="12.242448486784145"><ele>3.0</ele><time>2026-03-29T10:52:15Z</time></trkpt><trkpt lat="44.652660910908054" lon="12.242433339536927"><ele>3.0</ele><time>2026-03-29T10:52:16Z</time></trkpt><trkpt lat="44.65279917509084" lon="12.242425659803267"><ele>2.5</ele><time>2026-03-29T10:52:17Z</time></trkpt><trkpt lat="44.65294335391905" lon="12.242428393340628"><ele>2.0</ele><time>2026-03-29T10:52:18Z</time></trkpt><trkpt lat="44.653068318897546" lon="12.242439778268484"><ele>1.5</ele><time>2026-03-29T10:52:19Z</time></trkpt><trkpt lat="44.65317972012727" lon="12.242439376563777"><ele>1.0</ele><time>2026-03-29T10:52:20Z</time></trkpt><trkpt lat="44.65327976709901" lon="12.2424362488039"><ele>1.0</ele><time>2026-03-29T10:52:21Z</time></trkpt><trkpt lat="44.65336958254208" lon="12.242432435208551"><ele>1.0</ele><time>2026-03-29T10:52:22Z</time></trkpt><trkpt lat="44.653469582825814" lon="12.242425421080906"><ele>1.0</ele><time>2026-03-29T10:52:23Z</time></trkpt><trkpt lat="44.653585993690186" lon="12.242421665534149"><ele>1.0</ele><time>2026-03-29T10:52:24Z</time></trkpt><trkpt lat="44.653700890197335" lon="12.242435328127742"><ele>1.0</ele><time>2026-03-29T10:52:25Z</time></trkpt><trkpt lat="44.65381380915342" lon="12.242440827221593"><ele>1.2000000000000002</ele><time>2026-03-29T10:52:26Z</time></trkpt><trkpt lat="44.653922336323134" lon="12.242444446650497"><ele>1.4000000000000001</ele><time>2026-03-29T10:52:27Z</time></trkpt><trkpt lat="44.65402023698014" lon="12.242441134404837"><ele>1.6</ele><time>2026-03-29T10:52:28Z</time></trkpt><trkpt lat="44.65412675642042" lon="12.242443062215603"><ele>1.8</ele><time>2026-03-29T10:52:29Z</time></trkpt><trkpt lat="44.654230284221626" lon="12.242444958458384"><ele>2.0</ele><time>2026-03-29T10:52:30Z</time></trkpt><trkpt lat="44.65433086329066" lon="12.242445356375153"><ele>2.0</ele><time>2026-03-29T10:52:31Z</time></trkpt><trkpt lat="44.65444394610148" lon="12.242463180076378"><ele>2.0</ele><time>2026-03-29T10:52:32Z</time></trkpt><trkpt lat="44.65455575462084" lon="12.24246902267001"><ele>2.0</ele><time>2026-03-29T10:52:33Z</time></trkpt><trkpt lat="44.6546605361068" lon="12.242462106212976"><ele>2.0</ele><time>2026-03-29T10:52:34Z</time></trkpt><trkpt lat="44.65476109269893" lon="12.242455377432451"><ele>2.0</ele><time>2026-03-29T10:52:35Z</time></trkpt><trkpt lat="44.65484628681825" lon="12.242459209072262"><ele>2.2</ele><time>2026-03-29T10:52:36Z</time></trkpt><trkpt lat="44.65493241392173" lon="12.242452434825688"><ele>2.4000000000000004</ele><time>2026-03-29T10:52:37Z</time></trkpt><trkpt lat="44.65502824328193" lon="12.242445940805283"><ele>2.5999999999999996</ele><time>2026-03-29T10:52:38Z</time></trkpt><trkpt lat="44.65512948377788" lon="12.242439870828854"><ele>2.8</ele><time>2026-03-29T10:52:39Z</time></trkpt><trkpt lat="44.65522460179008" lon="12.242438617749864"><ele>3.0</ele><time>2026-03-29T10:52:40Z</time></trkpt><trkpt lat="44.655325899831574" lon="12.242446355146063"><ele>3.0</ele><time>2026-03-29T10:52:41Z</time></trkpt><trkpt lat="44.65542054372771" lon="12.242444531952719"><ele>3.0</ele><time>2026-03-29T10:52:42Z</time></trkpt><trkpt lat="44.65551560369718" lon="12.2424468026852"><ele>3.0</ele><time>2026-03-29T10:52:43Z</time></trkpt><trkpt lat="44.655606739288345" lon="12.242448940086268"><ele>3.0</ele><time>2026-03-29T10:52:44Z</time></trkpt><trkpt lat="44.65569991316514" lon="12.242455827243914"><ele>3.0</ele><time>2026-03-29T10:52:45Z</time></trkpt><trkpt lat="44.655804388847976" lon="12.242449818746662"><ele>3.0</ele><time>2026-03-29T10:52:46Z</time></trkpt><trkpt lat="44.65590671444364" lon="12.242447352333755"><ele>3.0</ele><time>2026-03-29T10:52:47Z</time></trkpt><trkpt lat="44.656014004626655" lon="12.242450061035774"><ele>3.0</ele><time>2026-03-29T10:52:48Z</time></trkpt><trkpt lat="44.65612096972186" lon="12.24245654115688"><ele>3.0</ele><time>2026-03-29T10:52:49Z</time></trkpt><trkpt lat="44.65622344001736" lon="12.242483634199312"><ele>3.0</ele><time>2026-03-29T10:52:50Z</time></trkpt><trkpt lat="44.656334835537045" lon="12.242517288778767"><ele>3.0</ele><time>2026-03-29T10:52:51Z</time></trkpt><trkpt lat="44.656413317025944" lon="12.24256053898118"><ele>3.0</ele><time>2026-03-29T10:52:52Z</time></trkpt><trkpt lat="44.65648916919919" lon="12.242603713438852"><ele>3.0</ele><time>2026-03-29T10:52:53Z</time></trkpt><trkpt lat="44.65657334168438" lon="12.242658217145008"><ele>3.0</ele><time>2026-03-29T10:52:54Z</time></trkpt><trkpt lat="44.65664858169648" lon="12.242737618077088"><ele>3.0</ele><time>2026-03-29T10:52:55Z</time></trkpt><trkpt lat="44.65672321998315" lon="12.242821566591749"><ele>3.0</ele><time>2026-03-29T10:52:55.999Z</time></trkpt><trkpt lat="44.65680291364734" lon="12.242930349250779"><ele>3.0</ele><time>2026-03-29T10:52:56.999Z</time></trkpt><trkpt lat="44.656875286850386" lon="12.243052893356648"><ele>3.0</ele><time>2026-03-29T10:52:57.999Z</time></trkpt><trkpt lat="44.65694553826134" lon="12.243179164923546"><ele>3.0</ele><time>2026-03-29T10:52:58.999Z</time></trkpt><trkpt lat="44.656992455695494" lon="12.24332107885892"><ele>3.0</ele><time>2026-03-29T10:52:59.999Z</time></trkpt><trkpt lat="44.65704091586396" lon="12.24345063586803"><ele>3.0</ele><time>2026-03-29T10:53:00.999Z</time></trkpt><trkpt lat="44.657091474604165" lon="12.243596568653158"><ele>3.5999999999999996</ele><time>2026-03-29T10:53:01.999Z</time></trkpt><trkpt lat="44.65713958020906" lon="12.243714201803606"><ele>4.199999999999999</ele><time>2026-03-29T10:53:02.999Z</time></trkpt><trkpt lat="44.657178379240946" lon="12.243841349446448"><ele>4.8</ele><time>2026-03-29T10:53:03.999Z</time></trkpt><trkpt lat="44.65720834720727" lon="12.243982592114762"><ele>5.3999999999999995</ele><time>2026-03-29T10:53:04.999Z</time></trkpt><trkpt lat="44.657247377420234" lon="12.244122837775475"><ele>6.0</ele><time>2026-03-29T10:53:05.999Z</time></trkpt><trkpt lat="44.657285238175724" lon="12.244248740396667"><ele>6.166666666666667</ele><time>2026-03-29T10:53:06.999Z</time></trkpt><trkpt lat="44.657319172079696" lon="12.2443526492603"><ele>6.333333333333334</ele><time>2026-03-29T10:53:07.999Z</time></trkpt><trkpt lat="44.657326562062096" lon="12.24445509442298"><ele>6.5</ele><time>2026-03-29T10:53:08.999Z</time></trkpt><trkpt lat="44.65734618242965" lon="12.244545301798393"><ele>6.666666666666667</ele><time>2026-03-29T10:53:09.999Z</time></trkpt><trkpt lat="44.65737019673971" lon="12.244627896294638"><ele>6.833333333333334</ele><time>2026-03-29T10:53:10.999Z</time></trkpt><trkpt lat="44.657411220030966" lon="12.244763003556006"><ele>7.0</ele><time>2026-03-29T10:53:12.999Z</time></trkpt><trkpt lat="44.657435298424986" lon="12.244870892841986"><ele>7.0</ele><time>2026-03-29T10:53:14.999Z</time></trkpt><trkpt lat="44.65747587677497" lon="12.244961845454041"><ele>6.999999999999999</ele><time>2026-03-29T10:53:19Z</time></trkpt><trkpt lat="44.65762814725399" lon="12.244965127554117"><ele>6.999999999999999</ele><time>2026-03-29T10:53:22Z</time></trkpt><trkpt lat="44.6577167119223" lon="12.244938820519208"><ele>7.0</ele><time>2026-03-29T10:53:23Z</time></trkpt><trkpt lat="44.65780685243318" lon="12.244921523722205"><ele>7.0</ele><time>2026-03-29T10:53:24Z</time></trkpt><trkpt lat="44.65788945714466" lon="12.244918224215287"><ele>6.666666666666667</ele><time>2026-03-29T10:53:25Z</time></trkpt><trkpt lat="44.65797500522066" lon="12.244904233099637"><ele>6.333333333333334</ele><time>2026-03-29T10:53:26Z</time></trkpt><trkpt lat="44.65806227377977" lon="12.244893213085811"><ele>6.0</ele><time>2026-03-29T10:53:27Z</time></trkpt><trkpt lat="44.65814756880463" lon="12.244888300468917"><ele>5.666666666666667</ele><time>2026-03-29T10:53:28Z</time></trkpt><trkpt lat="44.65823284583685" lon="12.244878040087094"><ele>5.333333333333334</ele><time>2026-03-29T10:53:29Z</time></trkpt><trkpt lat="44.658319798679145" lon="12.244860134710974"><ele>5.0</ele><time>2026-03-29T10:53:30Z</time></trkpt><trkpt lat="44.65840994090122" lon="12.24484095963896"><ele>5.0</ele><time>2026-03-29T10:53:31Z</time></trkpt><trkpt lat="44.65849409740939" lon="12.244829237881483"><ele>5.0</ele><time>2026-03-29T10:53:32Z</time></trkpt><trkpt lat="44.658578307573244" lon="12.244810811185113"><ele>5.0</ele><time>2026-03-29T10:53:33Z</time></trkpt><trkpt lat="44.6586729250561" lon="12.24480055701415"><ele>5.0</ele><time>2026-03-29T10:53:34Z</time></trkpt><trkpt lat="44.65878002877035" lon="12.244783623510713"><ele>5.0</ele><time>2026-03-29T10:53:35Z</time></trkpt><trkpt lat="44.658888456718515" lon="12.244773980360097"><ele>5.4</ele><time>2026-03-29T10:53:36Z</time></trkpt><trkpt lat="44.658970110969854" lon="12.244758114331095"><ele>5.8</ele><time>2026-03-29T10:53:37Z</time></trkpt><trkpt lat="44.6590352698797" lon="12.244751239153898"><ele>6.199999999999999</ele><time>2026-03-29T10:53:38Z</time></trkpt><trkpt lat="44.65922955769702" lon="12.244727032985487"><ele>6.6</ele><time>2026-03-29T10:53:40Z</time></trkpt><trkpt lat="44.659333559031346" lon="12.2447124522427"><ele>7.0</ele><time>2026-03-29T10:53:41Z</time></trkpt><trkpt lat="44.65942973125753" lon="12.244704829437332"><ele>5.75</ele><time>2026-03-29T10:53:42Z</time></trkpt><trkpt lat="44.65953534194281" lon="12.244688904677675"><ele>4.5</ele><time>2026-03-29T10:53:43Z</time></trkpt><trkpt lat="44.65963490529231" lon="12.24467618911234"><ele>3.25</ele><time>2026-03-29T10:53:44Z</time></trkpt><trkpt lat="44.65981262705598" lon="12.244658431707547"><ele>2.0</ele><time>2026-03-29T10:53:46Z</time></trkpt><trkpt lat="44.65989358202919" lon="12.244649522446343"><ele>1.9999999999999998</ele><time>2026-03-29T10:53:47Z</time></trkpt><trkpt lat="44.65997773209297" lon="12.244635162688601"><ele>2.0</ele><time>2026-03-29T10:53:48Z</time></trkpt><trkpt lat="44.66005659006654" lon="12.244619609983042"><ele>2.0</ele><time>2026-03-29T10:53:49Z</time></trkpt><trkpt lat="44.66013568074859" lon="12.244609078203158"><ele>2.0</ele><time>2026-03-29T10:53:50Z</time></trkpt><trkpt lat="44.66022412128329" lon="12.244596547977695"><ele>1.9999999999999998</ele><time>2026-03-29T10:53:51Z</time></trkpt><trkpt lat="44.660319373118554" lon="12.244578561291206"><ele>2.0</ele><time>2026-03-29T10:53:52Z</time></trkpt><trkpt lat="44.66041475713045" lon="12.244564033103513"><ele>2.5</ele><time>2026-03-29T10:53:53Z</time></trkpt><trkpt lat="44.660496870614416" lon="12.244556893219887"><ele>3.0</ele><time>2026-03-29T10:53:54Z</time></trkpt><trkpt lat="44.66057145771064" lon="12.244541517397558"><ele>3.5</ele><time>2026-03-29T10:53:55Z</time></trkpt><trkpt lat="44.660641371980134" lon="12.24453260185903"><ele>4.0</ele><time>2026-03-29T10:53:56Z</time></trkpt><trkpt lat="44.66070417463009" lon="12.244519829025684"><ele>4.5</ele><time>2026-03-29T10:53:57Z</time></trkpt><trkpt lat="44.66074385612841" lon="12.244350903509815"><ele>5.0</ele><time>2026-03-29T10:54:00Z</time></trkpt><trkpt lat="44.66075636266132" lon="12.244158003483491"><ele>5.0</ele><time>2026-03-29T10:54:02Z</time></trkpt><trkpt lat="44.66075204113544" lon="12.244034358805417"><ele>5.0</ele><time>2026-03-29T10:54:03Z</time></trkpt><trkpt lat="44.660751507975185" lon="12.243899952144954"><ele>5.0</ele><time>2026-03-29T10:54:04Z</time></trkpt><trkpt lat="44.66076068087596" lon="12.24375297664373"><ele>5.0</ele><time>2026-03-29T10:54:05Z</time></trkpt><trkpt lat="44.66075403353214" lon="12.243608121940866"><ele>5.0</ele><time>2026-03-29T10:54:06Z</time></trkpt><trkpt lat="44.66074118707987" lon="12.243476046949946"><ele>4.8</ele><time>2026-03-29T10:54:07Z</time></trkpt><trkpt lat="44.660728583407554" lon="12.24333811925681"><ele>4.6</ele><time>2026-03-29T10:54:08Z</time></trkpt><trkpt lat="44.66072623260767" lon="12.243189807091277"><ele>4.4</ele><time>2026-03-29T10:54:09Z</time></trkpt><trkpt lat="44.660717607778466" lon="12.243040674588581"><ele>4.2</ele><time>2026-03-29T10:54:10Z</time></trkpt><trkpt lat="44.66072052317746" lon="12.242895591581783"><ele>4.0</ele><time>2026-03-29T10:54:11Z</time></trkpt><trkpt lat="44.66071565474408" lon="12.242745727598031"><ele>4.0</ele><time>2026-03-29T10:54:12Z</time></trkpt><trkpt lat="44.66071013772366" lon="12.24259580107034"><ele>4.0</ele><time>2026-03-29T10:54:13Z</time></trkpt><trkpt lat="44.66070000226122" lon="12.242435047664223"><ele>4.0</ele><time>2026-03-29T10:54:14Z</time></trkpt><trkpt lat="44.66069460900066" lon="12.24227207771272"><ele>4.0</ele><time>2026-03-29T10:54:15Z</time></trkpt><trkpt lat="44.66069263705323" lon="12.242108756495407"><ele>3.8000000000000003</ele><time>2026-03-29T10:54:16Z</time></trkpt><trkpt lat="44.660682735033106" lon="12.241959788946671"><ele>3.6000000000000005</ele><time>2026-03-29T10:54:17Z</time></trkpt><trkpt lat="44.66067699334504" lon="12.241817684494773"><ele>3.4</ele><time>2026-03-29T10:54:18Z</time></trkpt><trkpt lat="44.66066716711743" lon="12.24168952016826"><ele>3.2</ele><time>2026-03-29T10:54:19Z</time></trkpt><trkpt lat="44.660661295695405" lon="12.24156760421692"><ele>3.0</ele><time>2026-03-29T10:54:20Z</time></trkpt><trkpt lat="44.66065732301483" lon="12.241457338231196"><ele>2.8</ele><time>2026-03-29T10:54:21Z</time></trkpt><trkpt lat="44.66065093470516" lon="12.241349253717681"><ele>2.5999999999999996</ele><time>2026-03-29T10:54:22Z</time></trkpt><trkpt lat="44.66064634573459" lon="12.241258793309234"><ele>2.4000000000000004</ele><time>2026-03-29T10:54:23Z</time></trkpt><trkpt lat="44.660636034239815" lon="12.241097162924952"><ele>2.2</ele><time>2026-03-29T10:54:25Z</time></trkpt><trkpt lat="44.660666736443666" lon="12.240972927094894"><ele>2.0</ele><time>2026-03-29T10:54:27Z</time></trkpt><trkpt lat="44.66078063042065" lon="12.240960329270345"><ele>1.9999999999999998</ele><time>2026-03-29T10:54:29Z</time></trkpt><trkpt lat="44.6608492798265" lon="12.240954059209027"><ele>2.0</ele><time>2026-03-29T10:54:30Z</time></trkpt><trkpt lat="44.66092654710747" lon="12.240937560421994"><ele>2.0</ele><time>2026-03-29T10:54:31Z</time></trkpt><trkpt lat="44.66102195629436" lon="12.240931746053407"><ele>2.0</ele><time>2026-03-29T10:54:32Z</time></trkpt><trkpt lat="44.66111238948218" lon="12.240924962188506"><ele>1.9999999999999998</ele><time>2026-03-29T10:54:33Z</time></trkpt><trkpt lat="44.66120486988464" lon="12.24091077953559"><ele>2.0</ele><time>2026-03-29T10:54:34Z</time></trkpt><trkpt lat="44.661306627991635" lon="12.240900046283636"><ele>2.0</ele><time>2026-03-29T10:54:35Z</time></trkpt><trkpt lat="44.661413101067126" lon="12.240904394905877"><ele>2.0</ele><time>2026-03-29T10:54:36Z</time></trkpt><trkpt lat="44.661516205771164" lon="12.240892718100378"><ele>2.0</ele><time>2026-03-29T10:54:37Z</time></trkpt><trkpt lat="44.66160488661096" lon="12.240885515126838"><ele>2.0</ele><time>2026-03-29T10:54:38Z</time></trkpt><trkpt lat="44.66170024786379" lon="12.240882061281386"><ele>2.0</ele><time>2026-03-29T10:54:39Z</time></trkpt><trkpt lat="44.6618060522826" lon="12.240875892245134"><ele>2.0</ele><time>2026-03-29T10:54:40Z</time></trkpt><trkpt lat="44.66191490877388" lon="12.2408658275553"><ele>2.0</ele><time>2026-03-29T10:54:41Z</time></trkpt><trkpt lat="44.66203371483446" lon="12.240852150147386"><ele>2.0</ele><time>2026-03-29T10:54:42Z</time></trkpt><trkpt lat="44.66215984624476" lon="12.240836684125902"><ele>2.0</ele><time>2026-03-29T10:54:43Z</time></trkpt><trkpt lat="44.66228913055439" lon="12.240835162715614"><ele>2.5</ele><time>2026-03-29T10:54:44Z</time></trkpt><trkpt lat="44.662411563016725" lon="12.240822633536123"><ele>3.0</ele><time>2026-03-29T10:54:45Z</time></trkpt><trkpt lat="44.66253585295583" lon="12.240807263837588"><ele>3.5</ele><time>2026-03-29T10:54:46Z</time></trkpt><trkpt lat="44.66265083913042" lon="12.240791553115123"><ele>4.0</ele><time>2026-03-29T10:54:47Z</time></trkpt><trkpt lat="44.662763112037695" lon="12.240784387425288"><ele>4.0</ele><time>2026-03-29T10:54:48Z</time></trkpt><trkpt lat="44.66287434874219" lon="12.240766776694212"><ele>4.0</ele><time>2026-03-29T10:54:49Z</time></trkpt><trkpt lat="44.66298742902981" lon="12.240757437114128"><ele>4.0</ele><time>2026-03-29T10:54:50Z</time></trkpt><trkpt lat="44.663098986975164" lon="12.240748298110168"><ele>4.0</ele><time>2026-03-29T10:54:51Z</time></trkpt><trkpt lat="44.66321554634649" lon="12.240739121440605"><ele>4.0</ele><time>2026-03-29T10:54:52Z</time></trkpt><trkpt lat="44.66333199387682" lon="12.240724095814365"><ele>4.0</ele><time>2026-03-29T10:54:53Z</time></trkpt><trkpt lat="44.66345208850041" lon="12.240699752445085"><ele>4.0</ele><time>2026-03-29T10:54:54Z</time></trkpt><trkpt lat="44.66356697485434" lon="12.240695480668736"><ele>4.0</ele><time>2026-03-29T10:54:55Z</time></trkpt><trkpt lat="44.66367743799807" lon="12.24069125664881"><ele>3.8000000000000003</ele><time>2026-03-29T10:54:56Z</time></trkpt><trkpt lat="44.66378814847035" lon="12.240686884630419"><ele>3.6000000000000005</ele><time>2026-03-29T10:54:57Z</time></trkpt><trkpt lat="44.663893856029006" lon="12.240678648229691"><ele>3.4</ele><time>2026-03-29T10:54:58Z</time></trkpt><trkpt lat="44.6639978546956" lon="12.240667110812025"><ele>3.2</ele><time>2026-03-29T10:54:59Z</time></trkpt><trkpt lat="44.66410073854105" lon="12.24065509942583"><ele>3.0</ele><time>2026-03-29T10:55:00Z</time></trkpt><trkpt lat="44.66420609546949" lon="12.240644565758009"><ele>3.0</ele><time>2026-03-29T10:55:01Z</time></trkpt><trkpt lat="44.66431062826134" lon="12.240633405989394"><ele>3.0</ele><time>2026-03-29T10:55:01.999Z</time></trkpt><trkpt lat="44.664417650621836" lon="12.240627607204571"><ele>3.0</ele><time>2026-03-29T10:55:02.999Z</time></trkpt><trkpt lat="44.66452731321712" lon="12.240614638341812"><ele>3.0</ele><time>2026-03-29T10:55:03.999Z</time></trkpt><trkpt lat="44.6646357724454" lon="12.240605762353075"><ele>3.0</ele><time>2026-03-29T10:55:04.999Z</time></trkpt><trkpt lat="44.66474196236667" lon="12.24059503811809"><ele>3.0</ele><time>2026-03-29T10:55:05.999Z</time></trkpt><trkpt lat="44.664847675871236" lon="12.240584573334996"><ele>3.0</ele><time>2026-03-29T10:55:06.999Z</time></trkpt><trkpt lat="44.66495618900509" lon="12.240573503074557"><ele>3.0</ele><time>2026-03-29T10:55:07.999Z</time></trkpt><trkpt lat="44.66506599003616" lon="12.240559425278478"><ele>3.0</ele><time>2026-03-29T10:55:08.999Z</time></trkpt><trkpt lat="44.66517249688014" lon="12.24055361012482"><ele>3.0</ele><time>2026-03-29T10:55:09.999Z</time></trkpt><trkpt lat="44.6652773582571" lon="12.240547592854755"><ele>3.2</ele><time>2026-03-29T10:55:10.999Z</time></trkpt><trkpt lat="44.6653802046932" lon="12.240537998696931"><ele>3.4</ele><time>2026-03-29T10:55:11.999Z</time></trkpt><trkpt lat="44.66548220674278" lon="12.24052049362109"><ele>3.6000000000000005</ele><time>2026-03-29T10:55:12.999Z</time></trkpt><trkpt lat="44.66558658915405" lon="12.240508466949153"><ele>3.8000000000000003</ele><time>2026-03-29T10:55:13.999Z</time></trkpt><trkpt lat="44.66569538338301" lon="12.240495588374143"><ele>4.0</ele><time>2026-03-29T10:55:14.999Z</time></trkpt><trkpt lat="44.66579910898594" lon="12.240485536287363"><ele>4.0</ele><time>2026-03-29T10:55:15.999Z</time></trkpt><trkpt lat="44.66589710409725" lon="12.240475876067956"><ele>4.0</ele><time>2026-03-29T10:55:16.999Z</time></trkpt><trkpt lat="44.665995172627504" lon="12.24046994597814"><ele>4.0</ele><time>2026-03-29T10:55:17.999Z</time></trkpt><trkpt lat="44.666091206294105" lon="12.240461048066267"><ele>4.0</ele><time>2026-03-29T10:55:18.999Z</time></trkpt><trkpt lat="44.66619266947889" lon="12.240450854351682"><ele>4.0</ele><time>2026-03-29T10:55:19.999Z</time></trkpt><trkpt lat="44.666292001633025" lon="12.240441887754983"><ele>3.833333333333333</ele><time>2026-03-29T10:55:20.999Z</time></trkpt><trkpt lat="44.66638648291005" lon="12.240430002274508"><ele>3.6666666666666665</ele><time>2026-03-29T10:55:21.999Z</time></trkpt><trkpt lat="44.66647840151152" lon="12.240423959325604"><ele>3.5</ele><time>2026-03-29T10:55:22.999Z</time></trkpt><trkpt lat="44.66655719807335" lon="12.24041951880425"><ele>3.333333333333333</ele><time>2026-03-29T10:55:23.999Z</time></trkpt><trkpt lat="44.66662907865147" lon="12.240413658172999"><ele>3.1666666666666665</ele><time>2026-03-29T10:55:24.999Z</time></trkpt><trkpt lat="44.66669882846013" lon="12.240402913703889"><ele>3.0</ele><time>2026-03-29T10:55:26Z</time></trkpt><trkpt lat="44.6667661900297" lon="12.240402910511495"><ele>3.0</ele><time>2026-03-29T10:55:27Z</time></trkpt><trkpt lat="44.66683997271717" lon="12.240394567009146"><ele>3.0</ele><time>2026-03-29T10:55:28Z</time></trkpt><trkpt lat="44.6669057679055" lon="12.240386465584942"><ele>3.0</ele><time>2026-03-29T10:55:29Z</time></trkpt><trkpt lat="44.66701258612112" lon="12.240380663063698"><ele>3.0</ele><time>2026-03-29T10:55:31Z</time></trkpt><trkpt lat="44.667105287772074" lon="12.240375879730301"><ele>3.0</ele><time>2026-03-29T10:55:33Z</time></trkpt><trkpt lat="44.66716221823068" lon="12.240421689585697"><ele>3.0</ele><time>2026-03-29T10:55:35Z</time></trkpt><trkpt lat="44.667186665300086" lon="12.240550305174656"><ele>3.0</ele><time>2026-03-29T10:55:37Z</time></trkpt><trkpt lat="44.6671891105249" lon="12.240640218787815"><ele>3.0</ele><time>2026-03-29T10:55:38Z</time></trkpt><trkpt lat="44.66719321485131" lon="12.240841995760308"><ele>3.0</ele><time>2026-03-29T10:55:40Z</time></trkpt><trkpt lat="44.66719988553948" lon="12.240973922455355"><ele>3.0</ele><time>2026-03-29T10:55:41Z</time></trkpt><trkpt lat="44.66720650700164" lon="12.24109950345605"><ele>3.0</ele><time>2026-03-29T10:55:42Z</time></trkpt><trkpt lat="44.66721041299611" lon="12.241245858054357"><ele>3.0</ele><time>2026-03-29T10:55:43Z</time></trkpt><trkpt lat="44.667213517060155" lon="12.241397212350844"><ele>3.0</ele><time>2026-03-29T10:55:44Z</time></trkpt><trkpt lat="44.667223918034765" lon="12.241546838547519"><ele>3.0</ele><time>2026-03-29T10:55:45Z</time></trkpt><trkpt lat="44.66722835357402" lon="12.241674582782837"><ele>3.0</ele><time>2026-03-29T10:55:46Z</time></trkpt><trkpt lat="44.66722563270753" lon="12.241797244761504"><ele>3.0</ele><time>2026-03-29T10:55:47Z</time></trkpt><trkpt lat="44.667230552636994" lon="12.241916178592628"><ele>3.3333333333333335</ele><time>2026-03-29T10:55:48Z</time></trkpt><trkpt lat="44.66723624458988" lon="12.242034960152527"><ele>3.666666666666667</ele><time>2026-03-29T10:55:49Z</time></trkpt><trkpt lat="44.66722520205735" lon="12.242142355509433"><ele>4.0</ele><time>2026-03-29T10:55:50Z</time></trkpt><trkpt lat="44.66718624683314" lon="12.242297986011376"><ele>4.333333333333334</ele><time>2026-03-29T10:55:52Z</time></trkpt><trkpt lat="44.66713043343983" lon="12.242418219629494"><ele>4.666666666666667</ele><time>2026-03-29T10:55:54Z</time></trkpt><trkpt lat="44.66709645559697" lon="12.24249938438766"><ele>5.0</ele><time>2026-03-29T10:55:56Z</time></trkpt><trkpt lat="44.66710215305573" lon="12.242599550623831"><ele>6.166666666666667</ele><time>2026-03-29T10:56:01Z</time></trkpt><trkpt lat="44.66713120572068" lon="12.242697114996995"><ele>7.333333333333334</ele><time>2026-03-29T10:56:36Z</time></trkpt><trkpt lat="44.66715775618753" lon="12.242812247951692"><ele>8.5</ele><time>2026-03-29T10:56:39Z</time></trkpt><trkpt lat="44.667229716085664" lon="12.24279699291977"><ele>9.666666666666666</ele><time>2026-03-29T10:56:40Z</time></trkpt><trkpt lat="44.66729476386677" lon="12.242846675034603"><ele>10.833333333333334</ele><time>2026-03-29T10:56:43Z</time></trkpt><trkpt lat="44.66734999210751" lon="12.242892472390746"><ele>12.0</ele><time>2026-03-29T10:57:02Z</time></trkpt><trkpt lat="44.66727189673077" lon="12.242961649184002"><ele>12.0</ele><time>2026-03-29T10:57:10.999Z</time></trkpt><trkpt lat="44.667355014233834" lon="12.242895657064775"><ele>12.0</ele><time>2026-03-29T10:57:13.999Z</time></trkpt><trkpt lat="44.66744015291535" lon="12.24275538674227"><ele>12.0</ele><time>2026-03-29T10:57:41Z</time></trkpt><trkpt lat="44.6674713258612" lon="12.2426199124671"><ele>12.0</ele><time>2026-03-29T10:57:43Z</time></trkpt><trkpt lat="44.667473180672324" lon="12.242527616536615"><ele>12.0</ele><time>2026-03-29T10:57:44Z</time></trkpt><trkpt lat="44.66745229434667" lon="12.242441568140501"><ele>12.0</ele><time>2026-03-29T10:57:45Z</time></trkpt><trkpt lat="44.66737266506438" lon="12.242346205444042"><ele>12.0</ele><time>2026-03-29T10:57:47Z</time></trkpt><trkpt lat="44.66727543060817" lon="12.242304699172687"><ele>12.0</ele><time>2026-03-29T10:57:49Z</time></trkpt><trkpt lat="44.66720945702352" lon="12.242332868109814"><ele>12.0</ele><time>2026-03-29T10:57:50Z</time></trkpt><trkpt lat="44.66714377049065" lon="12.242395203676388"><ele>12.0</ele><time>2026-03-29T10:57:51Z</time></trkpt><trkpt lat="44.667101912235765" lon="12.24248955349926"><ele>12.0</ele><time>2026-03-29T10:57:52Z</time></trkpt><trkpt lat="44.666990028948725" lon="12.242528900355039"><ele>11.4</ele><time>2026-03-29T10:57:54Z</time></trkpt><trkpt lat="44.66690494685759" lon="12.242601485605476"><ele>10.799999999999999</ele><time>2026-03-29T10:57:56Z</time></trkpt><trkpt lat="44.66683570235533" lon="12.242641365732437"><ele>10.2</ele><time>2026-03-29T10:57:57Z</time></trkpt><trkpt lat="44.66672283166196" lon="12.242670281136585"><ele>9.6</ele><time>2026-03-29T10:57:59Z</time></trkpt><trkpt lat="44.666654217138614" lon="12.242669941642328"><ele>9.0</ele><time>2026-03-29T10:58:00Z</time></trkpt><trkpt lat="44.6665466670406" lon="12.242707214778065"><ele>9.0</ele><time>2026-03-29T10:58:01Z</time></trkpt><trkpt lat="44.66646023915168" lon="12.242714754610105"><ele>9.0</ele><time>2026-03-29T10:58:02Z</time></trkpt><trkpt lat="44.6663824468195" lon="12.242709273610465"><ele>9.0</ele><time>2026-03-29T10:58:03Z</time></trkpt><trkpt lat="44.66626807920111" lon="12.242729559674526"><ele>9.0</ele><time>2026-03-29T10:58:05Z</time></trkpt><trkpt lat="44.666182577413274" lon="12.24275556178944"><ele>9.0</ele><time>2026-03-29T10:58:06Z</time></trkpt><trkpt lat="44.66609757126442" lon="12.242772171154531"><ele>8.6</ele><time>2026-03-29T10:58:07Z</time></trkpt><trkpt lat="44.666027430401634" lon="12.242783724459258"><ele>8.2</ele><time>2026-03-29T10:58:08Z</time></trkpt><trkpt lat="44.665907055504846" lon="12.242787967036444"><ele>7.799999999999999</ele><time>2026-03-29T10:58:10Z</time></trkpt><trkpt lat="44.66578358138496" lon="12.24280677664193"><ele>7.3999999999999995</ele><time>2026-03-29T10:58:12Z</time></trkpt><trkpt lat="44.66567071913982" lon="12.24283132179668"><ele>7.0</ele><time>2026-03-29T10:58:14Z</time></trkpt><trkpt lat="44.665582918448486" lon="12.242807945210325"><ele>7.0</ele><time>2026-03-29T10:58:16Z</time></trkpt><trkpt lat="44.66550171238061" lon="12.242839366668314"><ele>6.999999999999999</ele><time>2026-03-29T10:58:18Z</time></trkpt><trkpt lat="44.665538311556986" lon="12.24302203643551"><ele>6.999999999999999</ele><time>2026-03-29T10:58:22Z</time></trkpt><trkpt lat="44.66556872472457" lon="12.243107099980213"><ele>7.0</ele><time>2026-03-29T10:58:24Z</time></trkpt><trkpt lat="44.665631364912386" lon="12.243199892160211"><ele>7.0</ele><time>2026-03-29T10:58:26Z</time></trkpt><trkpt lat="44.66567631134287" lon="12.243297672491183"><ele>8.0</ele><time>2026-03-29T10:58:27Z</time></trkpt><trkpt lat="44.665706548615844" lon="12.243393995611736"><ele>8.0</ele><time>2026-03-29T10:58:28Z</time></trkpt><trkpt lat="44.66576202522764" lon="12.243488793543861"><ele>8.0</ele><time>2026-03-29T10:58:30Z</time></trkpt><trkpt lat="44.66581626623028" lon="12.243547422327168"><ele>8.0</ele><time>2026-03-29T10:58:32Z</time></trkpt></trkseg><trkseg><trkpt lat="44.66113791850445" lon="12.248588042496355"><ele>0.9999999999999999</ele><time>2026-03-29T12:48:23Z</time></trkpt><trkpt lat="44.66119118852562" lon="12.248527739086018"><ele>1.0</ele><time>2026-03-29T12:49:35.999Z</time></trkpt><trkpt lat="44.661158377164675" lon="12.24842668457668"><ele>1.0</ele><time>2026-03-29T12:49:40.999Z</time></trkpt><trkpt lat="44.661084532375476" lon="12.248344155819856"><ele>1.0</ele><time>2026-03-29T12:49:43.999Z</time></trkpt><trkpt lat="44.66103098665189" lon="12.248264809217392"><ele>0.9999999999999999</ele><time>2026-03-29T12:49:46.999Z</time></trkpt><trkpt lat="44.660987502363014" lon="12.248187856403128"><ele>1.0</ele><time>2026-03-29T12:49:48.999Z</time></trkpt><trkpt lat="44.660940171442554" lon="12.248093651471468"><ele>1.5</ele><time>2026-03-29T12:49:51Z</time></trkpt><trkpt lat="44.660892295951335" lon="12.247972722286137"><ele>2.0</ele><time>2026-03-29T12:49:54Z</time></trkpt><trkpt lat="44.66087867780305" lon="12.24787481517715"><ele>2.5</ele><time>2026-03-29T12:49:57Z</time></trkpt><trkpt lat="44.66094440131376" lon="12.24782020496777"><ele>3.0</ele><time>2026-03-29T12:50:29Z</time></trkpt><trkpt lat="44.66103127211115" lon="12.247803222076143"><ele>3.4999999999999996</ele><time>2026-03-29T12:50:31Z</time></trkpt><trkpt lat="44.66112660127762" lon="12.247772509796363"><ele>4.0</ele><time>2026-03-29T12:50:33Z</time></trkpt><trkpt lat="44.661244811054154" lon="12.24773598786821"><ele>4.0</ele><time>2026-03-29T12:50:35Z</time></trkpt><trkpt lat="44.66131375007449" lon="12.24771930979542"><ele>3.9999999999999996</ele><time>2026-03-29T12:50:36Z</time></trkpt><trkpt lat="44.66138811983825" lon="12.247694823090319"><ele>4.0</ele><time>2026-03-29T12:50:37Z</time></trkpt><trkpt lat="44.66145356048694" lon="12.247679645496467"><ele>4.0</ele><time>2026-03-29T12:50:38Z</time></trkpt><trkpt lat="44.66152413161265" lon="12.247662330613084"><ele>3.9999999999999996</ele><time>2026-03-29T12:50:39Z</time></trkpt><trkpt lat="44.66159977951575" lon="12.247644763656353"><ele>4.0</ele><time>2026-03-29T12:50:40Z</time></trkpt><trkpt lat="44.66168294802284" lon="12.247628566867686"><ele>4.0</ele><time>2026-03-29T12:50:41Z</time></trkpt><trkpt lat="44.66176301815646" lon="12.247620248367996"><ele>3.9999999999999996</ele><time>2026-03-29T12:50:42Z</time></trkpt><trkpt lat="44.661846705149756" lon="12.247616737815417"><ele>4.0</ele><time>2026-03-29T12:50:43Z</time></trkpt><trkpt lat="44.661922793626516" lon="12.247612582283576"><ele>4.0</ele><time>2026-03-29T12:50:44Z</time></trkpt><trkpt lat="44.661995328624606" lon="12.247606384151876"><ele>4.0</ele><time>2026-03-29T12:50:45Z</time></trkpt><trkpt lat="44.66207682214631" lon="12.247599352900698"><ele>3.9999999999999996</ele><time>2026-03-29T12:50:46Z</time></trkpt><trkpt lat="44.662155948151955" lon="12.247592475583193"><ele>4.0</ele><time>2026-03-29T12:50:47Z</time></trkpt><trkpt lat="44.66223501201434" lon="12.247588056307642"><ele>3.714285714285714</ele><time>2026-03-29T12:50:48Z</time></trkpt><trkpt lat="44.6623044127365" lon="12.247585744754566"><ele>3.428571428571428</ele><time>2026-03-29T12:50:49Z</time></trkpt><trkpt lat="44.662371294898314" lon="12.247584522665345"><ele>3.142857142857143</ele><time>2026-03-29T12:50:50Z</time></trkpt><trkpt lat="44.66244477082402" lon="12.247578328347654"><ele>2.8571428571428568</ele><time>2026-03-29T12:50:51Z</time></trkpt><trkpt lat="44.66251695580058" lon="12.247571298299542"><ele>2.571428571428571</ele><time>2026-03-29T12:50:52Z</time></trkpt><trkpt lat="44.66258634212752" lon="12.247558972803384"><ele>2.2857142857142856</ele><time>2026-03-29T12:50:53Z</time></trkpt><trkpt lat="44.66266390258843" lon="12.247537324481478"><ele>2.0</ele><time>2026-03-29T12:50:54Z</time></trkpt><trkpt lat="44.66274258785174" lon="12.247518026454419"><ele>2.0</ele><time>2026-03-29T12:50:55Z</time></trkpt><trkpt lat="44.662817892507256" lon="12.247497503371324"><ele>1.9999999999999998</ele><time>2026-03-29T12:50:56Z</time></trkpt><trkpt lat="44.662892786254055" lon="12.247477809635988"><ele>2.0</ele><time>2026-03-29T12:50:57Z</time></trkpt><trkpt lat="44.66296576612313" lon="12.24745961157916"><ele>2.0</ele><time>2026-03-29T12:50:57.999Z</time></trkpt><trkpt lat="44.66303311352153" lon="12.247445586565808"><ele>1.9999999999999998</ele><time>2026-03-29T12:50:58.999Z</time></trkpt><trkpt lat="44.66310260158368" lon="12.247433316040274"><ele>2.0</ele><time>2026-03-29T12:50:59.999Z</time></trkpt><trkpt lat="44.66317007976115" lon="12.247423778069582"><ele>2.0</ele><time>2026-03-29T12:51:00.999Z</time></trkpt><trkpt lat="44.663241984556045" lon="12.247415723916516"><ele>1.9999999999999998</ele><time>2026-03-29T12:51:01.999Z</time></trkpt><trkpt lat="44.66332161772338" lon="12.247410159645911"><ele>2.0</ele><time>2026-03-29T12:51:02.999Z</time></trkpt><trkpt lat="44.66340648042924" lon="12.247403910800536"><ele>2.0</ele><time>2026-03-29T12:51:03.999Z</time></trkpt><trkpt lat="44.663487241096114" lon="12.247396893639525"><ele>2.0</ele><time>2026-03-29T12:51:04.999Z</time></trkpt><trkpt lat="44.66356554184086" lon="12.247389308889822"><ele>1.9999999999999998</ele><time>2026-03-29T12:51:05.999Z</time></trkpt><trkpt lat="44.66364086222665" lon="12.247381167059"><ele>2.0</ele><time>2026-03-29T12:51:06.999Z</time></trkpt><trkpt lat="44.66371459917043" lon="12.247372245859022"><ele>1.9999999999999998</ele><time>2026-03-29T12:51:07.999Z</time></trkpt><trkpt lat="44.6637890532431" lon="12.24736149032258"><ele>2.0</ele><time>2026-03-29T12:51:08.999Z</time></trkpt><trkpt lat="44.66386176611499" lon="12.24735291202327"><ele>2.0</ele><time>2026-03-29T12:51:09.999Z</time></trkpt><trkpt lat="44.663938625361915" lon="12.247344032179054"><ele>2.0</ele><time>2026-03-29T12:51:10.999Z</time></trkpt><trkpt lat="44.66402153883732" lon="12.247325412889571"><ele>1.9999999999999998</ele><time>2026-03-29T12:51:11.999Z</time></trkpt><trkpt lat="44.6641071509148" lon="12.247303058164183"><ele>2.0</ele><time>2026-03-29T12:51:12.999Z</time></trkpt><trkpt lat="44.66418850591549" lon="12.247286284596498"><ele>2.5</ele><time>2026-03-29T12:51:13.999Z</time></trkpt><trkpt lat="44.66426339514361" lon="12.24726806497807"><ele>3.0</ele><time>2026-03-29T12:51:15Z</time></trkpt><trkpt lat="44.66433843372845" lon="12.247250884297241"><ele>3.5</ele><time>2026-03-29T12:51:16Z</time></trkpt><trkpt lat="44.66440919464686" lon="12.247231092753141"><ele>4.0</ele><time>2026-03-29T12:51:17Z</time></trkpt><trkpt lat="44.664484115545584" lon="12.247205666162547"><ele>4.5</ele><time>2026-03-29T12:51:18Z</time></trkpt><trkpt lat="44.66456977545988" lon="12.247181527031168"><ele>5.0</ele><time>2026-03-29T12:51:19Z</time></trkpt><trkpt lat="44.664655523415355" lon="12.247160846822954"><ele>5.0</ele><time>2026-03-29T12:51:20Z</time></trkpt><trkpt lat="44.664733817603384" lon="12.247144785190338"><ele>5.0</ele><time>2026-03-29T12:51:21Z</time></trkpt><trkpt lat="44.66481731109878" lon="12.24711998039592"><ele>5.0</ele><time>2026-03-29T12:51:22Z</time></trkpt><trkpt lat="44.6648917093523" lon="12.247101964073241"><ele>5.0</ele><time>2026-03-29T12:51:23Z</time></trkpt><trkpt lat="44.66496819912101" lon="12.247090023022215"><ele>5.0</ele><time>2026-03-29T12:51:24Z</time></trkpt><trkpt lat="44.66504886880421" lon="12.247082532943265"><ele>5.0</ele><time>2026-03-29T12:51:25Z</time></trkpt><trkpt lat="44.66512605856612" lon="12.247073405515097"><ele>5.0</ele><time>2026-03-29T12:51:26Z</time></trkpt><trkpt lat="44.665203734461365" lon="12.247059960938195"><ele>5.0</ele><time>2026-03-29T12:51:27Z</time></trkpt><trkpt lat="44.66527693851896" lon="12.247049766325386"><ele>5.0</ele><time>2026-03-29T12:51:28Z</time></trkpt><trkpt lat="44.66534976176368" lon="12.247036569224004"><ele>5.0</ele><time>2026-03-29T12:51:29Z</time></trkpt><trkpt lat="44.665424461448374" lon="12.247019453589084"><ele>5.0</ele><time>2026-03-29T12:51:30Z</time></trkpt><trkpt lat="44.66550341329441" lon="12.247000209179847"><ele>5.0</ele><time>2026-03-29T12:51:31Z</time></trkpt><trkpt lat="44.6655801658321" lon="12.246975627812747"><ele>5.285714285714286</ele><time>2026-03-29T12:51:32Z</time></trkpt><trkpt lat="44.66565202838607" lon="12.246952805436798"><ele>5.571428571428571</ele><time>2026-03-29T12:51:33Z</time></trkpt><trkpt lat="44.66572181534008" lon="12.246935444761348"><ele>5.857142857142858</ele><time>2026-03-29T12:51:34Z</time></trkpt><trkpt lat="44.6657925189127" lon="12.246916944743086"><ele>6.142857142857142</ele><time>2026-03-29T12:51:35Z</time></trkpt><trkpt lat="44.66586774195802" lon="12.246898836228013"><ele>6.428571428571429</ele><time>2026-03-29T12:51:36Z</time></trkpt><trkpt lat="44.665935139087274" lon="12.24688285582561"><ele>6.714285714285714</ele><time>2026-03-29T12:51:37Z</time></trkpt><trkpt lat="44.666003550136296" lon="12.246867020144053"><ele>7.0</ele><time>2026-03-29T12:51:38Z</time></trkpt><trkpt lat="44.666067402129904" lon="12.246850800012401"><ele>6.8</ele><time>2026-03-29T12:51:39Z</time></trkpt><trkpt lat="44.666191203908554" lon="12.24683201547297"><ele>6.6</ele><time>2026-03-29T12:51:41Z</time></trkpt><trkpt lat="44.66626216027046" lon="12.246822485533992"><ele>6.3999999999999995</ele><time>2026-03-29T12:51:42Z</time></trkpt><trkpt lat="44.66634060759016" lon="12.246818301639864"><ele>6.199999999999999</ele><time>2026-03-29T12:51:43Z</time></trkpt><trkpt lat="44.66643492436299" lon="12.246809106105667"><ele>6.0</ele><time>2026-03-29T12:51:44Z</time></trkpt><trkpt lat="44.666541577500745" lon="12.246791755409621"><ele>6.0</ele><time>2026-03-29T12:51:45Z</time></trkpt><trkpt lat="44.66665036555404" lon="12.246774006896386"><ele>6.0</ele><time>2026-03-29T12:51:46Z</time></trkpt><trkpt lat="44.666737849150095" lon="12.246762855168706"><ele>6.0</ele><time>2026-03-29T12:51:47Z</time></trkpt><trkpt lat="44.666810522037395" lon="12.246753684228349"><ele>6.0</ele><time>2026-03-29T12:51:48Z</time></trkpt><trkpt lat="44.66692821364496" lon="12.246737524645233"><ele>6.0</ele><time>2026-03-29T12:51:50Z</time></trkpt><trkpt lat="44.667024060816345" lon="12.24680117440149"><ele>5.75</ele><time>2026-03-29T12:51:52Z</time></trkpt><trkpt lat="44.66713147936322" lon="12.246814671884254"><ele>5.5</ele><time>2026-03-29T12:51:54Z</time></trkpt><trkpt lat="44.66722565277654" lon="12.246727055178582"><ele>5.25</ele><time>2026-03-29T12:51:56Z</time></trkpt><trkpt lat="44.66733315021615" lon="12.24671079120281"><ele>5.0</ele><time>2026-03-29T12:51:58Z</time></trkpt><trkpt lat="44.667460175177204" lon="12.246710839105951"><ele>5.0</ele><time>2026-03-29T12:52:00Z</time></trkpt><trkpt lat="44.66752531304662" lon="12.246687484513435"><ele>5.0</ele><time>2026-03-29T12:52:01Z</time></trkpt><trkpt lat="44.66762206514694" lon="12.24667209172416"><ele>5.0</ele><time>2026-03-29T12:52:03Z</time></trkpt><trkpt lat="44.66774464827161" lon="12.246638502878062"><ele>5.0</ele><time>2026-03-29T12:52:05Z</time></trkpt><trkpt lat="44.667827507304615" lon="12.246613869088188"><ele>5.0</ele><time>2026-03-29T12:52:06Z</time></trkpt><trkpt lat="44.667913292468704" lon="12.246595919971512"><ele>4.833333333333334</ele><time>2026-03-29T12:52:07Z</time></trkpt><trkpt lat="44.66800146782332" lon="12.246583108007156"><ele>4.666666666666667</ele><time>2026-03-29T12:52:08Z</time></trkpt><trkpt lat="44.66809165022969" lon="12.246566420560535"><ele>4.5</ele><time>2026-03-29T12:52:09Z</time></trkpt><trkpt lat="44.668173277816635" lon="12.246549110558563"><ele>4.333333333333333</ele><time>2026-03-29T12:52:10Z</time></trkpt><trkpt lat="44.668260616052194" lon="12.246527810036119"><ele>4.166666666666666</ele><time>2026-03-29T12:52:11.001Z</time></trkpt><trkpt lat="44.66833206436733" lon="12.24650798340776"><ele>4.0</ele><time>2026-03-29T12:52:12.001Z</time></trkpt><trkpt lat="44.6684071034444" lon="12.246495061271007"><ele>3.9999999999999996</ele><time>2026-03-29T12:52:13.001Z</time></trkpt><trkpt lat="44.66849574700939" lon="12.246476319591666"><ele>4.0</ele><time>2026-03-29T12:52:14.001Z</time></trkpt><trkpt lat="44.66859770159015" lon="12.246453603467435"><ele>4.0</ele><time>2026-03-29T12:52:15.001Z</time></trkpt><trkpt lat="44.66868329608402" lon="12.246437520889533"><ele>4.0</ele><time>2026-03-29T12:52:16.001Z</time></trkpt><trkpt lat="44.66876428265965" lon="12.246425408156352"><ele>3.9999999999999996</ele><time>2026-03-29T12:52:17.001Z</time></trkpt><trkpt lat="44.66884384986916" lon="12.246427258680148"><ele>4.0</ele><time>2026-03-29T12:52:18.001Z</time></trkpt><trkpt lat="44.66893067383173" lon="12.246451403301602"><ele>4.2</ele><time>2026-03-29T12:52:19.001Z</time></trkpt><trkpt lat="44.66901969871769" lon="12.246446272086002"><ele>4.4</ele><time>2026-03-29T12:52:20.001Z</time></trkpt><trkpt lat="44.66910910028837" lon="12.246422742562098"><ele>4.6</ele><time>2026-03-29T12:52:21.001Z</time></trkpt><trkpt lat="44.66927992835548" lon="12.24641614989958"><ele>4.8</ele><time>2026-03-29T12:52:23.001Z</time></trkpt><trkpt lat="44.669365100271754" lon="12.246406887285985"><ele>5.0</ele><time>2026-03-29T12:52:24.001Z</time></trkpt><trkpt lat="44.669452350620695" lon="12.246402988851646"><ele>5.0</ele><time>2026-03-29T12:52:25.001Z</time></trkpt><trkpt lat="44.66954168703883" lon="12.246400667418083"><ele>5.0</ele><time>2026-03-29T12:52:26.001Z</time></trkpt><trkpt lat="44.66963588226826" lon="12.24639432260092"><ele>5.0</ele><time>2026-03-29T12:52:27.001Z</time></trkpt><trkpt lat="44.669729824024984" lon="12.246382637032566"><ele>5.0</ele><time>2026-03-29T12:52:28.001Z</time></trkpt><trkpt lat="44.669820666492605" lon="12.246372956880297"><ele>5.0</ele><time>2026-03-29T12:52:29.001Z</time></trkpt><trkpt lat="44.669908985107746" lon="12.246353692266105"><ele>5.0</ele><time>2026-03-29T12:52:30.001Z</time></trkpt><trkpt lat="44.669985293920696" lon="12.246323978009082"><ele>5.0</ele><time>2026-03-29T12:52:31.001Z</time></trkpt><trkpt lat="44.67005882321019" lon="12.246304568087144"><ele>5.0</ele><time>2026-03-29T12:52:32.001Z</time></trkpt><trkpt lat="44.67014449613578" lon="12.246277296964683"><ele>5.0</ele><time>2026-03-29T12:52:33.001Z</time></trkpt><trkpt lat="44.67023841658592" lon="12.246249041444267"><ele>5.0</ele><time>2026-03-29T12:52:34.001Z</time></trkpt><trkpt lat="44.670339212450756" lon="12.246220073238163"><ele>5.0</ele><time>2026-03-29T12:52:35.001Z</time></trkpt><trkpt lat="44.6704328420126" lon="12.246189551875684"><ele>5.2</ele><time>2026-03-29T12:52:36.001Z</time></trkpt><trkpt lat="44.670526995163655" lon="12.246159466607427"><ele>5.4</ele><time>2026-03-29T12:52:37.001Z</time></trkpt><trkpt lat="44.67060800690711" lon="12.246134494879152"><ele>5.6</ele><time>2026-03-29T12:52:38.001Z</time></trkpt><trkpt lat="44.67070207424271" lon="12.246104382534035"><ele>5.8</ele><time>2026-03-29T12:52:39.001Z</time></trkpt><trkpt lat="44.670790915784515" lon="12.246078954501549"><ele>6.0</ele><time>2026-03-29T12:52:40.001Z</time></trkpt><trkpt lat="44.670881171232175" lon="12.246051594237777"><ele>6.0</ele><time>2026-03-29T12:52:41.001Z</time></trkpt><trkpt lat="44.67098106720665" lon="12.246019539318917"><ele>6.0</ele><time>2026-03-29T12:52:42.001Z</time></trkpt><trkpt lat="44.671087218329774" lon="12.245988567423327"><ele>6.0</ele><time>2026-03-29T12:52:43.001Z</time></trkpt><trkpt lat="44.67117582684999" lon="12.245961419281668"><ele>6.0</ele><time>2026-03-29T12:52:44.001Z</time></trkpt><trkpt lat="44.671248139760536" lon="12.245943401414143"><ele>6.0</ele><time>2026-03-29T12:52:45.001Z</time></trkpt><trkpt lat="44.67132572620049" lon="12.245933526541805"><ele>6.0</ele><time>2026-03-29T12:52:46.001Z</time></trkpt><trkpt lat="44.67141163010281" lon="12.245926524089063"><ele>6.0</ele><time>2026-03-29T12:52:47.001Z</time></trkpt><trkpt lat="44.671486509884446" lon="12.245924088604754"><ele>6.0</ele><time>2026-03-29T12:52:48.001Z</time></trkpt><trkpt lat="44.67155139997175" lon="12.245922211117952"><ele>6.0</ele><time>2026-03-29T12:52:49.001Z</time></trkpt><trkpt lat="44.67166470882751" lon="12.245918564997675"><ele>6.0</ele><time>2026-03-29T12:52:51.001Z</time></trkpt><trkpt lat="44.67175303692802" lon="12.245955362322494"><ele>6.0</ele><time>2026-03-29T12:52:53.001Z</time></trkpt><trkpt lat="44.67190627608282" lon="12.245915429829022"><ele>6.0</ele><time>2026-03-29T12:52:56.001Z</time></trkpt><trkpt lat="44.671968925517774" lon="12.245990824046647"><ele>6.0</ele><time>2026-03-29T12:52:59.001Z</time></trkpt><trkpt lat="44.67204630443137" lon="12.246022325305864"><ele>6.0</ele><time>2026-03-29T12:54:57.001Z</time></trkpt><trkpt lat="44.672104910977545" lon="12.245964937596481"><ele>6.0</ele><time>2026-03-29T12:54:59.001Z</time></trkpt><trkpt lat="44.672132657105" lon="12.245853091601889"><ele>6.0</ele><time>2026-03-29T12:55:01.001Z</time></trkpt><trkpt lat="44.672030477712475" lon="12.245760792447278"><ele>6.0</ele><time>2026-03-29T12:55:03.001Z</time></trkpt><trkpt lat="44.67192860185721" lon="12.245825138382772"><ele>6.0</ele><time>2026-03-29T12:55:05.002Z</time></trkpt><trkpt lat="44.67186888979862" lon="12.245855712873988"><ele>6.0</ele><time>2026-03-29T12:55:06.002Z</time></trkpt><trkpt lat="44.67176147799472" lon="12.245861775450777"><ele>6.0</ele><time>2026-03-29T12:55:08.002Z</time></trkpt><trkpt lat="44.67163783690961" lon="12.245867516006255"><ele>6.0</ele><time>2026-03-29T12:55:10.001Z</time></trkpt><trkpt lat="44.67151885313272" lon="12.245879554806713"><ele>6.0</ele><time>2026-03-29T12:55:12.001Z</time></trkpt><trkpt lat="44.67145094472675" lon="12.245888408051382"><ele>6.0</ele><time>2026-03-29T12:55:13.001Z</time></trkpt><trkpt lat="44.671324998282074" lon="12.245898255018137"><ele>6.0</ele><time>2026-03-29T12:55:15.001Z</time></trkpt><trkpt lat="44.67125063595685" lon="12.245899085517102"><ele>6.0</ele><time>2026-03-29T12:55:16.001Z</time></trkpt><trkpt lat="44.67117348461827" lon="12.245906009224255"><ele>6.0</ele><time>2026-03-29T12:55:17.001Z</time></trkpt><trkpt lat="44.67109366309725" lon="12.245927391053147"><ele>6.0</ele><time>2026-03-29T12:55:18.001Z</time></trkpt><trkpt lat="44.6710241157231" lon="12.245953344168084"><ele>6.0</ele><time>2026-03-29T12:55:19.001Z</time></trkpt><trkpt lat="44.670948588319476" lon="12.245980018478832"><ele>6.0</ele><time>2026-03-29T12:55:20.001Z</time></trkpt><trkpt lat="44.67086899599171" lon="12.246008300932623"><ele>6.0</ele><time>2026-03-29T12:55:21.001Z</time></trkpt><trkpt lat="44.67078666652629" lon="12.246033680906747"><ele>6.0</ele><time>2026-03-29T12:55:22.001Z</time></trkpt><trkpt lat="44.67070528035351" lon="12.246058811997344"><ele>6.0</ele><time>2026-03-29T12:55:23.001Z</time></trkpt><trkpt lat="44.67062976366422" lon="12.246078997250063"><ele>6.0</ele><time>2026-03-29T12:55:24.001Z</time></trkpt><trkpt lat="44.67055955143598" lon="12.246096093502361"><ele>6.0</ele><time>2026-03-29T12:55:25.001Z</time></trkpt><trkpt lat="44.67048459097933" lon="12.246118476279285"><ele>6.0</ele><time>2026-03-29T12:55:26.001Z</time></trkpt><trkpt lat="44.670409795059065" lon="12.246141361114656"><ele>6.0</ele><time>2026-03-29T12:55:27.001Z</time></trkpt><trkpt lat="44.670341293872205" lon="12.246165536903625"><ele>6.0</ele><time>2026-03-29T12:55:28.001Z</time></trkpt><trkpt lat="44.670271065332656" lon="12.246191261226839"><ele>6.0</ele><time>2026-03-29T12:55:29.001Z</time></trkpt><trkpt lat="44.67019570990551" lon="12.2462139897855"><ele>6.0</ele><time>2026-03-29T12:55:30.001Z</time></trkpt><trkpt lat="44.67011511870809" lon="12.246233861364795"><ele>6.0</ele><time>2026-03-29T12:55:31.001Z</time></trkpt><trkpt lat="44.67003134860088" lon="12.24625752098943"><ele>5.833333333333333</ele><time>2026-03-29T12:55:32.001Z</time></trkpt><trkpt lat="44.669949690409624" lon="12.246283529278076"><ele>5.666666666666667</ele><time>2026-03-29T12:55:33.001Z</time></trkpt><trkpt lat="44.669878315487736" lon="12.246305550419072"><ele>5.5</ele><time>2026-03-29T12:55:34.001Z</time></trkpt><trkpt lat="44.669805980535614" lon="12.24632892643721"><ele>5.333333333333334</ele><time>2026-03-29T12:55:35.001Z</time></trkpt><trkpt lat="44.669729209837335" lon="12.246345784558521"><ele>5.166666666666667</ele><time>2026-03-29T12:55:36.001Z</time></trkpt><trkpt lat="44.6696471892998" lon="12.246353149147438"><ele>5.0</ele><time>2026-03-29T12:55:37.001Z</time></trkpt><trkpt lat="44.66955843576357" lon="12.2463518102164"><ele>5.0</ele><time>2026-03-29T12:55:38.001Z</time></trkpt><trkpt lat="44.66946744169346" lon="12.246355687763984"><ele>5.0</ele><time>2026-03-29T12:55:39.001Z</time></trkpt><trkpt lat="44.66938507532894" lon="12.246360379202923"><ele>5.0</ele><time>2026-03-29T12:55:40.001Z</time></trkpt><trkpt lat="44.66930715689934" lon="12.246365258048023"><ele>5.0</ele><time>2026-03-29T12:55:41.001Z</time></trkpt><trkpt lat="44.66922972657947" lon="12.246375773831367"><ele>5.0</ele><time>2026-03-29T12:55:42.001Z</time></trkpt><trkpt lat="44.66915060057399" lon="12.246387138400662"><ele>5.0</ele><time>2026-03-29T12:55:43.001Z</time></trkpt><trkpt lat="44.66906822021123" lon="12.246392857823222"><ele>5.0</ele><time>2026-03-29T12:55:44.001Z</time></trkpt><trkpt lat="44.66899382018358" lon="12.246397560913046"><ele>5.0</ele><time>2026-03-29T12:55:45.001Z</time></trkpt><trkpt lat="44.66892208790842" lon="12.246399358123154"><ele>5.0</ele><time>2026-03-29T12:55:46.001Z</time></trkpt><trkpt lat="44.668843540674864" lon="12.246398210422557"><ele>5.0</ele><time>2026-03-29T12:55:47.001Z</time></trkpt><trkpt lat="44.66876203218361" lon="12.246398653588365"><ele>5.0</ele><time>2026-03-29T12:55:48.001Z</time></trkpt><trkpt lat="44.66868315041393" lon="12.24640540213255"><ele>5.0</ele><time>2026-03-29T12:55:49.001Z</time></trkpt><trkpt lat="44.6686068540559" lon="12.246415011023991"><ele>4.833333333333334</ele><time>2026-03-29T12:55:50.001Z</time></trkpt><trkpt lat="44.66852594554572" lon="12.246430754409214"><ele>4.666666666666667</ele><time>2026-03-29T12:55:51.001Z</time></trkpt><trkpt lat="44.668446851643225" lon="12.246450591117648"><ele>4.5</ele><time>2026-03-29T12:55:52.001Z</time></trkpt><trkpt lat="44.6683645371467" lon="12.246470208111734"><ele>4.333333333333333</ele><time>2026-03-29T12:55:53.001Z</time></trkpt><trkpt lat="44.66828199169264" lon="12.246491143271411"><ele>4.166666666666666</ele><time>2026-03-29T12:55:54.001Z</time></trkpt><trkpt lat="44.668203539116796" lon="12.246510574902116"><ele>4.0</ele><time>2026-03-29T12:55:55.001Z</time></trkpt><trkpt lat="44.66813415320411" lon="12.246523771123298"><ele>3.9999999999999996</ele><time>2026-03-29T12:55:56.001Z</time></trkpt><trkpt lat="44.66805851634121" lon="12.24654222897623"><ele>4.0</ele><time>2026-03-29T12:55:57.001Z</time></trkpt><trkpt lat="44.66797506291263" lon="12.246558611742717"><ele>4.0</ele><time>2026-03-29T12:55:58.001Z</time></trkpt><trkpt lat="44.667906300733875" lon="12.246572987427461"><ele>4.0</ele><time>2026-03-29T12:55:59.001Z</time></trkpt><trkpt lat="44.66782592482058" lon="12.246591196519816"><ele>3.9999999999999996</ele><time>2026-03-29T12:56:00.001Z</time></trkpt><trkpt lat="44.66773481806027" lon="12.246611085575966"><ele>4.0</ele><time>2026-03-29T12:56:01.001Z</time></trkpt><trkpt lat="44.667638442334756" lon="12.24663496455677"><ele>4.2</ele><time>2026-03-29T12:56:02.001Z</time></trkpt><trkpt lat="44.6675362934578" lon="12.246656468831132"><ele>4.4</ele><time>2026-03-29T12:56:03.001Z</time></trkpt><trkpt lat="44.667451776265885" lon="12.246664240513855"><ele>4.6</ele><time>2026-03-29T12:56:04.001Z</time></trkpt><trkpt lat="44.66737828437274" lon="12.246669843710306"><ele>4.8</ele><time>2026-03-29T12:56:05.001Z</time></trkpt><trkpt lat="44.667259337529515" lon="12.246666748153649"><ele>5.0</ele><time>2026-03-29T12:56:07.001Z</time></trkpt><trkpt lat="44.667136576770204" lon="12.246606501400262"><ele>5.0</ele><time>2026-03-29T12:56:09.001Z</time></trkpt><trkpt lat="44.667071655122946" lon="12.246593574457338"><ele>5.0</ele><time>2026-03-29T12:56:10.001Z</time></trkpt><trkpt lat="44.66700778924729" lon="12.246633312743937"><ele>5.0</ele><time>2026-03-29T12:56:11.001Z</time></trkpt><trkpt lat="44.66694689055048" lon="12.24669380193548"><ele>5.0</ele><time>2026-03-29T12:56:12.001Z</time></trkpt><trkpt lat="44.66688251588761" lon="12.246715232271645"><ele>5.0</ele><time>2026-03-29T12:56:13.001Z</time></trkpt><trkpt lat="44.66680064264375" lon="12.24671981121667"><ele>5.0</ele><time>2026-03-29T12:56:14.001Z</time></trkpt><trkpt lat="44.666711413148235" lon="12.246728517356933"><ele>5.0</ele><time>2026-03-29T12:56:15.001Z</time></trkpt><trkpt lat="44.66661888401754" lon="12.246742495552672"><ele>5.166666666666667</ele><time>2026-03-29T12:56:16.001Z</time></trkpt><trkpt lat="44.66653159933787" lon="12.246753704009585"><ele>5.333333333333334</ele><time>2026-03-29T12:56:17.001Z</time></trkpt><trkpt lat="44.66644257112335" lon="12.246756436870076"><ele>5.5</ele><time>2026-03-29T12:56:18.001Z</time></trkpt><trkpt lat="44.66635700040388" lon="12.246762607853226"><ele>5.666666666666667</ele><time>2026-03-29T12:56:19.001Z</time></trkpt><trkpt lat="44.66626603989486" lon="12.2467799898145"><ele>5.833333333333333</ele><time>2026-03-29T12:56:20.001Z</time></trkpt><trkpt lat="44.66618074428953" lon="12.246790674780854"><ele>6.0</ele><time>2026-03-29T12:56:21.001Z</time></trkpt><trkpt lat="44.666100106594655" lon="12.246794714893374"><ele>6.166666666666667</ele><time>2026-03-29T12:56:22.001Z</time></trkpt><trkpt lat="44.66602448879562" lon="12.24679785386609"><ele>6.333333333333334</ele><time>2026-03-29T12:56:23.001Z</time></trkpt><trkpt lat="44.66594423164468" lon="12.246814696335194"><ele>6.5</ele><time>2026-03-29T12:56:24.001Z</time></trkpt><trkpt lat="44.66586581329012" lon="12.246839452346293"><ele>6.666666666666667</ele><time>2026-03-29T12:56:25.001Z</time></trkpt><trkpt lat="44.66578813057612" lon="12.246870838462579"><ele>6.833333333333334</ele><time>2026-03-29T12:56:26.001Z</time></trkpt><trkpt lat="44.66571005515709" lon="12.246888130366148"><ele>7.0</ele><time>2026-03-29T12:56:27.001Z</time></trkpt><trkpt lat="44.66563607898581" lon="12.246906540613145"><ele>7.000000000000001</ele><time>2026-03-29T12:56:28.001Z</time></trkpt><trkpt lat="44.66555730956003" lon="12.246928139535129"><ele>7.0</ele><time>2026-03-29T12:56:29.001Z</time></trkpt><trkpt lat="44.66548039245689" lon="12.246948683063975"><ele>7.0</ele><time>2026-03-29T12:56:30.001Z</time></trkpt><trkpt lat="44.66540098339332" lon="12.246970314297998"><ele>7.0</ele><time>2026-03-29T12:56:31.001Z</time></trkpt><trkpt lat="44.66531729470161" lon="12.246989634637812"><ele>7.000000000000001</ele><time>2026-03-29T12:56:32.001Z</time></trkpt><trkpt lat="44.665234993113735" lon="12.247006685934577"><ele>7.0</ele><time>2026-03-29T12:56:33.001Z</time></trkpt><trkpt lat="44.66514641698176" lon="12.247020110400289"><ele>6.6</ele><time>2026-03-29T12:56:34.001Z</time></trkpt><trkpt lat="44.66505973741182" lon="12.247029789253215"><ele>6.199999999999999</ele><time>2026-03-29T12:56:35.001Z</time></trkpt><trkpt lat="44.664962777930135" lon="12.24703915796584"><ele>5.8</ele><time>2026-03-29T12:56:36.001Z</time></trkpt><trkpt lat="44.6648645148553" lon="12.247054861836677"><ele>5.4</ele><time>2026-03-29T12:56:37.001Z</time></trkpt><trkpt lat="44.66476762372644" lon="12.24707901538884"><ele>5.0</ele><time>2026-03-29T12:56:38.001Z</time></trkpt><trkpt lat="44.664685793409795" lon="12.247104505437699"><ele>5.0</ele><time>2026-03-29T12:56:39.001Z</time></trkpt><trkpt lat="44.66460741179976" lon="12.247133641730732"><ele>5.0</ele><time>2026-03-29T12:56:40.001Z</time></trkpt><trkpt lat="44.66452277748282" lon="12.247155024284337"><ele>5.0</ele><time>2026-03-29T12:56:41.001Z</time></trkpt><trkpt lat="44.66443461780149" lon="12.247178891586985"><ele>5.0</ele><time>2026-03-29T12:56:42.001Z</time></trkpt><trkpt lat="44.66434574776482" lon="12.247201805452113"><ele>5.0</ele><time>2026-03-29T12:56:43.001Z</time></trkpt><trkpt lat="44.66425636275388" lon="12.247225784016841"><ele>5.0</ele><time>2026-03-29T12:56:44.001Z</time></trkpt><trkpt lat="44.66416993996543" lon="12.247251250001518"><ele>5.0</ele><time>2026-03-29T12:56:45.001Z</time></trkpt><trkpt lat="44.66408977092921" lon="12.24727044715829"><ele>5.0</ele><time>2026-03-29T12:56:46.001Z</time></trkpt><trkpt lat="44.66400483707704" lon="12.247281851878752"><ele>5.0</ele><time>2026-03-29T12:56:47.001Z</time></trkpt><trkpt lat="44.66392762668046" lon="12.247295057831892"><ele>5.0</ele><time>2026-03-29T12:56:48.001Z</time></trkpt><trkpt lat="44.6638451846629" lon="12.247311086888343"><ele>5.0</ele><time>2026-03-29T12:56:49.001Z</time></trkpt><trkpt lat="44.66375961241025" lon="12.247323685010912"><ele>5.0</ele><time>2026-03-29T12:56:50.002Z</time></trkpt><trkpt lat="44.66367295739653" lon="12.24733211346227"><ele>4.5</ele><time>2026-03-29T12:56:51.002Z</time></trkpt><trkpt lat="44.66358909074298" lon="12.24734150978735"><ele>4.0</ele><time>2026-03-29T12:56:52.002Z</time></trkpt><trkpt lat="44.66350184243621" lon="12.24735115396639"><ele>3.5</ele><time>2026-03-29T12:56:53.002Z</time></trkpt><trkpt lat="44.6634173856177" lon="12.247363044318"><ele>3.0</ele><time>2026-03-29T12:56:54.002Z</time></trkpt><trkpt lat="44.663329103529875" lon="12.247374408024806"><ele>2.5</ele><time>2026-03-29T12:56:55.002Z</time></trkpt><trkpt lat="44.66323802991624" lon="12.247378526334396"><ele>2.0</ele><time>2026-03-29T12:56:56.002Z</time></trkpt><trkpt lat="44.66314669180781" lon="12.247389294177136"><ele>1.9999999999999998</ele><time>2026-03-29T12:56:57.002Z</time></trkpt><trkpt lat="44.66305391347992" lon="12.247414142475687"><ele>2.0</ele><time>2026-03-29T12:56:58.002Z</time></trkpt><trkpt lat="44.662966761550585" lon="12.247434459691132"><ele>2.0</ele><time>2026-03-29T12:56:59.002Z</time></trkpt><trkpt lat="44.66289134481105" lon="12.247443651311611"><ele>2.0</ele><time>2026-03-29T12:57:00.002Z</time></trkpt><trkpt lat="44.66281766933583" lon="12.247461752815765"><ele>1.9999999999999998</ele><time>2026-03-29T12:57:01.002Z</time></trkpt><trkpt lat="44.662734196723534" lon="12.247481601494979"><ele>2.0</ele><time>2026-03-29T12:57:02.002Z</time></trkpt><trkpt lat="44.66264734913403" lon="12.24749796710893"><ele>1.9999999999999998</ele><time>2026-03-29T12:57:03.002Z</time></trkpt><trkpt lat="44.662558350976134" lon="12.247518818970022"><ele>2.0</ele><time>2026-03-29T12:57:04.002Z</time></trkpt><trkpt lat="44.662465911078" lon="12.247539023024267"><ele>2.0</ele><time>2026-03-29T12:57:05.002Z</time></trkpt><trkpt lat="44.662382945001276" lon="12.247550579367514"><ele>2.0</ele><time>2026-03-29T12:57:06.002Z</time></trkpt><trkpt lat="44.662298291553576" lon="12.247553041852651"><ele>1.9999999999999998</ele><time>2026-03-29T12:57:07.002Z</time></trkpt><trkpt lat="44.662212345807454" lon="12.247555089342463"><ele>2.0</ele><time>2026-03-29T12:57:08.002Z</time></trkpt><trkpt lat="44.662130706156226" lon="12.247558478195552"><ele>2.0</ele><time>2026-03-29T12:57:09.002Z</time></trkpt><trkpt lat="44.66205226322762" lon="12.247561540878829"><ele>2.0</ele><time>2026-03-29T12:57:10.002Z</time></trkpt><trkpt lat="44.66196186294975" lon="12.247569589879719"><ele>2.0</ele><time>2026-03-29T12:57:11.002Z</time></trkpt><trkpt lat="44.66187222937589" lon="12.247572933927826"><ele>2.0</ele><time>2026-03-29T12:57:12.002Z</time></trkpt><trkpt lat="44.66177550631565" lon="12.247580363389792"><ele>2.0</ele><time>2026-03-29T12:57:13.002Z</time></trkpt><trkpt lat="44.661681437158904" lon="12.247590315643027"><ele>2.4000000000000004</ele><time>2026-03-29T12:57:14.002Z</time></trkpt><trkpt lat="44.66158415865965" lon="12.247607430122317"><ele>2.8000000000000003</ele><time>2026-03-29T12:57:15.002Z</time></trkpt><trkpt lat="44.6614749378149" lon="12.24764010980532"><ele>3.2</ele><time>2026-03-29T12:57:16Z</time></trkpt><trkpt lat="44.66136709431719" lon="12.247669911774684"><ele>3.6</ele><time>2026-03-29T12:57:17Z</time></trkpt><trkpt lat="44.66127974686887" lon="12.247697581034505"><ele>4.0</ele><time>2026-03-29T12:57:18Z</time></trkpt><trkpt lat="44.661205691905785" lon="12.247717230937274"><ele>4.0</ele><time>2026-03-29T12:57:19Z</time></trkpt><trkpt lat="44.66113783867853" lon="12.247738531633148"><ele>3.9999999999999996</ele><time>2026-03-29T12:57:20Z</time></trkpt><trkpt lat="44.661075405451534" lon="12.24776326850002"><ele>4.0</ele><time>2026-03-29T12:57:21Z</time></trkpt><trkpt lat="44.661012505789074" lon="12.24778095665244"><ele>4.0</ele><time>2026-03-29T12:57:22Z</time></trkpt><trkpt lat="44.66094549902848" lon="12.24780195653331"><ele>3.9999999999999996</ele><time>2026-03-29T12:57:23Z</time></trkpt><trkpt lat="44.660884327818636" lon="12.247823826960042"><ele>4.0</ele><time>2026-03-29T12:57:24Z</time></trkpt><trkpt lat="44.66078759007866" lon="12.24781501007168"><ele>4.0</ele><time>2026-03-29T12:57:26Z</time></trkpt><trkpt lat="44.66071723089639" lon="12.247683126955756"><ele>4.166666666666666</ele><time>2026-03-29T12:57:28Z</time></trkpt><trkpt lat="44.6607238087272" lon="12.24757482226827"><ele>4.333333333333333</ele><time>2026-03-29T12:57:29Z</time></trkpt><trkpt lat="44.66069284291051" lon="12.247474870355827"><ele>4.5</ele><time>2026-03-29T12:57:30Z</time></trkpt><trkpt lat="44.660672030829815" lon="12.247372289940735"><ele>4.666666666666667</ele><time>2026-03-29T12:57:31Z</time></trkpt><trkpt lat="44.66064714315843" lon="12.247268385153971"><ele>4.833333333333334</ele><time>2026-03-29T12:57:32Z</time></trkpt><trkpt lat="44.66062859265137" lon="12.247149150180888"><ele>5.0</ele><time>2026-03-29T12:57:33Z</time></trkpt><trkpt lat="44.66060376791986" lon="12.24701038837936"><ele>5.666666666666667</ele><time>2026-03-29T12:57:34Z</time></trkpt><trkpt lat="44.660574025620356" lon="12.246873839531084"><ele>6.333333333333334</ele><time>2026-03-29T12:57:35Z</time></trkpt><trkpt lat="44.66055174605049" lon="12.246763979415858"><ele>7.0</ele><time>2026-03-29T12:57:36Z</time></trkpt><trkpt lat="44.66053291226815" lon="12.246671350369922"><ele>7.666666666666667</ele><time>2026-03-29T12:57:37Z</time></trkpt><trkpt lat="44.660512406129655" lon="12.246575571519756"><ele>8.333333333333334</ele><time>2026-03-29T12:57:38Z</time></trkpt><trkpt lat="44.66049216304849" lon="12.246475466185885"><ele>9.0</ele><time>2026-03-29T12:57:39Z</time></trkpt><trkpt lat="44.66047153137318" lon="12.246370131942566"><ele>9.166666666666666</ele><time>2026-03-29T12:57:40Z</time></trkpt><trkpt lat="44.66044815699208" lon="12.246267651180691"><ele>9.333333333333334</ele><time>2026-03-29T12:57:41Z</time></trkpt><trkpt lat="44.66042835565194" lon="12.246165296058084"><ele>9.5</ele><time>2026-03-29T12:57:42Z</time></trkpt><trkpt lat="44.660411205801914" lon="12.2460567174629"><ele>9.666666666666668</ele><time>2026-03-29T12:57:43Z</time></trkpt><trkpt lat="44.66038943826507" lon="12.24595986897932"><ele>9.833333333333334</ele><time>2026-03-29T12:57:44Z</time></trkpt><trkpt lat="44.6603730796867" lon="12.245861569136085"><ele>10.0</ele><time>2026-03-29T12:57:45Z</time></trkpt><trkpt lat="44.66035568409939" lon="12.245746539450863"><ele>10.0</ele><time>2026-03-29T12:57:46Z</time></trkpt><trkpt lat="44.66033482552994" lon="12.245662867332081"><ele>10.0</ele><time>2026-03-29T12:57:47Z</time></trkpt><trkpt lat="44.66030648362174" lon="12.245512646209521"><ele>10.0</ele><time>2026-03-29T12:57:49Z</time></trkpt><trkpt lat="44.66029248101584" lon="12.245419276015683"><ele>10.0</ele><time>2026-03-29T12:57:50Z</time></trkpt><trkpt lat="44.660282667852606" lon="12.245322674396418"><ele>10.0</ele><time>2026-03-29T12:57:51Z</time></trkpt><trkpt lat="44.66027695022739" lon="12.245229901707946"><ele>10.0</ele><time>2026-03-29T12:57:52Z</time></trkpt><trkpt lat="44.66027131364749" lon="12.245066681710487"><ele>9.6</ele><time>2026-03-29T12:57:54Z</time></trkpt><trkpt lat="44.66027571929392" lon="12.244923993813263"><ele>9.2</ele><time>2026-03-29T12:57:56Z</time></trkpt><trkpt lat="44.66028339487896" lon="12.244822258435285"><ele>8.8</ele><time>2026-03-29T12:57:58Z</time></trkpt><trkpt lat="44.66029782279359" lon="12.244727941593775"><ele>8.4</ele><time>2026-03-29T12:58:02Z</time></trkpt><trkpt lat="44.66029262597311" lon="12.244627868120892"><ele>8.0</ele><time>2026-03-29T12:58:06.001Z</time></trkpt><trkpt lat="44.660159138734805" lon="12.24455624043448"><ele>6.999999999999999</ele><time>2026-03-29T12:58:14.001Z</time></trkpt><trkpt lat="44.66008727359779" lon="12.244578034762299"><ele>6.0</ele><time>2026-03-29T12:58:15.001Z</time></trkpt><trkpt lat="44.66001883366169" lon="12.244583699781401"><ele>5.0</ele><time>2026-03-29T12:58:16.001Z</time></trkpt><trkpt lat="44.65992840473676" lon="12.244593167431121"><ele>4.0</ele><time>2026-03-29T12:58:17.001Z</time></trkpt><trkpt lat="44.65981893966513" lon="12.244609664447001"><ele>3.0</ele><time>2026-03-29T12:58:18.001Z</time></trkpt><trkpt lat="44.6597229418305" lon="12.244626782979724"><ele>2.0</ele><time>2026-03-29T12:58:19.001Z</time></trkpt><trkpt lat="44.659640725805225" lon="12.244642040537254"><ele>1.9999999999999998</ele><time>2026-03-29T12:58:20.001Z</time></trkpt><trkpt lat="44.65956808809552" lon="12.244652994423133"><ele>2.0</ele><time>2026-03-29T12:58:21.001Z</time></trkpt><trkpt lat="44.6594779322815" lon="12.244665699647761"><ele>2.0</ele><time>2026-03-29T12:58:22.001Z</time></trkpt><trkpt lat="44.65938497185208" lon="12.244677280428343"><ele>2.0</ele><time>2026-03-29T12:58:23.001Z</time></trkpt><trkpt lat="44.65930352051394" lon="12.244692555368768"><ele>1.9999999999999998</ele><time>2026-03-29T12:58:24.001Z</time></trkpt><trkpt lat="44.659231095364945" lon="12.244709834525974"><ele>2.0</ele><time>2026-03-29T12:58:25.001Z</time></trkpt><trkpt lat="44.65915315710504" lon="12.24469708168069"><ele>3.0</ele><time>2026-03-29T12:58:26.001Z</time></trkpt><trkpt lat="44.65907371927666" lon="12.244724106945881"><ele>4.0</ele><time>2026-03-29T12:58:27.001Z</time></trkpt><trkpt lat="44.65897152885368" lon="12.244722635939075"><ele>4.999999999999999</ele><time>2026-03-29T12:58:28.001Z</time></trkpt><trkpt lat="44.65886687839032" lon="12.24473615662656"><ele>6.0</ele><time>2026-03-29T12:58:29.001Z</time></trkpt><trkpt lat="44.65877315730089" lon="12.244750784005793"><ele>7.0</ele><time>2026-03-29T12:58:30.001Z</time></trkpt><trkpt lat="44.658690603580695" lon="12.244761090095034"><ele>7.166666666666667</ele><time>2026-03-29T12:58:31.001Z</time></trkpt><trkpt lat="44.65860921349008" lon="12.244775565155795"><ele>7.333333333333334</ele><time>2026-03-29T12:58:32.001Z</time></trkpt><trkpt lat="44.65853343750219" lon="12.244787042463962"><ele>7.5</ele><time>2026-03-29T12:58:33.001Z</time></trkpt><trkpt lat="44.65845971631603" lon="12.244800687960966"><ele>7.666666666666666</ele><time>2026-03-29T12:58:34.001Z</time></trkpt><trkpt lat="44.65838087568378" lon="12.244814483728147"><ele>7.833333333333333</ele><time>2026-03-29T12:58:35.001Z</time></trkpt><trkpt lat="44.658302976741396" lon="12.244829364557187"><ele>8.0</ele><time>2026-03-29T12:58:36.001Z</time></trkpt><trkpt lat="44.658237150005704" lon="12.244834021221449"><ele>8.0</ele><time>2026-03-29T12:58:37.001Z</time></trkpt><trkpt lat="44.658171883187755" lon="12.244844376800444"><ele>8.0</ele><time>2026-03-29T12:58:38.001Z</time></trkpt><trkpt lat="44.658064439101175" lon="12.244846236335878"><ele>8.0</ele><time>2026-03-29T12:58:40.001Z</time></trkpt><trkpt lat="44.65799351100209" lon="12.244836138957188"><ele>8.0</ele><time>2026-03-29T12:58:42.001Z</time></trkpt><trkpt lat="44.65796102262978" lon="12.244624294338703"><ele>8.0</ele><time>2026-03-29T12:58:43.001Z</time></trkpt><trkpt lat="44.6579418594997" lon="12.244508169835974"><ele>8.0</ele><time>2026-03-29T12:58:44.001Z</time></trkpt><trkpt lat="44.65791020218037" lon="12.24437709623752"><ele>8.0</ele><time>2026-03-29T12:58:45.001Z</time></trkpt><trkpt lat="44.65787707010842" lon="12.244250344162381"><ele>8.0</ele><time>2026-03-29T12:58:46.001Z</time></trkpt><trkpt lat="44.65784335358395" lon="12.244115981416714"><ele>8.0</ele><time>2026-03-29T12:58:47.001Z</time></trkpt><trkpt lat="44.65781095799443" lon="12.24398614594795"><ele>8.0</ele><time>2026-03-29T12:58:48.001Z</time></trkpt><trkpt lat="44.65777972505774" lon="12.243872643189341"><ele>7.5</ele><time>2026-03-29T12:58:49.001Z</time></trkpt><trkpt lat="44.6577170173913" lon="12.243648981547446"><ele>7.0</ele><time>2026-03-29T12:58:51.001Z</time></trkpt><trkpt lat="44.65768060732212" lon="12.243522642380597"><ele>6.5</ele><time>2026-03-29T12:58:52.001Z</time></trkpt><trkpt lat="44.657644841103924" lon="12.243395046942627"><ele>6.0</ele><time>2026-03-29T12:58:53.001Z</time></trkpt><trkpt lat="44.657606518523124" lon="12.243257827011337"><ele>5.8</ele><time>2026-03-29T12:58:54.001Z</time></trkpt><trkpt lat="44.657568524923335" lon="12.243096314092439"><ele>5.6</ele><time>2026-03-29T12:58:55.001Z</time></trkpt><trkpt lat="44.65751483892798" lon="12.242958201298604"><ele>5.4</ele><time>2026-03-29T12:58:56.001Z</time></trkpt><trkpt lat="44.65746798074239" lon="12.242835623875536"><ele>5.2</ele><time>2026-03-29T12:58:57.001Z</time></trkpt><trkpt lat="44.65740765283962" lon="12.242719085900607"><ele>5.0</ele><time>2026-03-29T12:58:58.001Z</time></trkpt><trkpt lat="44.657349476100215" lon="12.242592520859372"><ele>5.0</ele><time>2026-03-29T12:58:59.001Z</time></trkpt><trkpt lat="44.65728190899672" lon="12.242458396102581"><ele>5.0</ele><time>2026-03-29T12:59:00.001Z</time></trkpt><trkpt lat="44.657206995233864" lon="12.242322279876094"><ele>5.0</ele><time>2026-03-29T12:59:01.001Z</time></trkpt><trkpt lat="44.65712360098913" lon="12.242196428473632"><ele>5.0</ele><time>2026-03-29T12:59:02.001Z</time></trkpt><trkpt lat="44.65702847946227" lon="12.242092300978571"><ele>4.6</ele><time>2026-03-29T12:59:03.001Z</time></trkpt><trkpt lat="44.656947140259575" lon="12.24200712612202"><ele>4.2</ele><time>2026-03-29T12:59:04.001Z</time></trkpt><trkpt lat="44.65685382109508" lon="12.241923956373556"><ele>3.8</ele><time>2026-03-29T12:59:05.001Z</time></trkpt><trkpt lat="44.65676432026576" lon="12.241834669325165"><ele>3.4</ele><time>2026-03-29T12:59:06.001Z</time></trkpt><trkpt lat="44.656677896765935" lon="12.241742166062815"><ele>3.0</ele><time>2026-03-29T12:59:07.001Z</time></trkpt><trkpt lat="44.656576647127984" lon="12.241653851860242"><ele>3.0</ele><time>2026-03-29T12:59:08.001Z</time></trkpt><trkpt lat="44.65649112168782" lon="12.241545278324425"><ele>3.0</ele><time>2026-03-29T12:59:09.001Z</time></trkpt><trkpt lat="44.65637210089464" lon="12.241493353161253"><ele>3.0</ele><time>2026-03-29T12:59:10.001Z</time></trkpt><trkpt lat="44.65625453169381" lon="12.241429049599365"><ele>3.0</ele><time>2026-03-29T12:59:11.001Z</time></trkpt><trkpt lat="44.65613257416416" lon="12.24137873167628"><ele>2.25</ele><time>2026-03-29T12:59:12.001Z</time></trkpt><trkpt lat="44.65601074219229" lon="12.241319959183496"><ele>1.5</ele><time>2026-03-29T12:59:13.001Z</time></trkpt><trkpt lat="44.655863693182035" lon="12.241259806687594"><ele>0.75</ele><time>2026-03-29T12:59:14.001Z</time></trkpt><trkpt lat="44.655706202798946" lon="12.24119747198561"><ele>0.0</ele><time>2026-03-29T12:59:15.001Z</time></trkpt><trkpt lat="44.65553424689803" lon="12.241133170322005"><ele>0.0</ele><time>2026-03-29T12:59:16.001Z</time></trkpt><trkpt lat="44.655388876086334" lon="12.241087953302372"><ele>0.0</ele><time>2026-03-29T12:59:17.001Z</time></trkpt><trkpt lat="44.65525782497836" lon="12.241057385230969"><ele>0.0</ele><time>2026-03-29T12:59:18.001Z</time></trkpt><trkpt lat="44.65513411681487" lon="12.241029105162022"><ele>0.0</ele><time>2026-03-29T12:59:19.001Z</time></trkpt><trkpt lat="44.65502127296169" lon="12.241007054512895"><ele>0.0</ele><time>2026-03-29T12:59:20.001Z</time></trkpt><trkpt lat="44.65491863262086" lon="12.240987000511119"><ele>0.0</ele><time>2026-03-29T12:59:21.001Z</time></trkpt><trkpt lat="44.65482535294101" lon="12.240964398714363"><ele>0.0</ele><time>2026-03-29T12:59:22Z</time></trkpt><trkpt lat="44.654749329661826" lon="12.240944423688449"><ele>0.0</ele><time>2026-03-29T12:59:23Z</time></trkpt><trkpt lat="44.65465847550623" lon="12.240930977328052"><ele>0.0</ele><time>2026-03-29T12:59:24Z</time></trkpt><trkpt lat="44.654548379696564" lon="12.240921735411293"><ele>0.0</ele><time>2026-03-29T12:59:25Z</time></trkpt><trkpt lat="44.65442674934621" lon="12.240909130506115"><ele>0.0</ele><time>2026-03-29T12:59:26Z</time></trkpt><trkpt lat="44.65430601482605" lon="12.240899310306576"><ele>0.0</ele><time>2026-03-29T12:59:27Z</time></trkpt><trkpt lat="44.654182144904176" lon="12.240893308168719"><ele>0.0</ele><time>2026-03-29T12:59:28Z</time></trkpt><trkpt lat="44.65405419522835" lon="12.240884501055909"><ele>0.0</ele><time>2026-03-29T12:59:29Z</time></trkpt><trkpt lat="44.65392052916724" lon="12.24087207815007"><ele>0.0</ele><time>2026-03-29T12:59:30Z</time></trkpt><trkpt lat="44.65378742134639" lon="12.240864010763078"><ele>0.0</ele><time>2026-03-29T12:59:31Z</time></trkpt><trkpt lat="44.653648285158624" lon="12.240874662917753"><ele>0.0</ele><time>2026-03-29T12:59:32Z</time></trkpt><trkpt lat="44.65350792427996" lon="12.240893189656832"><ele>0.0</ele><time>2026-03-29T12:59:33Z</time></trkpt><trkpt lat="44.653369639194885" lon="12.240899027044357"><ele>0.0</ele><time>2026-03-29T12:59:34Z</time></trkpt><trkpt lat="44.65323852520244" lon="12.240895936275713"><ele>0.0</ele><time>2026-03-29T12:59:35Z</time></trkpt><trkpt lat="44.65311154266859" lon="12.240899613883364"><ele>0.0</ele><time>2026-03-29T12:59:36Z</time></trkpt><trkpt lat="44.65296695508145" lon="12.240910091112186"><ele>0.0</ele><time>2026-03-29T12:59:37Z</time></trkpt><trkpt lat="44.652806511005025" lon="12.24092464815689"><ele>0.0</ele><time>2026-03-29T12:59:38Z</time></trkpt><trkpt lat="44.652642367394925" lon="12.240947922752715"><ele>0.0</ele><time>2026-03-29T12:59:39Z</time></trkpt><trkpt lat="44.65248364037827" lon="12.240972282527084"><ele>0.3333333333333333</ele><time>2026-03-29T12:59:40Z</time></trkpt><trkpt lat="44.652327278756175" lon="12.240998406883755"><ele>0.6666666666666666</ele><time>2026-03-29T12:59:41Z</time></trkpt><trkpt lat="44.652175150848684" lon="12.241024419145344"><ele>1.0</ele><time>2026-03-29T12:59:42Z</time></trkpt><trkpt lat="44.652019556826076" lon="12.241056613784998"><ele>1.3333333333333333</ele><time>2026-03-29T12:59:43Z</time></trkpt><trkpt lat="44.65185124753317" lon="12.241094005993645"><ele>1.6666666666666665</ele><time>2026-03-29T12:59:44Z</time></trkpt><trkpt lat="44.651691303628944" lon="12.241132935271999"><ele>2.0</ele><time>2026-03-29T12:59:45Z</time></trkpt><trkpt lat="44.6515545808207" lon="12.241167724223498"><ele>2.0</ele><time>2026-03-29T12:59:46Z</time></trkpt><trkpt lat="44.65142610405634" lon="12.241206632960312"><ele>2.0</ele><time>2026-03-29T12:59:47Z</time></trkpt><trkpt lat="44.65130089019328" lon="12.241246584004923"><ele>2.0</ele><time>2026-03-29T12:59:48Z</time></trkpt><trkpt lat="44.65117826402802" lon="12.241286334936332"><ele>2.0</ele><time>2026-03-29T12:59:49Z</time></trkpt><trkpt lat="44.65106593282503" lon="12.241334005040832"><ele>1.8</ele><time>2026-03-29T12:59:50Z</time></trkpt><trkpt lat="44.65096124590742" lon="12.241370538956946"><ele>1.6</ele><time>2026-03-29T12:59:51Z</time></trkpt><trkpt lat="44.65086728033575" lon="12.24140342097503"><ele>1.4000000000000001</ele><time>2026-03-29T12:59:52Z</time></trkpt><trkpt lat="44.65077295310006" lon="12.241440161739897"><ele>1.2000000000000002</ele><time>2026-03-29T12:59:53Z</time></trkpt><trkpt lat="44.65068450013814" lon="12.241474623701961"><ele>1.0</ele><time>2026-03-29T12:59:54Z</time></trkpt><trkpt lat="44.650605255444816" lon="12.241505449512662"><ele>1.1666666666666665</ele><time>2026-03-29T12:59:55Z</time></trkpt><trkpt lat="44.65052829705541" lon="12.241539510687668"><ele>1.3333333333333333</ele><time>2026-03-29T12:59:56Z</time></trkpt><trkpt lat="44.650460374551244" lon="12.241568311773387"><ele>1.5</ele><time>2026-03-29T12:59:57Z</time></trkpt><trkpt lat="44.650399858082366" lon="12.241596274453903"><ele>1.6666666666666665</ele><time>2026-03-29T12:59:58Z</time></trkpt><trkpt lat="44.65031961145325" lon="12.241631577782135"><ele>1.8333333333333333</ele><time>2026-03-29T12:59:59Z</time></trkpt><trkpt lat="44.65022189125076" lon="12.241679334279732"><ele>2.0</ele><time>2026-03-29T13:00:00Z</time></trkpt><trkpt lat="44.65002956843525" lon="12.241778803951487"><ele>2.0</ele><time>2026-03-29T13:00:02Z</time></trkpt><trkpt lat="44.649931204756655" lon="12.241838255847824"><ele>2.0</ele><time>2026-03-29T13:00:03Z</time></trkpt><trkpt lat="44.64982013330285" lon="12.241893944795398"><ele>2.0</ele><time>2026-03-29T13:00:04Z</time></trkpt><trkpt lat="44.649704186151894" lon="12.241950250890469"><ele>2.0</ele><time>2026-03-29T13:00:05Z</time></trkpt><trkpt lat="44.64959631499982" lon="12.242014906580119"><ele>2.0</ele><time>2026-03-29T13:00:06Z</time></trkpt><trkpt lat="44.64950236975808" lon="12.242066658840344"><ele>2.0</ele><time>2026-03-29T13:00:07Z</time></trkpt><trkpt lat="44.64939762579368" lon="12.24211072008564"><ele>2.0</ele><time>2026-03-29T13:00:08Z</time></trkpt><trkpt lat="44.64929739164909" lon="12.242167337743789"><ele>2.0</ele><time>2026-03-29T13:00:09Z</time></trkpt><trkpt lat="44.64919145475772" lon="12.242229834498987"><ele>2.0</ele><time>2026-03-29T13:00:10Z</time></trkpt><trkpt lat="44.649102545073724" lon="12.242280265376213"><ele>2.0</ele><time>2026-03-29T13:00:11Z</time></trkpt><trkpt lat="44.64902865320459" lon="12.242315683044518"><ele>2.0</ele><time>2026-03-29T13:00:12Z</time></trkpt><trkpt lat="44.64892317575827" lon="12.242366188022423"><ele>2.0</ele><time>2026-03-29T13:00:14Z</time></trkpt><trkpt lat="44.648847374480376" lon="12.242405759304951"><ele>2.0</ele><time>2026-03-29T13:00:16Z</time></trkpt><trkpt lat="44.64889441421565" lon="12.242606963464723"><ele>2.0</ele><time>2026-03-29T13:00:18Z</time></trkpt><trkpt lat="44.64893290715388" lon="12.242687213798717"><ele>1.9999999999999998</ele><time>2026-03-29T13:00:19Z</time></trkpt><trkpt lat="44.64896868013728" lon="12.242782794232347"><ele>2.0</ele><time>2026-03-29T13:00:20Z</time></trkpt><trkpt lat="44.648995934909635" lon="12.242873653737174"><ele>2.0</ele><time>2026-03-29T13:00:21Z</time></trkpt><trkpt lat="44.6490157764523" lon="12.242985225704402"><ele>2.0</ele><time>2026-03-29T13:00:22Z</time></trkpt><trkpt lat="44.64905295789462" lon="12.24310762303221"><ele>1.9999999999999998</ele><time>2026-03-29T13:00:23.001Z</time></trkpt><trkpt lat="44.649090601076026" lon="12.243241471774095"><ele>2.0</ele><time>2026-03-29T13:00:24.001Z</time></trkpt><trkpt lat="44.64912374307938" lon="12.243365661633751"><ele>2.333333333333333</ele><time>2026-03-29T13:00:25.001Z</time></trkpt><trkpt lat="44.64914830618703" lon="12.243472607488192"><ele>2.6666666666666665</ele><time>2026-03-29T13:00:26.001Z</time></trkpt><trkpt lat="44.649166266948875" lon="12.24356069273807"><ele>3.0</ele><time>2026-03-29T13:00:27.001Z</time></trkpt><trkpt lat="44.6491956336789" lon="12.243710277687292"><ele>3.333333333333333</ele><time>2026-03-29T13:00:29.001Z</time></trkpt><trkpt lat="44.649216588605974" lon="12.243835222351969"><ele>3.6666666666666665</ele><time>2026-03-29T13:00:31.001Z</time></trkpt><trkpt lat="44.64923837118836" lon="12.243938199689005"><ele>4.0</ele><time>2026-03-29T13:00:33.001Z</time></trkpt><trkpt lat="44.64924902865912" lon="12.244033887273092"><ele>4.0</ele><time>2026-03-29T13:00:35.001Z</time></trkpt><trkpt lat="44.649268903620055" lon="12.244180310828638"><ele>4.0</ele><time>2026-03-29T13:00:39.001Z</time></trkpt><trkpt lat="44.64927936948029" lon="12.24433278419013"><ele>4.0</ele><time>2026-03-29T13:00:41.001Z</time></trkpt><trkpt lat="44.64929120472682" lon="12.244438027486542"><ele>4.0</ele><time>2026-03-29T13:00:42.001Z</time></trkpt><trkpt lat="44.64928656658556" lon="12.244559281810536"><ele>4.0</ele><time>2026-03-29T13:00:43.001Z</time></trkpt><trkpt lat="44.64929189942979" lon="12.244667446702525"><ele>3.9999999999999996</ele><time>2026-03-29T13:00:44.001Z</time></trkpt><trkpt lat="44.649295841418244" lon="12.244780780152233"><ele>4.0</ele><time>2026-03-29T13:00:45.001Z</time></trkpt><trkpt lat="44.64929872844858" lon="12.244905066292525"><ele>4.0</ele><time>2026-03-29T13:00:46.001Z</time></trkpt><trkpt lat="44.64929909091152" lon="12.245027948224896"><ele>4.0</ele><time>2026-03-29T13:00:47.001Z</time></trkpt><trkpt lat="44.649298408429225" lon="12.245153201388089"><ele>3.9999999999999996</ele><time>2026-03-29T13:00:48.001Z</time></trkpt><trkpt lat="44.64929767964001" lon="12.245277332261887"><ele>4.0</ele><time>2026-03-29T13:00:49.001Z</time></trkpt><trkpt lat="44.64929422983547" lon="12.245407162513144"><ele>4.0</ele><time>2026-03-29T13:00:50.001Z</time></trkpt><trkpt lat="44.64929570937986" lon="12.245533880920453"><ele>4.0</ele><time>2026-03-29T13:00:51.001Z</time></trkpt><trkpt lat="44.64930046367964" lon="12.245661651895142"><ele>4.0</ele><time>2026-03-29T13:00:52.001Z</time></trkpt><trkpt lat="44.64930365582741" lon="12.245797837889846"><ele>4.0</ele><time>2026-03-29T13:00:53.001Z</time></trkpt><trkpt lat="44.64931469805548" lon="12.245931488243302"><ele>4.0</ele><time>2026-03-29T13:00:54.001Z</time></trkpt><trkpt lat="44.649324573121746" lon="12.246065054628742"><ele>4.333333333333333</ele><time>2026-03-29T13:00:55.001Z</time></trkpt><trkpt lat="44.64933156524333" lon="12.246203755372697"><ele>4.666666666666666</ele><time>2026-03-29T13:00:56.001Z</time></trkpt><trkpt lat="44.64933998752531" lon="12.246328255632543"><ele>5.0</ele><time>2026-03-29T13:00:57.001Z</time></trkpt><trkpt lat="44.64934972567017" lon="12.246444401122213"><ele>5.333333333333333</ele><time>2026-03-29T13:00:58.001Z</time></trkpt><trkpt lat="44.64935496628026" lon="12.246561208076193"><ele>5.666666666666667</ele><time>2026-03-29T13:00:59.001Z</time></trkpt><trkpt lat="44.64937785083983" lon="12.246669781642268"><ele>6.0</ele><time>2026-03-29T13:01:00.001Z</time></trkpt><trkpt lat="44.649393149041884" lon="12.246786991140947"><ele>5.999999999999999</ele><time>2026-03-29T13:01:01.001Z</time></trkpt><trkpt lat="44.64940653214659" lon="12.246884490725282"><ele>6.0</ele><time>2026-03-29T13:01:02.001Z</time></trkpt><trkpt lat="44.64941353159821" lon="12.246978718706108"><ele>6.0</ele><time>2026-03-29T13:01:03.001Z</time></trkpt><trkpt lat="44.64942274818431" lon="12.247067519589882"><ele>6.0</ele><time>2026-03-29T13:01:04.001Z</time></trkpt><trkpt lat="44.64943591058529" lon="12.247158486774433"><ele>6.0</ele><time>2026-03-29T13:01:05.001Z</time></trkpt><trkpt lat="44.64943682598581" lon="12.24725302118611"><ele>5.999999999999999</ele><time>2026-03-29T13:01:06.001Z</time></trkpt><trkpt lat="44.64944813078232" lon="12.247353878553854"><ele>6.0</ele><time>2026-03-29T13:01:07.001Z</time></trkpt><trkpt lat="44.64946140414069" lon="12.24746046139021"><ele>6.333333333333333</ele><time>2026-03-29T13:01:08.001Z</time></trkpt><trkpt lat="44.6494759165502" lon="12.247577008204763"><ele>6.666666666666666</ele><time>2026-03-29T13:01:09.001Z</time></trkpt><trkpt lat="44.64950485552744" lon="12.247690040225"><ele>7.0</ele><time>2026-03-29T13:01:10.001Z</time></trkpt><trkpt lat="44.64951940514474" lon="12.24780059807859"><ele>7.333333333333333</ele><time>2026-03-29T13:01:11.001Z</time></trkpt><trkpt lat="44.64952807050842" lon="12.247888703455429"><ele>7.666666666666666</ele><time>2026-03-29T13:01:12.001Z</time></trkpt><trkpt lat="44.649537636714484" lon="12.248007596358956"><ele>8.0</ele><time>2026-03-29T13:01:14.001Z</time></trkpt><trkpt lat="44.64954783586027" lon="12.24810149138388"><ele>8.333333333333332</ele><time>2026-03-29T13:01:17.001Z</time></trkpt><trkpt lat="44.64954913275009" lon="12.24819078491342"><ele>8.666666666666666</ele><time>2026-03-29T13:01:20.001Z</time></trkpt><trkpt lat="44.64956439912532" lon="12.248331035395779"><ele>9.0</ele><time>2026-03-29T13:01:23.001Z</time></trkpt><trkpt lat="44.649595160370616" lon="12.248481620215689"><ele>9.333333333333334</ele><time>2026-03-29T13:01:25.001Z</time></trkpt><trkpt lat="44.649615779862835" lon="12.248576506636793"><ele>9.666666666666668</ele><time>2026-03-29T13:01:26.001Z</time></trkpt><trkpt lat="44.64963968376631" lon="12.248692293125693"><ele>10.0</ele><time>2026-03-29T13:01:27.001Z</time></trkpt><trkpt lat="44.649654465621296" lon="12.248791777429547"><ele>10.0</ele><time>2026-03-29T13:01:28Z</time></trkpt><trkpt lat="44.649659940807126" lon="12.248883489654766"><ele>10.0</ele><time>2026-03-29T13:01:29Z</time></trkpt><trkpt lat="44.64968538141407" lon="12.249003409209656"><ele>10.0</ele><time>2026-03-29T13:01:31Z</time></trkpt><trkpt lat="44.64969929550414" lon="12.249109654596555"><ele>10.0</ele><time>2026-03-29T13:01:33Z</time></trkpt><trkpt lat="44.649720361916344" lon="12.249231436177302"><ele>10.0</ele><time>2026-03-29T13:01:36Z</time></trkpt><trkpt lat="44.64974230881519" lon="12.249347083121457"><ele>10.0</ele><time>2026-03-29T13:01:39Z</time></trkpt><trkpt lat="44.64977374779591" lon="12.249491384261027"><ele>9.833333333333334</ele><time>2026-03-29T13:01:41Z</time></trkpt><trkpt lat="44.64979821545755" lon="12.249583985506137"><ele>9.666666666666668</ele><time>2026-03-29T13:01:42Z</time></trkpt><trkpt lat="44.649819178401515" lon="12.249679491137368"><ele>9.5</ele><time>2026-03-29T13:01:43Z</time></trkpt><trkpt lat="44.64982261335756" lon="12.249793218900484"><ele>9.333333333333334</ele><time>2026-03-29T13:01:44Z</time></trkpt><trkpt lat="44.64983538795122" lon="12.249884348226388"><ele>9.166666666666666</ele><time>2026-03-29T13:01:45Z</time></trkpt><trkpt lat="44.649853762401186" lon="12.250031666225473"><ele>9.0</ele><time>2026-03-29T13:01:47Z</time></trkpt><trkpt lat="44.649874827617204" lon="12.250153683071295"><ele>8.8</ele><time>2026-03-29T13:01:49Z</time></trkpt><trkpt lat="44.64990286430061" lon="12.25031557080041"><ele>8.600000000000001</ele><time>2026-03-29T13:01:51Z</time></trkpt><trkpt lat="44.64991752374553" lon="12.25043916253393"><ele>8.4</ele><time>2026-03-29T13:01:52Z</time></trkpt><trkpt lat="44.64994896474728" lon="12.250594694266091"><ele>8.200000000000001</ele><time>2026-03-29T13:01:53Z</time></trkpt><trkpt lat="44.64997123386883" lon="12.25073337162413"><ele>8.0</ele><time>2026-03-29T13:01:54Z</time></trkpt><trkpt lat="44.6499911289015" lon="12.250847046565415"><ele>7.666666666666666</ele><time>2026-03-29T13:01:55Z</time></trkpt><trkpt lat="44.65000685359509" lon="12.250938003478817"><ele>7.333333333333333</ele><time>2026-03-29T13:01:56Z</time></trkpt><trkpt lat="44.65003036561059" lon="12.251086271431781"><ele>7.0</ele><time>2026-03-29T13:01:58Z</time></trkpt><trkpt lat="44.65004600567218" lon="12.251218043724737"><ele>6.666666666666666</ele><time>2026-03-29T13:02:00Z</time></trkpt><trkpt lat="44.65004993854453" lon="12.251340487303429"><ele>6.333333333333333</ele><time>2026-03-29T13:02:02Z</time></trkpt><trkpt lat="44.65007180121533" lon="12.251440202569125"><ele>6.0</ele><time>2026-03-29T13:02:06Z</time></trkpt><trkpt lat="44.6500868218004" lon="12.251531126963709"><ele>5.5</ele><time>2026-03-29T13:02:09Z</time></trkpt><trkpt lat="44.6499515884533" lon="12.251590883826134"><ele>5.0</ele><time>2026-03-29T13:02:10Z</time></trkpt><trkpt lat="44.649880837472736" lon="12.251646279293851"><ele>4.5</ele><time>2026-03-29T13:02:12Z</time></trkpt><trkpt lat="44.64981391736989" lon="12.251695346785683"><ele>4.0</ele><time>2026-03-29T13:02:14Z</time></trkpt><trkpt lat="44.64966995528398" lon="12.251795880630517"><ele>4.0</ele><time>2026-03-29T13:02:17Z</time></trkpt><trkpt lat="44.64956441070414" lon="12.251850137810608"><ele>4.0</ele><time>2026-03-29T13:02:19Z</time></trkpt><trkpt lat="44.649482905471295" lon="12.251885975570007"><ele>4.0</ele><time>2026-03-29T13:02:20Z</time></trkpt><trkpt lat="44.64937586060987" lon="12.251923480082063"><ele>4.0</ele><time>2026-03-29T13:02:22.001Z</time></trkpt><trkpt lat="44.6492293204281" lon="12.251959382345959"><ele>4.333333333333333</ele><time>2026-03-29T13:02:24.001Z</time></trkpt><trkpt lat="44.64915901762385" lon="12.251971477687016"><ele>4.666666666666666</ele><time>2026-03-29T13:02:25.001Z</time></trkpt><trkpt lat="44.64905472918547" lon="12.25197408334684"><ele>5.0</ele><time>2026-03-29T13:02:27.001Z</time></trkpt><trkpt lat="44.648969656861055" lon="12.2519892260834"><ele>5.333333333333333</ele><time>2026-03-29T13:02:29.001Z</time></trkpt><trkpt lat="44.64889160827822" lon="12.251959795129837"><ele>5.666666666666667</ele><time>2026-03-29T13:02:31.001Z</time></trkpt><trkpt lat="44.64881640530197" lon="12.251972075240673"><ele>6.0</ele><time>2026-03-29T13:02:33.001Z</time></trkpt><trkpt lat="44.64875144560155" lon="12.252002763400702"><ele>6.0</ele><time>2026-03-29T13:02:35.001Z</time></trkpt><trkpt lat="44.64872023040307" lon="12.252115405112614"><ele>6.0</ele><time>2026-03-29T13:02:37.001Z</time></trkpt><trkpt lat="44.6486384417741" lon="12.252208324364558"><ele>6.0</ele><time>2026-03-29T13:02:39.001Z</time></trkpt><trkpt lat="44.648564123906404" lon="12.252276198153554"><ele>6.0</ele><time>2026-03-29T13:02:40.001Z</time></trkpt><trkpt lat="44.64849457045513" lon="12.25234643376148"><ele>6.0</ele><time>2026-03-29T13:02:41.001Z</time></trkpt><trkpt lat="44.64840840068367" lon="12.252449126450376"><ele>5.2</ele><time>2026-03-29T13:02:43.001Z</time></trkpt><trkpt lat="44.64829441349358" lon="12.252546283915848"><ele>4.3999999999999995</ele><time>2026-03-29T13:02:45.001Z</time></trkpt><trkpt lat="44.64823589780595" lon="12.252580520289603"><ele>3.6</ele><time>2026-03-29T13:02:46.001Z</time></trkpt><trkpt lat="44.64814195729768" lon="12.252639232742752"><ele>2.8</ele><time>2026-03-29T13:02:48.001Z</time></trkpt><trkpt lat="44.6480365649513" lon="12.252700653821078"><ele>2.0</ele><time>2026-03-29T13:02:50.001Z</time></trkpt><trkpt lat="44.647938247284806" lon="12.252755554885097"><ele>2.0</ele><time>2026-03-29T13:02:52.001Z</time></trkpt><trkpt lat="44.647834289222885" lon="12.252809430118592"><ele>2.0</ele><time>2026-03-29T13:02:54.001Z</time></trkpt><trkpt lat="44.64774114575865" lon="12.252859661422935"><ele>2.0</ele><time>2026-03-29T13:02:56.001Z</time></trkpt><trkpt lat="44.647639848649334" lon="12.252890026200868"><ele>2.0</ele><time>2026-03-29T13:02:58.001Z</time></trkpt><trkpt lat="44.64753875923736" lon="12.252888338729669"><ele>2.0</ele><time>2026-03-29T13:03:00.001Z</time></trkpt><trkpt lat="44.647432787342886" lon="12.25287513961806"><ele>2.1666666666666665</ele><time>2026-03-29T13:03:02.001Z</time></trkpt><trkpt lat="44.647353775543216" lon="12.25285825390528"><ele>2.333333333333333</ele><time>2026-03-29T13:03:04.001Z</time></trkpt><trkpt lat="44.64726053849947" lon="12.252831564924236"><ele>2.5</ele><time>2026-03-29T13:03:06.001Z</time></trkpt><trkpt lat="44.647190942937655" lon="12.252756104104819"><ele>2.6666666666666665</ele><time>2026-03-29T13:03:08.001Z</time></trkpt><trkpt lat="44.64711709560459" lon="12.252770062271178"><ele>2.8333333333333335</ele><time>2026-03-29T13:03:10.001Z</time></trkpt><trkpt lat="44.64710598262481" lon="12.252883825366707"><ele>3.0</ele><time>2026-03-29T13:03:11.001Z</time></trkpt><trkpt lat="44.6470771975001" lon="12.252965266323917"><ele>3.0</ele><time>2026-03-29T13:03:13.001Z</time></trkpt><trkpt lat="44.64704197506566" lon="12.253080991031888"><ele>3.0</ele><time>2026-03-29T13:03:41Z</time></trkpt><trkpt lat="44.64698098139134" lon="12.253167786913467"><ele>3.0</ele><time>2026-03-29T13:03:43Z</time></trkpt><trkpt lat="44.64689150503631" lon="12.253236027511713"><ele>3.0</ele><time>2026-03-29T13:03:45Z</time></trkpt><trkpt lat="44.646841581853295" lon="12.253343236537406"><ele>3.0</ele><time>2026-03-29T13:03:46Z</time></trkpt><trkpt lat="44.64677319077319" lon="12.253427176661468"><ele>2.9999999999999996</ele><time>2026-03-29T13:03:47Z</time></trkpt><trkpt lat="44.64671588666966" lon="12.253498988454668"><ele>3.0</ele><time>2026-03-29T13:03:48Z</time></trkpt><trkpt lat="44.646662320144166" lon="12.253554177547691"><ele>3.0</ele><time>2026-03-29T13:03:49Z</time></trkpt><trkpt lat="44.64660105265634" lon="12.253610819763846"><ele>3.0</ele><time>2026-03-29T13:03:50Z</time></trkpt><trkpt lat="44.64653691765352" lon="12.2536712582938"><ele>3.0</ele><time>2026-03-29T13:03:51Z</time></trkpt><trkpt lat="44.6464758281174" lon="12.253722830575782"><ele>2.9999999999999996</ele><time>2026-03-29T13:03:52Z</time></trkpt><trkpt lat="44.6464148858636" lon="12.253763933806681"><ele>3.0</ele><time>2026-03-29T13:03:53Z</time></trkpt><trkpt lat="44.646351718706626" lon="12.253805496112873"><ele>3.0</ele><time>2026-03-29T13:03:54Z</time></trkpt><trkpt lat="44.64628299388497" lon="12.253844047093395"><ele>3.0</ele><time>2026-03-29T13:03:55Z</time></trkpt><trkpt lat="44.64621883638318" lon="12.253870039797235"><ele>3.0</ele><time>2026-03-29T13:03:56Z</time></trkpt><trkpt lat="44.6461529832162" lon="12.253881974961612"><ele>3.0</ele><time>2026-03-29T13:03:57Z</time></trkpt><trkpt lat="44.64607809842723" lon="12.253885404183817"><ele>3.0</ele><time>2026-03-29T13:03:58Z</time></trkpt><trkpt lat="44.6459857708765" lon="12.253872009639782"><ele>3.0</ele><time>2026-03-29T13:03:59Z</time></trkpt><trkpt lat="44.64589937281119" lon="12.253854114066899"><ele>3.1666666666666665</ele><time>2026-03-29T13:04:00Z</time></trkpt><trkpt lat="44.64583318504585" lon="12.25384538958497"><ele>3.333333333333333</ele><time>2026-03-29T13:04:01Z</time></trkpt><trkpt lat="44.6457334835052" lon="12.253835458110796"><ele>3.5</ele><time>2026-03-29T13:04:03Z</time></trkpt><trkpt lat="44.645669504879024" lon="12.253815734781622"><ele>3.6666666666666665</ele><time>2026-03-29T13:04:04Z</time></trkpt><trkpt lat="44.64560143129067" lon="12.253781022942148"><ele>3.833333333333333</ele><time>2026-03-29T13:04:05Z</time></trkpt><trkpt lat="44.6454799146506" lon="12.253784293618057"><ele>4.0</ele><time>2026-03-29T13:04:07Z</time></trkpt><trkpt lat="44.6453931053344" lon="12.25379497153909"><ele>3.75</ele><time>2026-03-29T13:04:09Z</time></trkpt><trkpt lat="44.64529063834909" lon="12.253830713491041"><ele>3.5</ele><time>2026-03-29T13:04:10Z</time></trkpt><trkpt lat="44.64533037465636" lon="12.254032584461308"><ele>3.25</ele><time>2026-03-29T13:04:11Z</time></trkpt><trkpt lat="44.64525815520935" lon="12.254154625017268"><ele>3.0</ele><time>2026-03-29T13:04:13Z</time></trkpt><trkpt lat="44.64520368773771" lon="12.254268630053083"><ele>3.0</ele><time>2026-03-29T13:04:15Z</time></trkpt><trkpt lat="44.645132924821006" lon="12.254404057661832"><ele>3.0</ele><time>2026-03-29T13:04:17Z</time></trkpt><trkpt lat="44.645067675504336" lon="12.254507280975348"><ele>3.0</ele><time>2026-03-29T13:04:19Z</time></trkpt><trkpt lat="44.64497223776282" lon="12.254602494374685"><ele>3.0</ele><time>2026-03-29T13:04:21Z</time></trkpt><trkpt lat="44.644849667749085" lon="12.254676277511262"><ele>3.0</ele><time>2026-03-29T13:04:23Z</time></trkpt><trkpt lat="44.644763134762485" lon="12.254728447972585"><ele>3.0</ele><time>2026-03-29T13:04:24Z</time></trkpt><trkpt lat="44.64469304178568" lon="12.254754248129366"><ele>3.0</ele><time>2026-03-29T13:04:25Z</time></trkpt><trkpt lat="44.64458298657142" lon="12.254865093955528"><ele>3.0</ele><time>2026-03-29T13:04:27.001Z</time></trkpt><trkpt lat="44.644532143304986" lon="12.254943044914766"><ele>3.0</ele><time>2026-03-29T13:04:28.001Z</time></trkpt><trkpt lat="44.644468865383175" lon="12.255004934617341"><ele>3.1428571428571423</ele><time>2026-03-29T13:04:29.001Z</time></trkpt><trkpt lat="44.64440413421186" lon="12.255067230246846"><ele>3.2857142857142856</ele><time>2026-03-29T13:04:30.001Z</time></trkpt><trkpt lat="44.64434018074588" lon="12.25512437599859"><ele>3.4285714285714284</ele><time>2026-03-29T13:04:31.001Z</time></trkpt><trkpt lat="44.64427801075235" lon="12.255172669248795"><ele>3.571428571428571</ele><time>2026-03-29T13:04:32.001Z</time></trkpt><trkpt lat="44.644207839087024" lon="12.255216705314684"><ele>3.714285714285714</ele><time>2026-03-29T13:04:33.001Z</time></trkpt><trkpt lat="44.64413940059106" lon="12.2552586775151"><ele>3.8571428571428568</ele><time>2026-03-29T13:04:34.001Z</time></trkpt><trkpt lat="44.64407521755297" lon="12.255298826592153"><ele>4.0</ele><time>2026-03-29T13:04:35.001Z</time></trkpt><trkpt lat="44.644009728255334" lon="12.255337264540392"><ele>3.9999999999999996</ele><time>2026-03-29T13:04:36.001Z</time></trkpt><trkpt lat="44.64394466030053" lon="12.255373574485963"><ele>4.0</ele><time>2026-03-29T13:04:37.001Z</time></trkpt><trkpt lat="44.64388366082187" lon="12.255404205526297"><ele>4.0</ele><time>2026-03-29T13:04:38.001Z</time></trkpt><trkpt lat="44.6437854821601" lon="12.255445681649293"><ele>4.0</ele><time>2026-03-29T13:04:40.001Z</time></trkpt><trkpt lat="44.64371641404885" lon="12.25547735044166"><ele>3.9999999999999996</ele><time>2026-03-29T13:04:43.001Z</time></trkpt><trkpt lat="44.64366834663229" lon="12.255376876769029"><ele>4.0</ele><time>2026-03-29T13:04:48.001Z</time></trkpt><trkpt lat="44.64362224403443" lon="12.255307664288543"><ele>4.4</ele><time>2026-03-29T13:05:08.001Z</time></trkpt><trkpt lat="44.64356870922686" lon="12.255179094117674"><ele>4.800000000000001</ele><time>2026-03-29T13:05:10.001Z</time></trkpt><trkpt lat="44.643500687249144" lon="12.255028502220451"><ele>5.199999999999999</ele><time>2026-03-29T13:05:12.001Z</time></trkpt><trkpt lat="44.64346422038605" lon="12.254948579617546"><ele>5.6</ele><time>2026-03-29T13:05:13.001Z</time></trkpt><trkpt lat="44.643397382977355" lon="12.254794499902237"><ele>6.0</ele><time>2026-03-29T13:05:15.001Z</time></trkpt><trkpt lat="44.64336465949685" lon="12.254706839900848"><ele>6.166666666666667</ele><time>2026-03-29T13:05:16.001Z</time></trkpt><trkpt lat="44.643327576868536" lon="12.254622316958075"><ele>6.333333333333334</ele><time>2026-03-29T13:05:17.001Z</time></trkpt><trkpt lat="44.64329242330407" lon="12.254542174444792"><ele>6.5</ele><time>2026-03-29T13:05:18.001Z</time></trkpt><trkpt lat="44.64325820064209" lon="12.254466488828411"><ele>6.666666666666667</ele><time>2026-03-29T13:05:19.001Z</time></trkpt><trkpt lat="44.64320312871606" lon="12.254349079781552"><ele>6.833333333333334</ele><time>2026-03-29T13:05:21.001Z</time></trkpt><trkpt lat="44.64315249603657" lon="12.25423557049531"><ele>7.0</ele><time>2026-03-29T13:05:23.001Z</time></trkpt><trkpt lat="44.643099547814096" lon="12.254142230401124"><ele>7.000000000000001</ele><time>2026-03-29T13:05:25.001Z</time></trkpt><trkpt lat="44.643050788850296" lon="12.254030590487147"><ele>7.0</ele><time>2026-03-29T13:05:27.001Z</time></trkpt><trkpt lat="44.643010883679814" lon="12.253912066200671"><ele>7.0</ele><time>2026-03-29T13:05:29.001Z</time></trkpt><trkpt lat="44.64296021900163" lon="12.253811098419845"><ele>7.0</ele><time>2026-03-29T13:05:31.001Z</time></trkpt><trkpt lat="44.64289471824985" lon="12.253702715367352"><ele>7.000000000000001</ele><time>2026-03-29T13:05:33.001Z</time></trkpt><trkpt lat="44.64285778504813" lon="12.253617312358795"><ele>7.0</ele><time>2026-03-29T13:05:34.001Z</time></trkpt><trkpt lat="44.64281455465284" lon="12.253521224221334"><ele>7.166666666666667</ele><time>2026-03-29T13:05:35.001Z</time></trkpt><trkpt lat="44.642767098308425" lon="12.253421530557649"><ele>7.333333333333334</ele><time>2026-03-29T13:05:36.001Z</time></trkpt><trkpt lat="44.64272498268852" lon="12.253333471286627"><ele>7.5</ele><time>2026-03-29T13:05:37.001Z</time></trkpt><trkpt lat="44.642690740252675" lon="12.253247734493579"><ele>7.666666666666666</ele><time>2026-03-29T13:05:38.001Z</time></trkpt><trkpt lat="44.642649876186546" lon="12.253168453562536"><ele>7.833333333333333</ele><time>2026-03-29T13:05:39.001Z</time></trkpt><trkpt lat="44.64259394589353" lon="12.253032865140337"><ele>8.0</ele><time>2026-03-29T13:05:40.999Z</time></trkpt><trkpt lat="44.64254411687244" lon="12.25290384392816"><ele>7.999999999999999</ele><time>2026-03-29T13:05:42.999Z</time></trkpt><trkpt lat="44.64247922262464" lon="12.252802516760935"><ele>8.0</ele><time>2026-03-29T13:05:44.999Z</time></trkpt><trkpt lat="44.64245668598176" lon="12.252713055078045"><ele>8.0</ele><time>2026-03-29T13:05:45.999Z</time></trkpt><trkpt lat="44.642408147468316" lon="12.252607135885617"><ele>8.0</ele><time>2026-03-29T13:05:46.999Z</time></trkpt><trkpt lat="44.64236076891582" lon="12.252499702455022"><ele>7.999999999999999</ele><time>2026-03-29T13:05:47.999Z</time></trkpt><trkpt lat="44.64232530443649" lon="12.252417556132794"><ele>8.0</ele><time>2026-03-29T13:05:48.999Z</time></trkpt><trkpt lat="44.642289884127685" lon="12.25233551195619"><ele>8.0</ele><time>2026-03-29T13:05:49.999Z</time></trkpt><trkpt lat="44.64225168101454" lon="12.252247022097977"><ele>8.0</ele><time>2026-03-29T13:05:50.999Z</time></trkpt><trkpt lat="44.64221524415986" lon="12.252158936930513"><ele>8.0</ele><time>2026-03-29T13:05:51.999Z</time></trkpt><trkpt lat="44.64217423254858" lon="12.252052500717948"><ele>8.0</ele><time>2026-03-29T13:05:52.999Z</time></trkpt><trkpt lat="44.642135156609264" lon="12.251917692306026"><ele>8.0</ele><time>2026-03-29T13:05:53.999Z</time></trkpt><trkpt lat="44.64209185169551" lon="12.251733761698476"><ele>7.999999999999999</ele><time>2026-03-29T13:05:54.999Z</time></trkpt><trkpt lat="44.642079604095535" lon="12.251579168160731"><ele>8.0</ele><time>2026-03-29T13:05:55.999Z</time></trkpt><trkpt lat="44.642068556218675" lon="12.251456737616808"><ele>8.0</ele><time>2026-03-29T13:05:56.999Z</time></trkpt><trkpt lat="44.64208735919458" lon="12.251355836359451"><ele>8.0</ele><time>2026-03-29T13:05:57.999Z</time></trkpt><trkpt lat="44.642099011723815" lon="12.251252768926749"><ele>7.999999999999999</ele><time>2026-03-29T13:05:58.999Z</time></trkpt><trkpt lat="44.642110961549925" lon="12.251144845803548"><ele>8.0</ele><time>2026-03-29T13:05:59.999Z</time></trkpt><trkpt lat="44.64214045490908" lon="12.251051957327373"><ele>8.200000000000001</ele><time>2026-03-29T13:06:00.999Z</time></trkpt><trkpt lat="44.642167464226446" lon="12.250955888189715"><ele>8.4</ele><time>2026-03-29T13:06:01.999Z</time></trkpt><trkpt lat="44.64219528079274" lon="12.250860671899803"><ele>8.600000000000001</ele><time>2026-03-29T13:06:02.999Z</time></trkpt><trkpt lat="44.64224943457647" lon="12.25070699122377"><ele>8.8</ele><time>2026-03-29T13:06:04.999Z</time></trkpt><trkpt lat="44.64231375445516" lon="12.250553866057958"><ele>9.0</ele><time>2026-03-29T13:06:07Z</time></trkpt><trkpt lat="44.642369207679074" lon="12.250467743208043"><ele>9.4</ele><time>2026-03-29T13:06:08Z</time></trkpt><trkpt lat="44.64242801283524" lon="12.25036714579211"><ele>9.8</ele><time>2026-03-29T13:06:09Z</time></trkpt><trkpt lat="44.64249155213916" lon="12.250270069020987"><ele>10.200000000000001</ele><time>2026-03-29T13:06:10Z</time></trkpt><trkpt lat="44.642545031895075" lon="12.250163649890897"><ele>10.600000000000001</ele><time>2026-03-29T13:06:11Z</time></trkpt><trkpt lat="44.64259603072651" lon="12.250058959752915"><ele>11.0</ele><time>2026-03-29T13:06:12Z</time></trkpt><trkpt lat="44.64264540527965" lon="12.249943274477573"><ele>11.0</ele><time>2026-03-29T13:06:13Z</time></trkpt><trkpt lat="44.642685564176325" lon="12.249819243023037"><ele>11.0</ele><time>2026-03-29T13:06:14Z</time></trkpt><trkpt lat="44.64272053752889" lon="12.249680422246753"><ele>11.0</ele><time>2026-03-29T13:06:15Z</time></trkpt><trkpt lat="44.642746276405646" lon="12.249534380791784"><ele>11.0</ele><time>2026-03-29T13:06:16Z</time></trkpt><trkpt lat="44.642767592117266" lon="12.249399511787157"><ele>11.0</ele><time>2026-03-29T13:06:17Z</time></trkpt><trkpt lat="44.64277480086954" lon="12.249252372334464"><ele>10.833333333333332</ele><time>2026-03-29T13:06:18Z</time></trkpt><trkpt lat="44.642800714117406" lon="12.24913924648991"><ele>10.666666666666666</ele><time>2026-03-29T13:06:19Z</time></trkpt><trkpt lat="44.64278769925079" lon="12.248982690522675"><ele>10.5</ele><time>2026-03-29T13:06:20Z</time></trkpt><trkpt lat="44.64277799102051" lon="12.2488615274431"><ele>10.333333333333334</ele><time>2026-03-29T13:06:21Z</time></trkpt><trkpt lat="44.642759722509254" lon="12.248740201496586"><ele>10.166666666666668</ele><time>2026-03-29T13:06:22Z</time></trkpt><trkpt lat="44.642788701426284" lon="12.248640869375656"><ele>10.0</ele><time>2026-03-29T13:06:23Z</time></trkpt><trkpt lat="44.64281205384476" lon="12.248547050009778"><ele>9.0</ele><time>2026-03-29T13:06:24Z</time></trkpt><trkpt lat="44.64289426487651" lon="12.248419076500912"><ele>8.0</ele><time>2026-03-29T13:06:26Z</time></trkpt><trkpt lat="44.64296065765696" lon="12.248369190865063"><ele>7.0</ele><time>2026-03-29T13:06:27Z</time></trkpt><trkpt lat="44.64300918992465" lon="12.248290487555863"><ele>6.0</ele><time>2026-03-29T13:06:28Z</time></trkpt><trkpt lat="44.64307519474464" lon="12.248220330389525"><ele>5.0</ele><time>2026-03-29T13:06:29Z</time></trkpt><trkpt lat="44.64321804630302" lon="12.248284118227561"><ele>5.0</ele><time>2026-03-29T13:06:30Z</time></trkpt><trkpt lat="44.64331249923279" lon="12.24827290382171"><ele>5.0</ele><time>2026-03-29T13:06:31Z</time></trkpt><trkpt lat="44.64339360654056" lon="12.2482787312525"><ele>5.0</ele><time>2026-03-29T13:06:32Z</time></trkpt><trkpt lat="44.6434628302889" lon="12.248295434982428"><ele>5.0</ele><time>2026-03-29T13:06:33Z</time></trkpt><trkpt lat="44.643572102300105" lon="12.248331029525033"><ele>5.0</ele><time>2026-03-29T13:06:35Z</time></trkpt><trkpt lat="44.64364971630042" lon="12.24834913002258"><ele>5.0</ele><time>2026-03-29T13:06:38Z</time></trkpt><trkpt lat="44.64374726268474" lon="12.248241408896943"><ele>5.0</ele><time>2026-03-29T13:07:00Z</time></trkpt><trkpt lat="44.643781693158026" lon="12.248150956412086"><ele>5.0</ele><time>2026-03-29T13:07:01Z</time></trkpt><trkpt lat="44.64380806602975" lon="12.248037028271265"><ele>5.0</ele><time>2026-03-29T13:07:02Z</time></trkpt><trkpt lat="44.643843735875976" lon="12.247916908503504"><ele>5.0</ele><time>2026-03-29T13:07:03Z</time></trkpt><trkpt lat="44.64387685811212" lon="12.247789436070045"><ele>5.0</ele><time>2026-03-29T13:07:04.001Z</time></trkpt><trkpt lat="44.643915056576006" lon="12.247654307874146"><ele>5.0</ele><time>2026-03-29T13:07:05.001Z</time></trkpt><trkpt lat="44.64397484180532" lon="12.247482700907998"><ele>5.0</ele><time>2026-03-29T13:07:06.001Z</time></trkpt><trkpt lat="44.644040724734985" lon="12.24730494303684"><ele>5.0</ele><time>2026-03-29T13:07:07.001Z</time></trkpt><trkpt lat="44.64411640790035" lon="12.247095683837292"><ele>5.0</ele><time>2026-03-29T13:07:08.001Z</time></trkpt><trkpt lat="44.64419106269181" lon="12.246893932999548"><ele>5.0</ele><time>2026-03-29T13:07:09.001Z</time></trkpt><trkpt lat="44.644259160371696" lon="12.2467240603339"><ele>5.0</ele><time>2026-03-29T13:07:10.001Z</time></trkpt><trkpt lat="44.64432394944494" lon="12.246582797600297"><ele>5.0</ele><time>2026-03-29T13:07:11.001Z</time></trkpt><trkpt lat="44.64438819817253" lon="12.24645797177944"><ele>5.0</ele><time>2026-03-29T13:07:12.001Z</time></trkpt><trkpt lat="44.64445237253085" lon="12.24632450052597"><ele>4.6</ele><time>2026-03-29T13:07:13.001Z</time></trkpt><trkpt lat="44.64451966649443" lon="12.246191854392618"><ele>4.2</ele><time>2026-03-29T13:07:14.001Z</time></trkpt><trkpt lat="44.64457231184013" lon="12.246064454951025"><ele>3.8</ele><time>2026-03-29T13:07:15.001Z</time></trkpt><trkpt lat="44.6446279582174" lon="12.24593699506656"><ele>3.4</ele><time>2026-03-29T13:07:16.001Z</time></trkpt><trkpt lat="44.644687248817895" lon="12.245815401417351"><ele>3.0</ele><time>2026-03-29T13:07:17.001Z</time></trkpt><trkpt lat="44.6447419100621" lon="12.245713558516558"><ele>3.2</ele><time>2026-03-29T13:07:18.001Z</time></trkpt><trkpt lat="44.644791712827676" lon="12.245613869740275"><ele>3.4</ele><time>2026-03-29T13:07:19.001Z</time></trkpt><trkpt lat="44.64485026803761" lon="12.245532814411645"><ele>3.6000000000000005</ele><time>2026-03-29T13:07:20.001Z</time></trkpt><trkpt lat="44.64490673296951" lon="12.245444844259255"><ele>3.8000000000000003</ele><time>2026-03-29T13:07:21.001Z</time></trkpt><trkpt lat="44.64496912205566" lon="12.245337935262222"><ele>4.0</ele><time>2026-03-29T13:07:22.001Z</time></trkpt><trkpt lat="44.64505206811216" lon="12.245243078097037"><ele>4.0</ele><time>2026-03-29T13:07:23.001Z</time></trkpt><trkpt lat="44.64512750040707" lon="12.245127419321237"><ele>4.0</ele><time>2026-03-29T13:07:24.001Z</time></trkpt><trkpt lat="44.64521250056203" lon="12.245012949914887"><ele>4.0</ele><time>2026-03-29T13:07:25.001Z</time></trkpt><trkpt lat="44.64530193257133" lon="12.244907710039199"><ele>4.0</ele><time>2026-03-29T13:07:26.001Z</time></trkpt><trkpt lat="44.645375895476455" lon="12.244806622258512"><ele>4.0</ele><time>2026-03-29T13:07:27.001Z</time></trkpt><trkpt lat="44.645460575553486" lon="12.244705888302668"><ele>4.0</ele><time>2026-03-29T13:07:28.001Z</time></trkpt><trkpt lat="44.64554804988311" lon="12.244610621922364"><ele>4.0</ele><time>2026-03-29T13:07:29.001Z</time></trkpt><trkpt lat="44.64564098127508" lon="12.244521892845471"><ele>4.0</ele><time>2026-03-29T13:07:30.001Z</time></trkpt><trkpt lat="44.645744810529145" lon="12.244425504036526"><ele>4.0</ele><time>2026-03-29T13:07:31.001Z</time></trkpt><trkpt lat="44.64583791852787" lon="12.244361543005574"><ele>4.0</ele><time>2026-03-29T13:07:32.001Z</time></trkpt><trkpt lat="44.645933299641385" lon="12.244286725707816"><ele>4.0</ele><time>2026-03-29T13:07:33.001Z</time></trkpt><trkpt lat="44.6460317160259" lon="12.244214119475586"><ele>4.0</ele><time>2026-03-29T13:07:34.001Z</time></trkpt><trkpt lat="44.64613648309452" lon="12.24414490873058"><ele>4.0</ele><time>2026-03-29T13:07:35.001Z</time></trkpt><trkpt lat="44.64624046447459" lon="12.24407428961665"><ele>4.0</ele><time>2026-03-29T13:07:36.001Z</time></trkpt><trkpt lat="44.64634176986807" lon="12.244006618032499"><ele>4.0</ele><time>2026-03-29T13:07:37.001Z</time></trkpt><trkpt lat="44.64644540981679" lon="12.243940269075473"><ele>4.0</ele><time>2026-03-29T13:07:38.001Z</time></trkpt><trkpt lat="44.64654436121866" lon="12.243884191264584"><ele>4.0</ele><time>2026-03-29T13:07:39.001Z</time></trkpt><trkpt lat="44.646640743724156" lon="12.243820725939406"><ele>4.0</ele><time>2026-03-29T13:07:40.001Z</time></trkpt><trkpt lat="44.646736755755356" lon="12.243759383511978"><ele>4.0</ele><time>2026-03-29T13:07:41.001Z</time></trkpt><trkpt lat="44.64683670808374" lon="12.24369267720659"><ele>4.0</ele><time>2026-03-29T13:07:42.001Z</time></trkpt><trkpt lat="44.646937471332116" lon="12.243629818624042"><ele>4.0</ele><time>2026-03-29T13:07:43.001Z</time></trkpt><trkpt lat="44.647031709692484" lon="12.243578128125156"><ele>4.0</ele><time>2026-03-29T13:07:44.001Z</time></trkpt><trkpt lat="44.647122844790104" lon="12.24350576127313"><ele>4.0</ele><time>2026-03-29T13:07:45.001Z</time></trkpt><trkpt lat="44.647221946780135" lon="12.243437271311741"><ele>3.8000000000000003</ele><time>2026-03-29T13:07:45.999Z</time></trkpt><trkpt lat="44.647322883322246" lon="12.243371082755946"><ele>3.6000000000000005</ele><time>2026-03-29T13:07:46.999Z</time></trkpt><trkpt lat="44.6474230476276" lon="12.243311869114256"><ele>3.4</ele><time>2026-03-29T13:07:47.999Z</time></trkpt><trkpt lat="44.64752257329246" lon="12.243253000811649"><ele>3.2</ele><time>2026-03-29T13:07:48.999Z</time></trkpt><trkpt lat="44.64762634535706" lon="12.243189591246425"><ele>3.0</ele><time>2026-03-29T13:07:49.999Z</time></trkpt><trkpt lat="44.647731968199814" lon="12.243130699334285"><ele>3.2</ele><time>2026-03-29T13:07:50.999Z</time></trkpt><trkpt lat="44.64783148674354" lon="12.243067141865492"><ele>3.4</ele><time>2026-03-29T13:07:51.999Z</time></trkpt><trkpt lat="44.647924595718635" lon="12.243005828961284"><ele>3.6000000000000005</ele><time>2026-03-29T13:07:52.999Z</time></trkpt><trkpt lat="44.64802026134553" lon="12.242944803292113"><ele>3.8000000000000003</ele><time>2026-03-29T13:07:53.999Z</time></trkpt><trkpt lat="44.648119568715636" lon="12.242884165697431"><ele>4.0</ele><time>2026-03-29T13:07:54.999Z</time></trkpt><trkpt lat="44.64822290282004" lon="12.242822266489615"><ele>4.0</ele><time>2026-03-29T13:07:55.999Z</time></trkpt><trkpt lat="44.64832745505575" lon="12.2427699498656"><ele>4.0</ele><time>2026-03-29T13:07:56.999Z</time></trkpt><trkpt lat="44.64842929846508" lon="12.242701244287813"><ele>4.0</ele><time>2026-03-29T13:07:57.999Z</time></trkpt><trkpt lat="44.64854354341068" lon="12.242628290987811"><ele>4.0</ele><time>2026-03-29T13:07:58.999Z</time></trkpt><trkpt lat="44.64867062109898" lon="12.242552276160277"><ele>3.6</ele><time>2026-03-29T13:07:59.999Z</time></trkpt><trkpt lat="44.648780294236616" lon="12.242492120027608"><ele>3.2</ele><time>2026-03-29T13:08:00.999Z</time></trkpt><trkpt lat="44.64887011187286" lon="12.242443021709414"><ele>2.8000000000000003</ele><time>2026-03-29T13:08:01.999Z</time></trkpt><trkpt lat="44.64895607904335" lon="12.24239685686874"><ele>2.4000000000000004</ele><time>2026-03-29T13:08:02.999Z</time></trkpt><trkpt lat="44.64904827538793" lon="12.242348534947146"><ele>2.0</ele><time>2026-03-29T13:08:03.999Z</time></trkpt><trkpt lat="44.64914976795841" lon="12.242297507703585"><ele>2.0</ele><time>2026-03-29T13:08:04.999Z</time></trkpt><trkpt lat="44.6492596984922" lon="12.242235656077634"><ele>2.0</ele><time>2026-03-29T13:08:06Z</time></trkpt><trkpt lat="44.64937548968814" lon="12.242164490485722"><ele>2.0</ele><time>2026-03-29T13:08:07Z</time></trkpt><trkpt lat="44.649496163072776" lon="12.24209536608484"><ele>2.0</ele><time>2026-03-29T13:08:08Z</time></trkpt><trkpt lat="44.649636762411106" lon="12.242040004525094"><ele>2.0</ele><time>2026-03-29T13:08:09Z</time></trkpt><trkpt lat="44.64979071837931" lon="12.241957656170495"><ele>2.0</ele><time>2026-03-29T13:08:10Z</time></trkpt><trkpt lat="44.64992860853307" lon="12.241876305218069"><ele>2.0</ele><time>2026-03-29T13:08:11Z</time></trkpt><trkpt lat="44.65004117298027" lon="12.24182224016266"><ele>2.0</ele><time>2026-03-29T13:08:12Z</time></trkpt><trkpt lat="44.650141129226384" lon="12.241788336617367"><ele>2.0</ele><time>2026-03-29T13:08:13Z</time></trkpt><trkpt lat="44.65023403408571" lon="12.24174439769041"><ele>2.0</ele><time>2026-03-29T13:08:14Z</time></trkpt><trkpt lat="44.650317002208" lon="12.241698609477115"><ele>2.0</ele><time>2026-03-29T13:08:15Z</time></trkpt><trkpt lat="44.65041171984382" lon="12.241653773403574"><ele>2.0</ele><time>2026-03-29T13:08:16Z</time></trkpt><trkpt lat="44.650503851933316" lon="12.241618654031694"><ele>2.0</ele><time>2026-03-29T13:08:17Z</time></trkpt><trkpt lat="44.65058793850528" lon="12.241591080116196"><ele>2.0</ele><time>2026-03-29T13:08:18Z</time></trkpt><trkpt lat="44.650666896360256" lon="12.241557752686017"><ele>2.0</ele><time>2026-03-29T13:08:19Z</time></trkpt><trkpt lat="44.65076811846845" lon="12.241513712391269"><ele>2.0</ele><time>2026-03-29T13:08:20Z</time></trkpt><trkpt lat="44.650881548994086" lon="12.241466368058147"><ele>2.0</ele><time>2026-03-29T13:08:21Z</time></trkpt><trkpt lat="44.651005906163086" lon="12.241417804445454"><ele>2.0</ele><time>2026-03-29T13:08:22Z</time></trkpt><trkpt lat="44.65113149377257" lon="12.241375760573678"><ele>2.0</ele><time>2026-03-29T13:08:23Z</time></trkpt><trkpt lat="44.65125995579007" lon="12.241330265262153"><ele>2.0</ele><time>2026-03-29T13:08:24Z</time></trkpt><trkpt lat="44.65140145961031" lon="12.241279453055277"><ele>2.0</ele><time>2026-03-29T13:08:25Z</time></trkpt><trkpt lat="44.6515688225052" lon="12.241232597756856"><ele>2.0</ele><time>2026-03-29T13:08:26Z</time></trkpt><trkpt lat="44.65175150061902" lon="12.241192380134386"><ele>2.0</ele><time>2026-03-29T13:08:27Z</time></trkpt><trkpt lat="44.651945881460676" lon="12.241148332308862"><ele>2.0</ele><time>2026-03-29T13:08:28Z</time></trkpt><trkpt lat="44.65212189845025" lon="12.241112412982089"><ele>2.0</ele><time>2026-03-29T13:08:29Z</time></trkpt><trkpt lat="44.652279041205716" lon="12.241083393854906"><ele>1.75</ele><time>2026-03-29T13:08:30Z</time></trkpt><trkpt lat="44.65242376811874" lon="12.241049652957198"><ele>1.5</ele><time>2026-03-29T13:08:31Z</time></trkpt><trkpt lat="44.65256645950298" lon="12.241023211601439"><ele>1.25</ele><time>2026-03-29T13:08:32Z</time></trkpt><trkpt lat="44.652714561823025" lon="12.241002352059086"><ele>1.0</ele><time>2026-03-29T13:08:33Z</time></trkpt><trkpt lat="44.65285775931271" lon="12.24098656993165"><ele>0.75</ele><time>2026-03-29T13:08:34Z</time></trkpt><trkpt lat="44.6530011817001" lon="12.240971150344084"><ele>0.5</ele><time>2026-03-29T13:08:35Z</time></trkpt><trkpt lat="44.653142514002425" lon="12.240959748088203"><ele>0.25</ele><time>2026-03-29T13:08:36Z</time></trkpt><trkpt lat="44.6532855632593" lon="12.24094866292437"><ele>0.0</ele><time>2026-03-29T13:08:37Z</time></trkpt><trkpt lat="44.65342584060368" lon="12.24094308810372"><ele>0.0</ele><time>2026-03-29T13:08:38Z</time></trkpt><trkpt lat="44.653568328033316" lon="12.240944963231696"><ele>0.0</ele><time>2026-03-29T13:08:39Z</time></trkpt><trkpt lat="44.65371539261667" lon="12.240946093421053"><ele>0.0</ele><time>2026-03-29T13:08:40Z</time></trkpt><trkpt lat="44.653857233013234" lon="12.240943044332003"><ele>0.0</ele><time>2026-03-29T13:08:41Z</time></trkpt><trkpt lat="44.65398850288298" lon="12.240940480971165"><ele>0.0</ele><time>2026-03-29T13:08:42Z</time></trkpt><trkpt lat="44.65411952895498" lon="12.240936606237643"><ele>0.0</ele><time>2026-03-29T13:08:43Z</time></trkpt><trkpt lat="44.65424543729541" lon="12.240944974982686"><ele>0.0</ele><time>2026-03-29T13:08:44Z</time></trkpt><trkpt lat="44.65436891105654" lon="12.240961043430257"><ele>0.0</ele><time>2026-03-29T13:08:45Z</time></trkpt><trkpt lat="44.65449177811076" lon="12.240972741459897"><ele>0.0</ele><time>2026-03-29T13:08:46Z</time></trkpt><trkpt lat="44.65459647760455" lon="12.24098107158781"><ele>0.0</ele><time>2026-03-29T13:08:47Z</time></trkpt><trkpt lat="44.654691994520796" lon="12.240997525673544"><ele>0.0</ele><time>2026-03-29T13:08:48Z</time></trkpt><trkpt lat="44.654777170881" lon="12.241013507704038"><ele>0.0</ele><time>2026-03-29T13:08:49Z</time></trkpt><trkpt lat="44.65485697205915" lon="12.24103884681232"><ele>0.0</ele><time>2026-03-29T13:08:50Z</time></trkpt><trkpt lat="44.654940320136596" lon="12.241067730517159"><ele>0.0</ele><time>2026-03-29T13:08:51Z</time></trkpt><trkpt lat="44.655008635222345" lon="12.241069449593455"><ele>0.0</ele><time>2026-03-29T13:08:52Z</time></trkpt><trkpt lat="44.65510390299928" lon="12.241087956518346"><ele>0.0</ele><time>2026-03-29T13:08:53Z</time></trkpt><trkpt lat="44.65521502789656" lon="12.24111264569869"><ele>0.0</ele><time>2026-03-29T13:08:54.001Z</time></trkpt><trkpt lat="44.65534515919378" lon="12.241137660937918"><ele>0.0</ele><time>2026-03-29T13:08:55.001Z</time></trkpt><trkpt lat="44.65547125711934" lon="12.24117547665239"><ele>0.0</ele><time>2026-03-29T13:08:56.001Z</time></trkpt><trkpt lat="44.6555968902379" lon="12.241214496709683"><ele>0.0</ele><time>2026-03-29T13:08:57.001Z</time></trkpt><trkpt lat="44.65573339599402" lon="12.241255755396466"><ele>0.0</ele><time>2026-03-29T13:08:58.001Z</time></trkpt><trkpt lat="44.65586830075587" lon="12.241300936439155"><ele>0.0</ele><time>2026-03-29T13:08:59.001Z</time></trkpt><trkpt lat="44.655988271081306" lon="12.241353957686401"><ele>0.0</ele><time>2026-03-29T13:09:00.001Z</time></trkpt><trkpt lat="44.656093079879604" lon="12.241407490146763"><ele>0.0</ele><time>2026-03-29T13:09:01.001Z</time></trkpt><trkpt lat="44.656198659292635" lon="12.241445955414997"><ele>0.0</ele><time>2026-03-29T13:09:02.001Z</time></trkpt><trkpt lat="44.65629620919009" lon="12.241483018959586"><ele>0.0</ele><time>2026-03-29T13:09:03.001Z</time></trkpt><trkpt lat="44.65639116170795" lon="12.241537410650805"><ele>0.0</ele><time>2026-03-29T13:09:04.001Z</time></trkpt><trkpt lat="44.65650585636658" lon="12.24159270587896"><ele>0.75</ele><time>2026-03-29T13:09:05.001Z</time></trkpt><trkpt lat="44.65664479523479" lon="12.241639271559169"><ele>1.5</ele><time>2026-03-29T13:09:06.001Z</time></trkpt><trkpt lat="44.65678381310236" lon="12.241674534043446"><ele>2.25</ele><time>2026-03-29T13:09:07.001Z</time></trkpt><trkpt lat="44.65691328423392" lon="12.241696733869817"><ele>3.0</ele><time>2026-03-29T13:09:08.001Z</time></trkpt><trkpt lat="44.657043222104264" lon="12.241713741440712"><ele>3.0</ele><time>2026-03-29T13:09:09.001Z</time></trkpt><trkpt lat="44.65717222252401" lon="12.241724383321806"><ele>3.0</ele><time>2026-03-29T13:09:10.001Z</time></trkpt><trkpt lat="44.65730360593253" lon="12.241716916324021"><ele>3.0</ele><time>2026-03-29T13:09:11.001Z</time></trkpt><trkpt lat="44.65743653047919" lon="12.241711241331798"><ele>3.0</ele><time>2026-03-29T13:09:12.001Z</time></trkpt><trkpt lat="44.65757070996306" lon="12.241702134305605"><ele>3.0</ele><time>2026-03-29T13:09:13.001Z</time></trkpt><trkpt lat="44.65770554513235" lon="12.241689559690581"><ele>3.0</ele><time>2026-03-29T13:09:14.001Z</time></trkpt><trkpt lat="44.65782719659421" lon="12.241674518948209"><ele>3.0</ele><time>2026-03-29T13:09:15.001Z</time></trkpt><trkpt lat="44.65794805181337" lon="12.241664063871651"><ele>3.0</ele><time>2026-03-29T13:09:16.001Z</time></trkpt><trkpt lat="44.65807276629129" lon="12.24164878298555"><ele>3.0</ele><time>2026-03-29T13:09:17.001Z</time></trkpt><trkpt lat="44.658194968061544" lon="12.2416348114463"><ele>3.0</ele><time>2026-03-29T13:09:18.001Z</time></trkpt><trkpt lat="44.65831882513177" lon="12.241620286918035"><ele>3.0</ele><time>2026-03-29T13:09:19.001Z</time></trkpt><trkpt lat="44.658448006067296" lon="12.241611124144049"><ele>3.0</ele><time>2026-03-29T13:09:20.001Z</time></trkpt><trkpt lat="44.65857748608019" lon="12.241596656903424"><ele>3.0</ele><time>2026-03-29T13:09:21.001Z</time></trkpt><trkpt lat="44.65870990949282" lon="12.241585638262176"><ele>3.0</ele><time>2026-03-29T13:09:22.001Z</time></trkpt><trkpt lat="44.65884360574563" lon="12.24157818185123"><ele>3.0</ele><time>2026-03-29T13:09:23.001Z</time></trkpt><trkpt lat="44.65897448033888" lon="12.241570889032577"><ele>3.0</ele><time>2026-03-29T13:09:24.001Z</time></trkpt><trkpt lat="44.659104873389175" lon="12.241557561780965"><ele>3.0</ele><time>2026-03-29T13:09:25.001Z</time></trkpt><trkpt lat="44.659228638265255" lon="12.241548510472436"><ele>3.0</ele><time>2026-03-29T13:09:26.001Z</time></trkpt><trkpt lat="44.659335570581604" lon="12.241544066364488"><ele>3.0</ele><time>2026-03-29T13:09:27.001Z</time></trkpt><trkpt lat="44.65942892954461" lon="12.241536241615238"><ele>3.0</ele><time>2026-03-29T13:09:28.001Z</time></trkpt><trkpt lat="44.65951859588843" lon="12.241530340022868"><ele>3.0</ele><time>2026-03-29T13:09:29.001Z</time></trkpt><trkpt lat="44.65960743986288" lon="12.241525483805734"><ele>2.8</ele><time>2026-03-29T13:09:30.001Z</time></trkpt><trkpt lat="44.65969687780589" lon="12.241520374842993"><ele>2.5999999999999996</ele><time>2026-03-29T13:09:31.001Z</time></trkpt><trkpt lat="44.65978805911949" lon="12.241513043886734"><ele>2.4000000000000004</ele><time>2026-03-29T13:09:32.001Z</time></trkpt><trkpt lat="44.659883797496896" lon="12.241505403773816"><ele>2.2</ele><time>2026-03-29T13:09:33.001Z</time></trkpt><trkpt lat="44.65998322520841" lon="12.24149278280527"><ele>2.0</ele><time>2026-03-29T13:09:34.001Z</time></trkpt><trkpt lat="44.66008373497584" lon="12.241475778417925"><ele>1.9999999999999998</ele><time>2026-03-29T13:09:35.001Z</time></trkpt><trkpt lat="44.660172994888235" lon="12.241457749878746"><ele>2.0</ele><time>2026-03-29T13:09:36.001Z</time></trkpt><trkpt lat="44.66025872535787" lon="12.241433699108425"><ele>2.0</ele><time>2026-03-29T13:09:37.001Z</time></trkpt><trkpt lat="44.66033437642335" lon="12.241416971156616"><ele>2.0</ele><time>2026-03-29T13:09:38.001Z</time></trkpt><trkpt lat="44.66039768680645" lon="12.241407807269676"><ele>1.9999999999999998</ele><time>2026-03-29T13:09:39.001Z</time></trkpt><trkpt lat="44.66049520530294" lon="12.241412278722702"><ele>2.0</ele><time>2026-03-29T13:09:41.001Z</time></trkpt><trkpt lat="44.6605649980059" lon="12.24140575958917"><ele>2.0</ele><time>2026-03-29T13:09:44.001Z</time></trkpt><trkpt lat="44.660632138667786" lon="12.241394882826567"><ele>2.0</ele><time>2026-03-29T13:09:47.001Z</time></trkpt><trkpt lat="44.6606386641077" lon="12.24118774340613"><ele>2.0</ele><time>2026-03-29T13:09:49.001Z</time></trkpt><trkpt lat="44.66062749819595" lon="12.241013776160884"><ele>2.0</ele><time>2026-03-29T13:09:51.001Z</time></trkpt><trkpt lat="44.66061850867815" lon="12.240903571186614"><ele>2.0</ele><time>2026-03-29T13:09:52Z</time></trkpt><trkpt lat="44.66061231237057" lon="12.240777297641964"><ele>2.0</ele><time>2026-03-29T13:09:53Z</time></trkpt><trkpt lat="44.66060844564401" lon="12.240658117608296"><ele>2.0</ele><time>2026-03-29T13:09:54Z</time></trkpt><trkpt lat="44.6606029195048" lon="12.240524932694523"><ele>2.0</ele><time>2026-03-29T13:09:55Z</time></trkpt><trkpt lat="44.660601092089244" lon="12.240366088567061"><ele>2.0</ele><time>2026-03-29T13:09:56Z</time></trkpt><trkpt lat="44.660597998996245" lon="12.240201168289008"><ele>2.0</ele><time>2026-03-29T13:09:57Z</time></trkpt><trkpt lat="44.66059588969797" lon="12.240046006741071"><ele>2.0</ele><time>2026-03-29T13:09:58Z</time></trkpt><trkpt lat="44.6605879186715" lon="12.23990125306435"><ele>2.0</ele><time>2026-03-29T13:09:59Z</time></trkpt><trkpt lat="44.66058529543892" lon="12.239776500744714"><ele>2.0</ele><time>2026-03-29T13:10:00Z</time></trkpt><trkpt lat="44.660570578460764" lon="12.239652289449584"><ele>2.0</ele><time>2026-03-29T13:10:01Z</time></trkpt><trkpt lat="44.66057399961688" lon="12.239524062591988"><ele>2.0</ele><time>2026-03-29T13:10:02Z</time></trkpt><trkpt lat="44.66057557708443" lon="12.239392282537334"><ele>2.0</ele><time>2026-03-29T13:10:03Z</time></trkpt><trkpt lat="44.66057538510409" lon="12.23924008819529"><ele>2.0</ele><time>2026-03-29T13:10:04Z</time></trkpt><trkpt lat="44.66056964980045" lon="12.239061802579556"><ele>2.0</ele><time>2026-03-29T13:10:05Z</time></trkpt><trkpt lat="44.660560363747386" lon="12.238863168241062"><ele>2.0</ele><time>2026-03-29T13:10:06Z</time></trkpt><trkpt lat="44.660548055794266" lon="12.238651112397925"><ele>1.3333333333333333</ele><time>2026-03-29T13:10:07Z</time></trkpt><trkpt lat="44.66054488830882" lon="12.238449761714335"><ele>0.6666666666666666</ele><time>2026-03-29T13:10:08Z</time></trkpt><trkpt lat="44.660533375799545" lon="12.238233356788351"><ele>0.0</ele><time>2026-03-29T13:10:09Z</time></trkpt><trkpt lat="44.660520264773616" lon="12.237993198416495"><ele>-0.3333333333333333</ele><time>2026-03-29T13:10:10Z</time></trkpt><trkpt lat="44.66051552768339" lon="12.237757778583083"><ele>-0.6666666666666666</ele><time>2026-03-29T13:10:11Z</time></trkpt><trkpt lat="44.6605107625425" lon="12.237519810515604"><ele>-1.0</ele><time>2026-03-29T13:10:12Z</time></trkpt><trkpt lat="44.660498716259326" lon="12.237255702777933"><ele>-1.3333333333333333</ele><time>2026-03-29T13:10:13Z</time></trkpt><trkpt lat="44.66048811297499" lon="12.236960838652172"><ele>-1.6666666666666665</ele><time>2026-03-29T13:10:14Z</time></trkpt><trkpt lat="44.66047768435183" lon="12.236676458959188"><ele>-2.0</ele><time>2026-03-29T13:10:15Z</time></trkpt><trkpt lat="44.66046916169303" lon="12.236415950446123"><ele>-2.0</ele><time>2026-03-29T13:10:16Z</time></trkpt><trkpt lat="44.66045961940685" lon="12.236174622220803"><ele>-2.0</ele><time>2026-03-29T13:10:17Z</time></trkpt><trkpt lat="44.66045205548037" lon="12.23594868834513"><ele>-2.0</ele><time>2026-03-29T13:10:18Z</time></trkpt><trkpt lat="44.6604452378186" lon="12.235732527073784"><ele>-2.0</ele><time>2026-03-29T13:10:19Z</time></trkpt><trkpt lat="44.66044016780216" lon="12.23551607598039"><ele>-2.0</ele><time>2026-03-29T13:10:20Z</time></trkpt><trkpt lat="44.660432690810595" lon="12.235294343767231"><ele>-2.0</ele><time>2026-03-29T13:10:21Z</time></trkpt><trkpt lat="44.66042483439603" lon="12.235072167548186"><ele>-2.0</ele><time>2026-03-29T13:10:22Z</time></trkpt><trkpt lat="44.66041549298439" lon="12.234860942361891"><ele>-2.0</ele><time>2026-03-29T13:10:23Z</time></trkpt><trkpt lat="44.66040557233123" lon="12.234660571855665"><ele>-2.0</ele><time>2026-03-29T13:10:24Z</time></trkpt><trkpt lat="44.660400325819374" lon="12.23447230788389"><ele>-2.0</ele><time>2026-03-29T13:10:25Z</time></trkpt><trkpt lat="44.660395538203694" lon="12.234304448406684"><ele>-1.6</ele><time>2026-03-29T13:10:26Z</time></trkpt><trkpt lat="44.66038878164396" lon="12.234146852808388"><ele>-1.2000000000000002</ele><time>2026-03-29T13:10:27Z</time></trkpt><trkpt lat="44.66038366514762" lon="12.233999928968126"><ele>-0.8</ele><time>2026-03-29T13:10:28Z</time></trkpt><trkpt lat="44.66038147901245" lon="12.233858032069897"><ele>-0.4</ele><time>2026-03-29T13:10:29Z</time></trkpt><trkpt lat="44.66037789524078" lon="12.23373118208709"><ele>0.0</ele><time>2026-03-29T13:10:30Z</time></trkpt><trkpt lat="44.660374907607384" lon="12.23361619272419"><ele>0.2</ele><time>2026-03-29T13:10:31Z</time></trkpt><trkpt lat="44.660370897884505" lon="12.233489865958584"><ele>0.4</ele><time>2026-03-29T13:10:32Z</time></trkpt><trkpt lat="44.66036757563637" lon="12.233343045224292"><ele>0.6000000000000001</ele><time>2026-03-29T13:10:33Z</time></trkpt><trkpt lat="44.660361968392536" lon="12.23319335273983"><ele>0.8</ele><time>2026-03-29T13:10:34Z</time></trkpt><trkpt lat="44.660351139647595" lon="12.233046606153435"><ele>1.0</ele><time>2026-03-29T13:10:35Z</time></trkpt><trkpt lat="44.66034427458404" lon="12.232913052438784"><ele>1.0</ele><time>2026-03-29T13:10:36Z</time></trkpt><trkpt lat="44.66034178790197" lon="12.232799280607388"><ele>0.9999999999999999</ele><time>2026-03-29T13:10:37Z</time></trkpt><trkpt lat="44.660336885733074" lon="12.232697429120975"><ele>1.0</ele><time>2026-03-29T13:10:38Z</time></trkpt><trkpt lat="44.66033097541483" lon="12.232592511520581"><ele>1.0</ele><time>2026-03-29T13:10:39Z</time></trkpt><trkpt lat="44.66032286250708" lon="12.23249690216246"><ele>0.9999999999999999</ele><time>2026-03-29T13:10:40Z</time></trkpt><trkpt lat="44.66031463511699" lon="12.232402224369636"><ele>1.0</ele><time>2026-03-29T13:10:41Z</time></trkpt><trkpt lat="44.660321903770246" lon="12.232290264780996"><ele>1.0</ele><time>2026-03-29T13:10:42Z</time></trkpt><trkpt lat="44.660359394835716" lon="12.23218196337222"><ele>1.0</ele><time>2026-03-29T13:10:43.001Z</time></trkpt><trkpt lat="44.66043121743871" lon="12.232097451378227"><ele>1.0</ele><time>2026-03-29T13:10:44.001Z</time></trkpt><trkpt lat="44.660528335976316" lon="12.232041989491153"><ele>1.0</ele><time>2026-03-29T13:10:45.001Z</time></trkpt><trkpt lat="44.66064342900911" lon="12.231998376710033"><ele>1.0</ele><time>2026-03-29T13:10:46.001Z</time></trkpt><trkpt lat="44.66077036478621" lon="12.231962296575686"><ele>1.0</ele><time>2026-03-29T13:10:47.001Z</time></trkpt><trkpt lat="44.660891642548776" lon="12.231927587632429"><ele>1.0</ele><time>2026-03-29T13:10:48.001Z</time></trkpt><trkpt lat="44.66102527664479" lon="12.231887878039048"><ele>1.0</ele><time>2026-03-29T13:10:49.001Z</time></trkpt><trkpt lat="44.66117488927824" lon="12.231846349290484"><ele>1.0</ele><time>2026-03-29T13:10:50.001Z</time></trkpt><trkpt lat="44.66133106001144" lon="12.23179974165906"><ele>1.0</ele><time>2026-03-29T13:10:51.001Z</time></trkpt><trkpt lat="44.661636534085204" lon="12.231723439524123"><ele>1.0</ele><time>2026-03-29T13:10:53.001Z</time></trkpt><trkpt lat="44.66180628207785" lon="12.231688148312585"><ele>1.0</ele><time>2026-03-29T13:10:54.001Z</time></trkpt><trkpt lat="44.66197922828578" lon="12.2316577033693"><ele>1.0</ele><time>2026-03-29T13:10:55.001Z</time></trkpt><trkpt lat="44.66215498688147" lon="12.231630553250024"><ele>1.3333333333333333</ele><time>2026-03-29T13:10:56.001Z</time></trkpt><trkpt lat="44.66233025774028" lon="12.2316144326289"><ele>1.6666666666666665</ele><time>2026-03-29T13:10:57.001Z</time></trkpt><trkpt lat="44.66250610764552" lon="12.231608454820329"><ele>2.0</ele><time>2026-03-29T13:10:58.001Z</time></trkpt><trkpt lat="44.662681903372004" lon="12.231597947689446"><ele>2.333333333333333</ele><time>2026-03-29T13:10:59.001Z</time></trkpt><trkpt lat="44.662868385458665" lon="12.231585100064661"><ele>2.6666666666666665</ele><time>2026-03-29T13:11:00.001Z</time></trkpt><trkpt lat="44.66305485676108" lon="12.231570836996536"><ele>3.0</ele><time>2026-03-29T13:11:01.001Z</time></trkpt><trkpt lat="44.66324391680833" lon="12.231554380086472"><ele>3.0</ele><time>2026-03-29T13:11:02.001Z</time></trkpt><trkpt lat="44.663426606135936" lon="12.231541212603618"><ele>3.0</ele><time>2026-03-29T13:11:03.001Z</time></trkpt><trkpt lat="44.66360605150355" lon="12.231526572246487"><ele>3.0</ele><time>2026-03-29T13:11:04.001Z</time></trkpt><trkpt lat="44.66377989069803" lon="12.231512539264061"><ele>2.6666666666666665</ele><time>2026-03-29T13:11:05.001Z</time></trkpt><trkpt lat="44.66395235974798" lon="12.231494630564296"><ele>2.333333333333333</ele><time>2026-03-29T13:11:06.001Z</time></trkpt><trkpt lat="44.66413363975142" lon="12.231481823543486"><ele>2.0</ele><time>2026-03-29T13:11:07.001Z</time></trkpt><trkpt lat="44.664315547065286" lon="12.23147819791048"><ele>2.333333333333333</ele><time>2026-03-29T13:11:08.001Z</time></trkpt><trkpt lat="44.66449738521075" lon="12.231454795527064"><ele>2.6666666666666665</ele><time>2026-03-29T13:11:09.001Z</time></trkpt><trkpt lat="44.66468532324073" lon="12.231437018416598"><ele>3.0</ele><time>2026-03-29T13:11:10.001Z</time></trkpt><trkpt lat="44.66486339697072" lon="12.23142493531275"><ele>3.0</ele><time>2026-03-29T13:11:11.001Z</time></trkpt><trkpt lat="44.66503600067909" lon="12.231414015565372"><ele>3.0</ele><time>2026-03-29T13:11:12.001Z</time></trkpt><trkpt lat="44.665204998978346" lon="12.231402013997597"><ele>3.0</ele><time>2026-03-29T13:11:13.001Z</time></trkpt><trkpt lat="44.665376800888126" lon="12.231387689403746"><ele>3.333333333333333</ele><time>2026-03-29T13:11:14.001Z</time></trkpt><trkpt lat="44.665546992308016" lon="12.231371535620513"><ele>3.6666666666666665</ele><time>2026-03-29T13:11:15.001Z</time></trkpt><trkpt lat="44.66571918780594" lon="12.231358064550868"><ele>4.0</ele><time>2026-03-29T13:11:16.001Z</time></trkpt><trkpt lat="44.665897923345824" lon="12.231345463923246"><ele>4.0</ele><time>2026-03-29T13:11:17.001Z</time></trkpt><trkpt lat="44.66607164049192" lon="12.231326611879776"><ele>4.0</ele><time>2026-03-29T13:11:18.001Z</time></trkpt><trkpt lat="44.66624504654194" lon="12.231306034139507"><ele>4.0</ele><time>2026-03-29T13:11:19.001Z</time></trkpt><trkpt lat="44.6664177372765" lon="12.231298993494015"><ele>3.0</ele><time>2026-03-29T13:11:20.001Z</time></trkpt><trkpt lat="44.666583828318835" lon="12.231286201011304"><ele>2.0</ele><time>2026-03-29T13:11:21.001Z</time></trkpt><trkpt lat="44.666756481019476" lon="12.23127759561538"><ele>1.0</ele><time>2026-03-29T13:11:22.001Z</time></trkpt><trkpt lat="44.66692637438005" lon="12.23126483883908"><ele>1.0</ele><time>2026-03-29T13:11:23.001Z</time></trkpt><trkpt lat="44.66710307753813" lon="12.231244155362612"><ele>1.0</ele><time>2026-03-29T13:11:24.001Z</time></trkpt><trkpt lat="44.66727616041476" lon="12.231229267179529"><ele>1.0</ele><time>2026-03-29T13:11:25.001Z</time></trkpt><trkpt lat="44.66744627912905" lon="12.231214378716498"><ele>1.0</ele><time>2026-03-29T13:11:26.001Z</time></trkpt><trkpt lat="44.66762271686642" lon="12.23120337326089"><ele>1.0</ele><time>2026-03-29T13:11:27.001Z</time></trkpt><trkpt lat="44.66779895675571" lon="12.231196354830207"><ele>1.0</ele><time>2026-03-29T13:11:28.001Z</time></trkpt><trkpt lat="44.66798700991173" lon="12.231178046056565"><ele>1.0</ele><time>2026-03-29T13:11:29.001Z</time></trkpt><trkpt lat="44.668175827190396" lon="12.23115770197575"><ele>1.0</ele><time>2026-03-29T13:11:30.001Z</time></trkpt><trkpt lat="44.66835799504903" lon="12.231132389935768"><ele>1.0</ele><time>2026-03-29T13:11:31.001Z</time></trkpt><trkpt lat="44.668535805812134" lon="12.231086695934723"><ele>1.6666666666666665</ele><time>2026-03-29T13:11:32.001Z</time></trkpt><trkpt lat="44.66870893704108" lon="12.231021480851568"><ele>2.3333333333333335</ele><time>2026-03-29T13:11:33.001Z</time></trkpt><trkpt lat="44.6688761564183" lon="12.230951999928823"><ele>3.0</ele><time>2026-03-29T13:11:34.001Z</time></trkpt><trkpt lat="44.669040721497694" lon="12.230882079960699"><ele>3.0</ele><time>2026-03-29T13:11:35.001Z</time></trkpt><trkpt lat="44.6692099584408" lon="12.230797199083772"><ele>3.0</ele><time>2026-03-29T13:11:36.001Z</time></trkpt><trkpt lat="44.66937733213933" lon="12.230713949126653"><ele>3.0</ele><time>2026-03-29T13:11:37.001Z</time></trkpt><trkpt lat="44.6695439479726" lon="12.230638790128756"><ele>2.6666666666666665</ele><time>2026-03-29T13:11:38.001Z</time></trkpt><trkpt lat="44.6697068266558" lon="12.230561893431604"><ele>2.333333333333333</ele><time>2026-03-29T13:11:39.001Z</time></trkpt><trkpt lat="44.66986927269426" lon="12.23048300952968"><ele>2.0</ele><time>2026-03-29T13:11:40.001Z</time></trkpt><trkpt lat="44.6700371743436" lon="12.230399727908612"><ele>2.0</ele><time>2026-03-29T13:11:41.002Z</time></trkpt><trkpt lat="44.67020726539606" lon="12.230320181472436"><ele>2.0</ele><time>2026-03-29T13:11:42.002Z</time></trkpt><trkpt lat="44.67037971589547" lon="12.230235661671026"><ele>2.0</ele><time>2026-03-29T13:11:43.002Z</time></trkpt><trkpt lat="44.67054896088729" lon="12.230151769309597"><ele>1.6666666666666665</ele><time>2026-03-29T13:11:44.002Z</time></trkpt><trkpt lat="44.67071985140256" lon="12.230068613222778"><ele>1.3333333333333333</ele><time>2026-03-29T13:11:45.002Z</time></trkpt><trkpt lat="44.67088036285367" lon="12.229988296786185"><ele>1.0</ele><time>2026-03-29T13:11:46.002Z</time></trkpt><trkpt lat="44.671038952142375" lon="12.229911199365898"><ele>1.0</ele><time>2026-03-29T13:11:47.002Z</time></trkpt><trkpt lat="44.67119622893492" lon="12.229839173824349"><ele>1.0</ele><time>2026-03-29T13:11:48.002Z</time></trkpt><trkpt lat="44.67135363741464" lon="12.229769012268372"><ele>1.0</ele><time>2026-03-29T13:11:49.002Z</time></trkpt><trkpt lat="44.671509138583026" lon="12.229693384753473"><ele>1.3333333333333333</ele><time>2026-03-29T13:11:50.002Z</time></trkpt><trkpt lat="44.67166589894628" lon="12.229617538169839"><ele>1.6666666666666665</ele><time>2026-03-29T13:11:51.002Z</time></trkpt><trkpt lat="44.671828294198654" lon="12.229538077292519"><ele>2.0</ele><time>2026-03-29T13:11:52.002Z</time></trkpt><trkpt lat="44.671993137611835" lon="12.229462251480394"><ele>2.6666666666666665</ele><time>2026-03-29T13:11:53.002Z</time></trkpt><trkpt lat="44.672159196793686" lon="12.22938978694941"><ele>3.333333333333333</ele><time>2026-03-29T13:11:54.002Z</time></trkpt><trkpt lat="44.672325139820884" lon="12.229311160006965"><ele>4.0</ele><time>2026-03-29T13:11:55.002Z</time></trkpt><trkpt lat="44.67248898483745" lon="12.22922978160783"><ele>4.0</ele><time>2026-03-29T13:11:56.002Z</time></trkpt><trkpt lat="44.672653370297766" lon="12.229151004722537"><ele>4.0</ele><time>2026-03-29T13:11:57.002Z</time></trkpt><trkpt lat="44.672818817445666" lon="12.229074013470392"><ele>4.0</ele><time>2026-03-29T13:11:58Z</time></trkpt><trkpt lat="44.672988853809564" lon="12.228994221571213"><ele>2.333333333333333</ele><time>2026-03-29T13:11:59Z</time></trkpt><trkpt lat="44.67315628311237" lon="12.22891875135391"><ele>0.6666666666666666</ele><time>2026-03-29T13:12:00Z</time></trkpt><trkpt lat="44.67332444380702" lon="12.228838726582705"><ele>-1.0</ele><time>2026-03-29T13:12:01Z</time></trkpt><trkpt lat="44.673487263664775" lon="12.228756632500575"><ele>-0.6666666666666666</ele><time>2026-03-29T13:12:02Z</time></trkpt><trkpt lat="44.6736403190549" lon="12.228681059276077"><ele>-0.3333333333333333</ele><time>2026-03-29T13:12:03Z</time></trkpt><trkpt lat="44.673780953137886" lon="12.228611710776587"><ele>0.0</ele><time>2026-03-29T13:12:04Z</time></trkpt><trkpt lat="44.67391387043193" lon="12.228546870949994"><ele>0.0</ele><time>2026-03-29T13:12:05Z</time></trkpt><trkpt lat="44.67404783770318" lon="12.22848272192161"><ele>0.0</ele><time>2026-03-29T13:12:06Z</time></trkpt><trkpt lat="44.67417422639016" lon="12.228427406914058"><ele>0.0</ele><time>2026-03-29T13:12:07Z</time></trkpt><trkpt lat="44.674291871474416" lon="12.228372194638633"><ele>0.0</ele><time>2026-03-29T13:12:08Z</time></trkpt><trkpt lat="44.67441576191371" lon="12.228313594573278"><ele>0.25</ele><time>2026-03-29T13:12:09Z</time></trkpt><trkpt lat="44.67454285114667" lon="12.228251924745026"><ele>0.5</ele><time>2026-03-29T13:12:10Z</time></trkpt><trkpt lat="44.674671556661366" lon="12.22819255291118"><ele>0.75</ele><time>2026-03-29T13:12:11Z</time></trkpt><trkpt lat="44.67480030780046" lon="12.22813169959835"><ele>1.0</ele><time>2026-03-29T13:12:12Z</time></trkpt><trkpt lat="44.67492109946885" lon="12.22807481935695"><ele>1.0</ele><time>2026-03-29T13:12:13Z</time></trkpt><trkpt lat="44.67502524737315" lon="12.228029057024715"><ele>1.0</ele><time>2026-03-29T13:12:14Z</time></trkpt><trkpt lat="44.67512412810593" lon="12.22798244048779"><ele>1.0</ele><time>2026-03-29T13:12:15Z</time></trkpt><trkpt lat="44.67522455802551" lon="12.22793385547753"><ele>1.0</ele><time>2026-03-29T13:12:16Z</time></trkpt><trkpt lat="44.67532975018885" lon="12.22788136621231"><ele>1.0</ele><time>2026-03-29T13:12:17Z</time></trkpt><trkpt lat="44.67543775994655" lon="12.227832149318035"><ele>1.25</ele><time>2026-03-29T13:12:18Z</time></trkpt><trkpt lat="44.67555103278759" lon="12.227779126163652"><ele>1.5</ele><time>2026-03-29T13:12:19Z</time></trkpt><trkpt lat="44.675663948906084" lon="12.227724882148369"><ele>1.75</ele><time>2026-03-29T13:12:20Z</time></trkpt><trkpt lat="44.67577920029406" lon="12.227669142198987"><ele>2.0</ele><time>2026-03-29T13:12:21Z</time></trkpt><trkpt lat="44.67590313530052" lon="12.227610012702044"><ele>2.0</ele><time>2026-03-29T13:12:22Z</time></trkpt><trkpt lat="44.676029382753924" lon="12.227551350247499"><ele>2.0</ele><time>2026-03-29T13:12:23Z</time></trkpt><trkpt lat="44.67615258060807" lon="12.227486637526248"><ele>2.0</ele><time>2026-03-29T13:12:24Z</time></trkpt><trkpt lat="44.676276302598566" lon="12.22741060494246"><ele>2.0</ele><time>2026-03-29T13:12:25Z</time></trkpt><trkpt lat="44.67639130718973" lon="12.227331932636563"><ele>2.0</ele><time>2026-03-29T13:12:26Z</time></trkpt><trkpt lat="44.67649811339477" lon="12.227255028760684"><ele>2.0</ele><time>2026-03-29T13:12:27Z</time></trkpt><trkpt lat="44.67659978335401" lon="12.22717996327399"><ele>2.0</ele><time>2026-03-29T13:12:28Z</time></trkpt><trkpt lat="44.676698653031245" lon="12.227103547168495"><ele>2.0</ele><time>2026-03-29T13:12:29Z</time></trkpt><trkpt lat="44.676799879089806" lon="12.227022232905993"><ele>2.0</ele><time>2026-03-29T13:12:30Z</time></trkpt><trkpt lat="44.67689106372151" lon="12.226946821451367"><ele>2.0</ele><time>2026-03-29T13:12:31Z</time></trkpt><trkpt lat="44.67697609115229" lon="12.226866038868978"><ele>2.0</ele><time>2026-03-29T13:12:32Z</time></trkpt><trkpt lat="44.67706201296126" lon="12.226774384363724"><ele>2.0</ele><time>2026-03-29T13:12:33Z</time></trkpt><trkpt lat="44.677147878876355" lon="12.226676808256173"><ele>2.0</ele><time>2026-03-29T13:12:34Z</time></trkpt><trkpt lat="44.677232024651744" lon="12.226573595023813"><ele>2.0</ele><time>2026-03-29T13:12:35Z</time></trkpt><trkpt lat="44.67731749914195" lon="12.226471586718478"><ele>2.0</ele><time>2026-03-29T13:12:36Z</time></trkpt><trkpt lat="44.67740224391133" lon="12.226368081915144"><ele>2.0</ele><time>2026-03-29T13:12:37Z</time></trkpt><trkpt lat="44.67748170713634" lon="12.226277439144019"><ele>2.0</ele><time>2026-03-29T13:12:38Z</time></trkpt><trkpt lat="44.67756319045717" lon="12.226199296264191"><ele>2.0</ele><time>2026-03-29T13:12:39Z</time></trkpt><trkpt lat="44.677642194793926" lon="12.22610299966945"><ele>2.0</ele><time>2026-03-29T13:12:40.001Z</time></trkpt><trkpt lat="44.67772735649972" lon="12.226003731349826"><ele>2.0</ele><time>2026-03-29T13:12:41.001Z</time></trkpt><trkpt lat="44.67780653615088" lon="12.225905174231162"><ele>2.0</ele><time>2026-03-29T13:12:42.001Z</time></trkpt><trkpt lat="44.677873717981065" lon="12.225817332060886"><ele>2.0</ele><time>2026-03-29T13:12:43.001Z</time></trkpt><trkpt lat="44.67794184644259" lon="12.225762633596096"><ele>2.0</ele><time>2026-03-29T13:12:44.001Z</time></trkpt><trkpt lat="44.67801055485207" lon="12.225761795596746"><ele>2.0</ele><time>2026-03-29T13:12:45.001Z</time></trkpt><trkpt lat="44.67808057991829" lon="12.22580149333796"><ele>2.0</ele><time>2026-03-29T13:12:46.001Z</time></trkpt><trkpt lat="44.67815467988885" lon="12.22600036382634"><ele>2.0</ele><time>2026-03-29T13:12:48.001Z</time></trkpt><trkpt lat="44.67813979964932" lon="12.226133500276523"><ele>2.0</ele><time>2026-03-29T13:12:49.001Z</time></trkpt><trkpt lat="44.678094677269456" lon="12.226272594627149"><ele>2.0</ele><time>2026-03-29T13:12:50.001Z</time></trkpt><trkpt lat="44.678043100368825" lon="12.226414415246122"><ele>2.0</ele><time>2026-03-29T13:12:51.001Z</time></trkpt><trkpt lat="44.67800279417068" lon="12.226553097191585"><ele>2.0</ele><time>2026-03-29T13:12:52.001Z</time></trkpt><trkpt lat="44.67795295208216" lon="12.226714149093867"><ele>2.0</ele><time>2026-03-29T13:12:53.001Z</time></trkpt><trkpt lat="44.677899900512905" lon="12.226887062023321"><ele>2.0</ele><time>2026-03-29T13:12:54.001Z</time></trkpt><trkpt lat="44.67784769532367" lon="12.227050118365488"><ele>2.0</ele><time>2026-03-29T13:12:55.001Z</time></trkpt><trkpt lat="44.67780670027971" lon="12.22722904789513"><ele>2.0</ele><time>2026-03-29T13:12:56.001Z</time></trkpt><trkpt lat="44.67775904065762" lon="12.22739372845663"><ele>2.0</ele><time>2026-03-29T13:12:57.001Z</time></trkpt><trkpt lat="44.677713102486656" lon="12.227556816331134"><ele>2.0</ele><time>2026-03-29T13:12:58.001Z</time></trkpt><trkpt lat="44.67767229279758" lon="12.227713126098537"><ele>2.5</ele><time>2026-03-29T13:12:59.001Z</time></trkpt><trkpt lat="44.67763283377994" lon="12.227862970780745"><ele>3.0</ele><time>2026-03-29T13:13:00.001Z</time></trkpt><trkpt lat="44.67759220076374" lon="12.228017699397434"><ele>3.5</ele><time>2026-03-29T13:13:01.001Z</time></trkpt><trkpt lat="44.67754384484874" lon="12.228168020772626"><ele>4.0</ele><time>2026-03-29T13:13:02.001Z</time></trkpt><trkpt lat="44.6775001155479" lon="12.228328142465973"><ele>4.0</ele><time>2026-03-29T13:13:03.001Z</time></trkpt><trkpt lat="44.677458748483026" lon="12.228492265479236"><ele>4.0</ele><time>2026-03-29T13:13:04.001Z</time></trkpt><trkpt lat="44.67741278623924" lon="12.228656468979931"><ele>4.0</ele><time>2026-03-29T13:13:05.001Z</time></trkpt><trkpt lat="44.67736647859528" lon="12.228816019319234"><ele>4.0</ele><time>2026-03-29T13:13:06.001Z</time></trkpt><trkpt lat="44.67732838774263" lon="12.228973448049937"><ele>3.6</ele><time>2026-03-29T13:13:07.001Z</time></trkpt><trkpt lat="44.67729404383796" lon="12.22912553677541"><ele>3.2</ele><time>2026-03-29T13:13:08.001Z</time></trkpt><trkpt lat="44.67726851584641" lon="12.229261734176566"><ele>2.8000000000000003</ele><time>2026-03-29T13:13:09.001Z</time></trkpt><trkpt lat="44.677254912813474" lon="12.22938974917062"><ele>2.4000000000000004</ele><time>2026-03-29T13:13:10.001Z</time></trkpt><trkpt lat="44.67724089516153" lon="12.229521712902931"><ele>2.0</ele><time>2026-03-29T13:13:11.001Z</time></trkpt><trkpt lat="44.67721989590645" lon="12.229659527914746"><ele>1.9999999999999998</ele><time>2026-03-29T13:13:12.001Z</time></trkpt><trkpt lat="44.67721687044422" lon="12.22978468927878"><ele>2.0</ele><time>2026-03-29T13:13:13.001Z</time></trkpt><trkpt lat="44.67719993128441" lon="12.229896095620338"><ele>2.0</ele><time>2026-03-29T13:13:14.001Z</time></trkpt><trkpt lat="44.677196750366846" lon="12.229991478362459"><ele>2.0</ele><time>2026-03-29T13:13:15.001Z</time></trkpt><trkpt lat="44.677189842925586" lon="12.230084384742801"><ele>1.9999999999999998</ele><time>2026-03-29T13:13:16.001Z</time></trkpt><trkpt lat="44.677121109741634" lon="12.230195408673719"><ele>2.0</ele><time>2026-03-29T13:13:18.001Z</time></trkpt><trkpt lat="44.67701718433655" lon="12.23020716975595"><ele>1.6</ele><time>2026-03-29T13:13:19.001Z</time></trkpt><trkpt lat="44.67692473122949" lon="12.230198939984495"><ele>1.2000000000000002</ele><time>2026-03-29T13:13:20.001Z</time></trkpt><trkpt lat="44.67681019421068" lon="12.230183678284693"><ele>0.8</ele><time>2026-03-29T13:13:21.001Z</time></trkpt><trkpt lat="44.67668688948828" lon="12.230172487621768"><ele>0.4</ele><time>2026-03-29T13:13:22.001Z</time></trkpt><trkpt lat="44.67658705986578" lon="12.230155354474894"><ele>0.0</ele><time>2026-03-29T13:13:23.001Z</time></trkpt><trkpt lat="44.67650832885972" lon="12.230139774517877"><ele>0.0</ele><time>2026-03-29T13:13:24.001Z</time></trkpt><trkpt lat="44.67643443705288" lon="12.230139196109148"><ele>0.0</ele><time>2026-03-29T13:13:25.001Z</time></trkpt><trkpt lat="44.6763702696592" lon="12.23013669719412"><ele>0.0</ele><time>2026-03-29T13:13:26.001Z</time></trkpt><trkpt lat="44.67626086634907" lon="12.230123167052966"><ele>0.0</ele><time>2026-03-29T13:13:28.001Z</time></trkpt><trkpt lat="44.676168511600515" lon="12.230096921012384"><ele>0.0</ele><time>2026-03-29T13:13:30.001Z</time></trkpt><trkpt lat="44.676106361749625" lon="12.230071302786369"><ele>0.0</ele><time>2026-03-29T13:13:33.001Z</time></trkpt><trkpt lat="44.676104910952226" lon="12.229916034616105"><ele>0.16666666666666666</ele><time>2026-03-29T13:13:34.001Z</time></trkpt><trkpt lat="44.67610208881372" lon="12.229824728386003"><ele>0.3333333333333333</ele><time>2026-03-29T13:13:35.001Z</time></trkpt><trkpt lat="44.676091917331554" lon="12.229726532661774"><ele>0.5</ele><time>2026-03-29T13:13:36.001Z</time></trkpt><trkpt lat="44.67607735206213" lon="12.229606844803563"><ele>0.6666666666666666</ele><time>2026-03-29T13:13:37.001Z</time></trkpt><trkpt lat="44.67606201470778" lon="12.229481428193557"><ele>0.8333333333333333</ele><time>2026-03-29T13:13:38.001Z</time></trkpt><trkpt lat="44.67604969813844" lon="12.22935887876045"><ele>1.0</ele><time>2026-03-29T13:13:39.001Z</time></trkpt><trkpt lat="44.676029271485866" lon="12.229202095012758"><ele>1.25</ele><time>2026-03-29T13:13:40.002Z</time></trkpt><trkpt lat="44.676005057576454" lon="12.229021443100448"><ele>1.5</ele><time>2026-03-29T13:13:41.002Z</time></trkpt><trkpt lat="44.675988025618366" lon="12.228846567678632"><ele>1.75</ele><time>2026-03-29T13:13:42.002Z</time></trkpt><trkpt lat="44.67596699758618" lon="12.22867668140663"><ele>2.0</ele><time>2026-03-29T13:13:43.002Z</time></trkpt><trkpt lat="44.67594855940164" lon="12.228517697961813"><ele>2.0</ele><time>2026-03-29T13:13:44.002Z</time></trkpt><trkpt lat="44.6759297985444" lon="12.228363198730836"><ele>2.0</ele><time>2026-03-29T13:13:45.002Z</time></trkpt><trkpt lat="44.6759141907814" lon="12.228216776103729"><ele>2.0</ele><time>2026-03-29T13:13:46.002Z</time></trkpt><trkpt lat="44.67589587604486" lon="12.228067478568583"><ele>2.0</ele><time>2026-03-29T13:13:47.002Z</time></trkpt><trkpt lat="44.67587853194944" lon="12.22792443351022"><ele>2.0</ele><time>2026-03-29T13:13:48.002Z</time></trkpt><trkpt lat="44.675867961992374" lon="12.227801858440202"><ele>2.0</ele><time>2026-03-29T13:13:49.002Z</time></trkpt><trkpt lat="44.67585537995491" lon="12.227680986773624"><ele>2.0</ele><time>2026-03-29T13:13:50.002Z</time></trkpt><trkpt lat="44.67584064597211" lon="12.227547896085818"><ele>2.0</ele><time>2026-03-29T13:13:51.002Z</time></trkpt><trkpt lat="44.67583015854594" lon="12.227390283830827"><ele>2.0</ele><time>2026-03-29T13:13:52.002Z</time></trkpt><trkpt lat="44.67580125821144" lon="12.227229131714628"><ele>2.0</ele><time>2026-03-29T13:13:53.002Z</time></trkpt><trkpt lat="44.67578620650617" lon="12.227091706647677"><ele>2.0</ele><time>2026-03-29T13:13:54.002Z</time></trkpt><trkpt lat="44.675774293413376" lon="12.226978481922904"><ele>2.0</ele><time>2026-03-29T13:13:55.002Z</time></trkpt><trkpt lat="44.67576632791709" lon="12.226879418887751"><ele>2.0</ele><time>2026-03-29T13:13:56.002Z</time></trkpt><trkpt lat="44.67576454267438" lon="12.226790131898321"><ele>2.0</ele><time>2026-03-29T13:13:57.002Z</time></trkpt><trkpt lat="44.67576219219942" lon="12.226614786526197"><ele>2.0</ele><time>2026-03-29T13:13:59.002Z</time></trkpt><trkpt lat="44.675793216064065" lon="12.226453714481213"><ele>1.8333333333333333</ele><time>2026-03-29T13:14:01.002Z</time></trkpt><trkpt lat="44.675832994228784" lon="12.226366291123657"><ele>1.6666666666666665</ele><time>2026-03-29T13:14:02.002Z</time></trkpt><trkpt lat="44.675838316803194" lon="12.226256556906332"><ele>1.5</ele><time>2026-03-29T13:14:03.002Z</time></trkpt><trkpt lat="44.675812690211195" lon="12.226135025108679"><ele>1.3333333333333333</ele><time>2026-03-29T13:14:04Z</time></trkpt><trkpt lat="44.67577250920044" lon="12.226018880546144"><ele>1.1666666666666665</ele><time>2026-03-29T13:14:05Z</time></trkpt><trkpt lat="44.67576556369543" lon="12.225908797224198"><ele>1.0</ele><time>2026-03-29T13:14:06Z</time></trkpt><trkpt lat="44.675768721846936" lon="12.22578380437225"><ele>1.0</ele><time>2026-03-29T13:14:07Z</time></trkpt><trkpt lat="44.67578291287293" lon="12.22565914000073"><ele>1.0</ele><time>2026-03-29T13:14:08Z</time></trkpt><trkpt lat="44.67579782384996" lon="12.225523417776435"><ele>1.0</ele><time>2026-03-29T13:14:09Z</time></trkpt><trkpt lat="44.67581656302172" lon="12.225356941645376"><ele>1.0</ele><time>2026-03-29T13:14:10Z</time></trkpt><trkpt lat="44.67583103021115" lon="12.225164512581996"><ele>1.0</ele><time>2026-03-29T13:14:11Z</time></trkpt><trkpt lat="44.67584860601574" lon="12.224989085982008"><ele>1.0</ele><time>2026-03-29T13:14:12Z</time></trkpt><trkpt lat="44.675866257789025" lon="12.224813977167312"><ele>1.0</ele><time>2026-03-29T13:14:13Z</time></trkpt><trkpt lat="44.67588725026685" lon="12.224625934466635"><ele>1.0</ele><time>2026-03-29T13:14:14Z</time></trkpt><trkpt lat="44.67590704264095" lon="12.224424078948177"><ele>1.0</ele><time>2026-03-29T13:14:15Z</time></trkpt><trkpt lat="44.675929323605324" lon="12.224207280682123"><ele>1.0</ele><time>2026-03-29T13:14:16Z</time></trkpt><trkpt lat="44.67595488787532" lon="12.223980072734792"><ele>1.0</ele><time>2026-03-29T13:14:17Z</time></trkpt><trkpt lat="44.675976963511296" lon="12.223765388943034"><ele>1.0</ele><time>2026-03-29T13:14:18Z</time></trkpt><trkpt lat="44.67599701796801" lon="12.223552935802457"><ele>1.0</ele><time>2026-03-29T13:14:19Z</time></trkpt><trkpt lat="44.676017304420306" lon="12.223336193161805"><ele>1.0</ele><time>2026-03-29T13:14:20Z</time></trkpt><trkpt lat="44.67603959632151" lon="12.22312771086026"><ele>1.0</ele><time>2026-03-29T13:14:21Z</time></trkpt><trkpt lat="44.67605893965105" lon="12.222935404084808"><ele>1.0</ele><time>2026-03-29T13:14:22Z</time></trkpt><trkpt lat="44.676077971844286" lon="12.222755102896292"><ele>0.75</ele><time>2026-03-29T13:14:23Z</time></trkpt><trkpt lat="44.67609464346403" lon="12.222575797120657"><ele>0.5</ele><time>2026-03-29T13:14:24Z</time></trkpt><trkpt lat="44.67611147158227" lon="12.222390410644094"><ele>0.25</ele><time>2026-03-29T13:14:25Z</time></trkpt><trkpt lat="44.67613352998073" lon="12.22219876012041"><ele>0.0</ele><time>2026-03-29T13:14:26Z</time></trkpt><trkpt lat="44.67615445894142" lon="12.222000886335767"><ele>-0.5</ele><time>2026-03-29T13:14:27Z</time></trkpt><trkpt lat="44.67617583851038" lon="12.221798020512722"><ele>-1.0</ele><time>2026-03-29T13:14:28Z</time></trkpt><trkpt lat="44.67619722532953" lon="12.221589526046833"><ele>-1.5</ele><time>2026-03-29T13:14:29Z</time></trkpt><trkpt lat="44.67622010770279" lon="12.221377163576486"><ele>-2.0</ele><time>2026-03-29T13:14:30Z</time></trkpt><trkpt lat="44.676241261184714" lon="12.221160696169912"><ele>-2.0</ele><time>2026-03-29T13:14:31Z</time></trkpt><trkpt lat="44.67626377585237" lon="12.220944015931924"><ele>-2.0</ele><time>2026-03-29T13:14:32Z</time></trkpt><trkpt lat="44.676286252538155" lon="12.220736764220739"><ele>-2.0</ele><time>2026-03-29T13:14:33Z</time></trkpt><trkpt lat="44.676306961126144" lon="12.22051459766937"><ele>-1.6666666666666665</ele><time>2026-03-29T13:14:34Z</time></trkpt><trkpt lat="44.676330115440656" lon="12.2202848860126"><ele>-1.3333333333333333</ele><time>2026-03-29T13:14:35Z</time></trkpt><trkpt lat="44.67635250904664" lon="12.220053058761179"><ele>-1.0</ele><time>2026-03-29T13:14:36Z</time></trkpt><trkpt lat="44.67637534890088" lon="12.219813973338299"><ele>-0.6666666666666666</ele><time>2026-03-29T13:14:37Z</time></trkpt><trkpt lat="44.67639828066859" lon="12.219587090747643"><ele>-0.3333333333333333</ele><time>2026-03-29T13:14:38Z</time></trkpt><trkpt lat="44.67642133108567" lon="12.21937849928225"><ele>0.0</ele><time>2026-03-29T13:14:39Z</time></trkpt><trkpt lat="44.67644280141309" lon="12.219165139021895"><ele>0.3333333333333333</ele><time>2026-03-29T13:14:40Z</time></trkpt><trkpt lat="44.67646263536699" lon="12.218955681257164"><ele>0.6666666666666666</ele><time>2026-03-29T13:14:41Z</time></trkpt><trkpt lat="44.67648216203643" lon="12.218741139938723"><ele>1.0</ele><time>2026-03-29T13:14:42Z</time></trkpt><trkpt lat="44.676502736873196" lon="12.218531355431486"><ele>1.0</ele><time>2026-03-29T13:14:43Z</time></trkpt><trkpt lat="44.67652448419826" lon="12.218317115398854"><ele>1.0</ele><time>2026-03-29T13:14:44Z</time></trkpt><trkpt lat="44.67654808447591" lon="12.218093001884164"><ele>1.0</ele><time>2026-03-29T13:14:45Z</time></trkpt><trkpt lat="44.67657266033198" lon="12.217864698856461"><ele>1.0</ele><time>2026-03-29T13:14:46Z</time></trkpt><trkpt lat="44.676597445114254" lon="12.217639904892781"><ele>1.0</ele><time>2026-03-29T13:14:47Z</time></trkpt><trkpt lat="44.67662072277202" lon="12.217412062501191"><ele>1.0</ele><time>2026-03-29T13:14:48Z</time></trkpt><trkpt lat="44.67664437744117" lon="12.21718387348458"><ele>1.3333333333333333</ele><time>2026-03-29T13:14:49Z</time></trkpt><trkpt lat="44.67666747929164" lon="12.216950466398233"><ele>1.6666666666666665</ele><time>2026-03-29T13:14:50Z</time></trkpt><trkpt lat="44.67669303758608" lon="12.2167136266401"><ele>2.0</ele><time>2026-03-29T13:14:51Z</time></trkpt><trkpt lat="44.676716385205154" lon="12.216479934982047"><ele>2.0</ele><time>2026-03-29T13:14:52.001Z</time></trkpt><trkpt lat="44.676740796312814" lon="12.216235051613708"><ele>2.0</ele><time>2026-03-29T13:14:53.001Z</time></trkpt><trkpt lat="44.676765790108405" lon="12.215988094806152"><ele>2.0</ele><time>2026-03-29T13:14:54.001Z</time></trkpt><trkpt lat="44.67679094731356" lon="12.215737588564165"><ele>1.3333333333333333</ele><time>2026-03-29T13:14:55.001Z</time></trkpt><trkpt lat="44.67681491791211" lon="12.215482181217844"><ele>0.6666666666666666</ele><time>2026-03-29T13:14:56.001Z</time></trkpt><trkpt lat="44.67683732249447" lon="12.215235498283718"><ele>0.0</ele><time>2026-03-29T13:14:57.001Z</time></trkpt><trkpt lat="44.67686152070049" lon="12.214982977271848"><ele>0.0</ele><time>2026-03-29T13:14:58.001Z</time></trkpt><trkpt lat="44.67688666051898" lon="12.214732498379632"><ele>0.0</ele><time>2026-03-29T13:14:59.001Z</time></trkpt><trkpt lat="44.67691441871088" lon="12.214489960259431"><ele>0.0</ele><time>2026-03-29T13:15:00.001Z</time></trkpt><trkpt lat="44.67693993039164" lon="12.214238916952587"><ele>0.0</ele><time>2026-03-29T13:15:01.001Z</time></trkpt><trkpt lat="44.67696440443705" lon="12.21398974351529"><ele>0.0</ele><time>2026-03-29T13:15:02.001Z</time></trkpt><trkpt lat="44.676988002162055" lon="12.213739902816188"><ele>0.0</ele><time>2026-03-29T13:15:03.001Z</time></trkpt><trkpt lat="44.67701480595776" lon="12.213487239863088"><ele>0.0</ele><time>2026-03-29T13:15:04.001Z</time></trkpt><trkpt lat="44.67704195167023" lon="12.213237823867273"><ele>0.0</ele><time>2026-03-29T13:15:05.001Z</time></trkpt><trkpt lat="44.6770636294905" lon="12.212992919139833"><ele>0.0</ele><time>2026-03-29T13:15:06.001Z</time></trkpt><trkpt lat="44.677088286659654" lon="12.212749933461701"><ele>0.0</ele><time>2026-03-29T13:15:07.001Z</time></trkpt><trkpt lat="44.67711273170165" lon="12.212507935188608"><ele>0.0</ele><time>2026-03-29T13:15:08.001Z</time></trkpt><trkpt lat="44.67713665109243" lon="12.212271844499195"><ele>0.0</ele><time>2026-03-29T13:15:09.001Z</time></trkpt><trkpt lat="44.67716058631254" lon="12.21203302122428"><ele>0.0</ele><time>2026-03-29T13:15:10.001Z</time></trkpt><trkpt lat="44.67718430070094" lon="12.211797157725055"><ele>0.0</ele><time>2026-03-29T13:15:11.001Z</time></trkpt><trkpt lat="44.677208815991456" lon="12.211563691994481"><ele>0.0</ele><time>2026-03-29T13:15:12.001Z</time></trkpt><trkpt lat="44.677230366966285" lon="12.211327277699967"><ele>0.0</ele><time>2026-03-29T13:15:13.001Z</time></trkpt><trkpt lat="44.67724958804975" lon="12.211084086702769"><ele>0.0</ele><time>2026-03-29T13:15:14.001Z</time></trkpt><trkpt lat="44.677277173766036" lon="12.210847408691603"><ele>0.0</ele><time>2026-03-29T13:15:15.001Z</time></trkpt><trkpt lat="44.67730207946029" lon="12.210609091638325"><ele>-0.3333333333333333</ele><time>2026-03-29T13:15:16.001Z</time></trkpt><trkpt lat="44.67732564756519" lon="12.21036886898557"><ele>-0.6666666666666666</ele><time>2026-03-29T13:15:17.001Z</time></trkpt><trkpt lat="44.67734941775455" lon="12.210130829680265"><ele>-1.0</ele><time>2026-03-29T13:15:18.001Z</time></trkpt><trkpt lat="44.67737253496405" lon="12.209882705979334"><ele>-2.0</ele><time>2026-03-29T13:15:19.001Z</time></trkpt><trkpt lat="44.677398970358496" lon="12.209639815891059"><ele>-3.0</ele><time>2026-03-29T13:15:20.001Z</time></trkpt><trkpt lat="44.6774250632118" lon="12.209394600179149"><ele>-4.0</ele><time>2026-03-29T13:15:21.001Z</time></trkpt><trkpt lat="44.67745082994264" lon="12.209136568177643"><ele>-4.333333333333333</ele><time>2026-03-29T13:15:22.001Z</time></trkpt><trkpt lat="44.677478253836625" lon="12.208877337193394"><ele>-4.666666666666667</ele><time>2026-03-29T13:15:23.001Z</time></trkpt><trkpt lat="44.67750622876737" lon="12.208613912573366"><ele>-5.0</ele><time>2026-03-29T13:15:24.001Z</time></trkpt><trkpt lat="44.677531863225255" lon="12.20835150500383"><ele>-5.0</ele><time>2026-03-29T13:15:25.001Z</time></trkpt><trkpt lat="44.67755917355442" lon="12.208089106616848"><ele>-5.0</ele><time>2026-03-29T13:15:26.001Z</time></trkpt><trkpt lat="44.67758721338408" lon="12.207823895395027"><ele>-5.0</ele><time>2026-03-29T13:15:27.001Z</time></trkpt><trkpt lat="44.67761421988394" lon="12.20754917064121"><ele>-5.0</ele><time>2026-03-29T13:15:28.001Z</time></trkpt><trkpt lat="44.67763762154042" lon="12.207275548972506"><ele>-5.0</ele><time>2026-03-29T13:15:29.001Z</time></trkpt><trkpt lat="44.67766356644835" lon="12.206998360464809"><ele>-5.0</ele><time>2026-03-29T13:15:30.001Z</time></trkpt><trkpt lat="44.67769185917387" lon="12.206732305065747"><ele>-5.0</ele><time>2026-03-29T13:15:31.001Z</time></trkpt><trkpt lat="44.67772050869023" lon="12.206462766290313"><ele>-5.0</ele><time>2026-03-29T13:15:32.001Z</time></trkpt><trkpt lat="44.67774716370806" lon="12.206197529089577"><ele>-5.0</ele><time>2026-03-29T13:15:33.001Z</time></trkpt><trkpt lat="44.67777191643775" lon="12.205943439726411"><ele>-4.333333333333334</ele><time>2026-03-29T13:15:34.001Z</time></trkpt><trkpt lat="44.67779621867067" lon="12.205703233314132"><ele>-3.666666666666667</ele><time>2026-03-29T13:15:35.001Z</time></trkpt><trkpt lat="44.677824466985356" lon="12.205465286389027"><ele>-3.0</ele><time>2026-03-29T13:15:36.001Z</time></trkpt><trkpt lat="44.67785837452597" lon="12.20523289842797"><ele>-3.0</ele><time>2026-03-29T13:15:37.001Z</time></trkpt><trkpt lat="44.67789690438528" lon="12.204995539907339"><ele>-3.0</ele><time>2026-03-29T13:15:38.001Z</time></trkpt><trkpt lat="44.677952310180906" lon="12.204762993788156"><ele>-3.0</ele><time>2026-03-29T13:15:39.001Z</time></trkpt><trkpt lat="44.678014458975966" lon="12.204530257133001"><ele>-3.0</ele><time>2026-03-29T13:15:40.001Z</time></trkpt><trkpt lat="44.6780862293202" lon="12.204300175201036"><ele>-3.0</ele><time>2026-03-29T13:15:41.001Z</time></trkpt><trkpt lat="44.67816525239345" lon="12.204068950334165"><ele>-3.0</ele><time>2026-03-29T13:15:42.001Z</time></trkpt><trkpt lat="44.67825476667873" lon="12.203837587481647"><ele>-3.0</ele><time>2026-03-29T13:15:43.001Z</time></trkpt><trkpt lat="44.67834776955414" lon="12.203616272670986"><ele>-3.0</ele><time>2026-03-29T13:15:44.001Z</time></trkpt><trkpt lat="44.678451248084755" lon="12.203400720697328"><ele>-3.0</ele><time>2026-03-29T13:15:45.001Z</time></trkpt><trkpt lat="44.678564815690095" lon="12.203193413019129"><ele>-2.6666666666666665</ele><time>2026-03-29T13:15:46.001Z</time></trkpt><trkpt lat="44.67868227779375" lon="12.203006166370056"><ele>-2.333333333333333</ele><time>2026-03-29T13:15:47.001Z</time></trkpt><trkpt lat="44.678809653788576" lon="12.202822128980559"><ele>-2.0</ele><time>2026-03-29T13:15:48.002Z</time></trkpt><trkpt lat="44.67894152302076" lon="12.20264545661156"><ele>-2.0</ele><time>2026-03-29T13:15:49.002Z</time></trkpt><trkpt lat="44.679079711309974" lon="12.202473294052222"><ele>-2.0</ele><time>2026-03-29T13:15:50.002Z</time></trkpt><trkpt lat="44.6792222174044" lon="12.202314687641325"><ele>-2.0</ele><time>2026-03-29T13:15:51.002Z</time></trkpt><trkpt lat="44.67936874739308" lon="12.202166386290012"><ele>-2.0</ele><time>2026-03-29T13:15:52.002Z</time></trkpt><trkpt lat="44.67952058082413" lon="12.20202871867606"><ele>-2.0</ele><time>2026-03-29T13:15:53.002Z</time></trkpt><trkpt lat="44.67966610070607" lon="12.201895178814897"><ele>-2.0</ele><time>2026-03-29T13:15:54.002Z</time></trkpt><trkpt lat="44.67980866699683" lon="12.201766351077364"><ele>-2.0</ele><time>2026-03-29T13:15:55.002Z</time></trkpt><trkpt lat="44.67994691825993" lon="12.20164008154959"><ele>-2.0</ele><time>2026-03-29T13:15:56.002Z</time></trkpt><trkpt lat="44.68008008547026" lon="12.201515186431925"><ele>-2.0</ele><time>2026-03-29T13:15:57.002Z</time></trkpt><trkpt lat="44.68021851393465" lon="12.201386748231648"><ele>-2.0</ele><time>2026-03-29T13:15:58.002Z</time></trkpt><trkpt lat="44.68035573936265" lon="12.201262601752756"><ele>-2.0</ele><time>2026-03-29T13:15:59.002Z</time></trkpt><trkpt lat="44.68050141550487" lon="12.20112773001854"><ele>-2.0</ele><time>2026-03-29T13:16:00.002Z</time></trkpt><trkpt lat="44.680647180144604" lon="12.200994577261557"><ele>-2.0</ele><time>2026-03-29T13:16:01.002Z</time></trkpt><trkpt lat="44.680790798364164" lon="12.200858454108358"><ele>-2.0</ele><time>2026-03-29T13:16:02.002Z</time></trkpt><trkpt lat="44.6809363068921" lon="12.200724512675942"><ele>-2.0</ele><time>2026-03-29T13:16:03.002Z</time></trkpt><trkpt lat="44.6810797339618" lon="12.200591451940156"><ele>-1.6666666666666665</ele><time>2026-03-29T13:16:04.002Z</time></trkpt><trkpt lat="44.68122711006506" lon="12.200453503513275"><ele>-1.3333333333333333</ele><time>2026-03-29T13:16:05.002Z</time></trkpt><trkpt lat="44.68137490667346" lon="12.200318994952276"><ele>-1.0</ele><time>2026-03-29T13:16:06.002Z</time></trkpt><trkpt lat="44.6815165385393" lon="12.200181289857278"><ele>-1.0</ele><time>2026-03-29T13:16:07.002Z</time></trkpt><trkpt lat="44.68165563337242" lon="12.200030293063966"><ele>-1.0</ele><time>2026-03-29T13:16:08.002Z</time></trkpt><trkpt lat="44.681786429293226" lon="12.19986893007895"><ele>-1.0</ele><time>2026-03-29T13:16:09.002Z</time></trkpt><trkpt lat="44.681908048114714" lon="12.199688339260065"><ele>-1.6666666666666665</ele><time>2026-03-29T13:16:10Z</time></trkpt><trkpt lat="44.68202674741315" lon="12.199507600107559"><ele>-2.3333333333333335</ele><time>2026-03-29T13:16:11Z</time></trkpt><trkpt lat="44.68214929893472" lon="12.199327986742684"><ele>-3.0</ele><time>2026-03-29T13:16:12Z</time></trkpt><trkpt lat="44.68227131382093" lon="12.199153534048484"><ele>-3.0</ele><time>2026-03-29T13:16:13Z</time></trkpt><trkpt lat="44.682393407047435" lon="12.198983537998513"><ele>-3.0</ele><time>2026-03-29T13:16:14Z</time></trkpt><trkpt lat="44.68250876657025" lon="12.198805929821416"><ele>-3.0</ele><time>2026-03-29T13:16:15Z</time></trkpt><trkpt lat="44.68262603940109" lon="12.198637649433117"><ele>-3.0</ele><time>2026-03-29T13:16:16Z</time></trkpt><trkpt lat="44.68273605864177" lon="12.198470384820999"><ele>-3.0</ele><time>2026-03-29T13:16:17Z</time></trkpt><trkpt lat="44.68284691576579" lon="12.198316471850925"><ele>-3.0</ele><time>2026-03-29T13:16:18Z</time></trkpt><trkpt lat="44.682954938984764" lon="12.198158524471577"><ele>-2.6666666666666665</ele><time>2026-03-29T13:16:19Z</time></trkpt><trkpt lat="44.68306030269919" lon="12.198004026617092"><ele>-2.333333333333333</ele><time>2026-03-29T13:16:20Z</time></trkpt><trkpt lat="44.683166978521406" lon="12.197846014189857"><ele>-2.0</ele><time>2026-03-29T13:16:21Z</time></trkpt><trkpt lat="44.68327500445962" lon="12.197687715657445"><ele>-2.0</ele><time>2026-03-29T13:16:22Z</time></trkpt><trkpt lat="44.68338252683929" lon="12.197528389113117"><ele>-2.0</ele><time>2026-03-29T13:16:23Z</time></trkpt><trkpt lat="44.68349043545757" lon="12.197374206793064"><ele>-2.0</ele><time>2026-03-29T13:16:24Z</time></trkpt><trkpt lat="44.68359589505515" lon="12.197218337251796"><ele>-2.0</ele><time>2026-03-29T13:16:25Z</time></trkpt><trkpt lat="44.68369036816356" lon="12.197071196233983"><ele>-2.0</ele><time>2026-03-29T13:16:26Z</time></trkpt><trkpt lat="44.68378075129593" lon="12.196936724332673"><ele>-2.0</ele><time>2026-03-29T13:16:27Z</time></trkpt><trkpt lat="44.68386964870432" lon="12.196806350346383"><ele>-2.0</ele><time>2026-03-29T13:16:28Z</time></trkpt><trkpt lat="44.683950491981975" lon="12.196687030462153"><ele>-2.0</ele><time>2026-03-29T13:16:29Z</time></trkpt><trkpt lat="44.68402369264177" lon="12.196573704918169"><ele>-2.0</ele><time>2026-03-29T13:16:30Z</time></trkpt><trkpt lat="44.684098250918574" lon="12.1964718511288"><ele>-2.0</ele><time>2026-03-29T13:16:31.001Z</time></trkpt><trkpt lat="44.684167524130366" lon="12.19637962801043"><ele>-2.0</ele><time>2026-03-29T13:16:32.001Z</time></trkpt><trkpt lat="44.68423865171472" lon="12.196311389844002"><ele>-2.0</ele><time>2026-03-29T13:16:33.001Z</time></trkpt><trkpt lat="44.684320996627484" lon="12.196277085835453"><ele>-2.2</ele><time>2026-03-29T13:16:34.001Z</time></trkpt><trkpt lat="44.684392156610244" lon="12.196264480353253"><ele>-2.4000000000000004</ele><time>2026-03-29T13:16:35.001Z</time></trkpt><trkpt lat="44.68445542341848" lon="12.196213748465176"><ele>-2.5999999999999996</ele><time>2026-03-29T13:16:36.001Z</time></trkpt><trkpt lat="44.68451131730334" lon="12.196111526476033"><ele>-2.8</ele><time>2026-03-29T13:16:37.001Z</time></trkpt><trkpt lat="44.68455306127555" lon="12.195971208789636"><ele>-3.0</ele><time>2026-03-29T13:16:38.001Z</time></trkpt><trkpt lat="44.684591305033415" lon="12.195800818406859"><ele>-2.25</ele><time>2026-03-29T13:16:39.001Z</time></trkpt><trkpt lat="44.68466136014357" lon="12.195644116467369"><ele>-1.5</ele><time>2026-03-29T13:16:40.001Z</time></trkpt><trkpt lat="44.68476246317679" lon="12.195506544144855"><ele>-0.75</ele><time>2026-03-29T13:16:41.001Z</time></trkpt><trkpt lat="44.6848575303215" lon="12.195384634455468"><ele>0.0</ele><time>2026-03-29T13:16:42.001Z</time></trkpt><trkpt lat="44.68495440445094" lon="12.195247447922224"><ele>0.0</ele><time>2026-03-29T13:16:43.001Z</time></trkpt><trkpt lat="44.68505424437353" lon="12.19510546628751"><ele>0.0</ele><time>2026-03-29T13:16:44.001Z</time></trkpt><trkpt lat="44.685155047840624" lon="12.194977159163116"><ele>0.0</ele><time>2026-03-29T13:16:45.001Z</time></trkpt><trkpt lat="44.6852443848303" lon="12.194838018000627"><ele>0.0</ele><time>2026-03-29T13:16:46.001Z</time></trkpt><trkpt lat="44.68533961368294" lon="12.194699943397996"><ele>-0.5</ele><time>2026-03-29T13:16:47.001Z</time></trkpt><trkpt lat="44.685437190173545" lon="12.194552450419012"><ele>-1.0</ele><time>2026-03-29T13:16:48.001Z</time></trkpt><trkpt lat="44.68553664802825" lon="12.194408706520646"><ele>-1.5</ele><time>2026-03-29T13:16:49.001Z</time></trkpt><trkpt lat="44.68564251975712" lon="12.19425846957178"><ele>-2.0</ele><time>2026-03-29T13:16:50.001Z</time></trkpt><trkpt lat="44.68574920026593" lon="12.194103918613457"><ele>-2.333333333333333</ele><time>2026-03-29T13:16:51.001Z</time></trkpt><trkpt lat="44.68585198028223" lon="12.193955510666353"><ele>-2.6666666666666665</ele><time>2026-03-29T13:16:52.001Z</time></trkpt><trkpt lat="44.68595538639102" lon="12.193797843165846"><ele>-3.0</ele><time>2026-03-29T13:16:53.001Z</time></trkpt><trkpt lat="44.68606382190562" lon="12.193647875689269"><ele>-3.0</ele><time>2026-03-29T13:16:54.001Z</time></trkpt><trkpt lat="44.68617026431816" lon="12.193498055183028"><ele>-3.0</ele><time>2026-03-29T13:16:55.001Z</time></trkpt><trkpt lat="44.68628169741814" lon="12.193338125452012"><ele>-3.0</ele><time>2026-03-29T13:16:56.001Z</time></trkpt><trkpt lat="44.68639620404115" lon="12.193169484519338"><ele>-3.0</ele><time>2026-03-29T13:16:57.001Z</time></trkpt><trkpt lat="44.686507920605266" lon="12.193002517665017"><ele>-3.0</ele><time>2026-03-29T13:16:58.001Z</time></trkpt><trkpt lat="44.68662161755749" lon="12.192838285890252"><ele>-3.0</ele><time>2026-03-29T13:16:59.001Z</time></trkpt><trkpt lat="44.68673447660669" lon="12.192678133590116"><ele>-3.0</ele><time>2026-03-29T13:17:00.001Z</time></trkpt><trkpt lat="44.686843100763525" lon="12.192517469615792"><ele>-3.0</ele><time>2026-03-29T13:17:01.001Z</time></trkpt><trkpt lat="44.68695224367791" lon="12.192361213560398"><ele>-3.0</ele><time>2026-03-29T13:17:02.001Z</time></trkpt><trkpt lat="44.687057769635835" lon="12.192207086302695"><ele>-2.6666666666666665</ele><time>2026-03-29T13:17:03.001Z</time></trkpt><trkpt lat="44.68716203329626" lon="12.192054262099793"><ele>-2.333333333333333</ele><time>2026-03-29T13:17:04.001Z</time></trkpt><trkpt lat="44.687265636802415" lon="12.19189913851705"><ele>-2.0</ele><time>2026-03-29T13:17:05.001Z</time></trkpt><trkpt lat="44.687369105158425" lon="12.19174592961193"><ele>-2.0</ele><time>2026-03-29T13:17:06.001Z</time></trkpt><trkpt lat="44.687472376802525" lon="12.191589875234513"><ele>-2.0</ele><time>2026-03-29T13:17:07.001Z</time></trkpt><trkpt lat="44.68757293484725" lon="12.191443556762767"><ele>-2.0</ele><time>2026-03-29T13:17:08.001Z</time></trkpt><trkpt lat="44.687676026282446" lon="12.191297800165993"><ele>-2.0</ele><time>2026-03-29T13:17:09.001Z</time></trkpt><trkpt lat="44.687776490437926" lon="12.191145998862256"><ele>-2.0</ele><time>2026-03-29T13:17:10.001Z</time></trkpt><trkpt lat="44.687880328397476" lon="12.190994552302223"><ele>-2.0</ele><time>2026-03-29T13:17:11.001Z</time></trkpt><trkpt lat="44.687983303142886" lon="12.190842957918406"><ele>-2.0</ele><time>2026-03-29T13:17:12.001Z</time></trkpt><trkpt lat="44.68808758921047" lon="12.19069087896383"><ele>-2.0</ele><time>2026-03-29T13:17:13.001Z</time></trkpt><trkpt lat="44.688193977986735" lon="12.190542727924882"><ele>-1.5</ele><time>2026-03-29T13:17:14.001Z</time></trkpt><trkpt lat="44.68829337946857" lon="12.190393729566685"><ele>-1.0</ele><time>2026-03-29T13:17:15.001Z</time></trkpt><trkpt lat="44.68838256683424" lon="12.190258408355676"><ele>-0.5</ele><time>2026-03-29T13:17:16.001Z</time></trkpt><trkpt lat="44.68847020383132" lon="12.190132101385043"><ele>0.0</ele><time>2026-03-29T13:17:17.001Z</time></trkpt><trkpt lat="44.68855860130932" lon="12.190005427760287"><ele>0.0</ele><time>2026-03-29T13:17:18.001Z</time></trkpt><trkpt lat="44.688649623186436" lon="12.189872802841771"><ele>0.0</ele><time>2026-03-29T13:17:19.001Z</time></trkpt><trkpt lat="44.688743213556535" lon="12.189744596974661"><ele>0.0</ele><time>2026-03-29T13:17:20.001Z</time></trkpt><trkpt lat="44.68883677598903" lon="12.189613275477374"><ele>0.0</ele><time>2026-03-29T13:17:21.001Z</time></trkpt><trkpt lat="44.688932794800806" lon="12.189469110585161"><ele>-0.6666666666666666</ele><time>2026-03-29T13:17:22.001Z</time></trkpt><trkpt lat="44.689040729427376" lon="12.189318376094862"><ele>-1.3333333333333333</ele><time>2026-03-29T13:17:23.001Z</time></trkpt><trkpt lat="44.68914722228417" lon="12.189169747496146"><ele>-2.0</ele><time>2026-03-29T13:17:24.001Z</time></trkpt><trkpt lat="44.689254859427706" lon="12.189015733834587"><ele>-2.0</ele><time>2026-03-29T13:17:25.001Z</time></trkpt><trkpt lat="44.6893584753135" lon="12.188861093146162"><ele>-2.0</ele><time>2026-03-29T13:17:26.001Z</time></trkpt><trkpt lat="44.689456316130865" lon="12.188700662055583"><ele>-2.0</ele><time>2026-03-29T13:17:27.001Z</time></trkpt><trkpt lat="44.68955704638387" lon="12.188558286081003"><ele>-2.0</ele><time>2026-03-29T13:17:28.001Z</time></trkpt><trkpt lat="44.68965814368252" lon="12.18841258728696"><ele>-2.0</ele><time>2026-03-29T13:17:29.001Z</time></trkpt><trkpt lat="44.689756408238146" lon="12.188264131223205"><ele>-2.0</ele><time>2026-03-29T13:17:30.001Z</time></trkpt><trkpt lat="44.689856178953754" lon="12.188124805798413"><ele>-2.0</ele><time>2026-03-29T13:17:31.001Z</time></trkpt><trkpt lat="44.68995217505264" lon="12.187985080527888"><ele>-2.0</ele><time>2026-03-29T13:17:32.001Z</time></trkpt><trkpt lat="44.690041072575" lon="12.187856189489871"><ele>-2.0</ele><time>2026-03-29T13:17:33.001Z</time></trkpt><trkpt lat="44.69012361191287" lon="12.187736837736137"><ele>-2.0</ele><time>2026-03-29T13:17:34.001Z</time></trkpt><trkpt lat="44.69020389476857" lon="12.18761576360618"><ele>-2.0</ele><time>2026-03-29T13:17:35.001Z</time></trkpt><trkpt lat="44.69028971295067" lon="12.187488043012054"><ele>-2.0</ele><time>2026-03-29T13:17:36.001Z</time></trkpt><trkpt lat="44.690375672702146" lon="12.187359716555921"><ele>-1.5</ele><time>2026-03-29T13:17:37.001Z</time></trkpt><trkpt lat="44.69045935309598" lon="12.187239183627891"><ele>-1.0</ele><time>2026-03-29T13:17:38.001Z</time></trkpt><trkpt lat="44.690538424506" lon="12.187123645161451"><ele>-0.5</ele><time>2026-03-29T13:17:39.002Z</time></trkpt><trkpt lat="44.690612457034334" lon="12.187007788903001"><ele>0.0</ele><time>2026-03-29T13:17:40.002Z</time></trkpt><trkpt lat="44.69068735897917" lon="12.186888682950853"><ele>0.0</ele><time>2026-03-29T13:17:41.002Z</time></trkpt><trkpt lat="44.69076812592258" lon="12.186774345369388"><ele>0.0</ele><time>2026-03-29T13:17:42.002Z</time></trkpt><trkpt lat="44.690846594969535" lon="12.186664706160931"><ele>0.0</ele><time>2026-03-29T13:17:43.002Z</time></trkpt><trkpt lat="44.69091757454626" lon="12.186559182183482"><ele>0.0</ele><time>2026-03-29T13:17:44.002Z</time></trkpt><trkpt lat="44.69098995366048" lon="12.186452969435376"><ele>0.0</ele><time>2026-03-29T13:17:45.002Z</time></trkpt><trkpt lat="44.691060119842575" lon="12.18635415955643"><ele>0.2</ele><time>2026-03-29T13:17:46.002Z</time></trkpt><trkpt lat="44.69113459812598" lon="12.186257284537664"><ele>0.4</ele><time>2026-03-29T13:17:47.002Z</time></trkpt><trkpt lat="44.69120939341277" lon="12.186167400075204"><ele>0.6000000000000001</ele><time>2026-03-29T13:17:48.002Z</time></trkpt><trkpt lat="44.691276999297145" lon="12.186088230500454"><ele>0.8</ele><time>2026-03-29T13:17:49.002Z</time></trkpt><trkpt lat="44.691349929442985" lon="12.186005975908083"><ele>1.0</ele><time>2026-03-29T13:17:50.002Z</time></trkpt><trkpt lat="44.69142737489571" lon="12.185912960047064"><ele>1.0</ele><time>2026-03-29T13:17:51.002Z</time></trkpt><trkpt lat="44.691515782878696" lon="12.185819325738874"><ele>1.0</ele><time>2026-03-29T13:17:52.002Z</time></trkpt><trkpt lat="44.69161227420138" lon="12.185731709338247"><ele>1.0</ele><time>2026-03-29T13:17:53.002Z</time></trkpt><trkpt lat="44.69171455243294" lon="12.185643565962799"><ele>1.0</ele><time>2026-03-29T13:17:54.002Z</time></trkpt><trkpt lat="44.69182153437431" lon="12.18556004191836"><ele>1.0</ele><time>2026-03-29T13:17:55.002Z</time></trkpt><trkpt lat="44.691927831664415" lon="12.185478442193817"><ele>1.0</ele><time>2026-03-29T13:17:56.002Z</time></trkpt><trkpt lat="44.69201850979139" lon="12.185404937260039"><ele>1.0</ele><time>2026-03-29T13:17:57.002Z</time></trkpt><trkpt lat="44.6921083860892" lon="12.18533405813078"><ele>1.0</ele><time>2026-03-29T13:17:58.002Z</time></trkpt><trkpt lat="44.69219936214227" lon="12.185267672941746"><ele>1.0</ele><time>2026-03-29T13:17:59.002Z</time></trkpt><trkpt lat="44.69228023802947" lon="12.185206370315996"><ele>1.0</ele><time>2026-03-29T13:18:00.002Z</time></trkpt><trkpt lat="44.692349901838604" lon="12.18515488477593"><ele>0.9999999999999999</ele><time>2026-03-29T13:18:01.002Z</time></trkpt><trkpt lat="44.69241511170743" lon="12.185106311734067"><ele>1.0</ele><time>2026-03-29T13:18:02.002Z</time></trkpt><trkpt lat="44.69247205121202" lon="12.185058487248538"><ele>1.0</ele><time>2026-03-29T13:18:03.002Z</time></trkpt><trkpt lat="44.692561231892384" lon="12.18501755456498"><ele>0.9999999999999999</ele><time>2026-03-29T13:18:05.002Z</time></trkpt><trkpt lat="44.69261869864216" lon="12.184978276170794"><ele>1.0</ele><time>2026-03-29T13:18:07.002Z</time></trkpt><trkpt lat="44.69267942136702" lon="12.184930180125045"><ele>1.0</ele><time>2026-03-29T13:18:10.002Z</time></trkpt><trkpt lat="44.69276065025975" lon="12.184992966187322"><ele>1.1666666666666665</ele><time>2026-03-29T13:18:12.002Z</time></trkpt><trkpt lat="44.69284890116924" lon="12.185019930757923"><ele>1.3333333333333333</ele><time>2026-03-29T13:18:14.002Z</time></trkpt><trkpt lat="44.69290172350109" lon="12.184920189713162"><ele>1.5</ele><time>2026-03-29T13:18:15.002Z</time></trkpt><trkpt lat="44.69290732717641" lon="12.1847979804232"><ele>1.6666666666666665</ele><time>2026-03-29T13:18:16.001Z</time></trkpt><trkpt lat="44.69292910592131" lon="12.184695464793348"><ele>1.8333333333333333</ele><time>2026-03-29T13:18:17.001Z</time></trkpt><trkpt lat="44.69294533453792" lon="12.184567165522092"><ele>2.0</ele><time>2026-03-29T13:18:18.001Z</time></trkpt><trkpt lat="44.69293564513918" lon="12.18441753633559"><ele>2.0</ele><time>2026-03-29T13:18:19.001Z</time></trkpt><trkpt lat="44.69289515169472" lon="12.184294433809088"><ele>2.0</ele><time>2026-03-29T13:18:20.001Z</time></trkpt><trkpt lat="44.692865858960936" lon="12.18415761825765"><ele>2.0</ele><time>2026-03-29T13:18:21.001Z</time></trkpt><trkpt lat="44.6928051621861" lon="12.184039477315538"><ele>2.0</ele><time>2026-03-29T13:18:22.001Z</time></trkpt><trkpt lat="44.692730928784925" lon="12.183918105748386"><ele>2.0</ele><time>2026-03-29T13:18:23.001Z</time></trkpt><trkpt lat="44.69264476569059" lon="12.183794713051615"><ele>1.75</ele><time>2026-03-29T13:18:24.001Z</time></trkpt><trkpt lat="44.69257258117467" lon="12.183674971550369"><ele>1.5</ele><time>2026-03-29T13:18:25.001Z</time></trkpt><trkpt lat="44.692496634529206" lon="12.183561215801202"><ele>1.25</ele><time>2026-03-29T13:18:26.001Z</time></trkpt><trkpt lat="44.692418814003574" lon="12.183438405482933"><ele>1.0</ele><time>2026-03-29T13:18:27.001Z</time></trkpt><trkpt lat="44.69233916513259" lon="12.183316925306762"><ele>1.0</ele><time>2026-03-29T13:18:28.001Z</time></trkpt><trkpt lat="44.69226613252805" lon="12.183204926766521"><ele>1.0</ele><time>2026-03-29T13:18:29.001Z</time></trkpt><trkpt lat="44.692200672405804" lon="12.18310486336031"><ele>1.0</ele><time>2026-03-29T13:18:30.001Z</time></trkpt><trkpt lat="44.69214017118839" lon="12.183002284246948"><ele>1.0</ele><time>2026-03-29T13:18:31.001Z</time></trkpt><trkpt lat="44.69207554968679" lon="12.182892993603563"><ele>1.0</ele><time>2026-03-29T13:18:32.001Z</time></trkpt><trkpt lat="44.69201035996831" lon="12.182770611126283"><ele>1.0</ele><time>2026-03-29T13:18:33.001Z</time></trkpt><trkpt lat="44.69195505509364" lon="12.182658679091023"><ele>1.0</ele><time>2026-03-29T13:18:34.001Z</time></trkpt><trkpt lat="44.691897096581854" lon="12.182541877954895"><ele>1.0</ele><time>2026-03-29T13:18:35.001Z</time></trkpt><trkpt lat="44.691837142225886" lon="12.182422759720398"><ele>1.0</ele><time>2026-03-29T13:18:36.001Z</time></trkpt><trkpt lat="44.69177758837341" lon="12.182306358601922"><ele>1.0</ele><time>2026-03-29T13:18:37.001Z</time></trkpt><trkpt lat="44.69172177106815" lon="12.182183785192137"><ele>1.0</ele><time>2026-03-29T13:18:38.001Z</time></trkpt><trkpt lat="44.69165869960687" lon="12.182063549532312"><ele>1.0</ele><time>2026-03-29T13:18:39.001Z</time></trkpt><trkpt lat="44.6915998568837" lon="12.18194296889821"><ele>1.0</ele><time>2026-03-29T13:18:40.001Z</time></trkpt><trkpt lat="44.69155053861686" lon="12.181830257196188"><ele>1.0</ele><time>2026-03-29T13:18:41.001Z</time></trkpt><trkpt lat="44.69150701463449" lon="12.181707722669332"><ele>1.0</ele><time>2026-03-29T13:18:42.001Z</time></trkpt><trkpt lat="44.691465303261" lon="12.181577893101032"><ele>0.8</ele><time>2026-03-29T13:18:43.001Z</time></trkpt><trkpt lat="44.69141938779525" lon="12.181446129394093"><ele>0.6000000000000001</ele><time>2026-03-29T13:18:44.001Z</time></trkpt><trkpt lat="44.691376910339" lon="12.181320631620256"><ele>0.4</ele><time>2026-03-29T13:18:45.001Z</time></trkpt><trkpt lat="44.6913311411327" lon="12.181191268892025"><ele>0.2</ele><time>2026-03-29T13:18:46.001Z</time></trkpt><trkpt lat="44.691285050111375" lon="12.1810559696294"><ele>0.0</ele><time>2026-03-29T13:18:47.001Z</time></trkpt><trkpt lat="44.69123893130988" lon="12.180919800561476"><ele>0.0</ele><time>2026-03-29T13:18:48.001Z</time></trkpt><trkpt lat="44.69119536373534" lon="12.180787097307874"><ele>0.0</ele><time>2026-03-29T13:18:49.001Z</time></trkpt><trkpt lat="44.691147978941984" lon="12.180647303602182"><ele>0.0</ele><time>2026-03-29T13:18:50.001Z</time></trkpt><trkpt lat="44.69109476015453" lon="12.180499449763197"><ele>0.0</ele><time>2026-03-29T13:18:51.001Z</time></trkpt><trkpt lat="44.6910389556847" lon="12.180343212466878"><ele>0.0</ele><time>2026-03-29T13:18:52.001Z</time></trkpt><trkpt lat="44.69098486702508" lon="12.180177813707795"><ele>0.0</ele><time>2026-03-29T13:18:53.001Z</time></trkpt><trkpt lat="44.69094205482053" lon="12.180008963142539"><ele>0.0</ele><time>2026-03-29T13:18:54.001Z</time></trkpt><trkpt lat="44.6909181496799" lon="12.179831901916556"><ele>0.0</ele><time>2026-03-29T13:18:55.001Z</time></trkpt><trkpt lat="44.6909215146177" lon="12.179654190031362"><ele>-0.5</ele><time>2026-03-29T13:18:56.001Z</time></trkpt><trkpt lat="44.6909473012804" lon="12.179477876736131"><ele>-1.0</ele><time>2026-03-29T13:18:57.001Z</time></trkpt><trkpt lat="44.69099140192805" lon="12.179313069190771"><ele>-1.5</ele><time>2026-03-29T13:18:58.001Z</time></trkpt><trkpt lat="44.69104820291205" lon="12.179179585888198"><ele>-2.0</ele><time>2026-03-29T13:18:59.001Z</time></trkpt><trkpt lat="44.69112005189901" lon="12.179069642177359"><ele>-2.5</ele><time>2026-03-29T13:19:00.001Z</time></trkpt><trkpt lat="44.6912000635952" lon="12.17895979251754"><ele>-3.0</ele><time>2026-03-29T13:19:01.001Z</time></trkpt><trkpt lat="44.69129173326862" lon="12.178871788804956"><ele>-3.5</ele><time>2026-03-29T13:19:02.001Z</time></trkpt><trkpt lat="44.69139747182915" lon="12.178810258128708"><ele>-4.0</ele><time>2026-03-29T13:19:03.001Z</time></trkpt><trkpt lat="44.69151735883843" lon="12.178779701021055"><ele>-4.0</ele><time>2026-03-29T13:19:04.001Z</time></trkpt><trkpt lat="44.69164016269017" lon="12.178768365400083"><ele>-4.0</ele><time>2026-03-29T13:19:05.001Z</time></trkpt><trkpt lat="44.691763837298765" lon="12.17877685562409"><ele>-4.0</ele><time>2026-03-29T13:19:06.001Z</time></trkpt><trkpt lat="44.6918882844033" lon="12.178815851034056"><ele>-4.0</ele><time>2026-03-29T13:19:07.001Z</time></trkpt><trkpt lat="44.69201052966008" lon="12.178872881967385"><ele>-3.0</ele><time>2026-03-29T13:19:08.001Z</time></trkpt><trkpt lat="44.69213851890994" lon="12.178946685482863"><ele>-2.0</ele><time>2026-03-29T13:19:09.001Z</time></trkpt><trkpt lat="44.69226296142406" lon="12.179011977087193"><ele>-1.0</ele><time>2026-03-29T13:19:10.001Z</time></trkpt><trkpt lat="44.6923859738222" lon="12.17907136838315"><ele>0.0</ele><time>2026-03-29T13:19:11.001Z</time></trkpt><trkpt lat="44.69250972818693" lon="12.179132791499642"><ele>0.0</ele><time>2026-03-29T13:19:12.001Z</time></trkpt><trkpt lat="44.69263464410834" lon="12.179194674913083"><ele>0.0</ele><time>2026-03-29T13:19:13.001Z</time></trkpt><trkpt lat="44.692758031871065" lon="12.179256876440114"><ele>0.0</ele><time>2026-03-29T13:19:14.001Z</time></trkpt><trkpt lat="44.69288020545443" lon="12.17931426495277"><ele>0.0</ele><time>2026-03-29T13:19:15.001Z</time></trkpt><trkpt lat="44.6930017535385" lon="12.179371288403363"><ele>0.5</ele><time>2026-03-29T13:19:16.001Z</time></trkpt><trkpt lat="44.69310990377902" lon="12.179443854138452"><ele>1.0</ele><time>2026-03-29T13:19:17.001Z</time></trkpt><trkpt lat="44.693229943395394" lon="12.179500413295479"><ele>1.5</ele><time>2026-03-29T13:19:18.001Z</time></trkpt><trkpt lat="44.69334105494286" lon="12.17953919628823"><ele>2.0</ele><time>2026-03-29T13:19:19.001Z</time></trkpt><trkpt lat="44.69343925689284" lon="12.179568319194095"><ele>1.9999999999999998</ele><time>2026-03-29T13:19:20.001Z</time></trkpt><trkpt lat="44.69352331727894" lon="12.179585049570145"><ele>2.0</ele><time>2026-03-29T13:19:21.001Z</time></trkpt><trkpt lat="44.693609323310014" lon="12.179583951333548"><ele>2.0</ele><time>2026-03-29T13:19:22.001Z</time></trkpt><trkpt lat="44.693688314101195" lon="12.179579192880274"><ele>2.0</ele><time>2026-03-29T13:19:23.001Z</time></trkpt><trkpt lat="44.69375937599634" lon="12.179566239090533"><ele>1.9999999999999998</ele><time>2026-03-29T13:19:24.001Z</time></trkpt><trkpt lat="44.693878036498226" lon="12.179560657806979"><ele>2.0</ele><time>2026-03-29T13:19:26.001Z</time></trkpt><trkpt lat="44.69399987640618" lon="12.179635352338611"><ele>1.8333333333333333</ele><time>2026-03-29T13:19:28.001Z</time></trkpt><trkpt lat="44.694078170513926" lon="12.179648592209062"><ele>1.6666666666666665</ele><time>2026-03-29T13:19:29.001Z</time></trkpt><trkpt lat="44.69414721491019" lon="12.179633117773584"><ele>1.5</ele><time>2026-03-29T13:19:30.001Z</time></trkpt><trkpt lat="44.69421720072437" lon="12.179591333381783"><ele>1.3333333333333333</ele><time>2026-03-29T13:19:31.001Z</time></trkpt><trkpt lat="44.69427156318187" lon="12.17946441056268"><ele>1.1666666666666665</ele><time>2026-03-29T13:19:32.001Z</time></trkpt><trkpt lat="44.69431658825648" lon="12.17934778966674"><ele>1.0</ele><time>2026-03-29T13:19:33.001Z</time></trkpt><trkpt lat="44.694369992795984" lon="12.17923284404443"><ele>0.9999999999999999</ele><time>2026-03-29T13:19:34.001Z</time></trkpt><trkpt lat="44.69442692151599" lon="12.179140497884816"><ele>1.0</ele><time>2026-03-29T13:19:35.001Z</time></trkpt><trkpt lat="44.694477911490175" lon="12.179060917428467"><ele>1.0</ele><time>2026-03-29T13:19:36.001Z</time></trkpt><trkpt lat="44.69451903195471" lon="12.1789932240743"><ele>1.0</ele><time>2026-03-29T13:19:37.001Z</time></trkpt><trkpt lat="44.69456409321578" lon="12.178924731818213"><ele>0.9999999999999999</ele><time>2026-03-29T13:19:38.001Z</time></trkpt><trkpt lat="44.694612244269216" lon="12.17882916056962"><ele>1.0</ele><time>2026-03-29T13:19:39.001Z</time></trkpt><trkpt lat="44.69466892404239" lon="12.1787207941701"><ele>1.0</ele><time>2026-03-29T13:19:40.001Z</time></trkpt><trkpt lat="44.694730415343464" lon="12.178624756824503"><ele>1.0</ele><time>2026-03-29T13:19:41.001Z</time></trkpt><trkpt lat="44.694793169819626" lon="12.178538221466033"><ele>1.0</ele><time>2026-03-29T13:19:42.001Z</time></trkpt><trkpt lat="44.6949241070607" lon="12.178318941724367"><ele>1.0</ele><time>2026-03-29T13:19:44.001Z</time></trkpt><trkpt lat="44.69499805704506" lon="12.178198081235427"><ele>0.75</ele><time>2026-03-29T13:19:45.002Z</time></trkpt><trkpt lat="44.69507257693412" lon="12.178068955141171"><ele>0.5</ele><time>2026-03-29T13:19:46.002Z</time></trkpt><trkpt lat="44.695151440417916" lon="12.177936482502549"><ele>0.25</ele><time>2026-03-29T13:19:47.002Z</time></trkpt><trkpt lat="44.69522357613937" lon="12.177804240442557"><ele>0.0</ele><time>2026-03-29T13:19:48.002Z</time></trkpt><trkpt lat="44.69529857525679" lon="12.17768760419363"><ele>0.0</ele><time>2026-03-29T13:19:49.002Z</time></trkpt><trkpt lat="44.695375420352995" lon="12.17756418339989"><ele>0.0</ele><time>2026-03-29T13:19:50.002Z</time></trkpt><trkpt lat="44.69545583985118" lon="12.177447324367156"><ele>0.0</ele><time>2026-03-29T13:19:51.002Z</time></trkpt><trkpt lat="44.69552226248963" lon="12.17731942088796"><ele>0.0</ele><time>2026-03-29T13:19:52.002Z</time></trkpt><trkpt lat="44.69559651068846" lon="12.177201257797403"><ele>0.0</ele><time>2026-03-29T13:19:53.002Z</time></trkpt><trkpt lat="44.69566778327278" lon="12.177081219575843"><ele>0.0</ele><time>2026-03-29T13:19:54.002Z</time></trkpt><trkpt lat="44.69573972226985" lon="12.176963577222224"><ele>0.0</ele><time>2026-03-29T13:19:55.002Z</time></trkpt><trkpt lat="44.695812344598494" lon="12.176846662809707"><ele>0.0</ele><time>2026-03-29T13:19:56.002Z</time></trkpt><trkpt lat="44.69588792417751" lon="12.176723174530462"><ele>0.0</ele><time>2026-03-29T13:19:57.002Z</time></trkpt><trkpt lat="44.69596381976461" lon="12.176588717045991"><ele>0.0</ele><time>2026-03-29T13:19:58.002Z</time></trkpt><trkpt lat="44.69605049304264" lon="12.176454160606799"><ele>0.0</ele><time>2026-03-29T13:19:59.002Z</time></trkpt><trkpt lat="44.69613244269258" lon="12.176314740470632"><ele>0.0</ele><time>2026-03-29T13:20:00.002Z</time></trkpt><trkpt lat="44.69621688518506" lon="12.17617977806678"><ele>0.0</ele><time>2026-03-29T13:20:01.002Z</time></trkpt><trkpt lat="44.69628932850039" lon="12.176052272442437"><ele>0.0</ele><time>2026-03-29T13:20:02.002Z</time></trkpt><trkpt lat="44.696373052437906" lon="12.175933567039294"><ele>0.0</ele><time>2026-03-29T13:20:03.002Z</time></trkpt><trkpt lat="44.69644659355009" lon="12.175811396115499"><ele>0.0</ele><time>2026-03-29T13:20:04.002Z</time></trkpt><trkpt lat="44.696522082125966" lon="12.175689322866491"><ele>0.0</ele><time>2026-03-29T13:20:05.002Z</time></trkpt><trkpt lat="44.6966070263384" lon="12.175559658705264"><ele>0.0</ele><time>2026-03-29T13:20:06.002Z</time></trkpt><trkpt lat="44.69669109519111" lon="12.175426748379124"><ele>0.0</ele><time>2026-03-29T13:20:07.002Z</time></trkpt><trkpt lat="44.696778387182405" lon="12.175284868805425"><ele>0.0</ele><time>2026-03-29T13:20:08.002Z</time></trkpt><trkpt lat="44.696867994152036" lon="12.175134866768705"><ele>0.0</ele><time>2026-03-29T13:20:09.002Z</time></trkpt><trkpt lat="44.69695984547889" lon="12.174986715575525"><ele>0.0</ele><time>2026-03-29T13:20:10.002Z</time></trkpt><trkpt lat="44.69705029072219" lon="12.174841718714752"><ele>0.0</ele><time>2026-03-29T13:20:11.002Z</time></trkpt><trkpt lat="44.69714958893919" lon="12.174667397313938"><ele>0.0</ele><time>2026-03-29T13:20:12.002Z</time></trkpt><trkpt lat="44.69726240353648" lon="12.174483829320986"><ele>0.0</ele><time>2026-03-29T13:20:13.002Z</time></trkpt><trkpt lat="44.697382655643906" lon="12.174288840224346"><ele>0.0</ele><time>2026-03-29T13:20:14.002Z</time></trkpt><trkpt lat="44.69749706293252" lon="12.17409631175213"><ele>0.0</ele><time>2026-03-29T13:20:15.002Z</time></trkpt><trkpt lat="44.69760849843232" lon="12.173909399637157"><ele>-0.3333333333333333</ele><time>2026-03-29T13:20:16.002Z</time></trkpt><trkpt lat="44.69771638001707" lon="12.173723564159943"><ele>-0.6666666666666666</ele><time>2026-03-29T13:20:17.002Z</time></trkpt><trkpt lat="44.697817810696826" lon="12.173538719389652"><ele>-1.0</ele><time>2026-03-29T13:20:18.002Z</time></trkpt><trkpt lat="44.69791285428293" lon="12.173332177260042"><ele>-1.0</ele><time>2026-03-29T13:20:19.002Z</time></trkpt><trkpt lat="44.69800324678085" lon="12.17311522384634"><ele>-1.0</ele><time>2026-03-29T13:20:20.002Z</time></trkpt><trkpt lat="44.69808995124796" lon="12.172888666171195"><ele>-1.0</ele><time>2026-03-29T13:20:21.002Z</time></trkpt><trkpt lat="44.69816766575559" lon="12.172665269958621"><ele>-1.0</ele><time>2026-03-29T13:20:22.001Z</time></trkpt><trkpt lat="44.69824417135559" lon="12.172446073237477"><ele>-1.0</ele><time>2026-03-29T13:20:23.001Z</time></trkpt><trkpt lat="44.69832347607202" lon="12.172227300140094"><ele>-1.0</ele><time>2026-03-29T13:20:24.001Z</time></trkpt><trkpt lat="44.69840475077809" lon="12.172009374930136"><ele>-1.0</ele><time>2026-03-29T13:20:25.001Z</time></trkpt><trkpt lat="44.69848311689021" lon="12.171789116245966"><ele>-1.0</ele><time>2026-03-29T13:20:26.001Z</time></trkpt><trkpt lat="44.69855881683823" lon="12.171570360593883"><ele>-1.0</ele><time>2026-03-29T13:20:27.001Z</time></trkpt><trkpt lat="44.69863220158696" lon="12.171353363448176"><ele>-0.6666666666666666</ele><time>2026-03-29T13:20:28.001Z</time></trkpt><trkpt lat="44.69870406043847" lon="12.1711513737149"><ele>-0.3333333333333333</ele><time>2026-03-29T13:20:29.001Z</time></trkpt><trkpt lat="44.69877322464309" lon="12.170963354269121"><ele>0.0</ele><time>2026-03-29T13:20:30.001Z</time></trkpt><trkpt lat="44.69884245600378" lon="12.170773544149894"><ele>0.25</ele><time>2026-03-29T13:20:31.001Z</time></trkpt><trkpt lat="44.69891000211611" lon="12.170581494036965"><ele>0.5</ele><time>2026-03-29T13:20:32.001Z</time></trkpt><trkpt lat="44.698974726948926" lon="12.170405276096728"><ele>0.75</ele><time>2026-03-29T13:20:33.001Z</time></trkpt><trkpt lat="44.69903483497289" lon="12.170237496816227"><ele>1.0</ele><time>2026-03-29T13:20:34.001Z</time></trkpt><trkpt lat="44.69909893023908" lon="12.170055490182493"><ele>1.0</ele><time>2026-03-29T13:20:35.001Z</time></trkpt><trkpt lat="44.69915990859691" lon="12.169858948104489"><ele>1.0</ele><time>2026-03-29T13:20:36.001Z</time></trkpt><trkpt lat="44.69920421166503" lon="12.169653415209002"><ele>1.0</ele><time>2026-03-29T13:20:37.001Z</time></trkpt><trkpt lat="44.69923562980647" lon="12.169443337487387"><ele>1.0</ele><time>2026-03-29T13:20:38.001Z</time></trkpt><trkpt lat="44.699256093292625" lon="12.169223896547209"><ele>1.0</ele><time>2026-03-29T13:20:39.001Z</time></trkpt><trkpt lat="44.69926717710414" lon="12.168989256845721"><ele>1.0</ele><time>2026-03-29T13:20:40.001Z</time></trkpt><trkpt lat="44.69926462814814" lon="12.168756530577701"><ele>1.0</ele><time>2026-03-29T13:20:41.001Z</time></trkpt><trkpt lat="44.69924964298276" lon="12.168517284766795"><ele>1.0</ele><time>2026-03-29T13:20:42.001Z</time></trkpt><trkpt lat="44.6992221220602" lon="12.16828386490762"><ele>1.0</ele><time>2026-03-29T13:20:43.001Z</time></trkpt><trkpt lat="44.69918743173341" lon="12.168044268800747"><ele>1.0</ele><time>2026-03-29T13:20:44.001Z</time></trkpt><trkpt lat="44.69915393219227" lon="12.167793948138742"><ele>1.0</ele><time>2026-03-29T13:20:45.001Z</time></trkpt><trkpt lat="44.69911491230056" lon="12.167527371888427"><ele>1.0</ele><time>2026-03-29T13:20:46.001Z</time></trkpt><trkpt lat="44.69907717722478" lon="12.167262853975474"><ele>1.0</ele><time>2026-03-29T13:20:47.001Z</time></trkpt><trkpt lat="44.69904400036517" lon="12.16699905481135"><ele>1.0</ele><time>2026-03-29T13:20:48.001Z</time></trkpt><trkpt lat="44.699009704003174" lon="12.16673654045473"><ele>1.0</ele><time>2026-03-29T13:20:49.001Z</time></trkpt><trkpt lat="44.6989723359826" lon="12.166471660308199"><ele>1.0</ele><time>2026-03-29T13:20:50.001Z</time></trkpt><trkpt lat="44.6989347273589" lon="12.166204197742774"><ele>1.0</ele><time>2026-03-29T13:20:51.001Z</time></trkpt><trkpt lat="44.6988988880603" lon="12.165939355672908"><ele>1.0</ele><time>2026-03-29T13:20:52.001Z</time></trkpt><trkpt lat="44.69886194505468" lon="12.165672654920728"><ele>0.6666666666666666</ele><time>2026-03-29T13:20:53.001Z</time></trkpt><trkpt lat="44.69882699159057" lon="12.165405237164823"><ele>0.3333333333333333</ele><time>2026-03-29T13:20:54.001Z</time></trkpt><trkpt lat="44.698786167940774" lon="12.165126950862103"><ele>0.0</ele><time>2026-03-29T13:20:55.001Z</time></trkpt><trkpt lat="44.69874262765433" lon="12.16484702582679"><ele>-0.6666666666666666</ele><time>2026-03-29T13:20:56.001Z</time></trkpt><trkpt lat="44.6986975114178" lon="12.164563827540986"><ele>-1.3333333333333333</ele><time>2026-03-29T13:20:57.001Z</time></trkpt><trkpt lat="44.69865561677174" lon="12.164278827472213"><ele>-2.0</ele><time>2026-03-29T13:20:58.001Z</time></trkpt><trkpt lat="44.69861359807113" lon="12.163993009786594"><ele>-2.0</ele><time>2026-03-29T13:20:59.001Z</time></trkpt><trkpt lat="44.698571112531724" lon="12.163707730527735"><ele>-2.0</ele><time>2026-03-29T13:21:00.001Z</time></trkpt><trkpt lat="44.69852676622735" lon="12.163418584088825"><ele>-2.0</ele><time>2026-03-29T13:21:01.001Z</time></trkpt><trkpt lat="44.698482085061066" lon="12.16311794952061"><ele>-2.0</ele><time>2026-03-29T13:21:02.001Z</time></trkpt><trkpt lat="44.698440167265005" lon="12.162832834986816"><ele>-2.0</ele><time>2026-03-29T13:21:03.001Z</time></trkpt><trkpt lat="44.6983969449526" lon="12.162554388507973"><ele>-2.0</ele><time>2026-03-29T13:21:04.001Z</time></trkpt><trkpt lat="44.69835380946822" lon="12.16228250982499"><ele>-2.0</ele><time>2026-03-29T13:21:05.001Z</time></trkpt><trkpt lat="44.69830802943485" lon="12.162022478607428"><ele>-2.0</ele><time>2026-03-29T13:21:06.001Z</time></trkpt><trkpt lat="44.69826580974129" lon="12.16177070402896"><ele>-2.0</ele><time>2026-03-29T13:21:07.001Z</time></trkpt><trkpt lat="44.69822882976888" lon="12.161526946312245"><ele>-2.0</ele><time>2026-03-29T13:21:08.001Z</time></trkpt><trkpt lat="44.69819379888794" lon="12.161279014092196"><ele>-2.0</ele><time>2026-03-29T13:21:09.001Z</time></trkpt><trkpt lat="44.698168261243616" lon="12.161033685346506"><ele>-2.0</ele><time>2026-03-29T13:21:10.001Z</time></trkpt><trkpt lat="44.6981583829676" lon="12.160778358206915"><ele>-2.0</ele><time>2026-03-29T13:21:11.001Z</time></trkpt><trkpt lat="44.69818918419358" lon="12.160529932014517"><ele>-2.0</ele><time>2026-03-29T13:21:12.001Z</time></trkpt><trkpt lat="44.69821646871196" lon="12.160272709154638"><ele>-2.0</ele><time>2026-03-29T13:21:13.001Z</time></trkpt><trkpt lat="44.69827730028003" lon="12.160031302357106"><ele>-1.3333333333333333</ele><time>2026-03-29T13:21:14.001Z</time></trkpt><trkpt lat="44.69835587776742" lon="12.159797516419331"><ele>-0.6666666666666666</ele><time>2026-03-29T13:21:15.001Z</time></trkpt><trkpt lat="44.69844241902866" lon="12.1595660847554"><ele>0.0</ele><time>2026-03-29T13:21:16.001Z</time></trkpt><trkpt lat="44.69853338337527" lon="12.159341969588668"><ele>-0.6666666666666666</ele><time>2026-03-29T13:21:17.001Z</time></trkpt><trkpt lat="44.698617912989604" lon="12.15912074684598"><ele>-1.3333333333333333</ele><time>2026-03-29T13:21:18.001Z</time></trkpt><trkpt lat="44.6987012138214" lon="12.158887106985707"><ele>-2.0</ele><time>2026-03-29T13:21:19.001Z</time></trkpt><trkpt lat="44.69878344202555" lon="12.158652959750174"><ele>-2.0</ele><time>2026-03-29T13:21:20.001Z</time></trkpt><trkpt lat="44.69886749310427" lon="12.1584181493813"><ele>-2.0</ele><time>2026-03-29T13:21:21.001Z</time></trkpt><trkpt lat="44.698949818282145" lon="12.158181393770192"><ele>-2.0</ele><time>2026-03-29T13:21:22.001Z</time></trkpt><trkpt lat="44.69903508532898" lon="12.15794599263744"><ele>-1.3333333333333333</ele><time>2026-03-29T13:21:23.001Z</time></trkpt><trkpt lat="44.69912284961312" lon="12.157710419577802"><ele>-0.6666666666666666</ele><time>2026-03-29T13:21:24.001Z</time></trkpt><trkpt lat="44.699208992718816" lon="12.157473448581086"><ele>0.0</ele><time>2026-03-29T13:21:25.001Z</time></trkpt><trkpt lat="44.69929502358419" lon="12.1572354882717"><ele>0.0</ele><time>2026-03-29T13:21:26.001Z</time></trkpt><trkpt lat="44.699379536708946" lon="12.156994155152747"><ele>0.0</ele><time>2026-03-29T13:21:27.001Z</time></trkpt><trkpt lat="44.69946499933785" lon="12.156756871641893"><ele>0.0</ele><time>2026-03-29T13:21:28.001Z</time></trkpt><trkpt lat="44.69955260444414" lon="12.156520421927626"><ele>-1.0</ele><time>2026-03-29T13:21:29.001Z</time></trkpt><trkpt lat="44.69963732880281" lon="12.156290170451314"><ele>-2.0</ele><time>2026-03-29T13:21:30.001Z</time></trkpt><trkpt lat="44.69972164796735" lon="12.156056235750823"><ele>-3.0</ele><time>2026-03-29T13:21:31.001Z</time></trkpt><trkpt lat="44.69980588817146" lon="12.15581886761263"><ele>-2.3333333333333335</ele><time>2026-03-29T13:21:32.001Z</time></trkpt><trkpt lat="44.699888933073154" lon="12.155584123631822"><ele>-1.6666666666666665</ele><time>2026-03-29T13:21:33.001Z</time></trkpt><trkpt lat="44.69997326817412" lon="12.155348018289388"><ele>-1.0</ele><time>2026-03-29T13:21:34.001Z</time></trkpt><trkpt lat="44.700055456977125" lon="12.155114774932269"><ele>-1.0</ele><time>2026-03-29T13:21:35.001Z</time></trkpt><trkpt lat="44.700134962310536" lon="12.154879286436577"><ele>-1.0</ele><time>2026-03-29T13:21:36.001Z</time></trkpt><trkpt lat="44.70021194773573" lon="12.154636637933015"><ele>-1.0</ele><time>2026-03-29T13:21:37.001Z</time></trkpt><trkpt lat="44.7002750301313" lon="12.154388004666579"><ele>-1.3333333333333333</ele><time>2026-03-29T13:21:38.001Z</time></trkpt><trkpt lat="44.70032743372767" lon="12.154133943814228"><ele>-1.6666666666666665</ele><time>2026-03-29T13:21:39.001Z</time></trkpt><trkpt lat="44.700375694971925" lon="12.153876686163732"><ele>-2.0</ele><time>2026-03-29T13:21:40.001Z</time></trkpt><trkpt lat="44.700413363236294" lon="12.153609002052177"><ele>-2.0</ele><time>2026-03-29T13:21:41.001Z</time></trkpt><trkpt lat="44.70045971274051" lon="12.153351885990483"><ele>-2.0</ele><time>2026-03-29T13:21:42.001Z</time></trkpt><trkpt lat="44.70050993558802" lon="12.1530927208252"><ele>-2.0</ele><time>2026-03-29T13:21:43.001Z</time></trkpt><trkpt lat="44.70056018778953" lon="12.152833282130183"><ele>-2.333333333333333</ele><time>2026-03-29T13:21:44.001Z</time></trkpt><trkpt lat="44.70060674530503" lon="12.152570340166305"><ele>-2.6666666666666665</ele><time>2026-03-29T13:21:45.001Z</time></trkpt><trkpt lat="44.70064768663805" lon="12.152311851259062"><ele>-3.0</ele><time>2026-03-29T13:21:46.001Z</time></trkpt><trkpt lat="44.70068817931765" lon="12.152054318061941"><ele>-3.0</ele><time>2026-03-29T13:21:47.001Z</time></trkpt><trkpt lat="44.700726075628765" lon="12.151795003207583"><ele>-3.0</ele><time>2026-03-29T13:21:48.001Z</time></trkpt><trkpt lat="44.700760594154524" lon="12.151536714986902"><ele>-3.0</ele><time>2026-03-29T13:21:49.001Z</time></trkpt><trkpt lat="44.70079266464903" lon="12.15126697635817"><ele>-3.0</ele><time>2026-03-29T13:21:50.001Z</time></trkpt><trkpt lat="44.70082563399131" lon="12.150976473996458"><ele>-3.0</ele><time>2026-03-29T13:21:51.001Z</time></trkpt><trkpt lat="44.70084653512072" lon="12.150696950150904"><ele>-3.0</ele><time>2026-03-29T13:21:52.001Z</time></trkpt><trkpt lat="44.70086789831369" lon="12.150415495675773"><ele>-2.6666666666666665</ele><time>2026-03-29T13:21:53.001Z</time></trkpt><trkpt lat="44.700900559810705" lon="12.150131775429749"><ele>-2.333333333333333</ele><time>2026-03-29T13:21:54.001Z</time></trkpt><trkpt lat="44.70096589108778" lon="12.149856420881752"><ele>-2.0</ele><time>2026-03-29T13:21:55.001Z</time></trkpt><trkpt lat="44.70100678054831" lon="12.149569995856586"><ele>-2.0</ele><time>2026-03-29T13:21:56.001Z</time></trkpt><trkpt lat="44.701064018887784" lon="12.14929717514696"><ele>-2.0</ele><time>2026-03-29T13:21:57.001Z</time></trkpt><trkpt lat="44.70110613694598" lon="12.1490181078396"><ele>-2.0</ele><time>2026-03-29T13:21:58.001Z</time></trkpt><trkpt lat="44.70112829806538" lon="12.148736943538703"><ele>-2.333333333333333</ele><time>2026-03-29T13:21:59.001Z</time></trkpt><trkpt lat="44.70113719728016" lon="12.148451783525802"><ele>-2.6666666666666665</ele><time>2026-03-29T13:22:00.001Z</time></trkpt><trkpt lat="44.701139130776376" lon="12.148165279391419"><ele>-3.0</ele><time>2026-03-29T13:22:01.001Z</time></trkpt><trkpt lat="44.7011383716212" lon="12.147881298105814"><ele>-3.0</ele><time>2026-03-29T13:22:02.001Z</time></trkpt><trkpt lat="44.701135664495844" lon="12.14760355841643"><ele>-3.0</ele><time>2026-03-29T13:22:03.001Z</time></trkpt><trkpt lat="44.70115811271097" lon="12.147326127812608"><ele>-3.0</ele><time>2026-03-29T13:22:04.001Z</time></trkpt><trkpt lat="44.70117458856399" lon="12.147053288468596"><ele>-3.333333333333333</ele><time>2026-03-29T13:22:05.001Z</time></trkpt><trkpt lat="44.701185490141356" lon="12.146776537587078"><ele>-3.6666666666666665</ele><time>2026-03-29T13:22:06.001Z</time></trkpt><trkpt lat="44.70122141117481" lon="12.146514743873155"><ele>-4.0</ele><time>2026-03-29T13:22:07.001Z</time></trkpt><trkpt lat="44.701286309529436" lon="12.146266967812956"><ele>-4.0</ele><time>2026-03-29T13:22:08.001Z</time></trkpt><trkpt lat="44.7013449421121" lon="12.1460184855039"><ele>-4.0</ele><time>2026-03-29T13:22:09.001Z</time></trkpt><trkpt lat="44.701405428452894" lon="12.145779227298165"><ele>-4.0</ele><time>2026-03-29T13:22:10.001Z</time></trkpt><trkpt lat="44.70146280226615" lon="12.145547985541745"><ele>-4.333333333333333</ele><time>2026-03-29T13:22:11.001Z</time></trkpt><trkpt lat="44.70150262216386" lon="12.145317380454138"><ele>-4.666666666666667</ele><time>2026-03-29T13:22:12.001Z</time></trkpt><trkpt lat="44.70154763337066" lon="12.145088684508382"><ele>-5.0</ele><time>2026-03-29T13:22:13.001Z</time></trkpt><trkpt lat="44.70158743510305" lon="12.144854060454065"><ele>-5.0</ele><time>2026-03-29T13:22:14.001Z</time></trkpt><trkpt lat="44.70162173999513" lon="12.144615206750725"><ele>-5.0</ele><time>2026-03-29T13:22:15.001Z</time></trkpt><trkpt lat="44.701651836137806" lon="12.144377577558"><ele>-5.0</ele><time>2026-03-29T13:22:16.001Z</time></trkpt><trkpt lat="44.70167469523557" lon="12.14414179727179"><ele>-4.333333333333334</ele><time>2026-03-29T13:22:17.001Z</time></trkpt><trkpt lat="44.70169147998894" lon="12.143903131196403"><ele>-3.666666666666667</ele><time>2026-03-29T13:22:18.001Z</time></trkpt><trkpt lat="44.701693631669386" lon="12.14365436662717"><ele>-3.0</ele><time>2026-03-29T13:22:19.002Z</time></trkpt><trkpt lat="44.70166206460779" lon="12.14339754261701"><ele>-3.0</ele><time>2026-03-29T13:22:20.002Z</time></trkpt><trkpt lat="44.701614196764524" lon="12.143147573633085"><ele>-3.0</ele><time>2026-03-29T13:22:21.002Z</time></trkpt><trkpt lat="44.70155470384956" lon="12.142892005907662"><ele>-3.0</ele><time>2026-03-29T13:22:22.002Z</time></trkpt><trkpt lat="44.70149078043847" lon="12.142644697574193"><ele>-3.0</ele><time>2026-03-29T13:22:23.002Z</time></trkpt><trkpt lat="44.70142249236954" lon="12.142407732195627"><ele>-3.0</ele><time>2026-03-29T13:22:24.002Z</time></trkpt><trkpt lat="44.70134398554621" lon="12.142169899667502"><ele>-3.0</ele><time>2026-03-29T13:22:25.002Z</time></trkpt><trkpt lat="44.70125830050945" lon="12.141938008319809"><ele>-3.0</ele><time>2026-03-29T13:22:26.002Z</time></trkpt><trkpt lat="44.7011680735229" lon="12.141713511537437"><ele>-3.0</ele><time>2026-03-29T13:22:27.002Z</time></trkpt><trkpt lat="44.70107701679382" lon="12.141493068755372"><ele>-3.0</ele><time>2026-03-29T13:22:28.001Z</time></trkpt><trkpt lat="44.70097616780349" lon="12.14127369811242"><ele>-3.0</ele><time>2026-03-29T13:22:29.001Z</time></trkpt><trkpt lat="44.70086705019613" lon="12.141066217342338"><ele>-3.0</ele><time>2026-03-29T13:22:30.001Z</time></trkpt><trkpt lat="44.70074379147037" lon="12.140871733908059"><ele>-3.0</ele><time>2026-03-29T13:22:31.001Z</time></trkpt><trkpt lat="44.70061648668767" lon="12.14068143903092"><ele>-3.0</ele><time>2026-03-29T13:22:32.001Z</time></trkpt><trkpt lat="44.70048707167634" lon="12.140489017200712"><ele>-3.0</ele><time>2026-03-29T13:22:33.001Z</time></trkpt><trkpt lat="44.700370899477086" lon="12.140281484800546"><ele>-3.0</ele><time>2026-03-29T13:22:34.001Z</time></trkpt><trkpt lat="44.70023071149049" lon="12.140104466642734"><ele>-2.6666666666666665</ele><time>2026-03-29T13:22:35.001Z</time></trkpt><trkpt lat="44.70012487454619" lon="12.13988290670547"><ele>-2.333333333333333</ele><time>2026-03-29T13:22:36.001Z</time></trkpt><trkpt lat="44.70003173411913" lon="12.139645426919495"><ele>-2.0</ele><time>2026-03-29T13:22:37.001Z</time></trkpt><trkpt lat="44.69996534858579" lon="12.139403593699505"><ele>-2.0</ele><time>2026-03-29T13:22:38.001Z</time></trkpt><trkpt lat="44.699918767791566" lon="12.139151667428322"><ele>-2.0</ele><time>2026-03-29T13:22:39.001Z</time></trkpt><trkpt lat="44.69987931420007" lon="12.13888155162121"><ele>-2.0</ele><time>2026-03-29T13:22:40.001Z</time></trkpt><trkpt lat="44.69986848039746" lon="12.138596252088913"><ele>-2.0</ele><time>2026-03-29T13:22:41.001Z</time></trkpt><trkpt lat="44.699893043223454" lon="12.13831903609649"><ele>-2.0</ele><time>2026-03-29T13:22:42.001Z</time></trkpt><trkpt lat="44.69988885929876" lon="12.138042261983962"><ele>-2.0</ele><time>2026-03-29T13:22:43.001Z</time></trkpt><trkpt lat="44.69990781156364" lon="12.137776798998807"><ele>-2.0</ele><time>2026-03-29T13:22:44.001Z</time></trkpt><trkpt lat="44.69992352895098" lon="12.13751434591962"><ele>-2.0</ele><time>2026-03-29T13:22:45.001Z</time></trkpt><trkpt lat="44.699934722103045" lon="12.137247372762738"><ele>-2.0</ele><time>2026-03-29T13:22:46.001Z</time></trkpt><trkpt lat="44.69994354645623" lon="12.13698591327189"><ele>-2.333333333333333</ele><time>2026-03-29T13:22:47.001Z</time></trkpt><trkpt lat="44.699952416093204" lon="12.136730797899709"><ele>-2.6666666666666665</ele><time>2026-03-29T13:22:48.001Z</time></trkpt><trkpt lat="44.69996257546454" lon="12.136475001981422"><ele>-3.0</ele><time>2026-03-29T13:22:49.001Z</time></trkpt><trkpt lat="44.69996592050833" lon="12.136215515414369"><ele>-2.3333333333333335</ele><time>2026-03-29T13:22:50.001Z</time></trkpt><trkpt lat="44.69995711203362" lon="12.135953058396545"><ele>-1.6666666666666665</ele><time>2026-03-29T13:22:51.001Z</time></trkpt><trkpt lat="44.69993486983402" lon="12.135692431697565"><ele>-1.0</ele><time>2026-03-29T13:22:52.001Z</time></trkpt><trkpt lat="44.69990253914156" lon="12.135429603123145"><ele>-1.0</ele><time>2026-03-29T13:22:53.001Z</time></trkpt><trkpt lat="44.69986857483442" lon="12.1351645742883"><ele>-1.0</ele><time>2026-03-29T13:22:54.001Z</time></trkpt><trkpt lat="44.69983177956802" lon="12.134898379120875"><ele>-1.0</ele><time>2026-03-29T13:22:55.001Z</time></trkpt><trkpt lat="44.699794558031954" lon="12.134638143095543"><ele>-1.0</ele><time>2026-03-29T13:22:56.001Z</time></trkpt><trkpt lat="44.699753260617896" lon="12.13437543343009"><ele>-1.0</ele><time>2026-03-29T13:22:57.001Z</time></trkpt><trkpt lat="44.69972016572617" lon="12.134117285278423"><ele>-1.0</ele><time>2026-03-29T13:22:58.001Z</time></trkpt><trkpt lat="44.69970650923475" lon="12.133856032327882"><ele>-1.0</ele><time>2026-03-29T13:22:59.001Z</time></trkpt><trkpt lat="44.69971637426137" lon="12.133590843712254"><ele>-1.0</ele><time>2026-03-29T13:23:00.001Z</time></trkpt><trkpt lat="44.699743381814784" lon="12.13332949832914"><ele>-1.0</ele><time>2026-03-29T13:23:01.001Z</time></trkpt><trkpt lat="44.69977400175402" lon="12.133076874157007"><ele>-1.0</ele><time>2026-03-29T13:23:02.001Z</time></trkpt><trkpt lat="44.69980967479289" lon="12.132819451123858"><ele>-1.0</ele><time>2026-03-29T13:23:03.001Z</time></trkpt><trkpt lat="44.69984460132583" lon="12.13256583998864"><ele>-1.0</ele><time>2026-03-29T13:23:04.001Z</time></trkpt><trkpt lat="44.699879052485564" lon="12.13230698856795"><ele>-1.0</ele><time>2026-03-29T13:23:05.001Z</time></trkpt><trkpt lat="44.69991279452701" lon="12.132054368362567"><ele>-1.0</ele><time>2026-03-29T13:23:06.001Z</time></trkpt><trkpt lat="44.69994373246893" lon="12.13179693816551"><ele>-1.0</ele><time>2026-03-29T13:23:07.001Z</time></trkpt><trkpt lat="44.699976190725835" lon="12.131541993252254"><ele>-1.0</ele><time>2026-03-29T13:23:08.001Z</time></trkpt><trkpt lat="44.700009751512354" lon="12.131290176551245"><ele>-1.0</ele><time>2026-03-29T13:23:09.001Z</time></trkpt><trkpt lat="44.700041015062396" lon="12.131033527061119"><ele>-1.0</ele><time>2026-03-29T13:23:10.001Z</time></trkpt><trkpt lat="44.70007080487307" lon="12.130781862436155"><ele>-1.3333333333333333</ele><time>2026-03-29T13:23:11.001Z</time></trkpt><trkpt lat="44.700103803123426" lon="12.130529534279676"><ele>-1.6666666666666665</ele><time>2026-03-29T13:23:12.001Z</time></trkpt><trkpt lat="44.70013624696314" lon="12.130284363347672"><ele>-2.0</ele><time>2026-03-29T13:23:13.001Z</time></trkpt><trkpt lat="44.70016872409318" lon="12.130036280603877"><ele>-1.6666666666666665</ele><time>2026-03-29T13:23:14.001Z</time></trkpt><trkpt lat="44.70020161698167" lon="12.129780978338191"><ele>-1.3333333333333333</ele><time>2026-03-29T13:23:15.001Z</time></trkpt><trkpt lat="44.70023324785117" lon="12.129523031909306"><ele>-1.0</ele><time>2026-03-29T13:23:16.001Z</time></trkpt><trkpt lat="44.7002646932684" lon="12.12926376163128"><ele>-1.3333333333333333</ele><time>2026-03-29T13:23:17.001Z</time></trkpt><trkpt lat="44.70029915564014" lon="12.129004223714313"><ele>-1.6666666666666665</ele><time>2026-03-29T13:23:18.001Z</time></trkpt><trkpt lat="44.70033061211511" lon="12.128748598238873"><ele>-2.0</ele><time>2026-03-29T13:23:19.001Z</time></trkpt><trkpt lat="44.70036101152502" lon="12.128494692201697"><ele>-2.0</ele><time>2026-03-29T13:23:20.001Z</time></trkpt><trkpt lat="44.70039126576472" lon="12.128249702312603"><ele>-2.0</ele><time>2026-03-29T13:23:21.001Z</time></trkpt><trkpt lat="44.70041824339466" lon="12.1280290983927"><ele>-2.0</ele><time>2026-03-29T13:23:22.001Z</time></trkpt><trkpt lat="44.70044652500083" lon="12.127815394878205"><ele>-2.5</ele><time>2026-03-29T13:23:23.001Z</time></trkpt><trkpt lat="44.7004720244173" lon="12.127609864789102"><ele>-3.0</ele><time>2026-03-29T13:23:24.001Z</time></trkpt><trkpt lat="44.700489648227276" lon="12.12741460428253"><ele>-3.5</ele><time>2026-03-29T13:23:25.001Z</time></trkpt><trkpt lat="44.70049379341807" lon="12.127233428084388"><ele>-4.0</ele><time>2026-03-29T13:23:26.001Z</time></trkpt><trkpt lat="44.70048543343199" lon="12.127079722044176"><ele>-4.0</ele><time>2026-03-29T13:23:27.001Z</time></trkpt><trkpt lat="44.700442052573045" lon="12.126858814695803"><ele>-4.0</ele><time>2026-03-29T13:23:28.001Z</time></trkpt><trkpt lat="44.70038614561941" lon="12.126666493112033"><ele>-4.0</ele><time>2026-03-29T13:23:29.001Z</time></trkpt><trkpt lat="44.70031465333952" lon="12.126493953800555"><ele>-3.333333333333333</ele><time>2026-03-29T13:23:30.001Z</time></trkpt><trkpt lat="44.7002293029894" lon="12.126328415422776"><ele>-2.6666666666666665</ele><time>2026-03-29T13:23:31.001Z</time></trkpt><trkpt lat="44.70012419239875" lon="12.126163144963082"><ele>-2.0</ele><time>2026-03-29T13:23:32.001Z</time></trkpt><trkpt lat="44.70000560963724" lon="12.125993077652835"><ele>-2.0</ele><time>2026-03-29T13:23:33.001Z</time></trkpt><trkpt lat="44.69989252105735" lon="12.125827791718253"><ele>-2.0</ele><time>2026-03-29T13:23:34.001Z</time></trkpt><trkpt lat="44.69977731620518" lon="12.125653288846916"><ele>-2.0</ele><time>2026-03-29T13:23:35.001Z</time></trkpt><trkpt lat="44.699658051330694" lon="12.125478272095936"><ele>-2.333333333333333</ele><time>2026-03-29T13:23:36.001Z</time></trkpt><trkpt lat="44.69953674619322" lon="12.125298294635463"><ele>-2.6666666666666665</ele><time>2026-03-29T13:23:37.001Z</time></trkpt><trkpt lat="44.69941033482944" lon="12.12511043815899"><ele>-3.0</ele><time>2026-03-29T13:23:38.001Z</time></trkpt><trkpt lat="44.69928100482892" lon="12.124931573846172"><ele>-2.6666666666666665</ele><time>2026-03-29T13:23:39.001Z</time></trkpt><trkpt lat="44.69917008565023" lon="12.124735245298089"><ele>-2.333333333333333</ele><time>2026-03-29T13:23:40.001Z</time></trkpt><trkpt lat="44.699051798067835" lon="12.124557975693834"><ele>-2.0</ele><time>2026-03-29T13:23:41.001Z</time></trkpt><trkpt lat="44.69892760139669" lon="12.124391596031382"><ele>-2.0</ele><time>2026-03-29T13:23:42.001Z</time></trkpt><trkpt lat="44.698826903971344" lon="12.124193217632188"><ele>-2.0</ele><time>2026-03-29T13:23:43.001Z</time></trkpt><trkpt lat="44.698736361831266" lon="12.123972629076803"><ele>-2.0</ele><time>2026-03-29T13:23:44.001Z</time></trkpt><trkpt lat="44.698665528497465" lon="12.123733411786615"><ele>-2.0</ele><time>2026-03-29T13:23:45.001Z</time></trkpt><trkpt lat="44.69860849644941" lon="12.123468393874104"><ele>-2.0</ele><time>2026-03-29T13:23:46.001Z</time></trkpt><trkpt lat="44.69856808515567" lon="12.12318395760848"><ele>-2.0</ele><time>2026-03-29T13:23:47.001Z</time></trkpt><trkpt lat="44.69853889195933" lon="12.122878704087809"><ele>-2.0</ele><time>2026-03-29T13:23:48.001Z</time></trkpt><trkpt lat="44.6985074817077" lon="12.122551266992126"><ele>-2.0</ele><time>2026-03-29T13:23:49.001Z</time></trkpt><trkpt lat="44.69846867011694" lon="12.122228976140835"><ele>-1.6666666666666665</ele><time>2026-03-29T13:23:50.001Z</time></trkpt><trkpt lat="44.69843618052703" lon="12.121941930991113"><ele>-1.3333333333333333</ele><time>2026-03-29T13:23:51.001Z</time></trkpt><trkpt lat="44.6984066324509" lon="12.121668553171709"><ele>-1.0</ele><time>2026-03-29T13:23:52.001Z</time></trkpt><trkpt lat="44.69837625165371" lon="12.12139218594694"><ele>-1.0</ele><time>2026-03-29T13:23:53.001Z</time></trkpt><trkpt lat="44.69834521149411" lon="12.121124279881704"><ele>-1.0</ele><time>2026-03-29T13:23:54.001Z</time></trkpt><trkpt lat="44.698313684721626" lon="12.120864786615865"><ele>-1.0</ele><time>2026-03-29T13:23:55.001Z</time></trkpt><trkpt lat="44.69828580503803" lon="12.120612051937965"><ele>-1.0</ele><time>2026-03-29T13:23:56.001Z</time></trkpt><trkpt lat="44.698261786909974" lon="12.120358089521972"><ele>-1.0</ele><time>2026-03-29T13:23:57.001Z</time></trkpt><trkpt lat="44.69823909286191" lon="12.120110696819017"><ele>-1.0</ele><time>2026-03-29T13:23:58.001Z</time></trkpt><trkpt lat="44.69820709587585" lon="12.11985900863637"><ele>-1.3333333333333333</ele><time>2026-03-29T13:23:59.001Z</time></trkpt><trkpt lat="44.69817417823521" lon="12.11960415841354"><ele>-1.6666666666666665</ele><time>2026-03-29T13:24:00.001Z</time></trkpt><trkpt lat="44.698144067695026" lon="12.119343120101227"><ele>-2.0</ele><time>2026-03-29T13:24:01.001Z</time></trkpt><trkpt lat="44.69811681328681" lon="12.119079913324743"><ele>-2.0</ele><time>2026-03-29T13:24:02.001Z</time></trkpt><trkpt lat="44.69808595097517" lon="12.118817406040097"><ele>-2.0</ele><time>2026-03-29T13:24:03.001Z</time></trkpt><trkpt lat="44.69805686499342" lon="12.118558235330367"><ele>-2.0</ele><time>2026-03-29T13:24:04.001Z</time></trkpt><trkpt lat="44.69802441877445" lon="12.11830311810764"><ele>-2.0</ele><time>2026-03-29T13:24:05.001Z</time></trkpt><trkpt lat="44.69799658688529" lon="12.118046377689033"><ele>-2.0</ele><time>2026-03-29T13:24:06.001Z</time></trkpt><trkpt lat="44.69796875271806" lon="12.11778934428015"><ele>-2.0</ele><time>2026-03-29T13:24:07.001Z</time></trkpt><trkpt lat="44.6979380093614" lon="12.117537990354837"><ele>-2.333333333333333</ele><time>2026-03-29T13:24:08.001Z</time></trkpt><trkpt lat="44.69790355394725" lon="12.11728361948393"><ele>-2.6666666666666665</ele><time>2026-03-29T13:24:09.001Z</time></trkpt><trkpt lat="44.69785523380977" lon="12.117029099368692"><ele>-3.0</ele><time>2026-03-29T13:24:10.001Z</time></trkpt><trkpt lat="44.69778807279656" lon="12.116781454456747"><ele>-2.3333333333333335</ele><time>2026-03-29T13:24:11.001Z</time></trkpt><trkpt lat="44.69770877293134" lon="12.116534629287342"><ele>-1.6666666666666665</ele><time>2026-03-29T13:24:12.001Z</time></trkpt><trkpt lat="44.697632685726774" lon="12.11629020221702"><ele>-1.0</ele><time>2026-03-29T13:24:13.001Z</time></trkpt><trkpt lat="44.69755843822614" lon="12.116043732757168"><ele>-1.0</ele><time>2026-03-29T13:24:14.001Z</time></trkpt><trkpt lat="44.69748401872087" lon="12.115798932526417"><ele>-1.0</ele><time>2026-03-29T13:24:15.001Z</time></trkpt><trkpt lat="44.69740604500717" lon="12.115557071761078"><ele>-1.0</ele><time>2026-03-29T13:24:16.001Z</time></trkpt><trkpt lat="44.69733008605441" lon="12.115311484729785"><ele>-1.3333333333333333</ele><time>2026-03-29T13:24:17.001Z</time></trkpt><trkpt lat="44.697252955761556" lon="12.11506987925175"><ele>-1.6666666666666665</ele><time>2026-03-29T13:24:18.001Z</time></trkpt><trkpt lat="44.6971803178592" lon="12.11482470090367"><ele>-2.0</ele><time>2026-03-29T13:24:19.001Z</time></trkpt><trkpt lat="44.69710304833077" lon="12.1145798030717"><ele>-2.333333333333333</ele><time>2026-03-29T13:24:20.001Z</time></trkpt><trkpt lat="44.69702949418691" lon="12.114348115371163"><ele>-2.6666666666666665</ele><time>2026-03-29T13:24:21.001Z</time></trkpt><trkpt lat="44.69696477011547" lon="12.114137674238803"><ele>-3.0</ele><time>2026-03-29T13:24:22.001Z</time></trkpt><trkpt lat="44.69690267608737" lon="12.113933132638874"><ele>-1.3333333333333335</ele><time>2026-03-29T13:24:23.001Z</time></trkpt><trkpt lat="44.69685244077034" lon="12.113726752468471"><ele>0.33333333333333326</ele><time>2026-03-29T13:24:24.001Z</time></trkpt><trkpt lat="44.69681394768938" lon="12.11351235596821"><ele>2.0</ele><time>2026-03-29T13:24:25.001Z</time></trkpt><trkpt lat="44.69679800423526" lon="12.113290822434323"><ele>1.6666666666666665</ele><time>2026-03-29T13:24:26.001Z</time></trkpt><trkpt lat="44.6968039068987" lon="12.113070885410082"><ele>1.3333333333333333</ele><time>2026-03-29T13:24:27.001Z</time></trkpt><trkpt lat="44.69683478305718" lon="12.112850631830138"><ele>1.0</ele><time>2026-03-29T13:24:28.001Z</time></trkpt><trkpt lat="44.69689230488927" lon="12.112639141662248"><ele>-0.33333333333333337</ele><time>2026-03-29T13:24:29.001Z</time></trkpt><trkpt lat="44.69697311865433" lon="12.112436345471002"><ele>-1.6666666666666667</ele><time>2026-03-29T13:24:30.001Z</time></trkpt><trkpt lat="44.69707085659949" lon="12.112242117530704"><ele>-3.0</ele><time>2026-03-29T13:24:31.001Z</time></trkpt><trkpt lat="44.697174486222856" lon="12.112059587480031"><ele>-3.0</ele><time>2026-03-29T13:24:32.001Z</time></trkpt><trkpt lat="44.697281264255096" lon="12.111875717629369"><ele>-3.0</ele><time>2026-03-29T13:24:33.001Z</time></trkpt><trkpt lat="44.69737988280221" lon="12.111696225329332"><ele>-3.0</ele><time>2026-03-29T13:24:34.001Z</time></trkpt><trkpt lat="44.69747644348087" lon="12.111517586537756"><ele>-2.75</ele><time>2026-03-29T13:24:35.001Z</time></trkpt><trkpt lat="44.69757257578301" lon="12.111342251142016"><ele>-2.5</ele><time>2026-03-29T13:24:36.001Z</time></trkpt><trkpt lat="44.69766704547011" lon="12.111169195894414"><ele>-2.25</ele><time>2026-03-29T13:24:37.001Z</time></trkpt><trkpt lat="44.69775085687203" lon="12.111017861120976"><ele>-2.0</ele><time>2026-03-29T13:24:38.001Z</time></trkpt><trkpt lat="44.697831969479225" lon="12.110872557627113"><ele>-2.25</ele><time>2026-03-29T13:24:39.001Z</time></trkpt><trkpt lat="44.6979066496388" lon="12.110737297307976"><ele>-2.5</ele><time>2026-03-29T13:24:40.001Z</time></trkpt><trkpt lat="44.69798355217463" lon="12.110598542764174"><ele>-2.75</ele><time>2026-03-29T13:24:41.001Z</time></trkpt><trkpt lat="44.69806010792668" lon="12.110463723502292"><ele>-3.0</ele><time>2026-03-29T13:24:42.001Z</time></trkpt><trkpt lat="44.698129668955545" lon="12.110332749017495"><ele>-3.0</ele><time>2026-03-29T13:24:43.001Z</time></trkpt><trkpt lat="44.698182904381774" lon="12.11021344223959"><ele>-3.0</ele><time>2026-03-29T13:24:44.001Z</time></trkpt><trkpt lat="44.69821519980261" lon="12.110099094205273"><ele>-3.0</ele><time>2026-03-29T13:24:45.001Z</time></trkpt><trkpt lat="44.69824744078306" lon="12.110000328761693"><ele>-3.0</ele><time>2026-03-29T13:24:46.001Z</time></trkpt><trkpt lat="44.69827978578029" lon="12.10992337955991"><ele>-3.0</ele><time>2026-03-29T13:24:47.001Z</time></trkpt><trkpt lat="44.6983273743141" lon="12.10983070830254"><ele>-3.0</ele><time>2026-03-29T13:24:48.001Z</time></trkpt><trkpt lat="44.69836947314388" lon="12.109589263467289"><ele>-3.0</ele><time>2026-03-29T13:24:50.001Z</time></trkpt><trkpt lat="44.698350393090436" lon="12.109426186679142"><ele>-3.0</ele><time>2026-03-29T13:24:51.001Z</time></trkpt><trkpt lat="44.698372060979615" lon="12.10924320240697"><ele>-3.0</ele><time>2026-03-29T13:24:52.001Z</time></trkpt><trkpt lat="44.69840045872587" lon="12.109034610978878"><ele>-3.0</ele><time>2026-03-29T13:24:53.001Z</time></trkpt><trkpt lat="44.698398853976244" lon="12.108817686806802"><ele>-2.6666666666666665</ele><time>2026-03-29T13:24:54.001Z</time></trkpt><trkpt lat="44.69839995308525" lon="12.108580523479326"><ele>-2.333333333333333</ele><time>2026-03-29T13:24:55.001Z</time></trkpt><trkpt lat="44.698386366570034" lon="12.108321166067785"><ele>-2.0</ele><time>2026-03-29T13:24:56.001Z</time></trkpt><trkpt lat="44.69837359358939" lon="12.108073449942044"><ele>-1.6666666666666665</ele><time>2026-03-29T13:24:57.001Z</time></trkpt><trkpt lat="44.69836183192136" lon="12.10784141253019"><ele>-1.3333333333333333</ele><time>2026-03-29T13:24:58.001Z</time></trkpt><trkpt lat="44.69835247100692" lon="12.10760909090866"><ele>-1.0</ele><time>2026-03-29T13:24:59.001Z</time></trkpt><trkpt lat="44.698342138404755" lon="12.107375201415723"><ele>-0.3333333333333333</ele><time>2026-03-29T13:25:00.001Z</time></trkpt><trkpt lat="44.69833536071372" lon="12.1071447421811"><ele>0.3333333333333333</ele><time>2026-03-29T13:25:01.001Z</time></trkpt><trkpt lat="44.69832666904224" lon="12.106912044628865"><ele>1.0</ele><time>2026-03-29T13:25:02.001Z</time></trkpt><trkpt lat="44.6983168188687" lon="12.106680678039783"><ele>1.0</ele><time>2026-03-29T13:25:03.001Z</time></trkpt><trkpt lat="44.69830588448778" lon="12.106431472219754"><ele>1.0</ele><time>2026-03-29T13:25:04.001Z</time></trkpt><trkpt lat="44.698300178667196" lon="12.106195785141622"><ele>1.0</ele><time>2026-03-29T13:25:05.001Z</time></trkpt><trkpt lat="44.69828854085522" lon="12.10596508446817"><ele>0.6666666666666666</ele><time>2026-03-29T13:25:06.001Z</time></trkpt><trkpt lat="44.69827636176846" lon="12.105712100242934"><ele>0.3333333333333333</ele><time>2026-03-29T13:25:07.001Z</time></trkpt><trkpt lat="44.69826492505229" lon="12.105480858103448"><ele>0.0</ele><time>2026-03-29T13:25:08.001Z</time></trkpt><trkpt lat="44.698256235237906" lon="12.105246853867087"><ele>0.0</ele><time>2026-03-29T13:25:09.001Z</time></trkpt><trkpt lat="44.69824961081419" lon="12.105013074970664"><ele>0.0</ele><time>2026-03-29T13:25:10.001Z</time></trkpt><trkpt lat="44.69825011740926" lon="12.10478470777907"><ele>0.0</ele><time>2026-03-29T13:25:11.001Z</time></trkpt><trkpt lat="44.698271958925574" lon="12.1045507673613"><ele>0.3333333333333333</ele><time>2026-03-29T13:25:12.001Z</time></trkpt><trkpt lat="44.69831526046676" lon="12.104321475525166"><ele>0.6666666666666666</ele><time>2026-03-29T13:25:13.001Z</time></trkpt><trkpt lat="44.69838293280882" lon="12.104106613650488"><ele>1.0</ele><time>2026-03-29T13:25:14.001Z</time></trkpt><trkpt lat="44.69847534240244" lon="12.103901547615978"><ele>0.0</ele><time>2026-03-29T13:25:15.001Z</time></trkpt><trkpt lat="44.698588760444" lon="12.103689767678471"><ele>-1.0</ele><time>2026-03-29T13:25:16.001Z</time></trkpt><trkpt lat="44.69871240416883" lon="12.103495252533328"><ele>-2.0</ele><time>2026-03-29T13:25:17.001Z</time></trkpt><trkpt lat="44.69882965776412" lon="12.103319707641003"><ele>-2.0</ele><time>2026-03-29T13:25:18.001Z</time></trkpt><trkpt lat="44.69894840167292" lon="12.103132118198765"><ele>-2.0</ele><time>2026-03-29T13:25:19.001Z</time></trkpt><trkpt lat="44.69907112764366" lon="12.102930489820727"><ele>-2.0</ele><time>2026-03-29T13:25:20.001Z</time></trkpt><trkpt lat="44.6991933930907" lon="12.102728112317413"><ele>-2.0</ele><time>2026-03-29T13:25:21.001Z</time></trkpt><trkpt lat="44.69932132371342" lon="12.102518350640324"><ele>-2.0</ele><time>2026-03-29T13:25:22.001Z</time></trkpt><trkpt lat="44.69944619660951" lon="12.102315007513093"><ele>-2.0</ele><time>2026-03-29T13:25:23.001Z</time></trkpt><trkpt lat="44.6995780518614" lon="12.10210084990217"><ele>-2.0</ele><time>2026-03-29T13:25:24.001Z</time></trkpt><trkpt lat="44.69971211443645" lon="12.101887915179493"><ele>-2.0</ele><time>2026-03-29T13:25:25.001Z</time></trkpt><trkpt lat="44.69984645705828" lon="12.101670312836747"><ele>-2.0</ele><time>2026-03-29T13:25:26.001Z</time></trkpt><trkpt lat="44.6999805967866" lon="12.101450556286053"><ele>-2.0</ele><time>2026-03-29T13:25:27.001Z</time></trkpt><trkpt lat="44.70011436911599" lon="12.101231179065074"><ele>-2.0</ele><time>2026-03-29T13:25:28.001Z</time></trkpt><trkpt lat="44.70024676276233" lon="12.101012879385769"><ele>-2.0</ele><time>2026-03-29T13:25:29.001Z</time></trkpt><trkpt lat="44.7003783147743" lon="12.100799770025722"><ele>-2.333333333333333</ele><time>2026-03-29T13:25:30.001Z</time></trkpt><trkpt lat="44.70050661080671" lon="12.100593095198878"><ele>-2.6666666666666665</ele><time>2026-03-29T13:25:31.001Z</time></trkpt><trkpt lat="44.70063506260905" lon="12.100383799961868"><ele>-3.0</ele><time>2026-03-29T13:25:32.001Z</time></trkpt><trkpt lat="44.70076430358348" lon="12.100171901901888"><ele>-3.0</ele><time>2026-03-29T13:25:33.001Z</time></trkpt><trkpt lat="44.70089047492229" lon="12.099965068028695"><ele>-3.0</ele><time>2026-03-29T13:25:34.001Z</time></trkpt><trkpt lat="44.70101551567518" lon="12.099764946650488"><ele>-3.0</ele><time>2026-03-29T13:25:35.001Z</time></trkpt><trkpt lat="44.70114120732604" lon="12.099558221409149"><ele>-3.0</ele><time>2026-03-29T13:25:36.001Z</time></trkpt><trkpt lat="44.70126551986887" lon="12.099354755608635"><ele>-3.0</ele><time>2026-03-29T13:25:37.001Z</time></trkpt><trkpt lat="44.70139019307951" lon="12.099149006427611"><ele>-3.0</ele><time>2026-03-29T13:25:38.001Z</time></trkpt><trkpt lat="44.70151173081077" lon="12.09894522194779"><ele>-2.6666666666666665</ele><time>2026-03-29T13:25:39.001Z</time></trkpt><trkpt lat="44.701634658559804" lon="12.09873970938131"><ele>-2.333333333333333</ele><time>2026-03-29T13:25:40.001Z</time></trkpt><trkpt lat="44.701755746397296" lon="12.098533511262437"><ele>-2.0</ele><time>2026-03-29T13:25:41.001Z</time></trkpt><trkpt lat="44.70187874968869" lon="12.098330387325236"><ele>-2.0</ele><time>2026-03-29T13:25:42.001Z</time></trkpt><trkpt lat="44.7020076691548" lon="12.098137051437904"><ele>-2.0</ele><time>2026-03-29T13:25:43.001Z</time></trkpt><trkpt lat="44.7021486296542" lon="12.097958404553886"><ele>-2.0</ele><time>2026-03-29T13:25:44.001Z</time></trkpt><trkpt lat="44.702300547216424" lon="12.097808589553923"><ele>-2.0</ele><time>2026-03-29T13:25:45.001Z</time></trkpt><trkpt lat="44.70246469951046" lon="12.097688976318926"><ele>-2.0</ele><time>2026-03-29T13:25:46.001Z</time></trkpt><trkpt lat="44.702640860104175" lon="12.097589293277272"><ele>-2.0</ele><time>2026-03-29T13:25:47.001Z</time></trkpt><trkpt lat="44.702811692194054" lon="12.097490099607816"><ele>-1.6666666666666665</ele><time>2026-03-29T13:25:48.001Z</time></trkpt><trkpt lat="44.70297574541878" lon="12.097380636283283"><ele>-1.3333333333333333</ele><time>2026-03-29T13:25:49.001Z</time></trkpt><trkpt lat="44.70314277391823" lon="12.097276047353652"><ele>-1.0</ele><time>2026-03-29T13:25:50.001Z</time></trkpt><trkpt lat="44.703309945874636" lon="12.097172197351004"><ele>-1.0</ele><time>2026-03-29T13:25:51.001Z</time></trkpt><trkpt lat="44.703473414378884" lon="12.097065114999973"><ele>-1.0</ele><time>2026-03-29T13:25:52.001Z</time></trkpt><trkpt lat="44.70363412656216" lon="12.096958482094795"><ele>-1.0</ele><time>2026-03-29T13:25:53.001Z</time></trkpt><trkpt lat="44.703796703006624" lon="12.096857407921478"><ele>-1.0</ele><time>2026-03-29T13:25:54.001Z</time></trkpt><trkpt lat="44.70396203207913" lon="12.096756754244053"><ele>-1.0</ele><time>2026-03-29T13:25:55.001Z</time></trkpt><trkpt lat="44.704128607475084" lon="12.09665051923862"><ele>-1.0</ele><time>2026-03-29T13:25:56.001Z</time></trkpt><trkpt lat="44.70429333457878" lon="12.09654006926299"><ele>-1.0</ele><time>2026-03-29T13:25:57.001Z</time></trkpt><trkpt lat="44.7044594889681" lon="12.096435090999634"><ele>-1.0</ele><time>2026-03-29T13:25:58.001Z</time></trkpt><trkpt lat="44.704625754820036" lon="12.0963294833981"><ele>-1.0</ele><time>2026-03-29T13:25:59.001Z</time></trkpt><trkpt lat="44.7047910476696" lon="12.096221092085575"><ele>-1.0</ele><time>2026-03-29T13:26:00.001Z</time></trkpt><trkpt lat="44.70495739642152" lon="12.096116891445012"><ele>-1.0</ele><time>2026-03-29T13:26:01.001Z</time></trkpt><trkpt lat="44.70512234486597" lon="12.096012881634282"><ele>-1.0</ele><time>2026-03-29T13:26:02.001Z</time></trkpt><trkpt lat="44.70529203988111" lon="12.095904056855929"><ele>-1.0</ele><time>2026-03-29T13:26:03.001Z</time></trkpt><trkpt lat="44.705464783341434" lon="12.095794321235465"><ele>-1.0</ele><time>2026-03-29T13:26:04.001Z</time></trkpt><trkpt lat="44.70564103970256" lon="12.095682498004429"><ele>-1.0</ele><time>2026-03-29T13:26:05.001Z</time></trkpt><trkpt lat="44.70581421840174" lon="12.095571662098973"><ele>-1.0</ele><time>2026-03-29T13:26:06.001Z</time></trkpt><trkpt lat="44.70599118179785" lon="12.09545550135071"><ele>-1.0</ele><time>2026-03-29T13:26:07.001Z</time></trkpt><trkpt lat="44.70616796275921" lon="12.095340515633369"><ele>-1.0</ele><time>2026-03-29T13:26:08.001Z</time></trkpt><trkpt lat="44.706342533103665" lon="12.09523220993961"><ele>-1.3333333333333333</ele><time>2026-03-29T13:26:09.001Z</time></trkpt><trkpt lat="44.706518495377345" lon="12.095123962885252"><ele>-1.6666666666666665</ele><time>2026-03-29T13:26:10.001Z</time></trkpt><trkpt lat="44.70670780217924" lon="12.09499902845621"><ele>-2.0</ele><time>2026-03-29T13:26:11.001Z</time></trkpt><trkpt lat="44.70688756878866" lon="12.094881890118684"><ele>-1.3333333333333333</ele><time>2026-03-29T13:26:12.001Z</time></trkpt><trkpt lat="44.707060661286555" lon="12.094772892971633"><ele>-0.6666666666666666</ele><time>2026-03-29T13:26:13.001Z</time></trkpt><trkpt lat="44.70723584856178" lon="12.094658185369314"><ele>0.0</ele><time>2026-03-29T13:26:14.001Z</time></trkpt><trkpt lat="44.70740488587937" lon="12.094552753573737"><ele>0.0</ele><time>2026-03-29T13:26:15.001Z</time></trkpt><trkpt lat="44.707574088778664" lon="12.094445848407458"><ele>0.0</ele><time>2026-03-29T13:26:16.001Z</time></trkpt><trkpt lat="44.70774484779024" lon="12.094334781598148"><ele>0.0</ele><time>2026-03-29T13:26:17.001Z</time></trkpt><trkpt lat="44.707921219539344" lon="12.094224756741204"><ele>0.0</ele><time>2026-03-29T13:26:18.001Z</time></trkpt><trkpt lat="44.708103098683566" lon="12.094110016253222"><ele>0.0</ele><time>2026-03-29T13:26:19.001Z</time></trkpt><trkpt lat="44.708285897066375" lon="12.093992180766985"><ele>0.0</ele><time>2026-03-29T13:26:20.001Z</time></trkpt><trkpt lat="44.70847101987444" lon="12.09387060741849"><ele>0.0</ele><time>2026-03-29T13:26:21.001Z</time></trkpt><trkpt lat="44.708656748585845" lon="12.0937526918336"><ele>0.0</ele><time>2026-03-29T13:26:22.001Z</time></trkpt><trkpt lat="44.70884476600123" lon="12.09362957589601"><ele>0.0</ele><time>2026-03-29T13:26:23.001Z</time></trkpt><trkpt lat="44.70902960031625" lon="12.093514939590357"><ele>0.0</ele><time>2026-03-29T13:26:24.001Z</time></trkpt><trkpt lat="44.709211915860784" lon="12.093398630872002"><ele>0.0</ele><time>2026-03-29T13:26:25.001Z</time></trkpt><trkpt lat="44.70939630295164" lon="12.093284783031736"><ele>0.0</ele><time>2026-03-29T13:26:26.001Z</time></trkpt><trkpt lat="44.7095830683605" lon="12.093165484141018"><ele>-0.6666666666666666</ele><time>2026-03-29T13:26:27.001Z</time></trkpt><trkpt lat="44.70976647168354" lon="12.093047787721913"><ele>-1.3333333333333333</ele><time>2026-03-29T13:26:28.001Z</time></trkpt><trkpt lat="44.70994841346777" lon="12.092929835876985"><ele>-2.0</ele><time>2026-03-29T13:26:29.001Z</time></trkpt><trkpt lat="44.71012614229177" lon="12.092812382254515"><ele>-2.333333333333333</ele><time>2026-03-29T13:26:30.001Z</time></trkpt><trkpt lat="44.710304653469635" lon="12.092694975607666"><ele>-2.6666666666666665</ele><time>2026-03-29T13:26:31.001Z</time></trkpt><trkpt lat="44.71048420806155" lon="12.092581252871044"><ele>-3.0</ele><time>2026-03-29T13:26:32.001Z</time></trkpt><trkpt lat="44.710665208882844" lon="12.092466341184103"><ele>-2.6666666666666665</ele><time>2026-03-29T13:26:33.001Z</time></trkpt><trkpt lat="44.710845275508305" lon="12.092348947649292"><ele>-2.333333333333333</ele><time>2026-03-29T13:26:34.001Z</time></trkpt><trkpt lat="44.7110240067315" lon="12.09223196437127"><ele>-2.0</ele><time>2026-03-29T13:26:35.001Z</time></trkpt><trkpt lat="44.71120353831903" lon="12.092117167693173"><ele>-2.0</ele><time>2026-03-29T13:26:36.001Z</time></trkpt><trkpt lat="44.71137988734852" lon="12.092005343368019"><ele>-2.0</ele><time>2026-03-29T13:26:37.001Z</time></trkpt><trkpt lat="44.71155749962022" lon="12.091890996241775"><ele>-2.0</ele><time>2026-03-29T13:26:38.001Z</time></trkpt><trkpt lat="44.71173768908161" lon="12.091770936398339"><ele>-2.0</ele><time>2026-03-29T13:26:39.001Z</time></trkpt><trkpt lat="44.711916094977454" lon="12.09165658220437"><ele>-2.0</ele><time>2026-03-29T13:26:40.001Z</time></trkpt><trkpt lat="44.71209544203295" lon="12.091545803263879"><ele>-2.0</ele><time>2026-03-29T13:26:41.001Z</time></trkpt><trkpt lat="44.712275106671804" lon="12.09143347180014"><ele>-2.0</ele><time>2026-03-29T13:26:42.001Z</time></trkpt><trkpt lat="44.71245660795649" lon="12.091315876071226"><ele>-2.0</ele><time>2026-03-29T13:26:43.001Z</time></trkpt><trkpt lat="44.71263255011137" lon="12.09120011767451"><ele>-2.0</ele><time>2026-03-29T13:26:44.001Z</time></trkpt><trkpt lat="44.71279950566897" lon="12.09109317195846"><ele>-2.0</ele><time>2026-03-29T13:26:45.001Z</time></trkpt><trkpt lat="44.712965336167336" lon="12.090988855325998"><ele>-2.0</ele><time>2026-03-29T13:26:46.001Z</time></trkpt><trkpt lat="44.71313298354177" lon="12.090884528198893"><ele>-2.0</ele><time>2026-03-29T13:26:47.001Z</time></trkpt><trkpt lat="44.71330659535567" lon="12.090775773997052"><ele>-1.6666666666666665</ele><time>2026-03-29T13:26:48.001Z</time></trkpt><trkpt lat="44.71348539619589" lon="12.090667570123768"><ele>-1.3333333333333333</ele><time>2026-03-29T13:26:49.001Z</time></trkpt><trkpt lat="44.71366692761743" lon="12.090569757513906"><ele>-1.0</ele><time>2026-03-29T13:26:50.001Z</time></trkpt><trkpt lat="44.71385235314327" lon="12.090461463887435"><ele>-1.0</ele><time>2026-03-29T13:26:51.001Z</time></trkpt><trkpt lat="44.71403007343262" lon="12.090342855784218"><ele>-1.0</ele><time>2026-03-29T13:26:52.001Z</time></trkpt><trkpt lat="44.71420844941129" lon="12.090224374369836"><ele>-1.0</ele><time>2026-03-29T13:26:53.001Z</time></trkpt><trkpt lat="44.714383299379534" lon="12.090113719392235"><ele>-1.0</ele><time>2026-03-29T13:26:54.001Z</time></trkpt><trkpt lat="44.71455977217301" lon="12.089992740608714"><ele>-1.0</ele><time>2026-03-29T13:26:55.001Z</time></trkpt><trkpt lat="44.71473781606362" lon="12.089866860538013"><ele>-1.0</ele><time>2026-03-29T13:26:56.001Z</time></trkpt><trkpt lat="44.71491617268035" lon="12.089741605743752"><ele>-1.3333333333333333</ele><time>2026-03-29T13:26:57.001Z</time></trkpt><trkpt lat="44.71508808360781" lon="12.08962883392519"><ele>-1.6666666666666665</ele><time>2026-03-29T13:26:58.001Z</time></trkpt><trkpt lat="44.71526111751018" lon="12.089518699201118"><ele>-2.0</ele><time>2026-03-29T13:26:59.001Z</time></trkpt><trkpt lat="44.71543961026402" lon="12.089405172702104"><ele>-2.0</ele><time>2026-03-29T13:27:00.001Z</time></trkpt><trkpt lat="44.715615879763035" lon="12.089288233361504"><ele>-2.0</ele><time>2026-03-29T13:27:01.001Z</time></trkpt><trkpt lat="44.71579188591869" lon="12.089165164013204"><ele>-2.0</ele><time>2026-03-29T13:27:02.001Z</time></trkpt><trkpt lat="44.71596142155053" lon="12.089038789397359"><ele>-1.6666666666666665</ele><time>2026-03-29T13:27:03.001Z</time></trkpt><trkpt lat="44.71612886581025" lon="12.088900877885369"><ele>-1.3333333333333333</ele><time>2026-03-29T13:27:04.001Z</time></trkpt><trkpt lat="44.716291250091984" lon="12.088746907189451"><ele>-1.0</ele><time>2026-03-29T13:27:05.001Z</time></trkpt><trkpt lat="44.71644875224348" lon="12.08858942407652"><ele>-1.0</ele><time>2026-03-29T13:27:06.001Z</time></trkpt><trkpt lat="44.71660772062511" lon="12.088417295020463"><ele>-1.0</ele><time>2026-03-29T13:27:07.001Z</time></trkpt><trkpt lat="44.71676238092361" lon="12.088254157098984"><ele>-1.0</ele><time>2026-03-29T13:27:08.001Z</time></trkpt><trkpt lat="44.71691877694176" lon="12.088087282988528"><ele>-1.0</ele><time>2026-03-29T13:27:09.001Z</time></trkpt><trkpt lat="44.71707349893279" lon="12.087916878319062"><ele>-1.0</ele><time>2026-03-29T13:27:10.001Z</time></trkpt><trkpt lat="44.717222479862244" lon="12.087740750819863"><ele>-1.0</ele><time>2026-03-29T13:27:11.001Z</time></trkpt><trkpt lat="44.71737292079584" lon="12.08755792899768"><ele>-1.0</ele><time>2026-03-29T13:27:12.001Z</time></trkpt><trkpt lat="44.71752041724134" lon="12.08737430622055"><ele>-1.0</ele><time>2026-03-29T13:27:13.001Z</time></trkpt><trkpt lat="44.717662346413896" lon="12.087187120980886"><ele>-1.0</ele><time>2026-03-29T13:27:14.001Z</time></trkpt><trkpt lat="44.71780399155625" lon="12.086991348102835"><ele>-1.0</ele><time>2026-03-29T13:27:15.001Z</time></trkpt><trkpt lat="44.7179459867114" lon="12.086796790929379"><ele>-1.0</ele><time>2026-03-29T13:27:16.001Z</time></trkpt><trkpt lat="44.71808482340252" lon="12.086596952073986"><ele>-1.0</ele><time>2026-03-29T13:27:17.001Z</time></trkpt><trkpt lat="44.71822384689155" lon="12.086399199433771"><ele>-1.0</ele><time>2026-03-29T13:27:18.001Z</time></trkpt><trkpt lat="44.718359068927505" lon="12.08620763934183"><ele>-1.0</ele><time>2026-03-29T13:27:19.001Z</time></trkpt><trkpt lat="44.718492503770435" lon="12.086015200891618"><ele>-1.0</ele><time>2026-03-29T13:27:20.001Z</time></trkpt><trkpt lat="44.71862833193823" lon="12.08581700927558"><ele>-1.3333333333333333</ele><time>2026-03-29T13:27:21.001Z</time></trkpt><trkpt lat="44.71875871213719" lon="12.085613286955414"><ele>-1.6666666666666665</ele><time>2026-03-29T13:27:22.001Z</time></trkpt><trkpt lat="44.71888755418916" lon="12.08541445522433"><ele>-2.0</ele><time>2026-03-29T13:27:23.001Z</time></trkpt><trkpt lat="44.71901561115662" lon="12.085218799731665"><ele>-2.0</ele><time>2026-03-29T13:27:24.001Z</time></trkpt><trkpt lat="44.719135832395565" lon="12.085021542405864"><ele>-2.0</ele><time>2026-03-29T13:27:25.001Z</time></trkpt><trkpt lat="44.71925537059559" lon="12.084823782799239"><ele>-2.0</ele><time>2026-03-29T13:27:26.001Z</time></trkpt><trkpt lat="44.71937524181555" lon="12.08462225465578"><ele>-2.0</ele><time>2026-03-29T13:27:27.001Z</time></trkpt><trkpt lat="44.71949449245877" lon="12.08441396700796"><ele>-2.0</ele><time>2026-03-29T13:27:28.001Z</time></trkpt><trkpt lat="44.7196132295492" lon="12.084203254860773"><ele>-2.0</ele><time>2026-03-29T13:27:29.001Z</time></trkpt><trkpt lat="44.71973332311634" lon="12.083993253616534"><ele>-2.0</ele><time>2026-03-29T13:27:30.001Z</time></trkpt><trkpt lat="44.71984957433596" lon="12.083775021210371"><ele>-2.0</ele><time>2026-03-29T13:27:31.001Z</time></trkpt><trkpt lat="44.71995418333118" lon="12.083551638242103"><ele>-2.0</ele><time>2026-03-29T13:27:32.001Z</time></trkpt><trkpt lat="44.72006172230035" lon="12.083327646478295"><ele>-2.0</ele><time>2026-03-29T13:27:33.001Z</time></trkpt><trkpt lat="44.72016554615589" lon="12.083106178326252"><ele>-2.0</ele><time>2026-03-29T13:27:34.001Z</time></trkpt><trkpt lat="44.72025961586025" lon="12.082877096168417"><ele>-2.0</ele><time>2026-03-29T13:27:35.001Z</time></trkpt><trkpt lat="44.720353763403544" lon="12.082644865242818"><ele>-2.333333333333333</ele><time>2026-03-29T13:27:36.001Z</time></trkpt><trkpt lat="44.72044889990417" lon="12.0824087861682"><ele>-2.6666666666666665</ele><time>2026-03-29T13:27:37.001Z</time></trkpt><trkpt lat="44.720540037350595" lon="12.082169694068515"><ele>-3.0</ele><time>2026-03-29T13:27:38.001Z</time></trkpt><trkpt lat="44.72062715602706" lon="12.08192702120361"><ele>-3.0</ele><time>2026-03-29T13:27:39.001Z</time></trkpt><trkpt lat="44.72070000669013" lon="12.081685572625776"><ele>-3.0</ele><time>2026-03-29T13:27:40.001Z</time></trkpt><trkpt lat="44.720768426666815" lon="12.081420648156827"><ele>-3.0</ele><time>2026-03-29T13:27:41.001Z</time></trkpt><trkpt lat="44.72082534105701" lon="12.081148184667642"><ele>-2.3333333333333335</ele><time>2026-03-29T13:27:42.001Z</time></trkpt><trkpt lat="44.72086785152594" lon="12.080880386294002"><ele>-1.6666666666666665</ele><time>2026-03-29T13:27:43.001Z</time></trkpt><trkpt lat="44.720930865602696" lon="12.080615047093216"><ele>-1.0</ele><time>2026-03-29T13:27:44.001Z</time></trkpt><trkpt lat="44.7209754771736" lon="12.08033973472563"><ele>-1.0</ele><time>2026-03-29T13:27:45.001Z</time></trkpt><trkpt lat="44.72100093927988" lon="12.080056671283819"><ele>-1.0</ele><time>2026-03-29T13:27:46.001Z</time></trkpt><trkpt lat="44.72104008772823" lon="12.07977835479998"><ele>-1.0</ele><time>2026-03-29T13:27:47.001Z</time></trkpt><trkpt lat="44.721075228728694" lon="12.07950310106735"><ele>-1.3333333333333333</ele><time>2026-03-29T13:27:48.001Z</time></trkpt><trkpt lat="44.721106478423906" lon="12.07922632729423"><ele>-1.6666666666666665</ele><time>2026-03-29T13:27:49.001Z</time></trkpt><trkpt lat="44.72113069641534" lon="12.078951619525515"><ele>-2.0</ele><time>2026-03-29T13:27:50.001Z</time></trkpt><trkpt lat="44.72115767661205" lon="12.078677398596536"><ele>-2.0</ele><time>2026-03-29T13:27:51.001Z</time></trkpt><trkpt lat="44.72118439445545" lon="12.078402573885638"><ele>-2.0</ele><time>2026-03-29T13:27:52.001Z</time></trkpt><trkpt lat="44.721212383848886" lon="12.078127209484586"><ele>-2.0</ele><time>2026-03-29T13:27:53.001Z</time></trkpt><trkpt lat="44.72125493778532" lon="12.077861138317507"><ele>-2.0</ele><time>2026-03-29T13:27:54.001Z</time></trkpt><trkpt lat="44.72128261433848" lon="12.077596108461766"><ele>-2.0</ele><time>2026-03-29T13:27:55.001Z</time></trkpt><trkpt lat="44.7213094873025" lon="12.077339910993429"><ele>-2.0</ele><time>2026-03-29T13:27:56.001Z</time></trkpt><trkpt lat="44.7213346642737" lon="12.077099897181258"><ele>-2.0</ele><time>2026-03-29T13:27:57.001Z</time></trkpt><trkpt lat="44.72135988274617" lon="12.076859487313326"><ele>-2.0</ele><time>2026-03-29T13:27:58.001Z</time></trkpt><trkpt lat="44.72138527721259" lon="12.076617400028196"><ele>-2.0</ele><time>2026-03-29T13:27:59.001Z</time></trkpt><trkpt lat="44.72141181259975" lon="12.07636443604866"><ele>-1.6666666666666665</ele><time>2026-03-29T13:28:00.001Z</time></trkpt><trkpt lat="44.72143798746996" lon="12.076114908776502"><ele>-1.3333333333333333</ele><time>2026-03-29T13:28:01.001Z</time></trkpt><trkpt lat="44.72146538992695" lon="12.075853679138344"><ele>-1.0</ele><time>2026-03-29T13:28:02.001Z</time></trkpt><trkpt lat="44.72149222878074" lon="12.075594219807144"><ele>-1.0</ele><time>2026-03-29T13:28:03.001Z</time></trkpt><trkpt lat="44.72150423095438" lon="12.075325929384663"><ele>-1.0</ele><time>2026-03-29T13:28:04.001Z</time></trkpt><trkpt lat="44.72153344120699" lon="12.075061697750902"><ele>-1.0</ele><time>2026-03-29T13:28:05.001Z</time></trkpt><trkpt lat="44.72156035132146" lon="12.074795446532725"><ele>-1.0</ele><time>2026-03-29T13:28:06.001Z</time></trkpt><trkpt lat="44.72158727182514" lon="12.074532378323509"><ele>-1.0</ele><time>2026-03-29T13:28:07.001Z</time></trkpt><trkpt lat="44.7216141290949" lon="12.074268495927623"><ele>-1.0</ele><time>2026-03-29T13:28:08.001Z</time></trkpt><trkpt lat="44.72164417001601" lon="12.074004076736593"><ele>-1.0</ele><time>2026-03-29T13:28:09.001Z</time></trkpt><trkpt lat="44.721685057475" lon="12.07373167607762"><ele>-1.0</ele><time>2026-03-29T13:28:10.001Z</time></trkpt><trkpt lat="44.721697836803244" lon="12.073474219049368"><ele>-1.0</ele><time>2026-03-29T13:28:11.001Z</time></trkpt><trkpt lat="44.721727258945805" lon="12.07321495715657"><ele>-1.0</ele><time>2026-03-29T13:28:12.001Z</time></trkpt><trkpt lat="44.721755153761734" lon="12.072954543888416"><ele>-1.0</ele><time>2026-03-29T13:28:13.001Z</time></trkpt><trkpt lat="44.72178315857873" lon="12.072686894500274"><ele>-1.0</ele><time>2026-03-29T13:28:14.001Z</time></trkpt><trkpt lat="44.72181048201452" lon="12.07242863921211"><ele>-1.0</ele><time>2026-03-29T13:28:15.001Z</time></trkpt><trkpt lat="44.72183461989952" lon="12.072164573007624"><ele>-1.0</ele><time>2026-03-29T13:28:16.001Z</time></trkpt><trkpt lat="44.721860482711485" lon="12.071902963198799"><ele>-1.0</ele><time>2026-03-29T13:28:17.001Z</time></trkpt><trkpt lat="44.72189035412274" lon="12.071642865041683"><ele>-1.6666666666666665</ele><time>2026-03-29T13:28:18.001Z</time></trkpt><trkpt lat="44.72191991548771" lon="12.071379012817113"><ele>-2.3333333333333335</ele><time>2026-03-29T13:28:19.001Z</time></trkpt><trkpt lat="44.721950316777736" lon="12.07111236081112"><ele>-3.0</ele><time>2026-03-29T13:28:20.001Z</time></trkpt><trkpt lat="44.72197939108476" lon="12.070847667919029"><ele>-2.6666666666666665</ele><time>2026-03-29T13:28:21.001Z</time></trkpt><trkpt lat="44.72200590891922" lon="12.07058041885598"><ele>-2.333333333333333</ele><time>2026-03-29T13:28:22.001Z</time></trkpt><trkpt lat="44.72203342553104" lon="12.070310789369957"><ele>-2.0</ele><time>2026-03-29T13:28:23.001Z</time></trkpt><trkpt lat="44.72206340972914" lon="12.070045117679669"><ele>-2.333333333333333</ele><time>2026-03-29T13:28:24.001Z</time></trkpt><trkpt lat="44.7220932439633" lon="12.069779168618622"><ele>-2.6666666666666665</ele><time>2026-03-29T13:28:25.001Z</time></trkpt><trkpt lat="44.72211713233763" lon="12.069511557646766"><ele>-3.0</ele><time>2026-03-29T13:28:26.001Z</time></trkpt><trkpt lat="44.72214625391817" lon="12.069245859414865"><ele>-3.333333333333333</ele><time>2026-03-29T13:28:27.001Z</time></trkpt><trkpt lat="44.72217498708131" lon="12.0689802268932"><ele>-3.6666666666666665</ele><time>2026-03-29T13:28:28.001Z</time></trkpt><trkpt lat="44.72220642821361" lon="12.06872130758309"><ele>-4.0</ele><time>2026-03-29T13:28:29.001Z</time></trkpt><trkpt lat="44.7222347331805" lon="12.068460491296696"><ele>-3.333333333333333</ele><time>2026-03-29T13:28:30.001Z</time></trkpt><trkpt lat="44.72226527968354" lon="12.068201703753848"><ele>-2.6666666666666665</ele><time>2026-03-29T13:28:31.001Z</time></trkpt><trkpt lat="44.722294209744874" lon="12.067942152651511"><ele>-2.0</ele><time>2026-03-29T13:28:32.001Z</time></trkpt><trkpt lat="44.722322180133276" lon="12.067683083883688"><ele>-1.3333333333333333</ele><time>2026-03-29T13:28:33.001Z</time></trkpt><trkpt lat="44.72234968328931" lon="12.067417809513117"><ele>-0.6666666666666666</ele><time>2026-03-29T13:28:34.001Z</time></trkpt><trkpt lat="44.722378360146244" lon="12.06716134234403"><ele>0.0</ele><time>2026-03-29T13:28:35.001Z</time></trkpt><trkpt lat="44.72240488581142" lon="12.066902423794138"><ele>0.0</ele><time>2026-03-29T13:28:36.001Z</time></trkpt><trkpt lat="44.722432688195774" lon="12.06664211573971"><ele>0.0</ele><time>2026-03-29T13:28:37.001Z</time></trkpt><trkpt lat="44.722460164012034" lon="12.066377394309358"><ele>0.0</ele><time>2026-03-29T13:28:38.001Z</time></trkpt><trkpt lat="44.72248711086388" lon="12.06611082488237"><ele>0.0</ele><time>2026-03-29T13:28:39.001Z</time></trkpt><trkpt lat="44.722516502902145" lon="12.06584249186671"><ele>0.0</ele><time>2026-03-29T13:28:40.001Z</time></trkpt><trkpt lat="44.72254366850719" lon="12.065577137593058"><ele>0.0</ele><time>2026-03-29T13:28:41.001Z</time></trkpt><trkpt lat="44.72257168432938" lon="12.06531736966228"><ele>-0.3333333333333333</ele><time>2026-03-29T13:28:42.001Z</time></trkpt><trkpt lat="44.722598888629264" lon="12.065054127503588"><ele>-0.6666666666666666</ele><time>2026-03-29T13:28:43.001Z</time></trkpt><trkpt lat="44.72262426833114" lon="12.064793972494682"><ele>-1.0</ele><time>2026-03-29T13:28:44.001Z</time></trkpt><trkpt lat="44.72265122826037" lon="12.064534275404098"><ele>-1.3333333333333333</ele><time>2026-03-29T13:28:45.001Z</time></trkpt><trkpt lat="44.72267949252082" lon="12.064272271539163"><ele>-1.6666666666666665</ele><time>2026-03-29T13:28:46.001Z</time></trkpt><trkpt lat="44.72270718827733" lon="12.064009159101198"><ele>-2.0</ele><time>2026-03-29T13:28:47.001Z</time></trkpt><trkpt lat="44.72273518934495" lon="12.063750971355454"><ele>-2.333333333333333</ele><time>2026-03-29T13:28:48.001Z</time></trkpt><trkpt lat="44.722762357155645" lon="12.063485011613045"><ele>-2.6666666666666665</ele><time>2026-03-29T13:28:49.001Z</time></trkpt><trkpt lat="44.72279182416509" lon="12.063218268388109"><ele>-3.0</ele><time>2026-03-29T13:28:50.001Z</time></trkpt><trkpt lat="44.72282042062459" lon="12.062943065072016"><ele>-3.0</ele><time>2026-03-29T13:28:51.001Z</time></trkpt><trkpt lat="44.72284734836639" lon="12.062669820381965"><ele>-3.0</ele><time>2026-03-29T13:28:52.001Z</time></trkpt><trkpt lat="44.72287629318794" lon="12.06238973621737"><ele>-3.0</ele><time>2026-03-29T13:28:53.001Z</time></trkpt><trkpt lat="44.72290730126104" lon="12.062106333531975"><ele>-2.3333333333333335</ele><time>2026-03-29T13:28:54.001Z</time></trkpt><trkpt lat="44.72293834293499" lon="12.061823059922512"><ele>-1.6666666666666665</ele><time>2026-03-29T13:28:55.001Z</time></trkpt><trkpt lat="44.722967548001925" lon="12.061545812808376"><ele>-1.0</ele><time>2026-03-29T13:28:56.001Z</time></trkpt><trkpt lat="44.722996852595166" lon="12.061263107927749"><ele>-1.0</ele><time>2026-03-29T13:28:57.001Z</time></trkpt><trkpt lat="44.723022623400325" lon="12.060989386593944"><ele>-1.0</ele><time>2026-03-29T13:28:58.001Z</time></trkpt><trkpt lat="44.72304869676218" lon="12.060740806593387"><ele>-1.0</ele><time>2026-03-29T13:28:59.001Z</time></trkpt><trkpt lat="44.723073967042296" lon="12.060506255204878"><ele>-1.3333333333333333</ele><time>2026-03-29T13:29:00.001Z</time></trkpt><trkpt lat="44.723095841538985" lon="12.060279977118592"><ele>-1.6666666666666665</ele><time>2026-03-29T13:29:01.001Z</time></trkpt><trkpt lat="44.72311815455892" lon="12.060060942856886"><ele>-2.0</ele><time>2026-03-29T13:29:02.001Z</time></trkpt><trkpt lat="44.72314276201211" lon="12.0598339366311"><ele>-2.333333333333333</ele><time>2026-03-29T13:29:03.001Z</time></trkpt><trkpt lat="44.72316791988126" lon="12.05960201481033"><ele>-2.6666666666666665</ele><time>2026-03-29T13:29:04.001Z</time></trkpt><trkpt lat="44.72319015848106" lon="12.059373299193716"><ele>-3.0</ele><time>2026-03-29T13:29:05.001Z</time></trkpt><trkpt lat="44.72321604253935" lon="12.059137630401535"><ele>-2.3333333333333335</ele><time>2026-03-29T13:29:06.001Z</time></trkpt><trkpt lat="44.723239407766606" lon="12.058903289319558"><ele>-1.6666666666666665</ele><time>2026-03-29T13:29:07.001Z</time></trkpt><trkpt lat="44.72326411799045" lon="12.058667879510333"><ele>-1.0</ele><time>2026-03-29T13:29:08.001Z</time></trkpt><trkpt lat="44.72329066923198" lon="12.058424434340557"><ele>-1.3333333333333333</ele><time>2026-03-29T13:29:09.001Z</time></trkpt><trkpt lat="44.72331561652713" lon="12.058183854816983"><ele>-1.6666666666666665</ele><time>2026-03-29T13:29:10Z</time></trkpt><trkpt lat="44.723336642986894" lon="12.05794697114894"><ele>-2.0</ele><time>2026-03-29T13:29:11Z</time></trkpt><trkpt lat="44.723364380839165" lon="12.057695610012226"><ele>-1.3333333333333333</ele><time>2026-03-29T13:29:12Z</time></trkpt><trkpt lat="44.72339077786492" lon="12.05744246311479"><ele>-0.6666666666666666</ele><time>2026-03-29T13:29:13Z</time></trkpt><trkpt lat="44.72341852240328" lon="12.057191762192131"><ele>0.0</ele><time>2026-03-29T13:29:14Z</time></trkpt><trkpt lat="44.72344446878852" lon="12.056939139304063"><ele>0.0</ele><time>2026-03-29T13:29:15Z</time></trkpt><trkpt lat="44.72346935575046" lon="12.056691459323892"><ele>0.0</ele><time>2026-03-29T13:29:16Z</time></trkpt><trkpt lat="44.723494604052284" lon="12.056443006566077"><ele>0.0</ele><time>2026-03-29T13:29:17Z</time></trkpt><trkpt lat="44.723512066276946" lon="12.056183846679499"><ele>-0.3333333333333333</ele><time>2026-03-29T13:29:18Z</time></trkpt><trkpt lat="44.72354112898156" lon="12.055935635250098"><ele>-0.6666666666666666</ele><time>2026-03-29T13:29:19Z</time></trkpt><trkpt lat="44.723572153235885" lon="12.055691487071805"><ele>-1.0</ele><time>2026-03-29T13:29:20Z</time></trkpt><trkpt lat="44.723595781702215" lon="12.055439751353877"><ele>-1.0</ele><time>2026-03-29T13:29:21Z</time></trkpt><trkpt lat="44.72362235453171" lon="12.055190223385981"><ele>-1.0</ele><time>2026-03-29T13:29:22Z</time></trkpt><trkpt lat="44.723661221526676" lon="12.05494585802656"><ele>-1.0</ele><time>2026-03-29T13:29:23Z</time></trkpt><trkpt lat="44.723710739056166" lon="12.054704541144421"><ele>-1.3333333333333333</ele><time>2026-03-29T13:29:24Z</time></trkpt><trkpt lat="44.723770282473176" lon="12.054472371241403"><ele>-1.6666666666666665</ele><time>2026-03-29T13:29:25Z</time></trkpt><trkpt lat="44.72385194979377" lon="12.054262193702783"><ele>-2.0</ele><time>2026-03-29T13:29:26Z</time></trkpt><trkpt lat="44.72394944540856" lon="12.05408496416266"><ele>-1.5</ele><time>2026-03-29T13:29:27Z</time></trkpt><trkpt lat="44.72404424094128" lon="12.053920769765448"><ele>-1.0</ele><time>2026-03-29T13:29:28Z</time></trkpt><trkpt lat="44.72412915334855" lon="12.053767742715303"><ele>-0.5</ele><time>2026-03-29T13:29:29Z</time></trkpt><trkpt lat="44.72420617905955" lon="12.053618194568934"><ele>0.0</ele><time>2026-03-29T13:29:30Z</time></trkpt><trkpt lat="44.72428238420149" lon="12.053466725362739"><ele>0.0</ele><time>2026-03-29T13:29:31Z</time></trkpt><trkpt lat="44.72435857415026" lon="12.053321013886483"><ele>0.0</ele><time>2026-03-29T13:29:32Z</time></trkpt><trkpt lat="44.72444038386105" lon="12.053166776323563"><ele>0.0</ele><time>2026-03-29T13:29:33Z</time></trkpt><trkpt lat="44.72451657813102" lon="12.05301601575661"><ele>0.0</ele><time>2026-03-29T13:29:34Z</time></trkpt><trkpt lat="44.724593955656594" lon="12.052866106919872"><ele>0.25</ele><time>2026-03-29T13:29:35Z</time></trkpt><trkpt lat="44.72466967262118" lon="12.05272090241085"><ele>0.5</ele><time>2026-03-29T13:29:36Z</time></trkpt><trkpt lat="44.72474144419148" lon="12.052576983128688"><ele>0.75</ele><time>2026-03-29T13:29:37Z</time></trkpt><trkpt lat="44.72481885017382" lon="12.052437330452138"><ele>1.0</ele><time>2026-03-29T13:29:38Z</time></trkpt><trkpt lat="44.72489098408965" lon="12.052297505263729"><ele>1.0</ele><time>2026-03-29T13:29:39Z</time></trkpt><trkpt lat="44.72495210188178" lon="12.052172960037263"><ele>1.0</ele><time>2026-03-29T13:29:40Z</time></trkpt><trkpt lat="44.72502002837754" lon="12.052048643651611"><ele>1.0</ele><time>2026-03-29T13:29:41Z</time></trkpt><trkpt lat="44.725088328901016" lon="12.051924226609643"><ele>1.0</ele><time>2026-03-29T13:29:42Z</time></trkpt><trkpt lat="44.72515890065777" lon="12.051792427395444"><ele>1.0</ele><time>2026-03-29T13:29:43Z</time></trkpt><trkpt lat="44.7252276266583" lon="12.051659294305209"><ele>0.75</ele><time>2026-03-29T13:29:44Z</time></trkpt><trkpt lat="44.72529840718455" lon="12.051514945571935"><ele>0.5</ele><time>2026-03-29T13:29:45Z</time></trkpt><trkpt lat="44.72537238324775" lon="12.051372385743944"><ele>0.25</ele><time>2026-03-29T13:29:46Z</time></trkpt><trkpt lat="44.725451174882785" lon="12.05122792269061"><ele>0.0</ele><time>2026-03-29T13:29:47Z</time></trkpt><trkpt lat="44.72553490502082" lon="12.051071523035143"><ele>0.0</ele><time>2026-03-29T13:29:48Z</time></trkpt><trkpt lat="44.72562089270246" lon="12.050905453186402"><ele>0.0</ele><time>2026-03-29T13:29:49Z</time></trkpt><trkpt lat="44.72570523551988" lon="12.05074344732689"><ele>0.0</ele><time>2026-03-29T13:29:50Z</time></trkpt><trkpt lat="44.72578863884233" lon="12.050584852940139"><ele>0.0</ele><time>2026-03-29T13:29:51Z</time></trkpt><trkpt lat="44.72586792336047" lon="12.050432411814917"><ele>0.0</ele><time>2026-03-29T13:29:52Z</time></trkpt><trkpt lat="44.725945631740736" lon="12.050286789575697"><ele>0.0</ele><time>2026-03-29T13:29:53Z</time></trkpt><trkpt lat="44.7260220029179" lon="12.050140089175978"><ele>0.0</ele><time>2026-03-29T13:29:54Z</time></trkpt><trkpt lat="44.72609147000821" lon="12.050004280530532"><ele>0.0</ele><time>2026-03-29T13:29:55Z</time></trkpt><trkpt lat="44.72616552832593" lon="12.049866304440386"><ele>-0.2</ele><time>2026-03-29T13:29:56Z</time></trkpt><trkpt lat="44.72623646362503" lon="12.049728568581209"><ele>-0.4</ele><time>2026-03-29T13:29:57Z</time></trkpt><trkpt lat="44.7263041917213" lon="12.049597690462846"><ele>-0.6000000000000001</ele><time>2026-03-29T13:29:58Z</time></trkpt><trkpt lat="44.72636914266986" lon="12.04947389869598"><ele>-0.8</ele><time>2026-03-29T13:29:59Z</time></trkpt><trkpt lat="44.72643036373064" lon="12.049357569421007"><ele>-1.0</ele><time>2026-03-29T13:30:00Z</time></trkpt><trkpt lat="44.726492008188025" lon="12.049236269149656"><ele>-1.0</ele><time>2026-03-29T13:30:01Z</time></trkpt><trkpt lat="44.726554666909955" lon="12.049111001111289"><ele>-1.0</ele><time>2026-03-29T13:30:02Z</time></trkpt><trkpt lat="44.72661569271424" lon="12.048989259760658"><ele>-1.0</ele><time>2026-03-29T13:30:03Z</time></trkpt><trkpt lat="44.72668036848085" lon="12.048868292120854"><ele>-1.0</ele><time>2026-03-29T13:30:04Z</time></trkpt><trkpt lat="44.72674861535868" lon="12.048748626824807"><ele>-1.0</ele><time>2026-03-29T13:30:05Z</time></trkpt><trkpt lat="44.726815486648086" lon="12.04862440777782"><ele>-1.0</ele><time>2026-03-29T13:30:06Z</time></trkpt><trkpt lat="44.726881291676825" lon="12.048493985324205"><ele>-1.0</ele><time>2026-03-29T13:30:07Z</time></trkpt><trkpt lat="44.72694903652745" lon="12.048360823697346"><ele>-1.0</ele><time>2026-03-29T13:30:08Z</time></trkpt><trkpt lat="44.72701679754958" lon="12.048223381416104"><ele>-1.0</ele><time>2026-03-29T13:30:09Z</time></trkpt><trkpt lat="44.72709168500586" lon="12.048092259849074"><ele>-0.5</ele><time>2026-03-29T13:30:10Z</time></trkpt><trkpt lat="44.72716215407861" lon="12.04795319620299"><ele>0.0</ele><time>2026-03-29T13:30:11Z</time></trkpt><trkpt lat="44.72723511593187" lon="12.047812506015704"><ele>0.5</ele><time>2026-03-29T13:30:12Z</time></trkpt><trkpt lat="44.72730939132717" lon="12.04766694055191"><ele>1.0</ele><time>2026-03-29T13:30:13Z</time></trkpt><trkpt lat="44.72738301027215" lon="12.047529062099255"><ele>1.0</ele><time>2026-03-29T13:30:14Z</time></trkpt><trkpt lat="44.727459721756695" lon="12.047382343323859"><ele>1.0</ele><time>2026-03-29T13:30:15Z</time></trkpt><trkpt lat="44.727536732851554" lon="12.047242282429085"><ele>1.0</ele><time>2026-03-29T13:30:16Z</time></trkpt><trkpt lat="44.72761578437216" lon="12.04710172908201"><ele>1.0</ele><time>2026-03-29T13:30:17Z</time></trkpt><trkpt lat="44.72768781418963" lon="12.046950543256145"><ele>1.0</ele><time>2026-03-29T13:30:18Z</time></trkpt><trkpt lat="44.72776334043284" lon="12.046805302000221"><ele>1.0</ele><time>2026-03-29T13:30:19Z</time></trkpt><trkpt lat="44.727838882991236" lon="12.046665843506547"><ele>1.0</ele><time>2026-03-29T13:30:20Z</time></trkpt><trkpt lat="44.727909192555884" lon="12.046514900904482"><ele>1.0</ele><time>2026-03-29T13:30:21Z</time></trkpt><trkpt lat="44.727978774052815" lon="12.046364547460175"><ele>1.0</ele><time>2026-03-29T13:30:22Z</time></trkpt><trkpt lat="44.728044096677614" lon="12.046215605492577"><ele>1.0</ele><time>2026-03-29T13:30:23Z</time></trkpt><trkpt lat="44.72810411819217" lon="12.046057374625128"><ele>1.0</ele><time>2026-03-29T13:30:24Z</time></trkpt><trkpt lat="44.72815570908073" lon="12.045890998938992"><ele>1.0</ele><time>2026-03-29T13:30:25Z</time></trkpt><trkpt lat="44.728210290386585" lon="12.04571887083058"><ele>0.75</ele><time>2026-03-29T13:30:26Z</time></trkpt><trkpt lat="44.728268130800856" lon="12.04555293146424"><ele>0.5</ele><time>2026-03-29T13:30:27Z</time></trkpt><trkpt lat="44.72832774769468" lon="12.045382699730018"><ele>0.25</ele><time>2026-03-29T13:30:28Z</time></trkpt><trkpt lat="44.72838416163561" lon="12.045215530440796"><ele>0.0</ele><time>2026-03-29T13:30:29Z</time></trkpt><trkpt lat="44.728440130128085" lon="12.045052435682118"><ele>0.0</ele><time>2026-03-29T13:30:30Z</time></trkpt><trkpt lat="44.728491169700824" lon="12.044903240407692"><ele>0.0</ele><time>2026-03-29T13:30:31Z</time></trkpt><trkpt lat="44.72854875458413" lon="12.044747480265622"><ele>0.0</ele><time>2026-03-29T13:30:32Z</time></trkpt><trkpt lat="44.72860742586562" lon="12.044583656061201"><ele>0.0</ele><time>2026-03-29T13:30:33Z</time></trkpt><trkpt lat="44.7286654691693" lon="12.044419239572946"><ele>-0.25</ele><time>2026-03-29T13:30:34Z</time></trkpt><trkpt lat="44.72872682074139" lon="12.044259454312423"><ele>-0.5</ele><time>2026-03-29T13:30:35Z</time></trkpt><trkpt lat="44.72878283641984" lon="12.04409435194018"><ele>-0.75</ele><time>2026-03-29T13:30:36Z</time></trkpt><trkpt lat="44.72884080825572" lon="12.043920806197345"><ele>-1.0</ele><time>2026-03-29T13:30:37Z</time></trkpt><trkpt lat="44.728889900706385" lon="12.043757904345638"><ele>-1.0</ele><time>2026-03-29T13:30:38Z</time></trkpt><trkpt lat="44.728941081831195" lon="12.043596160597623"><ele>-1.0</ele><time>2026-03-29T13:30:39Z</time></trkpt><trkpt lat="44.72899460442489" lon="12.043432044129641"><ele>-1.0</ele><time>2026-03-29T13:30:40Z</time></trkpt><trkpt lat="44.729048272563276" lon="12.043269503875958"><ele>-1.0</ele><time>2026-03-29T13:30:41Z</time></trkpt><trkpt lat="44.72910222442495" lon="12.043102704157965"><ele>-0.75</ele><time>2026-03-29T13:30:42Z</time></trkpt><trkpt lat="44.729159232934265" lon="12.04293205005827"><ele>-0.5</ele><time>2026-03-29T13:30:43Z</time></trkpt><trkpt lat="44.72922105830595" lon="12.042764396054572"><ele>-0.25</ele><time>2026-03-29T13:30:44Z</time></trkpt><trkpt lat="44.72927962940327" lon="12.0425970885434"><ele>0.0</ele><time>2026-03-29T13:30:45Z</time></trkpt><trkpt lat="44.72933659703704" lon="12.042428569650736"><ele>0.0</ele><time>2026-03-29T13:30:46Z</time></trkpt><trkpt lat="44.72938848630865" lon="12.042270455564061"><ele>0.0</ele><time>2026-03-29T13:30:47Z</time></trkpt><trkpt lat="44.72943764720638" lon="12.042114295433585"><ele>0.0</ele><time>2026-03-29T13:30:48Z</time></trkpt><trkpt lat="44.72949196755122" lon="12.04196081623504"><ele>0.0</ele><time>2026-03-29T13:30:49Z</time></trkpt><trkpt lat="44.72954310550646" lon="12.04180056574796"><ele>0.25</ele><time>2026-03-29T13:30:50Z</time></trkpt><trkpt lat="44.72960170346726" lon="12.041628150291317"><ele>0.5</ele><time>2026-03-29T13:30:51Z</time></trkpt><trkpt lat="44.72965957469615" lon="12.04145635204532"><ele>0.75</ele><time>2026-03-29T13:30:52.001Z</time></trkpt><trkpt lat="44.72972313316622" lon="12.041285964822208"><ele>1.0</ele><time>2026-03-29T13:30:53.001Z</time></trkpt><trkpt lat="44.72978711444083" lon="12.041103304079808"><ele>1.0</ele><time>2026-03-29T13:30:54.001Z</time></trkpt><trkpt lat="44.729845317895816" lon="12.04091651389527"><ele>1.0</ele><time>2026-03-29T13:30:55.001Z</time></trkpt><trkpt lat="44.72991083054987" lon="12.040728271739342"><ele>1.0</ele><time>2026-03-29T13:30:56.001Z</time></trkpt><trkpt lat="44.72997439851081" lon="12.040531995514502"><ele>1.0</ele><time>2026-03-29T13:30:57.001Z</time></trkpt><trkpt lat="44.73004514587414" lon="12.04033103591552"><ele>0.6666666666666666</ele><time>2026-03-29T13:30:58.001Z</time></trkpt><trkpt lat="44.73011360336121" lon="12.040135837948728"><ele>0.3333333333333333</ele><time>2026-03-29T13:30:59Z</time></trkpt><trkpt lat="44.730177571209964" lon="12.03994114420368"><ele>0.0</ele><time>2026-03-29T13:31:00Z</time></trkpt><trkpt lat="44.7302473667196" lon="12.039738788640905"><ele>-0.3333333333333333</ele><time>2026-03-29T13:31:01Z</time></trkpt><trkpt lat="44.73031677216757" lon="12.039528259990984"><ele>-0.6666666666666666</ele><time>2026-03-29T13:31:02Z</time></trkpt><trkpt lat="44.730392561222004" lon="12.039329130800153"><ele>-1.0</ele><time>2026-03-29T13:31:03Z</time></trkpt><trkpt lat="44.73046244564341" lon="12.039115899207724"><ele>-1.3333333333333333</ele><time>2026-03-29T13:31:04Z</time></trkpt><trkpt lat="44.730534233701434" lon="12.038907466675255"><ele>-1.6666666666666665</ele><time>2026-03-29T13:31:05Z</time></trkpt><trkpt lat="44.730609116022876" lon="12.038686067543088"><ele>-2.0</ele><time>2026-03-29T13:31:06Z</time></trkpt><trkpt lat="44.73068057590413" lon="12.038472535371215"><ele>-2.0</ele><time>2026-03-29T13:31:07Z</time></trkpt><trkpt lat="44.73075381530614" lon="12.03825977328738"><ele>-2.0</ele><time>2026-03-29T13:31:08Z</time></trkpt><trkpt lat="44.73082876153879" lon="12.03804601878091"><ele>-2.0</ele><time>2026-03-29T13:31:09Z</time></trkpt><trkpt lat="44.730904276490136" lon="12.037825705098294"><ele>-2.0</ele><time>2026-03-29T13:31:10Z</time></trkpt><trkpt lat="44.730982217350764" lon="12.037598868811436"><ele>-2.0</ele><time>2026-03-29T13:31:11Z</time></trkpt><trkpt lat="44.731057834498905" lon="12.037376519463908"><ele>-2.0</ele><time>2026-03-29T13:31:12Z</time></trkpt><trkpt lat="44.731124808418635" lon="12.037172283724919"><ele>-2.333333333333333</ele><time>2026-03-29T13:31:13Z</time></trkpt><trkpt lat="44.73119323079066" lon="12.036971023072004"><ele>-2.6666666666666665</ele><time>2026-03-29T13:31:14Z</time></trkpt><trkpt lat="44.73125952616407" lon="12.036769037911197"><ele>-3.0</ele><time>2026-03-29T13:31:15Z</time></trkpt><trkpt lat="44.73133259324139" lon="12.036562821482981"><ele>-3.0</ele><time>2026-03-29T13:31:16Z</time></trkpt><trkpt lat="44.731404440746005" lon="12.036354495650688"><ele>-3.0</ele><time>2026-03-29T13:31:17Z</time></trkpt><trkpt lat="44.731476684456105" lon="12.036141872662792"><ele>-3.0</ele><time>2026-03-29T13:31:18Z</time></trkpt><trkpt lat="44.73155032819989" lon="12.035924277712002"><ele>-3.333333333333333</ele><time>2026-03-29T13:31:19Z</time></trkpt><trkpt lat="44.73162435507559" lon="12.035708057976674"><ele>-3.6666666666666665</ele><time>2026-03-29T13:31:20Z</time></trkpt><trkpt lat="44.731699823442625" lon="12.035492663667938"><ele>-4.0</ele><time>2026-03-29T13:31:21Z</time></trkpt><trkpt lat="44.73177177404681" lon="12.035277247934156"><ele>-4.0</ele><time>2026-03-29T13:31:22Z</time></trkpt><trkpt lat="44.73184559772091" lon="12.035064490679659"><ele>-4.0</ele><time>2026-03-29T13:31:23Z</time></trkpt><trkpt lat="44.73192258512109" lon="12.03485786979192"><ele>-4.0</ele><time>2026-03-29T13:31:24Z</time></trkpt><trkpt lat="44.73199000537018" lon="12.034646541682012"><ele>-3.6666666666666665</ele><time>2026-03-29T13:31:25Z</time></trkpt><trkpt lat="44.73206166306217" lon="12.034429608544727"><ele>-3.333333333333333</ele><time>2026-03-29T13:31:26Z</time></trkpt><trkpt lat="44.732132836481185" lon="12.034208614488339"><ele>-3.0</ele><time>2026-03-29T13:31:27Z</time></trkpt><trkpt lat="44.73220711407559" lon="12.03399011251401"><ele>-3.0</ele><time>2026-03-29T13:31:28Z</time></trkpt><trkpt lat="44.73228170683615" lon="12.033771293830892"><ele>-3.0</ele><time>2026-03-29T13:31:29Z</time></trkpt><trkpt lat="44.7323525858601" lon="12.033553007265228"><ele>-3.0</ele><time>2026-03-29T13:31:30Z</time></trkpt><trkpt lat="44.732424657033484" lon="12.03333210208319"><ele>-2.6666666666666665</ele><time>2026-03-29T13:31:31Z</time></trkpt><trkpt lat="44.73249955721139" lon="12.033113116289964"><ele>-2.333333333333333</ele><time>2026-03-29T13:31:32Z</time></trkpt><trkpt lat="44.73257657566348" lon="12.032891530661441"><ele>-2.0</ele><time>2026-03-29T13:31:33Z</time></trkpt><trkpt lat="44.732650375232005" lon="12.032672457175137"><ele>-2.333333333333333</ele><time>2026-03-29T13:31:34Z</time></trkpt><trkpt lat="44.73272801772463" lon="12.032457744845582"><ele>-2.6666666666666665</ele><time>2026-03-29T13:31:35Z</time></trkpt><trkpt lat="44.732798104463626" lon="12.032237209636293"><ele>-3.0</ele><time>2026-03-29T13:31:36Z</time></trkpt><trkpt lat="44.73287178164267" lon="12.032016235362121"><ele>-3.0</ele><time>2026-03-29T13:31:37Z</time></trkpt><trkpt lat="44.73294580520571" lon="12.031801320227126"><ele>-3.0</ele><time>2026-03-29T13:31:38Z</time></trkpt><trkpt lat="44.73301771137104" lon="12.031574978132392"><ele>-3.0</ele><time>2026-03-29T13:31:39Z</time></trkpt><trkpt lat="44.73311264634963" lon="12.031342641996893"><ele>-2.3333333333333335</ele><time>2026-03-29T13:31:40Z</time></trkpt><trkpt lat="44.733198601730145" lon="12.031091972040477"><ele>-1.6666666666666665</ele><time>2026-03-29T13:31:41Z</time></trkpt><trkpt lat="44.733275330441046" lon="12.030868072730833"><ele>-1.0</ele><time>2026-03-29T13:31:42Z</time></trkpt><trkpt lat="44.73334856974094" lon="12.030654355758438"><ele>-0.3333333333333333</ele><time>2026-03-29T13:31:43Z</time></trkpt><trkpt lat="44.733420663903765" lon="12.030445764088588"><ele>0.3333333333333333</ele><time>2026-03-29T13:31:44Z</time></trkpt><trkpt lat="44.733494776284985" lon="12.030232393485246"><ele>1.0</ele><time>2026-03-29T13:31:45Z</time></trkpt><trkpt lat="44.73355296335659" lon="12.030017741391594"><ele>0.3333333333333333</ele><time>2026-03-29T13:31:46Z</time></trkpt><trkpt lat="44.733626099301624" lon="12.029810141712334"><ele>-0.3333333333333333</ele><time>2026-03-29T13:31:47Z</time></trkpt><trkpt lat="44.733716034360484" lon="12.029611719164064"><ele>-1.0</ele><time>2026-03-29T13:31:48Z</time></trkpt><trkpt lat="44.73379304766242" lon="12.029398146463807"><ele>-1.0</ele><time>2026-03-29T13:31:49Z</time></trkpt><trkpt lat="44.733867140332386" lon="12.029195312195105"><ele>-1.0</ele><time>2026-03-29T13:31:50Z</time></trkpt><trkpt lat="44.733944473345794" lon="12.028984845473893"><ele>-1.0</ele><time>2026-03-29T13:31:51Z</time></trkpt><trkpt lat="44.73402309674794" lon="12.02877086695977"><ele>-1.0</ele><time>2026-03-29T13:31:52Z</time></trkpt><trkpt lat="44.73409927788111" lon="12.028561832654654"><ele>-1.0</ele><time>2026-03-29T13:31:53Z</time></trkpt><trkpt lat="44.73417567964836" lon="12.028351559435743"><ele>-1.0</ele><time>2026-03-29T13:31:54Z</time></trkpt><trkpt lat="44.73425298218488" lon="12.028138807089844"><ele>-1.0</ele><time>2026-03-29T13:31:55Z</time></trkpt><trkpt lat="44.734330424103334" lon="12.027925671257945"><ele>-1.0</ele><time>2026-03-29T13:31:56Z</time></trkpt><trkpt lat="44.73439407008577" lon="12.027704436375123"><ele>-1.0</ele><time>2026-03-29T13:31:57Z</time></trkpt><trkpt lat="44.73446956737622" lon="12.027500872504726"><ele>-1.0</ele><time>2026-03-29T13:31:58Z</time></trkpt><trkpt lat="44.73453738741054" lon="12.027315858009155"><ele>-1.0</ele><time>2026-03-29T13:31:59Z</time></trkpt><trkpt lat="44.73460248024271" lon="12.027141793584802"><ele>-1.0</ele><time>2026-03-29T13:32:00Z</time></trkpt><trkpt lat="44.73466888901083" lon="12.026959874371242"><ele>-1.0</ele><time>2026-03-29T13:32:01Z</time></trkpt><trkpt lat="44.73473693686831" lon="12.02677922163621"><ele>-0.5</ele><time>2026-03-29T13:32:02Z</time></trkpt><trkpt lat="44.73480223797306" lon="12.026606886943298"><ele>0.0</ele><time>2026-03-29T13:32:03Z</time></trkpt><trkpt lat="44.73486692387199" lon="12.02643887895704"><ele>0.5</ele><time>2026-03-29T13:32:04Z</time></trkpt><trkpt lat="44.73492943278197" lon="12.026254968040096"><ele>1.0</ele><time>2026-03-29T13:32:05Z</time></trkpt><trkpt lat="44.73499557947686" lon="12.026067842344197"><ele>1.0</ele><time>2026-03-29T13:32:06Z</time></trkpt><trkpt lat="44.735068272705576" lon="12.0258641102352"><ele>1.0</ele><time>2026-03-29T13:32:07Z</time></trkpt><trkpt lat="44.73514268179947" lon="12.025661977502217"><ele>1.0</ele><time>2026-03-29T13:32:08Z</time></trkpt><trkpt lat="44.7352112798877" lon="12.025454776057574"><ele>1.0</ele><time>2026-03-29T13:32:09Z</time></trkpt><trkpt lat="44.73527675870502" lon="12.025248301070544"><ele>1.0</ele><time>2026-03-29T13:32:10Z</time></trkpt><trkpt lat="44.735342099023526" lon="12.025039749770617"><ele>1.0</ele><time>2026-03-29T13:32:11Z</time></trkpt><trkpt lat="44.73540595546951" lon="12.024825684785538"><ele>1.0</ele><time>2026-03-29T13:32:12Z</time></trkpt><trkpt lat="44.735474709188445" lon="12.024607280641495"><ele>1.0</ele><time>2026-03-29T13:32:13Z</time></trkpt><trkpt lat="44.73553762752784" lon="12.024388080683602"><ele>1.0</ele><time>2026-03-29T13:32:14Z</time></trkpt><trkpt lat="44.73561102322577" lon="12.024167953089917"><ele>1.0</ele><time>2026-03-29T13:32:15Z</time></trkpt><trkpt lat="44.735681914879656" lon="12.023941781923241"><ele>1.0</ele><time>2026-03-29T13:32:16Z</time></trkpt><trkpt lat="44.73575251805854" lon="12.023716707113847"><ele>1.0</ele><time>2026-03-29T13:32:17Z</time></trkpt><trkpt lat="44.73582280780559" lon="12.023492102468142"><ele>0.6666666666666666</ele><time>2026-03-29T13:32:18Z</time></trkpt><trkpt lat="44.7358953219082" lon="12.023271889539348"><ele>0.3333333333333333</ele><time>2026-03-29T13:32:19Z</time></trkpt><trkpt lat="44.73596943282906" lon="12.023061284463328"><ele>0.0</ele><time>2026-03-29T13:32:20Z</time></trkpt><trkpt lat="44.736048506362515" lon="12.022852419748483"><ele>-0.3333333333333333</ele><time>2026-03-29T13:32:21Z</time></trkpt><trkpt lat="44.736131523804275" lon="12.022659479456722"><ele>-0.6666666666666666</ele><time>2026-03-29T13:32:22Z</time></trkpt><trkpt lat="44.73621961855717" lon="12.022466718344008"><ele>-1.0</ele><time>2026-03-29T13:32:23Z</time></trkpt><trkpt lat="44.736323207086976" lon="12.022294720245734"><ele>-0.75</ele><time>2026-03-29T13:32:24Z</time></trkpt><trkpt lat="44.73639613221779" lon="12.022108858863923"><ele>-0.5</ele><time>2026-03-29T13:32:25Z</time></trkpt><trkpt lat="44.73648048003488" lon="12.021948142229693"><ele>-0.25</ele><time>2026-03-29T13:32:26Z</time></trkpt><trkpt lat="44.73656513311096" lon="12.021779237411158"><ele>0.0</ele><time>2026-03-29T13:32:27Z</time></trkpt><trkpt lat="44.73665143603767" lon="12.021610022178315"><ele>0.0</ele><time>2026-03-29T13:32:28Z</time></trkpt><trkpt lat="44.736738610444704" lon="12.021442916480956"><ele>0.0</ele><time>2026-03-29T13:32:29Z</time></trkpt><trkpt lat="44.736832573731995" lon="12.021259711068469"><ele>0.0</ele><time>2026-03-29T13:32:30Z</time></trkpt><trkpt lat="44.73692199336307" lon="12.021086361817467"><ele>-0.3333333333333333</ele><time>2026-03-29T13:32:31Z</time></trkpt><trkpt lat="44.73700994427628" lon="12.020914216511548"><ele>-0.6666666666666666</ele><time>2026-03-29T13:32:32Z</time></trkpt><trkpt lat="44.7370976719012" lon="12.020743721765818"><ele>-1.0</ele><time>2026-03-29T13:32:33Z</time></trkpt><trkpt lat="44.737183440643626" lon="12.020568144670468"><ele>-1.3333333333333333</ele><time>2026-03-29T13:32:34Z</time></trkpt><trkpt lat="44.73727261428759" lon="12.020398146474554"><ele>-1.6666666666666665</ele><time>2026-03-29T13:32:35Z</time></trkpt><trkpt lat="44.73736684351738" lon="12.02023583992155"><ele>-2.0</ele><time>2026-03-29T13:32:36Z</time></trkpt><trkpt lat="44.737458300399304" lon="12.020057769824534"><ele>-1.3333333333333333</ele><time>2026-03-29T13:32:37Z</time></trkpt><trkpt lat="44.737542248562235" lon="12.019888013464236"><ele>-0.6666666666666666</ele><time>2026-03-29T13:32:38Z</time></trkpt><trkpt lat="44.73763099418411" lon="12.019713319536052"><ele>0.0</ele><time>2026-03-29T13:32:39Z</time></trkpt><trkpt lat="44.737717851523264" lon="12.019533552632378"><ele>0.25</ele><time>2026-03-29T13:32:40Z</time></trkpt><trkpt lat="44.737806233635155" lon="12.019357733229947"><ele>0.5</ele><time>2026-03-29T13:32:41Z</time></trkpt><trkpt lat="44.7378933220734" lon="12.019187969573098"><ele>0.75</ele><time>2026-03-29T13:32:42Z</time></trkpt><trkpt lat="44.737984241612516" lon="12.019024974096709"><ele>1.0</ele><time>2026-03-29T13:32:43Z</time></trkpt><trkpt lat="44.7380696533159" lon="12.018863403571075"><ele>1.0</ele><time>2026-03-29T13:32:44Z</time></trkpt><trkpt lat="44.73814956788983" lon="12.018700824932665"><ele>1.0</ele><time>2026-03-29T13:32:45Z</time></trkpt><trkpt lat="44.73823067750101" lon="12.018530128721217"><ele>1.0</ele><time>2026-03-29T13:32:46Z</time></trkpt><trkpt lat="44.738320375000264" lon="12.018354786131098"><ele>1.0</ele><time>2026-03-29T13:32:47Z</time></trkpt><trkpt lat="44.73841738577152" lon="12.018174508016072"><ele>0.3333333333333333</ele><time>2026-03-29T13:32:48Z</time></trkpt><trkpt lat="44.73851022670956" lon="12.017986673064746"><ele>-0.3333333333333333</ele><time>2026-03-29T13:32:49Z</time></trkpt><trkpt lat="44.7386052492519" lon="12.017792866960832"><ele>-1.0</ele><time>2026-03-29T13:32:50Z</time></trkpt><trkpt lat="44.7386996150589" lon="12.017608337952352"><ele>-1.0</ele><time>2026-03-29T13:32:51Z</time></trkpt><trkpt lat="44.73878524938145" lon="12.017439821336612"><ele>-1.0</ele><time>2026-03-29T13:32:52Z</time></trkpt><trkpt lat="44.73886316445082" lon="12.017282780285264"><ele>-1.0</ele><time>2026-03-29T13:32:53Z</time></trkpt><trkpt lat="44.73893771274364" lon="12.01713240577719"><ele>-1.0</ele><time>2026-03-29T13:32:54Z</time></trkpt><trkpt lat="44.73900660103893" lon="12.016995457411237"><ele>-1.0</ele><time>2026-03-29T13:32:55Z</time></trkpt><trkpt lat="44.73907736309569" lon="12.016859589665572"><ele>-1.0</ele><time>2026-03-29T13:32:56Z</time></trkpt><trkpt lat="44.73915135665884" lon="12.016711439357982"><ele>-1.0</ele><time>2026-03-29T13:32:57Z</time></trkpt><trkpt lat="44.73923555552899" lon="12.016549762492529"><ele>-1.0</ele><time>2026-03-29T13:32:58Z</time></trkpt><trkpt lat="44.73932766548037" lon="12.016374158870011"><ele>-1.0</ele><time>2026-03-29T13:32:59Z</time></trkpt><trkpt lat="44.73942134744074" lon="12.0161832898744"><ele>-1.0</ele><time>2026-03-29T13:33:00Z</time></trkpt><trkpt lat="44.73951346787837" lon="12.015997064661411"><ele>-1.0</ele><time>2026-03-29T13:33:01Z</time></trkpt><trkpt lat="44.739607400402846" lon="12.015811830102304"><ele>-1.0</ele><time>2026-03-29T13:33:02Z</time></trkpt><trkpt lat="44.73969257813307" lon="12.015610284650847"><ele>-1.0</ele><time>2026-03-29T13:33:03Z</time></trkpt><trkpt lat="44.73976636715663" lon="12.015394021471602"><ele>-1.0</ele><time>2026-03-29T13:33:04Z</time></trkpt><trkpt lat="44.73982027389543" lon="12.015165614159551"><ele>-0.3333333333333333</ele><time>2026-03-29T13:33:05Z</time></trkpt><trkpt lat="44.73986419369923" lon="12.014924831181242"><ele>0.3333333333333333</ele><time>2026-03-29T13:33:06Z</time></trkpt><trkpt lat="44.73989822318321" lon="12.014683029407763"><ele>1.0</ele><time>2026-03-29T13:33:07Z</time></trkpt><trkpt lat="44.73992435179881" lon="12.014443463856345"><ele>1.0</ele><time>2026-03-29T13:33:08Z</time></trkpt><trkpt lat="44.739942643749956" lon="12.014223508559754"><ele>1.0</ele><time>2026-03-29T13:33:09Z</time></trkpt><trkpt lat="44.739956203304125" lon="12.014017430868508"><ele>1.0</ele><time>2026-03-29T13:33:10Z</time></trkpt><trkpt lat="44.739967598562764" lon="12.013803547030944"><ele>1.3333333333333333</ele><time>2026-03-29T13:33:11Z</time></trkpt><trkpt lat="44.73998332958895" lon="12.013586684850008"><ele>1.6666666666666665</ele><time>2026-03-29T13:33:12Z</time></trkpt><trkpt lat="44.73999833770245" lon="12.013366345004034"><ele>2.0</ele><time>2026-03-29T13:33:13Z</time></trkpt><trkpt lat="44.740011458813576" lon="12.013138858862206"><ele>2.0</ele><time>2026-03-29T13:33:14Z</time></trkpt><trkpt lat="44.740017609909636" lon="12.012921187269324"><ele>2.0</ele><time>2026-03-29T13:33:15Z</time></trkpt><trkpt lat="44.74001570019018" lon="12.012709254075864"><ele>2.0</ele><time>2026-03-29T13:33:16Z</time></trkpt><trkpt lat="44.74000425155613" lon="12.012495184197876"><ele>1.75</ele><time>2026-03-29T13:33:17Z</time></trkpt><trkpt lat="44.73999005792618" lon="12.012283082643611"><ele>1.5</ele><time>2026-03-29T13:33:18Z</time></trkpt><trkpt lat="44.739975954804216" lon="12.012078512184766"><ele>1.25</ele><time>2026-03-29T13:33:19Z</time></trkpt><trkpt lat="44.73996320269797" lon="12.011874317482441"><ele>1.0</ele><time>2026-03-29T13:33:20Z</time></trkpt><trkpt lat="44.73994770101416" lon="12.011664889783956"><ele>0.0</ele><time>2026-03-29T13:33:21Z</time></trkpt><trkpt lat="44.7399331437007" lon="12.011454203191814"><ele>-1.0</ele><time>2026-03-29T13:33:22Z</time></trkpt><trkpt lat="44.739919134480324" lon="12.011240570702018"><ele>-2.0</ele><time>2026-03-29T13:33:23Z</time></trkpt><trkpt lat="44.739906161761695" lon="12.011037556631491"><ele>-3.0</ele><time>2026-03-29T13:33:24Z</time></trkpt><trkpt lat="44.73989431477124" lon="12.01084056072078"><ele>-2.75</ele><time>2026-03-29T13:33:25Z</time></trkpt><trkpt lat="44.73988400392773" lon="12.010645242021447"><ele>-2.5</ele><time>2026-03-29T13:33:26Z</time></trkpt><trkpt lat="44.73987584347277" lon="12.010449051845992"><ele>-2.25</ele><time>2026-03-29T13:33:27Z</time></trkpt><trkpt lat="44.73987774490146" lon="12.01025070365987"><ele>-2.0</ele><time>2026-03-29T13:33:28Z</time></trkpt><trkpt lat="44.73988401645956" lon="12.010056928803081"><ele>-2.0</ele><time>2026-03-29T13:33:29Z</time></trkpt><trkpt lat="44.7398943552559" lon="12.00985803710813"><ele>-2.0</ele><time>2026-03-29T13:33:30Z</time></trkpt><trkpt lat="44.73989875105386" lon="12.009649414292587"><ele>-2.0</ele><time>2026-03-29T13:33:31Z</time></trkpt><trkpt lat="44.73990398050421" lon="12.00944208956266"><ele>-2.0</ele><time>2026-03-29T13:33:32Z</time></trkpt><trkpt lat="44.73991171237861" lon="12.009231366334916"><ele>-1.6666666666666665</ele><time>2026-03-29T13:33:33Z</time></trkpt><trkpt lat="44.73992297205289" lon="12.009024545442324"><ele>-1.3333333333333333</ele><time>2026-03-29T13:33:34Z</time></trkpt><trkpt lat="44.739934275032056" lon="12.00880855430186"><ele>-1.0</ele><time>2026-03-29T13:33:35Z</time></trkpt><trkpt lat="44.739948758240786" lon="12.008596787819425"><ele>-1.0</ele><time>2026-03-29T13:33:36Z</time></trkpt><trkpt lat="44.73996266356712" lon="12.008380756484009"><ele>-1.0</ele><time>2026-03-29T13:33:37Z</time></trkpt><trkpt lat="44.739979208998975" lon="12.00817150183306"><ele>-1.0</ele><time>2026-03-29T13:33:38Z</time></trkpt><trkpt lat="44.739998546283616" lon="12.007966723664309"><ele>-1.0</ele><time>2026-03-29T13:33:39Z</time></trkpt><trkpt lat="44.74002096756166" lon="12.007758581914432"><ele>-1.0</ele><time>2026-03-29T13:33:40Z</time></trkpt><trkpt lat="44.74004725965121" lon="12.007551338573606"><ele>-1.0</ele><time>2026-03-29T13:33:41Z</time></trkpt><trkpt lat="44.74007715348061" lon="12.007342737011804"><ele>-1.0</ele><time>2026-03-29T13:33:42Z</time></trkpt><trkpt lat="44.7401055795487" lon="12.007139574795552"><ele>-1.0</ele><time>2026-03-29T13:33:43Z</time></trkpt><trkpt lat="44.74013609258213" lon="12.006938619031681"><ele>-1.0</ele><time>2026-03-29T13:33:44Z</time></trkpt><trkpt lat="44.740167276127366" lon="12.00674154247136"><ele>-1.0</ele><time>2026-03-29T13:33:45Z</time></trkpt><trkpt lat="44.74020187515297" lon="12.006544488101332"><ele>-1.0</ele><time>2026-03-29T13:33:46Z</time></trkpt><trkpt lat="44.74024103179707" lon="12.006348592909024"><ele>-1.0</ele><time>2026-03-29T13:33:47Z</time></trkpt><trkpt lat="44.74028637591813" lon="12.00615136009789"><ele>-1.0</ele><time>2026-03-29T13:33:48Z</time></trkpt><trkpt lat="44.740331830077466" lon="12.005959136652784"><ele>-1.0</ele><time>2026-03-29T13:33:49Z</time></trkpt><trkpt lat="44.7403730366997" lon="12.00575896576945"><ele>-1.0</ele><time>2026-03-29T13:33:50Z</time></trkpt><trkpt lat="44.74041513981685" lon="12.005558287053557"><ele>-1.0</ele><time>2026-03-29T13:33:51Z</time></trkpt><trkpt lat="44.74045516298989" lon="12.005358611473385"><ele>-1.0</ele><time>2026-03-29T13:33:52Z</time></trkpt><trkpt lat="44.740493605438786" lon="12.005154511174648"><ele>-1.0</ele><time>2026-03-29T13:33:53Z</time></trkpt><trkpt lat="44.740532662122405" lon="12.004950274757277"><ele>-1.0</ele><time>2026-03-29T13:33:54Z</time></trkpt><trkpt lat="44.74056920790496" lon="12.004748132390574"><ele>-1.0</ele><time>2026-03-29T13:33:55Z</time></trkpt><trkpt lat="44.74060586563727" lon="12.004542758264602"><ele>-1.0</ele><time>2026-03-29T13:33:56Z</time></trkpt><trkpt lat="44.74064199795646" lon="12.004348769056199"><ele>-1.0</ele><time>2026-03-29T13:33:57Z</time></trkpt><trkpt lat="44.74068012718066" lon="12.004151589317106"><ele>-1.0</ele><time>2026-03-29T13:33:58Z</time></trkpt><trkpt lat="44.74071544150584" lon="12.003951242029798"><ele>-1.0</ele><time>2026-03-29T13:33:59Z</time></trkpt><trkpt lat="44.74074996651587" lon="12.003758211599703"><ele>-1.0</ele><time>2026-03-29T13:34:00Z</time></trkpt><trkpt lat="44.74078548603302" lon="12.003559225080942"><ele>-1.0</ele><time>2026-03-29T13:34:01Z</time></trkpt><trkpt lat="44.74082157181999" lon="12.00336604021804"><ele>-0.5</ele><time>2026-03-29T13:34:02Z</time></trkpt><trkpt lat="44.74085716477028" lon="12.003169926455811"><ele>0.0</ele><time>2026-03-29T13:34:03Z</time></trkpt><trkpt lat="44.74089258147688" lon="12.00297339060835"><ele>0.5</ele><time>2026-03-29T13:34:04Z</time></trkpt><trkpt lat="44.7409298602569" lon="12.002776541457834"><ele>1.0</ele><time>2026-03-29T13:34:05Z</time></trkpt><trkpt lat="44.74096707295297" lon="12.002581033815607"><ele>0.75</ele><time>2026-03-29T13:34:06Z</time></trkpt><trkpt lat="44.741007272487415" lon="12.002380484387169"><ele>0.5</ele><time>2026-03-29T13:34:07Z</time></trkpt><trkpt lat="44.74104783187034" lon="12.002185018249397"><ele>0.25</ele><time>2026-03-29T13:34:08Z</time></trkpt><trkpt lat="44.741091729734" lon="12.001978432632576"><ele>0.0</ele><time>2026-03-29T13:34:09Z</time></trkpt><trkpt lat="44.741140683729654" lon="12.001761441860742"><ele>-0.3333333333333333</ele><time>2026-03-29T13:34:10Z</time></trkpt><trkpt lat="44.74118709461742" lon="12.00154547436566"><ele>-0.6666666666666666</ele><time>2026-03-29T13:34:11Z</time></trkpt><trkpt lat="44.74123254390125" lon="12.001335800398955"><ele>-1.0</ele><time>2026-03-29T13:34:12Z</time></trkpt><trkpt lat="44.74127674057991" lon="12.00114029975756"><ele>-1.0</ele><time>2026-03-29T13:34:13Z</time></trkpt><trkpt lat="44.74131930751396" lon="12.000938929921482"><ele>-1.0</ele><time>2026-03-29T13:34:14Z</time></trkpt><trkpt lat="44.741363811484014" lon="12.000739007129573"><ele>-1.0</ele><time>2026-03-29T13:34:15Z</time></trkpt><trkpt lat="44.741409355038655" lon="12.00053549123036"><ele>-0.6666666666666666</ele><time>2026-03-29T13:34:16Z</time></trkpt><trkpt lat="44.74145326190861" lon="12.000332553179225"><ele>-0.3333333333333333</ele><time>2026-03-29T13:34:17Z</time></trkpt><trkpt lat="44.74149485916954" lon="12.000127792392972"><ele>0.0</ele><time>2026-03-29T13:34:18Z</time></trkpt><trkpt lat="44.74153787028816" lon="11.999924148840323"><ele>0.0</ele><time>2026-03-29T13:34:19Z</time></trkpt><trkpt lat="44.74158195498308" lon="11.99972579675573"><ele>0.0</ele><time>2026-03-29T13:34:20Z</time></trkpt><trkpt lat="44.741626666816366" lon="11.999529905298267"><ele>0.0</ele><time>2026-03-29T13:34:21Z</time></trkpt><trkpt lat="44.74166856806156" lon="11.999338002935138"><ele>0.0</ele><time>2026-03-29T13:34:22Z</time></trkpt><trkpt lat="44.74170539783865" lon="11.999142802999163"><ele>0.0</ele><time>2026-03-29T13:34:23Z</time></trkpt><trkpt lat="44.741734895284495" lon="11.998949626898991"><ele>0.0</ele><time>2026-03-29T13:34:24Z</time></trkpt><trkpt lat="44.741760041293965" lon="11.998752080979111"><ele>0.0</ele><time>2026-03-29T13:34:25Z</time></trkpt><trkpt lat="44.74178118574566" lon="11.998556957323569"><ele>0.0</ele><time>2026-03-29T13:34:26Z</time></trkpt><trkpt lat="44.74180526727991" lon="11.998379091982448"><ele>0.0</ele><time>2026-03-29T13:34:27Z</time></trkpt><trkpt lat="44.74182994118157" lon="11.998195545204995"><ele>0.0</ele><time>2026-03-29T13:34:28Z</time></trkpt><trkpt lat="44.74185012466501" lon="11.998012430493102"><ele>0.0</ele><time>2026-03-29T13:34:29Z</time></trkpt><trkpt lat="44.74187329821913" lon="11.997828390597384"><ele>0.0</ele><time>2026-03-29T13:34:30Z</time></trkpt><trkpt lat="44.74190004578345" lon="11.997636942345032"><ele>-0.25</ele><time>2026-03-29T13:34:31Z</time></trkpt><trkpt lat="44.74192091295971" lon="11.997445631698822"><ele>-0.5</ele><time>2026-03-29T13:34:32Z</time></trkpt><trkpt lat="44.74194573114945" lon="11.997252670751202"><ele>-0.75</ele><time>2026-03-29T13:34:33Z</time></trkpt><trkpt lat="44.741974453348696" lon="11.997059701854214"><ele>-1.0</ele><time>2026-03-29T13:34:34Z</time></trkpt><trkpt lat="44.741998405689635" lon="11.996855836544881"><ele>-1.25</ele><time>2026-03-29T13:34:35Z</time></trkpt><trkpt lat="44.74202578226005" lon="11.996653671030025"><ele>-1.5</ele><time>2026-03-29T13:34:36Z</time></trkpt><trkpt lat="44.74205486708683" lon="11.996451498692942"><ele>-1.75</ele><time>2026-03-29T13:34:37Z</time></trkpt><trkpt lat="44.74207878978578" lon="11.996240501996072"><ele>-2.0</ele><time>2026-03-29T13:34:38Z</time></trkpt><trkpt lat="44.74210920987782" lon="11.99601285246476"><ele>-2.333333333333333</ele><time>2026-03-29T13:34:39Z</time></trkpt><trkpt lat="44.74214136439982" lon="11.995782379999442"><ele>-2.6666666666666665</ele><time>2026-03-29T13:34:40Z</time></trkpt><trkpt lat="44.7421701169242" lon="11.995556498791531"><ele>-3.0</ele><time>2026-03-29T13:34:41Z</time></trkpt><trkpt lat="44.74219504659913" lon="11.995343755056767"><ele>-3.0</ele><time>2026-03-29T13:34:42Z</time></trkpt><trkpt lat="44.74221988753458" lon="11.995120906168136"><ele>-3.0</ele><time>2026-03-29T13:34:43Z</time></trkpt><trkpt lat="44.74224704212082" lon="11.994899103031894"><ele>-3.0</ele><time>2026-03-29T13:34:44Z</time></trkpt><trkpt lat="44.74227030487441" lon="11.994680986914902"><ele>-3.0</ele><time>2026-03-29T13:34:45Z</time></trkpt><trkpt lat="44.74228800424943" lon="11.99446102734411"><ele>-3.0</ele><time>2026-03-29T13:34:46Z</time></trkpt><trkpt lat="44.74230628460309" lon="11.994242956115338"><ele>-3.0</ele><time>2026-03-29T13:34:47Z</time></trkpt><trkpt lat="44.74231568506631" lon="11.994023532371584"><ele>-3.333333333333333</ele><time>2026-03-29T13:34:48Z</time></trkpt><trkpt lat="44.74232703650209" lon="11.993807227276115"><ele>-3.6666666666666665</ele><time>2026-03-29T13:34:49Z</time></trkpt><trkpt lat="44.7423381343357" lon="11.99358986787059"><ele>-4.0</ele><time>2026-03-29T13:34:50Z</time></trkpt><trkpt lat="44.742351215436685" lon="11.993378094745774"><ele>-4.0</ele><time>2026-03-29T13:34:51Z</time></trkpt><trkpt lat="44.74236100888758" lon="11.993161663333979"><ele>-4.0</ele><time>2026-03-29T13:34:52Z</time></trkpt><trkpt lat="44.74237399887801" lon="11.992938201152832"><ele>-4.0</ele><time>2026-03-29T13:34:53Z</time></trkpt><trkpt lat="44.74238744445021" lon="11.992708769219037"><ele>-3.333333333333333</ele><time>2026-03-29T13:34:54Z</time></trkpt><trkpt lat="44.74240088807733" lon="11.99247059096175"><ele>-2.6666666666666665</ele><time>2026-03-29T13:34:55Z</time></trkpt><trkpt lat="44.74241381552466" lon="11.992242745974155"><ele>-2.0</ele><time>2026-03-29T13:34:56Z</time></trkpt><trkpt lat="44.74242600155267" lon="11.99201118337298"><ele>-2.0</ele><time>2026-03-29T13:34:57Z</time></trkpt><trkpt lat="44.742437386610135" lon="11.991784671492251"><ele>-2.0</ele><time>2026-03-29T13:34:58Z</time></trkpt><trkpt lat="44.74245238834033" lon="11.991554279921838"><ele>-2.0</ele><time>2026-03-29T13:34:59Z</time></trkpt><trkpt lat="44.74249090875362" lon="11.99133082469829"><ele>-2.0</ele><time>2026-03-29T13:35:00Z</time></trkpt><trkpt lat="44.742522017829856" lon="11.991110941776016"><ele>-2.0</ele><time>2026-03-29T13:35:01Z</time></trkpt><trkpt lat="44.742539498880355" lon="11.990893643670573"><ele>-2.0</ele><time>2026-03-29T13:35:02Z</time></trkpt><trkpt lat="44.74258058244201" lon="11.990681177207385"><ele>-2.0</ele><time>2026-03-29T13:35:03Z</time></trkpt><trkpt lat="44.742620971396306" lon="11.990469644535061"><ele>-2.0</ele><time>2026-03-29T13:35:04Z</time></trkpt><trkpt lat="44.74265454248249" lon="11.990267670924359"><ele>-2.0</ele><time>2026-03-29T13:35:05Z</time></trkpt><trkpt lat="44.74269040450489" lon="11.990061567120144"><ele>-1.6666666666666665</ele><time>2026-03-29T13:35:06Z</time></trkpt><trkpt lat="44.742731118376824" lon="11.989855035781884"><ele>-1.3333333333333333</ele><time>2026-03-29T13:35:07Z</time></trkpt><trkpt lat="44.74278296470005" lon="11.989654347495444"><ele>-1.0</ele><time>2026-03-29T13:35:08Z</time></trkpt><trkpt lat="44.742850218596594" lon="11.989466353651679"><ele>-1.0</ele><time>2026-03-29T13:35:09Z</time></trkpt><trkpt lat="44.74292929570572" lon="11.989290304217427"><ele>-1.0</ele><time>2026-03-29T13:35:10Z</time></trkpt><trkpt lat="44.74301461138758" lon="11.989111639438585"><ele>-1.0</ele><time>2026-03-29T13:35:11Z</time></trkpt><trkpt lat="44.74309597771513" lon="11.988926026167942"><ele>-1.3333333333333333</ele><time>2026-03-29T13:35:12Z</time></trkpt><trkpt lat="44.74317507086944" lon="11.988731713553028"><ele>-1.6666666666666665</ele><time>2026-03-29T13:35:13Z</time></trkpt><trkpt lat="44.74324562115092" lon="11.988531080336031"><ele>-2.0</ele><time>2026-03-29T13:35:14Z</time></trkpt><trkpt lat="44.743304346019436" lon="11.988330738866642"><ele>-2.0</ele><time>2026-03-29T13:35:15Z</time></trkpt><trkpt lat="44.74335229409526" lon="11.98813946626574"><ele>-2.0</ele><time>2026-03-29T13:35:16Z</time></trkpt><trkpt lat="44.74338930135315" lon="11.987952813258381"><ele>-2.0</ele><time>2026-03-29T13:35:17Z</time></trkpt><trkpt lat="44.74342509479637" lon="11.987763455708688"><ele>-2.0</ele><time>2026-03-29T13:35:18Z</time></trkpt><trkpt lat="44.7434620816295" lon="11.987574852297037"><ele>-1.75</ele><time>2026-03-29T13:35:19Z</time></trkpt><trkpt lat="44.74349672710508" lon="11.987383902254635"><ele>-1.5</ele><time>2026-03-29T13:35:20Z</time></trkpt><trkpt lat="44.74352809365117" lon="11.987193314604378"><ele>-1.25</ele><time>2026-03-29T13:35:21Z</time></trkpt><trkpt lat="44.7435597265444" lon="11.986996051053369"><ele>-1.0</ele><time>2026-03-29T13:35:22Z</time></trkpt><trkpt lat="44.74359832939258" lon="11.986795918970332"><ele>-1.0</ele><time>2026-03-29T13:35:23Z</time></trkpt><trkpt lat="44.74364590515241" lon="11.986600837368204"><ele>-1.0</ele><time>2026-03-29T13:35:24Z</time></trkpt><trkpt lat="44.74370118502667" lon="11.986405696546857"><ele>-1.0</ele><time>2026-03-29T13:35:25Z</time></trkpt><trkpt lat="44.74375789308163" lon="11.986209396657536"><ele>-1.0</ele><time>2026-03-29T13:35:26Z</time></trkpt><trkpt lat="44.743812319041815" lon="11.986011457938021"><ele>-0.75</ele><time>2026-03-29T13:35:27Z</time></trkpt><trkpt lat="44.7438668036626" lon="11.985815478407007"><ele>-0.5</ele><time>2026-03-29T13:35:28Z</time></trkpt><trkpt lat="44.74392104368086" lon="11.985622723485077"><ele>-0.25</ele><time>2026-03-29T13:35:29Z</time></trkpt><trkpt lat="44.743972624496585" lon="11.98543264254036"><ele>0.0</ele><time>2026-03-29T13:35:30Z</time></trkpt><trkpt lat="44.74401534313754" lon="11.985245800473997"><ele>0.0</ele><time>2026-03-29T13:35:31Z</time></trkpt><trkpt lat="44.744056215193844" lon="11.98504856259498"><ele>0.0</ele><time>2026-03-29T13:35:32Z</time></trkpt><trkpt lat="44.74409743458624" lon="11.984851789442953"><ele>0.0</ele><time>2026-03-29T13:35:33Z</time></trkpt><trkpt lat="44.74413572451908" lon="11.984658008713721"><ele>0.0</ele><time>2026-03-29T13:35:34Z</time></trkpt><trkpt lat="44.74417587526419" lon="11.984459274272488"><ele>0.0</ele><time>2026-03-29T13:35:35Z</time></trkpt><trkpt lat="44.744216802984965" lon="11.98425974778726"><ele>0.0</ele><time>2026-03-29T13:35:36Z</time></trkpt><trkpt lat="44.74426041985937" lon="11.984061529955357"><ele>0.0</ele><time>2026-03-29T13:35:37Z</time></trkpt><trkpt lat="44.74429984403016" lon="11.98386265877977"><ele>0.0</ele><time>2026-03-29T13:35:38Z</time></trkpt><trkpt lat="44.74433895082417" lon="11.983661946697719"><ele>-0.3333333333333333</ele><time>2026-03-29T13:35:39Z</time></trkpt><trkpt lat="44.74438328146504" lon="11.98345880054041"><ele>-0.6666666666666666</ele><time>2026-03-29T13:35:40Z</time></trkpt><trkpt lat="44.744427292056045" lon="11.983252611285609"><ele>-1.0</ele><time>2026-03-29T13:35:41Z</time></trkpt><trkpt lat="44.74447472102121" lon="11.983042120005088"><ele>-1.0</ele><time>2026-03-29T13:35:42Z</time></trkpt><trkpt lat="44.74452520992384" lon="11.982830151459316"><ele>-1.0</ele><time>2026-03-29T13:35:43Z</time></trkpt><trkpt lat="44.7445782015645" lon="11.982621553099733"><ele>-1.0</ele><time>2026-03-29T13:35:44Z</time></trkpt><trkpt lat="44.744630581007364" lon="11.982419892280719"><ele>-1.0</ele><time>2026-03-29T13:35:45Z</time></trkpt><trkpt lat="44.74468164956421" lon="11.982219259355848"><ele>-1.0</ele><time>2026-03-29T13:35:46Z</time></trkpt><trkpt lat="44.74473617888005" lon="11.982019379025692"><ele>-1.0</ele><time>2026-03-29T13:35:47Z</time></trkpt><trkpt lat="44.7447921537543" lon="11.981817371133591"><ele>-0.6666666666666666</ele><time>2026-03-29T13:35:48Z</time></trkpt><trkpt lat="44.744849324804285" lon="11.98160863596355"><ele>-0.3333333333333333</ele><time>2026-03-29T13:35:49Z</time></trkpt><trkpt lat="44.74490735188253" lon="11.981401417996103"><ele>0.0</ele><time>2026-03-29T13:35:50Z</time></trkpt><trkpt lat="44.74496815470448" lon="11.98119566262765"><ele>0.0</ele><time>2026-03-29T13:35:51Z</time></trkpt><trkpt lat="44.74502834557039" lon="11.980992655082963"><ele>0.0</ele><time>2026-03-29T13:35:52Z</time></trkpt><trkpt lat="44.745097985690535" lon="11.980801632597114"><ele>0.0</ele><time>2026-03-29T13:35:53Z</time></trkpt><trkpt lat="44.745168825414716" lon="11.98060612395422"><ele>0.0</ele><time>2026-03-29T13:35:54Z</time></trkpt><trkpt lat="44.74524439917194" lon="11.980406847795267"><ele>0.0</ele><time>2026-03-29T13:35:55Z</time></trkpt><trkpt lat="44.74532228531916" lon="11.980205420168286"><ele>0.0</ele><time>2026-03-29T13:35:56Z</time></trkpt><trkpt lat="44.74540118298366" lon="11.980007399388741"><ele>0.0</ele><time>2026-03-29T13:35:57Z</time></trkpt><trkpt lat="44.74547891485638" lon="11.979811437274696"><ele>0.0</ele><time>2026-03-29T13:35:58Z</time></trkpt><trkpt lat="44.74555941148341" lon="11.979611451192275"><ele>0.0</ele><time>2026-03-29T13:35:59Z</time></trkpt><trkpt lat="44.74563798805926" lon="11.979413309423528"><ele>0.0</ele><time>2026-03-29T13:36:00Z</time></trkpt><trkpt lat="44.74571702125823" lon="11.979214369542266"><ele>0.0</ele><time>2026-03-29T13:36:01Z</time></trkpt><trkpt lat="44.74579247483396" lon="11.979018159556873"><ele>0.0</ele><time>2026-03-29T13:36:02Z</time></trkpt><trkpt lat="44.74586926984774" lon="11.97881508510902"><ele>0.0</ele><time>2026-03-29T13:36:03Z</time></trkpt><trkpt lat="44.74594921552871" lon="11.97861954492383"><ele>0.0</ele><time>2026-03-29T13:36:04Z</time></trkpt><trkpt lat="44.746027287165774" lon="11.97842784686881"><ele>0.0</ele><time>2026-03-29T13:36:05Z</time></trkpt><trkpt lat="44.74610856192949" lon="11.97822648071108"><ele>0.0</ele><time>2026-03-29T13:36:06Z</time></trkpt><trkpt lat="44.746185756285115" lon="11.97802674951021"><ele>0.0</ele><time>2026-03-29T13:36:07Z</time></trkpt><trkpt lat="44.74626256145878" lon="11.977827202338197"><ele>0.0</ele><time>2026-03-29T13:36:08Z</time></trkpt><trkpt lat="44.74633744347388" lon="11.977628393390038"><ele>0.3333333333333333</ele><time>2026-03-29T13:36:09Z</time></trkpt><trkpt lat="44.74641421712427" lon="11.977435783738787"><ele>0.6666666666666666</ele><time>2026-03-29T13:36:10Z</time></trkpt><trkpt lat="44.74649823133507" lon="11.977230506579483"><ele>1.0</ele><time>2026-03-29T13:36:11Z</time></trkpt><trkpt lat="44.74657556024083" lon="11.977032719361175"><ele>1.0</ele><time>2026-03-29T13:36:12Z</time></trkpt><trkpt lat="44.74665704791195" lon="11.976832495496591"><ele>1.0</ele><time>2026-03-29T13:36:13Z</time></trkpt><trkpt lat="44.74673346342135" lon="11.976638943089796"><ele>1.0</ele><time>2026-03-29T13:36:14Z</time></trkpt><trkpt lat="44.74681124799934" lon="11.976443208700683"><ele>0.0</ele><time>2026-03-29T13:36:15Z</time></trkpt><trkpt lat="44.74688651740543" lon="11.976248435353142"><ele>-1.0</ele><time>2026-03-29T13:36:16Z</time></trkpt><trkpt lat="44.74695971754636" lon="11.976055905689678"><ele>-2.0</ele><time>2026-03-29T13:36:17Z</time></trkpt><trkpt lat="44.74703387766295" lon="11.975868484831818"><ele>-2.0</ele><time>2026-03-29T13:36:18Z</time></trkpt><trkpt lat="44.74711112304218" lon="11.975675518397551"><ele>-2.0</ele><time>2026-03-29T13:36:19Z</time></trkpt><trkpt lat="44.74718624236289" lon="11.975483634446745"><ele>-2.0</ele><time>2026-03-29T13:36:20Z</time></trkpt><trkpt lat="44.747261376274004" lon="11.975289483887407"><ele>-2.0</ele><time>2026-03-29T13:36:21Z</time></trkpt><trkpt lat="44.747336930034855" lon="11.975098027596236"><ele>-2.0</ele><time>2026-03-29T13:36:22Z</time></trkpt><trkpt lat="44.74741375054401" lon="11.974906316706706"><ele>-2.0</ele><time>2026-03-29T13:36:23Z</time></trkpt><trkpt lat="44.747487580056465" lon="11.974719524181147"><ele>-2.0</ele><time>2026-03-29T13:36:24Z</time></trkpt><trkpt lat="44.747561433467105" lon="11.974535829218546"><ele>-2.0</ele><time>2026-03-29T13:36:25Z</time></trkpt><trkpt lat="44.74764714774223" lon="11.974371456426278"><ele>-2.0</ele><time>2026-03-29T13:36:26Z</time></trkpt><trkpt lat="44.747718945759914" lon="11.974195408958318"><ele>-2.0</ele><time>2026-03-29T13:36:27Z</time></trkpt><trkpt lat="44.74778660615122" lon="11.974018424471181"><ele>-2.0</ele><time>2026-03-29T13:36:28Z</time></trkpt><trkpt lat="44.74783973519983" lon="11.973821815142104"><ele>-2.0</ele><time>2026-03-29T13:36:29Z</time></trkpt><trkpt lat="44.74790244079904" lon="11.973629608568595"><ele>-2.0</ele><time>2026-03-29T13:36:30Z</time></trkpt><trkpt lat="44.74794827500252" lon="11.973426309036624"><ele>-1.6666666666666665</ele><time>2026-03-29T13:36:31Z</time></trkpt><trkpt lat="44.747980660208746" lon="11.973209867018646"><ele>-1.3333333333333333</ele><time>2026-03-29T13:36:32Z</time></trkpt><trkpt lat="44.74801595649693" lon="11.972995933953099"><ele>-1.0</ele><time>2026-03-29T13:36:33Z</time></trkpt><trkpt lat="44.74803766663637" lon="11.972763836083884"><ele>-1.0</ele><time>2026-03-29T13:36:34Z</time></trkpt><trkpt lat="44.74805528857451" lon="11.972531233264926"><ele>-1.0</ele><time>2026-03-29T13:36:35Z</time></trkpt><trkpt lat="44.748071758064086" lon="11.972304892611831"><ele>-1.0</ele><time>2026-03-29T13:36:36Z</time></trkpt><trkpt lat="44.74808585171397" lon="11.972074561153908"><ele>-1.0</ele><time>2026-03-29T13:36:37Z</time></trkpt><trkpt lat="44.74809502351124" lon="11.971853562672488"><ele>-1.0</ele><time>2026-03-29T13:36:38Z</time></trkpt><trkpt lat="44.74809993467834" lon="11.971630426032918"><ele>-1.0</ele><time>2026-03-29T13:36:39Z</time></trkpt><trkpt lat="44.74809524983322" lon="11.971404231144737"><ele>-1.0</ele><time>2026-03-29T13:36:40Z</time></trkpt><trkpt lat="44.74806779173506" lon="11.971188499044095"><ele>-1.0</ele><time>2026-03-29T13:36:41Z</time></trkpt><trkpt lat="44.74804544766602" lon="11.970968255045554"><ele>-1.0</ele><time>2026-03-29T13:36:42Z</time></trkpt><trkpt lat="44.74803172582406" lon="11.970739924601734"><ele>-1.3333333333333333</ele><time>2026-03-29T13:36:43Z</time></trkpt><trkpt lat="44.74800287384851" lon="11.970513491874575"><ele>-1.6666666666666665</ele><time>2026-03-29T13:36:44Z</time></trkpt><trkpt lat="44.74797427556935" lon="11.970291471503085"><ele>-2.0</ele><time>2026-03-29T13:36:45Z</time></trkpt><trkpt lat="44.7479282207622" lon="11.970072029819052"><ele>-2.0</ele><time>2026-03-29T13:36:46Z</time></trkpt><trkpt lat="44.74791508165898" lon="11.969852506232563"><ele>-2.0</ele><time>2026-03-29T13:36:47Z</time></trkpt><trkpt lat="44.74788569286478" lon="11.969634567372363"><ele>-2.0</ele><time>2026-03-29T13:36:48Z</time></trkpt><trkpt lat="44.74784353667388" lon="11.969424173411435"><ele>-2.0</ele><time>2026-03-29T13:36:49Z</time></trkpt><trkpt lat="44.74781610636206" lon="11.969215828966245"><ele>-2.0</ele><time>2026-03-29T13:36:50Z</time></trkpt><trkpt lat="44.747787532874426" lon="11.968999817048632"><ele>-2.0</ele><time>2026-03-29T13:36:51Z</time></trkpt><trkpt lat="44.747759473523125" lon="11.968791589615254"><ele>-2.0</ele><time>2026-03-29T13:36:52Z</time></trkpt><trkpt lat="44.747729289486465" lon="11.96858516243018"><ele>-2.0</ele><time>2026-03-29T13:36:53Z</time></trkpt><trkpt lat="44.74769925089876" lon="11.968373859492313"><ele>-2.0</ele><time>2026-03-29T13:36:54Z</time></trkpt><trkpt lat="44.74766740426247" lon="11.968161393350233"><ele>-1.6666666666666665</ele><time>2026-03-29T13:36:55Z</time></trkpt><trkpt lat="44.7476360356143" lon="11.967950724500238"><ele>-1.3333333333333333</ele><time>2026-03-29T13:36:56Z</time></trkpt><trkpt lat="44.74760129694709" lon="11.967742408905723"><ele>-1.0</ele><time>2026-03-29T13:36:57Z</time></trkpt><trkpt lat="44.74756691684651" lon="11.967531041757782"><ele>-0.6666666666666666</ele><time>2026-03-29T13:36:58Z</time></trkpt><trkpt lat="44.747531476240994" lon="11.967320028991985"><ele>-0.3333333333333333</ele><time>2026-03-29T13:36:59Z</time></trkpt><trkpt lat="44.74749570557308" lon="11.967111921140674"><ele>0.0</ele><time>2026-03-29T13:37:00Z</time></trkpt><trkpt lat="44.747456444994164" lon="11.966901085243782"><ele>0.3333333333333333</ele><time>2026-03-29T13:37:01Z</time></trkpt><trkpt lat="44.74741942365818" lon="11.966689525514637"><ele>0.6666666666666666</ele><time>2026-03-29T13:37:02Z</time></trkpt><trkpt lat="44.747382318031974" lon="11.966474253540403"><ele>1.0</ele><time>2026-03-29T13:37:03Z</time></trkpt><trkpt lat="44.7473465968886" lon="11.966258747201039"><ele>1.0</ele><time>2026-03-29T13:37:04Z</time></trkpt><trkpt lat="44.74731034986041" lon="11.966047975286203"><ele>1.0</ele><time>2026-03-29T13:37:05Z</time></trkpt><trkpt lat="44.7472751670631" lon="11.96584267218725"><ele>1.0</ele><time>2026-03-29T13:37:06Z</time></trkpt><trkpt lat="44.74723876338876" lon="11.965635636836113"><ele>0.75</ele><time>2026-03-29T13:37:07Z</time></trkpt><trkpt lat="44.74720240841023" lon="11.965430829453274"><ele>0.5</ele><time>2026-03-29T13:37:08Z</time></trkpt><trkpt lat="44.7471671812714" lon="11.96522622425423"><ele>0.25</ele><time>2026-03-29T13:37:09Z</time></trkpt><trkpt lat="44.74713222541634" lon="11.965024492495465"><ele>0.0</ele><time>2026-03-29T13:37:10Z</time></trkpt><trkpt lat="44.74709689353728" lon="11.964818153800506"><ele>0.0</ele><time>2026-03-29T13:37:11Z</time></trkpt><trkpt lat="44.74705962107548" lon="11.964612862415091"><ele>0.0</ele><time>2026-03-29T13:37:12Z</time></trkpt><trkpt lat="44.74702538865664" lon="11.964415844488803"><ele>0.0</ele><time>2026-03-29T13:37:13Z</time></trkpt><trkpt lat="44.74699336432333" lon="11.96423355955955"><ele>0.0</ele><time>2026-03-29T13:37:14Z</time></trkpt><trkpt lat="44.74696000502341" lon="11.96404595902158"><ele>0.0</ele><time>2026-03-29T13:37:15Z</time></trkpt><trkpt lat="44.746926884677784" lon="11.96385809866264"><ele>0.0</ele><time>2026-03-29T13:37:16Z</time></trkpt><trkpt lat="44.7468908071656" lon="11.963657769952063"><ele>0.0</ele><time>2026-03-29T13:37:17Z</time></trkpt><trkpt lat="44.74685546426408" lon="11.963453544298394"><ele>0.0</ele><time>2026-03-29T13:37:18Z</time></trkpt><trkpt lat="44.74682201440765" lon="11.963245361224887"><ele>0.0</ele><time>2026-03-29T13:37:19Z</time></trkpt><trkpt lat="44.74678860262772" lon="11.96304088663366"><ele>0.0</ele><time>2026-03-29T13:37:20Z</time></trkpt><trkpt lat="44.74675336876338" lon="11.962836010771385"><ele>0.0</ele><time>2026-03-29T13:37:21Z</time></trkpt><trkpt lat="44.746718919485374" lon="11.962631986328645"><ele>0.0</ele><time>2026-03-29T13:37:22Z</time></trkpt><trkpt lat="44.74668464788915" lon="11.962429572747448"><ele>0.0</ele><time>2026-03-29T13:37:23Z</time></trkpt><trkpt lat="44.7466516318957" lon="11.962225994274878"><ele>0.0</ele><time>2026-03-29T13:37:24Z</time></trkpt><trkpt lat="44.74661641658409" lon="11.96202151130534"><ele>0.0</ele><time>2026-03-29T13:37:25Z</time></trkpt><trkpt lat="44.746583717515996" lon="11.961819140549208"><ele>0.0</ele><time>2026-03-29T13:37:26Z</time></trkpt><trkpt lat="44.746545999213396" lon="11.96161599196663"><ele>0.0</ele><time>2026-03-29T13:37:27Z</time></trkpt><trkpt lat="44.746517822581936" lon="11.961407963971888"><ele>0.0</ele><time>2026-03-29T13:37:28Z</time></trkpt><trkpt lat="44.746476635920594" lon="11.961202685224691"><ele>0.0</ele><time>2026-03-29T13:37:29Z</time></trkpt><trkpt lat="44.746438491912095" lon="11.960993898133056"><ele>0.0</ele><time>2026-03-29T13:37:30Z</time></trkpt><trkpt lat="44.74640136469354" lon="11.960784390357263"><ele>0.0</ele><time>2026-03-29T13:37:31Z</time></trkpt><trkpt lat="44.74636812661207" lon="11.96057487998203"><ele>0.0</ele><time>2026-03-29T13:37:32Z</time></trkpt><trkpt lat="44.74632841466083" lon="11.960368072465693"><ele>0.0</ele><time>2026-03-29T13:37:33Z</time></trkpt><trkpt lat="44.74629373093575" lon="11.960158956785452"><ele>0.0</ele><time>2026-03-29T13:37:34Z</time></trkpt><trkpt lat="44.74625687515161" lon="11.959948961592504"><ele>0.0</ele><time>2026-03-29T13:37:35Z</time></trkpt><trkpt lat="44.746219640888256" lon="11.95973807276678"><ele>-0.25</ele><time>2026-03-29T13:37:36Z</time></trkpt><trkpt lat="44.74618291454886" lon="11.959539013914057"><ele>-0.5</ele><time>2026-03-29T13:37:37Z</time></trkpt><trkpt lat="44.74615011027337" lon="11.959358415805067"><ele>-0.75</ele><time>2026-03-29T13:37:38Z</time></trkpt><trkpt lat="44.74611752874525" lon="11.959185897205987"><ele>-1.0</ele><time>2026-03-29T13:37:39Z</time></trkpt><trkpt lat="44.74608529836037" lon="11.95900521750859"><ele>-1.0</ele><time>2026-03-29T13:37:40Z</time></trkpt><trkpt lat="44.74604989426474" lon="11.958824300658154"><ele>-1.0</ele><time>2026-03-29T13:37:41Z</time></trkpt><trkpt lat="44.74600905362005" lon="11.958643145651115"><ele>-1.0</ele><time>2026-03-29T13:37:42Z</time></trkpt><trkpt lat="44.74596438543274" lon="11.958459219991397"><ele>-1.0</ele><time>2026-03-29T13:37:43Z</time></trkpt><trkpt lat="44.745914530101196" lon="11.958273433619413"><ele>-1.0</ele><time>2026-03-29T13:37:44Z</time></trkpt><trkpt lat="44.74585051474332" lon="11.958092094863453"><ele>-1.0</ele><time>2026-03-29T13:37:45Z</time></trkpt><trkpt lat="44.745766461758606" lon="11.957921412954956"><ele>-1.0</ele><time>2026-03-29T13:37:46Z</time></trkpt><trkpt lat="44.745668376577036" lon="11.957774166477277"><ele>-1.0</ele><time>2026-03-29T13:37:47Z</time></trkpt><trkpt lat="44.74557469063776" lon="11.957628429561806"><ele>-0.75</ele><time>2026-03-29T13:37:48Z</time></trkpt><trkpt lat="44.7455057174657" lon="11.957474329398607"><ele>-0.5</ele><time>2026-03-29T13:37:49Z</time></trkpt><trkpt lat="44.7454533883948" lon="11.957302301530234"><ele>-0.25</ele><time>2026-03-29T13:37:50Z</time></trkpt><trkpt lat="44.745415168160825" lon="11.95712450150422"><ele>0.0</ele><time>2026-03-29T13:37:51Z</time></trkpt><trkpt lat="44.74538993678975" lon="11.956932584138473"><ele>0.0</ele><time>2026-03-29T13:37:52Z</time></trkpt><trkpt lat="44.74536884077869" lon="11.956735335947272"><ele>0.0</ele><time>2026-03-29T13:37:53Z</time></trkpt><trkpt lat="44.7453680667908" lon="11.95653005821772"><ele>0.0</ele><time>2026-03-29T13:37:54Z</time></trkpt><trkpt lat="44.74533369863086" lon="11.956339150048038"><ele>0.0</ele><time>2026-03-29T13:37:55Z</time></trkpt><trkpt lat="44.74532249667973" lon="11.956161015279013"><ele>0.0</ele><time>2026-03-29T13:37:56Z</time></trkpt><trkpt lat="44.74532003476913" lon="11.956003874283581"><ele>0.0</ele><time>2026-03-29T13:37:57Z</time></trkpt><trkpt lat="44.74531026154413" lon="11.955844485816622"><ele>0.0</ele><time>2026-03-29T13:37:58Z</time></trkpt><trkpt lat="44.74530353912884" lon="11.955678594417583"><ele>0.0</ele><time>2026-03-29T13:37:59Z</time></trkpt><trkpt lat="44.74529573334231" lon="11.955507895561713"><ele>-0.25</ele><time>2026-03-29T13:38:00Z</time></trkpt><trkpt lat="44.745294799181046" lon="11.955340209818628"><ele>-0.5</ele><time>2026-03-29T13:38:01Z</time></trkpt><trkpt lat="44.74529148735259" lon="11.95516714830746"><ele>-0.75</ele><time>2026-03-29T13:38:02Z</time></trkpt><trkpt lat="44.74528803485419" lon="11.954993710705617"><ele>-1.0</ele><time>2026-03-29T13:38:03Z</time></trkpt><trkpt lat="44.745283554047454" lon="11.954813371586354"><ele>-1.0</ele><time>2026-03-29T13:38:04Z</time></trkpt><trkpt lat="44.745285133216974" lon="11.954634614966391"><ele>-1.0</ele><time>2026-03-29T13:38:05Z</time></trkpt><trkpt lat="44.745289984420964" lon="11.954454203366119"><ele>-1.0</ele><time>2026-03-29T13:38:06Z</time></trkpt><trkpt lat="44.74529191441354" lon="11.954264749878499"><ele>-1.0</ele><time>2026-03-29T13:38:07Z</time></trkpt><trkpt lat="44.74529941449716" lon="11.954066129613606"><ele>-0.75</ele><time>2026-03-29T13:38:08Z</time></trkpt><trkpt lat="44.74531118773789" lon="11.95387115729751"><ele>-0.5</ele><time>2026-03-29T13:38:09Z</time></trkpt><trkpt lat="44.74532450995542" lon="11.953685681172402"><ele>-0.25</ele><time>2026-03-29T13:38:10Z</time></trkpt><trkpt lat="44.74534455916511" lon="11.953506300116258"><ele>0.0</ele><time>2026-03-29T13:38:11Z</time></trkpt><trkpt lat="44.745374959899486" lon="11.953327217757938"><ele>0.0</ele><time>2026-03-29T13:38:12Z</time></trkpt><trkpt lat="44.74542025542596" lon="11.95315385660514"><ele>0.0</ele><time>2026-03-29T13:38:13Z</time></trkpt><trkpt lat="44.745475803158854" lon="11.953003999954442"><ele>0.0</ele><time>2026-03-29T13:38:14Z</time></trkpt><trkpt lat="44.74553733885634" lon="11.952867108377204"><ele>0.0</ele><time>2026-03-29T13:38:15Z</time></trkpt><trkpt lat="44.74561442911954" lon="11.952731288436116"><ele>0.0</ele><time>2026-03-29T13:38:16Z</time></trkpt><trkpt lat="44.74570311706681" lon="11.952607097350647"><ele>0.0</ele><time>2026-03-29T13:38:17Z</time></trkpt><trkpt lat="44.74579271881029" lon="11.95250971451154"><ele>0.0</ele><time>2026-03-29T13:38:18Z</time></trkpt><trkpt lat="44.74587771960222" lon="11.952424491536945"><ele>0.0</ele><time>2026-03-29T13:38:19Z</time></trkpt><trkpt lat="44.74595787651182" lon="11.952344607085852"><ele>0.0</ele><time>2026-03-29T13:38:20Z</time></trkpt><trkpt lat="44.74603129920888" lon="11.952276380827815"><ele>-0.3333333333333333</ele><time>2026-03-29T13:38:21Z</time></trkpt><trkpt lat="44.74611458551693" lon="11.952246109509144"><ele>-0.6666666666666666</ele><time>2026-03-29T13:38:22Z</time></trkpt><trkpt lat="44.746184272390515" lon="11.952202035822998"><ele>-1.0</ele><time>2026-03-29T13:38:23Z</time></trkpt><trkpt lat="44.74624985378102" lon="11.952163061545166"><ele>-1.3333333333333333</ele><time>2026-03-29T13:38:24Z</time></trkpt><trkpt lat="44.74630462248733" lon="11.952106485130448"><ele>-1.6666666666666665</ele><time>2026-03-29T13:38:25Z</time></trkpt><trkpt lat="44.74639768659259" lon="11.952076791068082"><ele>-2.0</ele><time>2026-03-29T13:38:27Z</time></trkpt><trkpt lat="44.746355654358595" lon="11.951869920245878"><ele>-2.0</ele><time>2026-03-29T13:38:28Z</time></trkpt><trkpt lat="44.74631680242244" lon="11.951780893510216"><ele>-2.0</ele><time>2026-03-29T13:38:29Z</time></trkpt><trkpt lat="44.74624340365073" lon="11.951702423426882"><ele>-2.0</ele><time>2026-03-29T13:38:30Z</time></trkpt><trkpt lat="44.74615106323776" lon="11.951644625245034"><ele>-2.0</ele><time>2026-03-29T13:38:31Z</time></trkpt><trkpt lat="44.74605687081763" lon="11.951586551167718"><ele>-2.0</ele><time>2026-03-29T13:38:32Z</time></trkpt><trkpt lat="44.745965464994846" lon="11.951522893221316"><ele>-1.8</ele><time>2026-03-29T13:38:33Z</time></trkpt><trkpt lat="44.74586374004696" lon="11.951449475299558"><ele>-1.6</ele><time>2026-03-29T13:38:34Z</time></trkpt><trkpt lat="44.74575295501929" lon="11.95138651622306"><ele>-1.4000000000000001</ele><time>2026-03-29T13:38:35Z</time></trkpt><trkpt lat="44.74565752308551" lon="11.951334033983843"><ele>-1.2000000000000002</ele><time>2026-03-29T13:38:36Z</time></trkpt><trkpt lat="44.74558265020856" lon="11.951266878686347"><ele>-1.0</ele><time>2026-03-29T13:38:37Z</time></trkpt><trkpt lat="44.74552694143708" lon="11.951184833081664"><ele>-0.9999999999999999</ele><time>2026-03-29T13:38:38Z</time></trkpt><trkpt lat="44.74547758341512" lon="11.951085019769367"><ele>-1.0</ele><time>2026-03-29T13:38:39Z</time></trkpt><trkpt lat="44.74542442156128" lon="11.950998672113622"><ele>-1.0</ele><time>2026-03-29T13:38:40Z</time></trkpt><trkpt lat="44.745365771168686" lon="11.95095215860781"><ele>-1.0</ele><time>2026-03-29T13:38:41Z</time></trkpt><trkpt lat="44.74529226606131" lon="11.950940872470985"><ele>-0.9999999999999999</ele><time>2026-03-29T13:38:42Z</time></trkpt><trkpt lat="44.745217809942616" lon="11.95096939540689"><ele>-1.0</ele><time>2026-03-29T13:38:43Z</time></trkpt><trkpt lat="44.745147499044755" lon="11.951029279939183"><ele>-0.75</ele><time>2026-03-29T13:38:44Z</time></trkpt><trkpt lat="44.74508277887887" lon="11.951119076016512"><ele>-0.5</ele><time>2026-03-29T13:38:45Z</time></trkpt><trkpt lat="44.74495013257885" lon="11.951109917980274"><ele>-0.25</ele><time>2026-03-29T13:38:46Z</time></trkpt><trkpt lat="44.744814317157285" lon="11.951114208010278"><ele>0.0</ele><time>2026-03-29T13:38:47Z</time></trkpt><trkpt lat="44.74468030425245" lon="11.95111844110239"><ele>0.0</ele><time>2026-03-29T13:38:48Z</time></trkpt><trkpt lat="44.74450449811658" lon="11.951123994318879"><ele>0.0</ele><time>2026-03-29T13:38:49Z</time></trkpt><trkpt lat="44.7443069566906" lon="11.951130915687713"><ele>0.0</ele><time>2026-03-29T13:38:50Z</time></trkpt><trkpt lat="44.74413000426781" lon="11.951148251050794"><ele>-0.5</ele><time>2026-03-29T13:38:51Z</time></trkpt><trkpt lat="44.74397652720383" lon="11.95115353604631"><ele>-1.0</ele><time>2026-03-29T13:38:52Z</time></trkpt><trkpt lat="44.743844444419985" lon="11.95116072823415"><ele>-1.5</ele><time>2026-03-29T13:38:53Z</time></trkpt><trkpt lat="44.74371985643883" lon="11.951159994238594"><ele>-2.0</ele><time>2026-03-29T13:38:54Z</time></trkpt><trkpt lat="44.743601806281575" lon="11.951128076772585"><ele>-2.4000000000000004</ele><time>2026-03-29T13:38:55Z</time></trkpt><trkpt lat="44.74349333049802" lon="11.951100745801034"><ele>-2.8000000000000003</ele><time>2026-03-29T13:38:56Z</time></trkpt><trkpt lat="44.74340833032977" lon="11.951068821090209"><ele>-3.2</ele><time>2026-03-29T13:38:57Z</time></trkpt><trkpt lat="44.7433418159779" lon="11.951062432831113"><ele>-3.6</ele><time>2026-03-29T13:38:58Z</time></trkpt><trkpt lat="44.743266577139295" lon="11.95100800107388"><ele>-4.0</ele><time>2026-03-29T13:39:00Z</time></trkpt><trkpt lat="44.74321468849438" lon="11.95118102336581"><ele>-3.9999999999999996</ele><time>2026-03-29T13:39:02Z</time></trkpt><trkpt lat="44.74326694941946" lon="11.951328083855953"><ele>-4.0</ele><time>2026-03-29T13:39:04Z</time></trkpt><trkpt lat="44.74329943468783" lon="11.951414384688313"><ele>-4.0</ele><time>2026-03-29T13:39:05Z</time></trkpt><trkpt lat="44.74333494197889" lon="11.951516484823761"><ele>-4.0</ele><time>2026-03-29T13:39:06Z</time></trkpt><trkpt lat="44.743367698495206" lon="11.951616337057864"><ele>-3.9999999999999996</ele><time>2026-03-29T13:39:07Z</time></trkpt><trkpt lat="44.74340211885258" lon="11.951720497361244"><ele>-4.0</ele><time>2026-03-29T13:39:08Z</time></trkpt><trkpt lat="44.743427319670964" lon="11.9518403152064"><ele>-3.8000000000000003</ele><time>2026-03-29T13:39:09Z</time></trkpt><trkpt lat="44.74344407913806" lon="11.951960551021342"><ele>-3.6000000000000005</ele><time>2026-03-29T13:39:10Z</time></trkpt><trkpt lat="44.74346451440697" lon="11.952070242341108"><ele>-3.4</ele><time>2026-03-29T13:39:11Z</time></trkpt><trkpt lat="44.74347564404164" lon="11.952196811522725"><ele>-3.2</ele><time>2026-03-29T13:39:12Z</time></trkpt><trkpt lat="44.7434805482881" lon="11.952349661069915"><ele>-3.0</ele><time>2026-03-29T13:39:13Z</time></trkpt><trkpt lat="44.74349139014992" lon="11.952510594460447"><ele>-2.75</ele><time>2026-03-29T13:39:14Z</time></trkpt><trkpt lat="44.74347969380339" lon="11.95267688549615"><ele>-2.5</ele><time>2026-03-29T13:39:15Z</time></trkpt><trkpt lat="44.74346610967812" lon="11.952865358613181"><ele>-2.25</ele><time>2026-03-29T13:39:16Z</time></trkpt><trkpt lat="44.743447209259536" lon="11.953054185528153"><ele>-2.0</ele><time>2026-03-29T13:39:17Z</time></trkpt><trkpt lat="44.74342558156558" lon="11.953237605349118"><ele>-1.5</ele><time>2026-03-29T13:39:18Z</time></trkpt><trkpt lat="44.74338390603299" lon="11.953412825959713"><ele>-1.0</ele><time>2026-03-29T13:39:19Z</time></trkpt><trkpt lat="44.743368232889026" lon="11.95359904854225"><ele>-0.5</ele><time>2026-03-29T13:39:20Z</time></trkpt><trkpt lat="44.74334506965556" lon="11.953778109657785"><ele>0.0</ele><time>2026-03-29T13:39:21Z</time></trkpt><trkpt lat="44.74332301594565" lon="11.953955842175962"><ele>0.0</ele><time>2026-03-29T13:39:22Z</time></trkpt><trkpt lat="44.74330526856569" lon="11.954132477529155"><ele>0.0</ele><time>2026-03-29T13:39:23Z</time></trkpt><trkpt lat="44.743284925856365" lon="11.954309998776848"><ele>0.0</ele><time>2026-03-29T13:39:24Z</time></trkpt><trkpt lat="44.743259020022684" lon="11.954485219808339"><ele>0.0</ele><time>2026-03-29T13:39:25Z</time></trkpt><trkpt lat="44.743228462679404" lon="11.95465916868341"><ele>-0.25</ele><time>2026-03-29T13:39:26Z</time></trkpt><trkpt lat="44.74319389328303" lon="11.954831693559024"><ele>-0.5</ele><time>2026-03-29T13:39:27Z</time></trkpt><trkpt lat="44.743164376516226" lon="11.955010419408236"><ele>-0.75</ele><time>2026-03-29T13:39:28Z</time></trkpt><trkpt lat="44.74314184764337" lon="11.955197548281243"><ele>-1.0</ele><time>2026-03-29T13:39:29Z</time></trkpt><trkpt lat="44.743127146858015" lon="11.955386315718307"><ele>-1.6666666666666665</ele><time>2026-03-29T13:39:30Z</time></trkpt><trkpt lat="44.7431141310063" lon="11.955575540897701"><ele>-2.3333333333333335</ele><time>2026-03-29T13:39:31Z</time></trkpt><trkpt lat="44.743099401703844" lon="11.955761364882232"><ele>-3.0</ele><time>2026-03-29T13:39:32Z</time></trkpt><trkpt lat="44.74306009618401" lon="11.956120686339982"><ele>-3.0</ele><time>2026-03-29T13:39:34Z</time></trkpt><trkpt lat="44.74303132551448" lon="11.956289884908708"><ele>-3.0</ele><time>2026-03-29T13:39:35Z</time></trkpt><trkpt lat="44.742997887346405" lon="11.956443418282614"><ele>-3.0</ele><time>2026-03-29T13:39:36Z</time></trkpt><trkpt lat="44.74296530247673" lon="11.956578137314793"><ele>-3.0</ele><time>2026-03-29T13:39:37Z</time></trkpt><trkpt lat="44.742936302571636" lon="11.956708286263511"><ele>-3.0</ele><time>2026-03-29T13:39:38Z</time></trkpt><trkpt lat="44.74291188117454" lon="11.956824392318492"><ele>-2.8333333333333335</ele><time>2026-03-29T13:39:39Z</time></trkpt><trkpt lat="44.742885640677216" lon="11.956929814124678"><ele>-2.6666666666666665</ele><time>2026-03-29T13:39:40Z</time></trkpt><trkpt lat="44.74286735976197" lon="11.957030959787112"><ele>-2.5</ele><time>2026-03-29T13:39:41Z</time></trkpt><trkpt lat="44.74284510594074" lon="11.957132299721533"><ele>-2.333333333333333</ele><time>2026-03-29T13:39:42Z</time></trkpt><trkpt lat="44.74282736019596" lon="11.957226299884518"><ele>-2.1666666666666665</ele><time>2026-03-29T13:39:43Z</time></trkpt><trkpt lat="44.74280992242667" lon="11.95731204401155"><ele>-2.0</ele><time>2026-03-29T13:39:44Z</time></trkpt><trkpt lat="44.74278628962084" lon="11.957497018532257"><ele>-2.1666666666666665</ele><time>2026-03-29T13:39:46Z</time></trkpt><trkpt lat="44.742764072361425" lon="11.95760443099968"><ele>-2.333333333333333</ele><time>2026-03-29T13:39:47Z</time></trkpt><trkpt lat="44.74274949665938" lon="11.957709015533451"><ele>-2.5</ele><time>2026-03-29T13:39:48Z</time></trkpt><trkpt lat="44.74273159850555" lon="11.957807180635998"><ele>-2.6666666666666665</ele><time>2026-03-29T13:39:49Z</time></trkpt><trkpt lat="44.74271653877298" lon="11.957914242790327"><ele>-2.8333333333333335</ele><time>2026-03-29T13:39:50Z</time></trkpt><trkpt lat="44.742705673664105" lon="11.958009999039747"><ele>-3.0</ele><time>2026-03-29T13:39:51Z</time></trkpt><trkpt lat="44.74268974047876" lon="11.958118012593179"><ele>-2.6</ele><time>2026-03-29T13:39:52Z</time></trkpt><trkpt lat="44.74267880102339" lon="11.958239968363033"><ele>-2.1999999999999997</ele><time>2026-03-29T13:39:53Z</time></trkpt><trkpt lat="44.74266832023748" lon="11.958374469624756"><ele>-1.8</ele><time>2026-03-29T13:39:54Z</time></trkpt><trkpt lat="44.742654975011035" lon="11.958508577497595"><ele>-1.4</ele><time>2026-03-29T13:39:55Z</time></trkpt><trkpt lat="44.74264453686449" lon="11.958645130276189"><ele>-1.0</ele><time>2026-03-29T13:39:56Z</time></trkpt><trkpt lat="44.74263341425362" lon="11.958779782782377"><ele>-1.0</ele><time>2026-03-29T13:39:57Z</time></trkpt><trkpt lat="44.74262391529155" lon="11.958922077226196"><ele>-1.0</ele><time>2026-03-29T13:39:58Z</time></trkpt><trkpt lat="44.74261212834755" lon="11.959073143213962"><ele>-1.0</ele><time>2026-03-29T13:39:59Z</time></trkpt><trkpt lat="44.742597436945076" lon="11.959231795856466"><ele>-1.0</ele><time>2026-03-29T13:40:00Z</time></trkpt><trkpt lat="44.7425878072584" lon="11.959393607807652"><ele>-1.0</ele><time>2026-03-29T13:40:01Z</time></trkpt><trkpt lat="44.74257256911641" lon="11.959540875197355"><ele>-1.0</ele><time>2026-03-29T13:40:02Z</time></trkpt><trkpt lat="44.74255297921209" lon="11.959733331612558"><ele>-1.0</ele><time>2026-03-29T13:40:03Z</time></trkpt><trkpt lat="44.74252403864588" lon="11.95990947395338"><ele>-1.0</ele><time>2026-03-29T13:40:04Z</time></trkpt><trkpt lat="44.74250074025693" lon="11.960101090400036"><ele>-1.0</ele><time>2026-03-29T13:40:05Z</time></trkpt><trkpt lat="44.74247823028763" lon="11.960294270708193"><ele>-0.75</ele><time>2026-03-29T13:40:06Z</time></trkpt><trkpt lat="44.742463475907776" lon="11.960474963620808"><ele>-0.5</ele><time>2026-03-29T13:40:07Z</time></trkpt><trkpt lat="44.742450127203384" lon="11.960644751605086"><ele>-0.25</ele><time>2026-03-29T13:40:08Z</time></trkpt><trkpt lat="44.742433183050224" lon="11.960829862470007"><ele>0.0</ele><time>2026-03-29T13:40:09Z</time></trkpt><trkpt lat="44.74242076508749" lon="11.961012354998356"><ele>0.0</ele><time>2026-03-29T13:40:10Z</time></trkpt><trkpt lat="44.74241483744096" lon="11.96120172621245"><ele>0.0</ele><time>2026-03-29T13:40:11Z</time></trkpt><trkpt lat="44.74240480927141" lon="11.961395332547458"><ele>0.0</ele><time>2026-03-29T13:40:12Z</time></trkpt><trkpt lat="44.74238857571145" lon="11.961588671078408"><ele>0.0</ele><time>2026-03-29T13:40:13Z</time></trkpt><trkpt lat="44.74239092839719" lon="11.961776319827331"><ele>0.0</ele><time>2026-03-29T13:40:14Z</time></trkpt><trkpt lat="44.74238292277717" lon="11.961961263148796"><ele>0.0</ele><time>2026-03-29T13:40:15Z</time></trkpt><trkpt lat="44.742383729583175" lon="11.962145311144967"><ele>0.0</ele><time>2026-03-29T13:40:16Z</time></trkpt><trkpt lat="44.74238301541207" lon="11.962322478046216"><ele>0.0</ele><time>2026-03-29T13:40:17Z</time></trkpt><trkpt lat="44.74238700917362" lon="11.962500782955907"><ele>-0.25</ele><time>2026-03-29T13:40:18Z</time></trkpt><trkpt lat="44.742400089133014" lon="11.96268703386766"><ele>-0.5</ele><time>2026-03-29T13:40:19Z</time></trkpt><trkpt lat="44.742422728656855" lon="11.962878846431245"><ele>-0.75</ele><time>2026-03-29T13:40:20Z</time></trkpt><trkpt lat="44.742444147195926" lon="11.963071437384604"><ele>-1.0</ele><time>2026-03-29T13:40:21Z</time></trkpt><trkpt lat="44.74247283882846" lon="11.963263461264072"><ele>-1.5</ele><time>2026-03-29T13:40:22Z</time></trkpt><trkpt lat="44.74250234229154" lon="11.963443452143764"><ele>-2.0</ele><time>2026-03-29T13:40:23Z</time></trkpt><trkpt lat="44.74254131411119" lon="11.963605032860343"><ele>-2.5</ele><time>2026-03-29T13:40:24Z</time></trkpt><trkpt lat="44.742579411812386" lon="11.963766871330057"><ele>-3.0</ele><time>2026-03-29T13:40:25Z</time></trkpt><trkpt lat="44.74261592759911" lon="11.963927570559024"><ele>-3.0</ele><time>2026-03-29T13:40:26Z</time></trkpt><trkpt lat="44.74266187966762" lon="11.964096717016963"><ele>-3.0</ele><time>2026-03-29T13:40:27Z</time></trkpt><trkpt lat="44.7427084904791" lon="11.964270501407883"><ele>-3.0</ele><time>2026-03-29T13:40:28Z</time></trkpt><trkpt lat="44.74275537212682" lon="11.964445890608927"><ele>-3.0</ele><time>2026-03-29T13:40:29Z</time></trkpt><trkpt lat="44.74280276728257" lon="11.964621630795055"><ele>-2.8</ele><time>2026-03-29T13:40:30Z</time></trkpt><trkpt lat="44.74284665997888" lon="11.9647785290592"><ele>-2.5999999999999996</ele><time>2026-03-29T13:40:31Z</time></trkpt><trkpt lat="44.74288476101623" lon="11.964919174721462"><ele>-2.4000000000000004</ele><time>2026-03-29T13:40:32Z</time></trkpt><trkpt lat="44.74291711441343" lon="11.965049080220533"><ele>-2.2</ele><time>2026-03-29T13:40:33Z</time></trkpt><trkpt lat="44.74296018322568" lon="11.965169439364319"><ele>-2.0</ele><time>2026-03-29T13:40:34Z</time></trkpt><trkpt lat="44.74299326135575" lon="11.965281700713765"><ele>-2.1666666666666665</ele><time>2026-03-29T13:40:35Z</time></trkpt><trkpt lat="44.74302610674587" lon="11.965388140779998"><ele>-2.333333333333333</ele><time>2026-03-29T13:40:36Z</time></trkpt><trkpt lat="44.74305517609515" lon="11.965490226841268"><ele>-2.5</ele><time>2026-03-29T13:40:37Z</time></trkpt><trkpt lat="44.74307518285886" lon="11.965589513737237"><ele>-2.6666666666666665</ele><time>2026-03-29T13:40:38Z</time></trkpt><trkpt lat="44.74308741425537" lon="11.965693919198284"><ele>-2.8333333333333335</ele><time>2026-03-29T13:40:39Z</time></trkpt><trkpt lat="44.743136348350475" lon="11.96586208253725"><ele>-3.0</ele><time>2026-03-29T13:40:41Z</time></trkpt><trkpt lat="44.74316431257942" lon="11.965950196710036"><ele>-3.0</ele><time>2026-03-29T13:40:42Z</time></trkpt><trkpt lat="44.743195144070796" lon="11.96604839286836"><ele>-3.0</ele><time>2026-03-29T13:40:43Z</time></trkpt><trkpt lat="44.74322701805304" lon="11.966151257778808"><ele>-3.0</ele><time>2026-03-29T13:40:44Z</time></trkpt><trkpt lat="44.74325305382799" lon="11.966239038417688"><ele>-3.0</ele><time>2026-03-29T13:40:45Z</time></trkpt><trkpt lat="44.74327785184404" lon="11.966322646253323"><ele>-3.0</ele><time>2026-03-29T13:40:46Z</time></trkpt><trkpt lat="44.743298164862324" lon="11.966459231782409"><ele>-3.0</ele><time>2026-03-29T13:40:48Z</time></trkpt><trkpt lat="44.7433385340759" lon="11.966606817834782"><ele>-2.8333333333333335</ele><time>2026-03-29T13:40:50Z</time></trkpt><trkpt lat="44.74339309748475" lon="11.966775800677363"><ele>-2.6666666666666665</ele><time>2026-03-29T13:40:52Z</time></trkpt><trkpt lat="44.74343196714829" lon="11.96685777070339"><ele>-2.5</ele><time>2026-03-29T13:40:53Z</time></trkpt><trkpt lat="44.743447496475014" lon="11.966944734148747"><ele>-2.333333333333333</ele><time>2026-03-29T13:40:54Z</time></trkpt><trkpt lat="44.74348044051096" lon="11.967038753116519"><ele>-2.1666666666666665</ele><time>2026-03-29T13:40:55Z</time></trkpt><trkpt lat="44.743510744573705" lon="11.967140908508627"><ele>-2.0</ele><time>2026-03-29T13:40:56Z</time></trkpt><trkpt lat="44.743531873255925" lon="11.967236049465662"><ele>-2.0</ele><time>2026-03-29T13:40:57Z</time></trkpt><trkpt lat="44.743555897998" lon="11.967320791673348"><ele>-2.0</ele><time>2026-03-29T13:40:58Z</time></trkpt><trkpt lat="44.7435990244056" lon="11.967461735386498"><ele>-2.0</ele><time>2026-03-29T13:41:00Z</time></trkpt><trkpt lat="44.74364173175513" lon="11.967592122005025"><ele>-2.0</ele><time>2026-03-29T13:41:02Z</time></trkpt><trkpt lat="44.74368093430656" lon="11.967709389397058"><ele>-2.0</ele><time>2026-03-29T13:41:04Z</time></trkpt><trkpt lat="44.74371456529866" lon="11.967821570832099"><ele>-1.6666666666666665</ele><time>2026-03-29T13:41:06Z</time></trkpt><trkpt lat="44.74374106904086" lon="11.967923870540293"><ele>-1.3333333333333333</ele><time>2026-03-29T13:41:08Z</time></trkpt><trkpt lat="44.74375677727242" lon="11.968035756236084"><ele>-1.0</ele><time>2026-03-29T13:41:11Z</time></trkpt><trkpt lat="44.743671562269675" lon="11.968126041099518"><ele>-0.6666666666666666</ele><time>2026-03-29T13:42:46Z</time></trkpt><trkpt lat="44.743645410895496" lon="11.968218805134342"><ele>-0.3333333333333333</ele><time>2026-03-29T13:42:48Z</time></trkpt><trkpt lat="44.743634231015314" lon="11.968312281298527"><ele>0.0</ele><time>2026-03-29T13:42:50Z</time></trkpt><trkpt lat="44.743639562098124" lon="11.968408868872526"><ele>0.0</ele><time>2026-03-29T13:42:52Z</time></trkpt><trkpt lat="44.74369685249807" lon="11.968467398798333"><ele>0.0</ele><time>2026-03-29T13:42:54Z</time></trkpt><trkpt lat="44.74376993527837" lon="11.96850610129548"><ele>0.0</ele><time>2026-03-29T13:42:56Z</time></trkpt><trkpt lat="44.743851579738646" lon="11.968439183338633"><ele>0.0</ele><time>2026-03-29T13:42:58Z</time></trkpt><trkpt lat="44.74388962316388" lon="11.968347147964357"><ele>0.0</ele><time>2026-03-29T13:43:00Z</time></trkpt><trkpt lat="44.74395407229264" lon="11.968410221716907"><ele>0.0</ele><time>2026-03-29T13:43:03Z</time></trkpt><trkpt lat="44.74397928275516" lon="11.968507045721628"><ele>0.0</ele><time>2026-03-29T13:43:05Z</time></trkpt><trkpt lat="44.74400527792914" lon="11.968613924373297"><ele>0.0</ele><time>2026-03-29T13:43:07Z</time></trkpt><trkpt lat="44.74402775421199" lon="11.96870580681548"><ele>0.0</ele><time>2026-03-29T13:43:09Z</time></trkpt><trkpt lat="44.74406071185171" lon="11.968819011315924"><ele>0.0</ele><time>2026-03-29T13:43:12Z</time></trkpt><trkpt lat="44.744092809498234" lon="11.96892251242604"><ele>0.0</ele><time>2026-03-29T13:43:15Z</time></trkpt><trkpt lat="44.744129905544604" lon="11.969019251666195"><ele>0.0</ele><time>2026-03-29T13:43:18Z</time></trkpt><trkpt lat="44.74414190338291" lon="11.969109389401442"><ele>0.0</ele><time>2026-03-29T13:46:45Z</time></trkpt><trkpt lat="44.74420647695085" lon="11.969160638611186"><ele>0.0</ele><time>2026-03-29T13:46:49Z</time></trkpt><trkpt lat="44.74422107174534" lon="11.969248708377974"><ele>0.0</ele><time>2026-03-29T13:46:51Z</time></trkpt><trkpt lat="44.7442505631807" lon="11.96934301715809"><ele>0.0</ele><time>2026-03-29T13:46:53Z</time></trkpt><trkpt lat="44.74427576928099" lon="11.969433932037447"><ele>0.0</ele><time>2026-03-29T13:46:55Z</time></trkpt><trkpt lat="44.74430703173437" lon="11.969525560346899"><ele>0.0</ele><time>2026-03-29T13:46:57Z</time></trkpt><trkpt lat="44.74433315092264" lon="11.969618550872"><ele>0.0</ele><time>2026-03-29T13:46:59Z</time></trkpt><trkpt lat="44.744361101216775" lon="11.969702123773857"><ele>-0.2857142857142857</ele><time>2026-03-29T13:47:01Z</time></trkpt><trkpt lat="44.744375662865366" lon="11.969788609295241"><ele>-0.5714285714285714</ele><time>2026-03-29T13:47:03Z</time></trkpt><trkpt lat="44.744338439704364" lon="11.969862778336688"><ele>-0.8571428571428571</ele><time>2026-03-29T13:47:05Z</time></trkpt><trkpt lat="44.74427246014556" lon="11.969902794325446"><ele>-1.1428571428571428</ele><time>2026-03-29T13:47:07Z</time></trkpt><trkpt lat="44.74420356905342" lon="11.96988297575864"><ele>-1.4285714285714284</ele><time>2026-03-29T13:47:09Z</time></trkpt><trkpt lat="44.744136681967625" lon="11.969896137112496"><ele>-1.7142857142857142</ele><time>2026-03-29T13:47:11Z</time></trkpt><trkpt lat="44.74406647808363" lon="11.969909360704403"><ele>-2.0</ele><time>2026-03-29T13:47:13Z</time></trkpt><trkpt lat="44.743987251901444" lon="11.969922997402318"><ele>-1.9999999999999998</ele><time>2026-03-29T13:47:15Z</time></trkpt><trkpt lat="44.743904611796246" lon="11.969937221603908"><ele>-2.0</ele><time>2026-03-29T13:47:17Z</time></trkpt><trkpt lat="44.743823394096786" lon="11.969951201028548"><ele>-2.0</ele><time>2026-03-29T13:47:19Z</time></trkpt><trkpt lat="44.74373637991714" lon="11.969970434569168"><ele>-2.0</ele><time>2026-03-29T13:47:21Z</time></trkpt><trkpt lat="44.74365644674482" lon="11.969997506093438"><ele>-1.9999999999999998</ele><time>2026-03-29T13:47:23Z</time></trkpt><trkpt lat="44.74355546922335" lon="11.970010158835265"><ele>-2.0</ele><time>2026-03-29T13:47:25Z</time></trkpt><trkpt lat="44.74344045334544" lon="11.970031876608914"><ele>-2.0</ele><time>2026-03-29T13:47:27Z</time></trkpt><trkpt lat="44.74337215758017" lon="11.97005370392055"><ele>-2.0</ele><time>2026-03-29T13:47:28Z</time></trkpt><trkpt lat="44.74331065653215" lon="11.97008342475834"><ele>-2.0</ele><time>2026-03-29T13:47:29Z</time></trkpt><trkpt lat="44.743208509974394" lon="11.970103392597917"><ele>-2.0</ele><time>2026-03-29T13:47:31Z</time></trkpt><trkpt lat="44.7431019175873" lon="11.970126143300554"><ele>-2.0</ele><time>2026-03-29T13:47:33Z</time></trkpt><trkpt lat="44.74298056014397" lon="11.970155227810885"><ele>-2.0</ele><time>2026-03-29T13:47:35Z</time></trkpt><trkpt lat="44.742862925189876" lon="11.970185328904977"><ele>-2.0</ele><time>2026-03-29T13:47:37Z</time></trkpt><trkpt lat="44.7427586880339" lon="11.970211326803208"><ele>-2.0</ele><time>2026-03-29T13:47:39Z</time></trkpt><trkpt lat="44.7426764443893" lon="11.97022760555424"><ele>-2.0</ele><time>2026-03-29T13:47:41Z</time></trkpt><trkpt lat="44.742581860250546" lon="11.970248008929635"><ele>-2.0</ele><time>2026-03-29T13:47:43Z</time></trkpt><trkpt lat="44.742500669360204" lon="11.970267849108446"><ele>-2.1666666666666665</ele><time>2026-03-29T13:47:45Z</time></trkpt><trkpt lat="44.742432821076136" lon="11.970270499262742"><ele>-2.333333333333333</ele><time>2026-03-29T13:47:47Z</time></trkpt><trkpt lat="44.742366257633435" lon="11.970284892699551"><ele>-2.5</ele><time>2026-03-29T13:47:49Z</time></trkpt><trkpt lat="44.74229410474631" lon="11.9703313581058"><ele>-2.6666666666666665</ele><time>2026-03-29T13:47:51Z</time></trkpt><trkpt lat="44.74223511852526" lon="11.970423450239933"><ele>-2.8333333333333335</ele><time>2026-03-29T13:47:53Z</time></trkpt><trkpt lat="44.74220807678089" lon="11.970546868494534"><ele>-3.0</ele><time>2026-03-29T13:47:55Z</time></trkpt><trkpt lat="44.742248525593425" lon="11.970658770594998"><ele>-3.0</ele><time>2026-03-29T13:47:57Z</time></trkpt><trkpt lat="44.742265624806386" lon="11.970753660210935"><ele>-3.0</ele><time>2026-03-29T13:47:59Z</time></trkpt><trkpt lat="44.74228862751095" lon="11.970842554383959"><ele>-3.0</ele><time>2026-03-29T13:48:01Z</time></trkpt><trkpt lat="44.74231566276495" lon="11.970946842087756"><ele>-3.0</ele><time>2026-03-29T13:48:03Z</time></trkpt><trkpt lat="44.74233442710885" lon="11.971098089633633"><ele>-3.0</ele><time>2026-03-29T13:48:05Z</time></trkpt><trkpt lat="44.74236027187087" lon="11.971264256242767"><ele>-3.0</ele><time>2026-03-29T13:48:07Z</time></trkpt><trkpt lat="44.74237620882916" lon="11.971366474904539"><ele>-2.8333333333333335</ele><time>2026-03-29T13:48:08Z</time></trkpt><trkpt lat="44.74239140250523" lon="11.971461091517353"><ele>-2.6666666666666665</ele><time>2026-03-29T13:48:09Z</time></trkpt><trkpt lat="44.742408923409855" lon="11.971557714673862"><ele>-2.5</ele><time>2026-03-29T13:48:10Z</time></trkpt><trkpt lat="44.74241807346515" lon="11.971669800309545"><ele>-2.333333333333333</ele><time>2026-03-29T13:48:11Z</time></trkpt><trkpt lat="44.74243735863885" lon="11.971771348981003"><ele>-2.1666666666666665</ele><time>2026-03-29T13:48:12Z</time></trkpt><trkpt lat="44.742455883524606" lon="11.971946784296053"><ele>-2.0</ele><time>2026-03-29T13:48:14Z</time></trkpt><trkpt lat="44.74247096146299" lon="11.972049283364175"><ele>-2.0</ele><time>2026-03-29T13:48:15Z</time></trkpt><trkpt lat="44.74248391180575" lon="11.972151037871182"><ele>-1.9999999999999998</ele><time>2026-03-29T13:48:16Z</time></trkpt><trkpt lat="44.742501867673624" lon="11.972250486075401"><ele>-2.0</ele><time>2026-03-29T13:48:17Z</time></trkpt><trkpt lat="44.742516458781886" lon="11.972351666052074"><ele>-2.0</ele><time>2026-03-29T13:48:18Z</time></trkpt><trkpt lat="44.74252882417094" lon="11.972451359559997"><ele>-1.9999999999999998</ele><time>2026-03-29T13:48:19Z</time></trkpt><trkpt lat="44.74254485985648" lon="11.97255273198606"><ele>-2.0</ele><time>2026-03-29T13:48:20Z</time></trkpt><trkpt lat="44.74255800827389" lon="11.97265157610912"><ele>-2.0</ele><time>2026-03-29T13:48:21Z</time></trkpt><trkpt lat="44.742571997194744" lon="11.972746167736402"><ele>-2.0</ele><time>2026-03-29T13:48:22Z</time></trkpt><trkpt lat="44.74258531416039" lon="11.97284132498434"><ele>-1.9999999999999998</ele><time>2026-03-29T13:48:23Z</time></trkpt><trkpt lat="44.742599510784196" lon="11.972940113977106"><ele>-2.0</ele><time>2026-03-29T13:48:24Z</time></trkpt><trkpt lat="44.74261611279587" lon="11.973040310757348"><ele>-2.0</ele><time>2026-03-29T13:48:25Z</time></trkpt><trkpt lat="44.742631951907896" lon="11.973144262376383"><ele>-1.9999999999999998</ele><time>2026-03-29T13:48:26Z</time></trkpt><trkpt lat="44.742646100211445" lon="11.973250067963306"><ele>-2.0</ele><time>2026-03-29T13:48:27Z</time></trkpt><trkpt lat="44.742659407875315" lon="11.973355542274097"><ele>-2.0</ele><time>2026-03-29T13:48:28Z</time></trkpt><trkpt lat="44.74267453398599" lon="11.973456383158688"><ele>-2.0</ele><time>2026-03-29T13:48:29Z</time></trkpt><trkpt lat="44.742691013703926" lon="11.973554038592964"><ele>-1.9999999999999998</ele><time>2026-03-29T13:48:30Z</time></trkpt><trkpt lat="44.742707512035146" lon="11.973649618116678"><ele>-2.0</ele><time>2026-03-29T13:48:31Z</time></trkpt><trkpt lat="44.74272076876796" lon="11.973743182832031"><ele>-2.0</ele><time>2026-03-29T13:48:32Z</time></trkpt><trkpt lat="44.742736883378996" lon="11.973841129273191"><ele>-1.9999999999999998</ele><time>2026-03-29T13:48:33Z</time></trkpt><trkpt lat="44.742751582027424" lon="11.973946207962566"><ele>-2.0</ele><time>2026-03-29T13:48:34Z</time></trkpt><trkpt lat="44.74276884685496" lon="11.974050424554164"><ele>-2.0</ele><time>2026-03-29T13:48:35Z</time></trkpt><trkpt lat="44.74278802620772" lon="11.974158781021213"><ele>-2.0</ele><time>2026-03-29T13:48:36Z</time></trkpt><trkpt lat="44.74280400514821" lon="11.97425828264439"><ele>-1.9999999999999998</ele><time>2026-03-29T13:48:37Z</time></trkpt><trkpt lat="44.742816819897925" lon="11.97434790044722"><ele>-2.0</ele><time>2026-03-29T13:48:38Z</time></trkpt><trkpt lat="44.742828465053385" lon="11.974443126859823"><ele>-2.0</ele><time>2026-03-29T13:48:39Z</time></trkpt><trkpt lat="44.74284339604367" lon="11.97453580886145"><ele>-1.9999999999999998</ele><time>2026-03-29T13:48:40Z</time></trkpt><trkpt lat="44.74285687247168" lon="11.97462610671995"><ele>-2.0</ele><time>2026-03-29T13:48:41Z</time></trkpt><trkpt lat="44.74287117832943" lon="11.974718948422485"><ele>-2.0</ele><time>2026-03-29T13:48:42Z</time></trkpt><trkpt lat="44.74288655230492" lon="11.974809819053771"><ele>-2.0</ele><time>2026-03-29T13:48:43Z</time></trkpt><trkpt lat="44.74290188408839" lon="11.974901339068772"><ele>-1.9999999999999998</ele><time>2026-03-29T13:48:44Z</time></trkpt><trkpt lat="44.74291859102922" lon="11.974993031004047"><ele>-2.0</ele><time>2026-03-29T13:48:45Z</time></trkpt><trkpt lat="44.742934308164" lon="11.975079836971034"><ele>-2.0</ele><time>2026-03-29T13:48:46Z</time></trkpt><trkpt lat="44.74294957826418" lon="11.975171917328376"><ele>-1.9999999999999998</ele><time>2026-03-29T13:48:47Z</time></trkpt><trkpt lat="44.74296295526898" lon="11.97526213907228"><ele>-2.0</ele><time>2026-03-29T13:48:48Z</time></trkpt><trkpt lat="44.742976063028806" lon="11.975352913619075"><ele>-2.0</ele><time>2026-03-29T13:48:49Z</time></trkpt><trkpt lat="44.742990551279036" lon="11.97544162004702"><ele>-2.0</ele><time>2026-03-29T13:48:50Z</time></trkpt><trkpt lat="44.74300327614971" lon="11.975538881838716"><ele>-1.9999999999999998</ele><time>2026-03-29T13:48:51Z</time></trkpt><trkpt lat="44.7430191953549" lon="11.975629920149816"><ele>-2.0</ele><time>2026-03-29T13:48:52Z</time></trkpt><trkpt lat="44.743033626513174" lon="11.975717587529125"><ele>-2.0</ele><time>2026-03-29T13:48:53Z</time></trkpt><trkpt lat="44.74304338605079" lon="11.975809744113183"><ele>-1.9999999999999998</ele><time>2026-03-29T13:48:54Z</time></trkpt><trkpt lat="44.74305127033343" lon="11.975915045587138"><ele>-2.0</ele><time>2026-03-29T13:48:55Z</time></trkpt><trkpt lat="44.7430568869799" lon="11.976014587187576"><ele>-2.0</ele><time>2026-03-29T13:48:56Z</time></trkpt><trkpt lat="44.74306142763886" lon="11.976117461851578"><ele>-1.9999999999999998</ele><time>2026-03-29T13:48:57Z</time></trkpt><trkpt lat="44.74306453351251" lon="11.976209159229063"><ele>-2.0</ele><time>2026-03-29T13:48:58Z</time></trkpt><trkpt lat="44.74306417535178" lon="11.976305072664552"><ele>-2.0</ele><time>2026-03-29T13:48:59Z</time></trkpt><trkpt lat="44.74305877066467" lon="11.976481206550014"><ele>-2.0</ele><time>2026-03-29T13:49:01Z</time></trkpt><trkpt lat="44.74305371912423" lon="11.976571030490723"><ele>-1.9999999999999998</ele><time>2026-03-29T13:49:02Z</time></trkpt><trkpt lat="44.743050122963695" lon="11.976663900277739"><ele>-2.0</ele><time>2026-03-29T13:49:03Z</time></trkpt><trkpt lat="44.74304568229307" lon="11.976753132382651"><ele>-2.2</ele><time>2026-03-29T13:49:04Z</time></trkpt><trkpt lat="44.74302909075655" lon="11.976919375330741"><ele>-2.4000000000000004</ele><time>2026-03-29T13:49:06Z</time></trkpt><trkpt lat="44.74299999290129" lon="11.977085639754755"><ele>-2.5999999999999996</ele><time>2026-03-29T13:49:08Z</time></trkpt><trkpt lat="44.742958449668045" lon="11.977258849375296"><ele>-2.8</ele><time>2026-03-29T13:49:10Z</time></trkpt><trkpt lat="44.74293998485648" lon="11.9773537828159"><ele>-3.0</ele><time>2026-03-29T13:49:11Z</time></trkpt><trkpt lat="44.742909316398425" lon="11.97749834038023"><ele>-3.0</ele><time>2026-03-29T13:49:13Z</time></trkpt><trkpt lat="44.74286766822537" lon="11.977657913145261"><ele>-3.0</ele><time>2026-03-29T13:49:15Z</time></trkpt><trkpt lat="44.74282796918558" lon="11.977808500254719"><ele>-3.0</ele><time>2026-03-29T13:49:17Z</time></trkpt><trkpt lat="44.74277284484252" lon="11.977949803160502"><ele>-3.0</ele><time>2026-03-29T13:49:19Z</time></trkpt><trkpt lat="44.742714061361255" lon="11.978102314225037"><ele>-2.6666666666666665</ele><time>2026-03-29T13:49:21Z</time></trkpt><trkpt lat="44.742685309131495" lon="11.97818542060926"><ele>-2.3333333333333335</ele><time>2026-03-29T13:49:22Z</time></trkpt><trkpt lat="44.74265653646766" lon="11.978271930035499"><ele>-2.0</ele><time>2026-03-29T13:49:23Z</time></trkpt><trkpt lat="44.74262578919396" lon="11.978353109777698"><ele>-1.6666666666666665</ele><time>2026-03-29T13:49:24Z</time></trkpt><trkpt lat="44.742596738024076" lon="11.978432631150225"><ele>-1.3333333333333333</ele><time>2026-03-29T13:49:25Z</time></trkpt><trkpt lat="44.742568747982865" lon="11.978520214300227"><ele>-1.0</ele><time>2026-03-29T13:49:26Z</time></trkpt><trkpt lat="44.742515652241316" lon="11.978674710552294"><ele>-1.0</ele><time>2026-03-29T13:49:28Z</time></trkpt><trkpt lat="44.74246513235233" lon="11.97881839193152"><ele>-1.0</ele><time>2026-03-29T13:49:30Z</time></trkpt><trkpt lat="44.74241372250638" lon="11.978964748176002"><ele>-1.0</ele><time>2026-03-29T13:49:32Z</time></trkpt><trkpt lat="44.742362267006996" lon="11.979099872873377"><ele>-1.0</ele><time>2026-03-29T13:49:34Z</time></trkpt><trkpt lat="44.74231646361948" lon="11.979235810913739"><ele>-1.0</ele><time>2026-03-29T13:49:36Z</time></trkpt><trkpt lat="44.74227565835052" lon="11.979354792434087"><ele>-1.3333333333333333</ele><time>2026-03-29T13:49:38Z</time></trkpt><trkpt lat="44.742241530094496" lon="11.97945521914841"><ele>-1.6666666666666665</ele><time>2026-03-29T13:49:40Z</time></trkpt><trkpt lat="44.74221094228464" lon="11.979554980800563"><ele>-2.0</ele><time>2026-03-29T13:49:42Z</time></trkpt><trkpt lat="44.742169048480974" lon="11.97966984409275"><ele>-2.3333333333333335</ele><time>2026-03-29T13:49:44Z</time></trkpt><trkpt lat="44.742129332318335" lon="11.979777402691353"><ele>-2.6666666666666665</ele><time>2026-03-29T13:49:45.999Z</time></trkpt><trkpt lat="44.74208826262514" lon="11.97987704743618"><ele>-3.0</ele><time>2026-03-29T13:49:47.999Z</time></trkpt><trkpt lat="44.742049414926065" lon="11.979989816064577"><ele>-3.0</ele><time>2026-03-29T13:49:49.999Z</time></trkpt><trkpt lat="44.74200673719562" lon="11.980102195940525"><ele>-3.0</ele><time>2026-03-29T13:49:51.999Z</time></trkpt><trkpt lat="44.74196710117006" lon="11.980219912145285"><ele>-3.0</ele><time>2026-03-29T13:49:54Z</time></trkpt><trkpt lat="44.741924490253965" lon="11.980333657602483"><ele>-3.0</ele><time>2026-03-29T13:49:56Z</time></trkpt><trkpt lat="44.74188324514267" lon="11.98044459944996"><ele>-3.0</ele><time>2026-03-29T13:49:58Z</time></trkpt><trkpt lat="44.74184154571991" lon="11.98055946552162"><ele>-3.0</ele><time>2026-03-29T13:50:00Z</time></trkpt><trkpt lat="44.74180217837328" lon="11.980674026279496"><ele>-3.0</ele><time>2026-03-29T13:50:02Z</time></trkpt><trkpt lat="44.74176293900064" lon="11.980790414203963"><ele>-3.0</ele><time>2026-03-29T13:50:04Z</time></trkpt><trkpt lat="44.74172529036099" lon="11.980899585572914"><ele>-3.0</ele><time>2026-03-29T13:50:06Z</time></trkpt><trkpt lat="44.741686677632124" lon="11.981011063955776"><ele>-3.0</ele><time>2026-03-29T13:50:08Z</time></trkpt><trkpt lat="44.74164607179974" lon="11.981125462697221"><ele>-3.0</ele><time>2026-03-29T13:50:10Z</time></trkpt><trkpt lat="44.74161101078257" lon="11.981236868258092"><ele>-2.8</ele><time>2026-03-29T13:50:12Z</time></trkpt><trkpt lat="44.741566778190865" lon="11.981355212664605"><ele>-2.5999999999999996</ele><time>2026-03-29T13:50:14Z</time></trkpt><trkpt lat="44.7415379522854" lon="11.981434716657104"><ele>-2.4000000000000004</ele><time>2026-03-29T13:50:15Z</time></trkpt><trkpt lat="44.74148848130989" lon="11.981580935583"><ele>-2.2</ele><time>2026-03-29T13:50:17Z</time></trkpt><trkpt lat="44.74144113234708" lon="11.981702257639414"><ele>-2.0</ele><time>2026-03-29T13:50:19Z</time></trkpt><trkpt lat="44.7413967352196" lon="11.981841712602286"><ele>-1.9999999999999998</ele><time>2026-03-29T13:50:21Z</time></trkpt><trkpt lat="44.74133622466853" lon="11.98200102520139"><ele>-2.0</ele><time>2026-03-29T13:50:23Z</time></trkpt><trkpt lat="44.74127702810515" lon="11.982159641291654"><ele>-2.0</ele><time>2026-03-29T13:50:25Z</time></trkpt><trkpt lat="44.74125006513511" lon="11.982240839453548"><ele>-2.0</ele><time>2026-03-29T13:50:26Z</time></trkpt><trkpt lat="44.74122228255538" lon="11.982322266980649"><ele>-1.9999999999999998</ele><time>2026-03-29T13:50:27Z</time></trkpt><trkpt lat="44.74119269221166" lon="11.982405054989908"><ele>-2.0</ele><time>2026-03-29T13:50:28Z</time></trkpt><trkpt lat="44.74116163316039" lon="11.982486245649982"><ele>-1.9999999999999998</ele><time>2026-03-29T13:50:29Z</time></trkpt><trkpt lat="44.741106818710854" lon="11.982644780708693"><ele>-2.0</ele><time>2026-03-29T13:50:31Z</time></trkpt><trkpt lat="44.74107589319554" lon="11.982726994803029"><ele>-2.0</ele><time>2026-03-29T13:50:32Z</time></trkpt><trkpt lat="44.74104700027911" lon="11.98280853000633"><ele>-2.0</ele><time>2026-03-29T13:50:33Z</time></trkpt><trkpt lat="44.74101790835375" lon="11.982894816323713"><ele>-1.9999999999999998</ele><time>2026-03-29T13:50:34Z</time></trkpt><trkpt lat="44.74098818173495" lon="11.982981107325656"><ele>-2.0</ele><time>2026-03-29T13:50:35Z</time></trkpt><trkpt lat="44.74095785352394" lon="11.983067710459066"><ele>-2.0</ele><time>2026-03-29T13:50:36Z</time></trkpt><trkpt lat="44.740926153012786" lon="11.98316052612587"><ele>-1.9999999999999998</ele><time>2026-03-29T13:50:37Z</time></trkpt><trkpt lat="44.740896194888656" lon="11.983247265187956"><ele>-2.0</ele><time>2026-03-29T13:50:38Z</time></trkpt><trkpt lat="44.740863457301444" lon="11.98333371386704"><ele>-2.0</ele><time>2026-03-29T13:50:39Z</time></trkpt><trkpt lat="44.74083333222775" lon="11.983416882575595"><ele>-1.9999999999999998</ele><time>2026-03-29T13:50:40Z</time></trkpt><trkpt lat="44.740804079356444" lon="11.983503294587926"><ele>-2.0</ele><time>2026-03-29T13:50:41Z</time></trkpt><trkpt lat="44.74077575998832" lon="11.983587228755058"><ele>-2.0</ele><time>2026-03-29T13:50:42Z</time></trkpt><trkpt lat="44.74072203765284" lon="11.983738997572457"><ele>-2.25</ele><time>2026-03-29T13:50:44Z</time></trkpt><trkpt lat="44.74067291385191" lon="11.983889593394352"><ele>-2.5</ele><time>2026-03-29T13:50:46Z</time></trkpt><trkpt lat="44.740620378289094" lon="11.984041727181813"><ele>-2.75</ele><time>2026-03-29T13:50:48Z</time></trkpt><trkpt lat="44.74056570289442" lon="11.984187714469577"><ele>-3.0</ele><time>2026-03-29T13:50:50Z</time></trkpt><trkpt lat="44.740508640828175" lon="11.984341150260327"><ele>-2.6</ele><time>2026-03-29T13:50:52Z</time></trkpt><trkpt lat="44.74045282495653" lon="11.984497916770282"><ele>-2.1999999999999997</ele><time>2026-03-29T13:50:54Z</time></trkpt><trkpt lat="44.740393920446" lon="11.984651672203162"><ele>-1.8</ele><time>2026-03-29T13:50:56Z</time></trkpt><trkpt lat="44.740364477864" lon="11.984730938781166"><ele>-1.4</ele><time>2026-03-29T13:50:57Z</time></trkpt><trkpt lat="44.74031399509571" lon="11.9848943481931"><ele>-1.0</ele><time>2026-03-29T13:50:59Z</time></trkpt><trkpt lat="44.74028171855478" lon="11.984974502429298"><ele>-0.9999999999999999</ele><time>2026-03-29T13:51:00Z</time></trkpt><trkpt lat="44.74024624571423" lon="11.985066279117913"><ele>-1.0</ele><time>2026-03-29T13:51:01Z</time></trkpt><trkpt lat="44.74021690374915" lon="11.985146421602831"><ele>-1.0</ele><time>2026-03-29T13:51:02Z</time></trkpt><trkpt lat="44.74018784423595" lon="11.985231540873736"><ele>-1.0</ele><time>2026-03-29T13:51:03Z</time></trkpt><trkpt lat="44.74013161467749" lon="11.985387676548177"><ele>-0.9999999999999999</ele><time>2026-03-29T13:51:05Z</time></trkpt><trkpt lat="44.740101846928575" lon="11.985466728769454"><ele>-1.0</ele><time>2026-03-29T13:51:06Z</time></trkpt><trkpt lat="44.74004661057065" lon="11.985620352375301"><ele>-1.25</ele><time>2026-03-29T13:51:08Z</time></trkpt><trkpt lat="44.73999392225862" lon="11.985772867165768"><ele>-1.5</ele><time>2026-03-29T13:51:10Z</time></trkpt><trkpt lat="44.73994058428495" lon="11.985927698866156"><ele>-1.75</ele><time>2026-03-29T13:51:12Z</time></trkpt><trkpt lat="44.73988353193897" lon="11.98608495776423"><ele>-2.0</ele><time>2026-03-29T13:51:14Z</time></trkpt><trkpt lat="44.73983089595922" lon="11.986234478211234"><ele>-2.0</ele><time>2026-03-29T13:51:16Z</time></trkpt><trkpt lat="44.73978699157053" lon="11.986356666095656"><ele>-2.0</ele><time>2026-03-29T13:51:18Z</time></trkpt><trkpt lat="44.73973964269437" lon="11.986490020593315"><ele>-2.0</ele><time>2026-03-29T13:51:20Z</time></trkpt><trkpt lat="44.73970253102946" lon="11.986609958486312"><ele>-2.0</ele><time>2026-03-29T13:51:22Z</time></trkpt><trkpt lat="44.739665798999226" lon="11.986711902872024"><ele>-2.0</ele><time>2026-03-29T13:51:24Z</time></trkpt><trkpt lat="44.739616969492246" lon="11.986829884231248"><ele>-2.0</ele><time>2026-03-29T13:51:26Z</time></trkpt><trkpt lat="44.73957177881845" lon="11.986960174936053"><ele>-2.0</ele><time>2026-03-29T13:51:28Z</time></trkpt><trkpt lat="44.73953200750257" lon="11.987068490055252"><ele>-2.0</ele><time>2026-03-29T13:51:30Z</time></trkpt><trkpt lat="44.73948734038903" lon="11.987176028279368"><ele>-2.0</ele><time>2026-03-29T13:51:32Z</time></trkpt><trkpt lat="44.739440039093736" lon="11.987320162200819"><ele>-2.0</ele><time>2026-03-29T13:51:34Z</time></trkpt><trkpt lat="44.73939755906409" lon="11.9874674322818"><ele>-1.8</ele><time>2026-03-29T13:51:36Z</time></trkpt><trkpt lat="44.73936737590376" lon="11.987551724418054"><ele>-1.6</ele><time>2026-03-29T13:51:37Z</time></trkpt><trkpt lat="44.73933211149314" lon="11.987633280761642"><ele>-1.4000000000000001</ele><time>2026-03-29T13:51:38Z</time></trkpt><trkpt lat="44.739273634546855" lon="11.987797809554838"><ele>-1.2000000000000002</ele><time>2026-03-29T13:51:40Z</time></trkpt><trkpt lat="44.739244779227526" lon="11.987876976437603"><ele>-1.0</ele><time>2026-03-29T13:51:41Z</time></trkpt><trkpt lat="44.739185014441425" lon="11.988028398048542"><ele>-1.0</ele><time>2026-03-29T13:51:43Z</time></trkpt><trkpt lat="44.73914242581444" lon="11.988129169702276"><ele>-1.0</ele><time>2026-03-29T13:51:44Z</time></trkpt><trkpt lat="44.73909913719439" lon="11.988253138701811"><ele>-1.0</ele><time>2026-03-29T13:51:45Z</time></trkpt><trkpt lat="44.739059975301714" lon="11.988373308615952"><ele>-1.0</ele><time>2026-03-29T13:51:46Z</time></trkpt><trkpt lat="44.73902862794139" lon="11.988464700718037"><ele>-1.0</ele><time>2026-03-29T13:51:47Z</time></trkpt><trkpt lat="44.7389793805827" lon="11.9886151471782"><ele>-1.2000000000000002</ele><time>2026-03-29T13:51:49Z</time></trkpt><trkpt lat="44.73892739328167" lon="11.988754840920429"><ele>-1.4000000000000001</ele><time>2026-03-29T13:51:51Z</time></trkpt><trkpt lat="44.73889796659756" lon="11.98883810101074"><ele>-1.6</ele><time>2026-03-29T13:51:51.999Z</time></trkpt><trkpt lat="44.73886942046764" lon="11.988929546757046"><ele>-1.8</ele><time>2026-03-29T13:51:52.999Z</time></trkpt><trkpt lat="44.73881281412624" lon="11.9890756248236"><ele>-2.0</ele><time>2026-03-29T13:51:54.999Z</time></trkpt><trkpt lat="44.738759586186426" lon="11.989226005508785"><ele>-2.0</ele><time>2026-03-29T13:51:56.999Z</time></trkpt><trkpt lat="44.738700845998885" lon="11.989360439618915"><ele>-2.0</ele><time>2026-03-29T13:51:58.999Z</time></trkpt><trkpt lat="44.7386527696469" lon="11.989464845543223"><ele>-2.0</ele><time>2026-03-29T13:52:00.999Z</time></trkpt><trkpt lat="44.73862565757636" lon="11.989568560264978"><ele>-2.0</ele><time>2026-03-29T13:52:57Z</time></trkpt><trkpt lat="44.73858279428498" lon="11.989669241225531"><ele>-2.0</ele><time>2026-03-29T13:52:59Z</time></trkpt><trkpt lat="44.73855683452503" lon="11.989789930699862"><ele>-1.8</ele><time>2026-03-29T13:53:01Z</time></trkpt><trkpt lat="44.73850950895182" lon="11.989908675952057"><ele>-1.6</ele><time>2026-03-29T13:53:03Z</time></trkpt><trkpt lat="44.73845746636355" lon="11.990060610543365"><ele>-1.4000000000000001</ele><time>2026-03-29T13:53:05Z</time></trkpt><trkpt lat="44.73841230340937" lon="11.990193818053257"><ele>-1.2000000000000002</ele><time>2026-03-29T13:53:07Z</time></trkpt><trkpt lat="44.7383681507241" lon="11.990320416056065"><ele>-1.0</ele><time>2026-03-29T13:53:09Z</time></trkpt><trkpt lat="44.738328646557555" lon="11.990449937278607"><ele>-0.8</ele><time>2026-03-29T13:53:11Z</time></trkpt><trkpt lat="44.738275573799356" lon="11.990576614866587"><ele>-0.6000000000000001</ele><time>2026-03-29T13:53:13Z</time></trkpt><trkpt lat="44.73823254965152" lon="11.990701679772604"><ele>-0.4</ele><time>2026-03-29T13:53:15Z</time></trkpt><trkpt lat="44.738190129771944" lon="11.990827418372595"><ele>-0.2</ele><time>2026-03-29T13:53:17Z</time></trkpt><trkpt lat="44.73814099990008" lon="11.990953588051692"><ele>0.0</ele><time>2026-03-29T13:53:19Z</time></trkpt><trkpt lat="44.73809305929513" lon="11.991086272394679"><ele>-0.3333333333333333</ele><time>2026-03-29T13:53:21Z</time></trkpt><trkpt lat="44.73803850660082" lon="11.991231821600834"><ele>-0.6666666666666666</ele><time>2026-03-29T13:53:23Z</time></trkpt><trkpt lat="44.73800805761228" lon="11.991317087733373"><ele>-1.0</ele><time>2026-03-29T13:53:24Z</time></trkpt><trkpt lat="44.73797431388833" lon="11.991407602371664"><ele>-1.3333333333333333</ele><time>2026-03-29T13:53:25Z</time></trkpt><trkpt lat="44.73794562908249" lon="11.991497721588319"><ele>-1.6666666666666665</ele><time>2026-03-29T13:53:26Z</time></trkpt><trkpt lat="44.73791157294839" lon="11.991597185190328"><ele>-2.0</ele><time>2026-03-29T13:53:27Z</time></trkpt><trkpt lat="44.73786634006336" lon="11.991713650179108"><ele>-1.9999999999999998</ele><time>2026-03-29T13:53:28Z</time></trkpt><trkpt lat="44.737829639424575" lon="11.991814842758465"><ele>-2.0</ele><time>2026-03-29T13:53:29Z</time></trkpt><trkpt lat="44.737797972976935" lon="11.991909211275553"><ele>-2.0</ele><time>2026-03-29T13:53:30Z</time></trkpt><trkpt lat="44.737744696374584" lon="11.992074450738547"><ele>-2.0</ele><time>2026-03-29T13:53:32Z</time></trkpt><trkpt lat="44.737708698950264" lon="11.99215900021125"><ele>-1.9999999999999998</ele><time>2026-03-29T13:53:33Z</time></trkpt><trkpt lat="44.73767765191573" lon="11.992240478459534"><ele>-2.0</ele><time>2026-03-29T13:53:34Z</time></trkpt><trkpt lat="44.737647582964755" lon="11.992322949807887"><ele>-1.6666666666666665</ele><time>2026-03-29T13:53:35Z</time></trkpt><trkpt lat="44.73761659810289" lon="11.99240998331292"><ele>-1.3333333333333333</ele><time>2026-03-29T13:53:36Z</time></trkpt><trkpt lat="44.73758435020568" lon="11.992492986875375"><ele>-1.0</ele><time>2026-03-29T13:53:37Z</time></trkpt><trkpt lat="44.73755669775283" lon="11.992579140073827"><ele>-0.6666666666666666</ele><time>2026-03-29T13:53:38Z</time></trkpt><trkpt lat="44.737496573942856" lon="11.992741446133659"><ele>-0.3333333333333333</ele><time>2026-03-29T13:53:40Z</time></trkpt><trkpt lat="44.73747012796583" lon="11.992833564337156"><ele>0.0</ele><time>2026-03-29T13:53:41Z</time></trkpt><trkpt lat="44.73743988147359" lon="11.992921720332832"><ele>0.0</ele><time>2026-03-29T13:53:42Z</time></trkpt><trkpt lat="44.737406913012734" lon="11.993015389491443"><ele>0.0</ele><time>2026-03-29T13:53:43Z</time></trkpt><trkpt lat="44.7373533279023" lon="11.993169637963442"><ele>0.0</ele><time>2026-03-29T13:53:45Z</time></trkpt><trkpt lat="44.73732756666874" lon="11.993252414756846"><ele>0.0</ele><time>2026-03-29T13:53:46Z</time></trkpt><trkpt lat="44.73726528111795" lon="11.993405669634576"><ele>0.0</ele><time>2026-03-29T13:53:48Z</time></trkpt><trkpt lat="44.737215240208606" lon="11.993561488796617"><ele>-0.2857142857142857</ele><time>2026-03-29T13:53:50Z</time></trkpt><trkpt lat="44.73718799530512" lon="11.99364312009161"><ele>-0.5714285714285714</ele><time>2026-03-29T13:53:51Z</time></trkpt><trkpt lat="44.73716171700248" lon="11.993726989472172"><ele>-0.8571428571428571</ele><time>2026-03-29T13:53:52Z</time></trkpt><trkpt lat="44.73713385587597" lon="11.99380842014426"><ele>-1.1428571428571428</ele><time>2026-03-29T13:53:53Z</time></trkpt><trkpt lat="44.73710332787443" lon="11.993891115278808"><ele>-1.4285714285714284</ele><time>2026-03-29T13:53:54Z</time></trkpt><trkpt lat="44.73707666942227" lon="11.993979260728455"><ele>-1.7142857142857142</ele><time>2026-03-29T13:53:55Z</time></trkpt><trkpt lat="44.73705374009664" lon="11.994062850731417"><ele>-2.0</ele><time>2026-03-29T13:53:56Z</time></trkpt><trkpt lat="44.73703084480635" lon="11.994151371412054"><ele>-1.6666666666666665</ele><time>2026-03-29T13:53:57Z</time></trkpt><trkpt lat="44.73700569892459" lon="11.994242918465678"><ele>-1.3333333333333333</ele><time>2026-03-29T13:53:58Z</time></trkpt><trkpt lat="44.73697823501312" lon="11.994404991994845"><ele>-1.0</ele><time>2026-03-29T13:54:00Z</time></trkpt><trkpt lat="44.736962382513724" lon="11.994498291831103"><ele>-0.6666666666666666</ele><time>2026-03-29T13:54:01Z</time></trkpt><trkpt lat="44.736944867258806" lon="11.994599675933006"><ele>-0.3333333333333333</ele><time>2026-03-29T13:54:02Z</time></trkpt><trkpt lat="44.73693376937512" lon="11.994687239243314"><ele>0.0</ele><time>2026-03-29T13:54:03Z</time></trkpt><trkpt lat="44.73691537532515" lon="11.994789797942802"><ele>0.0</ele><time>2026-03-29T13:54:04Z</time></trkpt><trkpt lat="44.736902370291936" lon="11.994893334291083"><ele>0.0</ele><time>2026-03-29T13:54:05Z</time></trkpt><trkpt lat="44.736885223020614" lon="11.994997786102628"><ele>0.0</ele><time>2026-03-29T13:54:06Z</time></trkpt><trkpt lat="44.736870087197815" lon="11.995093211038878"><ele>0.0</ele><time>2026-03-29T13:54:07Z</time></trkpt><trkpt lat="44.73685881462924" lon="11.995186456941433"><ele>0.0</ele><time>2026-03-29T13:54:08Z</time></trkpt><trkpt lat="44.73683540463018" lon="11.995358921309704"><ele>0.0</ele><time>2026-03-29T13:54:10Z</time></trkpt><trkpt lat="44.73681975903992" lon="11.995455732597591"><ele>0.0</ele><time>2026-03-29T13:54:11Z</time></trkpt><trkpt lat="44.7367997311208" lon="11.995553677464576"><ele>0.0</ele><time>2026-03-29T13:54:12Z</time></trkpt><trkpt lat="44.73678366264196" lon="11.995650629149427"><ele>0.0</ele><time>2026-03-29T13:54:13Z</time></trkpt><trkpt lat="44.73677429018326" lon="11.995741579584399"><ele>0.0</ele><time>2026-03-29T13:54:14Z</time></trkpt><trkpt lat="44.736752358532954" lon="11.995840352275966"><ele>0.0</ele><time>2026-03-29T13:54:15Z</time></trkpt><trkpt lat="44.73673565417037" lon="11.995940999268297"><ele>0.0</ele><time>2026-03-29T13:54:16Z</time></trkpt><trkpt lat="44.736719334782975" lon="11.996034137066045"><ele>0.0</ele><time>2026-03-29T13:54:17Z</time></trkpt><trkpt lat="44.73670285320402" lon="11.996121648919695"><ele>0.0</ele><time>2026-03-29T13:54:18Z</time></trkpt><trkpt lat="44.736686983949376" lon="11.996214637739655"><ele>0.0</ele><time>2026-03-29T13:54:19Z</time></trkpt><trkpt lat="44.736675026727305" lon="11.996305990888848"><ele>0.0</ele><time>2026-03-29T13:54:20Z</time></trkpt><trkpt lat="44.73664778658254" lon="11.996481824353529"><ele>0.0</ele><time>2026-03-29T13:54:22Z</time></trkpt><trkpt lat="44.73663053308601" lon="11.996574265218358"><ele>0.0</ele><time>2026-03-29T13:54:23Z</time></trkpt><trkpt lat="44.736613864121324" lon="11.996668352251264"><ele>0.0</ele><time>2026-03-29T13:54:24Z</time></trkpt><trkpt lat="44.73659776639079" lon="11.996767562931597"><ele>0.0</ele><time>2026-03-29T13:54:25Z</time></trkpt><trkpt lat="44.73658017421714" lon="11.996867151832696"><ele>0.0</ele><time>2026-03-29T13:54:26Z</time></trkpt><trkpt lat="44.73656841819666" lon="11.996962317941483"><ele>0.0</ele><time>2026-03-29T13:54:27Z</time></trkpt><trkpt lat="44.736556061950175" lon="11.997062260783844"><ele>0.0</ele><time>2026-03-29T13:54:28Z</time></trkpt><trkpt lat="44.73654101898811" lon="11.997154120140658"><ele>0.0</ele><time>2026-03-29T13:54:29Z</time></trkpt><trkpt lat="44.73653060576429" lon="11.997246324770785"><ele>0.0</ele><time>2026-03-29T13:54:30Z</time></trkpt><trkpt lat="44.736514590474776" lon="11.99734586145328"><ele>0.0</ele><time>2026-03-29T13:54:31Z</time></trkpt><trkpt lat="44.73649870761872" lon="11.997446428508027"><ele>-0.42857142857142855</ele><time>2026-03-29T13:54:32Z</time></trkpt><trkpt lat="44.736479279198704" lon="11.997546301953026"><ele>-0.8571428571428571</ele><time>2026-03-29T13:54:33Z</time></trkpt><trkpt lat="44.736451696305416" lon="11.997641236611848"><ele>-1.2857142857142856</ele><time>2026-03-29T13:54:34Z</time></trkpt><trkpt lat="44.73644319254295" lon="11.997736501863804"><ele>-1.7142857142857142</ele><time>2026-03-29T13:54:35Z</time></trkpt><trkpt lat="44.73642914084806" lon="11.99783855912639"><ele>-2.142857142857143</ele><time>2026-03-29T13:54:36Z</time></trkpt><trkpt lat="44.73641224045129" lon="11.997937682644428"><ele>-2.571428571428571</ele><time>2026-03-29T13:54:37Z</time></trkpt><trkpt lat="44.73639713994598" lon="11.998028314339235"><ele>-3.0</ele><time>2026-03-29T13:54:38Z</time></trkpt><trkpt lat="44.7363824635511" lon="11.998127093640674"><ele>-2.9999999999999996</ele><time>2026-03-29T13:54:39Z</time></trkpt><trkpt lat="44.736365763620654" lon="11.998229938323865"><ele>-3.0</ele><time>2026-03-29T13:54:40Z</time></trkpt><trkpt lat="44.73635233606878" lon="11.99832714275705"><ele>-3.0</ele><time>2026-03-29T13:54:41Z</time></trkpt><trkpt lat="44.73633800022409" lon="11.998430276456169"><ele>-3.0</ele><time>2026-03-29T13:54:42Z</time></trkpt><trkpt lat="44.736318642836515" lon="11.998526807330984"><ele>-3.0</ele><time>2026-03-29T13:54:43Z</time></trkpt><trkpt lat="44.736304273569765" lon="11.998616562607335"><ele>-2.9999999999999996</ele><time>2026-03-29T13:54:44Z</time></trkpt><trkpt lat="44.73628994765223" lon="11.998716229748808"><ele>-3.0</ele><time>2026-03-29T13:54:45Z</time></trkpt><trkpt lat="44.73627402884728" lon="11.998809987623263"><ele>-3.0</ele><time>2026-03-29T13:54:46Z</time></trkpt><trkpt lat="44.73624370119945" lon="11.999002410513334"><ele>-3.0</ele><time>2026-03-29T13:54:48Z</time></trkpt><trkpt lat="44.736233870282064" lon="11.999096075083449"><ele>-3.0</ele><time>2026-03-29T13:54:49Z</time></trkpt><trkpt lat="44.73621844480677" lon="11.999190516380857"><ele>-3.0</ele><time>2026-03-29T13:54:50Z</time></trkpt><trkpt lat="44.73620229372595" lon="11.999292500253919"><ele>-3.0</ele><time>2026-03-29T13:54:51Z</time></trkpt><trkpt lat="44.73618636523069" lon="11.999385515016096"><ele>-3.0</ele><time>2026-03-29T13:54:52Z</time></trkpt><trkpt lat="44.736172995572524" lon="11.999491378423208"><ele>-3.1428571428571423</ele><time>2026-03-29T13:54:53Z</time></trkpt><trkpt lat="44.73615939769243" lon="11.999595170275255"><ele>-3.2857142857142856</ele><time>2026-03-29T13:54:54Z</time></trkpt><trkpt lat="44.73614306725076" lon="11.999692861081213"><ele>-3.4285714285714284</ele><time>2026-03-29T13:54:55Z</time></trkpt><trkpt lat="44.736132328122146" lon="11.999793496455158"><ele>-3.571428571428571</ele><time>2026-03-29T13:54:56Z</time></trkpt><trkpt lat="44.736118334360064" lon="11.999902204614184"><ele>-3.714285714285714</ele><time>2026-03-29T13:54:57Z</time></trkpt><trkpt lat="44.73610278072904" lon="12.000009448632284"><ele>-3.8571428571428568</ele><time>2026-03-29T13:54:58Z</time></trkpt><trkpt lat="44.73608373136471" lon="12.0001091143638"><ele>-4.0</ele><time>2026-03-29T13:54:59Z</time></trkpt><trkpt lat="44.736068200338" lon="12.000203312571522"><ele>-3.8571428571428568</ele><time>2026-03-29T13:55:00Z</time></trkpt><trkpt lat="44.73605186886752" lon="12.00029779955716"><ele>-3.714285714285714</ele><time>2026-03-29T13:55:01Z</time></trkpt><trkpt lat="44.736035248442455" lon="12.00039797615136"><ele>-3.571428571428571</ele><time>2026-03-29T13:55:02Z</time></trkpt><trkpt lat="44.73602290473524" lon="12.000488911514287"><ele>-3.4285714285714284</ele><time>2026-03-29T13:55:03Z</time></trkpt><trkpt lat="44.736008543036405" lon="12.000591129389239"><ele>-3.2857142857142856</ele><time>2026-03-29T13:55:04Z</time></trkpt><trkpt lat="44.735994291278544" lon="12.000685631926013"><ele>-3.1428571428571423</ele><time>2026-03-29T13:55:05Z</time></trkpt><trkpt lat="44.73598006579717" lon="12.000781580056136"><ele>-3.0</ele><time>2026-03-29T13:55:06Z</time></trkpt><trkpt lat="44.735963137461404" lon="12.000886794197728"><ele>-2.714285714285714</ele><time>2026-03-29T13:55:07Z</time></trkpt><trkpt lat="44.73594507164205" lon="12.000989347735224"><ele>-2.4285714285714284</ele><time>2026-03-29T13:55:08Z</time></trkpt><trkpt lat="44.73592556242507" lon="12.001084738863186"><ele>-2.142857142857143</ele><time>2026-03-29T13:55:09Z</time></trkpt><trkpt lat="44.73590762504259" lon="12.001182333363326"><ele>-1.857142857142857</ele><time>2026-03-29T13:55:10Z</time></trkpt><trkpt lat="44.73589158481997" lon="12.001288917602226"><ele>-1.5714285714285712</ele><time>2026-03-29T13:55:11Z</time></trkpt><trkpt lat="44.735874537684516" lon="12.001398752598623"><ele>-1.2857142857142856</ele><time>2026-03-29T13:55:12Z</time></trkpt><trkpt lat="44.73585891838501" lon="12.001499951145563"><ele>-1.0</ele><time>2026-03-29T13:55:13Z</time></trkpt><trkpt lat="44.73584332073195" lon="12.001604793945626"><ele>-1.3333333333333333</ele><time>2026-03-29T13:55:14Z</time></trkpt><trkpt lat="44.735827056432505" lon="12.001696421776854"><ele>-1.6666666666666665</ele><time>2026-03-29T13:55:15Z</time></trkpt><trkpt lat="44.735811076952466" lon="12.001809760498146"><ele>-2.0</ele><time>2026-03-29T13:55:16Z</time></trkpt><trkpt lat="44.73579017930863" lon="12.001924335553339"><ele>-2.3333333333333335</ele><time>2026-03-29T13:55:17Z</time></trkpt><trkpt lat="44.73577227023899" lon="12.002028504168434"><ele>-2.6666666666666665</ele><time>2026-03-29T13:55:18Z</time></trkpt><trkpt lat="44.7357556224492" lon="12.00213383763952"><ele>-3.0</ele><time>2026-03-29T13:55:19Z</time></trkpt><trkpt lat="44.73573842141848" lon="12.0022408567175"><ele>-2.9999999999999996</ele><time>2026-03-29T13:55:20Z</time></trkpt><trkpt lat="44.73572616710465" lon="12.002337803369866"><ele>-3.0</ele><time>2026-03-29T13:55:21Z</time></trkpt><trkpt lat="44.73570960369163" lon="12.002445012082298"><ele>-3.0</ele><time>2026-03-29T13:55:22Z</time></trkpt><trkpt lat="44.73569553206138" lon="12.002538124931363"><ele>-3.0</ele><time>2026-03-29T13:55:23Z</time></trkpt><trkpt lat="44.73568085373487" lon="12.002634204844165"><ele>-3.0</ele><time>2026-03-29T13:55:24Z</time></trkpt><trkpt lat="44.7356616975047" lon="12.002737430775168"><ele>-2.9999999999999996</ele><time>2026-03-29T13:55:25Z</time></trkpt><trkpt lat="44.735647164563815" lon="12.002833474813015"><ele>-3.0</ele><time>2026-03-29T13:55:26Z</time></trkpt><trkpt lat="44.7356301766235" lon="12.002929656462369"><ele>-2.9999999999999996</ele><time>2026-03-29T13:55:27Z</time></trkpt><trkpt lat="44.73561416286756" lon="12.003034839163272"><ele>-3.0</ele><time>2026-03-29T13:55:28Z</time></trkpt><trkpt lat="44.73559799571876" lon="12.003126724823712"><ele>-3.0</ele><time>2026-03-29T13:55:29Z</time></trkpt><trkpt lat="44.7355805182354" lon="12.003226466311423"><ele>-3.0</ele><time>2026-03-29T13:55:30Z</time></trkpt><trkpt lat="44.73556198790681" lon="12.003328430801304"><ele>-3.0</ele><time>2026-03-29T13:55:31Z</time></trkpt><trkpt lat="44.73554739162905" lon="12.003430377511815"><ele>-2.9999999999999996</ele><time>2026-03-29T13:55:32Z</time></trkpt><trkpt lat="44.73553141460277" lon="12.003525495490603"><ele>-3.0</ele><time>2026-03-29T13:55:33Z</time></trkpt><trkpt lat="44.735517577139404" lon="12.003623150917171"><ele>-3.1428571428571423</ele><time>2026-03-29T13:55:34Z</time></trkpt><trkpt lat="44.73550046289935" lon="12.00372098487666"><ele>-3.2857142857142856</ele><time>2026-03-29T13:55:35Z</time></trkpt><trkpt lat="44.73548563223788" lon="12.0038163093897"><ele>-3.4285714285714284</ele><time>2026-03-29T13:55:36Z</time></trkpt><trkpt lat="44.73547098560275" lon="12.00391541475528"><ele>-3.571428571428571</ele><time>2026-03-29T13:55:37Z</time></trkpt><trkpt lat="44.735457112332185" lon="12.004004390845909"><ele>-3.714285714285714</ele><time>2026-03-29T13:55:38Z</time></trkpt><trkpt lat="44.73544784448443" lon="12.004093592726612"><ele>-3.8571428571428568</ele><time>2026-03-29T13:55:39Z</time></trkpt><trkpt lat="44.7354343909079" lon="12.004186858860631"><ele>-4.0</ele><time>2026-03-29T13:55:40Z</time></trkpt><trkpt lat="44.73541540094975" lon="12.004299565932175"><ele>-4.0</ele><time>2026-03-29T13:55:41Z</time></trkpt><trkpt lat="44.73539487074329" lon="12.00442654089592"><ele>-4.0</ele><time>2026-03-29T13:55:42Z</time></trkpt><trkpt lat="44.735373200579986" lon="12.004566241198082"><ele>-4.0</ele><time>2026-03-29T13:55:43Z</time></trkpt><trkpt lat="44.735347681868106" lon="12.004699013445654"><ele>-4.0</ele><time>2026-03-29T13:55:44Z</time></trkpt><trkpt lat="44.73532280955605" lon="12.004840543980798"><ele>-4.0</ele><time>2026-03-29T13:55:45Z</time></trkpt><trkpt lat="44.73530287910751" lon="12.00495615927678"><ele>-4.166666666666666</ele><time>2026-03-29T13:55:46Z</time></trkpt><trkpt lat="44.73528699022834" lon="12.005054743001812"><ele>-4.333333333333333</ele><time>2026-03-29T13:55:47Z</time></trkpt><trkpt lat="44.73527334429984" lon="12.005153022622553"><ele>-4.5</ele><time>2026-03-29T13:55:48Z</time></trkpt><trkpt lat="44.73526109427535" lon="12.005246828548957"><ele>-4.666666666666667</ele><time>2026-03-29T13:55:49Z</time></trkpt><trkpt lat="44.73524778298755" lon="12.005351990748641"><ele>-4.833333333333334</ele><time>2026-03-29T13:55:50Z</time></trkpt><trkpt lat="44.73523622879635" lon="12.00544033566374"><ele>-5.0</ele><time>2026-03-29T13:55:51Z</time></trkpt><trkpt lat="44.735211051342766" lon="12.00561433249034"><ele>-5.0</ele><time>2026-03-29T13:55:53Z</time></trkpt><trkpt lat="44.73519927745501" lon="12.00570184022979"><ele>-5.0</ele><time>2026-03-29T13:55:54Z</time></trkpt><trkpt lat="44.735187732970694" lon="12.005795046024842"><ele>-5.0</ele><time>2026-03-29T13:55:55Z</time></trkpt><trkpt lat="44.73515624375159" lon="12.005970687544592"><ele>-5.0</ele><time>2026-03-29T13:55:57Z</time></trkpt><trkpt lat="44.735141422235806" lon="12.006064029217066"><ele>-5.0</ele><time>2026-03-29T13:55:58Z</time></trkpt><trkpt lat="44.73512625880971" lon="12.006155564720077"><ele>-5.0</ele><time>2026-03-29T13:55:59Z</time></trkpt><trkpt lat="44.73511314253101" lon="12.006253681039412"><ele>-5.2</ele><time>2026-03-29T13:56:00Z</time></trkpt><trkpt lat="44.735100492827954" lon="12.00635707226115"><ele>-5.4</ele><time>2026-03-29T13:56:01Z</time></trkpt><trkpt lat="44.73507704566305" lon="12.006524286621048"><ele>-5.6</ele><time>2026-03-29T13:56:03Z</time></trkpt><trkpt lat="44.7350583061059" lon="12.006690433545419"><ele>-5.8</ele><time>2026-03-29T13:56:05Z</time></trkpt><trkpt lat="44.73503245962704" lon="12.006863400889298"><ele>-6.0</ele><time>2026-03-29T13:56:07Z</time></trkpt><trkpt lat="44.73500705168683" lon="12.00704285463126"><ele>-5.6</ele><time>2026-03-29T13:56:09Z</time></trkpt><trkpt lat="44.734979703742795" lon="12.007227458888355"><ele>-5.199999999999999</ele><time>2026-03-29T13:56:11Z</time></trkpt><trkpt lat="44.73496278947116" lon="12.00732833756135"><ele>-4.800000000000001</ele><time>2026-03-29T13:56:12Z</time></trkpt><trkpt lat="44.73494749570387" lon="12.007433464250129"><ele>-4.4</ele><time>2026-03-29T13:56:13Z</time></trkpt><trkpt lat="44.73492717570378" lon="12.007551648104645"><ele>-4.0</ele><time>2026-03-29T13:56:14Z</time></trkpt><trkpt lat="44.73490542980948" lon="12.007681548237374"><ele>-4.0</ele><time>2026-03-29T13:56:15Z</time></trkpt><trkpt lat="44.734886001386634" lon="12.007801667434146"><ele>-4.0</ele><time>2026-03-29T13:56:16Z</time></trkpt><trkpt lat="44.73486319781406" lon="12.007941049091373"><ele>-4.0</ele><time>2026-03-29T13:56:17Z</time></trkpt><trkpt lat="44.73483578434341" lon="12.008101366520293"><ele>-4.0</ele><time>2026-03-29T13:56:18Z</time></trkpt><trkpt lat="44.73481321383002" lon="12.008238671700623"><ele>-4.0</ele><time>2026-03-29T13:56:19Z</time></trkpt><trkpt lat="44.73479899335277" lon="12.008348389724304"><ele>-4.0</ele><time>2026-03-29T13:56:20Z</time></trkpt><trkpt lat="44.734784849024784" lon="12.00843942570225"><ele>-3.9999999999999996</ele><time>2026-03-29T13:56:21Z</time></trkpt><trkpt lat="44.73476795382501" lon="12.008540174529479"><ele>-4.0</ele><time>2026-03-29T13:56:22Z</time></trkpt><trkpt lat="44.73474873301834" lon="12.008654530525112"><ele>-4.0</ele><time>2026-03-29T13:56:23Z</time></trkpt><trkpt lat="44.73473170768144" lon="12.008760988731986"><ele>-3.9999999999999996</ele><time>2026-03-29T13:56:24Z</time></trkpt><trkpt lat="44.73471395987228" lon="12.008858994331382"><ele>-4.0</ele><time>2026-03-29T13:56:25Z</time></trkpt><trkpt lat="44.73470131876829" lon="12.008954791175174"><ele>-4.0</ele><time>2026-03-29T13:56:26Z</time></trkpt><trkpt lat="44.73468302180202" lon="12.009064250983817"><ele>-3.6666666666666665</ele><time>2026-03-29T13:56:27Z</time></trkpt><trkpt lat="44.734669884708715" lon="12.00917089807508"><ele>-3.333333333333333</ele><time>2026-03-29T13:56:28Z</time></trkpt><trkpt lat="44.73465530764506" lon="12.009274971633516"><ele>-3.0</ele><time>2026-03-29T13:56:29Z</time></trkpt><trkpt lat="44.734643451074945" lon="12.009364001633154"><ele>-2.6666666666666665</ele><time>2026-03-29T13:56:30Z</time></trkpt><trkpt lat="44.73462716452675" lon="12.009505118409262"><ele>-2.333333333333333</ele><time>2026-03-29T13:56:32Z</time></trkpt><trkpt lat="44.73460795298275" lon="12.00963258161591"><ele>-2.0</ele><time>2026-03-29T13:56:34Z</time></trkpt><trkpt lat="44.73459357356093" lon="12.009723181698211"><ele>-2.0</ele><time>2026-03-29T13:56:36Z</time></trkpt><trkpt lat="44.734620301092924" lon="12.009829275562145"><ele>-1.9999999999999998</ele><time>2026-03-29T13:56:40Z</time></trkpt><trkpt lat="44.734664720443114" lon="12.009751254010851"><ele>-2.0</ele><time>2026-03-29T14:02:57Z</time></trkpt><trkpt lat="44.73463351476206" lon="12.009659025498872"><ele>-2.0</ele><time>2026-03-29T14:02:59Z</time></trkpt><trkpt lat="44.73462822116407" lon="12.009562559433887"><ele>-1.9999999999999998</ele><time>2026-03-29T14:03:00Z</time></trkpt><trkpt lat="44.73463143725657" lon="12.009472082371554"><ele>-2.0</ele><time>2026-03-29T14:03:01Z</time></trkpt><trkpt lat="44.73467808642666" lon="12.00936928960141"><ele>-2.0</ele><time>2026-03-29T14:03:03Z</time></trkpt><trkpt lat="44.734697911552736" lon="12.009239773609389"><ele>-2.4000000000000004</ele><time>2026-03-29T14:03:05Z</time></trkpt><trkpt lat="44.73471551060318" lon="12.009125739310608"><ele>-2.8000000000000003</ele><time>2026-03-29T14:03:07Z</time></trkpt><trkpt lat="44.73472499117325" lon="12.00895723123383"><ele>-3.2</ele><time>2026-03-29T14:03:09Z</time></trkpt><trkpt lat="44.73474962381062" lon="12.00884990148716"><ele>-3.6</ele><time>2026-03-29T14:03:10Z</time></trkpt><trkpt lat="44.73476172224513" lon="12.00873680263465"><ele>-4.0</ele><time>2026-03-29T14:03:11Z</time></trkpt><trkpt lat="44.73478612622858" lon="12.008597469365148"><ele>-4.0</ele><time>2026-03-29T14:03:12Z</time></trkpt><trkpt lat="44.73480861979919" lon="12.008478770798357"><ele>-4.0</ele><time>2026-03-29T14:03:13Z</time></trkpt><trkpt lat="44.73482297580071" lon="12.008390634151556"><ele>-4.0</ele><time>2026-03-29T14:03:14Z</time></trkpt><trkpt lat="44.734848697538446" lon="12.008197173031409"><ele>-4.0</ele><time>2026-03-29T14:03:16Z</time></trkpt><trkpt lat="44.73486793425804" lon="12.008077133275798"><ele>-4.0</ele><time>2026-03-29T14:03:17Z</time></trkpt><trkpt lat="44.73488785119645" lon="12.007944539882663"><ele>-3.9999999999999996</ele><time>2026-03-29T14:03:18Z</time></trkpt><trkpt lat="44.73490850361658" lon="12.00782308881821"><ele>-4.0</ele><time>2026-03-29T14:03:19Z</time></trkpt><trkpt lat="44.734923056846206" lon="12.007714742357777"><ele>-4.0</ele><time>2026-03-29T14:03:20Z</time></trkpt><trkpt lat="44.73493823283145" lon="12.007606658267362"><ele>-4.0</ele><time>2026-03-29T14:03:21Z</time></trkpt><trkpt lat="44.73495396819387" lon="12.007504145011385"><ele>-3.9999999999999996</ele><time>2026-03-29T14:03:22Z</time></trkpt><trkpt lat="44.73497315137476" lon="12.007395258918132"><ele>-4.0</ele><time>2026-03-29T14:03:23Z</time></trkpt><trkpt lat="44.73498875735799" lon="12.00727891408511"><ele>-3.9999999999999996</ele><time>2026-03-29T14:03:24Z</time></trkpt><trkpt lat="44.73500877104031" lon="12.00715429645752"><ele>-4.0</ele><time>2026-03-29T14:03:25Z</time></trkpt><trkpt lat="44.73502307122045" lon="12.007042420091782"><ele>-4.0</ele><time>2026-03-29T14:03:26Z</time></trkpt><trkpt lat="44.735039529726336" lon="12.006927870448045"><ele>-4.0</ele><time>2026-03-29T14:03:27Z</time></trkpt><trkpt lat="44.73505401300607" lon="12.006824147377507"><ele>-3.9999999999999996</ele><time>2026-03-29T14:03:28Z</time></trkpt><trkpt lat="44.735069126755235" lon="12.006714129476023"><ele>-4.0</ele><time>2026-03-29T14:03:29Z</time></trkpt><trkpt lat="44.73508709801729" lon="12.00658876923617"><ele>-4.285714285714286</ele><time>2026-03-29T14:03:30Z</time></trkpt><trkpt lat="44.735103239533004" lon="12.006465437754432"><ele>-4.571428571428571</ele><time>2026-03-29T14:03:31Z</time></trkpt><trkpt lat="44.73513275875067" lon="12.006375168032266"><ele>-4.857142857142857</ele><time>2026-03-29T14:03:32Z</time></trkpt><trkpt lat="44.73514742979994" lon="12.006277719972902"><ele>-5.142857142857142</ele><time>2026-03-29T14:03:33Z</time></trkpt><trkpt lat="44.73516200289469" lon="12.006180922246626"><ele>-5.428571428571429</ele><time>2026-03-29T14:03:34Z</time></trkpt><trkpt lat="44.735177464088" lon="12.006078226167885"><ele>-5.7142857142857135</ele><time>2026-03-29T14:03:35Z</time></trkpt><trkpt lat="44.735191138581875" lon="12.00598739733901"><ele>-6.0</ele><time>2026-03-29T14:03:36Z</time></trkpt><trkpt lat="44.735205351104625" lon="12.00589299475704"><ele>-5.833333333333333</ele><time>2026-03-29T14:03:37Z</time></trkpt><trkpt lat="44.73520589103568" lon="12.005778940882674"><ele>-5.666666666666667</ele><time>2026-03-29T14:03:38Z</time></trkpt><trkpt lat="44.73524138974493" lon="12.005653619226605"><ele>-5.5</ele><time>2026-03-29T14:03:39Z</time></trkpt><trkpt lat="44.73525928773221" lon="12.005534736796408"><ele>-5.333333333333334</ele><time>2026-03-29T14:03:40Z</time></trkpt><trkpt lat="44.735278860726126" lon="12.005404729371401"><ele>-5.166666666666667</ele><time>2026-03-29T14:03:41Z</time></trkpt><trkpt lat="44.735296619129635" lon="12.005286774315723"><ele>-5.0</ele><time>2026-03-29T14:03:42Z</time></trkpt><trkpt lat="44.735315245452306" lon="12.005163054591547"><ele>-5.0</ele><time>2026-03-29T14:03:43Z</time></trkpt><trkpt lat="44.735333611073" lon="12.005041066349596"><ele>-5.0</ele><time>2026-03-29T14:03:44Z</time></trkpt><trkpt lat="44.735351942616525" lon="12.004919304425567"><ele>-5.0</ele><time>2026-03-29T14:03:45Z</time></trkpt><trkpt lat="44.73536922240295" lon="12.004804528890416"><ele>-5.0</ele><time>2026-03-29T14:03:46Z</time></trkpt><trkpt lat="44.73538684966349" lon="12.004687444912422"><ele>-5.0</ele><time>2026-03-29T14:03:47Z</time></trkpt><trkpt lat="44.7354001759511" lon="12.00459892884071"><ele>-5.0</ele><time>2026-03-29T14:03:48Z</time></trkpt><trkpt lat="44.73541472080195" lon="12.004421222200687"><ele>-4.833333333333334</ele><time>2026-03-29T14:03:50Z</time></trkpt><trkpt lat="44.73543294940022" lon="12.004319356198437"><ele>-4.666666666666667</ele><time>2026-03-29T14:03:51Z</time></trkpt><trkpt lat="44.73545796942918" lon="12.004226441806015"><ele>-4.5</ele><time>2026-03-29T14:03:52Z</time></trkpt><trkpt lat="44.73546041992344" lon="12.004134788826622"><ele>-4.333333333333333</ele><time>2026-03-29T14:03:53Z</time></trkpt><trkpt lat="44.73547143623013" lon="12.004043526500418"><ele>-4.166666666666666</ele><time>2026-03-29T14:03:54Z</time></trkpt><trkpt lat="44.73548686310638" lon="12.00395462566948"><ele>-4.0</ele><time>2026-03-29T14:03:55Z</time></trkpt><trkpt lat="44.735516829518396" lon="12.003790869226826"><ele>-4.0</ele><time>2026-03-29T14:03:57Z</time></trkpt><trkpt lat="44.735539993493326" lon="12.003628454621124"><ele>-4.0</ele><time>2026-03-29T14:03:59Z</time></trkpt><trkpt lat="44.73556871494392" lon="12.0034602983292"><ele>-4.0</ele><time>2026-03-29T14:04:01Z</time></trkpt><trkpt lat="44.73558990864141" lon="12.003357253693503"><ele>-4.0</ele><time>2026-03-29T14:04:02Z</time></trkpt><trkpt lat="44.735610309733076" lon="12.003196076347821"><ele>-4.0</ele><time>2026-03-29T14:04:03Z</time></trkpt><trkpt lat="44.73563759704814" lon="12.003016147080118"><ele>-3.833333333333333</ele><time>2026-03-29T14:04:04Z</time></trkpt><trkpt lat="44.735660311381515" lon="12.002883489042278"><ele>-3.6666666666666665</ele><time>2026-03-29T14:04:05Z</time></trkpt><trkpt lat="44.735675476862866" lon="12.002776076659515"><ele>-3.5</ele><time>2026-03-29T14:04:06Z</time></trkpt><trkpt lat="44.73569281075075" lon="12.002668244919054"><ele>-3.333333333333333</ele><time>2026-03-29T14:04:07Z</time></trkpt><trkpt lat="44.7357116189375" lon="12.002556816340322"><ele>-3.1666666666666665</ele><time>2026-03-29T14:04:08Z</time></trkpt><trkpt lat="44.73573328983951" lon="12.002447898369793"><ele>-3.0</ele><time>2026-03-29T14:04:09Z</time></trkpt><trkpt lat="44.73574694751783" lon="12.002346273406241"><ele>-3.0</ele><time>2026-03-29T14:04:10Z</time></trkpt><trkpt lat="44.73576006332391" lon="12.002251688147142"><ele>-3.0</ele><time>2026-03-29T14:04:11Z</time></trkpt><trkpt lat="44.73577448002521" lon="12.002165149965679"><ele>-3.0</ele><time>2026-03-29T14:04:12Z</time></trkpt><trkpt lat="44.73579852842701" lon="12.002047177993825"><ele>-3.0</ele><time>2026-03-29T14:04:14Z</time></trkpt><trkpt lat="44.73581581174046" lon="12.001914795735381"><ele>-3.0</ele><time>2026-03-29T14:04:16Z</time></trkpt><trkpt lat="44.735832087072026" lon="12.0018157380261"><ele>-3.0</ele><time>2026-03-29T14:04:17Z</time></trkpt><trkpt lat="44.73584735281995" lon="12.00169802833648"><ele>-2.6666666666666665</ele><time>2026-03-29T14:04:18Z</time></trkpt><trkpt lat="44.73586158421961" lon="12.00159163476424"><ele>-2.3333333333333335</ele><time>2026-03-29T14:04:19Z</time></trkpt><trkpt lat="44.73588394553334" lon="12.001489118946244"><ele>-2.0</ele><time>2026-03-29T14:04:20Z</time></trkpt><trkpt lat="44.73590114113838" lon="12.001380322178433"><ele>-1.6666666666666665</ele><time>2026-03-29T14:04:21Z</time></trkpt><trkpt lat="44.73592176230272" lon="12.001263451288217"><ele>-1.3333333333333333</ele><time>2026-03-29T14:04:22Z</time></trkpt><trkpt lat="44.73594072254445" lon="12.001134328232189"><ele>-1.0</ele><time>2026-03-29T14:04:23Z</time></trkpt><trkpt lat="44.73595999170422" lon="12.001009026584697"><ele>-1.0</ele><time>2026-03-29T14:04:24Z</time></trkpt><trkpt lat="44.7359840965663" lon="12.000871185772123"><ele>-1.0</ele><time>2026-03-29T14:04:25Z</time></trkpt><trkpt lat="44.73600737515126" lon="12.000706318041686"><ele>-1.0</ele><time>2026-03-29T14:04:26Z</time></trkpt><trkpt lat="44.736024186463666" lon="12.000574158814487"><ele>-1.0</ele><time>2026-03-29T14:04:27Z</time></trkpt><trkpt lat="44.73604311127847" lon="12.00047126740747"><ele>-1.0</ele><time>2026-03-29T14:04:28Z</time></trkpt><trkpt lat="44.73606004985599" lon="12.000374728555395"><ele>-1.5</ele><time>2026-03-29T14:04:29Z</time></trkpt><trkpt lat="44.73607848263052" lon="12.000274282655736"><ele>-2.0</ele><time>2026-03-29T14:04:30Z</time></trkpt><trkpt lat="44.73609395498653" lon="12.000162078416816"><ele>-2.5</ele><time>2026-03-29T14:04:31Z</time></trkpt><trkpt lat="44.73611118717691" lon="12.000042730676721"><ele>-3.0</ele><time>2026-03-29T14:04:32Z</time></trkpt><trkpt lat="44.73613035339209" lon="11.99992872911019"><ele>-3.4999999999999996</ele><time>2026-03-29T14:04:33Z</time></trkpt><trkpt lat="44.736144585530674" lon="11.999825056160427"><ele>-4.0</ele><time>2026-03-29T14:04:34Z</time></trkpt><trkpt lat="44.736165928028946" lon="11.999726132513112"><ele>-4.0</ele><time>2026-03-29T14:04:35Z</time></trkpt><trkpt lat="44.7361736432491" lon="11.999623046976618"><ele>-3.9999999999999996</ele><time>2026-03-29T14:04:36Z</time></trkpt><trkpt lat="44.736191764189165" lon="11.999520051353292"><ele>-4.0</ele><time>2026-03-29T14:04:37Z</time></trkpt><trkpt lat="44.73620847424008" lon="11.999416349104578"><ele>-4.0</ele><time>2026-03-29T14:04:38Z</time></trkpt><trkpt lat="44.73622195155748" lon="11.999310702559082"><ele>-3.9999999999999996</ele><time>2026-03-29T14:04:39Z</time></trkpt><trkpt lat="44.736235559736315" lon="11.999211561157374"><ele>-4.0</ele><time>2026-03-29T14:04:40Z</time></trkpt><trkpt lat="44.73625854724255" lon="11.99910912873306"><ele>-4.0</ele><time>2026-03-29T14:04:41Z</time></trkpt><trkpt lat="44.73626936811594" lon="11.999010914545261"><ele>-3.833333333333333</ele><time>2026-03-29T14:04:42Z</time></trkpt><trkpt lat="44.73628478058921" lon="11.998907523561716"><ele>-3.6666666666666665</ele><time>2026-03-29T14:04:43Z</time></trkpt><trkpt lat="44.73630372576651" lon="11.998804897597203"><ele>-3.5</ele><time>2026-03-29T14:04:44Z</time></trkpt><trkpt lat="44.736318408589135" lon="11.998700384140465"><ele>-3.333333333333333</ele><time>2026-03-29T14:04:45Z</time></trkpt><trkpt lat="44.736333627197126" lon="11.99859394770355"><ele>-3.1666666666666665</ele><time>2026-03-29T14:04:46Z</time></trkpt><trkpt lat="44.73635265772758" lon="11.998483684382869"><ele>-3.0</ele><time>2026-03-29T14:04:47Z</time></trkpt><trkpt lat="44.73636768810995" lon="11.998386917658324"><ele>-3.0</ele><time>2026-03-29T14:04:48Z</time></trkpt><trkpt lat="44.736384008168244" lon="11.998281502739136"><ele>-3.0</ele><time>2026-03-29T14:04:49Z</time></trkpt><trkpt lat="44.73640435533612" lon="11.998181146978446"><ele>-3.0</ele><time>2026-03-29T14:04:50Z</time></trkpt><trkpt lat="44.73641193553786" lon="11.998079728411257"><ele>-3.0</ele><time>2026-03-29T14:04:51Z</time></trkpt><trkpt lat="44.736431421248206" lon="11.997973100071471"><ele>-3.0</ele><time>2026-03-29T14:04:52Z</time></trkpt><trkpt lat="44.736450996350186" lon="11.997865670411507"><ele>-3.0</ele><time>2026-03-29T14:04:53Z</time></trkpt><trkpt lat="44.73646950246789" lon="11.997754532125283"><ele>-3.0</ele><time>2026-03-29T14:04:54Z</time></trkpt><trkpt lat="44.736482484751924" lon="11.99765561215553"><ele>-3.0</ele><time>2026-03-29T14:04:55Z</time></trkpt><trkpt lat="44.736496352067356" lon="11.997554363736063"><ele>-3.0</ele><time>2026-03-29T14:04:56Z</time></trkpt><trkpt lat="44.73651233152382" lon="11.997435089984874"><ele>-3.0</ele><time>2026-03-29T14:04:57Z</time></trkpt><trkpt lat="44.73652961722455" lon="11.997324533692737"><ele>-3.0</ele><time>2026-03-29T14:04:58Z</time></trkpt><trkpt lat="44.73654617397777" lon="11.997231924806401"><ele>-3.0</ele><time>2026-03-29T14:04:59Z</time></trkpt><trkpt lat="44.736571155018915" lon="11.99706623552847"><ele>-2.5</ele><time>2026-03-29T14:05:01Z</time></trkpt><trkpt lat="44.73659079958949" lon="11.996979450868785"><ele>-2.0</ele><time>2026-03-29T14:05:02Z</time></trkpt><trkpt lat="44.73660835742441" lon="11.996855227981424"><ele>-1.5</ele><time>2026-03-29T14:05:03Z</time></trkpt><trkpt lat="44.736628798267624" lon="11.996736097067082"><ele>-1.0</ele><time>2026-03-29T14:05:04Z</time></trkpt><trkpt lat="44.73664219091969" lon="11.99663968931503"><ele>-0.5</ele><time>2026-03-29T14:05:05Z</time></trkpt><trkpt lat="44.73666112016312" lon="11.996536821141337"><ele>0.0</ele><time>2026-03-29T14:05:06Z</time></trkpt><trkpt lat="44.736682623186" lon="11.996442743351528"><ele>0.0</ele><time>2026-03-29T14:05:07Z</time></trkpt><trkpt lat="44.736697554268495" lon="11.996347186275614"><ele>0.0</ele><time>2026-03-29T14:05:08Z</time></trkpt><trkpt lat="44.736713518162944" lon="11.996245688659492"><ele>0.0</ele><time>2026-03-29T14:05:09Z</time></trkpt><trkpt lat="44.736725659674796" lon="11.996136923452955"><ele>0.0</ele><time>2026-03-29T14:05:10Z</time></trkpt><trkpt lat="44.736742079011115" lon="11.996027178939263"><ele>0.0</ele><time>2026-03-29T14:05:11Z</time></trkpt><trkpt lat="44.736762432205964" lon="11.995913068620236"><ele>0.0</ele><time>2026-03-29T14:05:12Z</time></trkpt><trkpt lat="44.73678014449136" lon="11.995807350534314"><ele>0.16666666666666666</ele><time>2026-03-29T14:05:13Z</time></trkpt><trkpt lat="44.73679421619823" lon="11.995706555508404"><ele>0.3333333333333333</ele><time>2026-03-29T14:05:14Z</time></trkpt><trkpt lat="44.736819482298145" lon="11.995543824892493"><ele>0.5</ele><time>2026-03-29T14:05:16Z</time></trkpt><trkpt lat="44.73683048042406" lon="11.995455277282014"><ele>0.6666666666666666</ele><time>2026-03-29T14:05:17Z</time></trkpt><trkpt lat="44.736848692837185" lon="11.995364934466986"><ele>0.8333333333333333</ele><time>2026-03-29T14:05:18Z</time></trkpt><trkpt lat="44.73686151659589" lon="11.995269016401506"><ele>1.0</ele><time>2026-03-29T14:05:19Z</time></trkpt><trkpt lat="44.736874557078494" lon="11.995179396470347"><ele>0.8333333333333333</ele><time>2026-03-29T14:05:20Z</time></trkpt><trkpt lat="44.736898476841006" lon="11.995090343408865"><ele>0.6666666666666666</ele><time>2026-03-29T14:05:21Z</time></trkpt><trkpt lat="44.7369188550762" lon="11.994913123248969"><ele>0.5</ele><time>2026-03-29T14:05:23Z</time></trkpt><trkpt lat="44.73693196192489" lon="11.99482072839829"><ele>0.3333333333333333</ele><time>2026-03-29T14:05:24Z</time></trkpt><trkpt lat="44.73694623596107" lon="11.994731843081897"><ele>0.16666666666666666</ele><time>2026-03-29T14:05:25Z</time></trkpt><trkpt lat="44.736962011976914" lon="11.994632882696251"><ele>0.0</ele><time>2026-03-29T14:05:26Z</time></trkpt><trkpt lat="44.73697182098607" lon="11.994533446321178"><ele>0.0</ele><time>2026-03-29T14:05:27Z</time></trkpt><trkpt lat="44.736989177860266" lon="11.994439519036117"><ele>0.0</ele><time>2026-03-29T14:05:28Z</time></trkpt><trkpt lat="44.737007906364504" lon="11.994351701012057"><ele>0.0</ele><time>2026-03-29T14:05:29Z</time></trkpt><trkpt lat="44.73704230921534" lon="11.994180126631294"><ele>0.0</ele><time>2026-03-29T14:05:31Z</time></trkpt><trkpt lat="44.73708353728335" lon="11.994024276257754"><ele>0.0</ele><time>2026-03-29T14:05:33Z</time></trkpt><trkpt lat="44.73710876019072" lon="11.993941249770286"><ele>0.0</ele><time>2026-03-29T14:05:34Z</time></trkpt><trkpt lat="44.73714024195485" lon="11.993854929998033"><ele>0.0</ele><time>2026-03-29T14:05:35Z</time></trkpt><trkpt lat="44.7371800715311" lon="11.993713043323943"><ele>0.0</ele><time>2026-03-29T14:05:37Z</time></trkpt><trkpt lat="44.73722251206084" lon="11.993580114620482"><ele>0.0</ele><time>2026-03-29T14:05:39Z</time></trkpt><trkpt lat="44.73725300279375" lon="11.993494804188545"><ele>0.0</ele><time>2026-03-29T14:05:40Z</time></trkpt><trkpt lat="44.73728288973023" lon="11.993410436324906"><ele>0.0</ele><time>2026-03-29T14:05:41Z</time></trkpt><trkpt lat="44.737335875526576" lon="11.993265422380063"><ele>0.0</ele><time>2026-03-29T14:05:43Z</time></trkpt><trkpt lat="44.737362973400124" lon="11.993176124445078"><ele>0.0</ele><time>2026-03-29T14:05:44Z</time></trkpt><trkpt lat="44.737393164830394" lon="11.993089962985506"><ele>0.0</ele><time>2026-03-29T14:05:45Z</time></trkpt><trkpt lat="44.737442147048924" lon="11.992950984435803"><ele>0.0</ele><time>2026-03-29T14:05:47Z</time></trkpt><trkpt lat="44.737501608545514" lon="11.992785833318797"><ele>0.0</ele><time>2026-03-29T14:05:49Z</time></trkpt><trkpt lat="44.73753080093785" lon="11.992694238956714"><ele>0.0</ele><time>2026-03-29T14:05:50Z</time></trkpt><trkpt lat="44.737599371976074" lon="11.992537205187668"><ele>0.0</ele><time>2026-03-29T14:05:52Z</time></trkpt><trkpt lat="44.73763632978297" lon="11.992433229817031"><ele>0.0</ele><time>2026-03-29T14:05:53Z</time></trkpt><trkpt lat="44.73766737914282" lon="11.992340207012367"><ele>0.0</ele><time>2026-03-29T14:05:54Z</time></trkpt><trkpt lat="44.73772436868542" lon="11.992179785351468"><ele>0.0</ele><time>2026-03-29T14:05:56Z</time></trkpt><trkpt lat="44.73774989271709" lon="11.992092088808793"><ele>-0.2857142857142857</ele><time>2026-03-29T14:05:57Z</time></trkpt><trkpt lat="44.737779373396044" lon="11.99200851125655"><ele>-0.5714285714285714</ele><time>2026-03-29T14:05:58Z</time></trkpt><trkpt lat="44.737814299404974" lon="11.991926047859877"><ele>-0.8571428571428571</ele><time>2026-03-29T14:05:59Z</time></trkpt><trkpt lat="44.73784265341833" lon="11.991829141057766"><ele>-1.1428571428571428</ele><time>2026-03-29T14:06:00Z</time></trkpt><trkpt lat="44.73787579124561" lon="11.991736755397293"><ele>-1.4285714285714284</ele><time>2026-03-29T14:06:01Z</time></trkpt><trkpt lat="44.73790319203404" lon="11.991653593407587"><ele>-1.7142857142857142</ele><time>2026-03-29T14:06:02Z</time></trkpt><trkpt lat="44.73793769323289" lon="11.991577895053911"><ele>-2.0</ele><time>2026-03-29T14:06:03Z</time></trkpt><trkpt lat="44.737967037453686" lon="11.991490769205466"><ele>-1.9999999999999998</ele><time>2026-03-29T14:06:04Z</time></trkpt><trkpt lat="44.73800063062009" lon="11.991403483767089"><ele>-2.0</ele><time>2026-03-29T14:06:05Z</time></trkpt><trkpt lat="44.73803155378835" lon="11.99131066284239"><ele>-2.0</ele><time>2026-03-29T14:06:06Z</time></trkpt><trkpt lat="44.738064176077245" lon="11.99121972835065"><ele>-2.0</ele><time>2026-03-29T14:06:07Z</time></trkpt><trkpt lat="44.73810192494032" lon="11.99112460928763"><ele>-1.9999999999999998</ele><time>2026-03-29T14:06:08Z</time></trkpt><trkpt lat="44.7381365962332" lon="11.99103817427"><ele>-2.0</ele><time>2026-03-29T14:06:09Z</time></trkpt><trkpt lat="44.738189564851915" lon="11.990880395105867"><ele>-1.7142857142857142</ele><time>2026-03-29T14:06:11Z</time></trkpt><trkpt lat="44.73822078803896" lon="11.990789605296179"><ele>-1.4285714285714284</ele><time>2026-03-29T14:06:12Z</time></trkpt><trkpt lat="44.73825943012753" lon="11.99070739051597"><ele>-1.1428571428571428</ele><time>2026-03-29T14:06:13Z</time></trkpt><trkpt lat="44.73828551911526" lon="11.990614910251002"><ele>-0.8571428571428571</ele><time>2026-03-29T14:06:14Z</time></trkpt><trkpt lat="44.738315960371416" lon="11.99053065558906"><ele>-0.5714285714285714</ele><time>2026-03-29T14:06:15Z</time></trkpt><trkpt lat="44.738344446527535" lon="11.990448812236627"><ele>-0.2857142857142857</ele><time>2026-03-29T14:06:16Z</time></trkpt><trkpt lat="44.73837210539844" lon="11.990361951715444"><ele>0.0</ele><time>2026-03-29T14:06:17Z</time></trkpt><trkpt lat="44.738428611718405" lon="11.99021076920183"><ele>0.0</ele><time>2026-03-29T14:06:19Z</time></trkpt><trkpt lat="44.738475593674245" lon="11.99008722625409"><ele>0.0</ele><time>2026-03-29T14:06:21Z</time></trkpt><trkpt lat="44.73852343454512" lon="11.989930480778058"><ele>0.0</ele><time>2026-03-29T14:06:23Z</time></trkpt><trkpt lat="44.73857809891504" lon="11.98977121663027"><ele>0.0</ele><time>2026-03-29T14:06:25Z</time></trkpt><trkpt lat="44.73859897981496" lon="11.989687034898878"><ele>0.0</ele><time>2026-03-29T14:06:26Z</time></trkpt><trkpt lat="44.7386391772106" lon="11.989577465223423"><ele>-0.4</ele><time>2026-03-29T14:06:28Z</time></trkpt><trkpt lat="44.738698953473005" lon="11.989452783590595"><ele>-0.8</ele><time>2026-03-29T14:06:30Z</time></trkpt><trkpt lat="44.73874221880493" lon="11.989291844090536"><ele>-1.2000000000000002</ele><time>2026-03-29T14:06:32Z</time></trkpt><trkpt lat="44.73880550410966" lon="11.98918427285508"><ele>-1.6</ele><time>2026-03-29T14:06:33.999Z</time></trkpt><trkpt lat="44.73886261585382" lon="11.98904094166169"><ele>-2.0</ele><time>2026-03-29T14:06:35.999Z</time></trkpt><trkpt lat="44.738908455294165" lon="11.988886191665049"><ele>-2.0</ele><time>2026-03-29T14:06:37.999Z</time></trkpt><trkpt lat="44.73896023309075" lon="11.988732346574212"><ele>-2.0</ele><time>2026-03-29T14:06:39.999Z</time></trkpt><trkpt lat="44.738991192342255" lon="11.988650343080538"><ele>-2.0</ele><time>2026-03-29T14:06:40.999Z</time></trkpt><trkpt lat="44.739047705344376" lon="11.988496660034457"><ele>-2.0</ele><time>2026-03-29T14:06:42.999Z</time></trkpt><trkpt lat="44.73909697431677" lon="11.988338898530642"><ele>-2.0</ele><time>2026-03-29T14:06:44.999Z</time></trkpt><trkpt lat="44.73914596714136" lon="11.98820615708323"><ele>-1.8</ele><time>2026-03-29T14:06:46.999Z</time></trkpt><trkpt lat="44.739188271110905" lon="11.988093221663835"><ele>-1.6</ele><time>2026-03-29T14:06:48.999Z</time></trkpt><trkpt lat="44.73924160323526" lon="11.987947608147493"><ele>-1.4000000000000001</ele><time>2026-03-29T14:06:50.999Z</time></trkpt><trkpt lat="44.739297599349484" lon="11.987797722218621"><ele>-1.2000000000000002</ele><time>2026-03-29T14:06:52.999Z</time></trkpt><trkpt lat="44.73935615505561" lon="11.987649119494256"><ele>-1.0</ele><time>2026-03-29T14:06:54.999Z</time></trkpt><trkpt lat="44.7393812995752" lon="11.987551832355708"><ele>-1.1666666666666665</ele><time>2026-03-29T14:06:55.999Z</time></trkpt><trkpt lat="44.739427549378384" lon="11.987463787229029"><ele>-1.3333333333333333</ele><time>2026-03-29T14:06:56.999Z</time></trkpt><trkpt lat="44.73945938455896" lon="11.987371499826173"><ele>-1.5</ele><time>2026-03-29T14:06:58Z</time></trkpt><trkpt lat="44.73949178440267" lon="11.987279370540763"><ele>-1.6666666666666665</ele><time>2026-03-29T14:06:59Z</time></trkpt><trkpt lat="44.739527405429115" lon="11.987178500036858"><ele>-1.8333333333333333</ele><time>2026-03-29T14:07:00Z</time></trkpt><trkpt lat="44.73955800296452" lon="11.987045147430434"><ele>-2.0</ele><time>2026-03-29T14:07:01Z</time></trkpt><trkpt lat="44.73959396611054" lon="11.98695722134564"><ele>-2.0</ele><time>2026-03-29T14:07:02Z</time></trkpt><trkpt lat="44.739649921059225" lon="11.986831167550275"><ele>-2.0</ele><time>2026-03-29T14:07:04Z</time></trkpt><trkpt lat="44.73967500417858" lon="11.986740734911157"><ele>-2.0</ele><time>2026-03-29T14:07:05Z</time></trkpt><trkpt lat="44.73973027721316" lon="11.98659370001987"><ele>-2.0</ele><time>2026-03-29T14:07:07Z</time></trkpt><trkpt lat="44.73977302953" lon="11.986460333753298"><ele>-2.0</ele><time>2026-03-29T14:07:09Z</time></trkpt><trkpt lat="44.739816916606614" lon="11.986331299964984"><ele>-2.0</ele><time>2026-03-29T14:07:11Z</time></trkpt><trkpt lat="44.739865462121976" lon="11.986194641873345"><ele>-2.0</ele><time>2026-03-29T14:07:13Z</time></trkpt><trkpt lat="44.73990783708014" lon="11.986113297729434"><ele>-2.0</ele><time>2026-03-29T14:08:12Z</time></trkpt><trkpt lat="44.73995035585253" lon="11.985993912127075"><ele>-2.0</ele><time>2026-03-29T14:08:14Z</time></trkpt><trkpt lat="44.74000720311478" lon="11.985833673393167"><ele>-2.0</ele><time>2026-03-29T14:08:16Z</time></trkpt><trkpt lat="44.74005548262259" lon="11.985697585026466"><ele>-2.0</ele><time>2026-03-29T14:08:18Z</time></trkpt><trkpt lat="44.74010950722906" lon="11.985545302464084"><ele>-2.0</ele><time>2026-03-29T14:08:20Z</time></trkpt><trkpt lat="44.740161397350846" lon="11.98539903651697"><ele>-2.0</ele><time>2026-03-29T14:08:22Z</time></trkpt><trkpt lat="44.7401972765875" lon="11.985246480232675"><ele>-2.0</ele><time>2026-03-29T14:08:24Z</time></trkpt><trkpt lat="44.740250742499036" lon="11.98510857833307"><ele>-1.8333333333333333</ele><time>2026-03-29T14:08:26Z</time></trkpt><trkpt lat="44.740286713257035" lon="11.985029020981171"><ele>-1.6666666666666665</ele><time>2026-03-29T14:08:27Z</time></trkpt><trkpt lat="44.74031170534356" lon="11.984939570415285"><ele>-1.5</ele><time>2026-03-29T14:08:28Z</time></trkpt><trkpt lat="44.74034208739583" lon="11.984861576434412"><ele>-1.3333333333333333</ele><time>2026-03-29T14:08:29Z</time></trkpt><trkpt lat="44.74039105433269" lon="11.984723900047115"><ele>-1.1666666666666665</ele><time>2026-03-29T14:08:31Z</time></trkpt><trkpt lat="44.74044535150943" lon="11.98457019726877"><ele>-1.0</ele><time>2026-03-29T14:08:33Z</time></trkpt><trkpt lat="44.7404994400806" lon="11.984427318206237"><ele>-1.0</ele><time>2026-03-29T14:08:35Z</time></trkpt><trkpt lat="44.7405492158544" lon="11.984294467245197"><ele>-1.0</ele><time>2026-03-29T14:08:37Z</time></trkpt><trkpt lat="44.74060019472139" lon="11.984148317412956"><ele>-1.0</ele><time>2026-03-29T14:08:39Z</time></trkpt><trkpt lat="44.740649539372285" lon="11.984002511604713"><ele>-1.0</ele><time>2026-03-29T14:08:41Z</time></trkpt><trkpt lat="44.74069966807404" lon="11.983856645502003"><ele>-1.2000000000000002</ele><time>2026-03-29T14:08:43Z</time></trkpt><trkpt lat="44.740725775136184" lon="11.983773868531767"><ele>-1.4000000000000001</ele><time>2026-03-29T14:08:44Z</time></trkpt><trkpt lat="44.74078990284521" lon="11.983615191827022"><ele>-1.6</ele><time>2026-03-29T14:08:46Z</time></trkpt><trkpt lat="44.74084622796039" lon="11.983462372687814"><ele>-1.8</ele><time>2026-03-29T14:08:48Z</time></trkpt><trkpt lat="44.74089660158515" lon="11.983313312458613"><ele>-2.0</ele><time>2026-03-29T14:08:50Z</time></trkpt><trkpt lat="44.740946763751204" lon="11.983164425702842"><ele>-2.0</ele><time>2026-03-29T14:08:52Z</time></trkpt><trkpt lat="44.740999562671064" lon="11.983017913228718"><ele>-2.0</ele><time>2026-03-29T14:08:54Z</time></trkpt><trkpt lat="44.74105252426678" lon="11.982881273637638"><ele>-2.0</ele><time>2026-03-29T14:08:56Z</time></trkpt><trkpt lat="44.741100788724054" lon="11.98272634467198"><ele>-2.0</ele><time>2026-03-29T14:08:58Z</time></trkpt><trkpt lat="44.7411584826789" lon="11.98258142570016"><ele>-2.0</ele><time>2026-03-29T14:09:00Z</time></trkpt><trkpt lat="44.74120424798674" lon="11.982441046263535"><ele>-2.0</ele><time>2026-03-29T14:09:02Z</time></trkpt><trkpt lat="44.74125323641675" lon="11.982306207243989"><ele>-2.0</ele><time>2026-03-29T14:09:04Z</time></trkpt><trkpt lat="44.74130198216724" lon="11.982168966016628"><ele>-2.0</ele><time>2026-03-29T14:09:06Z</time></trkpt><trkpt lat="44.74135435236559" lon="11.982023436390643"><ele>-2.0</ele><time>2026-03-29T14:09:08Z</time></trkpt><trkpt lat="44.74138093429029" lon="11.981940338375974"><ele>-2.0</ele><time>2026-03-29T14:09:09Z</time></trkpt><trkpt lat="44.74141048610464" lon="11.981855036456743"><ele>-1.9999999999999998</ele><time>2026-03-29T14:09:10Z</time></trkpt><trkpt lat="44.741442546136355" lon="11.981770811885918"><ele>-2.0</ele><time>2026-03-29T14:09:11Z</time></trkpt><trkpt lat="44.74147111728305" lon="11.981690509438195"><ele>-2.0</ele><time>2026-03-29T14:09:12Z</time></trkpt><trkpt lat="44.74149743545941" lon="11.981604976735234"><ele>-1.9999999999999998</ele><time>2026-03-29T14:09:13Z</time></trkpt><trkpt lat="44.7415294945447" lon="11.981506356181768"><ele>-2.0</ele><time>2026-03-29T14:09:14Z</time></trkpt><trkpt lat="44.74156756181568" lon="11.981410185241849"><ele>-2.0</ele><time>2026-03-29T14:09:15Z</time></trkpt><trkpt lat="44.74159714043715" lon="11.981324488800201"><ele>-1.9999999999999998</ele><time>2026-03-29T14:09:16Z</time></trkpt><trkpt lat="44.74163689029217" lon="11.98123576707104"><ele>-2.0</ele><time>2026-03-29T14:09:17Z</time></trkpt><trkpt lat="44.74167361267711" lon="11.981127806546775"><ele>-2.0</ele><time>2026-03-29T14:09:18Z</time></trkpt><trkpt lat="44.741711818784644" lon="11.981020752494087"><ele>-2.0</ele><time>2026-03-29T14:09:19Z</time></trkpt><trkpt lat="44.74175434860167" lon="11.980901029117721"><ele>-1.9999999999999998</ele><time>2026-03-29T14:09:20Z</time></trkpt><trkpt lat="44.74179812773703" lon="11.980776389921402"><ele>-2.0</ele><time>2026-03-29T14:09:21Z</time></trkpt><trkpt lat="44.74183766558348" lon="11.980658054067508"><ele>-2.1666666666666665</ele><time>2026-03-29T14:09:22Z</time></trkpt><trkpt lat="44.741873574624144" lon="11.98055570802959"><ele>-2.333333333333333</ele><time>2026-03-29T14:09:23Z</time></trkpt><trkpt lat="44.74191092355775" lon="11.980449855488738"><ele>-2.5</ele><time>2026-03-29T14:09:24Z</time></trkpt><trkpt lat="44.74194894466841" lon="11.980343367179133"><ele>-2.6666666666666665</ele><time>2026-03-29T14:09:25Z</time></trkpt><trkpt lat="44.741986442575985" lon="11.98023963562622"><ele>-2.8333333333333335</ele><time>2026-03-29T14:09:26Z</time></trkpt><trkpt lat="44.742021555014276" lon="11.980141305228637"><ele>-3.0</ele><time>2026-03-29T14:09:27Z</time></trkpt><trkpt lat="44.742053873657774" lon="11.98005202358718"><ele>-3.0</ele><time>2026-03-29T14:09:28Z</time></trkpt><trkpt lat="44.74209387984139" lon="11.97994467075596"><ele>-3.0</ele><time>2026-03-29T14:09:29Z</time></trkpt><trkpt lat="44.7421295681063" lon="11.979841701699034"><ele>-3.0</ele><time>2026-03-29T14:09:30Z</time></trkpt><trkpt lat="44.74216416517531" lon="11.979732174847568"><ele>-3.0</ele><time>2026-03-29T14:09:31Z</time></trkpt><trkpt lat="44.74220169146899" lon="11.97962595910596"><ele>-3.0</ele><time>2026-03-29T14:09:32Z</time></trkpt><trkpt lat="44.74223726641289" lon="11.979522688370642"><ele>-3.0</ele><time>2026-03-29T14:09:33Z</time></trkpt><trkpt lat="44.74227369286125" lon="11.979430058240437"><ele>-3.0</ele><time>2026-03-29T14:09:34Z</time></trkpt><trkpt lat="44.74230859933515" lon="11.979325644741143"><ele>-3.0</ele><time>2026-03-29T14:09:35Z</time></trkpt><trkpt lat="44.742344493131974" lon="11.979220456110427"><ele>-3.0</ele><time>2026-03-29T14:09:36Z</time></trkpt><trkpt lat="44.742384553681" lon="11.979113220090932"><ele>-3.0</ele><time>2026-03-29T14:09:37Z</time></trkpt><trkpt lat="44.742421974609464" lon="11.97900948133504"><ele>-3.0</ele><time>2026-03-29T14:09:38Z</time></trkpt><trkpt lat="44.74246062677041" lon="11.978903113737223"><ele>-3.0</ele><time>2026-03-29T14:09:39Z</time></trkpt><trkpt lat="44.74249529350174" lon="11.978795536139614"><ele>-2.6666666666666665</ele><time>2026-03-29T14:09:40Z</time></trkpt><trkpt lat="44.74253020248379" lon="11.978691473496935"><ele>-2.3333333333333335</ele><time>2026-03-29T14:09:41Z</time></trkpt><trkpt lat="44.74257458936784" lon="11.978587035531849"><ele>-2.0</ele><time>2026-03-29T14:09:42Z</time></trkpt><trkpt lat="44.742609500018474" lon="11.978477178941416"><ele>-1.6666666666666665</ele><time>2026-03-29T14:09:43Z</time></trkpt><trkpt lat="44.74264491494299" lon="11.978385903166856"><ele>-1.3333333333333333</ele><time>2026-03-29T14:09:44Z</time></trkpt><trkpt lat="44.74267632766016" lon="11.978295081199272"><ele>-1.0</ele><time>2026-03-29T14:09:45Z</time></trkpt><trkpt lat="44.74271365658892" lon="11.978185994761057"><ele>-1.3333333333333333</ele><time>2026-03-29T14:09:46Z</time></trkpt><trkpt lat="44.74275267291991" lon="11.97807885524374"><ele>-1.6666666666666665</ele><time>2026-03-29T14:09:47Z</time></trkpt><trkpt lat="44.74278978741676" lon="11.977974173099016"><ele>-2.0</ele><time>2026-03-29T14:09:48Z</time></trkpt><trkpt lat="44.74282540346758" lon="11.977874999719107"><ele>-2.3333333333333335</ele><time>2026-03-29T14:09:49Z</time></trkpt><trkpt lat="44.74286108701252" lon="11.977768254237947"><ele>-2.6666666666666665</ele><time>2026-03-29T14:09:50Z</time></trkpt><trkpt lat="44.742892415580755" lon="11.977664287030816"><ele>-3.0</ele><time>2026-03-29T14:09:51Z</time></trkpt><trkpt lat="44.742919834198766" lon="11.977560382098119"><ele>-3.0</ele><time>2026-03-29T14:09:52Z</time></trkpt><trkpt lat="44.74294849465744" lon="11.977441327016013"><ele>-3.0</ele><time>2026-03-29T14:09:53Z</time></trkpt><trkpt lat="44.74297192485677" lon="11.977331730579579"><ele>-3.0</ele><time>2026-03-29T14:09:54Z</time></trkpt><trkpt lat="44.742994729980545" lon="11.977228827406167"><ele>-3.0</ele><time>2026-03-29T14:09:55Z</time></trkpt><trkpt lat="44.743011500314154" lon="11.977127018617768"><ele>-3.0</ele><time>2026-03-29T14:09:56Z</time></trkpt><trkpt lat="44.74302453834758" lon="11.977030975849162"><ele>-3.0</ele><time>2026-03-29T14:09:57Z</time></trkpt><trkpt lat="44.74303386434161" lon="11.976928823900668"><ele>-2.9999999999999996</ele><time>2026-03-29T14:09:58Z</time></trkpt><trkpt lat="44.743042352740865" lon="11.976831327375745"><ele>-3.0</ele><time>2026-03-29T14:09:59Z</time></trkpt><trkpt lat="44.74306051074076" lon="11.976732373018061"><ele>-3.0</ele><time>2026-03-29T14:10:00Z</time></trkpt><trkpt lat="44.7430674967515" lon="11.97662997222619"><ele>-3.0</ele><time>2026-03-29T14:10:01Z</time></trkpt><trkpt lat="44.743073840466764" lon="11.97652490337882"><ele>-3.0</ele><time>2026-03-29T14:10:02Z</time></trkpt><trkpt lat="44.74308026044924" lon="11.976418461979751"><ele>-2.9999999999999996</ele><time>2026-03-29T14:10:03Z</time></trkpt><trkpt lat="44.743078723746784" lon="11.976309198156404"><ele>-3.0</ele><time>2026-03-29T14:10:04Z</time></trkpt><trkpt lat="44.743076723647825" lon="11.976200146808932"><ele>-2.8333333333333335</ele><time>2026-03-29T14:10:05Z</time></trkpt><trkpt lat="44.74307743923987" lon="11.976091761460577"><ele>-2.6666666666666665</ele><time>2026-03-29T14:10:06Z</time></trkpt><trkpt lat="44.743068679540535" lon="11.97598427002497"><ele>-2.5</ele><time>2026-03-29T14:10:07Z</time></trkpt><trkpt lat="44.74305896552202" lon="11.975880609265399"><ele>-2.333333333333333</ele><time>2026-03-29T14:10:08Z</time></trkpt><trkpt lat="44.743050375763666" lon="11.975772408652864"><ele>-2.1666666666666665</ele><time>2026-03-29T14:10:09Z</time></trkpt><trkpt lat="44.74303882874792" lon="11.975671465249086"><ele>-2.0</ele><time>2026-03-29T14:10:10Z</time></trkpt><trkpt lat="44.74302278168498" lon="11.975565244785518"><ele>-2.0</ele><time>2026-03-29T14:10:11Z</time></trkpt><trkpt lat="44.74300416030205" lon="11.975466042339239"><ele>-1.9999999999999998</ele><time>2026-03-29T14:10:12Z</time></trkpt><trkpt lat="44.74299107849444" lon="11.975371078926639"><ele>-2.0</ele><time>2026-03-29T14:10:13Z</time></trkpt><trkpt lat="44.74298714176413" lon="11.975277380655509"><ele>-2.0</ele><time>2026-03-29T14:10:14Z</time></trkpt><trkpt lat="44.7429705437097" lon="11.975178682490807"><ele>-1.9999999999999998</ele><time>2026-03-29T14:10:15Z</time></trkpt><trkpt lat="44.74295267225233" lon="11.975072411692866"><ele>-2.0</ele><time>2026-03-29T14:10:16Z</time></trkpt><trkpt lat="44.74293857751317" lon="11.974974327139678"><ele>-2.0</ele><time>2026-03-29T14:10:17Z</time></trkpt><trkpt lat="44.74292211788421" lon="11.974875562483914"><ele>-2.0</ele><time>2026-03-29T14:10:18Z</time></trkpt><trkpt lat="44.74290635509903" lon="11.97477500701746"><ele>-1.9999999999999998</ele><time>2026-03-29T14:10:19Z</time></trkpt><trkpt lat="44.74288938534077" lon="11.974672453895101"><ele>-2.0</ele><time>2026-03-29T14:10:20Z</time></trkpt><trkpt lat="44.742873654997986" lon="11.974572980276621"><ele>-2.0</ele><time>2026-03-29T14:10:21Z</time></trkpt><trkpt lat="44.742858014595626" lon="11.974472260815949"><ele>-1.9999999999999998</ele><time>2026-03-29T14:10:22Z</time></trkpt><trkpt lat="44.74284137615053" lon="11.974378000805098"><ele>-2.0</ele><time>2026-03-29T14:10:23Z</time></trkpt><trkpt lat="44.74282464117041" lon="11.974278591657987"><ele>-2.0</ele><time>2026-03-29T14:10:24Z</time></trkpt><trkpt lat="44.74280908335072" lon="11.97418060820867"><ele>-2.0</ele><time>2026-03-29T14:10:25Z</time></trkpt><trkpt lat="44.742800431103376" lon="11.974079334073554"><ele>-1.9999999999999998</ele><time>2026-03-29T14:10:26Z</time></trkpt><trkpt lat="44.74278107817292" lon="11.97398171417833"><ele>-2.0</ele><time>2026-03-29T14:10:27Z</time></trkpt><trkpt lat="44.74276415769104" lon="11.97387593824412"><ele>-2.0</ele><time>2026-03-29T14:10:28Z</time></trkpt><trkpt lat="44.742750122816695" lon="11.973780992878554"><ele>-1.9999999999999998</ele><time>2026-03-29T14:10:29Z</time></trkpt><trkpt lat="44.74273761287083" lon="11.973693475434182"><ele>-2.0</ele><time>2026-03-29T14:10:30Z</time></trkpt><trkpt lat="44.74272420449798" lon="11.97360030274336"><ele>-2.0</ele><time>2026-03-29T14:10:31Z</time></trkpt><trkpt lat="44.7427056033746" lon="11.973500751084003"><ele>-2.0</ele><time>2026-03-29T14:10:32Z</time></trkpt><trkpt lat="44.742692121304565" lon="11.973402183021248"><ele>-1.9999999999999998</ele><time>2026-03-29T14:10:33Z</time></trkpt><trkpt lat="44.74268487570896" lon="11.97330956901445"><ele>-2.0</ele><time>2026-03-29T14:10:34Z</time></trkpt><trkpt lat="44.74267002916453" lon="11.973219877932097"><ele>-2.0</ele><time>2026-03-29T14:10:35Z</time></trkpt><trkpt lat="44.74265448566026" lon="11.973119939305029"><ele>-1.9999999999999998</ele><time>2026-03-29T14:10:36Z</time></trkpt><trkpt lat="44.74263846244423" lon="11.97302473000849"><ele>-2.0</ele><time>2026-03-29T14:10:37Z</time></trkpt><trkpt lat="44.742621148966805" lon="11.97292962541619"><ele>-2.0</ele><time>2026-03-29T14:10:38Z</time></trkpt><trkpt lat="44.74260718078058" lon="11.97283094366758"><ele>-1.9999999999999998</ele><time>2026-03-29T14:10:39Z</time></trkpt><trkpt lat="44.74259393848286" lon="11.97273726086104"><ele>-2.0</ele><time>2026-03-29T14:10:40Z</time></trkpt><trkpt lat="44.74257788336084" lon="11.972649001355848"><ele>-2.0</ele><time>2026-03-29T14:10:41Z</time></trkpt><trkpt lat="44.74255537966842" lon="11.972483411267126"><ele>-2.0</ele><time>2026-03-29T14:10:43Z</time></trkpt><trkpt lat="44.742540604496426" lon="11.972387960185332"><ele>-1.9999999999999998</ele><time>2026-03-29T14:10:44Z</time></trkpt><trkpt lat="44.74252312506782" lon="11.972296229611821"><ele>-2.0</ele><time>2026-03-29T14:10:45Z</time></trkpt><trkpt lat="44.74251126166318" lon="11.972198759674312"><ele>-2.0</ele><time>2026-03-29T14:10:46Z</time></trkpt><trkpt lat="44.74249721510096" lon="11.972098126796812"><ele>-1.9999999999999998</ele><time>2026-03-29T14:10:47Z</time></trkpt><trkpt lat="44.7424815919392" lon="11.972003000641491"><ele>-2.0</ele><time>2026-03-29T14:10:48Z</time></trkpt><trkpt lat="44.742464688601046" lon="11.971905873694737"><ele>-2.0</ele><time>2026-03-29T14:10:49Z</time></trkpt><trkpt lat="44.742455627018714" lon="11.97180755455784"><ele>-1.9999999999999998</ele><time>2026-03-29T14:10:50Z</time></trkpt><trkpt lat="44.742437023785044" lon="11.97171448791279"><ele>-2.0</ele><time>2026-03-29T14:10:51Z</time></trkpt><trkpt lat="44.74242533683863" lon="11.971621466069926"><ele>-2.0</ele><time>2026-03-29T14:10:52Z</time></trkpt><trkpt lat="44.742412547939956" lon="11.971525946814172"><ele>-2.0</ele><time>2026-03-29T14:10:53Z</time></trkpt><trkpt lat="44.742398083642655" lon="11.971436779301765"><ele>-2.0</ele><time>2026-03-29T14:10:54Z</time></trkpt><trkpt lat="44.74237811835166" lon="11.97127018632796"><ele>-2.0</ele><time>2026-03-29T14:10:56Z</time></trkpt><trkpt lat="44.74235338329323" lon="11.971112519529349"><ele>-2.0</ele><time>2026-03-29T14:10:58Z</time></trkpt><trkpt lat="44.74233351084149" lon="11.970969778201892"><ele>-2.0</ele><time>2026-03-29T14:11:00Z</time></trkpt><trkpt lat="44.74231922758768" lon="11.970847486235733"><ele>-2.1666666666666665</ele><time>2026-03-29T14:11:02Z</time></trkpt><trkpt lat="44.74229638564396" lon="11.970736341134353"><ele>-2.333333333333333</ele><time>2026-03-29T14:11:04Z</time></trkpt><trkpt lat="44.74227507010122" lon="11.97062409682415"><ele>-2.5</ele><time>2026-03-29T14:11:06Z</time></trkpt><trkpt lat="44.742261214810554" lon="11.970527474040978"><ele>-2.6666666666666665</ele><time>2026-03-29T14:11:08Z</time></trkpt><trkpt lat="44.74226930681986" lon="11.970427427024058"><ele>-2.8333333333333335</ele><time>2026-03-29T14:11:10Z</time></trkpt><trkpt lat="44.74233058563914" lon="11.970346853779692"><ele>-3.0</ele><time>2026-03-29T14:11:12Z</time></trkpt><trkpt lat="44.74241424591735" lon="11.970307413466887"><ele>-3.0</ele><time>2026-03-29T14:11:14Z</time></trkpt><trkpt lat="44.74250680419603" lon="11.970305255912018"><ele>-3.0</ele><time>2026-03-29T14:11:16Z</time></trkpt><trkpt lat="44.74259172446898" lon="11.970283855702705"><ele>-3.0</ele><time>2026-03-29T14:11:18Z</time></trkpt><trkpt lat="44.742668839474874" lon="11.970264325301748"><ele>-3.0</ele><time>2026-03-29T14:11:20Z</time></trkpt><trkpt lat="44.742751155535686" lon="11.970237114490356"><ele>-3.0</ele><time>2026-03-29T14:11:22Z</time></trkpt><trkpt lat="44.74282642404641" lon="11.97022444107401"><ele>-3.0</ele><time>2026-03-29T14:11:24Z</time></trkpt><trkpt lat="44.74290425775328" lon="11.970205101301895"><ele>-2.8333333333333335</ele><time>2026-03-29T14:11:26Z</time></trkpt><trkpt lat="44.74297851629354" lon="11.970188417689732"><ele>-2.6666666666666665</ele><time>2026-03-29T14:11:28Z</time></trkpt><trkpt lat="44.74305231618983" lon="11.970173647754"><ele>-2.5</ele><time>2026-03-29T14:11:30Z</time></trkpt><trkpt lat="44.74312883244945" lon="11.970155423167203"><ele>-2.333333333333333</ele><time>2026-03-29T14:11:32Z</time></trkpt><trkpt lat="44.743210096763086" lon="11.970130029771349"><ele>-2.1666666666666665</ele><time>2026-03-29T14:11:34Z</time></trkpt><trkpt lat="44.7433056759473" lon="11.970102214318873"><ele>-2.0</ele><time>2026-03-29T14:11:36Z</time></trkpt><trkpt lat="44.743382659383926" lon="11.970075505689202"><ele>-2.0</ele><time>2026-03-29T14:11:38Z</time></trkpt><trkpt lat="44.74345819267627" lon="11.970050605358407"><ele>-2.0</ele><time>2026-03-29T14:11:40Z</time></trkpt><trkpt lat="44.7435403877079" lon="11.97004323395119"><ele>-2.0</ele><time>2026-03-29T14:11:42Z</time></trkpt><trkpt lat="44.74362343192862" lon="11.97002597180222"><ele>-2.0</ele><time>2026-03-29T14:11:44Z</time></trkpt><trkpt lat="44.74370811067163" lon="11.970008923776051"><ele>-2.0</ele><time>2026-03-29T14:11:46Z</time></trkpt><trkpt lat="44.74383273430622" lon="11.969992242764834"><ele>-2.0</ele><time>2026-03-29T14:11:48Z</time></trkpt><trkpt lat="44.74394427930288" lon="11.969956356181106"><ele>-2.0</ele><time>2026-03-29T14:11:50Z</time></trkpt><trkpt lat="44.744052147730834" lon="11.969947512125982"><ele>-2.0</ele><time>2026-03-29T14:11:52Z</time></trkpt><trkpt lat="44.74416192085498" lon="11.969922076775164"><ele>-2.0</ele><time>2026-03-29T14:11:54Z</time></trkpt><trkpt lat="44.74425831796748" lon="11.969901685724588"><ele>-2.0</ele><time>2026-03-29T14:11:56Z</time></trkpt><trkpt lat="44.74433872555167" lon="11.969889496986106"><ele>-1.9999999999999998</ele><time>2026-03-29T14:11:58Z</time></trkpt><trkpt lat="44.74438741037555" lon="11.96983012335946"><ele>-2.0</ele><time>2026-03-29T14:12:00Z</time></trkpt><trkpt lat="44.744416369789974" lon="11.969731583636209"><ele>-2.0</ele><time>2026-03-29T14:12:02Z</time></trkpt><trkpt lat="44.74437448754484" lon="11.969608160125562"><ele>-2.0</ele><time>2026-03-29T14:12:04Z</time></trkpt><trkpt lat="44.74432471516385" lon="11.969454058084033"><ele>-1.9999999999999998</ele><time>2026-03-29T14:12:06Z</time></trkpt><trkpt lat="44.744294237519505" lon="11.96936818721748"><ele>-2.0</ele><time>2026-03-29T14:12:07Z</time></trkpt><trkpt lat="44.744249982886274" lon="11.969290359809982"><ele>-1.6</ele><time>2026-03-29T14:12:08Z</time></trkpt><trkpt lat="44.744208527139946" lon="11.969156919551258"><ele>-1.2000000000000002</ele><time>2026-03-29T14:12:10Z</time></trkpt><trkpt lat="44.74416701521037" lon="11.969040709069223"><ele>-0.8</ele><time>2026-03-29T14:12:12Z</time></trkpt><trkpt lat="44.74413467535055" lon="11.968964379217779"><ele>-0.4</ele><time>2026-03-29T14:12:13Z</time></trkpt><trkpt lat="44.74407621833265" lon="11.968804341842008"><ele>0.0</ele><time>2026-03-29T14:12:15Z</time></trkpt><trkpt lat="44.74402928725778" lon="11.968650863072975"><ele>0.0</ele><time>2026-03-29T14:12:17Z</time></trkpt><trkpt lat="44.74399502137209" lon="11.968521215019816"><ele>0.0</ele><time>2026-03-29T14:12:19Z</time></trkpt><trkpt lat="44.74395871685941" lon="11.968403644566065"><ele>0.0</ele><time>2026-03-29T14:12:21Z</time></trkpt><trkpt lat="44.743923969579065" lon="11.968319707933038"><ele>0.0</ele><time>2026-03-29T14:12:24Z</time></trkpt><trkpt lat="44.74391216474633" lon="11.96822651334059"><ele>0.0</ele><time>2026-03-29T14:12:26Z</time></trkpt><trkpt lat="44.743881102647755" lon="11.968123436333672"><ele>0.0</ele><time>2026-03-29T14:12:28Z</time></trkpt><trkpt lat="44.743830465508125" lon="11.968009620867813"><ele>0.16666666666666666</ele><time>2026-03-29T14:12:30Z</time></trkpt><trkpt lat="44.74380108941087" lon="11.967857919034216"><ele>0.3333333333333333</ele><time>2026-03-29T14:12:32Z</time></trkpt><trkpt lat="44.74377515381305" lon="11.967771854204162"><ele>0.5</ele><time>2026-03-29T14:12:33Z</time></trkpt><trkpt lat="44.74374764782377" lon="11.967680577664712"><ele>0.6666666666666666</ele><time>2026-03-29T14:12:34Z</time></trkpt><trkpt lat="44.74371806808494" lon="11.967582419837028"><ele>0.8333333333333333</ele><time>2026-03-29T14:12:35Z</time></trkpt><trkpt lat="44.7436728335402" lon="11.967433925310853"><ele>1.0</ele><time>2026-03-29T14:12:37Z</time></trkpt><trkpt lat="44.74364676749634" lon="11.9673494606816"><ele>0.4</ele><time>2026-03-29T14:12:38Z</time></trkpt><trkpt lat="44.74361739061842" lon="11.967254267707407"><ele>-0.19999999999999996</ele><time>2026-03-29T14:12:39Z</time></trkpt><trkpt lat="44.74358005342288" lon="11.967133279866943"><ele>-0.8000000000000002</ele><time>2026-03-29T14:12:40Z</time></trkpt><trkpt lat="44.74352074111542" lon="11.966990799661867"><ele>-1.4000000000000001</ele><time>2026-03-29T14:12:41Z</time></trkpt><trkpt lat="44.74346888145974" lon="11.966813386799489"><ele>-2.0</ele><time>2026-03-29T14:12:42Z</time></trkpt><trkpt lat="44.743421782082905" lon="11.966659820636817"><ele>-2.1666666666666665</ele><time>2026-03-29T14:12:43Z</time></trkpt><trkpt lat="44.743381441395385" lon="11.966531060331311"><ele>-2.333333333333333</ele><time>2026-03-29T14:12:44Z</time></trkpt><trkpt lat="44.743341146475935" lon="11.966408111809544"><ele>-2.5</ele><time>2026-03-29T14:12:45Z</time></trkpt><trkpt lat="44.743325560689506" lon="11.966301113131877"><ele>-2.6666666666666665</ele><time>2026-03-29T14:12:46Z</time></trkpt><trkpt lat="44.74328914974061" lon="11.966223723055244"><ele>-2.8333333333333335</ele><time>2026-03-29T14:12:47Z</time></trkpt><trkpt lat="44.74326334588755" lon="11.966129511174895"><ele>-3.0</ele><time>2026-03-29T14:12:48Z</time></trkpt><trkpt lat="44.74323969485215" lon="11.966030144929722"><ele>-3.0</ele><time>2026-03-29T14:12:49Z</time></trkpt><trkpt lat="44.74321557844719" lon="11.965943111698007"><ele>-3.0</ele><time>2026-03-29T14:12:50Z</time></trkpt><trkpt lat="44.74318247398625" lon="11.965826679617951"><ele>-3.0</ele><time>2026-03-29T14:12:52Z</time></trkpt><trkpt lat="44.74315678695188" lon="11.965745754874447"><ele>-3.0</ele><time>2026-03-29T14:12:54Z</time></trkpt><trkpt lat="44.74313301920842" lon="11.965940928734357"><ele>-3.0</ele><time>2026-03-29T14:13:03Z</time></trkpt><trkpt lat="44.7431569650622" lon="11.966034643685724"><ele>-3.0</ele><time>2026-03-29T14:13:04Z</time></trkpt><trkpt lat="44.743185129868" lon="11.966133878916466"><ele>-3.0</ele><time>2026-03-29T14:13:05Z</time></trkpt><trkpt lat="44.743211911162334" lon="11.966225388623537"><ele>-3.0</ele><time>2026-03-29T14:13:06Z</time></trkpt><trkpt lat="44.74323652454442" lon="11.966326653237827"><ele>-3.0</ele><time>2026-03-29T14:13:07Z</time></trkpt><trkpt lat="44.74326285729031" lon="11.966413227346674"><ele>-3.0</ele><time>2026-03-29T14:13:08Z</time></trkpt><trkpt lat="44.74331736875027" lon="11.966569759790836"><ele>-3.0</ele><time>2026-03-29T14:13:10Z</time></trkpt><trkpt lat="44.74336166887185" lon="11.966730481911199"><ele>-2.8</ele><time>2026-03-29T14:13:12Z</time></trkpt><trkpt lat="44.74339528077046" lon="11.966861765792531"><ele>-2.5999999999999996</ele><time>2026-03-29T14:13:14Z</time></trkpt><trkpt lat="44.743414433659325" lon="11.96697161672051"><ele>-2.4000000000000004</ele><time>2026-03-29T14:13:16Z</time></trkpt><trkpt lat="44.743484187943885" lon="11.96714026938899"><ele>-2.2</ele><time>2026-03-29T14:13:18Z</time></trkpt><trkpt lat="44.74350535558527" lon="11.967260245328982"><ele>-2.0</ele><time>2026-03-29T14:13:19Z</time></trkpt><trkpt lat="44.7435377782722" lon="11.967364035462188"><ele>-2.0</ele><time>2026-03-29T14:13:20Z</time></trkpt><trkpt lat="44.74358181624379" lon="11.967507885276666"><ele>-2.0</ele><time>2026-03-29T14:13:22Z</time></trkpt><trkpt lat="44.743601425961636" lon="11.967614554254203"><ele>-2.0</ele><time>2026-03-29T14:13:24Z</time></trkpt><trkpt lat="44.74348916477282" lon="11.967682212994132"><ele>-2.0</ele><time>2026-03-29T14:13:27Z</time></trkpt><trkpt lat="44.743428326283585" lon="11.967720319111404"><ele>-2.0</ele><time>2026-03-29T14:13:29Z</time></trkpt><trkpt lat="44.74334871436427" lon="11.967767250465167"><ele>-2.0</ele><time>2026-03-29T14:13:32Z</time></trkpt></trkseg><trkseg><trkpt lat="44.743218153693775" lon="11.967871543330768"><ele>-1.9999999999999998</ele><time>2026-03-29T14:30:34Z</time></trkpt><trkpt lat="44.743340543905035" lon="11.967861571429115"><ele>-2.0</ele><time>2026-03-29T14:30:39Z</time></trkpt><trkpt lat="44.743414325464826" lon="11.96779110580607"><ele>-2.0</ele><time>2026-03-29T14:30:41Z</time></trkpt><trkpt lat="44.743472698047455" lon="11.967740275498358"><ele>-2.0</ele><time>2026-03-29T14:30:42Z</time></trkpt><trkpt lat="44.74354687172906" lon="11.967684634884517"><ele>-1.9999999999999998</ele><time>2026-03-29T14:30:44Z</time></trkpt><trkpt lat="44.74360533369018" lon="11.967650460688898"><ele>-2.0</ele><time>2026-03-29T14:30:46Z</time></trkpt><trkpt lat="44.74367780589532" lon="11.967765675434478"><ele>-1.6</ele><time>2026-03-29T14:30:49Z</time></trkpt><trkpt lat="44.74369381600771" lon="11.967933656082753"><ele>-1.2000000000000002</ele><time>2026-03-29T14:30:51Z</time></trkpt><trkpt lat="44.74368757204533" lon="11.96806074123967"><ele>-0.8</ele><time>2026-03-29T14:30:53Z</time></trkpt><trkpt lat="44.743661344614" lon="11.96820811748641"><ele>-0.4</ele><time>2026-03-29T14:30:55Z</time></trkpt><trkpt lat="44.7436325688031" lon="11.968313309378894"><ele>0.0</ele><time>2026-03-29T14:30:57Z</time></trkpt><trkpt lat="44.74364250927601" lon="11.968437791214784"><ele>0.0</ele><time>2026-03-29T14:30:59Z</time></trkpt><trkpt lat="44.74368424781618" lon="11.968510671902747"><ele>0.0</ele><time>2026-03-29T14:31:01Z</time></trkpt><trkpt lat="44.74378565651358" lon="11.968519224931129"><ele>0.0</ele><time>2026-03-29T14:31:03Z</time></trkpt><trkpt lat="44.74385913512475" lon="11.96851803684699"><ele>0.0</ele><time>2026-03-29T14:31:04Z</time></trkpt><trkpt lat="44.743898276431615" lon="11.96843445162749"><ele>0.0</ele><time>2026-03-29T14:31:05Z</time></trkpt><trkpt lat="44.74391796368923" lon="11.968313994306655"><ele>0.0</ele><time>2026-03-29T14:31:07Z</time></trkpt><trkpt lat="44.74395352428247" lon="11.968208932963632"><ele>0.2</ele><time>2026-03-29T14:31:09Z</time></trkpt><trkpt lat="44.74385954652201" lon="11.968051904441845"><ele>0.4</ele><time>2026-03-29T14:31:10Z</time></trkpt><trkpt lat="44.74382977031237" lon="11.967953094229765"><ele>0.6000000000000001</ele><time>2026-03-29T14:31:11Z</time></trkpt><trkpt lat="44.7437957577327" lon="11.967840226147384"><ele>0.8</ele><time>2026-03-29T14:31:12Z</time></trkpt><trkpt lat="44.743755506442156" lon="11.96770665591318"><ele>1.0</ele><time>2026-03-29T14:31:13Z</time></trkpt><trkpt lat="44.74371793261425" lon="11.96758197025594"><ele>0.4</ele><time>2026-03-29T14:31:14Z</time></trkpt><trkpt lat="44.74366223445578" lon="11.967457119382932"><ele>-0.19999999999999996</ele><time>2026-03-29T14:31:15Z</time></trkpt><trkpt lat="44.743619238441" lon="11.967315149073556"><ele>-0.8000000000000002</ele><time>2026-03-29T14:31:16Z</time></trkpt><trkpt lat="44.743578319194924" lon="11.967175337117025"><ele>-1.4000000000000001</ele><time>2026-03-29T14:31:17Z</time></trkpt><trkpt lat="44.74353664213887" lon="11.9670500904341"><ele>-2.0</ele><time>2026-03-29T14:31:18Z</time></trkpt><trkpt lat="44.74350325469701" lon="11.966927487334532"><ele>-2.0</ele><time>2026-03-29T14:31:19Z</time></trkpt><trkpt lat="44.74346499223297" lon="11.96678677833208"><ele>-2.0</ele><time>2026-03-29T14:31:20Z</time></trkpt><trkpt lat="44.743417958331946" lon="11.96665740114621"><ele>-2.0</ele><time>2026-03-29T14:31:21Z</time></trkpt><trkpt lat="44.74338341775293" lon="11.966537021265319"><ele>-2.0</ele><time>2026-03-29T14:31:22Z</time></trkpt><trkpt lat="44.74334693426697" lon="11.966425631574861"><ele>-2.0</ele><time>2026-03-29T14:31:23Z</time></trkpt><trkpt lat="44.7433171919382" lon="11.966306522709912"><ele>-2.2</ele><time>2026-03-29T14:31:24Z</time></trkpt><trkpt lat="44.743284234325344" lon="11.966176084290867"><ele>-2.4000000000000004</ele><time>2026-03-29T14:31:25Z</time></trkpt><trkpt lat="44.743246374811335" lon="11.966054898416868"><ele>-2.5999999999999996</ele><time>2026-03-29T14:31:26Z</time></trkpt><trkpt lat="44.743206705866655" lon="11.96592316337566"><ele>-2.8</ele><time>2026-03-29T14:31:27Z</time></trkpt><trkpt lat="44.743162537446096" lon="11.965776548288481"><ele>-3.0</ele><time>2026-03-29T14:31:28Z</time></trkpt><trkpt lat="44.74311661100144" lon="11.96561615597992"><ele>-2.75</ele><time>2026-03-29T14:31:29Z</time></trkpt><trkpt lat="44.74306757258716" lon="11.965452616657005"><ele>-2.5</ele><time>2026-03-29T14:31:30Z</time></trkpt><trkpt lat="44.743025938305905" lon="11.965287702463941"><ele>-2.25</ele><time>2026-03-29T14:31:31Z</time></trkpt><trkpt lat="44.74297644698299" lon="11.965143485269031"><ele>-2.0</ele><time>2026-03-29T14:31:32Z</time></trkpt><trkpt lat="44.74293189238214" lon="11.965004029451322"><ele>-2.0</ele><time>2026-03-29T14:31:33Z</time></trkpt><trkpt lat="44.74289878126722" lon="11.96487679887133"><ele>-2.0</ele><time>2026-03-29T14:31:34Z</time></trkpt><trkpt lat="44.742868827892565" lon="11.964766848863711"><ele>-2.0</ele><time>2026-03-29T14:31:35Z</time></trkpt><trkpt lat="44.74283641694799" lon="11.964642031792152"><ele>-2.0</ele><time>2026-03-29T14:31:36Z</time></trkpt><trkpt lat="44.742803076661104" lon="11.964514477924423"><ele>-2.0</ele><time>2026-03-29T14:31:37Z</time></trkpt><trkpt lat="44.742771816927785" lon="11.964391549406871"><ele>-2.0</ele><time>2026-03-29T14:31:38Z</time></trkpt><trkpt lat="44.742734361656915" lon="11.96426616414763"><ele>-2.0</ele><time>2026-03-29T14:31:39Z</time></trkpt><trkpt lat="44.74270303191715" lon="11.964142510660682"><ele>-2.0</ele><time>2026-03-29T14:31:40Z</time></trkpt><trkpt lat="44.742672148858425" lon="11.96401470935854"><ele>-2.0</ele><time>2026-03-29T14:31:41Z</time></trkpt><trkpt lat="44.742636054965544" lon="11.963882860794921"><ele>-2.0</ele><time>2026-03-29T14:31:42Z</time></trkpt><trkpt lat="44.742593084566614" lon="11.963731632487388"><ele>-2.25</ele><time>2026-03-29T14:31:43Z</time></trkpt><trkpt lat="44.74255251199059" lon="11.963555581408555"><ele>-2.5</ele><time>2026-03-29T14:31:44Z</time></trkpt><trkpt lat="44.74252766816737" lon="11.9633752460721"><ele>-2.75</ele><time>2026-03-29T14:31:45Z</time></trkpt><trkpt lat="44.74250326213473" lon="11.963213738850426"><ele>-3.0</ele><time>2026-03-29T14:31:46Z</time></trkpt><trkpt lat="44.74247777361138" lon="11.963073734455257"><ele>-2.6</ele><time>2026-03-29T14:31:47Z</time></trkpt><trkpt lat="44.742460733956506" lon="11.962926889354408"><ele>-2.1999999999999997</ele><time>2026-03-29T14:31:48Z</time></trkpt><trkpt lat="44.742442166421206" lon="11.962769926773088"><ele>-1.8</ele><time>2026-03-29T14:31:49Z</time></trkpt><trkpt lat="44.742426349067514" lon="11.962610722356391"><ele>-1.4</ele><time>2026-03-29T14:31:50Z</time></trkpt><trkpt lat="44.742408299483365" lon="11.962451024567947"><ele>-1.0</ele><time>2026-03-29T14:31:51Z</time></trkpt><trkpt lat="44.74242144802399" lon="11.962301392170705"><ele>-0.8</ele><time>2026-03-29T14:31:52Z</time></trkpt><trkpt lat="44.7424218990877" lon="11.962136407645238"><ele>-0.6000000000000001</ele><time>2026-03-29T14:31:53Z</time></trkpt><trkpt lat="44.74242015077183" lon="11.961990664107843"><ele>-0.4</ele><time>2026-03-29T14:31:54Z</time></trkpt><trkpt lat="44.74242450955685" lon="11.961846606620355"><ele>-0.2</ele><time>2026-03-29T14:31:55Z</time></trkpt><trkpt lat="44.74242552279534" lon="11.961720656360812"><ele>0.0</ele><time>2026-03-29T14:31:56Z</time></trkpt><trkpt lat="44.742430814152236" lon="11.96159609209919"><ele>0.0</ele><time>2026-03-29T14:31:57Z</time></trkpt><trkpt lat="44.742432734659786" lon="11.961464984577207"><ele>0.0</ele><time>2026-03-29T14:31:58Z</time></trkpt><trkpt lat="44.742450075644065" lon="11.961341863257307"><ele>0.0</ele><time>2026-03-29T14:31:59Z</time></trkpt><trkpt lat="44.74244743038022" lon="11.961206353535736"><ele>0.0</ele><time>2026-03-29T14:32:00Z</time></trkpt><trkpt lat="44.742458722779816" lon="11.96108165599747"><ele>0.0</ele><time>2026-03-29T14:32:01Z</time></trkpt><trkpt lat="44.74245928442846" lon="11.960974776924541"><ele>0.0</ele><time>2026-03-29T14:32:02Z</time></trkpt><trkpt lat="44.742466975610704" lon="11.960877497457519"><ele>0.5</ele><time>2026-03-29T14:32:03Z</time></trkpt><trkpt lat="44.742470346490194" lon="11.960766656036242"><ele>1.0</ele><time>2026-03-29T14:32:04Z</time></trkpt><trkpt lat="44.742481126352466" lon="11.960647124894567"><ele>1.5</ele><time>2026-03-29T14:32:05Z</time></trkpt><trkpt lat="44.742486052794966" lon="11.960513087147344"><ele>2.0</ele><time>2026-03-29T14:32:06Z</time></trkpt><trkpt lat="44.74249357878389" lon="11.960375298951979"><ele>2.5</ele><time>2026-03-29T14:32:07Z</time></trkpt><trkpt lat="44.74251185453004" lon="11.960260865710472"><ele>3.0</ele><time>2026-03-29T14:32:08Z</time></trkpt><trkpt lat="44.74252303007234" lon="11.960143787918637"><ele>2.3333333333333335</ele><time>2026-03-29T14:32:09Z</time></trkpt><trkpt lat="44.74253319342725" lon="11.960026701713558"><ele>1.6666666666666667</ele><time>2026-03-29T14:32:10Z</time></trkpt><trkpt lat="44.74254973151244" lon="11.959902470328315"><ele>1.0</ele><time>2026-03-29T14:32:11Z</time></trkpt><trkpt lat="44.74256539603599" lon="11.959783805040903"><ele>0.33333333333333337</ele><time>2026-03-29T14:32:12Z</time></trkpt><trkpt lat="44.74257583527455" lon="11.959658281891011"><ele>-0.33333333333333326</ele><time>2026-03-29T14:32:13Z</time></trkpt><trkpt lat="44.742586846012415" lon="11.959530015596352"><ele>-1.0</ele><time>2026-03-29T14:32:14Z</time></trkpt><trkpt lat="44.74261837786803" lon="11.959399828411101"><ele>-0.9999999999999999</ele><time>2026-03-29T14:32:15Z</time></trkpt><trkpt lat="44.74261560992762" lon="11.95926888908106"><ele>-1.0</ele><time>2026-03-29T14:32:16Z</time></trkpt><trkpt lat="44.7426366457871" lon="11.959156083294456"><ele>-1.0</ele><time>2026-03-29T14:32:17Z</time></trkpt><trkpt lat="44.74264084281851" lon="11.959032040607607"><ele>-1.0</ele><time>2026-03-29T14:32:18Z</time></trkpt><trkpt lat="44.742653928794525" lon="11.958917510375427"><ele>-0.9999999999999999</ele><time>2026-03-29T14:32:19Z</time></trkpt><trkpt lat="44.742658299427475" lon="11.95878491039206"><ele>-1.0</ele><time>2026-03-29T14:32:20Z</time></trkpt><trkpt lat="44.74266785439116" lon="11.95865860076634"><ele>-0.9999999999999999</ele><time>2026-03-29T14:32:21Z</time></trkpt><trkpt lat="44.742676540017165" lon="11.958543108797523"><ele>-1.0</ele><time>2026-03-29T14:32:22Z</time></trkpt><trkpt lat="44.742695579052935" lon="11.958452228319434"><ele>-1.0</ele><time>2026-03-29T14:32:23Z</time></trkpt><trkpt lat="44.74269170811512" lon="11.958350027353468"><ele>-1.0</ele><time>2026-03-29T14:32:24Z</time></trkpt><trkpt lat="44.74270390589194" lon="11.958241802022767"><ele>-0.9999999999999999</ele><time>2026-03-29T14:32:25Z</time></trkpt><trkpt lat="44.74271421745025" lon="11.958152554794195"><ele>-1.0</ele><time>2026-03-29T14:32:26Z</time></trkpt><trkpt lat="44.74273701600346" lon="11.958001331321782"><ele>-1.2000000000000002</ele><time>2026-03-29T14:32:28Z</time></trkpt><trkpt lat="44.742760071852516" lon="11.95784974370313"><ele>-1.4000000000000001</ele><time>2026-03-29T14:32:30Z</time></trkpt><trkpt lat="44.74277975583191" lon="11.95766359412557"><ele>-1.6</ele><time>2026-03-29T14:32:32Z</time></trkpt><trkpt lat="44.742798232598005" lon="11.957558472445836"><ele>-1.8</ele><time>2026-03-29T14:32:33Z</time></trkpt><trkpt lat="44.742815547325996" lon="11.95744260226996"><ele>-2.0</ele><time>2026-03-29T14:32:34Z</time></trkpt><trkpt lat="44.74283342981874" lon="11.957318620286218"><ele>-1.9999999999999998</ele><time>2026-03-29T14:32:35Z</time></trkpt><trkpt lat="44.74286063752406" lon="11.957207854472806"><ele>-2.0</ele><time>2026-03-29T14:32:36Z</time></trkpt><trkpt lat="44.74288169400605" lon="11.95710925243768"><ele>-2.0</ele><time>2026-03-29T14:32:37Z</time></trkpt><trkpt lat="44.74289963729647" lon="11.95702252267119"><ele>-2.0</ele><time>2026-03-29T14:32:38Z</time></trkpt><trkpt lat="44.74291983309028" lon="11.956916346765606"><ele>-1.9999999999999998</ele><time>2026-03-29T14:32:39Z</time></trkpt><trkpt lat="44.74294256355522" lon="11.956804250200616"><ele>-2.0</ele><time>2026-03-29T14:32:40Z</time></trkpt><trkpt lat="44.74296728777197" lon="11.956682381348656"><ele>-2.2</ele><time>2026-03-29T14:32:41Z</time></trkpt><trkpt lat="44.74299332112775" lon="11.956539368796335"><ele>-2.4000000000000004</ele><time>2026-03-29T14:32:42Z</time></trkpt><trkpt lat="44.74302034737838" lon="11.95637976345038"><ele>-2.5999999999999996</ele><time>2026-03-29T14:32:43Z</time></trkpt><trkpt lat="44.74306660417485" lon="11.956236740309503"><ele>-2.8</ele><time>2026-03-29T14:32:44Z</time></trkpt><trkpt lat="44.74309411386207" lon="11.956078985604663"><ele>-3.0</ele><time>2026-03-29T14:32:45Z</time></trkpt><trkpt lat="44.743098798951486" lon="11.955914493210447"><ele>-3.0</ele><time>2026-03-29T14:32:46Z</time></trkpt><trkpt lat="44.74311153590295" lon="11.955759763385274"><ele>-3.0</ele><time>2026-03-29T14:32:47Z</time></trkpt><trkpt lat="44.74312424865761" lon="11.955601740217517"><ele>-3.0</ele><time>2026-03-29T14:32:48Z</time></trkpt><trkpt lat="44.743153849015876" lon="11.955445427171902"><ele>-3.0</ele><time>2026-03-29T14:32:49Z</time></trkpt><trkpt lat="44.743157664472434" lon="11.955286913750426"><ele>-3.0</ele><time>2026-03-29T14:32:50Z</time></trkpt><trkpt lat="44.74316886216395" lon="11.955128352096994"><ele>-3.0</ele><time>2026-03-29T14:32:51Z</time></trkpt><trkpt lat="44.74318757982581" lon="11.954971439808787"><ele>-3.0</ele><time>2026-03-29T14:32:52Z</time></trkpt><trkpt lat="44.74320989444149" lon="11.954815859353763"><ele>-3.0</ele><time>2026-03-29T14:32:53Z</time></trkpt><trkpt lat="44.74323661723541" lon="11.95465983483283"><ele>-2.6</ele><time>2026-03-29T14:32:54Z</time></trkpt><trkpt lat="44.743280588820284" lon="11.954514980260882"><ele>-2.1999999999999997</ele><time>2026-03-29T14:32:55Z</time></trkpt><trkpt lat="44.74329018710069" lon="11.95436267879549"><ele>-1.8</ele><time>2026-03-29T14:32:56Z</time></trkpt><trkpt lat="44.74331358552629" lon="11.954210509184804"><ele>-1.4</ele><time>2026-03-29T14:32:57Z</time></trkpt><trkpt lat="44.74333350119325" lon="11.9540676958851"><ele>-1.0</ele><time>2026-03-29T14:32:58Z</time></trkpt><trkpt lat="44.74334389909721" lon="11.953912317831433"><ele>-0.8</ele><time>2026-03-29T14:32:59Z</time></trkpt><trkpt lat="44.74335930427215" lon="11.953760004876562"><ele>-0.6000000000000001</ele><time>2026-03-29T14:33:00Z</time></trkpt><trkpt lat="44.74337661145784" lon="11.953603680560084"><ele>-0.4</ele><time>2026-03-29T14:33:01Z</time></trkpt><trkpt lat="44.74341153370095" lon="11.953456263545508"><ele>-0.2</ele><time>2026-03-29T14:33:01.999Z</time></trkpt><trkpt lat="44.743420265719834" lon="11.95329854212296"><ele>0.0</ele><time>2026-03-29T14:33:02.999Z</time></trkpt><trkpt lat="44.743442307351216" lon="11.953152774192295"><ele>-0.4</ele><time>2026-03-29T14:33:03.999Z</time></trkpt><trkpt lat="44.743461507440244" lon="11.9530185534904"><ele>-0.8</ele><time>2026-03-29T14:33:04.999Z</time></trkpt><trkpt lat="44.7434799091631" lon="11.95288479542407"><ele>-1.2000000000000002</ele><time>2026-03-29T14:33:05.999Z</time></trkpt><trkpt lat="44.743493261758886" lon="11.952735127002294"><ele>-1.6</ele><time>2026-03-29T14:33:06.999Z</time></trkpt><trkpt lat="44.743500950192946" lon="11.95257885276683"><ele>-2.0</ele><time>2026-03-29T14:33:07.999Z</time></trkpt><trkpt lat="44.743506733850886" lon="11.95242063503689"><ele>-2.2</ele><time>2026-03-29T14:33:08.999Z</time></trkpt><trkpt lat="44.743508893980334" lon="11.952257187267616"><ele>-2.4000000000000004</ele><time>2026-03-29T14:33:09.999Z</time></trkpt><trkpt lat="44.743495693621554" lon="11.952107281914472"><ele>-2.5999999999999996</ele><time>2026-03-29T14:33:10.999Z</time></trkpt><trkpt lat="44.74347309679058" lon="11.951977661909668"><ele>-2.8</ele><time>2026-03-29T14:33:11.999Z</time></trkpt><trkpt lat="44.74344652212369" lon="11.95186867589427"><ele>-3.0</ele><time>2026-03-29T14:33:12.999Z</time></trkpt><trkpt lat="44.74343336286736" lon="11.951758292370373"><ele>-3.1666666666666665</ele><time>2026-03-29T14:33:13.999Z</time></trkpt><trkpt lat="44.74339225341378" lon="11.95167485533246"><ele>-3.333333333333333</ele><time>2026-03-29T14:33:14.999Z</time></trkpt><trkpt lat="44.74338327076014" lon="11.951584409000393"><ele>-3.5</ele><time>2026-03-29T14:33:15.999Z</time></trkpt><trkpt lat="44.743334545378836" lon="11.951434939277233"><ele>-3.6666666666666665</ele><time>2026-03-29T14:33:17.999Z</time></trkpt><trkpt lat="44.74328953937905" lon="11.951290002448985"><ele>-3.833333333333333</ele><time>2026-03-29T14:33:19.999Z</time></trkpt><trkpt lat="44.74328562514094" lon="11.95118010698676"><ele>-4.0</ele><time>2026-03-29T14:33:21.999Z</time></trkpt><trkpt lat="44.74328318575" lon="11.951081434803173"><ele>-4.0</ele><time>2026-03-29T14:33:24Z</time></trkpt><trkpt lat="44.74342699630346" lon="11.95111822176089"><ele>-4.0</ele><time>2026-03-29T14:33:25Z</time></trkpt><trkpt lat="44.74350630221932" lon="11.951151322781143"><ele>-4.0</ele><time>2026-03-29T14:33:26Z</time></trkpt><trkpt lat="44.74360809685555" lon="11.95117891880449"><ele>-4.0</ele><time>2026-03-29T14:33:27Z</time></trkpt><trkpt lat="44.74371362933546" lon="11.95119491197985"><ele>-4.0</ele><time>2026-03-29T14:33:28Z</time></trkpt><trkpt lat="44.743845908195475" lon="11.951199028233846"><ele>-3.5</ele><time>2026-03-29T14:33:29Z</time></trkpt><trkpt lat="44.743995659884185" lon="11.9511946393008"><ele>-3.0</ele><time>2026-03-29T14:33:30Z</time></trkpt><trkpt lat="44.74413513879842" lon="11.951189057923635"><ele>-2.5</ele><time>2026-03-29T14:33:31Z</time></trkpt><trkpt lat="44.744257996857286" lon="11.95117502219934"><ele>-2.0</ele><time>2026-03-29T14:33:32Z</time></trkpt><trkpt lat="44.74436629438058" lon="11.951170953897005"><ele>-1.6</ele><time>2026-03-29T14:33:33Z</time></trkpt><trkpt lat="44.74446436429723" lon="11.951172928163023"><ele>-1.2000000000000002</ele><time>2026-03-29T14:33:34Z</time></trkpt><trkpt lat="44.74456347433522" lon="11.951171470788575"><ele>-0.8</ele><time>2026-03-29T14:33:35Z</time></trkpt><trkpt lat="44.744667799831" lon="11.951159990049925"><ele>-0.4</ele><time>2026-03-29T14:33:36Z</time></trkpt><trkpt lat="44.744772579344804" lon="11.951151337681717"><ele>0.0</ele><time>2026-03-29T14:33:37Z</time></trkpt><trkpt lat="44.74485959259124" lon="11.951146650859974"><ele>0.0</ele><time>2026-03-29T14:33:38Z</time></trkpt><trkpt lat="44.744939836502354" lon="11.9511536928899"><ele>0.0</ele><time>2026-03-29T14:33:39Z</time></trkpt><trkpt lat="44.745012378531314" lon="11.951178335293068"><ele>0.0</ele><time>2026-03-29T14:33:40Z</time></trkpt><trkpt lat="44.74508493103486" lon="11.951186991960228"><ele>0.0</ele><time>2026-03-29T14:33:41Z</time></trkpt><trkpt lat="44.74513904703105" lon="11.95131206127846"><ele>0.0</ele><time>2026-03-29T14:33:42Z</time></trkpt><trkpt lat="44.745188269614054" lon="11.95140351200186"><ele>0.0</ele><time>2026-03-29T14:33:43Z</time></trkpt><trkpt lat="44.74525204501043" lon="11.951457231587915"><ele>-0.16666666666666666</ele><time>2026-03-29T14:33:44Z</time></trkpt><trkpt lat="44.74532838110205" lon="11.95147718931876"><ele>-0.3333333333333333</ele><time>2026-03-29T14:33:45Z</time></trkpt><trkpt lat="44.74540453086299" lon="11.951443020459248"><ele>-0.5</ele><time>2026-03-29T14:33:46Z</time></trkpt><trkpt lat="44.74546453890133" lon="11.951376784365577"><ele>-0.6666666666666666</ele><time>2026-03-29T14:33:47Z</time></trkpt><trkpt lat="44.745500942658104" lon="11.95127526075071"><ele>-0.8333333333333333</ele><time>2026-03-29T14:33:48Z</time></trkpt><trkpt lat="44.74550457306636" lon="11.95116286839015"><ele>-1.0</ele><time>2026-03-29T14:33:49Z</time></trkpt><trkpt lat="44.74548506503252" lon="11.951046700479967"><ele>-1.0</ele><time>2026-03-29T14:33:50Z</time></trkpt><trkpt lat="44.74544386091833" lon="11.95092840804251"><ele>-1.0</ele><time>2026-03-29T14:33:51Z</time></trkpt><trkpt lat="44.745371887146085" lon="11.950821868363903"><ele>-1.0</ele><time>2026-03-29T14:33:52Z</time></trkpt><trkpt lat="44.745395851999646" lon="11.950612942141198"><ele>-1.0</ele><time>2026-03-29T14:33:53Z</time></trkpt><trkpt lat="44.7454010394484" lon="11.950442708051959"><ele>-1.0</ele><time>2026-03-29T14:33:54Z</time></trkpt><trkpt lat="44.745406019835926" lon="11.950269331828622"><ele>-1.0</ele><time>2026-03-29T14:33:55Z</time></trkpt><trkpt lat="44.74539736263986" lon="11.950080813727851"><ele>-1.0</ele><time>2026-03-29T14:33:56Z</time></trkpt><trkpt lat="44.74539396191485" lon="11.949885744100488"><ele>-1.0</ele><time>2026-03-29T14:33:57Z</time></trkpt><trkpt lat="44.7453932041017" lon="11.949691308218625"><ele>-1.0</ele><time>2026-03-29T14:33:58Z</time></trkpt><trkpt lat="44.74538906927642" lon="11.949498394676628"><ele>-1.0</ele><time>2026-03-29T14:33:59Z</time></trkpt><trkpt lat="44.745381943574564" lon="11.94930620963152"><ele>-1.0</ele><time>2026-03-29T14:34:00Z</time></trkpt><trkpt lat="44.74537546119139" lon="11.949112919326588"><ele>-1.0</ele><time>2026-03-29T14:34:01Z</time></trkpt><trkpt lat="44.74537140459138" lon="11.94892268674485"><ele>-1.0</ele><time>2026-03-29T14:34:02Z</time></trkpt><trkpt lat="44.7453665001199" lon="11.948729223903221"><ele>-1.0</ele><time>2026-03-29T14:34:03Z</time></trkpt><trkpt lat="44.74535680386215" lon="11.948541770096897"><ele>-1.0</ele><time>2026-03-29T14:34:04Z</time></trkpt><trkpt lat="44.74534226947132" lon="11.948331242427848"><ele>-1.0</ele><time>2026-03-29T14:34:05Z</time></trkpt><trkpt lat="44.745335752492494" lon="11.948115610257174"><ele>-1.0</ele><time>2026-03-29T14:34:06Z</time></trkpt><trkpt lat="44.745325327643236" lon="11.94792650650663"><ele>-1.0</ele><time>2026-03-29T14:34:07Z</time></trkpt><trkpt lat="44.74532109868759" lon="11.947752822847384"><ele>-1.0</ele><time>2026-03-29T14:34:08Z</time></trkpt><trkpt lat="44.74531375663969" lon="11.94758299885416"><ele>-1.0</ele><time>2026-03-29T14:34:09Z</time></trkpt><trkpt lat="44.74531068486581" lon="11.947414990428216"><ele>-0.5</ele><time>2026-03-29T14:34:10Z</time></trkpt><trkpt lat="44.74530606114913" lon="11.94724328258978"><ele>0.0</ele><time>2026-03-29T14:34:11Z</time></trkpt><trkpt lat="44.745301066119694" lon="11.947072216596604"><ele>0.5</ele><time>2026-03-29T14:34:12Z</time></trkpt><trkpt lat="44.74529084729566" lon="11.946902539214463"><ele>1.0</ele><time>2026-03-29T14:34:13Z</time></trkpt><trkpt lat="44.74528223629223" lon="11.946731596930995"><ele>1.0</ele><time>2026-03-29T14:34:14Z</time></trkpt><trkpt lat="44.74527868870246" lon="11.946564504958308"><ele>1.0</ele><time>2026-03-29T14:34:15Z</time></trkpt><trkpt lat="44.745269722815024" lon="11.94640263793186"><ele>1.0</ele><time>2026-03-29T14:34:16Z</time></trkpt><trkpt lat="44.745260382803565" lon="11.946245083524584"><ele>1.0</ele><time>2026-03-29T14:34:17Z</time></trkpt><trkpt lat="44.7452522642677" lon="11.946081083915123"><ele>1.0</ele><time>2026-03-29T14:34:18Z</time></trkpt><trkpt lat="44.74524388500559" lon="11.945923241317708"><ele>1.0</ele><time>2026-03-29T14:34:19Z</time></trkpt><trkpt lat="44.745241035501806" lon="11.945777658813322"><ele>1.0</ele><time>2026-03-29T14:34:20Z</time></trkpt><trkpt lat="44.745233004702385" lon="11.945641829177493"><ele>1.0</ele><time>2026-03-29T14:34:21Z</time></trkpt><trkpt lat="44.745228024235" lon="11.945511225529632"><ele>1.0</ele><time>2026-03-29T14:34:22Z</time></trkpt><trkpt lat="44.74522121071232" lon="11.945375328557176"><ele>1.0</ele><time>2026-03-29T14:34:23Z</time></trkpt><trkpt lat="44.74521485224205" lon="11.945231257152779"><ele>1.0</ele><time>2026-03-29T14:34:24Z</time></trkpt><trkpt lat="44.745209851726074" lon="11.945093171416291"><ele>1.0</ele><time>2026-03-29T14:34:25Z</time></trkpt><trkpt lat="44.74520347175695" lon="11.944952642429378"><ele>1.0</ele><time>2026-03-29T14:34:26Z</time></trkpt><trkpt lat="44.74519881100328" lon="11.944819232867545"><ele>1.0</ele><time>2026-03-29T14:34:27Z</time></trkpt><trkpt lat="44.7451933810051" lon="11.944697905240316"><ele>1.0</ele><time>2026-03-29T14:34:28Z</time></trkpt><trkpt lat="44.745184843794966" lon="11.94456728275094"><ele>1.0</ele><time>2026-03-29T14:34:29Z</time></trkpt><trkpt lat="44.745175460987895" lon="11.94443456977691"><ele>1.0</ele><time>2026-03-29T14:34:30Z</time></trkpt><trkpt lat="44.74516582663989" lon="11.944292435309935"><ele>1.0</ele><time>2026-03-29T14:34:31Z</time></trkpt><trkpt lat="44.74515972638958" lon="11.944145331222382"><ele>1.0</ele><time>2026-03-29T14:34:32Z</time></trkpt><trkpt lat="44.74515431131429" lon="11.943993870905107"><ele>1.0</ele><time>2026-03-29T14:34:33Z</time></trkpt><trkpt lat="44.74515149265914" lon="11.943839638350846"><ele>1.0</ele><time>2026-03-29T14:34:34Z</time></trkpt><trkpt lat="44.745147711275564" lon="11.943694285172706"><ele>1.0</ele><time>2026-03-29T14:34:35Z</time></trkpt><trkpt lat="44.74514866806225" lon="11.943527891708813"><ele>1.0</ele><time>2026-03-29T14:34:36Z</time></trkpt><trkpt lat="44.74515056072714" lon="11.943374353422389"><ele>1.0</ele><time>2026-03-29T14:34:37Z</time></trkpt><trkpt lat="44.745155751544104" lon="11.94324103501976"><ele>0.9999999999999999</ele><time>2026-03-29T14:34:38Z</time></trkpt><trkpt lat="44.74515602403314" lon="11.943115081405766"><ele>1.0</ele><time>2026-03-29T14:34:39Z</time></trkpt><trkpt lat="44.745156735281036" lon="11.942985868834322"><ele>1.0</ele><time>2026-03-29T14:34:40Z</time></trkpt><trkpt lat="44.7451594830273" lon="11.942865249762667"><ele>1.0</ele><time>2026-03-29T14:34:41Z</time></trkpt><trkpt lat="44.7451694515371" lon="11.942756391767466"><ele>0.9999999999999999</ele><time>2026-03-29T14:34:42Z</time></trkpt><trkpt lat="44.7451655813237" lon="11.942649581111748"><ele>1.0</ele><time>2026-03-29T14:34:43Z</time></trkpt><trkpt lat="44.745179576696586" lon="11.942483878523099"><ele>1.2000000000000002</ele><time>2026-03-29T14:34:45Z</time></trkpt><trkpt lat="44.745160793816886" lon="11.942359165880182"><ele>1.4000000000000001</ele><time>2026-03-29T14:34:47Z</time></trkpt><trkpt lat="44.745044545727275" lon="11.942275180774528"><ele>1.6</ele><time>2026-03-29T14:34:49Z</time></trkpt><trkpt lat="44.74497340057164" lon="11.942275335102439"><ele>1.8</ele><time>2026-03-29T14:34:50Z</time></trkpt><trkpt lat="44.74488765356856" lon="11.942275521101372"><ele>2.0</ele><time>2026-03-29T14:34:51Z</time></trkpt><trkpt lat="44.74481212280362" lon="11.942275684943736"><ele>2.0</ele><time>2026-03-29T14:34:52Z</time></trkpt><trkpt lat="44.744724837283584" lon="11.942275874286024"><ele>2.0</ele><time>2026-03-29T14:34:53Z</time></trkpt><trkpt lat="44.74462837421135" lon="11.94227608353458"><ele>2.0</ele><time>2026-03-29T14:34:54Z</time></trkpt><trkpt lat="44.7445152884058" lon="11.942275513474174"><ele>2.0</ele><time>2026-03-29T14:34:55Z</time></trkpt><trkpt lat="44.74441367857111" lon="11.942278573745671"><ele>2.0</ele><time>2026-03-29T14:34:56Z</time></trkpt><trkpt lat="44.744333974538655" lon="11.942272773090982"><ele>1.8333333333333333</ele><time>2026-03-29T14:34:57Z</time></trkpt><trkpt lat="44.744260640125155" lon="11.942284259942921"><ele>1.6666666666666665</ele><time>2026-03-29T14:34:58Z</time></trkpt><trkpt lat="44.74418934332105" lon="11.942288558345401"><ele>1.5</ele><time>2026-03-29T14:34:59Z</time></trkpt><trkpt lat="44.74407878475749" lon="11.942278242732337"><ele>1.3333333333333333</ele><time>2026-03-29T14:35:01Z</time></trkpt><trkpt lat="44.74405253130223" lon="11.942129425909007"><ele>1.1666666666666665</ele><time>2026-03-29T14:35:03Z</time></trkpt><trkpt lat="44.744063599564534" lon="11.942037025931901"><ele>1.0</ele><time>2026-03-29T14:35:04Z</time></trkpt><trkpt lat="44.744070223236655" lon="11.941935222475214"><ele>0.9999999999999999</ele><time>2026-03-29T14:35:05Z</time></trkpt><trkpt lat="44.744074033651174" lon="11.941823739653493"><ele>1.0</ele><time>2026-03-29T14:35:06Z</time></trkpt><trkpt lat="44.74407206640672" lon="11.941727537688072"><ele>1.0</ele><time>2026-03-29T14:35:07Z</time></trkpt><trkpt lat="44.74407344188931" lon="11.941628078335599"><ele>1.0</ele><time>2026-03-29T14:35:07.999Z</time></trkpt><trkpt lat="44.74407257857242" lon="11.94152791777908"><ele>0.9999999999999999</ele><time>2026-03-29T14:35:08.999Z</time></trkpt><trkpt lat="44.74407056016442" lon="11.941369689120103"><ele>1.0</ele><time>2026-03-29T14:35:10.999Z</time></trkpt><trkpt lat="44.7440583806027" lon="11.941224256983002"><ele>1.0</ele><time>2026-03-29T14:35:12.999Z</time></trkpt><trkpt lat="44.744046286177074" lon="11.941116791220345"><ele>1.0</ele><time>2026-03-29T14:35:13.999Z</time></trkpt><trkpt lat="44.74402490137526" lon="11.941004115669365"><ele>1.0</ele><time>2026-03-29T14:35:14.999Z</time></trkpt><trkpt lat="44.74399177299466" lon="11.940883207788243"><ele>1.0</ele><time>2026-03-29T14:35:15.999Z</time></trkpt><trkpt lat="44.743949701377" lon="11.940752769856372"><ele>1.0</ele><time>2026-03-29T14:35:16.999Z</time></trkpt><trkpt lat="44.74390958872961" lon="11.940617091380366"><ele>1.0</ele><time>2026-03-29T14:35:17.999Z</time></trkpt><trkpt lat="44.74389130986612" lon="11.940480403571863"><ele>1.0</ele><time>2026-03-29T14:35:18.999Z</time></trkpt><trkpt lat="44.74385604164085" lon="11.940345517537553"><ele>1.0</ele><time>2026-03-29T14:35:19.999Z</time></trkpt><trkpt lat="44.743816002054125" lon="11.940200625261541"><ele>1.0</ele><time>2026-03-29T14:35:20.999Z</time></trkpt><trkpt lat="44.74377378043705" lon="11.940047149506068"><ele>1.0</ele><time>2026-03-29T14:35:21.999Z</time></trkpt><trkpt lat="44.74372894511793" lon="11.939884178200568"><ele>0.8</ele><time>2026-03-29T14:35:22.999Z</time></trkpt><trkpt lat="44.743667410606676" lon="11.939726151674513"><ele>0.6000000000000001</ele><time>2026-03-29T14:35:23.999Z</time></trkpt><trkpt lat="44.743627559313" lon="11.939582743688337"><ele>0.4</ele><time>2026-03-29T14:35:24.999Z</time></trkpt><trkpt lat="44.743592478929415" lon="11.939460625220674"><ele>0.2</ele><time>2026-03-29T14:35:25.999Z</time></trkpt><trkpt lat="44.74356291829795" lon="11.939344599647772"><ele>0.0</ele><time>2026-03-29T14:35:26.999Z</time></trkpt><trkpt lat="44.7435266366476" lon="11.939221803533178"><ele>0.0</ele><time>2026-03-29T14:35:27.999Z</time></trkpt><trkpt lat="44.74350555143752" lon="11.939080789709868"><ele>0.0</ele><time>2026-03-29T14:35:28.999Z</time></trkpt><trkpt lat="44.7434647655298" lon="11.938928525426613"><ele>0.0</ele><time>2026-03-29T14:35:29.999Z</time></trkpt><trkpt lat="44.74342023609714" lon="11.93876038915965"><ele>0.0</ele><time>2026-03-29T14:35:30.999Z</time></trkpt><trkpt lat="44.743374637690856" lon="11.938589319439416"><ele>0.0</ele><time>2026-03-29T14:35:31.999Z</time></trkpt><trkpt lat="44.74332916817688" lon="11.938424721392552"><ele>0.0</ele><time>2026-03-29T14:35:32.999Z</time></trkpt><trkpt lat="44.74328311762708" lon="11.938258804539252"><ele>0.0</ele><time>2026-03-29T14:35:33.999Z</time></trkpt><trkpt lat="44.74323825733212" lon="11.938094739644473"><ele>0.0</ele><time>2026-03-29T14:35:34.999Z</time></trkpt><trkpt lat="44.743199077665025" lon="11.937950088002525"><ele>0.2</ele><time>2026-03-29T14:35:36Z</time></trkpt><trkpt lat="44.74315944672602" lon="11.937803770421057"><ele>0.4</ele><time>2026-03-29T14:35:37Z</time></trkpt><trkpt lat="44.7431199319017" lon="11.937660782013035"><ele>0.6000000000000001</ele><time>2026-03-29T14:35:38Z</time></trkpt><trkpt lat="44.743080538588686" lon="11.937530979000643"><ele>0.8</ele><time>2026-03-29T14:35:39Z</time></trkpt><trkpt lat="44.74304228860961" lon="11.937410370637492"><ele>1.0</ele><time>2026-03-29T14:35:40Z</time></trkpt><trkpt lat="44.74300821627889" lon="11.9373039041467"><ele>1.0</ele><time>2026-03-29T14:35:41Z</time></trkpt><trkpt lat="44.742980592505326" lon="11.93721758783368"><ele>0.9999999999999999</ele><time>2026-03-29T14:35:42Z</time></trkpt><trkpt lat="44.742938373212" lon="11.937144634777711"><ele>1.0</ele><time>2026-03-29T14:35:43Z</time></trkpt><trkpt lat="44.74291937765714" lon="11.937055498417836"><ele>1.0</ele><time>2026-03-29T14:35:44Z</time></trkpt><trkpt lat="44.7428810297106" lon="11.936967702121986"><ele>0.9999999999999999</ele><time>2026-03-29T14:35:45Z</time></trkpt><trkpt lat="44.74284404658925" lon="11.936864878160426"><ele>1.0</ele><time>2026-03-29T14:35:46Z</time></trkpt><trkpt lat="44.74282694852689" lon="11.936759075929425"><ele>1.0</ele><time>2026-03-29T14:35:47Z</time></trkpt><trkpt lat="44.74279584768254" lon="11.936665187600381"><ele>0.8</ele><time>2026-03-29T14:35:48Z</time></trkpt><trkpt lat="44.742766983759125" lon="11.936576384784866"><ele>0.6000000000000001</ele><time>2026-03-29T14:35:49Z</time></trkpt><trkpt lat="44.74272425811312" lon="11.936443720973209"><ele>0.4</ele><time>2026-03-29T14:35:51Z</time></trkpt><trkpt lat="44.742692122162815" lon="11.936345248127356"><ele>0.2</ele><time>2026-03-29T14:35:53Z</time></trkpt><trkpt lat="44.74277145367316" lon="11.936251257448664"><ele>0.0</ele><time>2026-03-29T14:35:57Z</time></trkpt><trkpt lat="44.74289583715621" lon="11.936280723277143"><ele>0.0</ele><time>2026-03-29T14:35:59Z</time></trkpt><trkpt lat="44.74296971974902" lon="11.93629701993078"><ele>0.0</ele><time>2026-03-29T14:36:00Z</time></trkpt><trkpt lat="44.74304533133103" lon="11.936309680110664"><ele>0.0</ele><time>2026-03-29T14:36:01Z</time></trkpt><trkpt lat="44.74312559725703" lon="11.936322229427393"><ele>0.0</ele><time>2026-03-29T14:36:02Z</time></trkpt><trkpt lat="44.74320968274433" lon="11.93633310732097"><ele>0.0</ele><time>2026-03-29T14:36:03Z</time></trkpt><trkpt lat="44.74330235295461" lon="11.93634580958506"><ele>0.0</ele><time>2026-03-29T14:36:04Z</time></trkpt><trkpt lat="44.74339627609881" lon="11.936358263461717"><ele>0.0</ele><time>2026-03-29T14:36:05Z</time></trkpt><trkpt lat="44.743492340637964" lon="11.936375679298996"><ele>0.0</ele><time>2026-03-29T14:36:06Z</time></trkpt><trkpt lat="44.743578760718414" lon="11.936390340757697"><ele>0.0</ele><time>2026-03-29T14:36:07Z</time></trkpt><trkpt lat="44.743668126841854" lon="11.936402382326786"><ele>0.0</ele><time>2026-03-29T14:36:08Z</time></trkpt><trkpt lat="44.74376540224065" lon="11.936417032136506"><ele>0.0</ele><time>2026-03-29T14:36:09Z</time></trkpt><trkpt lat="44.7438634853324" lon="11.936430122635958"><ele>0.2</ele><time>2026-03-29T14:36:10Z</time></trkpt><trkpt lat="44.743964118230636" lon="11.936443790970237"><ele>0.4</ele><time>2026-03-29T14:36:11Z</time></trkpt><trkpt lat="44.744064963272976" lon="11.936457980095723"><ele>0.6000000000000001</ele><time>2026-03-29T14:36:12Z</time></trkpt><trkpt lat="44.74415903833624" lon="11.936475359414054"><ele>0.8</ele><time>2026-03-29T14:36:13Z</time></trkpt><trkpt lat="44.7442513536253" lon="11.936487759438027"><ele>1.0</ele><time>2026-03-29T14:36:14Z</time></trkpt><trkpt lat="44.74433626671024" lon="11.936497104635436"><ele>0.6666666666666666</ele><time>2026-03-29T14:36:15Z</time></trkpt><trkpt lat="44.744426334157154" lon="11.936507337511175"><ele>0.3333333333333333</ele><time>2026-03-29T14:36:16Z</time></trkpt><trkpt lat="44.74451508232271" lon="11.936517146674047"><ele>0.0</ele><time>2026-03-29T14:36:17Z</time></trkpt><trkpt lat="44.74459726286294" lon="11.936530837925229"><ele>-0.3333333333333333</ele><time>2026-03-29T14:36:18Z</time></trkpt><trkpt lat="44.744664886820374" lon="11.936541500424962"><ele>-0.6666666666666666</ele><time>2026-03-29T14:36:19Z</time></trkpt><trkpt lat="44.74472755385531" lon="11.936551558130514"><ele>-1.0</ele><time>2026-03-29T14:36:20Z</time></trkpt><trkpt lat="44.74479113149643" lon="11.936558996691696"><ele>-0.9999999999999999</ele><time>2026-03-29T14:36:21Z</time></trkpt><trkpt lat="44.7449056612502" lon="11.93657851997647"><ele>-1.0</ele><time>2026-03-29T14:36:23Z</time></trkpt><trkpt lat="44.74497745838617" lon="11.936592688449142"><ele>-1.0</ele><time>2026-03-29T14:36:25Z</time></trkpt><trkpt lat="44.74497769491286" lon="11.936741657759658"><ele>-1.0</ele><time>2026-03-29T14:36:28Z</time></trkpt><trkpt lat="44.74498302113711" lon="11.936837284005616"><ele>-0.9999999999999999</ele><time>2026-03-29T14:36:29Z</time></trkpt><trkpt lat="44.74497095966026" lon="11.936949504096509"><ele>-1.0</ele><time>2026-03-29T14:36:30Z</time></trkpt><trkpt lat="44.74496337021657" lon="11.937055143720498"><ele>-0.8</ele><time>2026-03-29T14:36:31Z</time></trkpt><trkpt lat="44.74495571370095" lon="11.937172457155839"><ele>-0.6000000000000001</ele><time>2026-03-29T14:36:32Z</time></trkpt><trkpt lat="44.744945013199015" lon="11.937302443803391"><ele>-0.4</ele><time>2026-03-29T14:36:33Z</time></trkpt><trkpt lat="44.744933377735514" lon="11.93744533845364"><ele>-0.2</ele><time>2026-03-29T14:36:34Z</time></trkpt><trkpt lat="44.744922122986274" lon="11.93758961671941"><ele>0.0</ele><time>2026-03-29T14:36:35Z</time></trkpt><trkpt lat="44.744910951044375" lon="11.937728011126953"><ele>0.0</ele><time>2026-03-29T14:36:36Z</time></trkpt><trkpt lat="44.74490102580696" lon="11.937875795413515"><ele>0.0</ele><time>2026-03-29T14:36:37Z</time></trkpt><trkpt lat="44.74488760610907" lon="11.938033783363238"><ele>0.0</ele><time>2026-03-29T14:36:38Z</time></trkpt><trkpt lat="44.74487741306606" lon="11.938197378273255"><ele>0.0</ele><time>2026-03-29T14:36:39Z</time></trkpt><trkpt lat="44.744864636700264" lon="11.938358348570716"><ele>0.0</ele><time>2026-03-29T14:36:40Z</time></trkpt><trkpt lat="44.744853681017986" lon="11.938508210875403"><ele>0.0</ele><time>2026-03-29T14:36:41Z</time></trkpt><trkpt lat="44.744845003001885" lon="11.938654468493421"><ele>0.0</ele><time>2026-03-29T14:36:42Z</time></trkpt><trkpt lat="44.74484166103685" lon="11.938798556036932"><ele>0.0</ele><time>2026-03-29T14:36:43Z</time></trkpt><trkpt lat="44.74485064779239" lon="11.938943368576332"><ele>0.0</ele><time>2026-03-29T14:36:44Z</time></trkpt><trkpt lat="44.744872463375145" lon="11.93907603307881"><ele>0.0</ele><time>2026-03-29T14:36:45Z</time></trkpt><trkpt lat="44.74490345711976" lon="11.939206374264952"><ele>0.0</ele><time>2026-03-29T14:36:46Z</time></trkpt><trkpt lat="44.74493314965382" lon="11.939343568589772"><ele>0.0</ele><time>2026-03-29T14:36:47Z</time></trkpt><trkpt lat="44.74496171544173" lon="11.939480800502675"><ele>0.0</ele><time>2026-03-29T14:36:48Z</time></trkpt><trkpt lat="44.744973035815065" lon="11.939623581699362"><ele>0.0</ele><time>2026-03-29T14:36:49Z</time></trkpt><trkpt lat="44.74499752515057" lon="11.939748198532724"><ele>0.16666666666666666</ele><time>2026-03-29T14:36:50Z</time></trkpt><trkpt lat="44.74503542382368" lon="11.939854978617383"><ele>0.3333333333333333</ele><time>2026-03-29T14:36:51Z</time></trkpt><trkpt lat="44.74505525529582" lon="11.939970772996825"><ele>0.5</ele><time>2026-03-29T14:36:52Z</time></trkpt><trkpt lat="44.74506991776615" lon="11.94008715946464"><ele>0.6666666666666666</ele><time>2026-03-29T14:36:53Z</time></trkpt><trkpt lat="44.74508323092833" lon="11.940191509074275"><ele>0.8333333333333333</ele><time>2026-03-29T14:36:54Z</time></trkpt><trkpt lat="44.74509932313256" lon="11.940287085871711"><ele>1.0</ele><time>2026-03-29T14:36:55Z</time></trkpt><trkpt lat="44.74511374048507" lon="11.940374689713794"><ele>0.9999999999999999</ele><time>2026-03-29T14:36:56Z</time></trkpt><trkpt lat="44.74513036409846" lon="11.940505626878908"><ele>1.0</ele><time>2026-03-29T14:36:58Z</time></trkpt><trkpt lat="44.74514942810513" lon="11.940602102426192"><ele>1.0</ele><time>2026-03-29T14:37:00Z</time></trkpt><trkpt lat="44.74515319766569" lon="11.940702254595609"><ele>1.0</ele><time>2026-03-29T14:37:01Z</time></trkpt><trkpt lat="44.74515257490058" lon="11.940824523821414"><ele>0.9999999999999999</ele><time>2026-03-29T14:37:02Z</time></trkpt><trkpt lat="44.74515071289159" lon="11.940941738519706"><ele>1.0</ele><time>2026-03-29T14:37:03Z</time></trkpt><trkpt lat="44.7451488244781" lon="11.94105553844294"><ele>1.1666666666666665</ele><time>2026-03-29T14:37:04Z</time></trkpt><trkpt lat="44.74514972908247" lon="11.941177397061558"><ele>1.3333333333333333</ele><time>2026-03-29T14:37:05Z</time></trkpt><trkpt lat="44.745151113670666" lon="11.941321184636532"><ele>1.5</ele><time>2026-03-29T14:37:06Z</time></trkpt><trkpt lat="44.745146992345866" lon="11.941462768795173"><ele>1.6666666666666665</ele><time>2026-03-29T14:37:07Z</time></trkpt><trkpt lat="44.74514691856653" lon="11.941574652326333"><ele>1.8333333333333333</ele><time>2026-03-29T14:37:08Z</time></trkpt><trkpt lat="44.74514703989442" lon="11.941672917758234"><ele>2.0</ele><time>2026-03-29T14:37:09Z</time></trkpt><trkpt lat="44.74514687575533" lon="11.941778004533813"><ele>1.9999999999999998</ele><time>2026-03-29T14:37:10Z</time></trkpt><trkpt lat="44.74514460771757" lon="11.941884068355538"><ele>2.0</ele><time>2026-03-29T14:37:11Z</time></trkpt><trkpt lat="44.74514405555742" lon="11.941998616692212"><ele>2.0</ele><time>2026-03-29T14:37:12Z</time></trkpt><trkpt lat="44.745146494888914" lon="11.942112514083988"><ele>2.0</ele><time>2026-03-29T14:37:13Z</time></trkpt><trkpt lat="44.74514481227222" lon="11.942230911681259"><ele>1.9999999999999998</ele><time>2026-03-29T14:37:13.999Z</time></trkpt><trkpt lat="44.745142900974166" lon="11.94235047498184"><ele>2.0</ele><time>2026-03-29T14:37:14.999Z</time></trkpt><trkpt lat="44.7451412280724" lon="11.942466021370958"><ele>1.8333333333333333</ele><time>2026-03-29T14:37:15.999Z</time></trkpt><trkpt lat="44.745135735148146" lon="11.9425736494846"><ele>1.6666666666666665</ele><time>2026-03-29T14:37:16.999Z</time></trkpt><trkpt lat="44.74513443806692" lon="11.94269030715701"><ele>1.5</ele><time>2026-03-29T14:37:17.999Z</time></trkpt><trkpt lat="44.74513164086291" lon="11.942801153307418"><ele>1.3333333333333333</ele><time>2026-03-29T14:37:18.999Z</time></trkpt><trkpt lat="44.745127035478475" lon="11.942921269642508"><ele>1.1666666666666665</ele><time>2026-03-29T14:37:19.999Z</time></trkpt><trkpt lat="44.745127985800316" lon="11.943047319798186"><ele>1.0</ele><time>2026-03-29T14:37:20.999Z</time></trkpt><trkpt lat="44.74513221844439" lon="11.943174776383257"><ele>1.0</ele><time>2026-03-29T14:37:21.999Z</time></trkpt><trkpt lat="44.74512773276531" lon="11.943303844644625"><ele>1.0</ele><time>2026-03-29T14:37:23Z</time></trkpt><trkpt lat="44.74512383638037" lon="11.943433341097226"><ele>1.0</ele><time>2026-03-29T14:37:24Z</time></trkpt><trkpt lat="44.745122268861984" lon="11.943584783668015"><ele>1.0</ele><time>2026-03-29T14:37:25Z</time></trkpt><trkpt lat="44.74512017973199" lon="11.94375416563226"><ele>1.0</ele><time>2026-03-29T14:37:26Z</time></trkpt><trkpt lat="44.74512435613684" lon="11.943901324811465"><ele>0.9999999999999999</ele><time>2026-03-29T14:37:27Z</time></trkpt><trkpt lat="44.74512759888671" lon="11.944021398027015"><ele>1.0</ele><time>2026-03-29T14:37:28Z</time></trkpt><trkpt lat="44.7451353072341" lon="11.94413743140129"><ele>1.0</ele><time>2026-03-29T14:37:29Z</time></trkpt><trkpt lat="44.74514209523054" lon="11.944253907590992"><ele>1.0</ele><time>2026-03-29T14:37:30Z</time></trkpt><trkpt lat="44.745149573712865" lon="11.944372297940488"><ele>0.9999999999999999</ele><time>2026-03-29T14:37:31Z</time></trkpt><trkpt lat="44.7451584156961" lon="11.944499533764239"><ele>1.0</ele><time>2026-03-29T14:37:32Z</time></trkpt><trkpt lat="44.745163245304084" lon="11.944623271567185"><ele>0.9999999999999999</ele><time>2026-03-29T14:37:33Z</time></trkpt><trkpt lat="44.745168792596616" lon="11.944754714301103"><ele>1.0</ele><time>2026-03-29T14:37:34Z</time></trkpt><trkpt lat="44.74517315550445" lon="11.944891017714031"><ele>1.0</ele><time>2026-03-29T14:37:35Z</time></trkpt><trkpt lat="44.74518128983326" lon="11.945027900212024"><ele>1.0</ele><time>2026-03-29T14:37:36Z</time></trkpt><trkpt lat="44.74518225456932" lon="11.94514255220113"><ele>0.9999999999999999</ele><time>2026-03-29T14:37:37Z</time></trkpt><trkpt lat="44.74518371556052" lon="11.945243571904685"><ele>1.0</ele><time>2026-03-29T14:37:38Z</time></trkpt><trkpt lat="44.7451862666744" lon="11.94533273402448"><ele>1.0</ele><time>2026-03-29T14:37:39Z</time></trkpt><trkpt lat="44.74519459853058" lon="11.945464933540254"><ele>1.0</ele><time>2026-03-29T14:37:41Z</time></trkpt><trkpt lat="44.74540247823285" lon="11.945511217871552"><ele>1.0</ele><time>2026-03-29T14:37:43Z</time></trkpt><trkpt lat="44.745488152741956" lon="11.9455189174244"><ele>1.0</ele><time>2026-03-29T14:37:44Z</time></trkpt><trkpt lat="44.74557493422821" lon="11.94553034244487"><ele>1.0</ele><time>2026-03-29T14:37:45Z</time></trkpt><trkpt lat="44.74566855537582" lon="11.945563534904618"><ele>1.0</ele><time>2026-03-29T14:37:46Z</time></trkpt><trkpt lat="44.74577258804147" lon="11.945602387242296"><ele>1.0</ele><time>2026-03-29T14:37:47Z</time></trkpt><trkpt lat="44.74587678541192" lon="11.945635155228564"><ele>1.0</ele><time>2026-03-29T14:37:48Z</time></trkpt><trkpt lat="44.745981900106" lon="11.945665355134055"><ele>1.0</ele><time>2026-03-29T14:37:49Z</time></trkpt><trkpt lat="44.746082873511256" lon="11.945693314172967"><ele>0.75</ele><time>2026-03-29T14:37:50Z</time></trkpt><trkpt lat="44.7461862620966" lon="11.94572050448263"><ele>0.5</ele><time>2026-03-29T14:37:51Z</time></trkpt><trkpt lat="44.74630275313788" lon="11.945756261115273"><ele>0.25</ele><time>2026-03-29T14:37:52Z</time></trkpt><trkpt lat="44.74641867744862" lon="11.94578969957243"><ele>0.0</ele><time>2026-03-29T14:37:53Z</time></trkpt><trkpt lat="44.74653463854826" lon="11.945821454199516"><ele>0.0</ele><time>2026-03-29T14:37:54Z</time></trkpt><trkpt lat="44.74664508120973" lon="11.945855705028535"><ele>0.0</ele><time>2026-03-29T14:37:55Z</time></trkpt><trkpt lat="44.74674804473938" lon="11.945891830414535"><ele>0.0</ele><time>2026-03-29T14:37:56Z</time></trkpt><trkpt lat="44.74683670938811" lon="11.945921400948446"><ele>0.0</ele><time>2026-03-29T14:37:57Z</time></trkpt><trkpt lat="44.74692589930786" lon="11.945942670455581"><ele>0.0</ele><time>2026-03-29T14:37:58Z</time></trkpt><trkpt lat="44.747019233690466" lon="11.945966232955813"><ele>-0.3333333333333333</ele><time>2026-03-29T14:37:59Z</time></trkpt><trkpt lat="44.74710470210419" lon="11.945998324555186"><ele>-0.6666666666666666</ele><time>2026-03-29T14:38:00Z</time></trkpt><trkpt lat="44.747187745787826" lon="11.94603650096898"><ele>-1.0</ele><time>2026-03-29T14:38:01Z</time></trkpt><trkpt lat="44.74726083652981" lon="11.946071785200727"><ele>-1.3333333333333333</ele><time>2026-03-29T14:38:02Z</time></trkpt><trkpt lat="44.7473503608667" lon="11.946143448039633"><ele>-1.6666666666666665</ele><time>2026-03-29T14:38:04Z</time></trkpt><trkpt lat="44.747416721756665" lon="11.94616189423325"><ele>-2.0</ele><time>2026-03-29T14:38:06Z</time></trkpt><trkpt lat="44.74747358755175" lon="11.946200756170207"><ele>-2.0</ele><time>2026-03-29T14:38:14Z</time></trkpt><trkpt lat="44.7475550979315" lon="11.946178961045192"><ele>-2.0</ele><time>2026-03-29T14:38:26Z</time></trkpt><trkpt lat="44.74763018716262" lon="11.9460349924739"><ele>-2.0</ele><time>2026-03-29T14:38:28Z</time></trkpt><trkpt lat="44.74766429046678" lon="11.9459311919791"><ele>-2.0</ele><time>2026-03-29T14:38:29Z</time></trkpt><trkpt lat="44.74770619491402" lon="11.945808772856193"><ele>-2.0</ele><time>2026-03-29T14:38:30Z</time></trkpt><trkpt lat="44.7477500664383" lon="11.945692214310139"><ele>-2.25</ele><time>2026-03-29T14:38:31Z</time></trkpt><trkpt lat="44.74780267076596" lon="11.945556176328676"><ele>-2.5</ele><time>2026-03-29T14:38:32Z</time></trkpt><trkpt lat="44.7478618349309" lon="11.945399731962807"><ele>-2.75</ele><time>2026-03-29T14:38:33Z</time></trkpt><trkpt lat="44.747924363283566" lon="11.945237221526996"><ele>-3.0</ele><time>2026-03-29T14:38:34Z</time></trkpt><trkpt lat="44.74798415728671" lon="11.945072461674036"><ele>-2.75</ele><time>2026-03-29T14:38:35Z</time></trkpt><trkpt lat="44.74804651979904" lon="11.944900219550059"><ele>-2.5</ele><time>2026-03-29T14:38:36Z</time></trkpt><trkpt lat="44.74811625182305" lon="11.944710780475356"><ele>-2.25</ele><time>2026-03-29T14:38:37Z</time></trkpt><trkpt lat="44.74818950673279" lon="11.944512530594357"><ele>-2.0</ele><time>2026-03-29T14:38:38Z</time></trkpt><trkpt lat="44.748262648159745" lon="11.944314263055224"><ele>-2.333333333333333</ele><time>2026-03-29T14:38:39Z</time></trkpt><trkpt lat="44.7483339606242" lon="11.944121605119335"><ele>-2.6666666666666665</ele><time>2026-03-29T14:38:40Z</time></trkpt><trkpt lat="44.748406817870496" lon="11.943922552935168"><ele>-3.0</ele><time>2026-03-29T14:38:41Z</time></trkpt><trkpt lat="44.74848025053453" lon="11.943731203085099"><ele>-2.6666666666666665</ele><time>2026-03-29T14:38:42Z</time></trkpt><trkpt lat="44.748553066128835" lon="11.94353380635044"><ele>-2.333333333333333</ele><time>2026-03-29T14:38:43Z</time></trkpt><trkpt lat="44.74862330749101" lon="11.943334883622285"><ele>-2.0</ele><time>2026-03-29T14:38:44Z</time></trkpt><trkpt lat="44.748698693456305" lon="11.943145916525173"><ele>-2.0</ele><time>2026-03-29T14:38:45Z</time></trkpt><trkpt lat="44.74877284111705" lon="11.942949961968093"><ele>-2.0</ele><time>2026-03-29T14:38:46Z</time></trkpt><trkpt lat="44.748847816589034" lon="11.942748564971554"><ele>-2.0</ele><time>2026-03-29T14:38:47Z</time></trkpt><trkpt lat="44.748930544731664" lon="11.942527541942676"><ele>-2.0</ele><time>2026-03-29T14:38:48Z</time></trkpt><trkpt lat="44.749020625566594" lon="11.9422944638613"><ele>-2.0</ele><time>2026-03-29T14:38:49Z</time></trkpt><trkpt lat="44.74909982844215" lon="11.942089594556906"><ele>-2.0</ele><time>2026-03-29T14:38:50Z</time></trkpt><trkpt lat="44.749168851757176" lon="11.941897400260707"><ele>-1.6666666666666665</ele><time>2026-03-29T14:38:51Z</time></trkpt><trkpt lat="44.749238577128665" lon="11.941705998527"><ele>-1.3333333333333333</ele><time>2026-03-29T14:38:52Z</time></trkpt><trkpt lat="44.74930734203326" lon="11.941517553705921"><ele>-1.0</ele><time>2026-03-29T14:38:53Z</time></trkpt><trkpt lat="44.749377122590026" lon="11.941332194278875"><ele>-1.0</ele><time>2026-03-29T14:38:54Z</time></trkpt><trkpt lat="44.749446792050506" lon="11.941155304423287"><ele>-1.0</ele><time>2026-03-29T14:38:55Z</time></trkpt><trkpt lat="44.74951496934484" lon="11.940986580112737"><ele>-1.0</ele><time>2026-03-29T14:38:56Z</time></trkpt><trkpt lat="44.749578439235584" lon="11.940816781658421"><ele>-1.0</ele><time>2026-03-29T14:38:57Z</time></trkpt><trkpt lat="44.749632588964" lon="11.94066696093049"><ele>-1.0</ele><time>2026-03-29T14:38:58Z</time></trkpt><trkpt lat="44.74968415473809" lon="11.940527425673606"><ele>-1.0</ele><time>2026-03-29T14:38:59Z</time></trkpt><trkpt lat="44.749734564488044" lon="11.940376460860056"><ele>-1.0</ele><time>2026-03-29T14:39:00Z</time></trkpt><trkpt lat="44.7497912713755" lon="11.940225430740918"><ele>-1.0</ele><time>2026-03-29T14:39:01Z</time></trkpt><trkpt lat="44.74984807626176" lon="11.94007563569156"><ele>-0.5</ele><time>2026-03-29T14:39:02Z</time></trkpt><trkpt lat="44.74990676329788" lon="11.939922570800857"><ele>0.0</ele><time>2026-03-29T14:39:03Z</time></trkpt><trkpt lat="44.749963169187986" lon="11.939770704886131"><ele>0.5</ele><time>2026-03-29T14:39:04Z</time></trkpt><trkpt lat="44.750026772920585" lon="11.939615165237855"><ele>1.0</ele><time>2026-03-29T14:39:05Z</time></trkpt><trkpt lat="44.75008995969784" lon="11.93944555730223"><ele>1.0</ele><time>2026-03-29T14:39:06Z</time></trkpt><trkpt lat="44.750157594254624" lon="11.939270001340175"><ele>1.0</ele><time>2026-03-29T14:39:07Z</time></trkpt><trkpt lat="44.75022656893578" lon="11.939089802148416"><ele>1.0</ele><time>2026-03-29T14:39:08Z</time></trkpt><trkpt lat="44.75029718370694" lon="11.938903510184472"><ele>1.0</ele><time>2026-03-29T14:39:09Z</time></trkpt><trkpt lat="44.7503656725147" lon="11.93871170595547"><ele>0.3333333333333333</ele><time>2026-03-29T14:39:10Z</time></trkpt><trkpt lat="44.75043859108393" lon="11.938519181226066"><ele>-0.3333333333333333</ele><time>2026-03-29T14:39:11Z</time></trkpt><trkpt lat="44.7505095038902" lon="11.938331386372818"><ele>-1.0</ele><time>2026-03-29T14:39:12Z</time></trkpt><trkpt lat="44.750578963691346" lon="11.93815044398312"><ele>-1.0</ele><time>2026-03-29T14:39:13Z</time></trkpt><trkpt lat="44.75065054777592" lon="11.937971716382087"><ele>-1.0</ele><time>2026-03-29T14:39:14Z</time></trkpt><trkpt lat="44.75071307770049" lon="11.937799082185471"><ele>-1.0</ele><time>2026-03-29T14:39:15Z</time></trkpt><trkpt lat="44.75077011174073" lon="11.937637077598065"><ele>-1.0</ele><time>2026-03-29T14:39:16Z</time></trkpt><trkpt lat="44.75082215320136" lon="11.937491057931462"><ele>-1.0</ele><time>2026-03-29T14:39:17Z</time></trkpt><trkpt lat="44.75087267948082" lon="11.937355711557009"><ele>-1.0</ele><time>2026-03-29T14:39:18Z</time></trkpt><trkpt lat="44.7509188203669" lon="11.937228690221735"><ele>-1.0</ele><time>2026-03-29T14:39:19Z</time></trkpt><trkpt lat="44.7509634273606" lon="11.937106849149334"><ele>-1.0</ele><time>2026-03-29T14:39:20Z</time></trkpt><trkpt lat="44.75100973300963" lon="11.936977724295522"><ele>-1.0</ele><time>2026-03-29T14:39:21Z</time></trkpt><trkpt lat="44.751058853312315" lon="11.936850285722215"><ele>-1.3333333333333333</ele><time>2026-03-29T14:39:22Z</time></trkpt><trkpt lat="44.75110559356761" lon="11.936730925028488"><ele>-1.6666666666666665</ele><time>2026-03-29T14:39:23Z</time></trkpt><trkpt lat="44.751149752394305" lon="11.93661391329908"><ele>-2.0</ele><time>2026-03-29T14:39:24Z</time></trkpt><trkpt lat="44.75118888989268" lon="11.936512651587318"><ele>-2.3333333333333335</ele><time>2026-03-29T14:39:25Z</time></trkpt><trkpt lat="44.75122085175687" lon="11.936429112477846"><ele>-2.6666666666666665</ele><time>2026-03-29T14:39:26Z</time></trkpt><trkpt lat="44.75125935670723" lon="11.936306915371791"><ele>-3.0</ele><time>2026-03-29T14:39:28Z</time></trkpt><trkpt lat="44.751248017903656" lon="11.936182696985274"><ele>-3.0</ele><time>2026-03-29T14:39:30Z</time></trkpt><trkpt lat="44.75115534182007" lon="11.936046283171864"><ele>-3.0</ele><time>2026-03-29T14:39:32Z</time></trkpt><trkpt lat="44.751065981773" lon="11.936010088645888"><ele>-3.0</ele><time>2026-03-29T14:39:33Z</time></trkpt><trkpt lat="44.75096705431106" lon="11.936000824758247"><ele>-3.0</ele><time>2026-03-29T14:39:34Z</time></trkpt><trkpt lat="44.75087254624457" lon="11.935987324812556"><ele>-3.0</ele><time>2026-03-29T14:39:35Z</time></trkpt><trkpt lat="44.750762057408515" lon="11.935968480069421"><ele>-2.75</ele><time>2026-03-29T14:39:36Z</time></trkpt><trkpt lat="44.750646097906795" lon="11.935947758285945"><ele>-2.5</ele><time>2026-03-29T14:39:37Z</time></trkpt><trkpt lat="44.75053228772873" lon="11.935923437931054"><ele>-2.25</ele><time>2026-03-29T14:39:38Z</time></trkpt><trkpt lat="44.75041025175546" lon="11.935900605445479"><ele>-2.0</ele><time>2026-03-29T14:39:39Z</time></trkpt><trkpt lat="44.750279675829944" lon="11.935879998457978"><ele>-1.75</ele><time>2026-03-29T14:39:40Z</time></trkpt><trkpt lat="44.75014741640819" lon="11.935858068693758"><ele>-1.5</ele><time>2026-03-29T14:39:41Z</time></trkpt><trkpt lat="44.750022390108164" lon="11.935837705697848"><ele>-1.25</ele><time>2026-03-29T14:39:42Z</time></trkpt><trkpt lat="44.749898948556236" lon="11.935820593132801"><ele>-1.0</ele><time>2026-03-29T14:39:43Z</time></trkpt><trkpt lat="44.74977656244211" lon="11.935810553337022"><ele>-1.0</ele><time>2026-03-29T14:39:44Z</time></trkpt><trkpt lat="44.74965861477315" lon="11.93579946941159"><ele>-1.0</ele><time>2026-03-29T14:39:45Z</time></trkpt><trkpt lat="44.749544930902886" lon="11.935795786427816"><ele>-1.0</ele><time>2026-03-29T14:39:46Z</time></trkpt><trkpt lat="44.749431997841285" lon="11.935789784579377"><ele>-1.0</ele><time>2026-03-29T14:39:47Z</time></trkpt><trkpt lat="44.749315997283446" lon="11.935786492954943"><ele>-0.75</ele><time>2026-03-29T14:39:48Z</time></trkpt><trkpt lat="44.7492001017771" lon="11.935784162434452"><ele>-0.5</ele><time>2026-03-29T14:39:49Z</time></trkpt><trkpt lat="44.74908262482908" lon="11.935779873253429"><ele>-0.25</ele><time>2026-03-29T14:39:50Z</time></trkpt><trkpt lat="44.74896880491395" lon="11.935775488399097"><ele>0.0</ele><time>2026-03-29T14:39:51Z</time></trkpt><trkpt lat="44.74885082742475" lon="11.93577382614141"><ele>0.0</ele><time>2026-03-29T14:39:52Z</time></trkpt><trkpt lat="44.74873059968795" lon="11.935773526426162"><ele>0.0</ele><time>2026-03-29T14:39:53Z</time></trkpt><trkpt lat="44.748619303503666" lon="11.935773988845458"><ele>0.0</ele><time>2026-03-29T14:39:54Z</time></trkpt><trkpt lat="44.7485113403313" lon="11.935775280553875"><ele>0.0</ele><time>2026-03-29T14:39:55Z</time></trkpt><trkpt lat="44.748413583039714" lon="11.935776051300845"><ele>0.0</ele><time>2026-03-29T14:39:56Z</time></trkpt><trkpt lat="44.74832517975355" lon="11.93577884314019"><ele>0.0</ele><time>2026-03-29T14:39:57Z</time></trkpt><trkpt lat="44.748248915561554" lon="11.935784346978526"><ele>0.0</ele><time>2026-03-29T14:39:58Z</time></trkpt><trkpt lat="44.74817092763456" lon="11.935791510764313"><ele>0.0</ele><time>2026-03-29T14:39:59Z</time></trkpt><trkpt lat="44.74804814410086" lon="11.93579178673366"><ele>0.0</ele><time>2026-03-29T14:40:01Z</time></trkpt><trkpt lat="44.747984848485856" lon="11.935751009823385"><ele>0.0</ele><time>2026-03-29T14:40:02Z</time></trkpt><trkpt lat="44.74793230992314" lon="11.935661939039147"><ele>0.0</ele><time>2026-03-29T14:40:03Z</time></trkpt><trkpt lat="44.74791089841515" lon="11.935536324659608"><ele>0.0</ele><time>2026-03-29T14:40:04Z</time></trkpt><trkpt lat="44.74794021745534" lon="11.935388446645662"><ele>0.0</ele><time>2026-03-29T14:40:05Z</time></trkpt><trkpt lat="44.74794701038758" lon="11.935225877057045"><ele>0.0</ele><time>2026-03-29T14:40:06Z</time></trkpt><trkpt lat="44.747961763266495" lon="11.935071720796909"><ele>0.0</ele><time>2026-03-29T14:40:07Z</time></trkpt><trkpt lat="44.747969193001516" lon="11.934913369085834"><ele>0.0</ele><time>2026-03-29T14:40:08Z</time></trkpt><trkpt lat="44.74798196585752" lon="11.934750212632931"><ele>-0.5</ele><time>2026-03-29T14:40:09Z</time></trkpt><trkpt lat="44.74798999135287" lon="11.934582022244438"><ele>-1.0</ele><time>2026-03-29T14:40:10Z</time></trkpt><trkpt lat="44.74800423986364" lon="11.934419452068061"><ele>-1.5</ele><time>2026-03-29T14:40:11Z</time></trkpt><trkpt lat="44.748011417874025" lon="11.934253255993992"><ele>-2.0</ele><time>2026-03-29T14:40:12Z</time></trkpt><trkpt lat="44.74802430664057" lon="11.934085051347719"><ele>-2.0</ele><time>2026-03-29T14:40:13Z</time></trkpt><trkpt lat="44.74803505484403" lon="11.933909910617627"><ele>-2.0</ele><time>2026-03-29T14:40:14Z</time></trkpt><trkpt lat="44.74804518225403" lon="11.933722434965897"><ele>-2.0</ele><time>2026-03-29T14:40:15Z</time></trkpt><trkpt lat="44.748061878978184" lon="11.933534663574896"><ele>-2.0</ele><time>2026-03-29T14:40:16Z</time></trkpt><trkpt lat="44.74807284307656" lon="11.933344191491905"><ele>-2.0</ele><time>2026-03-29T14:40:17Z</time></trkpt><trkpt lat="44.748086286553466" lon="11.933152734908962"><ele>-2.0</ele><time>2026-03-29T14:40:18Z</time></trkpt><trkpt lat="44.74810170519672" lon="11.932956348613827"><ele>-2.0</ele><time>2026-03-29T14:40:19Z</time></trkpt><trkpt lat="44.748130356445735" lon="11.932763202973257"><ele>-2.0</ele><time>2026-03-29T14:40:20Z</time></trkpt><trkpt lat="44.74816631977313" lon="11.932567112896404"><ele>-1.5</ele><time>2026-03-29T14:40:21Z</time></trkpt><trkpt lat="44.74820226944837" lon="11.932371324190246"><ele>-1.0</ele><time>2026-03-29T14:40:22Z</time></trkpt><trkpt lat="44.74824227468432" lon="11.932175935800302"><ele>-0.5</ele><time>2026-03-29T14:40:23Z</time></trkpt><trkpt lat="44.748287294393116" lon="11.931979813953712"><ele>0.0</ele><time>2026-03-29T14:40:24Z</time></trkpt><trkpt lat="44.748351038146595" lon="11.93179103981173"><ele>-0.25</ele><time>2026-03-29T14:40:25Z</time></trkpt><trkpt lat="44.74839336167647" lon="11.931590261870832"><ele>-0.5</ele><time>2026-03-29T14:40:26Z</time></trkpt><trkpt lat="44.74844993440365" lon="11.931398263237215"><ele>-0.75</ele><time>2026-03-29T14:40:27Z</time></trkpt><trkpt lat="44.7485078713596" lon="11.931211653585411"><ele>-1.0</ele><time>2026-03-29T14:40:28Z</time></trkpt><trkpt lat="44.748565079292106" lon="11.931023354201564"><ele>-1.0</ele><time>2026-03-29T14:40:29Z</time></trkpt><trkpt lat="44.74861654310623" lon="11.930834779702469"><ele>-1.0</ele><time>2026-03-29T14:40:30Z</time></trkpt><trkpt lat="44.74866900706437" lon="11.93065856717764"><ele>-1.0</ele><time>2026-03-29T14:40:31Z</time></trkpt><trkpt lat="44.748738287882865" lon="11.93048820369153"><ele>-1.0</ele><time>2026-03-29T14:40:32Z</time></trkpt><trkpt lat="44.748791657615755" lon="11.930310779181816"><ele>-1.0</ele><time>2026-03-29T14:40:33Z</time></trkpt><trkpt lat="44.74882714442261" lon="11.930129026005618"><ele>-1.0</ele><time>2026-03-29T14:40:34Z</time></trkpt><trkpt lat="44.748873686428496" lon="11.929947093050725"><ele>-1.0</ele><time>2026-03-29T14:40:35Z</time></trkpt><trkpt lat="44.74890471924478" lon="11.929762906246191"><ele>-1.0</ele><time>2026-03-29T14:40:36Z</time></trkpt><trkpt lat="44.748943011992914" lon="11.92957930614935"><ele>-1.0</ele><time>2026-03-29T14:40:37Z</time></trkpt><trkpt lat="44.748969045443346" lon="11.929379492840118"><ele>-1.0</ele><time>2026-03-29T14:40:38Z</time></trkpt><trkpt lat="44.74899681151213" lon="11.929152597089926"><ele>-1.0</ele><time>2026-03-29T14:40:39Z</time></trkpt><trkpt lat="44.74902066184049" lon="11.928876056267235"><ele>-0.6666666666666666</ele><time>2026-03-29T14:40:40Z</time></trkpt><trkpt lat="44.74903117945872" lon="11.92859331622345"><ele>-0.3333333333333333</ele><time>2026-03-29T14:40:41Z</time></trkpt><trkpt lat="44.74903153669914" lon="11.928321474398922"><ele>0.0</ele><time>2026-03-29T14:40:42Z</time></trkpt><trkpt lat="44.74903175278106" lon="11.92803389195053"><ele>1.0</ele><time>2026-03-29T14:40:43Z</time></trkpt><trkpt lat="44.74903199943277" lon="11.927705625075049"><ele>2.0</ele><time>2026-03-29T14:40:44Z</time></trkpt><trkpt lat="44.74903218212206" lon="11.92734470395876"><ele>2.0</ele><time>2026-03-29T14:40:45Z</time></trkpt><trkpt lat="44.749031384346594" lon="11.926972478533228"><ele>2.0</ele><time>2026-03-29T14:40:46Z</time></trkpt><trkpt lat="44.7490306712413" lon="11.926639758798856"><ele>1.6666666666666665</ele><time>2026-03-29T14:40:47Z</time></trkpt><trkpt lat="44.749031601209325" lon="11.926331374335303"><ele>1.3333333333333333</ele><time>2026-03-29T14:40:48.001Z</time></trkpt><trkpt lat="44.74903542191642" lon="11.92604455092411"><ele>1.0</ele><time>2026-03-29T14:40:49.001Z</time></trkpt><trkpt lat="44.74904667108759" lon="11.925765076661024"><ele>1.0</ele><time>2026-03-29T14:40:50.001Z</time></trkpt><trkpt lat="44.74906230128603" lon="11.925486052736694"><ele>1.0</ele><time>2026-03-29T14:40:51.001Z</time></trkpt><trkpt lat="44.74907806525173" lon="11.92520464069193"><ele>1.0</ele><time>2026-03-29T14:40:52.001Z</time></trkpt><trkpt lat="44.74909299215058" lon="11.924926670454894"><ele>1.0</ele><time>2026-03-29T14:40:53.001Z</time></trkpt><trkpt lat="44.749106049276236" lon="11.924651768840157"><ele>1.0</ele><time>2026-03-29T14:40:54.001Z</time></trkpt><trkpt lat="44.74911140433534" lon="11.924384473857653"><ele>1.0</ele><time>2026-03-29T14:40:55.001Z</time></trkpt><trkpt lat="44.74908579409223" lon="11.924113021735515"><ele>2.0</ele><time>2026-03-29T14:40:56.001Z</time></trkpt><trkpt lat="44.749081798199626" lon="11.92384135196969"><ele>3.0</ele><time>2026-03-29T14:40:57.001Z</time></trkpt><trkpt lat="44.7490633519576" lon="11.92357618721443"><ele>4.0</ele><time>2026-03-29T14:40:58.001Z</time></trkpt><trkpt lat="44.749044980380155" lon="11.923312095995067"><ele>4.0</ele><time>2026-03-29T14:40:59.001Z</time></trkpt><trkpt lat="44.74902637076862" lon="11.923044580545648"><ele>4.0</ele><time>2026-03-29T14:41:00.001Z</time></trkpt><trkpt lat="44.74900746374374" lon="11.922775523948724"><ele>4.0</ele><time>2026-03-29T14:41:01.001Z</time></trkpt><trkpt lat="44.748988580506285" lon="11.922506163908531"><ele>3.0</ele><time>2026-03-29T14:41:02.001Z</time></trkpt><trkpt lat="44.74896939816718" lon="11.922232537329812"><ele>2.0</ele><time>2026-03-29T14:41:03.001Z</time></trkpt><trkpt lat="44.74895082991227" lon="11.921967670500965"><ele>1.0</ele><time>2026-03-29T14:41:04.001Z</time></trkpt><trkpt lat="44.74893198268302" lon="11.921698824086455"><ele>1.0</ele><time>2026-03-29T14:41:05.001Z</time></trkpt><trkpt lat="44.748913690282585" lon="11.921437892080737"><ele>1.0</ele><time>2026-03-29T14:41:06.001Z</time></trkpt><trkpt lat="44.74889515783859" lon="11.921173535991146"><ele>1.0</ele><time>2026-03-29T14:41:07.001Z</time></trkpt><trkpt lat="44.74887723653977" lon="11.920917498809178"><ele>0.6666666666666666</ele><time>2026-03-29T14:41:08.001Z</time></trkpt><trkpt lat="44.74886164392049" lon="11.920662598204256"><ele>0.3333333333333333</ele><time>2026-03-29T14:41:09.001Z</time></trkpt><trkpt lat="44.74884977065598" lon="11.92041086916745"><ele>0.0</ele><time>2026-03-29T14:41:10.001Z</time></trkpt><trkpt lat="44.748845524042814" lon="11.920154685971346"><ele>-0.3333333333333333</ele><time>2026-03-29T14:41:11.001Z</time></trkpt><trkpt lat="44.74884500558761" lon="11.91990669196703"><ele>-0.6666666666666666</ele><time>2026-03-29T14:41:12.001Z</time></trkpt><trkpt lat="44.7488444831485" lon="11.919656789797424"><ele>-1.0</ele><time>2026-03-29T14:41:13.001Z</time></trkpt><trkpt lat="44.74882023512711" lon="11.919404645537472"><ele>-0.3333333333333333</ele><time>2026-03-29T14:41:14.001Z</time></trkpt><trkpt lat="44.748822628555956" lon="11.9191627181969"><ele>0.3333333333333333</ele><time>2026-03-29T14:41:15.001Z</time></trkpt><trkpt lat="44.748821175360774" lon="11.918919472792593"><ele>1.0</ele><time>2026-03-29T14:41:16.001Z</time></trkpt><trkpt lat="44.74882151904272" lon="11.91867535811653"><ele>1.0</ele><time>2026-03-29T14:41:17.001Z</time></trkpt><trkpt lat="44.748844647622285" lon="11.918430377991783"><ele>1.0</ele><time>2026-03-29T14:41:18.001Z</time></trkpt><trkpt lat="44.74884432866673" lon="11.918189720032585"><ele>1.0</ele><time>2026-03-29T14:41:19.001Z</time></trkpt><trkpt lat="44.74884361613673" lon="11.917951734513892"><ele>1.0</ele><time>2026-03-29T14:41:20.001Z</time></trkpt><trkpt lat="44.7488434940505" lon="11.917718095407409"><ele>1.0</ele><time>2026-03-29T14:41:21.001Z</time></trkpt><trkpt lat="44.748843345025016" lon="11.917481127097712"><ele>1.0</ele><time>2026-03-29T14:41:22.001Z</time></trkpt><trkpt lat="44.74884320170334" lon="11.917253229151976"><ele>1.0</ele><time>2026-03-29T14:41:23.001Z</time></trkpt><trkpt lat="44.74884305639745" lon="11.917022177985222"><ele>1.0</ele><time>2026-03-29T14:41:24.001Z</time></trkpt><trkpt lat="44.748842910599954" lon="11.916790343999432"><ele>1.0</ele><time>2026-03-29T14:41:25.001Z</time></trkpt><trkpt lat="44.74884276618178" lon="11.916560704781467"><ele>1.0</ele><time>2026-03-29T14:41:26Z</time></trkpt><trkpt lat="44.74884260955497" lon="11.916332482520769"><ele>1.0</ele><time>2026-03-29T14:41:27Z</time></trkpt><trkpt lat="44.7488424576484" lon="11.91611385914541"><ele>1.0</ele><time>2026-03-29T14:41:28Z</time></trkpt><trkpt lat="44.74884232109641" lon="11.91591733442595"><ele>1.25</ele><time>2026-03-29T14:41:29Z</time></trkpt><trkpt lat="44.74884219579262" lon="11.915736993921946"><ele>1.5</ele><time>2026-03-29T14:41:30Z</time></trkpt><trkpt lat="44.74884207489135" lon="11.915562994218908"><ele>1.75</ele><time>2026-03-29T14:41:31Z</time></trkpt><trkpt lat="44.74884195900454" lon="11.915396209596157"><ele>2.0</ele><time>2026-03-29T14:41:32Z</time></trkpt><trkpt lat="44.7488418407954" lon="11.915226081466729"><ele>1.25</ele><time>2026-03-29T14:41:33Z</time></trkpt><trkpt lat="44.74882445840343" lon="11.915054536620433"><ele>0.5</ele><time>2026-03-29T14:41:34Z</time></trkpt><trkpt lat="44.74882373262856" lon="11.914882063594558"><ele>-0.25</ele><time>2026-03-29T14:41:35Z</time></trkpt><trkpt lat="44.74882251400458" lon="11.914714055135505"><ele>-1.0</ele><time>2026-03-29T14:41:36Z</time></trkpt><trkpt lat="44.748821670078605" lon="11.914557489168462"><ele>-1.0</ele><time>2026-03-29T14:41:37Z</time></trkpt><trkpt lat="44.74881973240984" lon="11.914418148183524"><ele>-1.0</ele><time>2026-03-29T14:41:38Z</time></trkpt><trkpt lat="44.74881872882313" lon="11.914285800768726"><ele>-1.0</ele><time>2026-03-29T14:41:39Z</time></trkpt><trkpt lat="44.74881706302092" lon="11.914162348566775"><ele>-1.0</ele><time>2026-03-29T14:41:40Z</time></trkpt><trkpt lat="44.748815302139406" lon="11.914040452259927"><ele>-1.0</ele><time>2026-03-29T14:41:41Z</time></trkpt><trkpt lat="44.74881479834115" lon="11.913921782477322"><ele>-0.9999999999999999</ele><time>2026-03-29T14:41:42Z</time></trkpt><trkpt lat="44.748815215858485" lon="11.913813317785316"><ele>-1.0</ele><time>2026-03-29T14:41:43Z</time></trkpt><trkpt lat="44.74881360951325" lon="11.913703700499292"><ele>-1.0</ele><time>2026-03-29T14:41:44Z</time></trkpt><trkpt lat="44.74884174762394" lon="11.913593376497895"><ele>-1.0</ele><time>2026-03-29T14:41:45Z</time></trkpt><trkpt lat="44.74884174762357" lon="11.91348466227669"><ele>-0.9999999999999999</ele><time>2026-03-29T14:41:46Z</time></trkpt><trkpt lat="44.748847337804094" lon="11.913380999703861"><ele>-1.0</ele><time>2026-03-29T14:41:47Z</time></trkpt><trkpt lat="44.74885005995812" lon="11.913292296800646"><ele>-0.6666666666666666</ele><time>2026-03-29T14:41:48Z</time></trkpt><trkpt lat="44.74888750219995" lon="11.913191966176386"><ele>-0.3333333333333333</ele><time>2026-03-29T14:41:50Z</time></trkpt><trkpt lat="44.74893119203371" lon="11.91308621306354"><ele>0.0</ele><time>2026-03-29T14:41:55Z</time></trkpt><trkpt lat="44.74887956430487" lon="11.912980155224826"><ele>0.3333333333333333</ele><time>2026-03-29T14:41:56Z</time></trkpt><trkpt lat="44.74884838126306" lon="11.912898151453893"><ele>0.6666666666666666</ele><time>2026-03-29T14:41:57Z</time></trkpt><trkpt lat="44.74881924138526" lon="11.912794574299937"><ele>1.0</ele><time>2026-03-29T14:41:58Z</time></trkpt><trkpt lat="44.7488013379431" lon="11.912670855874813"><ele>0.5</ele><time>2026-03-29T14:41:59Z</time></trkpt><trkpt lat="44.74881600185822" lon="11.912530582810083"><ele>0.0</ele><time>2026-03-29T14:42:00Z</time></trkpt><trkpt lat="44.748795286753555" lon="11.91237778066868"><ele>-0.5</ele><time>2026-03-29T14:42:01Z</time></trkpt><trkpt lat="44.74878503158335" lon="11.912195018052335"><ele>-1.0</ele><time>2026-03-29T14:42:02Z</time></trkpt><trkpt lat="44.748781605935704" lon="11.91201961164567"><ele>-1.0</ele><time>2026-03-29T14:42:03Z</time></trkpt><trkpt lat="44.748769558868176" lon="11.911833116958466"><ele>-1.0</ele><time>2026-03-29T14:42:04Z</time></trkpt><trkpt lat="44.74876321178333" lon="11.911615151718973"><ele>-1.0</ele><time>2026-03-29T14:42:05Z</time></trkpt><trkpt lat="44.748750635571604" lon="11.91135125739172"><ele>-0.6666666666666666</ele><time>2026-03-29T14:42:06Z</time></trkpt><trkpt lat="44.74873780983479" lon="11.911104235037465"><ele>-0.3333333333333333</ele><time>2026-03-29T14:42:07Z</time></trkpt><trkpt lat="44.748726579242216" lon="11.910847075682803"><ele>0.0</ele><time>2026-03-29T14:42:08Z</time></trkpt><trkpt lat="44.748712041495416" lon="11.910605403234143"><ele>0.0</ele><time>2026-03-29T14:42:09Z</time></trkpt><trkpt lat="44.74870085194466" lon="11.910360792107399"><ele>0.0</ele><time>2026-03-29T14:42:10Z</time></trkpt><trkpt lat="44.74868959352437" lon="11.910115089964423"><ele>0.0</ele><time>2026-03-29T14:42:11Z</time></trkpt><trkpt lat="44.748675136199" lon="11.909870863203096"><ele>0.0</ele><time>2026-03-29T14:42:12Z</time></trkpt><trkpt lat="44.748658735531606" lon="11.90962145810176"><ele>0.0</ele><time>2026-03-29T14:42:13Z</time></trkpt><trkpt lat="44.748638952412044" lon="11.90937610142378"><ele>0.0</ele><time>2026-03-29T14:42:14Z</time></trkpt><trkpt lat="44.748607252389334" lon="11.909133764000883"><ele>0.0</ele><time>2026-03-29T14:42:15Z</time></trkpt><trkpt lat="44.74856445329676" lon="11.908895612283597"><ele>0.0</ele><time>2026-03-29T14:42:16Z</time></trkpt><trkpt lat="44.74851052212874" lon="11.908653340041722"><ele>0.0</ele><time>2026-03-29T14:42:17Z</time></trkpt><trkpt lat="44.748457843560516" lon="11.9084109873939"><ele>0.0</ele><time>2026-03-29T14:42:18Z</time></trkpt><trkpt lat="44.74841103753175" lon="11.908187153515456"><ele>0.0</ele><time>2026-03-29T14:42:19Z</time></trkpt><trkpt lat="44.74836960702356" lon="11.907974663549982"><ele>0.0</ele><time>2026-03-29T14:42:20Z</time></trkpt><trkpt lat="44.74833866258763" lon="11.90774939512463"><ele>0.0</ele><time>2026-03-29T14:42:21Z</time></trkpt><trkpt lat="44.74833016141116" lon="11.907504368805052"><ele>0.0</ele><time>2026-03-29T14:42:22Z</time></trkpt><trkpt lat="44.74837046029143" lon="11.907267203746061"><ele>0.0</ele><time>2026-03-29T14:42:23Z</time></trkpt><trkpt lat="44.74840407690923" lon="11.907025579425756"><ele>0.0</ele><time>2026-03-29T14:42:24Z</time></trkpt><trkpt lat="44.74842694707386" lon="11.906780661489815"><ele>0.0</ele><time>2026-03-29T14:42:25Z</time></trkpt><trkpt lat="44.748460878036944" lon="11.906532191837954"><ele>0.0</ele><time>2026-03-29T14:42:26Z</time></trkpt><trkpt lat="44.748493074220164" lon="11.906277792596484"><ele>-0.3333333333333333</ele><time>2026-03-29T14:42:27Z</time></trkpt><trkpt lat="44.748532071612644" lon="11.90601555106003"><ele>-0.6666666666666666</ele><time>2026-03-29T14:42:28Z</time></trkpt><trkpt lat="44.748562398470185" lon="11.905772756707362"><ele>-1.0</ele><time>2026-03-29T14:42:29Z</time></trkpt><trkpt lat="44.74859524263925" lon="11.905527599047193"><ele>-1.3333333333333333</ele><time>2026-03-29T14:42:30Z</time></trkpt><trkpt lat="44.74863106305085" lon="11.90528331393908"><ele>-1.6666666666666665</ele><time>2026-03-29T14:42:31Z</time></trkpt><trkpt lat="44.74866422369565" lon="11.905038703947204"><ele>-2.0</ele><time>2026-03-29T14:42:32Z</time></trkpt><trkpt lat="44.74869437677227" lon="11.904802928113254"><ele>-2.0</ele><time>2026-03-29T14:42:33Z</time></trkpt><trkpt lat="44.74872189676235" lon="11.904564696949357"><ele>-2.0</ele><time>2026-03-29T14:42:34Z</time></trkpt><trkpt lat="44.74873824429802" lon="11.904325707586162"><ele>-2.0</ele><time>2026-03-29T14:42:35Z</time></trkpt><trkpt lat="44.74874058330184" lon="11.904085679961044"><ele>-2.0</ele><time>2026-03-29T14:42:36Z</time></trkpt><trkpt lat="44.7487379472767" lon="11.903841985288524"><ele>-2.0</ele><time>2026-03-29T14:42:37Z</time></trkpt><trkpt lat="44.748740049784004" lon="11.903589615189974"><ele>-2.0</ele><time>2026-03-29T14:42:38Z</time></trkpt><trkpt lat="44.74877226062202" lon="11.903348541566343"><ele>-2.0</ele><time>2026-03-29T14:42:39Z</time></trkpt><trkpt lat="44.74879831008189" lon="11.903105340229892"><ele>-2.0</ele><time>2026-03-29T14:42:40Z</time></trkpt><trkpt lat="44.748826833125236" lon="11.902855112702033"><ele>-2.0</ele><time>2026-03-29T14:42:41Z</time></trkpt><trkpt lat="44.748855358914426" lon="11.902609505355644"><ele>-2.0</ele><time>2026-03-29T14:42:42Z</time></trkpt><trkpt lat="44.74888991946938" lon="11.902358020796441"><ele>-2.0</ele><time>2026-03-29T14:42:43Z</time></trkpt><trkpt lat="44.74893076309875" lon="11.902112452684817"><ele>-2.0</ele><time>2026-03-29T14:42:44.001Z</time></trkpt><trkpt lat="44.748978624481786" lon="11.901866836177021"><ele>-1.3333333333333333</ele><time>2026-03-29T14:42:45.001Z</time></trkpt><trkpt lat="44.74902861340279" lon="11.901605837580068"><ele>-0.6666666666666666</ele><time>2026-03-29T14:42:46.001Z</time></trkpt><trkpt lat="44.74907609938886" lon="11.901341872310851"><ele>0.0</ele><time>2026-03-29T14:42:47.001Z</time></trkpt><trkpt lat="44.74912022355583" lon="11.901079639825078"><ele>0.3333333333333333</ele><time>2026-03-29T14:42:48.001Z</time></trkpt><trkpt lat="44.74915770893132" lon="11.900840894683702"><ele>0.6666666666666666</ele><time>2026-03-29T14:42:49.001Z</time></trkpt><trkpt lat="44.74919342709361" lon="11.90062299815755"><ele>1.0</ele><time>2026-03-29T14:42:50.001Z</time></trkpt><trkpt lat="44.74923001673203" lon="11.900413429332001"><ele>1.0</ele><time>2026-03-29T14:42:51.001Z</time></trkpt><trkpt lat="44.749271015314505" lon="11.90019982145171"><ele>1.0</ele><time>2026-03-29T14:42:52.001Z</time></trkpt><trkpt lat="44.74931989500382" lon="11.899991157826072"><ele>1.0</ele><time>2026-03-29T14:42:53.001Z</time></trkpt><trkpt lat="44.749377938189575" lon="11.899791341687855"><ele>1.3333333333333333</ele><time>2026-03-29T14:42:54.001Z</time></trkpt><trkpt lat="44.74945009127129" lon="11.899588202982143"><ele>1.6666666666666665</ele><time>2026-03-29T14:42:55.001Z</time></trkpt><trkpt lat="44.749530819190554" lon="11.899389164471044"><ele>2.0</ele><time>2026-03-29T14:42:56.001Z</time></trkpt><trkpt lat="44.74960607399692" lon="11.899173579266025"><ele>2.0</ele><time>2026-03-29T14:42:57.001Z</time></trkpt><trkpt lat="44.74969836326827" lon="11.898964194917049"><ele>2.0</ele><time>2026-03-29T14:42:58.001Z</time></trkpt><trkpt lat="44.74979892635291" lon="11.898775301807463"><ele>2.0</ele><time>2026-03-29T14:42:59.001Z</time></trkpt><trkpt lat="44.74987823514937" lon="11.898594188013016"><ele>2.0</ele><time>2026-03-29T14:43:00.001Z</time></trkpt><trkpt lat="44.7499404406418" lon="11.898401530974406"><ele>2.0</ele><time>2026-03-29T14:43:01.001Z</time></trkpt><trkpt lat="44.75000157196191" lon="11.89823338891067"><ele>2.0</ele><time>2026-03-29T14:43:02.001Z</time></trkpt><trkpt lat="44.750040464424764" lon="11.898066579975223"><ele>2.0</ele><time>2026-03-29T14:43:03.001Z</time></trkpt><trkpt lat="44.75006650096362" lon="11.897898756876296"><ele>2.0</ele><time>2026-03-29T14:43:04.001Z</time></trkpt><trkpt lat="44.75006493089351" lon="11.897720719656876"><ele>2.0</ele><time>2026-03-29T14:43:05.001Z</time></trkpt><trkpt lat="44.75002801707314" lon="11.897536151498"><ele>2.0</ele><time>2026-03-29T14:43:06.001Z</time></trkpt><trkpt lat="44.74996340454159" lon="11.897371956342488"><ele>2.0</ele><time>2026-03-29T14:43:07.001Z</time></trkpt><trkpt lat="44.74989733802494" lon="11.89723615847494"><ele>2.0</ele><time>2026-03-29T14:43:08.001Z</time></trkpt><trkpt lat="44.74982839760648" lon="11.897120326603677"><ele>2.0</ele><time>2026-03-29T14:43:09.001Z</time></trkpt><trkpt lat="44.74976158503067" lon="11.897023602041125"><ele>2.0</ele><time>2026-03-29T14:43:10.001Z</time></trkpt><trkpt lat="44.74970940139403" lon="11.896935021467938"><ele>2.0</ele><time>2026-03-29T14:43:11.001Z</time></trkpt><trkpt lat="44.74965224149313" lon="11.896845591867166"><ele>2.0</ele><time>2026-03-29T14:43:12.001Z</time></trkpt><trkpt lat="44.74959243327694" lon="11.896747260241979"><ele>1.75</ele><time>2026-03-29T14:43:13.001Z</time></trkpt><trkpt lat="44.74955244547725" lon="11.896612895824404"><ele>1.5</ele><time>2026-03-29T14:43:14.001Z</time></trkpt><trkpt lat="44.74950425824616" lon="11.896477588074118"><ele>1.25</ele><time>2026-03-29T14:43:15.001Z</time></trkpt><trkpt lat="44.749492038950464" lon="11.896310426572219"><ele>1.0</ele><time>2026-03-29T14:43:16.001Z</time></trkpt><trkpt lat="44.74950674263781" lon="11.896132033876592"><ele>1.0</ele><time>2026-03-29T14:43:17.001Z</time></trkpt><trkpt lat="44.7495682964097" lon="11.895962742314332"><ele>1.0</ele><time>2026-03-29T14:43:18.001Z</time></trkpt><trkpt lat="44.74962768497776" lon="11.895773165093285"><ele>1.0</ele><time>2026-03-29T14:43:19.001Z</time></trkpt><trkpt lat="44.749684278266066" lon="11.89556887329351"><ele>1.0</ele><time>2026-03-29T14:43:20.001Z</time></trkpt><trkpt lat="44.74974446348075" lon="11.895403880491358"><ele>1.0</ele><time>2026-03-29T14:43:21.001Z</time></trkpt><trkpt lat="44.7497891269629" lon="11.895257579131743"><ele>1.0</ele><time>2026-03-29T14:43:22.001Z</time></trkpt><trkpt lat="44.74983086253908" lon="11.895112202707965"><ele>1.0</ele><time>2026-03-29T14:43:23.001Z</time></trkpt><trkpt lat="44.74988035008486" lon="11.89496519952265"><ele>1.0</ele><time>2026-03-29T14:43:24.001Z</time></trkpt><trkpt lat="44.74993375207479" lon="11.89480019800708"><ele>1.0</ele><time>2026-03-29T14:43:25.001Z</time></trkpt><trkpt lat="44.74998915535147" lon="11.894623717453872"><ele>1.0</ele><time>2026-03-29T14:43:26.001Z</time></trkpt><trkpt lat="44.750038301849614" lon="11.894473428075857"><ele>1.0</ele><time>2026-03-29T14:43:27.001Z</time></trkpt><trkpt lat="44.75008541984697" lon="11.89433891791812"><ele>1.0</ele><time>2026-03-29T14:43:28.001Z</time></trkpt><trkpt lat="44.750128066744544" lon="11.89421880197549"><ele>0.75</ele><time>2026-03-29T14:43:29.001Z</time></trkpt><trkpt lat="44.75016966477369" lon="11.894077627077017"><ele>0.5</ele><time>2026-03-29T14:43:30.001Z</time></trkpt><trkpt lat="44.750219659357874" lon="11.893915620638847"><ele>0.25</ele><time>2026-03-29T14:43:31.001Z</time></trkpt><trkpt lat="44.750271198689944" lon="11.893748442787274"><ele>0.0</ele><time>2026-03-29T14:43:32Z</time></trkpt><trkpt lat="44.75032144428611" lon="11.893576961560063"><ele>0.0</ele><time>2026-03-29T14:43:33Z</time></trkpt><trkpt lat="44.750362163687086" lon="11.893398612787967"><ele>0.0</ele><time>2026-03-29T14:43:34Z</time></trkpt><trkpt lat="44.75039393479806" lon="11.89322503603296"><ele>0.0</ele><time>2026-03-29T14:43:35Z</time></trkpt><trkpt lat="44.75041724820835" lon="11.893046327152438"><ele>0.0</ele><time>2026-03-29T14:43:36Z</time></trkpt><trkpt lat="44.75042662300762" lon="11.892866730224974"><ele>0.0</ele><time>2026-03-29T14:43:37Z</time></trkpt><trkpt lat="44.750433286177376" lon="11.892697706122815"><ele>0.0</ele><time>2026-03-29T14:43:38Z</time></trkpt><trkpt lat="44.75043754203922" lon="11.892533654688554"><ele>0.0</ele><time>2026-03-29T14:43:39Z</time></trkpt><trkpt lat="44.75043723606971" lon="11.892373880325431"><ele>0.0</ele><time>2026-03-29T14:43:40Z</time></trkpt><trkpt lat="44.75043962161302" lon="11.892218563959819"><ele>0.2</ele><time>2026-03-29T14:43:41Z</time></trkpt><trkpt lat="44.750444038800055" lon="11.892062592043937"><ele>0.4</ele><time>2026-03-29T14:43:42Z</time></trkpt><trkpt lat="44.750444724794264" lon="11.891903639755004"><ele>0.6000000000000001</ele><time>2026-03-29T14:43:43Z</time></trkpt><trkpt lat="44.750443694186316" lon="11.891747535180262"><ele>0.8</ele><time>2026-03-29T14:43:44Z</time></trkpt><trkpt lat="44.750453349367554" lon="11.891595787083244"><ele>1.0</ele><time>2026-03-29T14:43:45Z</time></trkpt><trkpt lat="44.750475187156184" lon="11.891437760151724"><ele>1.0</ele><time>2026-03-29T14:43:46Z</time></trkpt><trkpt lat="44.75050474598378" lon="11.891277112212823"><ele>1.0</ele><time>2026-03-29T14:43:47Z</time></trkpt><trkpt lat="44.750538893566805" lon="11.891114634508837"><ele>1.0</ele><time>2026-03-29T14:43:48Z</time></trkpt><trkpt lat="44.75058360791803" lon="11.890944458477803"><ele>1.0</ele><time>2026-03-29T14:43:49Z</time></trkpt><trkpt lat="44.75062046847284" lon="11.890765644507253"><ele>1.0</ele><time>2026-03-29T14:43:50Z</time></trkpt><trkpt lat="44.75063538712816" lon="11.890583182965962"><ele>1.0</ele><time>2026-03-29T14:43:51Z</time></trkpt><trkpt lat="44.75064394763274" lon="11.89039649222121"><ele>1.0</ele><time>2026-03-29T14:43:52Z</time></trkpt><trkpt lat="44.75062623936863" lon="11.89021675718084"><ele>1.0</ele><time>2026-03-29T14:43:53Z</time></trkpt><trkpt lat="44.750624534822485" lon="11.89003668051824"><ele>1.0</ele><time>2026-03-29T14:43:54Z</time></trkpt><trkpt lat="44.7506202682729" lon="11.889850663571764"><ele>1.0</ele><time>2026-03-29T14:43:55Z</time></trkpt><trkpt lat="44.75061129470954" lon="11.889666979039855"><ele>1.0</ele><time>2026-03-29T14:43:56Z</time></trkpt><trkpt lat="44.75061034966372" lon="11.889481550756855"><ele>1.0</ele><time>2026-03-29T14:43:57Z</time></trkpt><trkpt lat="44.750605655237564" lon="11.88930289788224"><ele>1.0</ele><time>2026-03-29T14:43:58Z</time></trkpt><trkpt lat="44.75059693359096" lon="11.889126740349369"><ele>1.0</ele><time>2026-03-29T14:43:59Z</time></trkpt><trkpt lat="44.75058693482974" lon="11.888938637425301"><ele>1.0</ele><time>2026-03-29T14:44:00Z</time></trkpt><trkpt lat="44.75057883379638" lon="11.88874393564987"><ele>1.0</ele><time>2026-03-29T14:44:01Z</time></trkpt><trkpt lat="44.75057145620927" lon="11.888553762257967"><ele>0.75</ele><time>2026-03-29T14:44:02Z</time></trkpt><trkpt lat="44.75055983182017" lon="11.888367066847461"><ele>0.5</ele><time>2026-03-29T14:44:03Z</time></trkpt><trkpt lat="44.750552057954884" lon="11.888185151801277"><ele>0.25</ele><time>2026-03-29T14:44:04Z</time></trkpt><trkpt lat="44.750546086853454" lon="11.888000669727202"><ele>0.0</ele><time>2026-03-29T14:44:05Z</time></trkpt><trkpt lat="44.750538638356005" lon="11.88781503821467"><ele>0.0</ele><time>2026-03-29T14:44:06Z</time></trkpt><trkpt lat="44.75053082108914" lon="11.887621681702875"><ele>0.0</ele><time>2026-03-29T14:44:07Z</time></trkpt><trkpt lat="44.750525589987596" lon="11.887428860094948"><ele>0.0</ele><time>2026-03-29T14:44:08Z</time></trkpt><trkpt lat="44.75052142037919" lon="11.887236255148835"><ele>0.0</ele><time>2026-03-29T14:44:09Z</time></trkpt><trkpt lat="44.75052061819132" lon="11.887047094630438"><ele>0.0</ele><time>2026-03-29T14:44:10Z</time></trkpt><trkpt lat="44.75052143869249" lon="11.886849474444196"><ele>0.0</ele><time>2026-03-29T14:44:11Z</time></trkpt><trkpt lat="44.75052661053742" lon="11.886662198465606"><ele>0.0</ele><time>2026-03-29T14:44:12Z</time></trkpt><trkpt lat="44.75053745757585" lon="11.886470933925244"><ele>0.0</ele><time>2026-03-29T14:44:13Z</time></trkpt><trkpt lat="44.75055061254269" lon="11.88628454708264"><ele>0.0</ele><time>2026-03-29T14:44:14Z</time></trkpt><trkpt lat="44.75055964598863" lon="11.886115971897722"><ele>0.0</ele><time>2026-03-29T14:44:15Z</time></trkpt><trkpt lat="44.75056800944173" lon="11.885932343539086"><ele>0.0</ele><time>2026-03-29T14:44:16Z</time></trkpt><trkpt lat="44.75057743622389" lon="11.885729762900919"><ele>0.0</ele><time>2026-03-29T14:44:17Z</time></trkpt><trkpt lat="44.75058784490287" lon="11.885503683714186"><ele>0.3333333333333333</ele><time>2026-03-29T14:44:18Z</time></trkpt><trkpt lat="44.75059917002894" lon="11.885263575484428"><ele>0.6666666666666666</ele><time>2026-03-29T14:44:19Z</time></trkpt><trkpt lat="44.750610902894806" lon="11.885026484400568"><ele>1.0</ele><time>2026-03-29T14:44:20Z</time></trkpt><trkpt lat="44.75062222511783" lon="11.884796822540308"><ele>1.0</ele><time>2026-03-29T14:44:21Z</time></trkpt><trkpt lat="44.75063042676861" lon="11.884572672185827"><ele>1.0</ele><time>2026-03-29T14:44:22Z</time></trkpt><trkpt lat="44.750638549586775" lon="11.884346278669058"><ele>1.0</ele><time>2026-03-29T14:44:23Z</time></trkpt><trkpt lat="44.750644778546516" lon="11.884130818043152"><ele>1.0</ele><time>2026-03-29T14:44:24Z</time></trkpt><trkpt lat="44.75064782440224" lon="11.883902162167605"><ele>1.0</ele><time>2026-03-29T14:44:25Z</time></trkpt><trkpt lat="44.75064712167724" lon="11.883663648234586"><ele>1.0</ele><time>2026-03-29T14:44:26Z</time></trkpt><trkpt lat="44.750646128939934" lon="11.883426714373009"><ele>1.0</ele><time>2026-03-29T14:44:27Z</time></trkpt><trkpt lat="44.750645241387076" lon="11.883184491475069"><ele>1.0</ele><time>2026-03-29T14:44:28Z</time></trkpt><trkpt lat="44.750641714072714" lon="11.882938524804102"><ele>1.0</ele><time>2026-03-29T14:44:29Z</time></trkpt><trkpt lat="44.75063970195242" lon="11.882692401887763"><ele>1.0</ele><time>2026-03-29T14:44:30Z</time></trkpt><trkpt lat="44.750645373809036" lon="11.882445657128553"><ele>1.0</ele><time>2026-03-29T14:44:31Z</time></trkpt><trkpt lat="44.75066140517539" lon="11.882201260443711"><ele>1.0</ele><time>2026-03-29T14:44:32Z</time></trkpt><trkpt lat="44.750673926470846" lon="11.881959991285857"><ele>1.0</ele><time>2026-03-29T14:44:33Z</time></trkpt><trkpt lat="44.750687775777024" lon="11.88170642036269"><ele>1.0</ele><time>2026-03-29T14:44:34Z</time></trkpt><trkpt lat="44.750725309391115" lon="11.881454790971112"><ele>1.0</ele><time>2026-03-29T14:44:35Z</time></trkpt><trkpt lat="44.750754767216" lon="11.881202599528423"><ele>1.0</ele><time>2026-03-29T14:44:36Z</time></trkpt><trkpt lat="44.75078501948452" lon="11.88094977840902"><ele>1.0</ele><time>2026-03-29T14:44:37Z</time></trkpt><trkpt lat="44.750815650951196" lon="11.880693788343214"><ele>1.0</ele><time>2026-03-29T14:44:38Z</time></trkpt><trkpt lat="44.75083034051023" lon="11.880430917348734"><ele>1.0</ele><time>2026-03-29T14:44:39Z</time></trkpt><trkpt lat="44.75087603281584" lon="11.880189171246338"><ele>1.0</ele><time>2026-03-29T14:44:40Z</time></trkpt><trkpt lat="44.75090960990247" lon="11.879950704345765"><ele>1.0</ele><time>2026-03-29T14:44:41Z</time></trkpt><trkpt lat="44.75095569986865" lon="11.879725746294927"><ele>1.0</ele><time>2026-03-29T14:44:42Z</time></trkpt><trkpt lat="44.75101157995787" lon="11.87951793040937"><ele>1.0</ele><time>2026-03-29T14:44:43Z</time></trkpt><trkpt lat="44.75106040773853" lon="11.879295675602828"><ele>1.0</ele><time>2026-03-29T14:44:44Z</time></trkpt><trkpt lat="44.75113097008782" lon="11.879073159170222"><ele>0.0</ele><time>2026-03-29T14:44:45Z</time></trkpt><trkpt lat="44.751195313148706" lon="11.878863111119246"><ele>-1.0</ele><time>2026-03-29T14:44:46Z</time></trkpt><trkpt lat="44.751247497339065" lon="11.878659303195533"><ele>-2.0</ele><time>2026-03-29T14:44:47Z</time></trkpt><trkpt lat="44.75128372229221" lon="11.878452429437806"><ele>-1.6666666666666665</ele><time>2026-03-29T14:44:48Z</time></trkpt><trkpt lat="44.75130604926824" lon="11.878230819355926"><ele>-1.3333333333333333</ele><time>2026-03-29T14:44:49Z</time></trkpt><trkpt lat="44.75131021804588" lon="11.878010790127083"><ele>-1.0</ele><time>2026-03-29T14:44:50Z</time></trkpt><trkpt lat="44.751294598816976" lon="11.877787951002231"><ele>-0.3333333333333333</ele><time>2026-03-29T14:44:51Z</time></trkpt><trkpt lat="44.7512505340439" lon="11.87756472449611"><ele>0.3333333333333333</ele><time>2026-03-29T14:44:52Z</time></trkpt><trkpt lat="44.751184973442534" lon="11.877342470205633"><ele>1.0</ele><time>2026-03-29T14:44:53Z</time></trkpt><trkpt lat="44.75111299845148" lon="11.877120638745685"><ele>0.6666666666666666</ele><time>2026-03-29T14:44:54Z</time></trkpt><trkpt lat="44.75103337121785" lon="11.876898262507991"><ele>0.3333333333333333</ele><time>2026-03-29T14:44:55Z</time></trkpt><trkpt lat="44.750950995016325" lon="11.876668147576707"><ele>0.0</ele><time>2026-03-29T14:44:56Z</time></trkpt><trkpt lat="44.75087266752013" lon="11.876429836230397"><ele>0.6666666666666666</ele><time>2026-03-29T14:44:57.001Z</time></trkpt><trkpt lat="44.75079247106149" lon="11.876193324284586"><ele>1.3333333333333333</ele><time>2026-03-29T14:44:58.001Z</time></trkpt><trkpt lat="44.75070936202202" lon="11.87596011849952"><ele>2.0</ele><time>2026-03-29T14:44:59.001Z</time></trkpt><trkpt lat="44.75064073562182" lon="11.875718972616726"><ele>2.0</ele><time>2026-03-29T14:45:00.001Z</time></trkpt><trkpt lat="44.7505439875382" lon="11.875503296335811"><ele>2.0</ele><time>2026-03-29T14:45:01.001Z</time></trkpt><trkpt lat="44.750461135756616" lon="11.875276447119278"><ele>2.0</ele><time>2026-03-29T14:45:02.001Z</time></trkpt><trkpt lat="44.750372664299356" lon="11.875053620276201"><ele>1.6666666666666665</ele><time>2026-03-29T14:45:03.001Z</time></trkpt><trkpt lat="44.75028484823987" lon="11.874832535891068"><ele>1.3333333333333333</ele><time>2026-03-29T14:45:04.001Z</time></trkpt><trkpt lat="44.75020182396456" lon="11.874620047365305"><ele>1.0</ele><time>2026-03-29T14:45:05.001Z</time></trkpt><trkpt lat="44.750114471069175" lon="11.874416236333955"><ele>1.0</ele><time>2026-03-29T14:45:06.001Z</time></trkpt><trkpt lat="44.750005952031394" lon="11.874213426382495"><ele>1.0</ele><time>2026-03-29T14:45:07.001Z</time></trkpt><trkpt lat="44.74988652550844" lon="11.874031077885395"><ele>1.0</ele><time>2026-03-29T14:45:08.001Z</time></trkpt><trkpt lat="44.74976940381093" lon="11.873838723292437"><ele>1.0</ele><time>2026-03-29T14:45:09.001Z</time></trkpt><trkpt lat="44.74963981708388" lon="11.873664852153178"><ele>1.0</ele><time>2026-03-29T14:45:10.001Z</time></trkpt><trkpt lat="44.749501071250855" lon="11.873520733845886"><ele>1.0</ele><time>2026-03-29T14:45:11.001Z</time></trkpt><trkpt lat="44.74937740782944" lon="11.873367914973018"><ele>0.3333333333333333</ele><time>2026-03-29T14:45:12.001Z</time></trkpt><trkpt lat="44.74925108246321" lon="11.873217155069053"><ele>-0.3333333333333333</ele><time>2026-03-29T14:45:13.001Z</time></trkpt><trkpt lat="44.749116810482576" lon="11.873071289721244"><ele>-1.0</ele><time>2026-03-29T14:45:14.001Z</time></trkpt><trkpt lat="44.74897702357099" lon="11.872939535531666"><ele>-1.0</ele><time>2026-03-29T14:45:15.001Z</time></trkpt><trkpt lat="44.74881959140001" lon="11.872841503237627"><ele>-1.0</ele><time>2026-03-29T14:45:16.001Z</time></trkpt><trkpt lat="44.748640094719455" lon="11.8727637713784"><ele>-1.0</ele><time>2026-03-29T14:45:17.001Z</time></trkpt><trkpt lat="44.74845731570376" lon="11.872702955801875"><ele>-1.0</ele><time>2026-03-29T14:45:18.001Z</time></trkpt><trkpt lat="44.748278376983414" lon="11.872646385318674"><ele>-1.0</ele><time>2026-03-29T14:45:19.001Z</time></trkpt><trkpt lat="44.74812384832733" lon="11.872569685995993"><ele>-1.0</ele><time>2026-03-29T14:45:20.001Z</time></trkpt><trkpt lat="44.747960728449954" lon="11.872531375216337"><ele>-1.0</ele><time>2026-03-29T14:45:21.001Z</time></trkpt><trkpt lat="44.74780617267108" lon="11.872471676330575"><ele>-1.0</ele><time>2026-03-29T14:45:22.001Z</time></trkpt><trkpt lat="44.74764829091297" lon="11.872403648945088"><ele>-1.0</ele><time>2026-03-29T14:45:23.001Z</time></trkpt><trkpt lat="44.747497497251636" lon="11.872323835261303"><ele>-1.0</ele><time>2026-03-29T14:45:24.001Z</time></trkpt><trkpt lat="44.74734483439304" lon="11.872231418862306"><ele>-1.0</ele><time>2026-03-29T14:45:25.001Z</time></trkpt><trkpt lat="44.74719362827556" lon="11.872123671790128"><ele>-1.0</ele><time>2026-03-29T14:45:26.001Z</time></trkpt><trkpt lat="44.74704136267471" lon="11.872006546269574"><ele>-1.0</ele><time>2026-03-29T14:45:27.001Z</time></trkpt><trkpt lat="44.746894283952344" lon="11.871888292987915"><ele>-1.0</ele><time>2026-03-29T14:45:28.001Z</time></trkpt><trkpt lat="44.74673711498107" lon="11.871768999242624"><ele>-1.0</ele><time>2026-03-29T14:45:29.001Z</time></trkpt><trkpt lat="44.74658587910174" lon="11.871651374982847"><ele>-1.0</ele><time>2026-03-29T14:45:30.001Z</time></trkpt><trkpt lat="44.7464383775648" lon="11.871528693186542"><ele>-1.0</ele><time>2026-03-29T14:45:31.001Z</time></trkpt><trkpt lat="44.74628045737325" lon="11.87140533211629"><ele>-1.0</ele><time>2026-03-29T14:45:32.001Z</time></trkpt><trkpt lat="44.74612819828113" lon="11.871281580478517"><ele>-1.0</ele><time>2026-03-29T14:45:33.001Z</time></trkpt><trkpt lat="44.74597419346751" lon="11.871163242220721"><ele>-1.0</ele><time>2026-03-29T14:45:34.001Z</time></trkpt><trkpt lat="44.74582402340722" lon="11.871045263547561"><ele>-1.0</ele><time>2026-03-29T14:45:35.001Z</time></trkpt><trkpt lat="44.745682664820954" lon="11.870906320102403"><ele>-1.0</ele><time>2026-03-29T14:45:36.001Z</time></trkpt><trkpt lat="44.745570280538416" lon="11.870722441704924"><ele>-1.0</ele><time>2026-03-29T14:45:37.001Z</time></trkpt><trkpt lat="44.7454427562093" lon="11.870562173009054"><ele>-1.0</ele><time>2026-03-29T14:45:38Z</time></trkpt><trkpt lat="44.745330266959265" lon="11.870379443132563"><ele>-1.0</ele><time>2026-03-29T14:45:39Z</time></trkpt><trkpt lat="44.745208602022174" lon="11.870194307195689"><ele>-1.0</ele><time>2026-03-29T14:45:40Z</time></trkpt><trkpt lat="44.74509089208929" lon="11.87002191179428"><ele>-1.0</ele><time>2026-03-29T14:45:41Z</time></trkpt><trkpt lat="44.744971701323585" lon="11.869833505507614"><ele>-1.0</ele><time>2026-03-29T14:45:42Z</time></trkpt><trkpt lat="44.74486083896398" lon="11.869662402890198"><ele>-1.0</ele><time>2026-03-29T14:45:43Z</time></trkpt><trkpt lat="44.74475340439282" lon="11.86950654565106"><ele>-1.0</ele><time>2026-03-29T14:45:44Z</time></trkpt><trkpt lat="44.74466582991186" lon="11.869342953697592"><ele>-1.0</ele><time>2026-03-29T14:45:45Z</time></trkpt><trkpt lat="44.7445642468955" lon="11.8692175474902"><ele>-1.0</ele><time>2026-03-29T14:45:46Z</time></trkpt><trkpt lat="44.74447905738571" lon="11.869065202205151"><ele>-1.0</ele><time>2026-03-29T14:45:47Z</time></trkpt><trkpt lat="44.74440162377767" lon="11.868882466897427"><ele>-1.0</ele><time>2026-03-29T14:45:48Z</time></trkpt><trkpt lat="44.744344992906015" lon="11.868676012519739"><ele>-1.0</ele><time>2026-03-29T14:45:49Z</time></trkpt><trkpt lat="44.744311793520104" lon="11.868445869419107"><ele>-1.0</ele><time>2026-03-29T14:45:50Z</time></trkpt><trkpt lat="44.74430172797725" lon="11.868202871870935"><ele>-1.0</ele><time>2026-03-29T14:45:51Z</time></trkpt><trkpt lat="44.744312662112335" lon="11.86797119208503"><ele>-1.0</ele><time>2026-03-29T14:45:52Z</time></trkpt><trkpt lat="44.744335397277425" lon="11.867741295493815"><ele>-1.0</ele><time>2026-03-29T14:45:53Z</time></trkpt><trkpt lat="44.744365468926375" lon="11.867522288718854"><ele>-1.0</ele><time>2026-03-29T14:45:54Z</time></trkpt><trkpt lat="44.74440373053901" lon="11.867305571841927"><ele>-1.0</ele><time>2026-03-29T14:45:55Z</time></trkpt><trkpt lat="44.74444490343885" lon="11.867084920852534"><ele>-1.0</ele><time>2026-03-29T14:45:56Z</time></trkpt><trkpt lat="44.744488202522845" lon="11.866864221073707"><ele>-1.0</ele><time>2026-03-29T14:45:57Z</time></trkpt><trkpt lat="44.74453178488738" lon="11.866651350544448"><ele>-1.0</ele><time>2026-03-29T14:45:58Z</time></trkpt><trkpt lat="44.74457642380593" lon="11.866448410281361"><ele>-1.0</ele><time>2026-03-29T14:45:59Z</time></trkpt><trkpt lat="44.744616144262494" lon="11.866246912462332"><ele>-1.0</ele><time>2026-03-29T14:46:00Z</time></trkpt><trkpt lat="44.74465602808935" lon="11.866047141756244"><ele>-1.0</ele><time>2026-03-29T14:46:01Z</time></trkpt><trkpt lat="44.74469797771094" lon="11.865839216232384"><ele>-1.0</ele><time>2026-03-29T14:46:02Z</time></trkpt><trkpt lat="44.74473892006601" lon="11.865633509545942"><ele>-1.0</ele><time>2026-03-29T14:46:03Z</time></trkpt><trkpt lat="44.744777411889544" lon="11.865421758494493"><ele>-1.0</ele><time>2026-03-29T14:46:04Z</time></trkpt><trkpt lat="44.744818460164375" lon="11.865213623568634"><ele>-1.0</ele><time>2026-03-29T14:46:05Z</time></trkpt><trkpt lat="44.744859851703346" lon="11.865007980442838"><ele>-1.0</ele><time>2026-03-29T14:46:06Z</time></trkpt><trkpt lat="44.74491750787734" lon="11.864801625204873"><ele>-1.0</ele><time>2026-03-29T14:46:07Z</time></trkpt><trkpt lat="44.74496125818415" lon="11.864587415205818"><ele>-1.0</ele><time>2026-03-29T14:46:08Z</time></trkpt><trkpt lat="44.745006689783686" lon="11.864365773848606"><ele>-1.0</ele><time>2026-03-29T14:46:09Z</time></trkpt><trkpt lat="44.74505392681526" lon="11.864141362218708"><ele>-1.0</ele><time>2026-03-29T14:46:10Z</time></trkpt><trkpt lat="44.745103430988244" lon="11.863906978902445"><ele>-1.0</ele><time>2026-03-29T14:46:11Z</time></trkpt><trkpt lat="44.74515749898619" lon="11.863667193127625"><ele>-1.0</ele><time>2026-03-29T14:46:12Z</time></trkpt><trkpt lat="44.74521914146207" lon="11.863422799533183"><ele>-1.0</ele><time>2026-03-29T14:46:13Z</time></trkpt><trkpt lat="44.74529634655579" lon="11.863177700554433"><ele>-1.0</ele><time>2026-03-29T14:46:14Z</time></trkpt><trkpt lat="44.74537571270351" lon="11.862946569207764"><ele>-1.0</ele><time>2026-03-29T14:46:15Z</time></trkpt><trkpt lat="44.745451805880194" lon="11.862737438101588"><ele>-1.0</ele><time>2026-03-29T14:46:16Z</time></trkpt><trkpt lat="44.74552223351172" lon="11.862542266994343"><ele>-1.0</ele><time>2026-03-29T14:46:17Z</time></trkpt><trkpt lat="44.74559097144683" lon="11.862347648944098"><ele>-1.0</ele><time>2026-03-29T14:46:18Z</time></trkpt><trkpt lat="44.74564196814863" lon="11.862139652420318"><ele>-1.0</ele><time>2026-03-29T14:46:19Z</time></trkpt><trkpt lat="44.74568990972929" lon="11.861940154962987"><ele>-2.0</ele><time>2026-03-29T14:46:20Z</time></trkpt><trkpt lat="44.74570922551525" lon="11.861718833316683"><ele>-3.0</ele><time>2026-03-29T14:46:21Z</time></trkpt><trkpt lat="44.74569982863186" lon="11.861482458146902"><ele>-4.0</ele><time>2026-03-29T14:46:22Z</time></trkpt><trkpt lat="44.74567872300016" lon="11.861242825883835"><ele>-4.0</ele><time>2026-03-29T14:46:23Z</time></trkpt><trkpt lat="44.74566031922837" lon="11.860995595604095"><ele>-4.0</ele><time>2026-03-29T14:46:24Z</time></trkpt><trkpt lat="44.745661839361524" lon="11.860744100943668"><ele>-4.0</ele><time>2026-03-29T14:46:25Z</time></trkpt><trkpt lat="44.7456474535683" lon="11.860487653980895"><ele>-4.0</ele><time>2026-03-29T14:46:26Z</time></trkpt><trkpt lat="44.7456329391479" lon="11.860228913934607"><ele>-4.0</ele><time>2026-03-29T14:46:27Z</time></trkpt><trkpt lat="44.745618069264104" lon="11.859974797070347"><ele>-4.0</ele><time>2026-03-29T14:46:28Z</time></trkpt><trkpt lat="44.74560358735521" lon="11.859729411101004"><ele>-3.6666666666666665</ele><time>2026-03-29T14:46:29Z</time></trkpt><trkpt lat="44.74558909531195" lon="11.859483853589145"><ele>-3.333333333333333</ele><time>2026-03-29T14:46:30Z</time></trkpt><trkpt lat="44.74557499331798" lon="11.859244905097475"><ele>-3.0</ele><time>2026-03-29T14:46:31Z</time></trkpt><trkpt lat="44.745560345385236" lon="11.858996706230574"><ele>-2.6666666666666665</ele><time>2026-03-29T14:46:32Z</time></trkpt><trkpt lat="44.745545641284764" lon="11.858750426933495"><ele>-2.333333333333333</ele><time>2026-03-29T14:46:33Z</time></trkpt><trkpt lat="44.74553050067591" lon="11.858501314415339"><ele>-2.0</ele><time>2026-03-29T14:46:34Z</time></trkpt><trkpt lat="44.745515572412884" lon="11.858255695038537"><ele>-1.6666666666666665</ele><time>2026-03-29T14:46:35Z</time></trkpt><trkpt lat="44.74550204625911" lon="11.858013259736987"><ele>-1.3333333333333333</ele><time>2026-03-29T14:46:36Z</time></trkpt><trkpt lat="44.745488210853495" lon="11.857766171518202"><ele>-1.0</ele><time>2026-03-29T14:46:37Z</time></trkpt><trkpt lat="44.7454747507141" lon="11.857531195516449"><ele>-1.0</ele><time>2026-03-29T14:46:38Z</time></trkpt><trkpt lat="44.745460685158896" lon="11.857294512074844"><ele>-1.0</ele><time>2026-03-29T14:46:39Z</time></trkpt><trkpt lat="44.74544625917001" lon="11.85705176366539"><ele>-1.0</ele><time>2026-03-29T14:46:40Z</time></trkpt><trkpt lat="44.74543250696951" lon="11.856820353131425"><ele>-1.0</ele><time>2026-03-29T14:46:41Z</time></trkpt><trkpt lat="44.74540309911912" lon="11.856592240571763"><ele>-1.0</ele><time>2026-03-29T14:46:42Z</time></trkpt><trkpt lat="44.74539054505867" lon="11.856355071528965"><ele>-1.0</ele><time>2026-03-29T14:46:43Z</time></trkpt><trkpt lat="44.74537701909185" lon="11.856119394116385"><ele>-1.0</ele><time>2026-03-29T14:46:44Z</time></trkpt><trkpt lat="44.74536198667789" lon="11.85587796550893"><ele>-1.0</ele><time>2026-03-29T14:46:45Z</time></trkpt><trkpt lat="44.74536489074991" lon="11.855644164276777"><ele>-1.0</ele><time>2026-03-29T14:46:46Z</time></trkpt><trkpt lat="44.74533565387989" lon="11.85541028870676"><ele>-1.0</ele><time>2026-03-29T14:46:47Z</time></trkpt><trkpt lat="44.74532258774153" lon="11.85517497108055"><ele>-1.0</ele><time>2026-03-29T14:46:48Z</time></trkpt><trkpt lat="44.7453249297217" lon="11.85494122783908"><ele>-1.0</ele><time>2026-03-29T14:46:49Z</time></trkpt><trkpt lat="44.74531132983068" lon="11.85470199849487"><ele>-0.6666666666666666</ele><time>2026-03-29T14:46:50Z</time></trkpt><trkpt lat="44.745297776498994" lon="11.854463585542973"><ele>-0.3333333333333333</ele><time>2026-03-29T14:46:51Z</time></trkpt><trkpt lat="44.74528710236694" lon="11.85425428082307"><ele>0.0</ele><time>2026-03-29T14:46:52Z</time></trkpt><trkpt lat="44.745276238375624" lon="11.854060592438039"><ele>-0.5</ele><time>2026-03-29T14:46:53Z</time></trkpt><trkpt lat="44.74524937151142" lon="11.853881625036008"><ele>-1.0</ele><time>2026-03-29T14:46:54Z</time></trkpt><trkpt lat="44.745236766058625" lon="11.8537203845088"><ele>-1.5</ele><time>2026-03-29T14:46:55Z</time></trkpt><trkpt lat="44.74520622240035" lon="11.85355935126656"><ele>-2.0</ele><time>2026-03-29T14:46:56Z</time></trkpt><trkpt lat="44.7451482815876" lon="11.853402618098341"><ele>-2.0</ele><time>2026-03-29T14:46:57Z</time></trkpt><trkpt lat="44.74506399318765" lon="11.853257934699187"><ele>-2.0</ele><time>2026-03-29T14:46:58Z</time></trkpt><trkpt lat="44.744940932458846" lon="11.853141528348331"><ele>-2.0</ele><time>2026-03-29T14:46:59Z</time></trkpt><trkpt lat="44.744788203703635" lon="11.853058698824528"><ele>-2.0</ele><time>2026-03-29T14:47:00Z</time></trkpt><trkpt lat="44.74463070966676" lon="11.852994400957668"><ele>-2.0</ele><time>2026-03-29T14:47:01Z</time></trkpt><trkpt lat="44.74448395412315" lon="11.85292966907027"><ele>-2.0</ele><time>2026-03-29T14:47:02Z</time></trkpt><trkpt lat="44.74433634726188" lon="11.852856089030116"><ele>-2.0</ele><time>2026-03-29T14:47:03Z</time></trkpt><trkpt lat="44.74418422041744" lon="11.852776741501799"><ele>-2.0</ele><time>2026-03-29T14:47:04Z</time></trkpt><trkpt lat="44.744023901804866" lon="11.852697146264813"><ele>-2.0</ele><time>2026-03-29T14:47:05Z</time></trkpt><trkpt lat="44.74386920763372" lon="11.852615525157573"><ele>-2.0</ele><time>2026-03-29T14:47:06Z</time></trkpt><trkpt lat="44.743713440061406" lon="11.852540291307674"><ele>-2.0</ele><time>2026-03-29T14:47:07Z</time></trkpt><trkpt lat="44.743555189266935" lon="11.852463648592884"><ele>-2.0</ele><time>2026-03-29T14:47:08Z</time></trkpt><trkpt lat="44.7433925928805" lon="11.852386443954176"><ele>-2.0</ele><time>2026-03-29T14:47:09Z</time></trkpt><trkpt lat="44.74322747592573" lon="11.852305892915492"><ele>-2.0</ele><time>2026-03-29T14:47:10Z</time></trkpt><trkpt lat="44.74305702750862" lon="11.85221976979878"><ele>-2.0</ele><time>2026-03-29T14:47:11Z</time></trkpt><trkpt lat="44.74287958074854" lon="11.85213053611973"><ele>-2.0</ele><time>2026-03-29T14:47:12Z</time></trkpt><trkpt lat="44.742704795038264" lon="11.85204336496034"><ele>-2.0</ele><time>2026-03-29T14:47:13Z</time></trkpt><trkpt lat="44.74251498347051" lon="11.851947829269212"><ele>-2.0</ele><time>2026-03-29T14:47:14Z</time></trkpt><trkpt lat="44.74230096927765" lon="11.851845011172966"><ele>-2.0</ele><time>2026-03-29T14:47:15Z</time></trkpt><trkpt lat="44.742092536477635" lon="11.851741947759116"><ele>-2.0</ele><time>2026-03-29T14:47:16Z</time></trkpt><trkpt lat="44.741895390028745" lon="11.851643666402069"><ele>-2.0</ele><time>2026-03-29T14:47:17Z</time></trkpt><trkpt lat="44.74170705048062" lon="11.851549394028638"><ele>-2.0</ele><time>2026-03-29T14:47:18.001Z</time></trkpt><trkpt lat="44.74150730787136" lon="11.851450819919279"><ele>-2.0</ele><time>2026-03-29T14:47:19.001Z</time></trkpt><trkpt lat="44.74131631202722" lon="11.851360060727131"><ele>-2.0</ele><time>2026-03-29T14:47:20.001Z</time></trkpt><trkpt lat="44.74114535238666" lon="11.851279539818727"><ele>-2.0</ele><time>2026-03-29T14:47:21.001Z</time></trkpt><trkpt lat="44.740978818027145" lon="11.851200751987399"><ele>-1.6666666666666665</ele><time>2026-03-29T14:47:22.001Z</time></trkpt><trkpt lat="44.740818530559174" lon="11.85112620674757"><ele>-1.3333333333333333</ele><time>2026-03-29T14:47:23.001Z</time></trkpt><trkpt lat="44.740668809545916" lon="11.851056240035001"><ele>-1.0</ele><time>2026-03-29T14:47:24.001Z</time></trkpt><trkpt lat="44.74053078961424" lon="11.850987353746161"><ele>-1.0</ele><time>2026-03-29T14:47:25.001Z</time></trkpt><trkpt lat="44.74040257902969" lon="11.850928260366304"><ele>-1.0</ele><time>2026-03-29T14:47:26.001Z</time></trkpt><trkpt lat="44.740284569606885" lon="11.850871348610076"><ele>-1.0</ele><time>2026-03-29T14:47:27.001Z</time></trkpt><trkpt lat="44.740181722648664" lon="11.850810600298374"><ele>-1.0</ele><time>2026-03-29T14:47:28.001Z</time></trkpt><trkpt lat="44.74008845560338" lon="11.850727900172632"><ele>-1.0</ele><time>2026-03-29T14:47:29.001Z</time></trkpt><trkpt lat="44.74000044040858" lon="11.850616071858694"><ele>-1.0</ele><time>2026-03-29T14:47:30.001Z</time></trkpt><trkpt lat="44.739922042612484" lon="11.850472208735175"><ele>-1.0</ele><time>2026-03-29T14:47:31.001Z</time></trkpt><trkpt lat="44.739859824828685" lon="11.850303599147152"><ele>-1.0</ele><time>2026-03-29T14:47:32.001Z</time></trkpt><trkpt lat="44.739815419583394" lon="11.850122666493988"><ele>-1.0</ele><time>2026-03-29T14:47:33.001Z</time></trkpt><trkpt lat="44.73982804632851" lon="11.849921624520308"><ele>-1.0</ele><time>2026-03-29T14:47:34.001Z</time></trkpt><trkpt lat="44.73984218326694" lon="11.849711366935974"><ele>-1.0</ele><time>2026-03-29T14:47:35.001Z</time></trkpt><trkpt lat="44.73986000628112" lon="11.849500327647554"><ele>-1.0</ele><time>2026-03-29T14:47:36.001Z</time></trkpt><trkpt lat="44.73986765257065" lon="11.849301650495006"><ele>-1.0</ele><time>2026-03-29T14:47:37.001Z</time></trkpt><trkpt lat="44.73988466001398" lon="11.84909715695996"><ele>-1.0</ele><time>2026-03-29T14:47:38.001Z</time></trkpt><trkpt lat="44.739900190278206" lon="11.84888076410985"><ele>-1.0</ele><time>2026-03-29T14:47:39.001Z</time></trkpt><trkpt lat="44.7399210949646" lon="11.848661756965662"><ele>-1.0</ele><time>2026-03-29T14:47:40.001Z</time></trkpt><trkpt lat="44.73994206058881" lon="11.848436195019348"><ele>-1.0</ele><time>2026-03-29T14:47:41.001Z</time></trkpt><trkpt lat="44.739963265369965" lon="11.848205329549792"><ele>-1.0</ele><time>2026-03-29T14:47:42.001Z</time></trkpt><trkpt lat="44.73998048464416" lon="11.847969137713935"><ele>-1.0</ele><time>2026-03-29T14:47:43Z</time></trkpt><trkpt lat="44.7400152593844" lon="11.847731390105958"><ele>-1.0</ele><time>2026-03-29T14:47:44Z</time></trkpt><trkpt lat="44.74003560282432" lon="11.847488190090322"><ele>-1.0</ele><time>2026-03-29T14:47:45Z</time></trkpt><trkpt lat="44.74005521468317" lon="11.847263905443759"><ele>-1.0</ele><time>2026-03-29T14:47:46Z</time></trkpt><trkpt lat="44.740075339193076" lon="11.847047705631592"><ele>-1.0</ele><time>2026-03-29T14:47:47Z</time></trkpt><trkpt lat="44.740095593094594" lon="11.846827000767941"><ele>-1.0</ele><time>2026-03-29T14:47:48Z</time></trkpt><trkpt lat="44.74011529482188" lon="11.846610464931121"><ele>-1.5</ele><time>2026-03-29T14:47:49Z</time></trkpt><trkpt lat="44.74013413529957" lon="11.846403395014276"><ele>-2.0</ele><time>2026-03-29T14:47:50Z</time></trkpt><trkpt lat="44.74015284035537" lon="11.846197813150454"><ele>-2.5</ele><time>2026-03-29T14:47:51Z</time></trkpt><trkpt lat="44.74016951173229" lon="11.846005862949331"><ele>-3.0</ele><time>2026-03-29T14:47:52Z</time></trkpt><trkpt lat="44.74018583744073" lon="11.845813709976486"><ele>-3.0</ele><time>2026-03-29T14:47:53Z</time></trkpt><trkpt lat="44.74020021841547" lon="11.845628135995561"><ele>-3.0</ele><time>2026-03-29T14:47:54Z</time></trkpt><trkpt lat="44.740194216366675" lon="11.845445680443996"><ele>-3.0</ele><time>2026-03-29T14:47:55Z</time></trkpt><trkpt lat="44.74019852687007" lon="11.84526051831479"><ele>-3.0</ele><time>2026-03-29T14:47:56Z</time></trkpt><trkpt lat="44.74017274062665" lon="11.845065849240516"><ele>-2.6666666666666665</ele><time>2026-03-29T14:47:57Z</time></trkpt><trkpt lat="44.740117383681266" lon="11.844879435650572"><ele>-2.333333333333333</ele><time>2026-03-29T14:47:58Z</time></trkpt><trkpt lat="44.74003995176415" lon="11.844689563254846"><ele>-2.0</ele><time>2026-03-29T14:47:59Z</time></trkpt><trkpt lat="44.73994374121131" lon="11.844510886722425"><ele>-2.0</ele><time>2026-03-29T14:48:00Z</time></trkpt><trkpt lat="44.73983645602849" lon="11.84435088794994"><ele>-2.0</ele><time>2026-03-29T14:48:01Z</time></trkpt><trkpt lat="44.739722844889066" lon="11.84420094739351"><ele>-2.0</ele><time>2026-03-29T14:48:02Z</time></trkpt><trkpt lat="44.739615109407175" lon="11.844023167182673"><ele>-1.6666666666666665</ele><time>2026-03-29T14:48:03Z</time></trkpt><trkpt lat="44.73949945789691" lon="11.843852000046077"><ele>-1.3333333333333333</ele><time>2026-03-29T14:48:04Z</time></trkpt><trkpt lat="44.73938050190881" lon="11.84366515627583"><ele>-1.0</ele><time>2026-03-29T14:48:05Z</time></trkpt><trkpt lat="44.739263377227" lon="11.843476798736997"><ele>-0.6666666666666666</ele><time>2026-03-29T14:48:06Z</time></trkpt><trkpt lat="44.73913428522963" lon="11.843253535576817"><ele>-0.3333333333333333</ele><time>2026-03-29T14:48:07Z</time></trkpt><trkpt lat="44.73901526436215" lon="11.843041876343978"><ele>0.0</ele><time>2026-03-29T14:48:08Z</time></trkpt><trkpt lat="44.73890747595604" lon="11.842848964210889"><ele>0.0</ele><time>2026-03-29T14:48:09Z</time></trkpt><trkpt lat="44.73881039253731" lon="11.842673179746958"><ele>0.0</ele><time>2026-03-29T14:48:10Z</time></trkpt><trkpt lat="44.7387077754775" lon="11.842525472106328"><ele>0.0</ele><time>2026-03-29T14:48:11Z</time></trkpt><trkpt lat="44.738617698273934" lon="11.842368247052994"><ele>0.0</ele><time>2026-03-29T14:48:12Z</time></trkpt><trkpt lat="44.73852582352159" lon="11.842215500055532"><ele>0.3333333333333333</ele><time>2026-03-29T14:48:13Z</time></trkpt><trkpt lat="44.738411176642195" lon="11.842072223930586"><ele>0.6666666666666666</ele><time>2026-03-29T14:48:14Z</time></trkpt><trkpt lat="44.73827875425771" lon="11.84194384901598"><ele>1.0</ele><time>2026-03-29T14:48:15Z</time></trkpt><trkpt lat="44.73814899832933" lon="11.84181421457654"><ele>0.6666666666666666</ele><time>2026-03-29T14:48:16Z</time></trkpt><trkpt lat="44.73802112526108" lon="11.841683229408183"><ele>0.3333333333333333</ele><time>2026-03-29T14:48:17Z</time></trkpt><trkpt lat="44.73789572099606" lon="11.841553674343276"><ele>0.0</ele><time>2026-03-29T14:48:18Z</time></trkpt><trkpt lat="44.7377663686652" lon="11.841421350802847"><ele>0.6666666666666666</ele><time>2026-03-29T14:48:19Z</time></trkpt><trkpt lat="44.73762889094088" lon="11.84129839742403"><ele>1.3333333333333333</ele><time>2026-03-29T14:48:20Z</time></trkpt><trkpt lat="44.7374807484951" lon="11.841197248105301"><ele>2.0</ele><time>2026-03-29T14:48:21Z</time></trkpt><trkpt lat="44.73732137526563" lon="11.84111209776348"><ele>2.0</ele><time>2026-03-29T14:48:22Z</time></trkpt><trkpt lat="44.737163140253124" lon="11.841029110130874"><ele>2.0</ele><time>2026-03-29T14:48:23Z</time></trkpt><trkpt lat="44.73701536401508" lon="11.840936953321151"><ele>2.0</ele><time>2026-03-29T14:48:24Z</time></trkpt><trkpt lat="44.736866265470226" lon="11.840822870085102"><ele>1.6666666666666665</ele><time>2026-03-29T14:48:25Z</time></trkpt><trkpt lat="44.73671571883327" lon="11.840687949114738"><ele>1.3333333333333333</ele><time>2026-03-29T14:48:26Z</time></trkpt><trkpt lat="44.736573988087535" lon="11.8405459467693"><ele>1.0</ele><time>2026-03-29T14:48:27Z</time></trkpt><trkpt lat="44.736428640921375" lon="11.840402273069241"><ele>1.0</ele><time>2026-03-29T14:48:28Z</time></trkpt><trkpt lat="44.73628169644797" lon="11.840255761943046"><ele>1.0</ele><time>2026-03-29T14:48:29Z</time></trkpt><trkpt lat="44.73613873973695" lon="11.840116065153065"><ele>1.0</ele><time>2026-03-29T14:48:30Z</time></trkpt><trkpt lat="44.73599011410654" lon="11.839973020564244"><ele>0.6666666666666666</ele><time>2026-03-29T14:48:31Z</time></trkpt><trkpt lat="44.735843605004966" lon="11.839825649743062"><ele>0.3333333333333333</ele><time>2026-03-29T14:48:32Z</time></trkpt><trkpt lat="44.735694809863624" lon="11.839680242946397"><ele>0.0</ele><time>2026-03-29T14:48:33Z</time></trkpt><trkpt lat="44.735545710722924" lon="11.839533220617625"><ele>0.0</ele><time>2026-03-29T14:48:34Z</time></trkpt><trkpt lat="44.73539479634752" lon="11.839385191554847"><ele>0.0</ele><time>2026-03-29T14:48:35Z</time></trkpt><trkpt lat="44.735243289324075" lon="11.839231686878207"><ele>0.0</ele><time>2026-03-29T14:48:36Z</time></trkpt><trkpt lat="44.73509502286544" lon="11.839083784129327"><ele>0.0</ele><time>2026-03-29T14:48:37Z</time></trkpt><trkpt lat="44.734944543912356" lon="11.838933009049528"><ele>0.0</ele><time>2026-03-29T14:48:38Z</time></trkpt><trkpt lat="44.734792702788376" lon="11.838778359851997"><ele>0.0</ele><time>2026-03-29T14:48:39Z</time></trkpt><trkpt lat="44.73464375677481" lon="11.838624952271227"><ele>0.0</ele><time>2026-03-29T14:48:40Z</time></trkpt><trkpt lat="44.73449236888624" lon="11.838469667718389"><ele>0.0</ele><time>2026-03-29T14:48:41Z</time></trkpt><trkpt lat="44.73434695050057" lon="11.838314234493778"><ele>0.0</ele><time>2026-03-29T14:48:42Z</time></trkpt><trkpt lat="44.73420230443071" lon="11.838174545528343"><ele>0.0</ele><time>2026-03-29T14:48:43Z</time></trkpt><trkpt lat="44.734058689378045" lon="11.838038693781925"><ele>0.0</ele><time>2026-03-29T14:48:44Z</time></trkpt><trkpt lat="44.73392040379936" lon="11.837891921080708"><ele>0.0</ele><time>2026-03-29T14:48:45Z</time></trkpt><trkpt lat="44.73380074781484" lon="11.837739321987089"><ele>0.0</ele><time>2026-03-29T14:48:46Z</time></trkpt><trkpt lat="44.73369972764246" lon="11.837585079144741"><ele>0.0</ele><time>2026-03-29T14:48:47Z</time></trkpt><trkpt lat="44.73360067369693" lon="11.837425818247922"><ele>0.0</ele><time>2026-03-29T14:48:48Z</time></trkpt><trkpt lat="44.73351859549168" lon="11.837261301908446"><ele>0.0</ele><time>2026-03-29T14:48:49Z</time></trkpt><trkpt lat="44.733458626776034" lon="11.837078392629842"><ele>-0.25</ele><time>2026-03-29T14:48:50Z</time></trkpt><trkpt lat="44.73340858337173" lon="11.836888960175289"><ele>-0.5</ele><time>2026-03-29T14:48:51Z</time></trkpt><trkpt lat="44.73336402975092" lon="11.836714356594317"><ele>-0.75</ele><time>2026-03-29T14:48:52Z</time></trkpt><trkpt lat="44.733305678362456" lon="11.836553462055521"><ele>-1.0</ele><time>2026-03-29T14:48:53Z</time></trkpt><trkpt lat="44.733218629177436" lon="11.836405527984398"><ele>-1.3333333333333333</ele><time>2026-03-29T14:48:54Z</time></trkpt><trkpt lat="44.73310989407692" lon="11.836266786102893"><ele>-1.6666666666666665</ele><time>2026-03-29T14:48:55Z</time></trkpt><trkpt lat="44.73298509204467" lon="11.836141441956453"><ele>-2.0</ele><time>2026-03-29T14:48:56Z</time></trkpt><trkpt lat="44.732858483312654" lon="11.836013156645686"><ele>-2.0</ele><time>2026-03-29T14:48:57Z</time></trkpt><trkpt lat="44.73273688294992" lon="11.835863915480559"><ele>-2.0</ele><time>2026-03-29T14:48:58Z</time></trkpt><trkpt lat="44.73262565129149" lon="11.835686975462515"><ele>-2.0</ele><time>2026-03-29T14:48:59Z</time></trkpt><trkpt lat="44.73252358781983" lon="11.835492841547996"><ele>-1.6666666666666665</ele><time>2026-03-29T14:49:00Z</time></trkpt><trkpt lat="44.73242685855557" lon="11.835299222817179"><ele>-1.3333333333333333</ele><time>2026-03-29T14:49:01Z</time></trkpt><trkpt lat="44.73233636910866" lon="11.835105958205768"><ele>-1.0</ele><time>2026-03-29T14:49:02Z</time></trkpt><trkpt lat="44.73224707030884" lon="11.834901402341048"><ele>-1.0</ele><time>2026-03-29T14:49:03Z</time></trkpt><trkpt lat="44.732157216576525" lon="11.834687265181826"><ele>-1.0</ele><time>2026-03-29T14:49:04Z</time></trkpt><trkpt lat="44.732068366467466" lon="11.834481266807105"><ele>-1.0</ele><time>2026-03-29T14:49:05Z</time></trkpt><trkpt lat="44.73198773024072" lon="11.834297664440374"><ele>-1.25</ele><time>2026-03-29T14:49:06Z</time></trkpt><trkpt lat="44.731914173834326" lon="11.834132992487943"><ele>-1.5</ele><time>2026-03-29T14:49:07Z</time></trkpt><trkpt lat="44.73183879540477" lon="11.833957418183536"><ele>-1.75</ele><time>2026-03-29T14:49:08Z</time></trkpt><trkpt lat="44.73176141150272" lon="11.833778203365686"><ele>-2.0</ele><time>2026-03-29T14:49:09Z</time></trkpt><trkpt lat="44.73168476031045" lon="11.833604217985277"><ele>-2.0</ele><time>2026-03-29T14:49:10Z</time></trkpt><trkpt lat="44.73159132191144" lon="11.833429152728504"><ele>-2.0</ele><time>2026-03-29T14:49:11Z</time></trkpt><trkpt lat="44.73147846856254" lon="11.83326366116909"><ele>-2.0</ele><time>2026-03-29T14:49:12Z</time></trkpt><trkpt lat="44.73135759354979" lon="11.833109017138757"><ele>-2.0</ele><time>2026-03-29T14:49:13Z</time></trkpt><trkpt lat="44.73122608834558" lon="11.832959589636193"><ele>-2.0</ele><time>2026-03-29T14:49:14Z</time></trkpt><trkpt lat="44.731090302220714" lon="11.832814708711823"><ele>-2.0</ele><time>2026-03-29T14:49:15Z</time></trkpt><trkpt lat="44.730950970017695" lon="11.832677175299926"><ele>-2.0</ele><time>2026-03-29T14:49:16Z</time></trkpt><trkpt lat="44.73080878936701" lon="11.83254822570609"><ele>-2.0</ele><time>2026-03-29T14:49:17Z</time></trkpt><trkpt lat="44.73066529704942" lon="11.832426306604027"><ele>-2.0</ele><time>2026-03-29T14:49:18Z</time></trkpt><trkpt lat="44.73052175498865" lon="11.832313679795998"><ele>-2.0</ele><time>2026-03-29T14:49:19Z</time></trkpt><trkpt lat="44.73038049077213" lon="11.83220599156261"><ele>-2.0</ele><time>2026-03-29T14:49:20Z</time></trkpt><trkpt lat="44.730252352991975" lon="11.832098366800842"><ele>-2.0</ele><time>2026-03-29T14:49:21Z</time></trkpt><trkpt lat="44.73012645274108" lon="11.831988234008302"><ele>-1.6666666666666665</ele><time>2026-03-29T14:49:22Z</time></trkpt><trkpt lat="44.72999927363879" lon="11.831869739981125"><ele>-1.3333333333333333</ele><time>2026-03-29T14:49:23Z</time></trkpt><trkpt lat="44.72987817459797" lon="11.831744506250244"><ele>-1.0</ele><time>2026-03-29T14:49:24Z</time></trkpt><trkpt lat="44.72975780885921" lon="11.831618482346016"><ele>-1.0</ele><time>2026-03-29T14:49:25Z</time></trkpt><trkpt lat="44.72963253775784" lon="11.831486973658489"><ele>-1.0</ele><time>2026-03-29T14:49:26Z</time></trkpt><trkpt lat="44.72950451959015" lon="11.831354796855615"><ele>-1.0</ele><time>2026-03-29T14:49:27Z</time></trkpt><trkpt lat="44.72937758686532" lon="11.831215682088889"><ele>-1.0</ele><time>2026-03-29T14:49:28Z</time></trkpt><trkpt lat="44.72925831122787" lon="11.831066157294341"><ele>-1.0</ele><time>2026-03-29T14:49:29Z</time></trkpt><trkpt lat="44.72914970525873" lon="11.830908722334637"><ele>-1.0</ele><time>2026-03-29T14:49:30Z</time></trkpt><trkpt lat="44.72904563421165" lon="11.830746115736638"><ele>-1.0</ele><time>2026-03-29T14:49:31Z</time></trkpt><trkpt lat="44.728940113299984" lon="11.830584117140116"><ele>-1.0</ele><time>2026-03-29T14:49:32Z</time></trkpt><trkpt lat="44.72881405049584" lon="11.830440476108832"><ele>-1.0</ele><time>2026-03-29T14:49:33Z</time></trkpt><trkpt lat="44.72867845718063" lon="11.830302190850936"><ele>-0.6666666666666666</ele><time>2026-03-29T14:49:34Z</time></trkpt><trkpt lat="44.72853575133965" lon="11.83016416231476"><ele>-0.3333333333333333</ele><time>2026-03-29T14:49:35Z</time></trkpt><trkpt lat="44.7283974192125" lon="11.830030958658412"><ele>0.0</ele><time>2026-03-29T14:49:36Z</time></trkpt><trkpt lat="44.72825308114146" lon="11.829892957484352"><ele>0.0</ele><time>2026-03-29T14:49:37Z</time></trkpt><trkpt lat="44.72810495302512" lon="11.82975367391936"><ele>0.0</ele><time>2026-03-29T14:49:38Z</time></trkpt><trkpt lat="44.72795716914887" lon="11.829626700787957"><ele>0.0</ele><time>2026-03-29T14:49:39Z</time></trkpt><trkpt lat="44.72781281957504" lon="11.829505175857662"><ele>-0.3333333333333333</ele><time>2026-03-29T14:49:40Z</time></trkpt><trkpt lat="44.72766891718808" lon="11.829390093916386"><ele>-0.6666666666666666</ele><time>2026-03-29T14:49:41Z</time></trkpt><trkpt lat="44.72752686607928" lon="11.82928321146294"><ele>-1.0</ele><time>2026-03-29T14:49:42Z</time></trkpt><trkpt lat="44.72738718133092" lon="11.829179379342738"><ele>-1.0</ele><time>2026-03-29T14:49:43Z</time></trkpt><trkpt lat="44.72724610561111" lon="11.829067811580886"><ele>-1.0</ele><time>2026-03-29T14:49:44Z</time></trkpt><trkpt lat="44.727113902313874" lon="11.828965449030179"><ele>-1.0</ele><time>2026-03-29T14:49:45Z</time></trkpt><trkpt lat="44.72699024313212" lon="11.828871919457315"><ele>-0.75</ele><time>2026-03-29T14:49:46Z</time></trkpt><trkpt lat="44.72686332752808" lon="11.828770857956016"><ele>-0.5</ele><time>2026-03-29T14:49:47Z</time></trkpt><trkpt lat="44.72674109764701" lon="11.828676822714545"><ele>-0.25</ele><time>2026-03-29T14:49:48Z</time></trkpt><trkpt lat="44.72663305579076" lon="11.828588757179896"><ele>0.0</ele><time>2026-03-29T14:49:49Z</time></trkpt><trkpt lat="44.72652310893272" lon="11.828495032113493"><ele>0.0</ele><time>2026-03-29T14:49:50Z</time></trkpt><trkpt lat="44.72643173279698" lon="11.828414269245254"><ele>0.0</ele><time>2026-03-29T14:49:51Z</time></trkpt><trkpt lat="44.72633412340372" lon="11.828336934544362"><ele>0.0</ele><time>2026-03-29T14:49:52Z</time></trkpt><trkpt lat="44.72622883661882" lon="11.828260007830385"><ele>0.0</ele><time>2026-03-29T14:49:53Z</time></trkpt><trkpt lat="44.72612509011947" lon="11.828178455679762"><ele>0.25</ele><time>2026-03-29T14:49:54Z</time></trkpt><trkpt lat="44.72601463758614" lon="11.828102664778896"><ele>0.5</ele><time>2026-03-29T14:49:55Z</time></trkpt><trkpt lat="44.72590431289906" lon="11.828032871732358"><ele>0.75</ele><time>2026-03-29T14:49:56Z</time></trkpt><trkpt lat="44.72578747462966" lon="11.82797371031969"><ele>1.0</ele><time>2026-03-29T14:49:57Z</time></trkpt><trkpt lat="44.72567030434119" lon="11.82793720250731"><ele>1.0</ele><time>2026-03-29T14:49:58Z</time></trkpt><trkpt lat="44.725544480838025" lon="11.827914963105853"><ele>1.0</ele><time>2026-03-29T14:49:59Z</time></trkpt><trkpt lat="44.72542088651297" lon="11.827899258284392"><ele>1.0</ele><time>2026-03-29T14:50:00Z</time></trkpt><trkpt lat="44.725294486719214" lon="11.827890788704899"><ele>1.0</ele><time>2026-03-29T14:50:01Z</time></trkpt><trkpt lat="44.72517418313665" lon="11.82788135039643"><ele>1.0</ele><time>2026-03-29T14:50:02Z</time></trkpt><trkpt lat="44.72505233754007" lon="11.827869923522957"><ele>1.0</ele><time>2026-03-29T14:50:03Z</time></trkpt><trkpt lat="44.72493671820574" lon="11.827855794062842"><ele>1.0</ele><time>2026-03-29T14:50:04Z</time></trkpt><trkpt lat="44.724820274320045" lon="11.827843377784047"><ele>1.0</ele><time>2026-03-29T14:50:05Z</time></trkpt><trkpt lat="44.72470389068289" lon="11.827830752878038"><ele>1.0</ele><time>2026-03-29T14:50:06Z</time></trkpt><trkpt lat="44.724585558003405" lon="11.827819439524427"><ele>1.0</ele><time>2026-03-29T14:50:07Z</time></trkpt><trkpt lat="44.72447098403376" lon="11.827805361937065"><ele>1.0</ele><time>2026-03-29T14:50:08Z</time></trkpt><trkpt lat="44.724347804746245" lon="11.827789964728826"><ele>1.0</ele><time>2026-03-29T14:50:09Z</time></trkpt><trkpt lat="44.724210439918885" lon="11.827778095270464"><ele>0.75</ele><time>2026-03-29T14:50:10Z</time></trkpt><trkpt lat="44.7240695796499" lon="11.827766833709681"><ele>0.5</ele><time>2026-03-29T14:50:11Z</time></trkpt><trkpt lat="44.7239305188387" lon="11.82776312381021"><ele>0.25</ele><time>2026-03-29T14:50:12Z</time></trkpt><trkpt lat="44.723783389221005" lon="11.827746923108371"><ele>0.0</ele><time>2026-03-29T14:50:13Z</time></trkpt><trkpt lat="44.723639386514385" lon="11.82772819318686"><ele>0.0</ele><time>2026-03-29T14:50:14Z</time></trkpt><trkpt lat="44.72350052468861" lon="11.82771672456352"><ele>0.0</ele><time>2026-03-29T14:50:15Z</time></trkpt><trkpt lat="44.72336690773838" lon="11.827706561109645"><ele>0.0</ele><time>2026-03-29T14:50:16Z</time></trkpt><trkpt lat="44.72323707791653" lon="11.82767845931699"><ele>0.0</ele><time>2026-03-29T14:50:17Z</time></trkpt><trkpt lat="44.723106072004384" lon="11.827620230561902"><ele>0.0</ele><time>2026-03-29T14:50:18Z</time></trkpt><trkpt lat="44.72297968244765" lon="11.827531179176443"><ele>0.0</ele><time>2026-03-29T14:50:19Z</time></trkpt><trkpt lat="44.72286323111195" lon="11.827408663034507"><ele>0.0</ele><time>2026-03-29T14:50:20Z</time></trkpt><trkpt lat="44.72276661271671" lon="11.827250433603309"><ele>0.0</ele><time>2026-03-29T14:50:21Z</time></trkpt><trkpt lat="44.72266109616067" lon="11.82709639979854"><ele>0.3333333333333333</ele><time>2026-03-29T14:50:22Z</time></trkpt><trkpt lat="44.72254616507896" lon="11.82693686206905"><ele>0.6666666666666666</ele><time>2026-03-29T14:50:23Z</time></trkpt><trkpt lat="44.72244131896747" lon="11.826757879423093"><ele>1.0</ele><time>2026-03-29T14:50:24Z</time></trkpt><trkpt lat="44.72232398275275" lon="11.826570845733745"><ele>0.3333333333333333</ele><time>2026-03-29T14:50:25Z</time></trkpt><trkpt lat="44.722209788847344" lon="11.826396436650155"><ele>-0.3333333333333333</ele><time>2026-03-29T14:50:26Z</time></trkpt><trkpt lat="44.72209898794992" lon="11.826224747235909"><ele>-1.0</ele><time>2026-03-29T14:50:27Z</time></trkpt><trkpt lat="44.72198596098642" lon="11.826043006678056"><ele>0.0</ele><time>2026-03-29T14:50:28Z</time></trkpt><trkpt lat="44.721865365045915" lon="11.82586039513355"><ele>1.0</ele><time>2026-03-29T14:50:29Z</time></trkpt><trkpt lat="44.72174384149575" lon="11.825673474240293"><ele>2.0</ele><time>2026-03-29T14:50:30Z</time></trkpt><trkpt lat="44.721627341205625" lon="11.82549192555262"><ele>2.0</ele><time>2026-03-29T14:50:31Z</time></trkpt><trkpt lat="44.72150609519043" lon="11.825310503596024"><ele>2.0</ele><time>2026-03-29T14:50:32Z</time></trkpt><trkpt lat="44.72138679775781" lon="11.825120494117678"><ele>2.0</ele><time>2026-03-29T14:50:33Z</time></trkpt><trkpt lat="44.7212646318132" lon="11.82493482897396"><ele>2.0</ele><time>2026-03-29T14:50:34Z</time></trkpt><trkpt lat="44.72114181307419" lon="11.824745050719017"><ele>2.0</ele><time>2026-03-29T14:50:35Z</time></trkpt><trkpt lat="44.721017287039906" lon="11.824552116312438"><ele>2.0</ele><time>2026-03-29T14:50:36Z</time></trkpt><trkpt lat="44.72089189917735" lon="11.824358168501073"><ele>1.6666666666666665</ele><time>2026-03-29T14:50:37Z</time></trkpt><trkpt lat="44.72076695698411" lon="11.82416392438582"><ele>1.3333333333333333</ele><time>2026-03-29T14:50:38Z</time></trkpt><trkpt lat="44.72064592815809" lon="11.823972159724354"><ele>1.0</ele><time>2026-03-29T14:50:39Z</time></trkpt><trkpt lat="44.72052114285557" lon="11.823781254113616"><ele>1.0</ele><time>2026-03-29T14:50:40Z</time></trkpt><trkpt lat="44.72039856433088" lon="11.823589995081798"><ele>1.0</ele><time>2026-03-29T14:50:41Z</time></trkpt><trkpt lat="44.72027925366323" lon="11.823386708019855"><ele>1.0</ele><time>2026-03-29T14:50:42Z</time></trkpt><trkpt lat="44.7201670065629" lon="11.823180774189867"><ele>0.6666666666666666</ele><time>2026-03-29T14:50:43Z</time></trkpt><trkpt lat="44.720060015549585" lon="11.822966576455151"><ele>0.3333333333333333</ele><time>2026-03-29T14:50:44Z</time></trkpt><trkpt lat="44.71996646700095" lon="11.822746816520894"><ele>0.0</ele><time>2026-03-29T14:50:45Z</time></trkpt><trkpt lat="44.71988758579652" lon="11.822525008961323"><ele>0.0</ele><time>2026-03-29T14:50:46Z</time></trkpt><trkpt lat="44.71982153742077" lon="11.822288016232887"><ele>0.0</ele><time>2026-03-29T14:50:47Z</time></trkpt><trkpt lat="44.71976991772288" lon="11.822049114104106"><ele>0.0</ele><time>2026-03-29T14:50:48Z</time></trkpt><trkpt lat="44.71972542077163" lon="11.821811958451542"><ele>0.0</ele><time>2026-03-29T14:50:49Z</time></trkpt><trkpt lat="44.719676185665094" lon="11.82156697575034"><ele>0.0</ele><time>2026-03-29T14:50:50Z</time></trkpt><trkpt lat="44.71963024202981" lon="11.821326634384354"><ele>0.0</ele><time>2026-03-29T14:50:51Z</time></trkpt><trkpt lat="44.719583699158385" lon="11.821094780245568"><ele>0.0</ele><time>2026-03-29T14:50:52Z</time></trkpt><trkpt lat="44.719537286804915" lon="11.820869353705945"><ele>0.0</ele><time>2026-03-29T14:50:53Z</time></trkpt><trkpt lat="44.71949587047377" lon="11.820645796382612"><ele>0.0</ele><time>2026-03-29T14:50:54Z</time></trkpt><trkpt lat="44.71945751219476" lon="11.820432417263865"><ele>0.0</ele><time>2026-03-29T14:50:55Z</time></trkpt><trkpt lat="44.71942524056412" lon="11.82022752517919"><ele>0.0</ele><time>2026-03-29T14:50:56Z</time></trkpt><trkpt lat="44.7193910342729" lon="11.82004611165953"><ele>0.0</ele><time>2026-03-29T14:50:57Z</time></trkpt><trkpt lat="44.71935553854701" lon="11.819860138374493"><ele>0.0</ele><time>2026-03-29T14:50:58Z</time></trkpt><trkpt lat="44.719306778629694" lon="11.81968272824878"><ele>0.0</ele><time>2026-03-29T14:50:59Z</time></trkpt><trkpt lat="44.71923011530439" lon="11.819494426625255"><ele>0.0</ele><time>2026-03-29T14:51:00Z</time></trkpt><trkpt lat="44.71911309777832" lon="11.8193619137097"><ele>0.0</ele><time>2026-03-29T14:51:01Z</time></trkpt><trkpt lat="44.71897410997405" lon="11.819218752944632"><ele>0.0</ele><time>2026-03-29T14:51:02Z</time></trkpt><trkpt lat="44.71882960697576" lon="11.819093113050611"><ele>0.0</ele><time>2026-03-29T14:51:03Z</time></trkpt><trkpt lat="44.718703641553304" lon="11.8189588672386"><ele>0.0</ele><time>2026-03-29T14:51:04Z</time></trkpt><trkpt lat="44.71855816936891" lon="11.81882765811494"><ele>0.3333333333333333</ele><time>2026-03-29T14:51:05Z</time></trkpt><trkpt lat="44.7184159446654" lon="11.818687207898833"><ele>0.6666666666666666</ele><time>2026-03-29T14:51:06Z</time></trkpt><trkpt lat="44.71825943134378" lon="11.818550146368638"><ele>1.0</ele><time>2026-03-29T14:51:07Z</time></trkpt><trkpt lat="44.71809988086588" lon="11.818422205974821"><ele>1.0</ele><time>2026-03-29T14:51:08Z</time></trkpt><trkpt lat="44.71792698239756" lon="11.818306141051742"><ele>1.0</ele><time>2026-03-29T14:51:09Z</time></trkpt><trkpt lat="44.71774323135474" lon="11.818194556575074"><ele>1.0</ele><time>2026-03-29T14:51:10Z</time></trkpt><trkpt lat="44.717569264478605" lon="11.818098285944803"><ele>1.0</ele><time>2026-03-29T14:51:11Z</time></trkpt><trkpt lat="44.71739560959447" lon="11.817991311304327"><ele>1.0</ele><time>2026-03-29T14:51:12Z</time></trkpt><trkpt lat="44.71723034163633" lon="11.817895028446985"><ele>1.0</ele><time>2026-03-29T14:51:13Z</time></trkpt><trkpt lat="44.71705913654749" lon="11.817798229017871"><ele>1.3333333333333333</ele><time>2026-03-29T14:51:14Z</time></trkpt><trkpt lat="44.71688225692129" lon="11.81771338589279"><ele>1.6666666666666665</ele><time>2026-03-29T14:51:15Z</time></trkpt><trkpt lat="44.716698687336404" lon="11.81764536558517"><ele>2.0</ele><time>2026-03-29T14:51:16Z</time></trkpt><trkpt lat="44.71651505409457" lon="11.817600051832386"><ele>2.0</ele><time>2026-03-29T14:51:17Z</time></trkpt><trkpt lat="44.71631790009765" lon="11.817565508348489"><ele>2.0</ele><time>2026-03-29T14:51:18Z</time></trkpt><trkpt lat="44.71612007927081" lon="11.817534920257675"><ele>2.0</ele><time>2026-03-29T14:51:19Z</time></trkpt><trkpt lat="44.71593325520334" lon="11.817503142397692"><ele>1.6666666666666665</ele><time>2026-03-29T14:51:20Z</time></trkpt><trkpt lat="44.71574436532655" lon="11.817463405168844"><ele>1.3333333333333333</ele><time>2026-03-29T14:51:21Z</time></trkpt><trkpt lat="44.71555166721178" lon="11.817425253322178"><ele>1.0</ele><time>2026-03-29T14:51:22Z</time></trkpt><trkpt lat="44.71536357228502" lon="11.817395369422536"><ele>0.3333333333333333</ele><time>2026-03-29T14:51:23Z</time></trkpt><trkpt lat="44.71517317107922" lon="11.817369029762013"><ele>-0.3333333333333333</ele><time>2026-03-29T14:51:24Z</time></trkpt><trkpt lat="44.71498507103013" lon="11.817342858837467"><ele>-1.0</ele><time>2026-03-29T14:51:25Z</time></trkpt><trkpt lat="44.71479691386365" lon="11.817313088426335"><ele>-1.0</ele><time>2026-03-29T14:51:26Z</time></trkpt><trkpt lat="44.71461624948945" lon="11.817287173505564"><ele>-1.0</ele><time>2026-03-29T14:51:27Z</time></trkpt><trkpt lat="44.7144305325734" lon="11.817256627726136"><ele>-1.0</ele><time>2026-03-29T14:51:28Z</time></trkpt><trkpt lat="44.71424272003215" lon="11.81723286849156"><ele>-0.6666666666666666</ele><time>2026-03-29T14:51:29Z</time></trkpt><trkpt lat="44.7140581513181" lon="11.817203099523852"><ele>-0.3333333333333333</ele><time>2026-03-29T14:51:30Z</time></trkpt><trkpt lat="44.71387421202589" lon="11.817170662719066"><ele>0.0</ele><time>2026-03-29T14:51:31Z</time></trkpt><trkpt lat="44.713690566212385" lon="11.81712299485844"><ele>-0.6666666666666666</ele><time>2026-03-29T14:51:32Z</time></trkpt><trkpt lat="44.71351001011728" lon="11.817073071461898"><ele>-1.3333333333333333</ele><time>2026-03-29T14:51:33Z</time></trkpt><trkpt lat="44.71333183971926" lon="11.81702045654073"><ele>-2.0</ele><time>2026-03-29T14:51:34Z</time></trkpt><trkpt lat="44.71315320653019" lon="11.816959483680712"><ele>-2.0</ele><time>2026-03-29T14:51:35Z</time></trkpt><trkpt lat="44.712981430872944" lon="11.816882199755556"><ele>-2.0</ele><time>2026-03-29T14:51:36Z</time></trkpt><trkpt lat="44.71280995484282" lon="11.816783287740618"><ele>-2.0</ele><time>2026-03-29T14:51:37Z</time></trkpt><trkpt lat="44.71265707383992" lon="11.816661308677277"><ele>-1.3333333333333333</ele><time>2026-03-29T14:51:38Z</time></trkpt><trkpt lat="44.71250355804977" lon="11.816533032025657"><ele>-0.6666666666666666</ele><time>2026-03-29T14:51:39Z</time></trkpt><trkpt lat="44.71235371169969" lon="11.81642229351307"><ele>0.0</ele><time>2026-03-29T14:51:40Z</time></trkpt><trkpt lat="44.7122019431188" lon="11.816323628586124"><ele>0.0</ele><time>2026-03-29T14:51:41Z</time></trkpt><trkpt lat="44.71206609052586" lon="11.816237663685436"><ele>0.0</ele><time>2026-03-29T14:51:42Z</time></trkpt><trkpt lat="44.71193683014954" lon="11.816162698537786"><ele>0.0</ele><time>2026-03-29T14:51:43Z</time></trkpt><trkpt lat="44.7118102684342" lon="11.816103948267864"><ele>0.0</ele><time>2026-03-29T14:51:44Z</time></trkpt><trkpt lat="44.71168302368844" lon="11.816054049624984"><ele>0.0</ele><time>2026-03-29T14:51:45Z</time></trkpt><trkpt lat="44.711551748887636" lon="11.815987016584872"><ele>0.0</ele><time>2026-03-29T14:51:46Z</time></trkpt><trkpt lat="44.71142279808549" lon="11.815894264490671"><ele>0.0</ele><time>2026-03-29T14:51:47Z</time></trkpt><trkpt lat="44.711311369025076" lon="11.815795441660288"><ele>0.0</ele><time>2026-03-29T14:51:48Z</time></trkpt><trkpt lat="44.71121735530433" lon="11.815695068248324"><ele>0.0</ele><time>2026-03-29T14:51:49Z</time></trkpt><trkpt lat="44.71113199778638" lon="11.815599654686487"><ele>0.0</ele><time>2026-03-29T14:51:50Z</time></trkpt><trkpt lat="44.71105816751492" lon="11.81550748145077"><ele>0.0</ele><time>2026-03-29T14:51:51Z</time></trkpt><trkpt lat="44.71100576211938" lon="11.815423473050263"><ele>0.0</ele><time>2026-03-29T14:51:52Z</time></trkpt><trkpt lat="44.71097417224246" lon="11.81531982561096"><ele>0.0</ele><time>2026-03-29T14:51:53Z</time></trkpt><trkpt lat="44.710964646299466" lon="11.815215084211664"><ele>0.0</ele><time>2026-03-29T14:51:54Z</time></trkpt><trkpt lat="44.71095119842154" lon="11.815096535772751"><ele>-0.6</ele><time>2026-03-29T14:51:55Z</time></trkpt><trkpt lat="44.71091059648808" lon="11.814994245568098"><ele>-1.2</ele><time>2026-03-29T14:51:56Z</time></trkpt><trkpt lat="44.710839366041554" lon="11.814929024928574"><ele>-1.7999999999999998</ele><time>2026-03-29T14:51:57Z</time></trkpt><trkpt lat="44.710749201152844" lon="11.814909946560089"><ele>-2.4</ele><time>2026-03-29T14:51:58Z</time></trkpt><trkpt lat="44.710660524032384" lon="11.81495196827669"><ele>-3.0</ele><time>2026-03-29T14:51:59Z</time></trkpt><trkpt lat="44.7105864195863" lon="11.815042369330074"><ele>-2.6</ele><time>2026-03-29T14:52:00Z</time></trkpt><trkpt lat="44.710547322739174" lon="11.815169231702903"><ele>-2.1999999999999997</ele><time>2026-03-29T14:52:01Z</time></trkpt><trkpt lat="44.710526931532215" lon="11.815308943283547"><ele>-1.8</ele><time>2026-03-29T14:52:02Z</time></trkpt><trkpt lat="44.71050711466953" lon="11.815445786557241"><ele>-1.4</ele><time>2026-03-29T14:52:03Z</time></trkpt><trkpt lat="44.71044314450774" lon="11.815559084545681"><ele>-1.0</ele><time>2026-03-29T14:52:04Z</time></trkpt><trkpt lat="44.710340701891184" lon="11.815652450168736"><ele>-1.3333333333333333</ele><time>2026-03-29T14:52:05Z</time></trkpt><trkpt lat="44.71020508464945" lon="11.815725190858384"><ele>-1.6666666666666665</ele><time>2026-03-29T14:52:06Z</time></trkpt><trkpt lat="44.710049526575354" lon="11.815771700859155"><ele>-2.0</ele><time>2026-03-29T14:52:07Z</time></trkpt><trkpt lat="44.709882547748165" lon="11.81574789565417"><ele>-2.0</ele><time>2026-03-29T14:52:08Z</time></trkpt><trkpt lat="44.709700564667685" lon="11.815730710970755"><ele>-2.0</ele><time>2026-03-29T14:52:09Z</time></trkpt><trkpt lat="44.70948700612713" lon="11.815738549525692"><ele>-2.0</ele><time>2026-03-29T14:52:10Z</time></trkpt><trkpt lat="44.709261710293895" lon="11.815723098130315"><ele>-2.333333333333333</ele><time>2026-03-29T14:52:11Z</time></trkpt><trkpt lat="44.70905958892282" lon="11.815719135398579"><ele>-2.6666666666666665</ele><time>2026-03-29T14:52:12Z</time></trkpt><trkpt lat="44.708875308774374" lon="11.815724276143403"><ele>-3.0</ele><time>2026-03-29T14:52:13Z</time></trkpt><trkpt lat="44.70870595005884" lon="11.81572358841607"><ele>-3.0</ele><time>2026-03-29T14:52:14Z</time></trkpt><trkpt lat="44.70853811373219" lon="11.81570524980262"><ele>-3.0</ele><time>2026-03-29T14:52:15Z</time></trkpt><trkpt lat="44.7083996594431" lon="11.815656920742411"><ele>-3.0</ele><time>2026-03-29T14:52:16Z</time></trkpt><trkpt lat="44.708263230990156" lon="11.815602914251002"><ele>-3.0</ele><time>2026-03-29T14:52:17Z</time></trkpt><trkpt lat="44.708131372237595" lon="11.815545592195651"><ele>-3.0</ele><time>2026-03-29T14:52:18Z</time></trkpt><trkpt lat="44.70801118568058" lon="11.815489251684474"><ele>-3.0</ele><time>2026-03-29T14:52:19Z</time></trkpt><trkpt lat="44.70788844507672" lon="11.81542723777755"><ele>-3.0</ele><time>2026-03-29T14:52:20Z</time></trkpt><trkpt lat="44.70776753270932" lon="11.81535129332086"><ele>-3.0</ele><time>2026-03-29T14:52:21Z</time></trkpt><trkpt lat="44.707649190865105" lon="11.815263713858112"><ele>-3.0</ele><time>2026-03-29T14:52:22Z</time></trkpt><trkpt lat="44.70753080302998" lon="11.815173413121858"><ele>-3.0</ele><time>2026-03-29T14:52:23Z</time></trkpt><trkpt lat="44.70741387554482" lon="11.815080807468338"><ele>-3.0</ele><time>2026-03-29T14:52:24Z</time></trkpt><trkpt lat="44.707298930309314" lon="11.814980709799919"><ele>-3.0</ele><time>2026-03-29T14:52:25Z</time></trkpt><trkpt lat="44.7071832734051" lon="11.8148777619366"><ele>-3.0</ele><time>2026-03-29T14:52:26Z</time></trkpt><trkpt lat="44.70706577224111" lon="11.814778602439626"><ele>-3.0</ele><time>2026-03-29T14:52:27Z</time></trkpt><trkpt lat="44.70694859211106" lon="11.814687324768824"><ele>-3.0</ele><time>2026-03-29T14:52:28Z</time></trkpt><trkpt lat="44.706829312782816" lon="11.814612482982447"><ele>-3.0</ele><time>2026-03-29T14:52:29Z</time></trkpt><trkpt lat="44.70670630100614" lon="11.814559376902842"><ele>-3.0</ele><time>2026-03-29T14:52:30Z</time></trkpt><trkpt lat="44.70657739119305" lon="11.814527163584513"><ele>-3.0</ele><time>2026-03-29T14:52:31Z</time></trkpt><trkpt lat="44.70644876832103" lon="11.814507628160094"><ele>-3.0</ele><time>2026-03-29T14:52:32Z</time></trkpt><trkpt lat="44.706317516022814" lon="11.81448498011654"><ele>-3.0</ele><time>2026-03-29T14:52:33Z</time></trkpt><trkpt lat="44.706179011332836" lon="11.814456422906883"><ele>-3.0</ele><time>2026-03-29T14:52:34Z</time></trkpt><trkpt lat="44.70604088948503" lon="11.814422857556387"><ele>-3.0</ele><time>2026-03-29T14:52:35Z</time></trkpt><trkpt lat="44.70590166210787" lon="11.814387831107403"><ele>-3.0</ele><time>2026-03-29T14:52:36Z</time></trkpt><trkpt lat="44.70576741716587" lon="11.814353119794216"><ele>-2.75</ele><time>2026-03-29T14:52:37Z</time></trkpt><trkpt lat="44.70562995648309" lon="11.814318711461926"><ele>-2.5</ele><time>2026-03-29T14:52:38Z</time></trkpt><trkpt lat="44.70549512410681" lon="11.814286928222543"><ele>-2.25</ele><time>2026-03-29T14:52:39Z</time></trkpt><trkpt lat="44.70536018681456" lon="11.814257494072107"><ele>-2.0</ele><time>2026-03-29T14:52:40Z</time></trkpt><trkpt lat="44.70522492550846" lon="11.81423108660214"><ele>-1.75</ele><time>2026-03-29T14:52:41Z</time></trkpt><trkpt lat="44.70509601248072" lon="11.814198371921195"><ele>-1.5</ele><time>2026-03-29T14:52:42Z</time></trkpt><trkpt lat="44.7049660447403" lon="11.814153173850121"><ele>-1.25</ele><time>2026-03-29T14:52:43Z</time></trkpt><trkpt lat="44.704854020923946" lon="11.81406159857227"><ele>-1.0</ele><time>2026-03-29T14:52:44Z</time></trkpt><trkpt lat="44.704735619930155" lon="11.813982610598897"><ele>-1.0</ele><time>2026-03-29T14:52:45Z</time></trkpt><trkpt lat="44.70464268026045" lon="11.813855407612364"><ele>-1.0</ele><time>2026-03-29T14:52:46Z</time></trkpt><trkpt lat="44.704552969647395" lon="11.813732417381503"><ele>-1.0</ele><time>2026-03-29T14:52:47Z</time></trkpt><trkpt lat="44.70446110394085" lon="11.813613339832399"><ele>-1.0</ele><time>2026-03-29T14:52:48Z</time></trkpt><trkpt lat="44.70436674319705" lon="11.813496920491906"><ele>-1.25</ele><time>2026-03-29T14:52:49Z</time></trkpt><trkpt lat="44.70427588845529" lon="11.813381757928488"><ele>-1.5</ele><time>2026-03-29T14:52:50Z</time></trkpt><trkpt lat="44.7041843182131" lon="11.813270406377786"><ele>-1.75</ele><time>2026-03-29T14:52:51Z</time></trkpt><trkpt lat="44.704100244485566" lon="11.813172985397294"><ele>-2.0</ele><time>2026-03-29T14:52:52Z</time></trkpt><trkpt lat="44.704011126435596" lon="11.813077029642985"><ele>-2.0</ele><time>2026-03-29T14:52:53Z</time></trkpt><trkpt lat="44.703912738359314" lon="11.812989966193143"><ele>-2.0</ele><time>2026-03-29T14:52:54Z</time></trkpt><trkpt lat="44.70381008258546" lon="11.812902064970913"><ele>-2.0</ele><time>2026-03-29T14:52:55Z</time></trkpt><trkpt lat="44.70370455093619" lon="11.812808951323504"><ele>-2.0</ele><time>2026-03-29T14:52:56Z</time></trkpt><trkpt lat="44.70360312677198" lon="11.81271225410368"><ele>-1.75</ele><time>2026-03-29T14:52:57Z</time></trkpt><trkpt lat="44.703509834844546" lon="11.812613469822098"><ele>-1.5</ele><time>2026-03-29T14:52:58Z</time></trkpt><trkpt lat="44.70341901470609" lon="11.812503896562921"><ele>-1.25</ele><time>2026-03-29T14:52:59Z</time></trkpt><trkpt lat="44.70333222125507" lon="11.81238778205924"><ele>-1.0</ele><time>2026-03-29T14:53:00Z</time></trkpt><trkpt lat="44.703241944480936" lon="11.812271164620173"><ele>-1.0</ele><time>2026-03-29T14:53:01Z</time></trkpt><trkpt lat="44.703152616859306" lon="11.81216108521065"><ele>-1.0</ele><time>2026-03-29T14:53:02Z</time></trkpt><trkpt lat="44.70305850606739" lon="11.812053521041047"><ele>-1.0</ele><time>2026-03-29T14:53:03Z</time></trkpt><trkpt lat="44.702961282739935" lon="11.8119564800722"><ele>-1.0</ele><time>2026-03-29T14:53:04Z</time></trkpt><trkpt lat="44.70285934588544" lon="11.811866602706242"><ele>-0.75</ele><time>2026-03-29T14:53:05Z</time></trkpt><trkpt lat="44.702756316278375" lon="11.81178233817197"><ele>-0.5</ele><time>2026-03-29T14:53:06Z</time></trkpt><trkpt lat="44.70265090430843" lon="11.811700650028165"><ele>-0.25</ele><time>2026-03-29T14:53:07Z</time></trkpt><trkpt lat="44.70255097013481" lon="11.81162867508662"><ele>0.0</ele><time>2026-03-29T14:53:08Z</time></trkpt><trkpt lat="44.70246124835134" lon="11.81155935891954"><ele>0.2</ele><time>2026-03-29T14:53:09Z</time></trkpt><trkpt lat="44.702370643516346" lon="11.811489749425212"><ele>0.4</ele><time>2026-03-29T14:53:10Z</time></trkpt><trkpt lat="44.702289401657374" lon="11.811394165024245"><ele>0.6000000000000001</ele><time>2026-03-29T14:53:11Z</time></trkpt><trkpt lat="44.7021926159815" lon="11.811335080111242"><ele>0.8</ele><time>2026-03-29T14:53:12Z</time></trkpt><trkpt lat="44.70210320908849" lon="11.811249548131594"><ele>1.0</ele><time>2026-03-29T14:53:13Z</time></trkpt><trkpt lat="44.70201259161467" lon="11.811161998079625"><ele>1.0</ele><time>2026-03-29T14:53:14Z</time></trkpt><trkpt lat="44.701919813536335" lon="11.81107073378102"><ele>1.0</ele><time>2026-03-29T14:53:15Z</time></trkpt><trkpt lat="44.70182504147034" lon="11.810977277449242"><ele>1.0</ele><time>2026-03-29T14:53:16Z</time></trkpt><trkpt lat="44.70173322394139" lon="11.810889377164392"><ele>1.0</ele><time>2026-03-29T14:53:17Z</time></trkpt><trkpt lat="44.701640689020515" lon="11.810802151888472"><ele>1.2000000000000002</ele><time>2026-03-29T14:53:18Z</time></trkpt><trkpt lat="44.70155059425272" lon="11.810715435904081"><ele>1.4000000000000001</ele><time>2026-03-29T14:53:19Z</time></trkpt><trkpt lat="44.70146078913341" lon="11.810625356712887"><ele>1.6</ele><time>2026-03-29T14:53:20Z</time></trkpt><trkpt lat="44.7013713424194" lon="11.81053418259283"><ele>1.8</ele><time>2026-03-29T14:53:21Z</time></trkpt><trkpt lat="44.70128084168888" lon="11.810447049498691"><ele>2.0</ele><time>2026-03-29T14:53:22Z</time></trkpt><trkpt lat="44.70119036979563" lon="11.810359690339906"><ele>2.0</ele><time>2026-03-29T14:53:23Z</time></trkpt><trkpt lat="44.701102566788116" lon="11.810278557255012"><ele>2.0</ele><time>2026-03-29T14:53:24Z</time></trkpt><trkpt lat="44.70101630069064" lon="11.810185216051243"><ele>2.0</ele><time>2026-03-29T14:53:25Z</time></trkpt><trkpt lat="44.700928332289294" lon="11.810105644429356"><ele>2.0</ele><time>2026-03-29T14:53:26Z</time></trkpt><trkpt lat="44.70085208555349" lon="11.810017397165762"><ele>2.0</ele><time>2026-03-29T14:53:27Z</time></trkpt><trkpt lat="44.700781358202455" lon="11.80995087456282"><ele>1.9999999999999998</ele><time>2026-03-29T14:53:28Z</time></trkpt><trkpt lat="44.70070792403251" lon="11.80988959166491"><ele>2.0</ele><time>2026-03-29T14:53:29Z</time></trkpt><trkpt lat="44.70063659710779" lon="11.809820857081972"><ele>2.0</ele><time>2026-03-29T14:53:30Z</time></trkpt><trkpt lat="44.700565156306865" lon="11.809746536799338"><ele>2.0</ele><time>2026-03-29T14:53:31Z</time></trkpt><trkpt lat="44.70050041470698" lon="11.809691939740699"><ele>1.9999999999999998</ele><time>2026-03-29T14:53:32Z</time></trkpt><trkpt lat="44.700449490107566" lon="11.809639169631104"><ele>2.0</ele><time>2026-03-29T14:53:33Z</time></trkpt><trkpt lat="44.700365410576325" lon="11.809541356332526"><ele>2.0</ele><time>2026-03-29T14:53:35Z</time></trkpt><trkpt lat="44.700323303411835" lon="11.809468081110449"><ele>2.0</ele><time>2026-03-29T14:53:36Z</time></trkpt><trkpt lat="44.700236967535574" lon="11.809377374650555"><ele>2.0</ele><time>2026-03-29T14:53:38Z</time></trkpt><trkpt lat="44.700125449363235" lon="11.809426221017896"><ele>2.0</ele><time>2026-03-29T14:53:40Z</time></trkpt><trkpt lat="44.700066853009915" lon="11.809467117557146"><ele>2.0</ele><time>2026-03-29T14:53:41Z</time></trkpt><trkpt lat="44.70002697063558" lon="11.809592320531126"><ele>1.9999999999999998</ele><time>2026-03-29T14:53:42Z</time></trkpt><trkpt lat="44.69994499111179" lon="11.809630209099344"><ele>2.0</ele><time>2026-03-29T14:53:43Z</time></trkpt><trkpt lat="44.6998681733263" lon="11.809677733556292"><ele>2.0</ele><time>2026-03-29T14:53:44Z</time></trkpt><trkpt lat="44.69979926216017" lon="11.809744209107416"><ele>2.0</ele><time>2026-03-29T14:53:45Z</time></trkpt><trkpt lat="44.699718308920204" lon="11.809791592263592"><ele>1.9999999999999998</ele><time>2026-03-29T14:53:46Z</time></trkpt><trkpt lat="44.69963621826156" lon="11.809844382357257"><ele>2.0</ele><time>2026-03-29T14:53:47Z</time></trkpt><trkpt lat="44.69955441204611" lon="11.80990159751699"><ele>2.0</ele><time>2026-03-29T14:53:48Z</time></trkpt><trkpt lat="44.69948302659578" lon="11.809958435781375"><ele>2.0</ele><time>2026-03-29T14:53:49Z</time></trkpt><trkpt lat="44.6994284664577" lon="11.81001058377816"><ele>2.0</ele><time>2026-03-29T14:53:50Z</time></trkpt><trkpt lat="44.69931358843458" lon="11.810132254333853"><ele>2.0</ele><time>2026-03-29T14:53:52Z</time></trkpt><trkpt lat="44.699241477502106" lon="11.810220009659638"><ele>2.0</ele><time>2026-03-29T14:53:53Z</time></trkpt><trkpt lat="44.69917068416396" lon="11.810323008020491"><ele>2.0</ele><time>2026-03-29T14:53:54Z</time></trkpt><trkpt lat="44.69910599288749" lon="11.810440087277312"><ele>2.0</ele><time>2026-03-29T14:53:55Z</time></trkpt><trkpt lat="44.699051122202114" lon="11.810563774071893"><ele>2.0</ele><time>2026-03-29T14:53:56Z</time></trkpt><trkpt lat="44.69900066478811" lon="11.810695220120882"><ele>2.0</ele><time>2026-03-29T14:53:57Z</time></trkpt><trkpt lat="44.69894508275343" lon="11.810842180826448"><ele>2.0</ele><time>2026-03-29T14:53:58Z</time></trkpt><trkpt lat="44.698885405954165" lon="11.810999704667312"><ele>1.5</ele><time>2026-03-29T14:53:59Z</time></trkpt><trkpt lat="44.69882112137012" lon="11.811170468298142"><ele>1.0</ele><time>2026-03-29T14:54:00Z</time></trkpt><trkpt lat="44.698760675116944" lon="11.81134476119177"><ele>0.5</ele><time>2026-03-29T14:54:01Z</time></trkpt><trkpt lat="44.69870348425872" lon="11.81150562496478"><ele>0.0</ele><time>2026-03-29T14:54:02Z</time></trkpt><trkpt lat="44.69864145750347" lon="11.81165673383988"><ele>0.2</ele><time>2026-03-29T14:54:03Z</time></trkpt><trkpt lat="44.69858062593661" lon="11.811805697257142"><ele>0.4</ele><time>2026-03-29T14:54:04Z</time></trkpt><trkpt lat="44.69852006181239" lon="11.811935283744655"><ele>0.6000000000000001</ele><time>2026-03-29T14:54:05Z</time></trkpt><trkpt lat="44.69845350888434" lon="11.812045545071763"><ele>0.8</ele><time>2026-03-29T14:54:06Z</time></trkpt><trkpt lat="44.698376738491994" lon="11.812135563869496"><ele>1.0</ele><time>2026-03-29T14:54:07Z</time></trkpt><trkpt lat="44.69829981689847" lon="11.812183947431796"><ele>1.0</ele><time>2026-03-29T14:54:08Z</time></trkpt><trkpt lat="44.69822439549739" lon="11.81219906444161"><ele>1.0</ele><time>2026-03-29T14:54:09Z</time></trkpt><trkpt lat="44.69813848666309" lon="11.812212481747222"><ele>1.0</ele><time>2026-03-29T14:54:10Z</time></trkpt><trkpt lat="44.69804117918725" lon="11.812217510691323"><ele>1.0</ele><time>2026-03-29T14:54:11Z</time></trkpt><trkpt lat="44.697937823017426" lon="11.812193375680442"><ele>1.0</ele><time>2026-03-29T14:54:12Z</time></trkpt><trkpt lat="44.697841400264245" lon="11.812133876598653"><ele>1.2000000000000002</ele><time>2026-03-29T14:54:13Z</time></trkpt><trkpt lat="44.6977316909623" lon="11.812097041517985"><ele>1.4000000000000001</ele><time>2026-03-29T14:54:14Z</time></trkpt><trkpt lat="44.697628688561295" lon="11.812044874250642"><ele>1.6</ele><time>2026-03-29T14:54:15Z</time></trkpt><trkpt lat="44.69753806403435" lon="11.812007255628863"><ele>1.8</ele><time>2026-03-29T14:54:16Z</time></trkpt><trkpt lat="44.69745605275383" lon="11.811971227187792"><ele>2.0</ele><time>2026-03-29T14:54:17Z</time></trkpt><trkpt lat="44.69737945685618" lon="11.811933573109929"><ele>2.0</ele><time>2026-03-29T14:54:18Z</time></trkpt><trkpt lat="44.69729839210747" lon="11.8118902247278"><ele>2.0</ele><time>2026-03-29T14:54:19Z</time></trkpt><trkpt lat="44.697203868292995" lon="11.811845987914646"><ele>2.0</ele><time>2026-03-29T14:54:20Z</time></trkpt><trkpt lat="44.697097784826624" lon="11.81179282045602"><ele>2.0</ele><time>2026-03-29T14:54:21Z</time></trkpt><trkpt lat="44.69699962775603" lon="11.811744658811042"><ele>2.0</ele><time>2026-03-29T14:54:22Z</time></trkpt><trkpt lat="44.69691394374169" lon="11.811708010385887"><ele>1.8</ele><time>2026-03-29T14:54:23Z</time></trkpt><trkpt lat="44.6968224697815" lon="11.811668877153108"><ele>1.6</ele><time>2026-03-29T14:54:24Z</time></trkpt><trkpt lat="44.69671691834906" lon="11.811632523069761"><ele>1.4000000000000001</ele><time>2026-03-29T14:54:25Z</time></trkpt><trkpt lat="44.696607050408055" lon="11.811577472159344"><ele>1.2000000000000002</ele><time>2026-03-29T14:54:26Z</time></trkpt><trkpt lat="44.696512484451034" lon="11.81146473910943"><ele>1.0</ele><time>2026-03-29T14:54:27Z</time></trkpt><trkpt lat="44.69638861725741" lon="11.811368371350545"><ele>1.0</ele><time>2026-03-29T14:54:28Z</time></trkpt><trkpt lat="44.69627693002613" lon="11.81124762846269"><ele>1.0</ele><time>2026-03-29T14:54:29Z</time></trkpt><trkpt lat="44.69617490911606" lon="11.811148831389612"><ele>1.0</ele><time>2026-03-29T14:54:30Z</time></trkpt><trkpt lat="44.69607839949532" lon="11.811062857657463"><ele>1.0</ele><time>2026-03-29T14:54:31Z</time></trkpt><trkpt lat="44.69598328887181" lon="11.810968516427828"><ele>1.25</ele><time>2026-03-29T14:54:32Z</time></trkpt><trkpt lat="44.69589092766777" lon="11.81087560496117"><ele>1.5</ele><time>2026-03-29T14:54:33Z</time></trkpt><trkpt lat="44.69579749873357" lon="11.810789928329296"><ele>1.75</ele><time>2026-03-29T14:54:34Z</time></trkpt><trkpt lat="44.6957011896298" lon="11.810704975720455"><ele>2.0</ele><time>2026-03-29T14:54:35Z</time></trkpt><trkpt lat="44.695603074504724" lon="11.81061562435846"><ele>2.0</ele><time>2026-03-29T14:54:36Z</time></trkpt><trkpt lat="44.69551194417393" lon="11.810530543678695"><ele>2.0</ele><time>2026-03-29T14:54:37Z</time></trkpt><trkpt lat="44.69543090316661" lon="11.810455102968936"><ele>2.0</ele><time>2026-03-29T14:54:38Z</time></trkpt><trkpt lat="44.69534313331818" lon="11.810379425276661"><ele>2.0</ele><time>2026-03-29T14:54:39Z</time></trkpt><trkpt lat="44.69525552441879" lon="11.810270245669486"><ele>2.0</ele><time>2026-03-29T14:54:40Z</time></trkpt><trkpt lat="44.695187575143244" lon="11.81013241173408"><ele>1.75</ele><time>2026-03-29T14:54:41Z</time></trkpt><trkpt lat="44.695144605854615" lon="11.809960395024536"><ele>1.5</ele><time>2026-03-29T14:54:42Z</time></trkpt><trkpt lat="44.6951184490258" lon="11.809769484466583"><ele>1.25</ele><time>2026-03-29T14:54:43Z</time></trkpt><trkpt lat="44.695104661180004" lon="11.809574976731952"><ele>1.0</ele><time>2026-03-29T14:54:44Z</time></trkpt><trkpt lat="44.69508742350821" lon="11.809383408829373"><ele>0.8</ele><time>2026-03-29T14:54:45Z</time></trkpt><trkpt lat="44.6950713991835" lon="11.809200501151993"><ele>0.6000000000000001</ele><time>2026-03-29T14:54:46Z</time></trkpt><trkpt lat="44.69505543002625" lon="11.809044410107399"><ele>0.4</ele><time>2026-03-29T14:54:47Z</time></trkpt><trkpt lat="44.69503905814738" lon="11.808898977807"><ele>0.2</ele><time>2026-03-29T14:54:48Z</time></trkpt><trkpt lat="44.695030037715576" lon="11.80879381409627"><ele>0.0</ele><time>2026-03-29T14:54:49Z</time></trkpt><trkpt lat="44.695029047787905" lon="11.80868154099506"><ele>0.0</ele><time>2026-03-29T14:54:51Z</time></trkpt><trkpt lat="44.69502182847484" lon="11.808587664928098"><ele>0.0</ele><time>2026-03-29T14:54:54Z</time></trkpt><trkpt lat="44.69501242122823" lon="11.808478407096539"><ele>0.0</ele><time>2026-03-29T14:54:57Z</time></trkpt><trkpt lat="44.69500012037523" lon="11.808339937393777"><ele>0.0</ele><time>2026-03-29T14:54:59Z</time></trkpt><trkpt lat="44.69499237316166" lon="11.808236468840795"><ele>0.0</ele><time>2026-03-29T14:55:00Z</time></trkpt><trkpt lat="44.69498364359735" lon="11.808117964168527"><ele>0.0</ele><time>2026-03-29T14:55:01Z</time></trkpt><trkpt lat="44.6949758070742" lon="11.807969300195296"><ele>0.0</ele><time>2026-03-29T14:55:02Z</time></trkpt><trkpt lat="44.694973909173115" lon="11.807828690743152"><ele>0.0</ele><time>2026-03-29T14:55:03Z</time></trkpt><trkpt lat="44.694972603585754" lon="11.807677085552047"><ele>0.0</ele><time>2026-03-29T14:55:04Z</time></trkpt><trkpt lat="44.69496765485266" lon="11.80751503197159"><ele>0.0</ele><time>2026-03-29T14:55:05Z</time></trkpt><trkpt lat="44.69496064658988" lon="11.807350729365774"><ele>0.0</ele><time>2026-03-29T14:55:06Z</time></trkpt><trkpt lat="44.694957388823255" lon="11.807190192791218"><ele>0.25</ele><time>2026-03-29T14:55:07Z</time></trkpt><trkpt lat="44.69495442121558" lon="11.807032398430218"><ele>0.5</ele><time>2026-03-29T14:55:08Z</time></trkpt><trkpt lat="44.69495925259242" lon="11.806847932648578"><ele>0.75</ele><time>2026-03-29T14:55:09Z</time></trkpt><trkpt lat="44.69497774778623" lon="11.80664654007194"><ele>1.0</ele><time>2026-03-29T14:55:10Z</time></trkpt><trkpt lat="44.69500208548588" lon="11.806472251629753"><ele>1.0</ele><time>2026-03-29T14:55:11Z</time></trkpt><trkpt lat="44.69502928949831" lon="11.806322841742668"><ele>1.0</ele><time>2026-03-29T14:55:12Z</time></trkpt><trkpt lat="44.69505676912263" lon="11.806193444489955"><ele>1.0</ele><time>2026-03-29T14:55:13Z</time></trkpt><trkpt lat="44.69508358916009" lon="11.806082167185451"><ele>1.0</ele><time>2026-03-29T14:55:14Z</time></trkpt><trkpt lat="44.69512281806947" lon="11.805969861604233"><ele>1.0</ele><time>2026-03-29T14:55:15Z</time></trkpt><trkpt lat="44.695171566600024" lon="11.805822935927273"><ele>1.25</ele><time>2026-03-29T14:55:16Z</time></trkpt><trkpt lat="44.695206099626525" lon="11.80564242126406"><ele>1.5</ele><time>2026-03-29T14:55:17Z</time></trkpt><trkpt lat="44.6952312455481" lon="11.805444996329552"><ele>1.75</ele><time>2026-03-29T14:55:18Z</time></trkpt><trkpt lat="44.69526765760772" lon="11.805257961220642"><ele>2.0</ele><time>2026-03-29T14:55:19Z</time></trkpt><trkpt lat="44.69532085414946" lon="11.805092462995372"><ele>1.6</ele><time>2026-03-29T14:55:20Z</time></trkpt><trkpt lat="44.69539347322001" lon="11.804954456606353"><ele>1.2000000000000002</ele><time>2026-03-29T14:55:21Z</time></trkpt><trkpt lat="44.69547053570542" lon="11.804846118488584"><ele>0.8</ele><time>2026-03-29T14:55:22Z</time></trkpt><trkpt lat="44.6955389449515" lon="11.804764429362601"><ele>0.4</ele><time>2026-03-29T14:55:23Z</time></trkpt><trkpt lat="44.69559866177201" lon="11.804682761507518"><ele>0.0</ele><time>2026-03-29T14:55:24Z</time></trkpt><trkpt lat="44.69564319021942" lon="11.804613651980707"><ele>0.0</ele><time>2026-03-29T14:55:25Z</time></trkpt><trkpt lat="44.69571274433134" lon="11.80451091958569"><ele>0.0</ele><time>2026-03-29T14:55:27Z</time></trkpt><trkpt lat="44.695776589564986" lon="11.804423186483577"><ele>0.0</ele><time>2026-03-29T14:55:29Z</time></trkpt><trkpt lat="44.69584875681602" lon="11.804314234141854"><ele>0.0</ele><time>2026-03-29T14:55:31Z</time></trkpt><trkpt lat="44.69591863249518" lon="11.80422925654072"><ele>0.0</ele><time>2026-03-29T14:55:33Z</time></trkpt><trkpt lat="44.69598977019337" lon="11.80417808342918"><ele>0.2</ele><time>2026-03-29T14:55:35Z</time></trkpt><trkpt lat="44.69607312054164" lon="11.804156858967215"><ele>0.4</ele><time>2026-03-29T14:55:37Z</time></trkpt><trkpt lat="44.69616527524028" lon="11.80414841777508"><ele>0.6000000000000001</ele><time>2026-03-29T14:55:39Z</time></trkpt><trkpt lat="44.69618521328217" lon="11.803996523506052"><ele>0.8</ele><time>2026-03-29T14:55:41.001Z</time></trkpt><trkpt lat="44.696133102405604" lon="11.80390843845616"><ele>1.0</ele><time>2026-03-29T14:55:42.001Z</time></trkpt><trkpt lat="44.696068655809675" lon="11.803822394929568"><ele>1.0</ele><time>2026-03-29T14:55:43.001Z</time></trkpt><trkpt lat="44.69602111198217" lon="11.803705166029337"><ele>1.0</ele><time>2026-03-29T14:55:44.001Z</time></trkpt><trkpt lat="44.695990379577545" lon="11.803574462145315"><ele>1.0</ele><time>2026-03-29T14:55:45.001Z</time></trkpt><trkpt lat="44.695972132957415" lon="11.803416109259803"><ele>1.0</ele><time>2026-03-29T14:55:46.001Z</time></trkpt><trkpt lat="44.695954306938226" lon="11.803238233501347"><ele>1.0</ele><time>2026-03-29T14:55:47.001Z</time></trkpt><trkpt lat="44.69593881328336" lon="11.803068351261405"><ele>1.0</ele><time>2026-03-29T14:55:48.001Z</time></trkpt><trkpt lat="44.69592534621811" lon="11.802920188337888"><ele>1.0</ele><time>2026-03-29T14:55:49.001Z</time></trkpt><trkpt lat="44.695898189309105" lon="11.802800806410158"><ele>1.0</ele><time>2026-03-29T14:55:50.001Z</time></trkpt><trkpt lat="44.69585165345015" lon="11.802677467772574"><ele>1.0</ele><time>2026-03-29T14:55:51.001Z</time></trkpt><trkpt lat="44.69577396333371" lon="11.80257528049796"><ele>1.0</ele><time>2026-03-29T14:55:52.001Z</time></trkpt><trkpt lat="44.69568961520751" lon="11.80250099396398"><ele>1.0</ele><time>2026-03-29T14:55:53.001Z</time></trkpt><trkpt lat="44.69559527033642" lon="11.802437132401455"><ele>1.0</ele><time>2026-03-29T14:55:54.001Z</time></trkpt><trkpt lat="44.69550480126838" lon="11.80235811871738"><ele>1.0</ele><time>2026-03-29T14:55:55.001Z</time></trkpt><trkpt lat="44.69540717679071" lon="11.802296448055818"><ele>1.0</ele><time>2026-03-29T14:55:56.001Z</time></trkpt><trkpt lat="44.69531093101466" lon="11.802235966248135"><ele>1.0</ele><time>2026-03-29T14:55:57.001Z</time></trkpt><trkpt lat="44.69522017473429" lon="11.802179675098765"><ele>1.0</ele><time>2026-03-29T14:55:58.001Z</time></trkpt><trkpt lat="44.69512146837657" lon="11.802118577139064"><ele>1.0</ele><time>2026-03-29T14:55:59.001Z</time></trkpt><trkpt lat="44.69502980850156" lon="11.802046570179808"><ele>1.0</ele><time>2026-03-29T14:56:00.001Z</time></trkpt><trkpt lat="44.694907759507345" lon="11.801995855064867"><ele>1.0</ele><time>2026-03-29T14:56:01.001Z</time></trkpt><trkpt lat="44.694805533488854" lon="11.801939082341345"><ele>1.0</ele><time>2026-03-29T14:56:02.001Z</time></trkpt><trkpt lat="44.69470451387465" lon="11.801875174986632"><ele>1.0</ele><time>2026-03-29T14:56:03.001Z</time></trkpt><trkpt lat="44.69460488967804" lon="11.801800228069387"><ele>1.0</ele><time>2026-03-29T14:56:04.001Z</time></trkpt><trkpt lat="44.694509482437674" lon="11.801725545055731"><ele>1.0</ele><time>2026-03-29T14:56:05.001Z</time></trkpt><trkpt lat="44.69442456098262" lon="11.801651181130413"><ele>1.0</ele><time>2026-03-29T14:56:06.001Z</time></trkpt><trkpt lat="44.69435820595621" lon="11.801576549694728"><ele>0.8571428571428571</ele><time>2026-03-29T14:56:07Z</time></trkpt><trkpt lat="44.69430935717947" lon="11.801492216234594"><ele>0.7142857142857142</ele><time>2026-03-29T14:56:08Z</time></trkpt><trkpt lat="44.69428103050187" lon="11.801405418584098"><ele>0.5714285714285714</ele><time>2026-03-29T14:56:09Z</time></trkpt><trkpt lat="44.694274263700954" lon="11.801315623468314"><ele>0.42857142857142855</ele><time>2026-03-29T14:56:10Z</time></trkpt><trkpt lat="44.69426817951125" lon="11.801219659866863"><ele>0.2857142857142857</ele><time>2026-03-29T14:56:11Z</time></trkpt><trkpt lat="44.69423928176614" lon="11.801138189550944"><ele>0.14285714285714285</ele><time>2026-03-29T14:56:12Z</time></trkpt><trkpt lat="44.69419376370895" lon="11.80106874159613"><ele>0.0</ele><time>2026-03-29T14:56:13Z</time></trkpt><trkpt lat="44.694099116777295" lon="11.8010643189425"><ele>0.0</ele><time>2026-03-29T14:56:14Z</time></trkpt><trkpt lat="44.693998188956435" lon="11.801051531847799"><ele>0.0</ele><time>2026-03-29T14:56:15Z</time></trkpt><trkpt lat="44.693893629580586" lon="11.801006012830586"><ele>0.0</ele><time>2026-03-29T14:56:16Z</time></trkpt><trkpt lat="44.69380830600824" lon="11.800908861344183"><ele>0.0</ele><time>2026-03-29T14:56:17Z</time></trkpt><trkpt lat="44.69370749881442" lon="11.800790483478595"><ele>0.25</ele><time>2026-03-29T14:56:18Z</time></trkpt><trkpt lat="44.69359684799178" lon="11.800687243148698"><ele>0.5</ele><time>2026-03-29T14:56:19Z</time></trkpt><trkpt lat="44.69350255961225" lon="11.800575081492385"><ele>0.75</ele><time>2026-03-29T14:56:20Z</time></trkpt><trkpt lat="44.69340538683324" lon="11.80045792927154"><ele>1.0</ele><time>2026-03-29T14:56:21Z</time></trkpt><trkpt lat="44.693301684954115" lon="11.800335222220209"><ele>0.75</ele><time>2026-03-29T14:56:22Z</time></trkpt><trkpt lat="44.693191125374824" lon="11.80019919644499"><ele>0.5</ele><time>2026-03-29T14:56:23Z</time></trkpt><trkpt lat="44.693085559959094" lon="11.800067094770007"><ele>0.25</ele><time>2026-03-29T14:56:24Z</time></trkpt><trkpt lat="44.69298147755864" lon="11.79994370546777"><ele>0.0</ele><time>2026-03-29T14:56:25Z</time></trkpt><trkpt lat="44.69287651677636" lon="11.799818301063741"><ele>0.0</ele><time>2026-03-29T14:56:26Z</time></trkpt><trkpt lat="44.69276361156126" lon="11.79968301263312"><ele>0.0</ele><time>2026-03-29T14:56:27Z</time></trkpt><trkpt lat="44.69267173604427" lon="11.799510752007162"><ele>0.0</ele><time>2026-03-29T14:56:28Z</time></trkpt><trkpt lat="44.69257891967911" lon="11.799342248367074"><ele>0.0</ele><time>2026-03-29T14:56:29Z</time></trkpt><trkpt lat="44.69249008633099" lon="11.799160125617158"><ele>0.0</ele><time>2026-03-29T14:56:30Z</time></trkpt><trkpt lat="44.69239485239901" lon="11.798973635531683"><ele>0.0</ele><time>2026-03-29T14:56:31Z</time></trkpt><trkpt lat="44.69231229182873" lon="11.798774152376426"><ele>0.0</ele><time>2026-03-29T14:56:32Z</time></trkpt><trkpt lat="44.692227375044034" lon="11.798570640321731"><ele>0.0</ele><time>2026-03-29T14:56:33Z</time></trkpt><trkpt lat="44.69214117464927" lon="11.798363001944512"><ele>0.0</ele><time>2026-03-29T14:56:34Z</time></trkpt><trkpt lat="44.692057567992244" lon="11.798160255050504"><ele>-0.3333333333333333</ele><time>2026-03-29T14:56:35Z</time></trkpt><trkpt lat="44.691976061120116" lon="11.797968748116913"><ele>-0.6666666666666666</ele><time>2026-03-29T14:56:36Z</time></trkpt><trkpt lat="44.69189780704007" lon="11.797778055872499"><ele>-1.0</ele><time>2026-03-29T14:56:37Z</time></trkpt><trkpt lat="44.69182460241409" lon="11.797599307312666"><ele>-0.3333333333333333</ele><time>2026-03-29T14:56:38Z</time></trkpt><trkpt lat="44.691753917086125" lon="11.797416562409971"><ele>0.3333333333333333</ele><time>2026-03-29T14:56:39Z</time></trkpt><trkpt lat="44.69167682168557" lon="11.797229209405788"><ele>1.0</ele><time>2026-03-29T14:56:40Z</time></trkpt><trkpt lat="44.69161514842137" lon="11.79703234092764"><ele>1.3333333333333333</ele><time>2026-03-29T14:56:41Z</time></trkpt><trkpt lat="44.69153594217931" lon="11.796833615893792"><ele>1.6666666666666665</ele><time>2026-03-29T14:56:42Z</time></trkpt><trkpt lat="44.69145386169945" lon="11.796625407918183"><ele>2.0</ele><time>2026-03-29T14:56:43Z</time></trkpt><trkpt lat="44.69136347716456" lon="11.796424142700227"><ele>2.0</ele><time>2026-03-29T14:56:44Z</time></trkpt><trkpt lat="44.691241595737836" lon="11.796239673022809"><ele>2.0</ele><time>2026-03-29T14:56:45Z</time></trkpt><trkpt lat="44.69111728835253" lon="11.796059035491794"><ele>2.0</ele><time>2026-03-29T14:56:46Z</time></trkpt><trkpt lat="44.690999892926946" lon="11.795870188641684"><ele>1.6666666666666665</ele><time>2026-03-29T14:56:47Z</time></trkpt><trkpt lat="44.69087453627534" lon="11.795700304521882"><ele>1.3333333333333333</ele><time>2026-03-29T14:56:48Z</time></trkpt><trkpt lat="44.69074909582489" lon="11.795533965781194"><ele>1.0</ele><time>2026-03-29T14:56:49Z</time></trkpt><trkpt lat="44.69061913900944" lon="11.795373209139234"><ele>1.0</ele><time>2026-03-29T14:56:50Z</time></trkpt><trkpt lat="44.69047885546777" lon="11.795225950374817"><ele>1.0</ele><time>2026-03-29T14:56:51Z</time></trkpt><trkpt lat="44.69033449825055" lon="11.7951048967868"><ele>1.0</ele><time>2026-03-29T14:56:52Z</time></trkpt><trkpt lat="44.69019333316925" lon="11.794992078130516"><ele>1.0</ele><time>2026-03-29T14:56:53Z</time></trkpt><trkpt lat="44.690059119050524" lon="11.794877043527089"><ele>1.0</ele><time>2026-03-29T14:56:54Z</time></trkpt><trkpt lat="44.689942646189145" lon="11.794756464832842"><ele>1.0</ele><time>2026-03-29T14:56:55Z</time></trkpt><trkpt lat="44.68983012011376" lon="11.79462083186163"><ele>1.0</ele><time>2026-03-29T14:56:56Z</time></trkpt><trkpt lat="44.68972411614078" lon="11.794466643818547"><ele>1.0</ele><time>2026-03-29T14:56:57Z</time></trkpt><trkpt lat="44.689612180937864" lon="11.794305117538327"><ele>1.0</ele><time>2026-03-29T14:56:58Z</time></trkpt><trkpt lat="44.689529238601715" lon="11.794110352426928"><ele>1.0</ele><time>2026-03-29T14:56:59Z</time></trkpt><trkpt lat="44.689448312131134" lon="11.793911328813971"><ele>1.0</ele><time>2026-03-29T14:57:00Z</time></trkpt><trkpt lat="44.689363551370214" lon="11.793706193571493"><ele>1.0</ele><time>2026-03-29T14:57:01Z</time></trkpt><trkpt lat="44.689288756653134" lon="11.793502078934882"><ele>1.6666666666666665</ele><time>2026-03-29T14:57:02Z</time></trkpt><trkpt lat="44.68921389880908" lon="11.793288795385774"><ele>2.3333333333333335</ele><time>2026-03-29T14:57:03Z</time></trkpt><trkpt lat="44.68914561028196" lon="11.793080840498366"><ele>3.0</ele><time>2026-03-29T14:57:04Z</time></trkpt><trkpt lat="44.68908626345206" lon="11.792884527942034"><ele>3.0</ele><time>2026-03-29T14:57:05Z</time></trkpt><trkpt lat="44.68903288936436" lon="11.792708433914427"><ele>3.0</ele><time>2026-03-29T14:57:06Z</time></trkpt><trkpt lat="44.68898028425099" lon="11.792542849576543"><ele>3.0</ele><time>2026-03-29T14:57:07Z</time></trkpt><trkpt lat="44.68893119083247" lon="11.792388318754941"><ele>3.0</ele><time>2026-03-29T14:57:08Z</time></trkpt><trkpt lat="44.68888647545395" lon="11.792247201504114"><ele>2.8</ele><time>2026-03-29T14:57:09Z</time></trkpt><trkpt lat="44.68883053751768" lon="11.792117951521158"><ele>2.5999999999999996</ele><time>2026-03-29T14:57:10Z</time></trkpt><trkpt lat="44.68879329779883" lon="11.791977647304284"><ele>2.4000000000000004</ele><time>2026-03-29T14:57:11Z</time></trkpt><trkpt lat="44.68875052895873" lon="11.79183303453812"><ele>2.2</ele><time>2026-03-29T14:57:12Z</time></trkpt><trkpt lat="44.68870340671212" lon="11.791693409348778"><ele>2.0</ele><time>2026-03-29T14:57:13Z</time></trkpt><trkpt lat="44.68865798676421" lon="11.79155218051105"><ele>1.8</ele><time>2026-03-29T14:57:14Z</time></trkpt><trkpt lat="44.68861302878004" lon="11.791411937562652"><ele>1.6</ele><time>2026-03-29T14:57:15Z</time></trkpt><trkpt lat="44.68857462726229" lon="11.791281035129051"><ele>1.4000000000000001</ele><time>2026-03-29T14:57:16Z</time></trkpt><trkpt lat="44.688528260946036" lon="11.791161330301618"><ele>1.2000000000000002</ele><time>2026-03-29T14:57:17Z</time></trkpt><trkpt lat="44.68846737050594" lon="11.791044567479217"><ele>1.0</ele><time>2026-03-29T14:57:18Z</time></trkpt><trkpt lat="44.68838816501896" lon="11.790954213450508"><ele>1.5</ele><time>2026-03-29T14:57:19Z</time></trkpt><trkpt lat="44.68828452823451" lon="11.790900747049127"><ele>2.0</ele><time>2026-03-29T14:57:20Z</time></trkpt><trkpt lat="44.68817308674316" lon="11.79088056473855"><ele>2.5</ele><time>2026-03-29T14:57:21Z</time></trkpt><trkpt lat="44.68805383554543" lon="11.790893079941501"><ele>3.0</ele><time>2026-03-29T14:57:22Z</time></trkpt><trkpt lat="44.687939149365086" lon="11.790938329227595"><ele>3.0</ele><time>2026-03-29T14:57:23Z</time></trkpt><trkpt lat="44.687835112771936" lon="11.79103767130603"><ele>3.0</ele><time>2026-03-29T14:57:24Z</time></trkpt><trkpt lat="44.687734166077725" lon="11.791141552313794"><ele>3.0</ele><time>2026-03-29T14:57:25Z</time></trkpt><trkpt lat="44.687628877900835" lon="11.791254536557068"><ele>3.0</ele><time>2026-03-29T14:57:26Z</time></trkpt><trkpt lat="44.687530117529406" lon="11.791368362165212"><ele>2.75</ele><time>2026-03-29T14:57:27Z</time></trkpt><trkpt lat="44.687435810924505" lon="11.79148156278299"><ele>2.5</ele><time>2026-03-29T14:57:28Z</time></trkpt><trkpt lat="44.68733485017745" lon="11.791587697163347"><ele>2.25</ele><time>2026-03-29T14:57:29Z</time></trkpt><trkpt lat="44.68724011350922" lon="11.791705647683559"><ele>2.0</ele><time>2026-03-29T14:57:30Z</time></trkpt><trkpt lat="44.687140800923515" lon="11.791820216573624"><ele>2.0</ele><time>2026-03-29T14:57:31Z</time></trkpt><trkpt lat="44.68703684186425" lon="11.791935054686265"><ele>2.0</ele><time>2026-03-29T14:57:32Z</time></trkpt><trkpt lat="44.686929157721224" lon="11.792060214153008"><ele>2.0</ele><time>2026-03-29T14:57:33Z</time></trkpt><trkpt lat="44.68682132607209" lon="11.792184336492566"><ele>2.0</ele><time>2026-03-29T14:57:34Z</time></trkpt><trkpt lat="44.68671458903611" lon="11.792313329693274"><ele>2.0</ele><time>2026-03-29T14:57:35Z</time></trkpt><trkpt lat="44.68660945261373" lon="11.79244871112816"><ele>2.0</ele><time>2026-03-29T14:57:36Z</time></trkpt><trkpt lat="44.686499185584935" lon="11.792577679108755"><ele>2.0</ele><time>2026-03-29T14:57:37Z</time></trkpt><trkpt lat="44.6863926675968" lon="11.792709677683671"><ele>2.0</ele><time>2026-03-29T14:57:38Z</time></trkpt><trkpt lat="44.68628906851925" lon="11.792854959717303"><ele>1.6666666666666665</ele><time>2026-03-29T14:57:39Z</time></trkpt><trkpt lat="44.686190692714646" lon="11.793036100504375"><ele>1.3333333333333333</ele><time>2026-03-29T14:57:40Z</time></trkpt><trkpt lat="44.68612406270066" lon="11.793239083890489"><ele>1.0</ele><time>2026-03-29T14:57:41Z</time></trkpt><trkpt lat="44.68606368413602" lon="11.79345181305919"><ele>0.5</ele><time>2026-03-29T14:57:42Z</time></trkpt><trkpt lat="44.685996609198426" lon="11.793652427420378"><ele>0.0</ele><time>2026-03-29T14:57:43Z</time></trkpt><trkpt lat="44.6859113499907" lon="11.793812680949737"><ele>-0.5</ele><time>2026-03-29T14:57:44.001Z</time></trkpt><trkpt lat="44.68584994093359" lon="11.79396826545088"><ele>-1.0</ele><time>2026-03-29T14:57:45.001Z</time></trkpt><trkpt lat="44.685774248989375" lon="11.794097277624923"><ele>-1.0</ele><time>2026-03-29T14:57:46.001Z</time></trkpt><trkpt lat="44.68570648139716" lon="11.794218312610274"><ele>-1.0</ele><time>2026-03-29T14:57:47.001Z</time></trkpt><trkpt lat="44.68563564148546" lon="11.794340741383424"><ele>-1.0</ele><time>2026-03-29T14:57:48.001Z</time></trkpt><trkpt lat="44.685560801762364" lon="11.794454928507843"><ele>-1.0</ele><time>2026-03-29T14:57:49.001Z</time></trkpt><trkpt lat="44.68547654443647" lon="11.79455450393654"><ele>-1.0</ele><time>2026-03-29T14:57:50.001Z</time></trkpt><trkpt lat="44.6853945890409" lon="11.794650476765195"><ele>-1.2000000000000002</ele><time>2026-03-29T14:57:51.001Z</time></trkpt><trkpt lat="44.685304005479566" lon="11.794742918740427"><ele>-1.4000000000000001</ele><time>2026-03-29T14:57:52.001Z</time></trkpt><trkpt lat="44.68520872986119" lon="11.794831775566745"><ele>-1.6</ele><time>2026-03-29T14:57:53.001Z</time></trkpt><trkpt lat="44.685114596289374" lon="11.794912965382025"><ele>-1.8</ele><time>2026-03-29T14:57:54.001Z</time></trkpt><trkpt lat="44.685017959967475" lon="11.794990174959931"><ele>-2.0</ele><time>2026-03-29T14:57:55.001Z</time></trkpt><trkpt lat="44.68492729573499" lon="11.795045481559864"><ele>-1.5</ele><time>2026-03-29T14:57:56.001Z</time></trkpt><trkpt lat="44.68482376845617" lon="11.795067327512074"><ele>-1.0</ele><time>2026-03-29T14:57:57.001Z</time></trkpt><trkpt lat="44.684715445085686" lon="11.795035039873063"><ele>-0.5</ele><time>2026-03-29T14:57:58.001Z</time></trkpt><trkpt lat="44.68460991666592" lon="11.794959265846954"><ele>0.0</ele><time>2026-03-29T14:57:59.001Z</time></trkpt><trkpt lat="44.68451717555309" lon="11.794843716732597"><ele>0.0</ele><time>2026-03-29T14:58:00.001Z</time></trkpt><trkpt lat="44.68442263201537" lon="11.794695596953238"><ele>0.0</ele><time>2026-03-29T14:58:01.001Z</time></trkpt><trkpt lat="44.68432586541147" lon="11.794569750200468"><ele>0.0</ele><time>2026-03-29T14:58:02.001Z</time></trkpt><trkpt lat="44.684211612222796" lon="11.794458458450881"><ele>0.0</ele><time>2026-03-29T14:58:03.001Z</time></trkpt><trkpt lat="44.68408275324367" lon="11.794359344930882"><ele>0.25</ele><time>2026-03-29T14:58:04.001Z</time></trkpt><trkpt lat="44.68393681928446" lon="11.794257403256632"><ele>0.5</ele><time>2026-03-29T14:58:05.001Z</time></trkpt><trkpt lat="44.683806947165834" lon="11.794168847047505"><ele>0.75</ele><time>2026-03-29T14:58:06.001Z</time></trkpt><trkpt lat="44.683692332348954" lon="11.794084302530042"><ele>1.0</ele><time>2026-03-29T14:58:07.001Z</time></trkpt><trkpt lat="44.68358987581631" lon="11.79400803942392"><ele>1.0</ele><time>2026-03-29T14:58:08.001Z</time></trkpt><trkpt lat="44.68348972370202" lon="11.793934886882319"><ele>1.0</ele><time>2026-03-29T14:58:09.001Z</time></trkpt><trkpt lat="44.68339098079122" lon="11.793858758440033"><ele>1.0</ele><time>2026-03-29T14:58:10.001Z</time></trkpt><trkpt lat="44.68329235007887" lon="11.793782225605804"><ele>1.0</ele><time>2026-03-29T14:58:11.001Z</time></trkpt><trkpt lat="44.6831946331019" lon="11.79370095184058"><ele>1.0</ele><time>2026-03-29T14:58:12.001Z</time></trkpt><trkpt lat="44.68310812430039" lon="11.793609194415087"><ele>1.0</ele><time>2026-03-29T14:58:13Z</time></trkpt><trkpt lat="44.68300733716427" lon="11.7935065681405"><ele>1.0</ele><time>2026-03-29T14:58:14Z</time></trkpt><trkpt lat="44.68289938613228" lon="11.793397333581268"><ele>1.0</ele><time>2026-03-29T14:58:15Z</time></trkpt><trkpt lat="44.682780790456874" lon="11.79326780672087"><ele>1.0</ele><time>2026-03-29T14:58:16Z</time></trkpt><trkpt lat="44.68264285820517" lon="11.793130121541346"><ele>1.0</ele><time>2026-03-29T14:58:17Z</time></trkpt><trkpt lat="44.682499906048896" lon="11.792998695553955"><ele>1.0</ele><time>2026-03-29T14:58:18Z</time></trkpt><trkpt lat="44.68236104483252" lon="11.792869933873446"><ele>1.0</ele><time>2026-03-29T14:58:19Z</time></trkpt><trkpt lat="44.68221222065202" lon="11.792737009588528"><ele>1.0</ele><time>2026-03-29T14:58:20Z</time></trkpt><trkpt lat="44.68205213527643" lon="11.792608247299457"><ele>1.0</ele><time>2026-03-29T14:58:21Z</time></trkpt><trkpt lat="44.681884576799604" lon="11.792479999104325"><ele>1.0</ele><time>2026-03-29T14:58:22Z</time></trkpt><trkpt lat="44.6817149127679" lon="11.79235147465721"><ele>1.0</ele><time>2026-03-29T14:58:23Z</time></trkpt><trkpt lat="44.68153332081278" lon="11.79222401199502"><ele>1.0</ele><time>2026-03-29T14:58:24Z</time></trkpt><trkpt lat="44.681356305824224" lon="11.792096502705817"><ele>1.0</ele><time>2026-03-29T14:58:25Z</time></trkpt><trkpt lat="44.68118936838393" lon="11.7919706112591"><ele>1.0</ele><time>2026-03-29T14:58:26Z</time></trkpt><trkpt lat="44.68103666761905" lon="11.791850148046697"><ele>1.0</ele><time>2026-03-29T14:58:27Z</time></trkpt><trkpt lat="44.68089029577853" lon="11.791741285820478"><ele>1.3333333333333333</ele><time>2026-03-29T14:58:28Z</time></trkpt><trkpt lat="44.68074156046269" lon="11.79163131998724"><ele>1.6666666666666665</ele><time>2026-03-29T14:58:29Z</time></trkpt><trkpt lat="44.680594431219724" lon="11.79152201769677"><ele>2.0</ele><time>2026-03-29T14:58:30Z</time></trkpt><trkpt lat="44.680445221862996" lon="11.791413492876844"><ele>2.0</ele><time>2026-03-29T14:58:31Z</time></trkpt><trkpt lat="44.680304858592486" lon="11.791286370574044"><ele>2.0</ele><time>2026-03-29T14:58:32Z</time></trkpt><trkpt lat="44.68015288692776" lon="11.79117723343326"><ele>2.0</ele><time>2026-03-29T14:58:33Z</time></trkpt><trkpt lat="44.67999388545228" lon="11.791089288140578"><ele>1.3333333333333333</ele><time>2026-03-29T14:58:34Z</time></trkpt><trkpt lat="44.67984191295992" lon="11.790985542784227"><ele>0.6666666666666666</ele><time>2026-03-29T14:58:35Z</time></trkpt><trkpt lat="44.6796820869624" lon="11.790893576982256"><ele>0.0</ele><time>2026-03-29T14:58:36Z</time></trkpt><trkpt lat="44.67952492402613" lon="11.79083221360158"><ele>0.0</ele><time>2026-03-29T14:58:37Z</time></trkpt><trkpt lat="44.679360992248995" lon="11.790780119785781"><ele>0.0</ele><time>2026-03-29T14:58:38Z</time></trkpt><trkpt lat="44.679203329439495" lon="11.790745166403664"><ele>0.0</ele><time>2026-03-29T14:58:39Z</time></trkpt><trkpt lat="44.679042864175486" lon="11.790720778606302"><ele>0.0</ele><time>2026-03-29T14:58:40Z</time></trkpt><trkpt lat="44.678883331220234" lon="11.790713186131835"><ele>0.0</ele><time>2026-03-29T14:58:41Z</time></trkpt><trkpt lat="44.678724592980316" lon="11.790718610173087"><ele>0.0</ele><time>2026-03-29T14:58:42Z</time></trkpt><trkpt lat="44.67856503310443" lon="11.790735152048512"><ele>0.0</ele><time>2026-03-29T14:58:43Z</time></trkpt><trkpt lat="44.67841499296212" lon="11.790762807091472"><ele>0.0</ele><time>2026-03-29T14:58:44Z</time></trkpt><trkpt lat="44.6782582870568" lon="11.790784555860354"><ele>0.0</ele><time>2026-03-29T14:58:45Z</time></trkpt><trkpt lat="44.67810883286813" lon="11.79082648691449"><ele>0.0</ele><time>2026-03-29T14:58:46Z</time></trkpt><trkpt lat="44.677948447508385" lon="11.79087258738217"><ele>0.0</ele><time>2026-03-29T14:58:47Z</time></trkpt><trkpt lat="44.67778368098779" lon="11.790916277942141"><ele>0.0</ele><time>2026-03-29T14:58:48Z</time></trkpt><trkpt lat="44.677621699421074" lon="11.790955275219158"><ele>-0.3333333333333333</ele><time>2026-03-29T14:58:49Z</time></trkpt><trkpt lat="44.677462463992626" lon="11.790984255581662"><ele>-0.6666666666666666</ele><time>2026-03-29T14:58:50Z</time></trkpt><trkpt lat="44.67730432959403" lon="11.79100629297807"><ele>-1.0</ele><time>2026-03-29T14:58:51Z</time></trkpt><trkpt lat="44.677140717552845" lon="11.791024472563347"><ele>-1.3333333333333333</ele><time>2026-03-29T14:58:52Z</time></trkpt><trkpt lat="44.6769766175105" lon="11.791031794835838"><ele>-1.6666666666666665</ele><time>2026-03-29T14:58:53Z</time></trkpt><trkpt lat="44.67680908285663" lon="11.791023181730678"><ele>-2.0</ele><time>2026-03-29T14:58:54Z</time></trkpt><trkpt lat="44.67664089243989" lon="11.791000595245515"><ele>-1.3333333333333333</ele><time>2026-03-29T14:58:55Z</time></trkpt><trkpt lat="44.67647233165644" lon="11.790971308262188"><ele>-0.6666666666666666</ele><time>2026-03-29T14:58:56Z</time></trkpt><trkpt lat="44.676307798456996" lon="11.79092735135313"><ele>0.0</ele><time>2026-03-29T14:58:57Z</time></trkpt><trkpt lat="44.67613880077567" lon="11.790878035479867"><ele>0.0</ele><time>2026-03-29T14:58:58Z</time></trkpt><trkpt lat="44.67597333444548" lon="11.790812734966556"><ele>0.0</ele><time>2026-03-29T14:58:59Z</time></trkpt><trkpt lat="44.67580919978882" lon="11.79073889028424"><ele>0.0</ele><time>2026-03-29T14:59:00Z</time></trkpt><trkpt lat="44.67564918607676" lon="11.790662107106733"><ele>0.0</ele><time>2026-03-29T14:59:01Z</time></trkpt><trkpt lat="44.675491540941344" lon="11.790579779274749"><ele>0.0</ele><time>2026-03-29T14:59:02Z</time></trkpt><trkpt lat="44.67534290796376" lon="11.790484528577595"><ele>0.0</ele><time>2026-03-29T14:59:03Z</time></trkpt><trkpt lat="44.675199550001494" lon="11.79037618322895"><ele>0.0</ele><time>2026-03-29T14:59:04Z</time></trkpt><trkpt lat="44.675052139146565" lon="11.79024689427565"><ele>0.0</ele><time>2026-03-29T14:59:05Z</time></trkpt><trkpt lat="44.67491961932355" lon="11.790111233143012"><ele>0.0</ele><time>2026-03-29T14:59:06Z</time></trkpt><trkpt lat="44.6747847876631" lon="11.7899672743315"><ele>0.3333333333333333</ele><time>2026-03-29T14:59:07Z</time></trkpt><trkpt lat="44.67464969933054" lon="11.789820933528325"><ele>0.6666666666666666</ele><time>2026-03-29T14:59:08Z</time></trkpt><trkpt lat="44.67451157566307" lon="11.789668967052148"><ele>1.0</ele><time>2026-03-29T14:59:09Z</time></trkpt><trkpt lat="44.67436600983044" lon="11.789512295422226"><ele>0.3333333333333333</ele><time>2026-03-29T14:59:10Z</time></trkpt><trkpt lat="44.67422765121179" lon="11.789360096079545"><ele>-0.3333333333333333</ele><time>2026-03-29T14:59:11Z</time></trkpt><trkpt lat="44.67409034479617" lon="11.789202677421317"><ele>-1.0</ele><time>2026-03-29T14:59:12Z</time></trkpt><trkpt lat="44.67394967017879" lon="11.78904241974684"><ele>-1.0</ele><time>2026-03-29T14:59:13Z</time></trkpt><trkpt lat="44.67381548624128" lon="11.78888342199888"><ele>-1.0</ele><time>2026-03-29T14:59:14Z</time></trkpt><trkpt lat="44.673675846202585" lon="11.788729070564989"><ele>-1.0</ele><time>2026-03-29T14:59:15Z</time></trkpt><trkpt lat="44.67353536742938" lon="11.788568835658404"><ele>-0.6666666666666666</ele><time>2026-03-29T14:59:16Z</time></trkpt><trkpt lat="44.67339160714362" lon="11.788413908525293"><ele>-0.3333333333333333</ele><time>2026-03-29T14:59:17Z</time></trkpt><trkpt lat="44.67324489675498" lon="11.788257264156865"><ele>0.0</ele><time>2026-03-29T14:59:18Z</time></trkpt><trkpt lat="44.673088125921865" lon="11.788108117461439"><ele>0.0</ele><time>2026-03-29T14:59:19Z</time></trkpt><trkpt lat="44.67292673133646" lon="11.787972277263231"><ele>0.0</ele><time>2026-03-29T14:59:20Z</time></trkpt><trkpt lat="44.672758134102125" lon="11.78784740979969"><ele>0.0</ele><time>2026-03-29T14:59:21Z</time></trkpt><trkpt lat="44.6725902401733" lon="11.787731869991203"><ele>-0.3333333333333333</ele><time>2026-03-29T14:59:22Z</time></trkpt><trkpt lat="44.67241556194591" lon="11.787619819051008"><ele>-0.6666666666666666</ele><time>2026-03-29T14:59:23Z</time></trkpt><trkpt lat="44.67224379831876" lon="11.787512993403386"><ele>-1.0</ele><time>2026-03-29T14:59:24Z</time></trkpt><trkpt lat="44.672070444137205" lon="11.78740353210007"><ele>-0.6666666666666666</ele><time>2026-03-29T14:59:25Z</time></trkpt><trkpt lat="44.6719027600197" lon="11.787281604127838"><ele>-0.3333333333333333</ele><time>2026-03-29T14:59:26Z</time></trkpt><trkpt lat="44.67173978343689" lon="11.787136913642081"><ele>0.0</ele><time>2026-03-29T14:59:27Z</time></trkpt><trkpt lat="44.67158932019685" lon="11.786973375899121"><ele>-0.3333333333333333</ele><time>2026-03-29T14:59:28Z</time></trkpt><trkpt lat="44.671439818625274" lon="11.786804005675211"><ele>-0.6666666666666666</ele><time>2026-03-29T14:59:29Z</time></trkpt><trkpt lat="44.67129546119836" lon="11.786629328852088"><ele>-1.0</ele><time>2026-03-29T14:59:30Z</time></trkpt><trkpt lat="44.67115181934159" lon="11.7864412618326"><ele>-1.0</ele><time>2026-03-29T14:59:31Z</time></trkpt><trkpt lat="44.67101797392012" lon="11.786240587899856"><ele>-1.0</ele><time>2026-03-29T14:59:32Z</time></trkpt><trkpt lat="44.67089333502027" lon="11.786036100197443"><ele>-1.0</ele><time>2026-03-29T14:59:33Z</time></trkpt><trkpt lat="44.67077935614018" lon="11.785822057553972"><ele>-1.0</ele><time>2026-03-29T14:59:34Z</time></trkpt><trkpt lat="44.670667953379834" lon="11.785601938538187"><ele>-1.0</ele><time>2026-03-29T14:59:35Z</time></trkpt><trkpt lat="44.670559862630604" lon="11.785386716231045"><ele>-1.0</ele><time>2026-03-29T14:59:36Z</time></trkpt><trkpt lat="44.670448353445046" lon="11.78516644108419"><ele>-0.6666666666666666</ele><time>2026-03-29T14:59:37Z</time></trkpt><trkpt lat="44.67033605118042" lon="11.784954692023858"><ele>-0.3333333333333333</ele><time>2026-03-29T14:59:38Z</time></trkpt><trkpt lat="44.67020670967075" lon="11.784759352939671"><ele>0.0</ele><time>2026-03-29T14:59:39Z</time></trkpt><trkpt lat="44.67006560827902" lon="11.784573648700912"><ele>-0.6666666666666666</ele><time>2026-03-29T14:59:40Z</time></trkpt><trkpt lat="44.66992433903347" lon="11.784400853561595"><ele>-1.3333333333333333</ele><time>2026-03-29T14:59:41Z</time></trkpt><trkpt lat="44.66977610079405" lon="11.784231008223962"><ele>-2.0</ele><time>2026-03-29T14:59:42Z</time></trkpt><trkpt lat="44.66961616355003" lon="11.784071413456289"><ele>-2.0</ele><time>2026-03-29T14:59:43Z</time></trkpt><trkpt lat="44.66944903823158" lon="11.7839228171741"><ele>-2.0</ele><time>2026-03-29T14:59:44Z</time></trkpt><trkpt lat="44.66927987382804" lon="11.783778285202782"><ele>-2.0</ele><time>2026-03-29T14:59:45Z</time></trkpt><trkpt lat="44.66910676959584" lon="11.783637045225051"><ele>-1.3333333333333333</ele><time>2026-03-29T14:59:46Z</time></trkpt><trkpt lat="44.6689316084216" lon="11.783491469739678"><ele>-0.6666666666666666</ele><time>2026-03-29T14:59:47Z</time></trkpt><trkpt lat="44.668758256649504" lon="11.783346464306513"><ele>0.0</ele><time>2026-03-29T14:59:48.001Z</time></trkpt><trkpt lat="44.668584683582885" lon="11.783197052583548"><ele>0.0</ele><time>2026-03-29T14:59:49.001Z</time></trkpt><trkpt lat="44.66842579150324" lon="11.78304373510792"><ele>0.0</ele><time>2026-03-29T14:59:50.001Z</time></trkpt><trkpt lat="44.66828088152111" lon="11.78288337922188"><ele>0.0</ele><time>2026-03-29T14:59:51.001Z</time></trkpt><trkpt lat="44.66814682240088" lon="11.78271641892405"><ele>0.0</ele><time>2026-03-29T14:59:52.001Z</time></trkpt><trkpt lat="44.668018151629234" lon="11.782532997331254"><ele>0.0</ele><time>2026-03-29T14:59:53.001Z</time></trkpt><trkpt lat="44.66788956234293" lon="11.782342364386876"><ele>0.0</ele><time>2026-03-29T14:59:54.001Z</time></trkpt><trkpt lat="44.667770840901525" lon="11.782142344827133"><ele>-0.3333333333333333</ele><time>2026-03-29T14:59:55.001Z</time></trkpt><trkpt lat="44.66765605226059" lon="11.781934487003099"><ele>-0.6666666666666666</ele><time>2026-03-29T14:59:56.001Z</time></trkpt><trkpt lat="44.667546221387404" lon="11.781717632517871"><ele>-1.0</ele><time>2026-03-29T14:59:57.001Z</time></trkpt><trkpt lat="44.6674445107684" lon="11.781501164595525"><ele>-1.0</ele><time>2026-03-29T14:59:58.001Z</time></trkpt><trkpt lat="44.66734366935468" lon="11.781280750535903"><ele>-1.0</ele><time>2026-03-29T14:59:59.001Z</time></trkpt><trkpt lat="44.667240501270946" lon="11.781065482652506"><ele>-1.0</ele><time>2026-03-29T15:00:00.001Z</time></trkpt><trkpt lat="44.667132868356816" lon="11.780839400204567"><ele>-1.0</ele><time>2026-03-29T15:00:01.001Z</time></trkpt><trkpt lat="44.66703169708922" lon="11.780611576901958"><ele>-1.0</ele><time>2026-03-29T15:00:02.001Z</time></trkpt><trkpt lat="44.66692966921223" lon="11.780380973978142"><ele>-1.0</ele><time>2026-03-29T15:00:03.001Z</time></trkpt><trkpt lat="44.666823957139364" lon="11.780157393734065"><ele>-1.0</ele><time>2026-03-29T15:00:04.001Z</time></trkpt><trkpt lat="44.66671678950674" lon="11.779939076532369"><ele>-1.0</ele><time>2026-03-29T15:00:05.001Z</time></trkpt><trkpt lat="44.66659549921745" lon="11.779732896362978"><ele>-1.0</ele><time>2026-03-29T15:00:06.001Z</time></trkpt><trkpt lat="44.66645959153574" lon="11.77954083910859"><ele>-1.0</ele><time>2026-03-29T15:00:07.001Z</time></trkpt><trkpt lat="44.66632028000327" lon="11.779354529196915"><ele>-1.0</ele><time>2026-03-29T15:00:08.001Z</time></trkpt><trkpt lat="44.666175198569036" lon="11.779183323285455"><ele>-1.0</ele><time>2026-03-29T15:00:09.001Z</time></trkpt><trkpt lat="44.66602197105872" lon="11.779030334790024"><ele>-0.3333333333333333</ele><time>2026-03-29T15:00:10.001Z</time></trkpt><trkpt lat="44.665864340513586" lon="11.778891609915185"><ele>0.3333333333333333</ele><time>2026-03-29T15:00:11.001Z</time></trkpt><trkpt lat="44.66570168145635" lon="11.77876390866364"><ele>1.0</ele><time>2026-03-29T15:00:12.001Z</time></trkpt><trkpt lat="44.665541967620705" lon="11.77865291231761"><ele>1.0</ele><time>2026-03-29T15:00:13.001Z</time></trkpt><trkpt lat="44.66539134199416" lon="11.778554373957716"><ele>1.0</ele><time>2026-03-29T15:00:14.001Z</time></trkpt><trkpt lat="44.665246397175125" lon="11.778459742612673"><ele>1.0</ele><time>2026-03-29T15:00:15.001Z</time></trkpt><trkpt lat="44.66511062579704" lon="11.778372421916023"><ele>1.0</ele><time>2026-03-29T15:00:16.001Z</time></trkpt><trkpt lat="44.66498271321511" lon="11.778289452939875"><ele>1.0</ele><time>2026-03-29T15:00:17.001Z</time></trkpt><trkpt lat="44.66486682797247" lon="11.778213578709977"><ele>1.0</ele><time>2026-03-29T15:00:18.001Z</time></trkpt><trkpt lat="44.66475840087674" lon="11.77814162487696"><ele>1.0</ele><time>2026-03-29T15:00:19Z</time></trkpt><trkpt lat="44.664669580361576" lon="11.778079671976972"><ele>1.0</ele><time>2026-03-29T15:00:20Z</time></trkpt><trkpt lat="44.664584249089685" lon="11.778017461843257"><ele>1.0</ele><time>2026-03-29T15:00:21Z</time></trkpt><trkpt lat="44.664507583706374" lon="11.777963467701264"><ele>1.0</ele><time>2026-03-29T15:00:22Z</time></trkpt><trkpt lat="44.66442126788015" lon="11.777912221663241"><ele>1.0</ele><time>2026-03-29T15:00:23Z</time></trkpt><trkpt lat="44.66431999870689" lon="11.777858885618684"><ele>1.0</ele><time>2026-03-29T15:00:24Z</time></trkpt><trkpt lat="44.664209074953234" lon="11.777790062788412"><ele>0.75</ele><time>2026-03-29T15:00:25Z</time></trkpt><trkpt lat="44.66408048388449" lon="11.777701811273916"><ele>0.5</ele><time>2026-03-29T15:00:26Z</time></trkpt><trkpt lat="44.66394673855566" lon="11.77761169642595"><ele>0.25</ele><time>2026-03-29T15:00:27Z</time></trkpt><trkpt lat="44.66381370287287" lon="11.77753643805231"><ele>0.0</ele><time>2026-03-29T15:00:28Z</time></trkpt><trkpt lat="44.663658006981" lon="11.777465760432575"><ele>0.3333333333333333</ele><time>2026-03-29T15:00:29Z</time></trkpt><trkpt lat="44.66348713205266" lon="11.777403493563833"><ele>0.6666666666666666</ele><time>2026-03-29T15:00:30Z</time></trkpt><trkpt lat="44.66330095214675" lon="11.77736150844165"><ele>1.0</ele><time>2026-03-29T15:00:31Z</time></trkpt><trkpt lat="44.663110206408966" lon="11.777331294063277"><ele>1.0</ele><time>2026-03-29T15:00:32Z</time></trkpt><trkpt lat="44.66291708149173" lon="11.777309753222964"><ele>1.0</ele><time>2026-03-29T15:00:33Z</time></trkpt><trkpt lat="44.66271815783824" lon="11.77729081968222"><ele>1.0</ele><time>2026-03-29T15:00:34Z</time></trkpt><trkpt lat="44.66250898333663" lon="11.777284532773063"><ele>1.0</ele><time>2026-03-29T15:00:35Z</time></trkpt><trkpt lat="44.66230529139993" lon="11.77728075444013"><ele>1.0</ele><time>2026-03-29T15:00:36Z</time></trkpt><trkpt lat="44.662122240126266" lon="11.777271299988994"><ele>1.0</ele><time>2026-03-29T15:00:37Z</time></trkpt><trkpt lat="44.6619425181779" lon="11.777270835672317"><ele>1.0</ele><time>2026-03-29T15:00:38Z</time></trkpt><trkpt lat="44.661769832565426" lon="11.777279664784539"><ele>1.0</ele><time>2026-03-29T15:00:39Z</time></trkpt><trkpt lat="44.66160445984429" lon="11.77727029105618"><ele>1.0</ele><time>2026-03-29T15:00:40Z</time></trkpt><trkpt lat="44.66144520883193" lon="11.777267095328847"><ele>1.0</ele><time>2026-03-29T15:00:41Z</time></trkpt><trkpt lat="44.66128212719038" lon="11.777266210956729"><ele>1.0</ele><time>2026-03-29T15:00:42Z</time></trkpt><trkpt lat="44.66111588556845" lon="11.777268000285456"><ele>1.0</ele><time>2026-03-29T15:00:43Z</time></trkpt><trkpt lat="44.66094410495676" lon="11.777264005202097"><ele>1.3333333333333333</ele><time>2026-03-29T15:00:44Z</time></trkpt><trkpt lat="44.6607689665383" lon="11.777260381409704"><ele>1.6666666666666665</ele><time>2026-03-29T15:00:45Z</time></trkpt><trkpt lat="44.66059929272275" lon="11.777258872466923"><ele>2.0</ele><time>2026-03-29T15:00:46Z</time></trkpt><trkpt lat="44.6604313737369" lon="11.7772622772631"><ele>2.0</ele><time>2026-03-29T15:00:47Z</time></trkpt><trkpt lat="44.660273593627096" lon="11.777258719034563"><ele>2.0</ele><time>2026-03-29T15:00:48Z</time></trkpt><trkpt lat="44.660123838230994" lon="11.777256907357001"><ele>2.0</ele><time>2026-03-29T15:00:49Z</time></trkpt><trkpt lat="44.65997105425438" lon="11.777257011230045"><ele>2.0</ele><time>2026-03-29T15:00:50Z</time></trkpt><trkpt lat="44.65981242283813" lon="11.777268854643609"><ele>2.0</ele><time>2026-03-29T15:00:51Z</time></trkpt><trkpt lat="44.659666668160355" lon="11.77728913715947"><ele>2.0</ele><time>2026-03-29T15:00:52Z</time></trkpt><trkpt lat="44.659531262410404" lon="11.777316751707295"><ele>2.0</ele><time>2026-03-29T15:00:53Z</time></trkpt><trkpt lat="44.65940866491457" lon="11.777344451295669"><ele>2.25</ele><time>2026-03-29T15:00:54Z</time></trkpt><trkpt lat="44.659292329992084" lon="11.777376086282977"><ele>2.5</ele><time>2026-03-29T15:00:55Z</time></trkpt><trkpt lat="44.65917713776398" lon="11.77740518471519"><ele>2.75</ele><time>2026-03-29T15:00:56Z</time></trkpt><trkpt lat="44.659065222502925" lon="11.777437324612153"><ele>3.0</ele><time>2026-03-29T15:00:57Z</time></trkpt><trkpt lat="44.65895239263538" lon="11.77747853547395"><ele>3.0</ele><time>2026-03-29T15:00:58Z</time></trkpt><trkpt lat="44.65885222478258" lon="11.777527411825202"><ele>3.0</ele><time>2026-03-29T15:00:59Z</time></trkpt><trkpt lat="44.65875578090815" lon="11.777580169411358"><ele>3.0</ele><time>2026-03-29T15:01:00Z</time></trkpt><trkpt lat="44.658670122937956" lon="11.77763923494708"><ele>3.0</ele><time>2026-03-29T15:01:01Z</time></trkpt><trkpt lat="44.65858866610398" lon="11.777683159812208"><ele>3.0</ele><time>2026-03-29T15:01:02Z</time></trkpt><trkpt lat="44.658500335598355" lon="11.77770415614022"><ele>2.8</ele><time>2026-03-29T15:01:03Z</time></trkpt><trkpt lat="44.65839792564417" lon="11.777687674572475"><ele>2.5999999999999996</ele><time>2026-03-29T15:01:04Z</time></trkpt><trkpt lat="44.65829116647551" lon="11.777641128676152"><ele>2.4000000000000004</ele><time>2026-03-29T15:01:05Z</time></trkpt><trkpt lat="44.658179486543816" lon="11.777632269492097"><ele>2.2</ele><time>2026-03-29T15:01:06Z</time></trkpt><trkpt lat="44.6580748794236" lon="11.777653025517493"><ele>2.0</ele><time>2026-03-29T15:01:07Z</time></trkpt><trkpt lat="44.65796489172978" lon="11.777436368263432"><ele>2.0</ele><time>2026-03-29T15:01:08Z</time></trkpt><trkpt lat="44.65789701750004" lon="11.777303593087781"><ele>2.0</ele><time>2026-03-29T15:01:09Z</time></trkpt><trkpt lat="44.6578187647973" lon="11.777168377249394"><ele>2.0</ele><time>2026-03-29T15:01:10Z</time></trkpt><trkpt lat="44.65774086008262" lon="11.77703483601799"><ele>2.0</ele><time>2026-03-29T15:01:11Z</time></trkpt><trkpt lat="44.657649661396675" lon="11.776897669709367"><ele>1.75</ele><time>2026-03-29T15:01:12Z</time></trkpt><trkpt lat="44.65755360009744" lon="11.776747271767467"><ele>1.5</ele><time>2026-03-29T15:01:13Z</time></trkpt><trkpt lat="44.65745234521223" lon="11.776588742546492"><ele>1.25</ele><time>2026-03-29T15:01:14Z</time></trkpt><trkpt lat="44.657360188901784" lon="11.776444458418304"><ele>1.0</ele><time>2026-03-29T15:01:15Z</time></trkpt><trkpt lat="44.65727428122206" lon="11.77630995742798"><ele>1.0</ele><time>2026-03-29T15:01:16Z</time></trkpt><trkpt lat="44.65718761629996" lon="11.776174271123908"><ele>1.0</ele><time>2026-03-29T15:01:17Z</time></trkpt><trkpt lat="44.6571067268964" lon="11.77604762696948"><ele>1.0</ele><time>2026-03-29T15:01:18Z</time></trkpt><trkpt lat="44.657034522632266" lon="11.775934578146533"><ele>1.0</ele><time>2026-03-29T15:01:19Z</time></trkpt><trkpt lat="44.656967193173145" lon="11.775828599627802"><ele>1.2000000000000002</ele><time>2026-03-29T15:01:20Z</time></trkpt><trkpt lat="44.65690240148465" lon="11.775726733739855"><ele>1.4000000000000001</ele><time>2026-03-29T15:01:21Z</time></trkpt><trkpt lat="44.656834114837864" lon="11.7756193720205"><ele>1.6</ele><time>2026-03-29T15:01:22Z</time></trkpt><trkpt lat="44.65675996854809" lon="11.775502797485162"><ele>1.8</ele><time>2026-03-29T15:01:23Z</time></trkpt><trkpt lat="44.656681859943454" lon="11.775379979671222"><ele>2.0</ele><time>2026-03-29T15:01:24Z</time></trkpt><trkpt lat="44.656598356742876" lon="11.77524867879653"><ele>2.0</ele><time>2026-03-29T15:01:25Z</time></trkpt><trkpt lat="44.656520953908206" lon="11.7751269710476"><ele>2.0</ele><time>2026-03-29T15:01:26Z</time></trkpt><trkpt lat="44.65645135765765" lon="11.775017537893508"><ele>2.0</ele><time>2026-03-29T15:01:27Z</time></trkpt><trkpt lat="44.65637580119061" lon="11.774932748235075"><ele>2.0</ele><time>2026-03-29T15:01:28Z</time></trkpt><trkpt lat="44.65632434920329" lon="11.774832181611151"><ele>2.0</ele><time>2026-03-29T15:01:29Z</time></trkpt><trkpt lat="44.6562681345297" lon="11.774753946031222"><ele>2.0</ele><time>2026-03-29T15:01:30Z</time></trkpt><trkpt lat="44.65621524631798" lon="11.77467222879196"><ele>2.0</ele><time>2026-03-29T15:01:31Z</time></trkpt><trkpt lat="44.65616175960671" lon="11.774585991693478"><ele>2.0</ele><time>2026-03-29T15:01:32Z</time></trkpt><trkpt lat="44.65609061272535" lon="11.774483886107964"><ele>2.0</ele><time>2026-03-29T15:01:33Z</time></trkpt><trkpt lat="44.656020104508535" lon="11.774363142834584"><ele>2.0</ele><time>2026-03-29T15:01:34Z</time></trkpt><trkpt lat="44.655947934885646" lon="11.77424918909604"><ele>2.25</ele><time>2026-03-29T15:01:35Z</time></trkpt><trkpt lat="44.655873113174344" lon="11.774127495406697"><ele>2.5</ele><time>2026-03-29T15:01:36Z</time></trkpt><trkpt lat="44.65579630986541" lon="11.774005459373697"><ele>2.75</ele><time>2026-03-29T15:01:37Z</time></trkpt><trkpt lat="44.6557204105718" lon="11.77388603725885"><ele>3.0</ele><time>2026-03-29T15:01:38Z</time></trkpt><trkpt lat="44.65564135733097" lon="11.773769704397914"><ele>3.0</ele><time>2026-03-29T15:01:39Z</time></trkpt><trkpt lat="44.655570318843964" lon="11.77364199503953"><ele>3.0</ele><time>2026-03-29T15:01:40Z</time></trkpt><trkpt lat="44.655459472218034" lon="11.773572136582917"><ele>3.0</ele><time>2026-03-29T15:01:41Z</time></trkpt><trkpt lat="44.65534027278563" lon="11.773514278217839"><ele>3.0</ele><time>2026-03-29T15:01:42.001Z</time></trkpt><trkpt lat="44.65522286646365" lon="11.773432075376586"><ele>3.25</ele><time>2026-03-29T15:01:43.001Z</time></trkpt><trkpt lat="44.65510178808607" lon="11.773370229048"><ele>3.5</ele><time>2026-03-29T15:01:44.001Z</time></trkpt><trkpt lat="44.65498282838407" lon="11.7733091975351"><ele>3.75</ele><time>2026-03-29T15:01:45.001Z</time></trkpt><trkpt lat="44.65486395134686" lon="11.773244986811456"><ele>4.0</ele><time>2026-03-29T15:01:46.001Z</time></trkpt><trkpt lat="44.65475574476874" lon="11.773186235871153"><ele>4.0</ele><time>2026-03-29T15:01:47.001Z</time></trkpt><trkpt lat="44.65466197468422" lon="11.773135323269123"><ele>4.0</ele><time>2026-03-29T15:01:48.001Z</time></trkpt><trkpt lat="44.654579696860395" lon="11.773090650415623"><ele>4.0</ele><time>2026-03-29T15:01:49.001Z</time></trkpt><trkpt lat="44.65450231063828" lon="11.773048633463581"><ele>4.0</ele><time>2026-03-29T15:01:50.001Z</time></trkpt><trkpt lat="44.654419655203405" lon="11.773003755569867"><ele>4.0</ele><time>2026-03-29T15:01:51.001Z</time></trkpt><trkpt lat="44.65432662220576" lon="11.772953243180654"><ele>4.166666666666666</ele><time>2026-03-29T15:01:52.001Z</time></trkpt><trkpt lat="44.6542320330518" lon="11.772901885864616"><ele>4.333333333333333</ele><time>2026-03-29T15:01:53.001Z</time></trkpt><trkpt lat="44.654151981069255" lon="11.772858421703392"><ele>4.5</ele><time>2026-03-29T15:01:54.001Z</time></trkpt><trkpt lat="44.65408237614258" lon="11.772820845794072"><ele>4.666666666666667</ele><time>2026-03-29T15:01:55.001Z</time></trkpt><trkpt lat="44.65401559796571" lon="11.77278473105232"><ele>4.833333333333334</ele><time>2026-03-29T15:01:56.001Z</time></trkpt><trkpt lat="44.65395421761259" lon="11.772751535658251"><ele>5.0</ele><time>2026-03-29T15:01:57.001Z</time></trkpt><trkpt lat="44.653855911618855" lon="11.772698934010194"><ele>5.0</ele><time>2026-03-29T15:01:59.001Z</time></trkpt><trkpt lat="44.653785542737836" lon="11.772675197902805"><ele>5.0</ele><time>2026-03-29T15:02:01.001Z</time></trkpt><trkpt lat="44.65370952550888" lon="11.772627517168196"><ele>5.0</ele><time>2026-03-29T15:02:30Z</time></trkpt><trkpt lat="44.65361716754037" lon="11.772586952745483"><ele>5.0</ele><time>2026-03-29T15:02:32Z</time></trkpt><trkpt lat="44.65351849298439" lon="11.772538584690711"><ele>5.0</ele><time>2026-03-29T15:02:34Z</time></trkpt><trkpt lat="44.65345639748967" lon="11.772508398940701"><ele>5.0</ele><time>2026-03-29T15:02:36Z</time></trkpt><trkpt lat="44.65341514584619" lon="11.772433086966165"><ele>5.4</ele><time>2026-03-29T15:02:39Z</time></trkpt><trkpt lat="44.65345332295548" lon="11.772280273608025"><ele>5.8</ele><time>2026-03-29T15:02:41Z</time></trkpt><trkpt lat="44.653457682014796" lon="11.772179036730785"><ele>6.199999999999999</ele><time>2026-03-29T15:02:42Z</time></trkpt><trkpt lat="44.65347199122026" lon="11.772071131551915"><ele>6.6</ele><time>2026-03-29T15:02:43Z</time></trkpt><trkpt lat="44.65348691022435" lon="11.771936669847264"><ele>7.0</ele><time>2026-03-29T15:02:44Z</time></trkpt><trkpt lat="44.653507221415445" lon="11.771812085307369"><ele>7.0</ele><time>2026-03-29T15:02:45Z</time></trkpt><trkpt lat="44.6535296069447" lon="11.771686373341053"><ele>6.999999999999999</ele><time>2026-03-29T15:02:46Z</time></trkpt><trkpt lat="44.65355076903155" lon="11.771537181556333"><ele>6.999999999999999</ele><time>2026-03-29T15:02:47Z</time></trkpt><trkpt lat="44.653595693321904" lon="11.771365131025911"><ele>7.0</ele><time>2026-03-29T15:02:48Z</time></trkpt><trkpt lat="44.6536169576992" lon="11.771211619353865"><ele>7.0</ele><time>2026-03-29T15:02:49Z</time></trkpt><trkpt lat="44.65364220105869" lon="11.771048122465011"><ele>6.25</ele><time>2026-03-29T15:02:50Z</time></trkpt><trkpt lat="44.653664281159045" lon="11.770877391977704"><ele>5.5</ele><time>2026-03-29T15:02:51Z</time></trkpt><trkpt lat="44.65369144065592" lon="11.770713204910077"><ele>4.75</ele><time>2026-03-29T15:02:52Z</time></trkpt><trkpt lat="44.65373056522403" lon="11.770550258872785"><ele>4.0</ele><time>2026-03-29T15:02:53Z</time></trkpt><trkpt lat="44.65375288237805" lon="11.770378824459963"><ele>4.0</ele><time>2026-03-29T15:02:54Z</time></trkpt><trkpt lat="44.653778720705695" lon="11.770205343265529"><ele>4.0</ele><time>2026-03-29T15:02:55Z</time></trkpt><trkpt lat="44.65379689479429" lon="11.770027204480737"><ele>4.0</ele><time>2026-03-29T15:02:56Z</time></trkpt><trkpt lat="44.6538334476482" lon="11.769858008026207"><ele>4.0</ele><time>2026-03-29T15:02:57Z</time></trkpt><trkpt lat="44.65388526011199" lon="11.769684453862624"><ele>4.0</ele><time>2026-03-29T15:02:58Z</time></trkpt><trkpt lat="44.65395090426309" lon="11.769504862618584"><ele>4.0</ele><time>2026-03-29T15:02:59Z</time></trkpt><trkpt lat="44.65401571038335" lon="11.769328356642818"><ele>4.0</ele><time>2026-03-29T15:03:00Z</time></trkpt><trkpt lat="44.65407837626402" lon="11.76915343102564"><ele>4.0</ele><time>2026-03-29T15:03:01Z</time></trkpt><trkpt lat="44.654146087711844" lon="11.768963551774412"><ele>4.0</ele><time>2026-03-29T15:03:02Z</time></trkpt><trkpt lat="44.65421539822304" lon="11.768775670468761"><ele>4.0</ele><time>2026-03-29T15:03:03Z</time></trkpt><trkpt lat="44.65428250369736" lon="11.768579040959667"><ele>4.0</ele><time>2026-03-29T15:03:04Z</time></trkpt><trkpt lat="44.65434905855525" lon="11.768376024827539"><ele>4.0</ele><time>2026-03-29T15:03:05Z</time></trkpt><trkpt lat="44.65442297632271" lon="11.768173756696646"><ele>4.0</ele><time>2026-03-29T15:03:06Z</time></trkpt><trkpt lat="44.65450327577512" lon="11.767973301215028"><ele>4.0</ele><time>2026-03-29T15:03:07Z</time></trkpt><trkpt lat="44.654597838200644" lon="11.767789102011017"><ele>3.333333333333333</ele><time>2026-03-29T15:03:08Z</time></trkpt><trkpt lat="44.65471203099768" lon="11.767613451176558"><ele>2.6666666666666665</ele><time>2026-03-29T15:03:09Z</time></trkpt><trkpt lat="44.654832213117146" lon="11.767457424960275"><ele>2.0</ele><time>2026-03-29T15:03:10Z</time></trkpt><trkpt lat="44.65495886172702" lon="11.767306632351762"><ele>2.0</ele><time>2026-03-29T15:03:11Z</time></trkpt><trkpt lat="44.65509477175625" lon="11.767165308677457"><ele>2.0</ele><time>2026-03-29T15:03:12Z</time></trkpt><trkpt lat="44.6552285325667" lon="11.767010979506303"><ele>2.0</ele><time>2026-03-29T15:03:13Z</time></trkpt><trkpt lat="44.65536529596157" lon="11.766855204011144"><ele>1.3333333333333333</ele><time>2026-03-29T15:03:14Z</time></trkpt><trkpt lat="44.655499390878276" lon="11.766705213489173"><ele>0.6666666666666666</ele><time>2026-03-29T15:03:15Z</time></trkpt><trkpt lat="44.65562360052785" lon="11.766558017350595"><ele>0.0</ele><time>2026-03-29T15:03:16Z</time></trkpt><trkpt lat="44.6557477426301" lon="11.76640923642209"><ele>0.0</ele><time>2026-03-29T15:03:17Z</time></trkpt><trkpt lat="44.65587505939368" lon="11.766252349568983"><ele>0.0</ele><time>2026-03-29T15:03:18Z</time></trkpt><trkpt lat="44.65600081019393" lon="11.766080097782964"><ele>0.0</ele><time>2026-03-29T15:03:19Z</time></trkpt><trkpt lat="44.65612476552747" lon="11.765895865823074"><ele>0.3333333333333333</ele><time>2026-03-29T15:03:20Z</time></trkpt><trkpt lat="44.65625073493416" lon="11.765715415409321"><ele>0.6666666666666666</ele><time>2026-03-29T15:03:21Z</time></trkpt><trkpt lat="44.656375629589874" lon="11.765536661912883"><ele>1.0</ele><time>2026-03-29T15:03:22Z</time></trkpt><trkpt lat="44.65649881491141" lon="11.765361213121846"><ele>1.0</ele><time>2026-03-29T15:03:23Z</time></trkpt><trkpt lat="44.65661457825778" lon="11.76519493679174"><ele>1.0</ele><time>2026-03-29T15:03:24Z</time></trkpt><trkpt lat="44.656729962141426" lon="11.765030410462373"><ele>1.0</ele><time>2026-03-29T15:03:25Z</time></trkpt><trkpt lat="44.65684688954403" lon="11.764861528210407"><ele>1.0</ele><time>2026-03-29T15:03:26Z</time></trkpt><trkpt lat="44.65696688558737" lon="11.764695089876474"><ele>1.0</ele><time>2026-03-29T15:03:27Z</time></trkpt><trkpt lat="44.657089246493" lon="11.764527295113123"><ele>1.0</ele><time>2026-03-29T15:03:28Z</time></trkpt><trkpt lat="44.65721850333086" lon="11.764356971520613"><ele>1.3333333333333333</ele><time>2026-03-29T15:03:29Z</time></trkpt><trkpt lat="44.65734791684865" lon="11.764196283066346"><ele>1.6666666666666665</ele><time>2026-03-29T15:03:30Z</time></trkpt><trkpt lat="44.657479168188345" lon="11.764033321008927"><ele>2.0</ele><time>2026-03-29T15:03:31Z</time></trkpt><trkpt lat="44.657607271614665" lon="11.763869970538451"><ele>2.0</ele><time>2026-03-29T15:03:32Z</time></trkpt><trkpt lat="44.65772451338511" lon="11.763710220420906"><ele>2.0</ele><time>2026-03-29T15:03:33Z</time></trkpt><trkpt lat="44.657828799614606" lon="11.76355824762722"><ele>2.0</ele><time>2026-03-29T15:03:34Z</time></trkpt><trkpt lat="44.657917300794665" lon="11.763406394637503"><ele>1.75</ele><time>2026-03-29T15:03:35Z</time></trkpt><trkpt lat="44.65799360361175" lon="11.7632428536803"><ele>1.5</ele><time>2026-03-29T15:03:36.001Z</time></trkpt><trkpt lat="44.65807541477254" lon="11.763086149016814"><ele>1.25</ele><time>2026-03-29T15:03:37.001Z</time></trkpt><trkpt lat="44.65813017280901" lon="11.762916045554006"><ele>1.0</ele><time>2026-03-29T15:03:38.001Z</time></trkpt><trkpt lat="44.65819025007282" lon="11.762770727910224"><ele>1.1666666666666665</ele><time>2026-03-29T15:03:39.001Z</time></trkpt><trkpt lat="44.65825142858734" lon="11.762648501556212"><ele>1.3333333333333333</ele><time>2026-03-29T15:03:40.001Z</time></trkpt><trkpt lat="44.65829999385537" lon="11.762530987309718"><ele>1.5</ele><time>2026-03-29T15:03:41.001Z</time></trkpt><trkpt lat="44.65834426860132" lon="11.762431746244104"><ele>1.6666666666666665</ele><time>2026-03-29T15:03:42.001Z</time></trkpt><trkpt lat="44.65838406324992" lon="11.762342839666815"><ele>1.8333333333333333</ele><time>2026-03-29T15:03:43.001Z</time></trkpt><trkpt lat="44.65842043136692" lon="11.762268088628167"><ele>2.0</ele><time>2026-03-29T15:03:44.001Z</time></trkpt><trkpt lat="44.65848596718548" lon="11.762159752618357"><ele>2.0</ele><time>2026-03-29T15:03:46.001Z</time></trkpt><trkpt lat="44.658446148148926" lon="11.762070827596332"><ele>2.0</ele><time>2026-03-29T15:03:47.001Z</time></trkpt><trkpt lat="44.65836005995984" lon="11.761921731608087"><ele>2.0</ele><time>2026-03-29T15:03:49.001Z</time></trkpt><trkpt lat="44.65832937375761" lon="11.761791645684466"><ele>2.0</ele><time>2026-03-29T15:03:50.001Z</time></trkpt><trkpt lat="44.65828079434218" lon="11.761674816604414"><ele>2.0</ele><time>2026-03-29T15:03:51.001Z</time></trkpt><trkpt lat="44.6582367933409" lon="11.761527749348419"><ele>2.0</ele><time>2026-03-29T15:03:52.001Z</time></trkpt><trkpt lat="44.658193719971976" lon="11.761370250446268"><ele>2.0</ele><time>2026-03-29T15:03:53.001Z</time></trkpt><trkpt lat="44.65814694154586" lon="11.761212672594581"><ele>2.0</ele><time>2026-03-29T15:03:54.001Z</time></trkpt><trkpt lat="44.65809566483203" lon="11.761050675972628"><ele>2.0</ele><time>2026-03-29T15:03:55.001Z</time></trkpt><trkpt lat="44.658040951104276" lon="11.760869308903768"><ele>2.0</ele><time>2026-03-29T15:03:56.001Z</time></trkpt><trkpt lat="44.65798675317004" lon="11.760669070291291"><ele>2.0</ele><time>2026-03-29T15:03:57.001Z</time></trkpt><trkpt lat="44.657935593101804" lon="11.760458194577044"><ele>2.0</ele><time>2026-03-29T15:03:58.001Z</time></trkpt><trkpt lat="44.65788635855997" lon="11.760249067879162"><ele>1.3333333333333333</ele><time>2026-03-29T15:03:59.001Z</time></trkpt><trkpt lat="44.657837767697835" lon="11.7600311530473"><ele>0.6666666666666666</ele><time>2026-03-29T15:04:00.001Z</time></trkpt><trkpt lat="44.6577833581855" lon="11.75977223000119"><ele>0.0</ele><time>2026-03-29T15:04:01.001Z</time></trkpt><trkpt lat="44.65773312155704" lon="11.759515008497408"><ele>0.0</ele><time>2026-03-29T15:04:02.001Z</time></trkpt><trkpt lat="44.65769168182484" lon="11.759301145775213"><ele>0.0</ele><time>2026-03-29T15:04:03.001Z</time></trkpt><trkpt lat="44.65765588425592" lon="11.759111194294935"><ele>0.0</ele><time>2026-03-29T15:04:04.001Z</time></trkpt><trkpt lat="44.65762006164157" lon="11.758935243411441"><ele>0.0</ele><time>2026-03-29T15:04:05.001Z</time></trkpt><trkpt lat="44.65758571056356" lon="11.75875747989124"><ele>0.0</ele><time>2026-03-29T15:04:06.001Z</time></trkpt><trkpt lat="44.65754958265114" lon="11.75857850342003"><ele>0.0</ele><time>2026-03-29T15:04:07.001Z</time></trkpt><trkpt lat="44.657511260130036" lon="11.758393076660134"><ele>0.0</ele><time>2026-03-29T15:04:08.001Z</time></trkpt><trkpt lat="44.65747066465681" lon="11.758215373418807"><ele>0.0</ele><time>2026-03-29T15:04:09.001Z</time></trkpt><trkpt lat="44.65743985702439" lon="11.758053532752278"><ele>0.2</ele><time>2026-03-29T15:04:10.001Z</time></trkpt><trkpt lat="44.657416036388604" lon="11.757922804495163"><ele>0.4</ele><time>2026-03-29T15:04:11.001Z</time></trkpt><trkpt lat="44.65739697270667" lon="11.757801486945898"><ele>0.6000000000000001</ele><time>2026-03-29T15:04:12.001Z</time></trkpt><trkpt lat="44.65739936405844" lon="11.757658486629069"><ele>0.8</ele><time>2026-03-29T15:04:13.001Z</time></trkpt><trkpt lat="44.65743246466303" lon="11.757495383754344"><ele>1.0</ele><time>2026-03-29T15:04:14.001Z</time></trkpt><trkpt lat="44.6574897652058" lon="11.757338377380167"><ele>1.5</ele><time>2026-03-29T15:04:15.001Z</time></trkpt><trkpt lat="44.65755230123828" lon="11.757180136202832"><ele>2.0</ele><time>2026-03-29T15:04:16.001Z</time></trkpt><trkpt lat="44.65760180714302" lon="11.75702736637911"><ele>2.5</ele><time>2026-03-29T15:04:17.001Z</time></trkpt><trkpt lat="44.657643857148" lon="11.75686922362333"><ele>3.0</ele><time>2026-03-29T15:04:18.001Z</time></trkpt><trkpt lat="44.657678506601805" lon="11.756683272883558"><ele>3.75</ele><time>2026-03-29T15:04:19.001Z</time></trkpt><trkpt lat="44.657708226891344" lon="11.756495211304655"><ele>4.5</ele><time>2026-03-29T15:04:20.001Z</time></trkpt><trkpt lat="44.657725470821205" lon="11.756303115026846"><ele>5.25</ele><time>2026-03-29T15:04:21.001Z</time></trkpt><trkpt lat="44.657743177100784" lon="11.756113771475542"><ele>6.0</ele><time>2026-03-29T15:04:22.001Z</time></trkpt><trkpt lat="44.65774338843494" lon="11.755912367124804"><ele>6.0</ele><time>2026-03-29T15:04:23.001Z</time></trkpt><trkpt lat="44.65774354250635" lon="11.75572053108734"><ele>6.0</ele><time>2026-03-29T15:04:24.001Z</time></trkpt><trkpt lat="44.6577364829407" lon="11.755527321543033"><ele>6.0</ele><time>2026-03-29T15:04:25.001Z</time></trkpt><trkpt lat="44.65772395663603" lon="11.755326725576033"><ele>6.0</ele><time>2026-03-29T15:04:26.001Z</time></trkpt><trkpt lat="44.657707833163464" lon="11.755111918735114"><ele>6.0</ele><time>2026-03-29T15:04:27.001Z</time></trkpt><trkpt lat="44.65769412720097" lon="11.754889190676211"><ele>6.0</ele><time>2026-03-29T15:04:28.001Z</time></trkpt><trkpt lat="44.65767390532247" lon="11.754660895841353"><ele>6.0</ele><time>2026-03-29T15:04:29.001Z</time></trkpt><trkpt lat="44.65765349319994" lon="11.754424991085184"><ele>6.0</ele><time>2026-03-29T15:04:30.001Z</time></trkpt><trkpt lat="44.657634957945994" lon="11.754199081902723"><ele>6.0</ele><time>2026-03-29T15:04:31.001Z</time></trkpt><trkpt lat="44.657613398161224" lon="11.753974313488776"><ele>6.0</ele><time>2026-03-29T15:04:32.001Z</time></trkpt><trkpt lat="44.657602178490464" lon="11.75373093080205"><ele>5.666666666666667</ele><time>2026-03-29T15:04:33.001Z</time></trkpt><trkpt lat="44.657577300945434" lon="11.753494968672046"><ele>5.333333333333334</ele><time>2026-03-29T15:04:34.001Z</time></trkpt><trkpt lat="44.65755130595726" lon="11.75324840779639"><ele>5.0</ele><time>2026-03-29T15:04:35.001Z</time></trkpt><trkpt lat="44.65752518463823" lon="11.75300064819354"><ele>5.0</ele><time>2026-03-29T15:04:36.001Z</time></trkpt><trkpt lat="44.65750086482764" lon="11.7527558855678"><ele>5.0</ele><time>2026-03-29T15:04:37.001Z</time></trkpt><trkpt lat="44.65747887536775" lon="11.752507329288655"><ele>5.0</ele><time>2026-03-29T15:04:38.001Z</time></trkpt><trkpt lat="44.65746114573402" lon="11.75225453142575"><ele>5.0</ele><time>2026-03-29T15:04:39.001Z</time></trkpt><trkpt lat="44.6574470938699" lon="11.7520091579498"><ele>5.0</ele><time>2026-03-29T15:04:40.001Z</time></trkpt><trkpt lat="44.65743442143223" lon="11.751771345477186"><ele>5.0</ele><time>2026-03-29T15:04:41.001Z</time></trkpt><trkpt lat="44.65740775972168" lon="11.751533002480313"><ele>5.0</ele><time>2026-03-29T15:04:42.001Z</time></trkpt><trkpt lat="44.65740036100422" lon="11.751296838372298"><ele>5.0</ele><time>2026-03-29T15:04:43.001Z</time></trkpt><trkpt lat="44.65738802773341" lon="11.751055729898992"><ele>5.0</ele><time>2026-03-29T15:04:44.001Z</time></trkpt><trkpt lat="44.65737814974458" lon="11.750817407292413"><ele>5.0</ele><time>2026-03-29T15:04:45.001Z</time></trkpt><trkpt lat="44.65737013680642" lon="11.750577607164498"><ele>5.0</ele><time>2026-03-29T15:04:46.001Z</time></trkpt><trkpt lat="44.65735340603142" lon="11.750333442857698"><ele>5.0</ele><time>2026-03-29T15:04:47.001Z</time></trkpt><trkpt lat="44.65734548817097" lon="11.750092603379894"><ele>5.0</ele><time>2026-03-29T15:04:48Z</time></trkpt><trkpt lat="44.657334865856555" lon="11.749851400203275"><ele>5.0</ele><time>2026-03-29T15:04:49Z</time></trkpt><trkpt lat="44.65731854083057" lon="11.749609358080448"><ele>5.0</ele><time>2026-03-29T15:04:50Z</time></trkpt><trkpt lat="44.65730251059762" lon="11.749369372869884"><ele>5.0</ele><time>2026-03-29T15:04:51Z</time></trkpt><trkpt lat="44.6572873186909" lon="11.749123461587553"><ele>5.0</ele><time>2026-03-29T15:04:52Z</time></trkpt><trkpt lat="44.65727922751481" lon="11.748881965660834"><ele>5.0</ele><time>2026-03-29T15:04:53Z</time></trkpt><trkpt lat="44.65726628749407" lon="11.748638888514074"><ele>4.666666666666667</ele><time>2026-03-29T15:04:54Z</time></trkpt><trkpt lat="44.65724831143227" lon="11.748403327382889"><ele>4.333333333333333</ele><time>2026-03-29T15:04:55Z</time></trkpt><trkpt lat="44.657228960626064" lon="11.74815794342868"><ele>4.0</ele><time>2026-03-29T15:04:56Z</time></trkpt><trkpt lat="44.65721159018458" lon="11.747917649205217"><ele>4.0</ele><time>2026-03-29T15:04:57Z</time></trkpt><trkpt lat="44.6572024469619" lon="11.74767246820313"><ele>4.0</ele><time>2026-03-29T15:04:58Z</time></trkpt><trkpt lat="44.65719773723628" lon="11.747432354893665"><ele>4.0</ele><time>2026-03-29T15:04:59Z</time></trkpt><trkpt lat="44.65718371696302" lon="11.747186080475334"><ele>4.0</ele><time>2026-03-29T15:05:00Z</time></trkpt><trkpt lat="44.65717375529533" lon="11.746941225723221"><ele>4.0</ele><time>2026-03-29T15:05:01Z</time></trkpt><trkpt lat="44.6571592637949" lon="11.746702081370978"><ele>4.0</ele><time>2026-03-29T15:05:02Z</time></trkpt><trkpt lat="44.65714722476937" lon="11.746466422678814"><ele>4.0</ele><time>2026-03-29T15:05:03Z</time></trkpt><trkpt lat="44.657130633242915" lon="11.746228151971202"><ele>4.0</ele><time>2026-03-29T15:05:04Z</time></trkpt><trkpt lat="44.65711635278662" lon="11.74598919039105"><ele>4.0</ele><time>2026-03-29T15:05:05Z</time></trkpt><trkpt lat="44.65710530332782" lon="11.745751935479674"><ele>3.6666666666666665</ele><time>2026-03-29T15:05:06Z</time></trkpt><trkpt lat="44.65709273265774" lon="11.745511227598756"><ele>3.333333333333333</ele><time>2026-03-29T15:05:07Z</time></trkpt><trkpt lat="44.65708516937778" lon="11.745273191538077"><ele>3.0</ele><time>2026-03-29T15:05:08Z</time></trkpt><trkpt lat="44.65707769822461" lon="11.745035290698983"><ele>2.6666666666666665</ele><time>2026-03-29T15:05:09Z</time></trkpt><trkpt lat="44.65706509629449" lon="11.744796124346685"><ele>2.333333333333333</ele><time>2026-03-29T15:05:10Z</time></trkpt><trkpt lat="44.657054165101876" lon="11.744563833640187"><ele>2.0</ele><time>2026-03-29T15:05:11Z</time></trkpt><trkpt lat="44.65703639697432" lon="11.744323054776634"><ele>2.0</ele><time>2026-03-29T15:05:12Z</time></trkpt><trkpt lat="44.65702790608991" lon="11.74407988159202"><ele>2.0</ele><time>2026-03-29T15:05:13Z</time></trkpt><trkpt lat="44.65701661634449" lon="11.74383470445926"><ele>2.0</ele><time>2026-03-29T15:05:14Z</time></trkpt><trkpt lat="44.65701070188359" lon="11.74359352533011"><ele>2.6666666666666665</ele><time>2026-03-29T15:05:15Z</time></trkpt><trkpt lat="44.65700894174334" lon="11.743349457263975"><ele>3.333333333333333</ele><time>2026-03-29T15:05:16Z</time></trkpt><trkpt lat="44.65700644802" lon="11.743107064234742"><ele>4.0</ele><time>2026-03-29T15:05:17Z</time></trkpt><trkpt lat="44.657002191939696" lon="11.742864239324092"><ele>4.0</ele><time>2026-03-29T15:05:18Z</time></trkpt><trkpt lat="44.65700338177671" lon="11.742623860280878"><ele>4.0</ele><time>2026-03-29T15:05:19Z</time></trkpt><trkpt lat="44.65700821878324" lon="11.742381815782302"><ele>4.0</ele><time>2026-03-29T15:05:20Z</time></trkpt><trkpt lat="44.65701540338172" lon="11.742137365644169"><ele>4.0</ele><time>2026-03-29T15:05:21Z</time></trkpt><trkpt lat="44.65703245008836" lon="11.74189501760977"><ele>4.0</ele><time>2026-03-29T15:05:22Z</time></trkpt><trkpt lat="44.657050137147735" lon="11.741647905269147"><ele>4.0</ele><time>2026-03-29T15:05:23Z</time></trkpt><trkpt lat="44.65706707130991" lon="11.741409211840686"><ele>3.333333333333333</ele><time>2026-03-29T15:05:24Z</time></trkpt><trkpt lat="44.6570815825892" lon="11.741162969923318"><ele>2.6666666666666665</ele><time>2026-03-29T15:05:25Z</time></trkpt><trkpt lat="44.657094967253876" lon="11.740913956138174"><ele>2.0</ele><time>2026-03-29T15:05:26Z</time></trkpt><trkpt lat="44.657109445283105" lon="11.740672898124988"><ele>1.6666666666666665</ele><time>2026-03-29T15:05:27Z</time></trkpt><trkpt lat="44.657124742509914" lon="11.740423533322891"><ele>1.3333333333333333</ele><time>2026-03-29T15:05:28Z</time></trkpt><trkpt lat="44.65713942300924" lon="11.740176904633813"><ele>1.0</ele><time>2026-03-29T15:05:29Z</time></trkpt><trkpt lat="44.65715110972373" lon="11.739929012429135"><ele>1.0</ele><time>2026-03-29T15:05:30Z</time></trkpt><trkpt lat="44.65716211201722" lon="11.739682532259007"><ele>1.0</ele><time>2026-03-29T15:05:31Z</time></trkpt><trkpt lat="44.65717511720581" lon="11.739441427316061"><ele>1.0</ele><time>2026-03-29T15:05:32Z</time></trkpt><trkpt lat="44.657197604695504" lon="11.739197258619585"><ele>1.3333333333333333</ele><time>2026-03-29T15:05:33Z</time></trkpt><trkpt lat="44.65721284412461" lon="11.738948606961593"><ele>1.6666666666666665</ele><time>2026-03-29T15:05:34Z</time></trkpt><trkpt lat="44.65722838186747" lon="11.738695669836407"><ele>2.0</ele><time>2026-03-29T15:05:35Z</time></trkpt><trkpt lat="44.657242420031025" lon="11.738438522472519"><ele>2.0</ele><time>2026-03-29T15:05:36Z</time></trkpt><trkpt lat="44.65725720141284" lon="11.73819342188124"><ele>2.0</ele><time>2026-03-29T15:05:37Z</time></trkpt><trkpt lat="44.65726453416476" lon="11.737945103118335"><ele>2.0</ele><time>2026-03-29T15:05:38Z</time></trkpt><trkpt lat="44.65725830534816" lon="11.737698585141505"><ele>1.6666666666666665</ele><time>2026-03-29T15:05:39Z</time></trkpt><trkpt lat="44.657249246281225" lon="11.737459597401964"><ele>1.3333333333333333</ele><time>2026-03-29T15:05:40Z</time></trkpt><trkpt lat="44.65725976629273" lon="11.737220030272187"><ele>1.0</ele><time>2026-03-29T15:05:41Z</time></trkpt><trkpt lat="44.65725537599645" lon="11.73697770781688"><ele>1.0</ele><time>2026-03-29T15:05:42Z</time></trkpt><trkpt lat="44.657251090682145" lon="11.736741179904705"><ele>1.0</ele><time>2026-03-29T15:05:43Z</time></trkpt><trkpt lat="44.65724685139281" lon="11.73650719239628"><ele>1.0</ele><time>2026-03-29T15:05:44Z</time></trkpt><trkpt lat="44.65724263412649" lon="11.73627442039125"><ele>1.0</ele><time>2026-03-29T15:05:45Z</time></trkpt><trkpt lat="44.65723724684392" lon="11.736038589791121"><ele>1.0</ele><time>2026-03-29T15:05:46Z</time></trkpt><trkpt lat="44.65723147237764" lon="11.735798917492662"><ele>1.0</ele><time>2026-03-29T15:05:47Z</time></trkpt><trkpt lat="44.6572232186627" lon="11.73555717970374"><ele>1.0</ele><time>2026-03-29T15:05:48Z</time></trkpt><trkpt lat="44.65721145749616" lon="11.735314799160921"><ele>1.0</ele><time>2026-03-29T15:05:49Z</time></trkpt><trkpt lat="44.657174238727734" lon="11.735080470102956"><ele>1.0</ele><time>2026-03-29T15:05:50.001Z</time></trkpt><trkpt lat="44.65715679221132" lon="11.734853955873575"><ele>1.0</ele><time>2026-03-29T15:05:51.001Z</time></trkpt><trkpt lat="44.657131029652234" lon="11.73462256445775"><ele>1.0</ele><time>2026-03-29T15:05:52.001Z</time></trkpt><trkpt lat="44.65709729355407" lon="11.734383862317031"><ele>1.0</ele><time>2026-03-29T15:05:53.001Z</time></trkpt><trkpt lat="44.65705991768912" lon="11.734145295296532"><ele>1.0</ele><time>2026-03-29T15:05:54.001Z</time></trkpt><trkpt lat="44.6570258698731" lon="11.733907245340953"><ele>1.0</ele><time>2026-03-29T15:05:55.001Z</time></trkpt><trkpt lat="44.656979767389224" lon="11.733674874274918"><ele>1.0</ele><time>2026-03-29T15:05:56.001Z</time></trkpt><trkpt lat="44.65693234679689" lon="11.733441376841379"><ele>2.6666666666666665</ele><time>2026-03-29T15:05:57.001Z</time></trkpt><trkpt lat="44.65688706079661" lon="11.733212305631593"><ele>4.333333333333333</ele><time>2026-03-29T15:05:58.001Z</time></trkpt><trkpt lat="44.65684237805888" lon="11.732999706628606"><ele>6.0</ele><time>2026-03-29T15:05:59.001Z</time></trkpt><trkpt lat="44.656795808468964" lon="11.732805251167187"><ele>6.25</ele><time>2026-03-29T15:06:00.001Z</time></trkpt><trkpt lat="44.656751215382855" lon="11.732629613491788"><ele>6.5</ele><time>2026-03-29T15:06:01.001Z</time></trkpt><trkpt lat="44.65670611575289" lon="11.732479331267145"><ele>6.75</ele><time>2026-03-29T15:06:02.001Z</time></trkpt><trkpt lat="44.65666166963873" lon="11.7323467661873"><ele>7.0</ele><time>2026-03-29T15:06:03.001Z</time></trkpt><trkpt lat="44.65661534743373" lon="11.732211467544769"><ele>7.000000000000001</ele><time>2026-03-29T15:06:04.001Z</time></trkpt><trkpt lat="44.65657515637299" lon="11.732103492684564"><ele>7.0</ele><time>2026-03-29T15:06:05.001Z</time></trkpt><trkpt lat="44.65654093044308" lon="11.732012294955318"><ele>7.0</ele><time>2026-03-29T15:06:06.001Z</time></trkpt><trkpt lat="44.65650320420882" lon="11.731892667616295"><ele>7.0</ele><time>2026-03-29T15:06:08.001Z</time></trkpt><trkpt lat="44.656459560746924" lon="11.731776800316938"><ele>7.000000000000001</ele><time>2026-03-29T15:06:10.001Z</time></trkpt><trkpt lat="44.656419844796474" lon="11.731682225938291"><ele>7.0</ele><time>2026-03-29T15:06:12.001Z</time></trkpt><trkpt lat="44.6563709128644" lon="11.731537955322306"><ele>6.3999999999999995</ele><time>2026-03-29T15:06:14.001Z</time></trkpt><trkpt lat="44.656328067705665" lon="11.731432653053083"><ele>5.799999999999999</ele><time>2026-03-29T15:06:15.001Z</time></trkpt><trkpt lat="44.65628841427754" lon="11.731329711934269"><ele>5.2</ele><time>2026-03-29T15:06:16.001Z</time></trkpt><trkpt lat="44.65624419770454" lon="11.731225315312127"><ele>4.6</ele><time>2026-03-29T15:06:17.001Z</time></trkpt><trkpt lat="44.656195269234345" lon="11.731108367261507"><ele>4.0</ele><time>2026-03-29T15:06:18.001Z</time></trkpt><trkpt lat="44.65613549290749" lon="11.730980903058564"><ele>4.75</ele><time>2026-03-29T15:06:19.001Z</time></trkpt><trkpt lat="44.65606990697915" lon="11.73085020760636"><ele>5.5</ele><time>2026-03-29T15:06:20.001Z</time></trkpt><trkpt lat="44.65599737721192" lon="11.730731254866724"><ele>6.25</ele><time>2026-03-29T15:06:21.001Z</time></trkpt><trkpt lat="44.65591842305549" lon="11.730610427503835"><ele>7.0</ele><time>2026-03-29T15:06:22.001Z</time></trkpt><trkpt lat="44.655836875193884" lon="11.730475923626408"><ele>7.0</ele><time>2026-03-29T15:06:23.001Z</time></trkpt><trkpt lat="44.655740622370956" lon="11.73033708475734"><ele>7.0</ele><time>2026-03-29T15:06:24.001Z</time></trkpt><trkpt lat="44.655658118622746" lon="11.73019848742478"><ele>7.0</ele><time>2026-03-29T15:06:25.001Z</time></trkpt><trkpt lat="44.65557425327364" lon="11.730070247317428"><ele>7.0</ele><time>2026-03-29T15:06:26.001Z</time></trkpt><trkpt lat="44.65548339429686" lon="11.729928457676605"><ele>7.0</ele><time>2026-03-29T15:06:27.001Z</time></trkpt><trkpt lat="44.65539024114926" lon="11.72978272456173"><ele>7.0</ele><time>2026-03-29T15:06:28.001Z</time></trkpt><trkpt lat="44.655298223800315" lon="11.729627665034712"><ele>7.0</ele><time>2026-03-29T15:06:29.001Z</time></trkpt><trkpt lat="44.65520719893892" lon="11.729477226492424"><ele>7.0</ele><time>2026-03-29T15:06:30.001Z</time></trkpt><trkpt lat="44.65511655690068" lon="11.729331479004047"><ele>6.75</ele><time>2026-03-29T15:06:31.001Z</time></trkpt><trkpt lat="44.65502638185405" lon="11.729184510937667"><ele>6.5</ele><time>2026-03-29T15:06:32.001Z</time></trkpt><trkpt lat="44.6549371421149" lon="11.729033306339169"><ele>6.25</ele><time>2026-03-29T15:06:33.001Z</time></trkpt><trkpt lat="44.654843160414146" lon="11.728890627282212"><ele>6.0</ele><time>2026-03-29T15:06:34.001Z</time></trkpt><trkpt lat="44.65474405076431" lon="11.72874010658415"><ele>6.0</ele><time>2026-03-29T15:06:35.001Z</time></trkpt><trkpt lat="44.65465189735575" lon="11.728587113995"><ele>6.0</ele><time>2026-03-29T15:06:36.001Z</time></trkpt><trkpt lat="44.65454462562179" lon="11.728453705330647"><ele>6.0</ele><time>2026-03-29T15:06:37.001Z</time></trkpt><trkpt lat="44.65442628049022" lon="11.72831162106758"><ele>6.0</ele><time>2026-03-29T15:06:38.001Z</time></trkpt><trkpt lat="44.654306883495245" lon="11.728165340323626"><ele>6.0</ele><time>2026-03-29T15:06:39.001Z</time></trkpt><trkpt lat="44.654190209779294" lon="11.728038052714192"><ele>6.0</ele><time>2026-03-29T15:06:40.001Z</time></trkpt><trkpt lat="44.654071074629954" lon="11.727891612340327"><ele>6.0</ele><time>2026-03-29T15:06:41.001Z</time></trkpt><trkpt lat="44.6539444949993" lon="11.727766302893567"><ele>6.0</ele><time>2026-03-29T15:06:42.001Z</time></trkpt><trkpt lat="44.65382373900623" lon="11.72762191785553"><ele>6.0</ele><time>2026-03-29T15:06:43Z</time></trkpt><trkpt lat="44.65370376071466" lon="11.72747902497366"><ele>6.0</ele><time>2026-03-29T15:06:44Z</time></trkpt><trkpt lat="44.6535942495931" lon="11.727345061112244"><ele>6.0</ele><time>2026-03-29T15:06:45Z</time></trkpt><trkpt lat="44.65348961236785" lon="11.727213549697996"><ele>6.0</ele><time>2026-03-29T15:06:46Z</time></trkpt><trkpt lat="44.653382378110734" lon="11.727105267995697"><ele>6.0</ele><time>2026-03-29T15:06:47Z</time></trkpt><trkpt lat="44.65326559301968" lon="11.727009371691027"><ele>6.0</ele><time>2026-03-29T15:06:48Z</time></trkpt><trkpt lat="44.65314598253941" lon="11.7269149552328"><ele>6.0</ele><time>2026-03-29T15:06:49Z</time></trkpt><trkpt lat="44.653015438033734" lon="11.726830880328126"><ele>6.0</ele><time>2026-03-29T15:06:50Z</time></trkpt><trkpt lat="44.652875935105904" lon="11.726748165648774"><ele>6.0</ele><time>2026-03-29T15:06:51Z</time></trkpt><trkpt lat="44.65274011388098" lon="11.726668176027868"><ele>6.0</ele><time>2026-03-29T15:06:52Z</time></trkpt><trkpt lat="44.65260998888276" lon="11.726612757608049"><ele>6.0</ele><time>2026-03-29T15:06:53Z</time></trkpt><trkpt lat="44.652474102665586" lon="11.726573397888089"><ele>6.0</ele><time>2026-03-29T15:06:54Z</time></trkpt><trkpt lat="44.65233049747329" lon="11.726553759952917"><ele>6.0</ele><time>2026-03-29T15:06:55Z</time></trkpt><trkpt lat="44.65218754906261" lon="11.726538718620562"><ele>6.0</ele><time>2026-03-29T15:06:56Z</time></trkpt><trkpt lat="44.652044137901505" lon="11.72652285340943"><ele>6.0</ele><time>2026-03-29T15:06:57Z</time></trkpt><trkpt lat="44.65191262732084" lon="11.726505092329608"><ele>6.0</ele><time>2026-03-29T15:06:58Z</time></trkpt><trkpt lat="44.65178023956164" lon="11.726487697344476"><ele>6.0</ele><time>2026-03-29T15:06:59Z</time></trkpt><trkpt lat="44.65165020847667" lon="11.726478643162398"><ele>6.0</ele><time>2026-03-29T15:07:00Z</time></trkpt><trkpt lat="44.65151321078771" lon="11.726495752064082"><ele>6.0</ele><time>2026-03-29T15:07:01Z</time></trkpt><trkpt lat="44.65137448622531" lon="11.726529075344956"><ele>6.0</ele><time>2026-03-29T15:07:02Z</time></trkpt><trkpt lat="44.65123940533871" lon="11.726573893360271"><ele>6.0</ele><time>2026-03-29T15:07:03Z</time></trkpt><trkpt lat="44.65109516809099" lon="11.726620073928265"><ele>6.0</ele><time>2026-03-29T15:07:04Z</time></trkpt><trkpt lat="44.65094838637364" lon="11.726681508056418"><ele>6.0</ele><time>2026-03-29T15:07:05Z</time></trkpt><trkpt lat="44.6507959434387" lon="11.726756375097485"><ele>6.0</ele><time>2026-03-29T15:07:06Z</time></trkpt><trkpt lat="44.65064978764543" lon="11.726827535088614"><ele>6.0</ele><time>2026-03-29T15:07:07Z</time></trkpt><trkpt lat="44.650510238177944" lon="11.726901770204636"><ele>6.0</ele><time>2026-03-29T15:07:08Z</time></trkpt><trkpt lat="44.65037212048144" lon="11.726970120211403"><ele>6.0</ele><time>2026-03-29T15:07:09Z</time></trkpt><trkpt lat="44.650234800568235" lon="11.727044816887819"><ele>6.0</ele><time>2026-03-29T15:07:10Z</time></trkpt><trkpt lat="44.6500989029524" lon="11.727132452016857"><ele>6.0</ele><time>2026-03-29T15:07:11Z</time></trkpt><trkpt lat="44.64996069440004" lon="11.727206046282193"><ele>6.0</ele><time>2026-03-29T15:07:12Z</time></trkpt><trkpt lat="44.64982295188014" lon="11.727282195710586"><ele>6.0</ele><time>2026-03-29T15:07:13Z</time></trkpt><trkpt lat="44.649685205401695" lon="11.727365284314638"><ele>6.0</ele><time>2026-03-29T15:07:14Z</time></trkpt><trkpt lat="44.64955593599174" lon="11.727437264433032"><ele>6.0</ele><time>2026-03-29T15:07:15Z</time></trkpt><trkpt lat="44.649440118552995" lon="11.727497332453918"><ele>6.0</ele><time>2026-03-29T15:07:16Z</time></trkpt><trkpt lat="44.6493301133685" lon="11.727558034180639"><ele>6.0</ele><time>2026-03-29T15:07:17Z</time></trkpt><trkpt lat="44.64922948961302" lon="11.727610550559195"><ele>6.0</ele><time>2026-03-29T15:07:18Z</time></trkpt><trkpt lat="44.649131757432" lon="11.727655472742024"><ele>6.0</ele><time>2026-03-29T15:07:19Z</time></trkpt><trkpt lat="44.64903139482211" lon="11.727697906282788"><ele>6.0</ele><time>2026-03-29T15:07:20Z</time></trkpt><trkpt lat="44.64891898996812" lon="11.727737906882286"><ele>6.0</ele><time>2026-03-29T15:07:21Z</time></trkpt><trkpt lat="44.648807918890576" lon="11.727761587861153"><ele>6.0</ele><time>2026-03-29T15:07:22Z</time></trkpt><trkpt lat="44.64868290805795" lon="11.727724421488974"><ele>6.0</ele><time>2026-03-29T15:07:23Z</time></trkpt><trkpt lat="44.64856208628675" lon="11.72769610965313"><ele>6.0</ele><time>2026-03-29T15:07:24Z</time></trkpt><trkpt lat="44.648436583408774" lon="11.72764646014316"><ele>6.0</ele><time>2026-03-29T15:07:25Z</time></trkpt><trkpt lat="44.64832327827636" lon="11.727561184470058"><ele>6.0</ele><time>2026-03-29T15:07:26Z</time></trkpt><trkpt lat="44.6482175258414" lon="11.727465905024223"><ele>6.0</ele><time>2026-03-29T15:07:27Z</time></trkpt><trkpt lat="44.6481172158733" lon="11.727367884923561"><ele>6.0</ele><time>2026-03-29T15:07:28Z</time></trkpt><trkpt lat="44.64802507238595" lon="11.727259274650658"><ele>6.0</ele><time>2026-03-29T15:07:29Z</time></trkpt><trkpt lat="44.64794020400347" lon="11.7271380862524"><ele>6.0</ele><time>2026-03-29T15:07:30Z</time></trkpt><trkpt lat="44.6478717791368" lon="11.727004802494829"><ele>6.0</ele><time>2026-03-29T15:07:31Z</time></trkpt><trkpt lat="44.64781129952803" lon="11.726858689031497"><ele>6.0</ele><time>2026-03-29T15:07:32Z</time></trkpt><trkpt lat="44.64775138851815" lon="11.72668482880431"><ele>6.666666666666666</ele><time>2026-03-29T15:07:33Z</time></trkpt><trkpt lat="44.64769178887911" lon="11.726485117581092"><ele>7.333333333333333</ele><time>2026-03-29T15:07:34Z</time></trkpt><trkpt lat="44.64763998791169" lon="11.726300248990029"><ele>8.0</ele><time>2026-03-29T15:07:35Z</time></trkpt><trkpt lat="44.64758258500723" lon="11.726095388142792"><ele>7.333333333333333</ele><time>2026-03-29T15:07:36Z</time></trkpt><trkpt lat="44.64752415095947" lon="11.725886847166786"><ele>6.666666666666666</ele><time>2026-03-29T15:07:37Z</time></trkpt><trkpt lat="44.64744889732705" lon="11.725675024811313"><ele>6.0</ele><time>2026-03-29T15:07:38Z</time></trkpt><trkpt lat="44.64739378248438" lon="11.725433299136494"><ele>5.333333333333333</ele><time>2026-03-29T15:07:39Z</time></trkpt><trkpt lat="44.64733013132929" lon="11.7251887037428"><ele>4.666666666666666</ele><time>2026-03-29T15:07:40Z</time></trkpt><trkpt lat="44.647270825749615" lon="11.724984922596946"><ele>4.0</ele><time>2026-03-29T15:07:41Z</time></trkpt><trkpt lat="44.64722204483615" lon="11.72479894161398"><ele>4.0</ele><time>2026-03-29T15:07:42Z</time></trkpt><trkpt lat="44.64716051678181" lon="11.724617608623216"><ele>4.0</ele><time>2026-03-29T15:07:43Z</time></trkpt><trkpt lat="44.64711899281102" lon="11.724453022988802"><ele>4.0</ele><time>2026-03-29T15:07:44Z</time></trkpt><trkpt lat="44.647078572686496" lon="11.72428982229886"><ele>4.0</ele><time>2026-03-29T15:07:45Z</time></trkpt><trkpt lat="44.64703524442866" lon="11.724134276958901"><ele>3.8000000000000003</ele><time>2026-03-29T15:07:46Z</time></trkpt><trkpt lat="44.64699296626917" lon="11.723989546914005"><ele>3.6000000000000005</ele><time>2026-03-29T15:07:47Z</time></trkpt><trkpt lat="44.6469716703186" lon="11.723856535753274"><ele>3.4</ele><time>2026-03-29T15:07:48Z</time></trkpt><trkpt lat="44.64693481552482" lon="11.723721000953656"><ele>3.2</ele><time>2026-03-29T15:07:49Z</time></trkpt><trkpt lat="44.646890883776514" lon="11.723582259803603"><ele>3.0</ele><time>2026-03-29T15:07:50Z</time></trkpt><trkpt lat="44.64684487379633" lon="11.723441854497437"><ele>3.75</ele><time>2026-03-29T15:07:51Z</time></trkpt><trkpt lat="44.64678737436173" lon="11.723305135268431"><ele>4.5</ele><time>2026-03-29T15:07:52Z</time></trkpt><trkpt lat="44.64671404101726" lon="11.7231805381657"><ele>5.25</ele><time>2026-03-29T15:07:53Z</time></trkpt><trkpt lat="44.64663166341231" lon="11.723066071311633"><ele>6.0</ele><time>2026-03-29T15:07:54Z</time></trkpt><trkpt lat="44.64653550211519" lon="11.722974026884987"><ele>6.0</ele><time>2026-03-29T15:07:55Z</time></trkpt><trkpt lat="44.64643810534903" lon="11.722914462813835"><ele>6.0</ele><time>2026-03-29T15:07:56Z</time></trkpt><trkpt lat="44.64633363846142" lon="11.722859175851047"><ele>6.0</ele><time>2026-03-29T15:07:57Z</time></trkpt><trkpt lat="44.64622537437453" lon="11.722845469021001"><ele>6.0</ele><time>2026-03-29T15:07:58Z</time></trkpt><trkpt lat="44.64610304639524" lon="11.722853548578797"><ele>6.0</ele><time>2026-03-29T15:07:59Z</time></trkpt><trkpt lat="44.645969198520625" lon="11.722868168652795"><ele>6.25</ele><time>2026-03-29T15:08:00Z</time></trkpt><trkpt lat="44.645835560638666" lon="11.72289448686248"><ele>6.5</ele><time>2026-03-29T15:08:01Z</time></trkpt><trkpt lat="44.64570762977393" lon="11.722922008270748"><ele>6.75</ele><time>2026-03-29T15:08:02Z</time></trkpt><trkpt lat="44.64557266939673" lon="11.72295965236943"><ele>7.0</ele><time>2026-03-29T15:08:03Z</time></trkpt><trkpt lat="44.645434105753345" lon="11.723006498528814"><ele>6.666666666666667</ele><time>2026-03-29T15:08:04Z</time></trkpt><trkpt lat="44.6452887305854" lon="11.723060725267036"><ele>6.333333333333334</ele><time>2026-03-29T15:08:05Z</time></trkpt><trkpt lat="44.645148172091226" lon="11.723139128991319"><ele>6.0</ele><time>2026-03-29T15:08:06Z</time></trkpt><trkpt lat="44.64500385321316" lon="11.723189172237543"><ele>6.0</ele><time>2026-03-29T15:08:07Z</time></trkpt><trkpt lat="44.644864504776535" lon="11.723243124821417"><ele>6.0</ele><time>2026-03-29T15:08:08Z</time></trkpt><trkpt lat="44.644729270335326" lon="11.72329495385663"><ele>6.0</ele><time>2026-03-29T15:08:09Z</time></trkpt><trkpt lat="44.644596157857045" lon="11.723351104876743"><ele>6.0</ele><time>2026-03-29T15:08:10Z</time></trkpt><trkpt lat="44.64446420428503" lon="11.723409179863317"><ele>5.75</ele><time>2026-03-29T15:08:11Z</time></trkpt><trkpt lat="44.64433048934336" lon="11.72346420029782"><ele>5.5</ele><time>2026-03-29T15:08:12Z</time></trkpt><trkpt lat="44.644200265654625" lon="11.723516037441307"><ele>5.25</ele><time>2026-03-29T15:08:13Z</time></trkpt><trkpt lat="44.64406981551768" lon="11.723569666501865"><ele>5.0</ele><time>2026-03-29T15:08:14Z</time></trkpt><trkpt lat="44.64393964198531" lon="11.723619292428687"><ele>5.25</ele><time>2026-03-29T15:08:15Z</time></trkpt><trkpt lat="44.64380765229833" lon="11.723677661415548"><ele>5.5</ele><time>2026-03-29T15:08:16Z</time></trkpt><trkpt lat="44.64366879221721" lon="11.723733842685565"><ele>5.75</ele><time>2026-03-29T15:08:17Z</time></trkpt><trkpt lat="44.64353119950488" lon="11.723789022500004"><ele>6.0</ele><time>2026-03-29T15:08:18Z</time></trkpt><trkpt lat="44.64339442257881" lon="11.723852165317629"><ele>6.0</ele><time>2026-03-29T15:08:19Z</time></trkpt><trkpt lat="44.64324839742622" lon="11.723910547963634"><ele>6.0</ele><time>2026-03-29T15:08:20Z</time></trkpt><trkpt lat="44.64310165496078" lon="11.723972859468404"><ele>6.0</ele><time>2026-03-29T15:08:21Z</time></trkpt><trkpt lat="44.64295709008102" lon="11.724029390966598"><ele>6.0</ele><time>2026-03-29T15:08:22Z</time></trkpt><trkpt lat="44.6428048639433" lon="11.724096874066209"><ele>6.0</ele><time>2026-03-29T15:08:23Z</time></trkpt><trkpt lat="44.64264500683564" lon="11.724158478902227"><ele>6.0</ele><time>2026-03-29T15:08:24Z</time></trkpt><trkpt lat="44.642488767328594" lon="11.724217776154958"><ele>6.0</ele><time>2026-03-29T15:08:25Z</time></trkpt><trkpt lat="44.642330148712155" lon="11.724270947703614"><ele>6.0</ele><time>2026-03-29T15:08:26Z</time></trkpt><trkpt lat="44.64215932226234" lon="11.724300365759996"><ele>6.0</ele><time>2026-03-29T15:08:27Z</time></trkpt><trkpt lat="44.6419886543435" lon="11.724344732237974"><ele>6.0</ele><time>2026-03-29T15:08:28Z</time></trkpt><trkpt lat="44.641815983482644" lon="11.72438214798043"><ele>6.0</ele><time>2026-03-29T15:08:29Z</time></trkpt><trkpt lat="44.641640802003515" lon="11.724411693502265"><ele>6.0</ele><time>2026-03-29T15:08:30Z</time></trkpt><trkpt lat="44.64147661612218" lon="11.724458715495263"><ele>6.0</ele><time>2026-03-29T15:08:31Z</time></trkpt><trkpt lat="44.64132619839603" lon="11.724475717276457"><ele>6.0</ele><time>2026-03-29T15:08:32Z</time></trkpt><trkpt lat="44.64117609602829" lon="11.724493428470984"><ele>6.0</ele><time>2026-03-29T15:08:33Z</time></trkpt><trkpt lat="44.64102831267347" lon="11.72451297139681"><ele>6.0</ele><time>2026-03-29T15:08:34Z</time></trkpt><trkpt lat="44.64088964488982" lon="11.724527586640203"><ele>6.0</ele><time>2026-03-29T15:08:35Z</time></trkpt><trkpt lat="44.640760313652066" lon="11.724538502749757"><ele>6.0</ele><time>2026-03-29T15:08:36Z</time></trkpt><trkpt lat="44.64063139378162" lon="11.724514259021346"><ele>6.0</ele><time>2026-03-29T15:08:37Z</time></trkpt><trkpt lat="44.640500420473565" lon="11.724525855904965"><ele>6.0</ele><time>2026-03-29T15:08:38Z</time></trkpt><trkpt lat="44.64037185798076" lon="11.724476734753859"><ele>6.0</ele><time>2026-03-29T15:08:39Z</time></trkpt><trkpt lat="44.64023463964697" lon="11.724434195051112"><ele>6.0</ele><time>2026-03-29T15:08:40Z</time></trkpt><trkpt lat="44.640113365042524" lon="11.724383170629205"><ele>6.0</ele><time>2026-03-29T15:08:41Z</time></trkpt><trkpt lat="44.64000475915742" lon="11.724353818527652"><ele>6.0</ele><time>2026-03-29T15:08:42Z</time></trkpt><trkpt lat="44.639909300325705" lon="11.724303005578061"><ele>6.0</ele><time>2026-03-29T15:08:43Z</time></trkpt><trkpt lat="44.63981341972285" lon="11.724244934211356"><ele>6.0</ele><time>2026-03-29T15:08:44Z</time></trkpt><trkpt lat="44.63973715511272" lon="11.724197191775978"><ele>6.0</ele><time>2026-03-29T15:08:45Z</time></trkpt><trkpt lat="44.63966333804195" lon="11.724144275289513"><ele>6.0</ele><time>2026-03-29T15:08:46Z</time></trkpt><trkpt lat="44.63959313199912" lon="11.7241136240173"><ele>6.0</ele><time>2026-03-29T15:08:47Z</time></trkpt><trkpt lat="44.63952481483889" lon="11.724082920677644"><ele>6.166666666666667</ele><time>2026-03-29T15:08:48Z</time></trkpt><trkpt lat="44.639438133014835" lon="11.724085834344079"><ele>6.333333333333334</ele><time>2026-03-29T15:08:49Z</time></trkpt><trkpt lat="44.639356036556514" lon="11.724090237426386"><ele>6.5</ele><time>2026-03-29T15:08:50Z</time></trkpt><trkpt lat="44.639278331178154" lon="11.724062746639627"><ele>6.666666666666667</ele><time>2026-03-29T15:08:51Z</time></trkpt><trkpt lat="44.639179773359714" lon="11.724054413667393"><ele>6.833333333333334</ele><time>2026-03-29T15:08:52Z</time></trkpt><trkpt lat="44.63908360210709" lon="11.724046282474939"><ele>7.0</ele><time>2026-03-29T15:08:53Z</time></trkpt><trkpt lat="44.63897583543768" lon="11.724059309031817"><ele>7.0</ele><time>2026-03-29T15:08:54Z</time></trkpt><trkpt lat="44.638869109020185" lon="11.724040000645926"><ele>7.0</ele><time>2026-03-29T15:08:55Z</time></trkpt><trkpt lat="44.63874703714522" lon="11.724041163278535"><ele>7.0</ele><time>2026-03-29T15:08:56Z</time></trkpt><trkpt lat="44.63863337343175" lon="11.724031081947434"><ele>7.0</ele><time>2026-03-29T15:08:57Z</time></trkpt><trkpt lat="44.638515985787116" lon="11.724022943148709"><ele>7.5</ele><time>2026-03-29T15:08:58Z</time></trkpt><trkpt lat="44.63839230373445" lon="11.724011305641765"><ele>8.0</ele><time>2026-03-29T15:08:59Z</time></trkpt><trkpt lat="44.6382736589389" lon="11.723992219716116"><ele>8.5</ele><time>2026-03-29T15:09:00Z</time></trkpt><trkpt lat="44.63814691837681" lon="11.7239803833114"><ele>9.0</ele><time>2026-03-29T15:09:01Z</time></trkpt><trkpt lat="44.63801232329623" lon="11.723972118491256"><ele>9.0</ele><time>2026-03-29T15:09:02Z</time></trkpt><trkpt lat="44.63786219190637" lon="11.723958805259302"><ele>9.0</ele><time>2026-03-29T15:09:03Z</time></trkpt><trkpt lat="44.63768183151985" lon="11.723938729842883"><ele>9.0</ele><time>2026-03-29T15:09:04Z</time></trkpt><trkpt lat="44.6374871161909" lon="11.72392123612959"><ele>8.333333333333334</ele><time>2026-03-29T15:09:05Z</time></trkpt><trkpt lat="44.637325202742524" lon="11.723905362466907"><ele>7.666666666666667</ele><time>2026-03-29T15:09:06Z</time></trkpt><trkpt lat="44.637182863500556" lon="11.723889810229908"><ele>7.0</ele><time>2026-03-29T15:09:07Z</time></trkpt><trkpt lat="44.63703021701112" lon="11.7238744113853"><ele>7.000000000000001</ele><time>2026-03-29T15:09:08Z</time></trkpt><trkpt lat="44.63689974898502" lon="11.723859127833455"><ele>7.0</ele><time>2026-03-29T15:09:09Z</time></trkpt><trkpt lat="44.63680077892754" lon="11.72384931816652"><ele>7.0</ele><time>2026-03-29T15:09:10Z</time></trkpt><trkpt lat="44.636729089591924" lon="11.723846956368533"><ele>7.0</ele><time>2026-03-29T15:09:11Z</time></trkpt><trkpt lat="44.636667808387635" lon="11.723871489585292"><ele>7.000000000000001</ele><time>2026-03-29T15:09:12Z</time></trkpt><trkpt lat="44.63660580331046" lon="11.723944720475837"><ele>7.0</ele><time>2026-03-29T15:09:13Z</time></trkpt><trkpt lat="44.636562254378205" lon="11.724060240787773"><ele>7.000000000000001</ele><time>2026-03-29T15:09:14Z</time></trkpt><trkpt lat="44.6365621943982" lon="11.7241853755948"><ele>7.0</ele><time>2026-03-29T15:09:15Z</time></trkpt><trkpt lat="44.63654298117734" lon="11.72429921294467"><ele>7.0</ele><time>2026-03-29T15:09:17Z</time></trkpt><trkpt lat="44.63645313602431" lon="11.724312654326205"><ele>7.0</ele><time>2026-03-29T15:09:20Z</time></trkpt><trkpt lat="44.63647439291177" lon="11.724169631461507"><ele>7.000000000000001</ele><time>2026-03-29T15:09:22Z</time></trkpt><trkpt lat="44.63648417875359" lon="11.724076375713132"><ele>7.0</ele><time>2026-03-29T15:09:23Z</time></trkpt><trkpt lat="44.636492925992854" lon="11.723969636010155"><ele>7.000000000000001</ele><time>2026-03-29T15:09:24Z</time></trkpt><trkpt lat="44.63648274574677" lon="11.723854866809907"><ele>7.0</ele><time>2026-03-29T15:09:25Z</time></trkpt><trkpt lat="44.636490303468435" lon="11.72373629022672"><ele>7.0</ele><time>2026-03-29T15:09:26Z</time></trkpt><trkpt lat="44.636498639510116" lon="11.723634121983766"><ele>7.0</ele><time>2026-03-29T15:09:27Z</time></trkpt><trkpt lat="44.63650125064494" lon="11.723531880203888"><ele>7.000000000000001</ele><time>2026-03-29T15:09:28Z</time></trkpt><trkpt lat="44.63650571834936" lon="11.723422684038898"><ele>7.0</ele><time>2026-03-29T15:09:29Z</time></trkpt><trkpt lat="44.63651103508125" lon="11.723300616295205"><ele>7.25</ele><time>2026-03-29T15:09:30Z</time></trkpt><trkpt lat="44.636517909237185" lon="11.723161340830769"><ele>7.5</ele><time>2026-03-29T15:09:31Z</time></trkpt><trkpt lat="44.63652375773275" lon="11.72301463776227"><ele>7.75</ele><time>2026-03-29T15:09:32Z</time></trkpt><trkpt lat="44.63652917090127" lon="11.722847246116753"><ele>8.0</ele><time>2026-03-29T15:09:33Z</time></trkpt><trkpt lat="44.63653592212147" lon="11.72266592125079"><ele>8.0</ele><time>2026-03-29T15:09:34Z</time></trkpt><trkpt lat="44.63654521502087" lon="11.722483118587467"><ele>8.0</ele><time>2026-03-29T15:09:35Z</time></trkpt><trkpt lat="44.63655514361478" lon="11.722243490912712"><ele>8.0</ele><time>2026-03-29T15:09:36Z</time></trkpt><trkpt lat="44.636567119540565" lon="11.721947888279093"><ele>8.333333333333332</ele><time>2026-03-29T15:09:37Z</time></trkpt><trkpt lat="44.63657825912888" lon="11.721634163678473"><ele>8.666666666666666</ele><time>2026-03-29T15:09:38Z</time></trkpt><trkpt lat="44.636588466610505" lon="11.721354956354245"><ele>9.0</ele><time>2026-03-29T15:09:39Z</time></trkpt><trkpt lat="44.636599722037246" lon="11.721071288635827"><ele>9.0</ele><time>2026-03-29T15:09:40Z</time></trkpt><trkpt lat="44.63661031825733" lon="11.720791422656749"><ele>9.0</ele><time>2026-03-29T15:09:41Z</time></trkpt><trkpt lat="44.63662103389077" lon="11.720504310692139"><ele>9.0</ele><time>2026-03-29T15:09:42Z</time></trkpt><trkpt lat="44.63663386977492" lon="11.720212547597535"><ele>8.666666666666666</ele><time>2026-03-29T15:09:43Z</time></trkpt><trkpt lat="44.636645733050315" lon="11.719922444836936"><ele>8.333333333333332</ele><time>2026-03-29T15:09:44Z</time></trkpt><trkpt lat="44.63665661708959" lon="11.719639249299258"><ele>8.0</ele><time>2026-03-29T15:09:45Z</time></trkpt><trkpt lat="44.636666611677114" lon="11.719366687365316"><ele>8.0</ele><time>2026-03-29T15:09:46Z</time></trkpt><trkpt lat="44.63667727768516" lon="11.719098926771434"><ele>8.0</ele><time>2026-03-29T15:09:47Z</time></trkpt><trkpt lat="44.636705300775006" lon="11.718831584364004"><ele>8.0</ele><time>2026-03-29T15:09:48Z</time></trkpt><trkpt lat="44.63670065478888" lon="11.718562970526897"><ele>8.333333333333332</ele><time>2026-03-29T15:09:49Z</time></trkpt><trkpt lat="44.63671090007737" lon="11.718303100457597"><ele>8.666666666666666</ele><time>2026-03-29T15:09:50Z</time></trkpt><trkpt lat="44.636739382773925" lon="11.718046244108825"><ele>9.0</ele><time>2026-03-29T15:09:51Z</time></trkpt><trkpt lat="44.636752440781926" lon="11.717793702400305"><ele>8.666666666666666</ele><time>2026-03-29T15:09:52Z</time></trkpt><trkpt lat="44.636763665476714" lon="11.717538278867313"><ele>8.333333333333332</ele><time>2026-03-29T15:09:53Z</time></trkpt><trkpt lat="44.63677166968814" lon="11.717285481025968"><ele>8.0</ele><time>2026-03-29T15:09:54Z</time></trkpt><trkpt lat="44.63676086202482" lon="11.717036704083986"><ele>8.333333333333332</ele><time>2026-03-29T15:09:55Z</time></trkpt><trkpt lat="44.63676923198937" lon="11.716787303623363"><ele>8.666666666666666</ele><time>2026-03-29T15:09:56Z</time></trkpt><trkpt lat="44.63677990569408" lon="11.716540145078024"><ele>9.0</ele><time>2026-03-29T15:09:57Z</time></trkpt><trkpt lat="44.63679107737369" lon="11.716288632259356"><ele>8.666666666666666</ele><time>2026-03-29T15:09:58Z</time></trkpt><trkpt lat="44.63680170515655" lon="11.716040313124662"><ele>8.333333333333332</ele><time>2026-03-29T15:09:59Z</time></trkpt><trkpt lat="44.636833855397896" lon="11.71580436965182"><ele>8.0</ele><time>2026-03-29T15:10:00Z</time></trkpt><trkpt lat="44.636844342833314" lon="11.715557982795415"><ele>8.0</ele><time>2026-03-29T15:10:01Z</time></trkpt><trkpt lat="44.636854929331584" lon="11.715309268453549"><ele>8.0</ele><time>2026-03-29T15:10:02Z</time></trkpt><trkpt lat="44.63686547238607" lon="11.715061574618089"><ele>8.0</ele><time>2026-03-29T15:10:03Z</time></trkpt><trkpt lat="44.6368759666919" lon="11.714813966270453"><ele>7.666666666666666</ele><time>2026-03-29T15:10:04Z</time></trkpt><trkpt lat="44.636886107980644" lon="11.7145726816241"><ele>7.333333333333334</ele><time>2026-03-29T15:10:05Z</time></trkpt><trkpt lat="44.63689622570791" lon="11.714331958051538"><ele>7.0</ele><time>2026-03-29T15:10:06Z</time></trkpt><trkpt lat="44.63690630876448" lon="11.714092059265495"><ele>7.0</ele><time>2026-03-29T15:10:07Z</time></trkpt><trkpt lat="44.63691613437356" lon="11.71385828555461"><ele>7.0</ele><time>2026-03-29T15:10:08Z</time></trkpt><trkpt lat="44.63692619427528" lon="11.713618937584071"><ele>7.0</ele><time>2026-03-29T15:10:09Z</time></trkpt><trkpt lat="44.63693514680821" lon="11.713382638836771"><ele>7.0</ele><time>2026-03-29T15:10:10Z</time></trkpt><trkpt lat="44.63694371729124" lon="11.71315474196734"><ele>7.0</ele><time>2026-03-29T15:10:11Z</time></trkpt><trkpt lat="44.6369522107882" lon="11.71292889200658"><ele>7.0</ele><time>2026-03-29T15:10:12Z</time></trkpt><trkpt lat="44.63696094983279" lon="11.712719685457532"><ele>7.0</ele><time>2026-03-29T15:10:13Z</time></trkpt><trkpt lat="44.636968812976434" lon="11.712511699390245"><ele>7.0</ele><time>2026-03-29T15:10:14Z</time></trkpt><trkpt lat="44.63695189428239" lon="11.71231885803349"><ele>7.0</ele><time>2026-03-29T15:10:15Z</time></trkpt><trkpt lat="44.63696119831077" lon="11.712121493205801"><ele>7.0</ele><time>2026-03-29T15:10:16Z</time></trkpt><trkpt lat="44.63690439598549" lon="11.711913140323269"><ele>6.666666666666667</ele><time>2026-03-29T15:10:17Z</time></trkpt><trkpt lat="44.636865450629294" lon="11.711694580442588"><ele>6.333333333333334</ele><time>2026-03-29T15:10:18Z</time></trkpt><trkpt lat="44.63681549342487" lon="11.711489761791603"><ele>6.0</ele><time>2026-03-29T15:10:19Z</time></trkpt><trkpt lat="44.636767005753434" lon="11.71127939809982"><ele>6.0</ele><time>2026-03-29T15:10:20Z</time></trkpt><trkpt lat="44.636720632024144" lon="11.711058949910036"><ele>6.0</ele><time>2026-03-29T15:10:21Z</time></trkpt><trkpt lat="44.63667969529154" lon="11.710857998032717"><ele>6.0</ele><time>2026-03-29T15:10:22Z</time></trkpt><trkpt lat="44.636651058094316" lon="11.710680755767036"><ele>6.0</ele><time>2026-03-29T15:10:23Z</time></trkpt><trkpt lat="44.636635500875975" lon="11.710508941619212"><ele>6.0</ele><time>2026-03-29T15:10:24Z</time></trkpt><trkpt lat="44.63663787427177" lon="11.710329235759707"><ele>6.0</ele><time>2026-03-29T15:10:25Z</time></trkpt><trkpt lat="44.636661564617825" lon="11.710140524768"><ele>6.0</ele><time>2026-03-29T15:10:26Z</time></trkpt><trkpt lat="44.63670457965084" lon="11.709956480729996"><ele>6.0</ele><time>2026-03-29T15:10:27Z</time></trkpt><trkpt lat="44.63676589440546" lon="11.70978291286559"><ele>6.25</ele><time>2026-03-29T15:10:28Z</time></trkpt><trkpt lat="44.63683505244856" lon="11.709637015970147"><ele>6.5</ele><time>2026-03-29T15:10:29Z</time></trkpt><trkpt lat="44.63692081245857" lon="11.709509772110582"><ele>6.75</ele><time>2026-03-29T15:10:30Z</time></trkpt><trkpt lat="44.63703591975297" lon="11.709401765442411"><ele>7.0</ele><time>2026-03-29T15:10:31Z</time></trkpt><trkpt lat="44.63716064324266" lon="11.709305786284023"><ele>7.25</ele><time>2026-03-29T15:10:32Z</time></trkpt><trkpt lat="44.63726798533917" lon="11.709197495893408"><ele>7.5</ele><time>2026-03-29T15:10:33Z</time></trkpt><trkpt lat="44.63737425998405" lon="11.709100160657378"><ele>7.75</ele><time>2026-03-29T15:10:34Z</time></trkpt><trkpt lat="44.6374765251231" lon="11.708986163264907"><ele>8.0</ele><time>2026-03-29T15:10:35Z</time></trkpt><trkpt lat="44.63756992661044" lon="11.708852634195209"><ele>8.0</ele><time>2026-03-29T15:10:36Z</time></trkpt><trkpt lat="44.63764368261547" lon="11.708690108608383"><ele>8.0</ele><time>2026-03-29T15:10:37Z</time></trkpt><trkpt lat="44.6377149028565" lon="11.708516145865397"><ele>8.0</ele><time>2026-03-29T15:10:38Z</time></trkpt><trkpt lat="44.63773301292342" lon="11.708307902738076"><ele>8.0</ele><time>2026-03-29T15:10:39Z</time></trkpt><trkpt lat="44.63775750026187" lon="11.708120787112845"><ele>8.25</ele><time>2026-03-29T15:10:40Z</time></trkpt><trkpt lat="44.63772818221927" lon="11.707949129810844"><ele>8.5</ele><time>2026-03-29T15:10:41Z</time></trkpt><trkpt lat="44.63769314104092" lon="11.707797940234295"><ele>8.75</ele><time>2026-03-29T15:10:42Z</time></trkpt><trkpt lat="44.63765117135233" lon="11.707653492705717"><ele>9.0</ele><time>2026-03-29T15:10:43Z</time></trkpt><trkpt lat="44.63754962296001" lon="11.707559399859191"><ele>9.0</ele><time>2026-03-29T15:10:44Z</time></trkpt><trkpt lat="44.637448913864404" lon="11.707499813587805"><ele>9.0</ele><time>2026-03-29T15:10:45Z</time></trkpt><trkpt lat="44.63734543652358" lon="11.707472966953056"><ele>9.0</ele><time>2026-03-29T15:10:46Z</time></trkpt><trkpt lat="44.63724110000238" lon="11.70745876723544"><ele>9.0</ele><time>2026-03-29T15:10:47Z</time></trkpt><trkpt lat="44.63714907345784" lon="11.707398275538802"><ele>9.0</ele><time>2026-03-29T15:10:48Z</time></trkpt><trkpt lat="44.637074891457374" lon="11.707302782937441"><ele>9.0</ele><time>2026-03-29T15:10:49Z</time></trkpt><trkpt lat="44.637015012982715" lon="11.707180078853188"><ele>9.0</ele><time>2026-03-29T15:10:50Z</time></trkpt><trkpt lat="44.63697065910437" lon="11.707043258804605"><ele>9.0</ele><time>2026-03-29T15:10:51Z</time></trkpt><trkpt lat="44.636941085065125" lon="11.70688576776085"><ele>9.0</ele><time>2026-03-29T15:10:52Z</time></trkpt><trkpt lat="44.636923375190314" lon="11.706707882527057"><ele>8.333333333333334</ele><time>2026-03-29T15:10:53Z</time></trkpt><trkpt lat="44.63692931070477" lon="11.70651278239304"><ele>7.666666666666667</ele><time>2026-03-29T15:10:54Z</time></trkpt><trkpt lat="44.63695090433956" lon="11.70630584449485"><ele>7.0</ele><time>2026-03-29T15:10:55Z</time></trkpt><trkpt lat="44.63699004847501" lon="11.706072475658873"><ele>6.5</ele><time>2026-03-29T15:10:56Z</time></trkpt><trkpt lat="44.63703232505792" lon="11.705879261803284"><ele>6.0</ele><time>2026-03-29T15:10:57Z</time></trkpt><trkpt lat="44.63707693367253" lon="11.705712855739222"><ele>5.5</ele><time>2026-03-29T15:10:58Z</time></trkpt><trkpt lat="44.637126150955154" lon="11.705556793183238"><ele>5.0</ele><time>2026-03-29T15:10:59Z</time></trkpt><trkpt lat="44.63717808978754" lon="11.705399387943688"><ele>5.5</ele><time>2026-03-29T15:11:00Z</time></trkpt><trkpt lat="44.63723168806943" lon="11.705223739656038"><ele>6.0</ele><time>2026-03-29T15:11:01Z</time></trkpt><trkpt lat="44.63727204178045" lon="11.705031114521308"><ele>6.5</ele><time>2026-03-29T15:11:02Z</time></trkpt><trkpt lat="44.63731363837367" lon="11.704831382728544"><ele>7.0</ele><time>2026-03-29T15:11:03Z</time></trkpt><trkpt lat="44.63736178725573" lon="11.704630034107195"><ele>7.0</ele><time>2026-03-29T15:11:04Z</time></trkpt><trkpt lat="44.637387311197365" lon="11.704416233775651"><ele>7.0</ele><time>2026-03-29T15:11:05Z</time></trkpt><trkpt lat="44.63739366396834" lon="11.704209085993899"><ele>7.0</ele><time>2026-03-29T15:11:06Z</time></trkpt><trkpt lat="44.637412344192725" lon="11.704018727579369"><ele>7.0</ele><time>2026-03-29T15:11:07Z</time></trkpt><trkpt lat="44.63744764724657" lon="11.703831305097669"><ele>7.0</ele><time>2026-03-29T15:11:08Z</time></trkpt><trkpt lat="44.63746749115678" lon="11.703637769252484"><ele>7.0</ele><time>2026-03-29T15:11:09Z</time></trkpt><trkpt lat="44.63748757923942" lon="11.703441851803914"><ele>7.0</ele><time>2026-03-29T15:11:10Z</time></trkpt><trkpt lat="44.637507826693785" lon="11.70324437944225"><ele>7.0</ele><time>2026-03-29T15:11:11Z</time></trkpt><trkpt lat="44.637511998542" lon="11.703042084721089"><ele>7.333333333333334</ele><time>2026-03-29T15:11:12Z</time></trkpt><trkpt lat="44.63754992895464" lon="11.702826201116517"><ele>7.666666666666666</ele><time>2026-03-29T15:11:13Z</time></trkpt><trkpt lat="44.63757111559876" lon="11.70260840353725"><ele>8.0</ele><time>2026-03-29T15:11:14Z</time></trkpt><trkpt lat="44.637592229135095" lon="11.702391357908002"><ele>8.333333333333332</ele><time>2026-03-29T15:11:15Z</time></trkpt><trkpt lat="44.6376135152971" lon="11.70216592520359"><ele>8.666666666666666</ele><time>2026-03-29T15:11:16Z</time></trkpt><trkpt lat="44.63763438658156" lon="11.701938949905447"><ele>9.0</ele><time>2026-03-29T15:11:17Z</time></trkpt><trkpt lat="44.63765503729621" lon="11.701714373496278"><ele>9.0</ele><time>2026-03-29T15:11:18Z</time></trkpt><trkpt lat="44.637676874509395" lon="11.701476893655869"><ele>9.0</ele><time>2026-03-29T15:11:19Z</time></trkpt><trkpt lat="44.63769828067974" lon="11.701236498444413"><ele>9.0</ele><time>2026-03-29T15:11:20Z</time></trkpt><trkpt lat="44.63771792861257" lon="11.701001658944728"><ele>8.333333333333334</ele><time>2026-03-29T15:11:21Z</time></trkpt><trkpt lat="44.637722026242365" lon="11.700758332832047"><ele>7.666666666666667</ele><time>2026-03-29T15:11:22Z</time></trkpt><trkpt lat="44.637758715926154" lon="11.700514153241084"><ele>7.0</ele><time>2026-03-29T15:11:23Z</time></trkpt><trkpt lat="44.637776367251924" lon="11.700273962450758"><ele>7.0</ele><time>2026-03-29T15:11:24Z</time></trkpt><trkpt lat="44.63779264729379" lon="11.700032899643759"><ele>7.0</ele><time>2026-03-29T15:11:25Z</time></trkpt><trkpt lat="44.63780371271972" lon="11.699809519912472"><ele>7.0</ele><time>2026-03-29T15:11:26Z</time></trkpt><trkpt lat="44.63781166439021" lon="11.699596361339674"><ele>7.75</ele><time>2026-03-29T15:11:27Z</time></trkpt><trkpt lat="44.637816854196465" lon="11.699404459372694"><ele>8.5</ele><time>2026-03-29T15:11:28Z</time></trkpt><trkpt lat="44.63782072692127" lon="11.699220982420618"><ele>9.25</ele><time>2026-03-29T15:11:29Z</time></trkpt><trkpt lat="44.63782404792536" lon="11.699031374498727"><ele>10.0</ele><time>2026-03-29T15:11:30Z</time></trkpt><trkpt lat="44.63782362679336" lon="11.698838917063922"><ele>10.0</ele><time>2026-03-29T15:11:31Z</time></trkpt><trkpt lat="44.63782048044605" lon="11.698672897523448"><ele>10.0</ele><time>2026-03-29T15:11:32Z</time></trkpt><trkpt lat="44.63779967204663" lon="11.698517141091536"><ele>10.0</ele><time>2026-03-29T15:11:33Z</time></trkpt><trkpt lat="44.63780985408934" lon="11.698368990801553"><ele>10.0</ele><time>2026-03-29T15:11:34Z</time></trkpt><trkpt lat="44.63780829374364" lon="11.698234328466237"><ele>10.0</ele><time>2026-03-29T15:11:35Z</time></trkpt><trkpt lat="44.637792497726416" lon="11.698109578949458"><ele>9.8</ele><time>2026-03-29T15:11:36Z</time></trkpt><trkpt lat="44.637818764444965" lon="11.69799380431441"><ele>9.6</ele><time>2026-03-29T15:11:37Z</time></trkpt><trkpt lat="44.63784693404307" lon="11.697873163064987"><ele>9.4</ele><time>2026-03-29T15:11:38Z</time></trkpt><trkpt lat="44.63787759477435" lon="11.697751158048852"><ele>9.2</ele><time>2026-03-29T15:11:39Z</time></trkpt><trkpt lat="44.63793852528663" lon="11.697653879084756"><ele>9.0</ele><time>2026-03-29T15:11:40Z</time></trkpt><trkpt lat="44.638012256379" lon="11.697556378104947"><ele>8.8</ele><time>2026-03-29T15:11:41Z</time></trkpt><trkpt lat="44.638091010489184" lon="11.697452898458726"><ele>8.600000000000001</ele><time>2026-03-29T15:11:42Z</time></trkpt><trkpt lat="44.63816867576311" lon="11.697348950855902"><ele>8.4</ele><time>2026-03-29T15:11:43Z</time></trkpt><trkpt lat="44.63823373626397" lon="11.697239272141095"><ele>8.200000000000001</ele><time>2026-03-29T15:11:44Z</time></trkpt><trkpt lat="44.63828839443911" lon="11.69711471001858"><ele>8.0</ele><time>2026-03-29T15:11:45Z</time></trkpt><trkpt lat="44.63833287282295" lon="11.69700880868715"><ele>7.999999999999999</ele><time>2026-03-29T15:11:46Z</time></trkpt><trkpt lat="44.63837297369254" lon="11.696919958663015"><ele>8.0</ele><time>2026-03-29T15:11:47Z</time></trkpt><trkpt lat="44.63841917290337" lon="11.69684846742032"><ele>8.0</ele><time>2026-03-29T15:11:48Z</time></trkpt><trkpt lat="44.638461061602676" lon="11.696781163581393"><ele>8.0</ele><time>2026-03-29T15:11:49Z</time></trkpt><trkpt lat="44.638550537771636" lon="11.696678524887684"><ele>7.999999999999999</ele><time>2026-03-29T15:11:51Z</time></trkpt><trkpt lat="44.63861791050858" lon="11.696590073959033"><ele>8.0</ele><time>2026-03-29T15:11:53Z</time></trkpt><trkpt lat="44.63867509234739" lon="11.69652532394924"><ele>7.25</ele><time>2026-03-29T15:11:55Z</time></trkpt><trkpt lat="44.63871238285889" lon="11.696263290271899"><ele>6.5</ele><time>2026-03-29T15:18:34Z</time></trkpt><trkpt lat="44.6387002887339" lon="11.696098858647057"><ele>5.75</ele><time>2026-03-29T15:18:36Z</time></trkpt><trkpt lat="44.63868931148654" lon="11.695962075320015"><ele>5.0</ele><time>2026-03-29T15:18:37Z</time></trkpt><trkpt lat="44.638711930846604" lon="11.695819837285418"><ele>4.75</ele><time>2026-03-29T15:18:38Z</time></trkpt><trkpt lat="44.638705461282846" lon="11.69570094217945"><ele>4.5</ele><time>2026-03-29T15:18:39Z</time></trkpt><trkpt lat="44.63869732335483" lon="11.695559270375258"><ele>4.25</ele><time>2026-03-29T15:18:40Z</time></trkpt><trkpt lat="44.63868691973262" lon="11.695385634933722"><ele>4.0</ele><time>2026-03-29T15:18:41Z</time></trkpt><trkpt lat="44.63867446609524" lon="11.69517468391586"><ele>4.0</ele><time>2026-03-29T15:18:42Z</time></trkpt><trkpt lat="44.638663162294094" lon="11.694965753690296"><ele>4.0</ele><time>2026-03-29T15:18:43Z</time></trkpt><trkpt lat="44.63865349871545" lon="11.694787139679569"><ele>4.0</ele><time>2026-03-29T15:18:44Z</time></trkpt><trkpt lat="44.63862839528668" lon="11.694636972604775"><ele>4.0</ele><time>2026-03-29T15:18:45Z</time></trkpt><trkpt lat="44.6386281070617" lon="11.694501724989198"><ele>5.2</ele><time>2026-03-29T15:18:46Z</time></trkpt><trkpt lat="44.638618877245655" lon="11.694365828419508"><ele>6.4</ele><time>2026-03-29T15:18:47Z</time></trkpt><trkpt lat="44.63860794201113" lon="11.694232025656039"><ele>7.6</ele><time>2026-03-29T15:18:48Z</time></trkpt><trkpt lat="44.638597373738726" lon="11.694088632447817"><ele>8.8</ele><time>2026-03-29T15:18:49Z</time></trkpt><trkpt lat="44.638584812195575" lon="11.69393801631364"><ele>10.0</ele><time>2026-03-29T15:18:50Z</time></trkpt><trkpt lat="44.63857302550031" lon="11.69378763904317"><ele>10.0</ele><time>2026-03-29T15:18:51Z</time></trkpt><trkpt lat="44.638560171168045" lon="11.693640835034106"><ele>10.0</ele><time>2026-03-29T15:18:52Z</time></trkpt><trkpt lat="44.63854726162466" lon="11.693496153210626"><ele>10.0</ele><time>2026-03-29T15:18:53Z</time></trkpt><trkpt lat="44.63854649106469" lon="11.693372555072658"><ele>10.0</ele><time>2026-03-29T15:18:54Z</time></trkpt><trkpt lat="44.6385348127342" lon="11.693263709199423"><ele>10.0</ele><time>2026-03-29T15:18:55Z</time></trkpt><trkpt lat="44.63852675460647" lon="11.693169516047965"><ele>10.0</ele><time>2026-03-29T15:18:56Z</time></trkpt><trkpt lat="44.63851408278863" lon="11.693008019499908"><ele>10.0</ele><time>2026-03-29T15:18:58Z</time></trkpt><trkpt lat="44.638507578049506" lon="11.692915647112319"><ele>10.0</ele><time>2026-03-29T15:18:59Z</time></trkpt><trkpt lat="44.638521876667774" lon="11.692771551508049"><ele>10.0</ele><time>2026-03-29T15:19:01Z</time></trkpt><trkpt lat="44.63855636422726" lon="11.692666699805628"><ele>10.0</ele><time>2026-03-29T15:19:03Z</time></trkpt><trkpt lat="44.63859777764321" lon="11.692513605766257"><ele>10.0</ele><time>2026-03-29T15:19:05Z</time></trkpt><trkpt lat="44.63861458722553" lon="11.692406745273749"><ele>10.0</ele><time>2026-03-29T15:19:06Z</time></trkpt><trkpt lat="44.63864050851366" lon="11.692297119619822"><ele>8.833333333333334</ele><time>2026-03-29T15:19:07Z</time></trkpt><trkpt lat="44.63865708396675" lon="11.692170697449738"><ele>7.666666666666667</ele><time>2026-03-29T15:19:08Z</time></trkpt><trkpt lat="44.63867777102609" lon="11.692052924956883"><ele>6.5</ele><time>2026-03-29T15:19:09Z</time></trkpt><trkpt lat="44.63869325701115" lon="11.691942594110344"><ele>5.333333333333334</ele><time>2026-03-29T15:19:10Z</time></trkpt><trkpt lat="44.638706068928045" lon="11.691843709085246"><ele>4.166666666666667</ele><time>2026-03-29T15:19:11Z</time></trkpt><trkpt lat="44.638718418647905" lon="11.691755376152244"><ele>3.0</ele><time>2026-03-29T15:19:12Z</time></trkpt><trkpt lat="44.63872881948907" lon="11.691661382538937"><ele>3.0</ele><time>2026-03-29T15:19:13Z</time></trkpt><trkpt lat="44.63873854367793" lon="11.691555432173276"><ele>3.0</ele><time>2026-03-29T15:19:14Z</time></trkpt><trkpt lat="44.63874605258266" lon="11.691452319616909"><ele>3.0</ele><time>2026-03-29T15:19:15Z</time></trkpt><trkpt lat="44.63876356894082" lon="11.691366218778096"><ele>3.0</ele><time>2026-03-29T15:19:16Z</time></trkpt><trkpt lat="44.63877471572886" lon="11.691208387277348"><ele>3.0</ele><time>2026-03-29T15:19:18Z</time></trkpt><trkpt lat="44.63879869728253" lon="11.691084224239438"><ele>3.0</ele><time>2026-03-29T15:19:20Z</time></trkpt><trkpt lat="44.63880091438877" lon="11.690966277746844"><ele>3.1666666666666665</ele><time>2026-03-29T15:19:24Z</time></trkpt><trkpt lat="44.63891882492244" lon="11.690935573913887"><ele>3.333333333333333</ele><time>2026-03-29T15:19:25Z</time></trkpt><trkpt lat="44.638978758974915" lon="11.69090143098844"><ele>3.5</ele><time>2026-03-29T15:19:26Z</time></trkpt><trkpt lat="44.63904446912509" lon="11.690869964956605"><ele>3.6666666666666665</ele><time>2026-03-29T15:19:27Z</time></trkpt><trkpt lat="44.63912334854531" lon="11.690838688268311"><ele>3.833333333333333</ele><time>2026-03-29T15:19:28Z</time></trkpt><trkpt lat="44.639224240873844" lon="11.69079509788665"><ele>4.0</ele><time>2026-03-29T15:19:29Z</time></trkpt><trkpt lat="44.639321844255235" lon="11.690747566379658"><ele>4.0</ele><time>2026-03-29T15:19:30Z</time></trkpt><trkpt lat="44.63942898746693" lon="11.690696125248696"><ele>4.0</ele><time>2026-03-29T15:19:31Z</time></trkpt><trkpt lat="44.63954957902783" lon="11.690639117596815"><ele>4.0</ele><time>2026-03-29T15:19:32Z</time></trkpt><trkpt lat="44.63968157865377" lon="11.690582220218877"><ele>4.0</ele><time>2026-03-29T15:19:33Z</time></trkpt><trkpt lat="44.639810748419606" lon="11.69054109483946"><ele>3.75</ele><time>2026-03-29T15:19:34Z</time></trkpt><trkpt lat="44.639937798385205" lon="11.690487357072124"><ele>3.5</ele><time>2026-03-29T15:19:35Z</time></trkpt><trkpt lat="44.64007726438893" lon="11.690436563253995"><ele>3.25</ele><time>2026-03-29T15:19:36Z</time></trkpt><trkpt lat="44.64022052417004" lon="11.690403199298686"><ele>3.0</ele><time>2026-03-29T15:19:37Z</time></trkpt><trkpt lat="44.64036657392141" lon="11.690373594448397"><ele>2.6666666666666665</ele><time>2026-03-29T15:19:38Z</time></trkpt><trkpt lat="44.64052180522151" lon="11.690356942919655"><ele>2.333333333333333</ele><time>2026-03-29T15:19:39Z</time></trkpt><trkpt lat="44.640678690971605" lon="11.690354395034785"><ele>2.0</ele><time>2026-03-29T15:19:40Z</time></trkpt><trkpt lat="44.64083596560218" lon="11.690363381610327"><ele>2.0</ele><time>2026-03-29T15:19:41Z</time></trkpt><trkpt lat="44.640991588979986" lon="11.690381048662305"><ele>2.0</ele><time>2026-03-29T15:19:42Z</time></trkpt><trkpt lat="44.64115136868828" lon="11.690397992961037"><ele>2.0</ele><time>2026-03-29T15:19:43Z</time></trkpt><trkpt lat="44.64131575948847" lon="11.690420629188296"><ele>2.0</ele><time>2026-03-29T15:19:44Z</time></trkpt><trkpt lat="44.641483253699136" lon="11.6904538472268"><ele>2.0</ele><time>2026-03-29T15:19:45Z</time></trkpt><trkpt lat="44.641645948770886" lon="11.690490098033198"><ele>2.0</ele><time>2026-03-29T15:19:46Z</time></trkpt><trkpt lat="44.64181152403637" lon="11.690538869967888"><ele>3.0</ele><time>2026-03-29T15:19:47Z</time></trkpt><trkpt lat="44.64197336237093" lon="11.69058656073176"><ele>4.0</ele><time>2026-03-29T15:19:48Z</time></trkpt><trkpt lat="44.64213956243598" lon="11.690625585243883"><ele>5.0</ele><time>2026-03-29T15:19:49Z</time></trkpt><trkpt lat="44.642302668841864" lon="11.690644158147263"><ele>5.0</ele><time>2026-03-29T15:19:50Z</time></trkpt><trkpt lat="44.64247035563541" lon="11.690654339884087"><ele>5.0</ele><time>2026-03-29T15:19:51Z</time></trkpt><trkpt lat="44.642639104107566" lon="11.690662293476697"><ele>5.0</ele><time>2026-03-29T15:19:52Z</time></trkpt><trkpt lat="44.6428100794584" lon="11.690682471042447"><ele>4.333333333333334</ele><time>2026-03-29T15:19:53Z</time></trkpt><trkpt lat="44.642975241812536" lon="11.690713042610529"><ele>3.666666666666667</ele><time>2026-03-29T15:19:54Z</time></trkpt><trkpt lat="44.64314517939355" lon="11.690746654014454"><ele>3.0</ele><time>2026-03-29T15:19:55Z</time></trkpt><trkpt lat="44.64331483867485" lon="11.690783908327303"><ele>3.0</ele><time>2026-03-29T15:19:56Z</time></trkpt><trkpt lat="44.64348145288267" lon="11.690823927182945"><ele>3.0</ele><time>2026-03-29T15:19:57Z</time></trkpt><trkpt lat="44.6436486525747" lon="11.690866032955602"><ele>3.0</ele><time>2026-03-29T15:19:58Z</time></trkpt><trkpt lat="44.64381533133806" lon="11.690905617448465"><ele>3.0</ele><time>2026-03-29T15:19:59Z</time></trkpt><trkpt lat="44.64398017319381" lon="11.690948092935939"><ele>3.0</ele><time>2026-03-29T15:20:00Z</time></trkpt><trkpt lat="44.64414702879929" lon="11.690992615716695"><ele>3.0</ele><time>2026-03-29T15:20:01Z</time></trkpt><trkpt lat="44.644313637242796" lon="11.691043297930864"><ele>2.6666666666666665</ele><time>2026-03-29T15:20:02Z</time></trkpt><trkpt lat="44.64448387520044" lon="11.691104909644958"><ele>2.333333333333333</ele><time>2026-03-29T15:20:03Z</time></trkpt><trkpt lat="44.64464465898526" lon="11.691179200648685"><ele>2.0</ele><time>2026-03-29T15:20:04Z</time></trkpt><trkpt lat="44.6448054615936" lon="11.691255636440589"><ele>2.0</ele><time>2026-03-29T15:20:05Z</time></trkpt><trkpt lat="44.64495774613239" lon="11.691318814565836"><ele>2.0</ele><time>2026-03-29T15:20:06Z</time></trkpt><trkpt lat="44.64510407398219" lon="11.691375280588986"><ele>2.0</ele><time>2026-03-29T15:20:07Z</time></trkpt><trkpt lat="44.645257785080304" lon="11.69143237978341"><ele>2.333333333333333</ele><time>2026-03-29T15:20:08Z</time></trkpt><trkpt lat="44.645423327619184" lon="11.691481364136468"><ele>2.6666666666666665</ele><time>2026-03-29T15:20:09Z</time></trkpt><trkpt lat="44.645588854351175" lon="11.69151033289159"><ele>3.0</ele><time>2026-03-29T15:20:10Z</time></trkpt><trkpt lat="44.64576056592296" lon="11.691534218430839"><ele>3.0</ele><time>2026-03-29T15:20:11Z</time></trkpt><trkpt lat="44.645929377969146" lon="11.691561200301006"><ele>3.0</ele><time>2026-03-29T15:20:12Z</time></trkpt><trkpt lat="44.64609286938629" lon="11.691596675355797"><ele>3.0</ele><time>2026-03-29T15:20:13Z</time></trkpt><trkpt lat="44.64625687048299" lon="11.691643740826708"><ele>3.333333333333333</ele><time>2026-03-29T15:20:14Z</time></trkpt><trkpt lat="44.646418366404944" lon="11.691698299806635"><ele>3.6666666666666665</ele><time>2026-03-29T15:20:15Z</time></trkpt><trkpt lat="44.64657742737587" lon="11.691763640793562"><ele>4.0</ele><time>2026-03-29T15:20:16Z</time></trkpt><trkpt lat="44.64672863865509" lon="11.691830380446357"><ele>4.0</ele><time>2026-03-29T15:20:17Z</time></trkpt><trkpt lat="44.646881136453395" lon="11.69191165648049"><ele>4.0</ele><time>2026-03-29T15:20:18Z</time></trkpt><trkpt lat="44.647027679678544" lon="11.692013296838685"><ele>4.0</ele><time>2026-03-29T15:20:19Z</time></trkpt><trkpt lat="44.64716770291205" lon="11.69213691706057"><ele>4.0</ele><time>2026-03-29T15:20:20Z</time></trkpt><trkpt lat="44.647302495054205" lon="11.692268062114305"><ele>4.0</ele><time>2026-03-29T15:20:21Z</time></trkpt><trkpt lat="44.64743995440843" lon="11.692411523948492"><ele>4.0</ele><time>2026-03-29T15:20:22Z</time></trkpt><trkpt lat="44.64757571547223" lon="11.69255909172874"><ele>4.0</ele><time>2026-03-29T15:20:23Z</time></trkpt><trkpt lat="44.64770354764146" lon="11.692704758425979"><ele>4.0</ele><time>2026-03-29T15:20:24Z</time></trkpt><trkpt lat="44.64783412951098" lon="11.69285101339302"><ele>4.0</ele><time>2026-03-29T15:20:25Z</time></trkpt><trkpt lat="44.64797141645417" lon="11.69299613994206"><ele>3.333333333333333</ele><time>2026-03-29T15:20:26Z</time></trkpt><trkpt lat="44.64810909899483" lon="11.693143964127362"><ele>2.6666666666666665</ele><time>2026-03-29T15:20:27Z</time></trkpt><trkpt lat="44.648246108833234" lon="11.693290601150595"><ele>2.0</ele><time>2026-03-29T15:20:28Z</time></trkpt><trkpt lat="44.64837635930012" lon="11.693433690285916"><ele>2.0</ele><time>2026-03-29T15:20:29Z</time></trkpt><trkpt lat="44.64851002700026" lon="11.693581408712742"><ele>2.0</ele><time>2026-03-29T15:20:30Z</time></trkpt><trkpt lat="44.648643116312954" lon="11.693723644967896"><ele>2.0</ele><time>2026-03-29T15:20:31Z</time></trkpt><trkpt lat="44.648770618557556" lon="11.693860394868624"><ele>3.0</ele><time>2026-03-29T15:20:32Z</time></trkpt><trkpt lat="44.64889957764709" lon="11.693993546576213"><ele>4.0</ele><time>2026-03-29T15:20:33Z</time></trkpt><trkpt lat="44.649029640193405" lon="11.694114075215516"><ele>5.0</ele><time>2026-03-29T15:20:34Z</time></trkpt><trkpt lat="44.64916509373934" lon="11.694222627020931"><ele>5.0</ele><time>2026-03-29T15:20:35Z</time></trkpt><trkpt lat="44.64930832014366" lon="11.69432906432716"><ele>5.0</ele><time>2026-03-29T15:20:36Z</time></trkpt><trkpt lat="44.64945992897758" lon="11.694436475194946"><ele>5.0</ele><time>2026-03-29T15:20:37Z</time></trkpt><trkpt lat="44.64961409207871" lon="11.694535674207936"><ele>5.0</ele><time>2026-03-29T15:20:38Z</time></trkpt><trkpt lat="44.64977002750562" lon="11.694627592718389"><ele>5.0</ele><time>2026-03-29T15:20:39Z</time></trkpt><trkpt lat="44.64993071352624" lon="11.694715087394309"><ele>5.0</ele><time>2026-03-29T15:20:40Z</time></trkpt><trkpt lat="44.65009467132046" lon="11.694808260416846"><ele>5.0</ele><time>2026-03-29T15:20:41Z</time></trkpt><trkpt lat="44.65025911177001" lon="11.694898246103152"><ele>5.0</ele><time>2026-03-29T15:20:42Z</time></trkpt><trkpt lat="44.650422843215615" lon="11.694996316835018"><ele>5.0</ele><time>2026-03-29T15:20:43Z</time></trkpt><trkpt lat="44.65058446416637" lon="11.695108753464849"><ele>4.666666666666667</ele><time>2026-03-29T15:20:44Z</time></trkpt><trkpt lat="44.65074269773226" lon="11.6952246058905"><ele>4.333333333333333</ele><time>2026-03-29T15:20:45Z</time></trkpt><trkpt lat="44.650898244495984" lon="11.695336162423757"><ele>4.0</ele><time>2026-03-29T15:20:46Z</time></trkpt><trkpt lat="44.65105169631641" lon="11.69544432663084"><ele>4.333333333333333</ele><time>2026-03-29T15:20:47Z</time></trkpt><trkpt lat="44.651204661945606" lon="11.695555316169255"><ele>4.666666666666667</ele><time>2026-03-29T15:20:48Z</time></trkpt><trkpt lat="44.651358033293484" lon="11.69566727650527"><ele>5.0</ele><time>2026-03-29T15:20:49Z</time></trkpt><trkpt lat="44.651506911932216" lon="11.695773871695124"><ele>5.0</ele><time>2026-03-29T15:20:50Z</time></trkpt><trkpt lat="44.651653492648975" lon="11.695882296448211"><ele>5.0</ele><time>2026-03-29T15:20:51Z</time></trkpt><trkpt lat="44.651788606425114" lon="11.695996677178673"><ele>5.0</ele><time>2026-03-29T15:20:52Z</time></trkpt><trkpt lat="44.651912920301896" lon="11.696115439463313"><ele>4.75</ele><time>2026-03-29T15:20:53Z</time></trkpt><trkpt lat="44.65202642004889" lon="11.696229595882553"><ele>4.5</ele><time>2026-03-29T15:20:54Z</time></trkpt><trkpt lat="44.65213688246553" lon="11.696342252604888"><ele>4.25</ele><time>2026-03-29T15:20:55Z</time></trkpt><trkpt lat="44.65225448229645" lon="11.696442991412958"><ele>4.0</ele><time>2026-03-29T15:20:56Z</time></trkpt><trkpt lat="44.652387304585524" lon="11.696529030777143"><ele>4.0</ele><time>2026-03-29T15:20:57Z</time></trkpt><trkpt lat="44.652535467116714" lon="11.696591005013394"><ele>4.0</ele><time>2026-03-29T15:20:58Z</time></trkpt><trkpt lat="44.65269272384896" lon="11.696638393174354"><ele>4.0</ele><time>2026-03-29T15:20:59Z</time></trkpt><trkpt lat="44.652856996642605" lon="11.696669910675817"><ele>4.333333333333333</ele><time>2026-03-29T15:21:00Z</time></trkpt><trkpt lat="44.65302504233902" lon="11.69669904588474"><ele>4.666666666666667</ele><time>2026-03-29T15:21:01Z</time></trkpt><trkpt lat="44.653188429371525" lon="11.696724913635176"><ele>5.0</ele><time>2026-03-29T15:21:02Z</time></trkpt><trkpt lat="44.653344123012936" lon="11.696746428074949"><ele>5.0</ele><time>2026-03-29T15:21:03Z</time></trkpt><trkpt lat="44.6535017993714" lon="11.696766867310929"><ele>5.0</ele><time>2026-03-29T15:21:04Z</time></trkpt><trkpt lat="44.65365896433426" lon="11.696801051639884"><ele>5.0</ele><time>2026-03-29T15:21:05Z</time></trkpt><trkpt lat="44.653815899909176" lon="11.696858385332861"><ele>4.666666666666667</ele><time>2026-03-29T15:21:06Z</time></trkpt><trkpt lat="44.65397158394907" lon="11.69693313909884"><ele>4.333333333333333</ele><time>2026-03-29T15:21:07Z</time></trkpt><trkpt lat="44.65412406454869" lon="11.697014883821382"><ele>4.0</ele><time>2026-03-29T15:21:08Z</time></trkpt><trkpt lat="44.65426582716296" lon="11.69709600515853"><ele>4.0</ele><time>2026-03-29T15:21:09Z</time></trkpt><trkpt lat="44.6543924074843" lon="11.6971696574251"><ele>4.0</ele><time>2026-03-29T15:21:10Z</time></trkpt><trkpt lat="44.65451485853142" lon="11.697230850395286"><ele>4.0</ele><time>2026-03-29T15:21:11Z</time></trkpt><trkpt lat="44.654639835487345" lon="11.697288521241028"><ele>4.0</ele><time>2026-03-29T15:21:12Z</time></trkpt><trkpt lat="44.65477166750927" lon="11.697335419950091"><ele>4.5</ele><time>2026-03-29T15:21:13Z</time></trkpt><trkpt lat="44.65490153114221" lon="11.697368924037402"><ele>5.0</ele><time>2026-03-29T15:21:14Z</time></trkpt><trkpt lat="44.655031710101476" lon="11.697402404024386"><ele>5.5</ele><time>2026-03-29T15:21:15Z</time></trkpt><trkpt lat="44.655152701914744" lon="11.69742479366602"><ele>6.0</ele><time>2026-03-29T15:21:16Z</time></trkpt><trkpt lat="44.65527252436682" lon="11.697450208383788"><ele>5.5</ele><time>2026-03-29T15:21:17Z</time></trkpt><trkpt lat="44.65539072672381" lon="11.69749864129257"><ele>5.0</ele><time>2026-03-29T15:21:18Z</time></trkpt><trkpt lat="44.65550645274772" lon="11.697566329419201"><ele>4.5</ele><time>2026-03-29T15:21:18.999Z</time></trkpt><trkpt lat="44.65561756043942" lon="11.697651571984139"><ele>4.0</ele><time>2026-03-29T15:21:19.999Z</time></trkpt><trkpt lat="44.65573017365847" lon="11.697756303138325"><ele>4.0</ele><time>2026-03-29T15:21:20.999Z</time></trkpt><trkpt lat="44.65584381203459" lon="11.697881070838845"><ele>4.0</ele><time>2026-03-29T15:21:21.999Z</time></trkpt><trkpt lat="44.655955905991384" lon="11.698017143462604"><ele>4.0</ele><time>2026-03-29T15:21:22.999Z</time></trkpt><trkpt lat="44.656071241722934" lon="11.698159471055448"><ele>4.0</ele><time>2026-03-29T15:21:23.999Z</time></trkpt><trkpt lat="44.65619506098555" lon="11.698299229060668"><ele>4.0</ele><time>2026-03-29T15:21:24.999Z</time></trkpt><trkpt lat="44.65631670933684" lon="11.698438318126499"><ele>4.0</ele><time>2026-03-29T15:21:25.999Z</time></trkpt><trkpt lat="44.656443899519246" lon="11.698586904139136"><ele>4.0</ele><time>2026-03-29T15:21:26.999Z</time></trkpt><trkpt lat="44.65657728186296" lon="11.698738571524853"><ele>3.6666666666666665</ele><time>2026-03-29T15:21:27.999Z</time></trkpt><trkpt lat="44.65671299911094" lon="11.69889595210331"><ele>3.333333333333333</ele><time>2026-03-29T15:21:28.999Z</time></trkpt><trkpt lat="44.65685542676176" lon="11.699064976426733"><ele>3.0</ele><time>2026-03-29T15:21:29.999Z</time></trkpt><trkpt lat="44.65699438894054" lon="11.699226811090792"><ele>3.0</ele><time>2026-03-29T15:21:30.999Z</time></trkpt><trkpt lat="44.65713348480484" lon="11.699390015238654"><ele>3.0</ele><time>2026-03-29T15:21:31.999Z</time></trkpt><trkpt lat="44.65728516812932" lon="11.699557324522564"><ele>3.0</ele><time>2026-03-29T15:21:32.999Z</time></trkpt><trkpt lat="44.657427062978094" lon="11.699722869698673"><ele>3.0</ele><time>2026-03-29T15:21:33.999Z</time></trkpt><trkpt lat="44.657568245124494" lon="11.699884096493053"><ele>3.0</ele><time>2026-03-29T15:21:34.999Z</time></trkpt><trkpt lat="44.6576999483991" lon="11.700036882863653"><ele>3.0</ele><time>2026-03-29T15:21:35.999Z</time></trkpt><trkpt lat="44.65782406436183" lon="11.700184046734114"><ele>3.666666666666667</ele><time>2026-03-29T15:21:36.999Z</time></trkpt><trkpt lat="44.657947674933894" lon="11.700329727406467"><ele>4.333333333333334</ele><time>2026-03-29T15:21:37.999Z</time></trkpt><trkpt lat="44.658068715994226" lon="11.70047051489765"><ele>5.0</ele><time>2026-03-29T15:21:38.999Z</time></trkpt><trkpt lat="44.65819200488477" lon="11.700610992435491"><ele>5.0</ele><time>2026-03-29T15:21:39.999Z</time></trkpt><trkpt lat="44.65831515824204" lon="11.700750703118443"><ele>5.0</ele><time>2026-03-29T15:21:40.999Z</time></trkpt><trkpt lat="44.65843649180151" lon="11.700895829819906"><ele>5.0</ele><time>2026-03-29T15:21:41.999Z</time></trkpt><trkpt lat="44.65855836561869" lon="11.701037493037616"><ele>4.666666666666667</ele><time>2026-03-29T15:21:42.999Z</time></trkpt><trkpt lat="44.65868750718579" lon="11.701166570962197"><ele>4.333333333333333</ele><time>2026-03-29T15:21:43.999Z</time></trkpt><trkpt lat="44.658821377262974" lon="11.701281106638405"><ele>4.0</ele><time>2026-03-29T15:21:44.999Z</time></trkpt><trkpt lat="44.65896417576234" lon="11.701395012625616"><ele>4.0</ele><time>2026-03-29T15:21:46Z</time></trkpt><trkpt lat="44.65910943551474" lon="11.70150438954665"><ele>4.0</ele><time>2026-03-29T15:21:47Z</time></trkpt><trkpt lat="44.659259335953124" lon="11.7016121746637"><ele>4.0</ele><time>2026-03-29T15:21:48Z</time></trkpt><trkpt lat="44.65941251383284" lon="11.701715416936159"><ele>4.0</ele><time>2026-03-29T15:21:49Z</time></trkpt><trkpt lat="44.65956353060645" lon="11.701815686949958"><ele>4.0</ele><time>2026-03-29T15:21:50Z</time></trkpt><trkpt lat="44.65971394068719" lon="11.70191549699659"><ele>4.0</ele><time>2026-03-29T15:21:51Z</time></trkpt><trkpt lat="44.65986048389141" lon="11.702015508693329"><ele>3.75</ele><time>2026-03-29T15:21:52Z</time></trkpt><trkpt lat="44.660004097412205" lon="11.702107678720912"><ele>3.5</ele><time>2026-03-29T15:21:53Z</time></trkpt><trkpt lat="44.66013686640179" lon="11.702188717648975"><ele>3.25</ele><time>2026-03-29T15:21:54Z</time></trkpt><trkpt lat="44.66026381927992" lon="11.702266233809146"><ele>3.0</ele><time>2026-03-29T15:21:55Z</time></trkpt><trkpt lat="44.660377275815506" lon="11.702341297292385"><ele>3.0</ele><time>2026-03-29T15:21:56Z</time></trkpt><trkpt lat="44.66048552751032" lon="11.702410231277607"><ele>3.0</ele><time>2026-03-29T15:21:57Z</time></trkpt><trkpt lat="44.660597858020154" lon="11.702471292504276"><ele>3.0</ele><time>2026-03-29T15:21:58Z</time></trkpt><trkpt lat="44.66071390159853" lon="11.702524764479644"><ele>3.0</ele><time>2026-03-29T15:21:59Z</time></trkpt><trkpt lat="44.66083476445498" lon="11.702565396089774"><ele>3.0</ele><time>2026-03-29T15:22:00Z</time></trkpt><trkpt lat="44.660958430049924" lon="11.702593655565783"><ele>3.0</ele><time>2026-03-29T15:22:01Z</time></trkpt><trkpt lat="44.66108201642872" lon="11.70259936284505"><ele>3.0</ele><time>2026-03-29T15:22:02Z</time></trkpt><trkpt lat="44.661207718248036" lon="11.702588966011406"><ele>3.0</ele><time>2026-03-29T15:22:03Z</time></trkpt><trkpt lat="44.66133200967857" lon="11.702569000994137"><ele>3.25</ele><time>2026-03-29T15:22:04Z</time></trkpt><trkpt lat="44.6614529733476" lon="11.702520772480794"><ele>3.5</ele><time>2026-03-29T15:22:05Z</time></trkpt><trkpt lat="44.66156563493465" lon="11.702449422974903"><ele>3.75</ele><time>2026-03-29T15:22:06Z</time></trkpt><trkpt lat="44.66168247407166" lon="11.702359420778851"><ele>4.0</ele><time>2026-03-29T15:22:07Z</time></trkpt><trkpt lat="44.661801725176105" lon="11.702257043563161"><ele>4.0</ele><time>2026-03-29T15:22:08Z</time></trkpt><trkpt lat="44.66191910721295" lon="11.702152157094899"><ele>4.0</ele><time>2026-03-29T15:22:09Z</time></trkpt><trkpt lat="44.662029774262294" lon="11.702050319920001"><ele>4.0</ele><time>2026-03-29T15:22:10Z</time></trkpt><trkpt lat="44.66214164483779" lon="11.70195405779689"><ele>4.0</ele><time>2026-03-29T15:22:11Z</time></trkpt><trkpt lat="44.66225019836152" lon="11.701854980407253"><ele>5.0</ele><time>2026-03-29T15:22:12Z</time></trkpt><trkpt lat="44.662354878793955" lon="11.701759902537553"><ele>6.0</ele><time>2026-03-29T15:22:13Z</time></trkpt><trkpt lat="44.66246116259722" lon="11.701661880727093"><ele>7.0</ele><time>2026-03-29T15:22:14Z</time></trkpt><trkpt lat="44.66257461765578" lon="11.701582440962284"><ele>8.0</ele><time>2026-03-29T15:22:15Z</time></trkpt><trkpt lat="44.66269253216372" lon="11.701521617510526"><ele>7.5</ele><time>2026-03-29T15:22:16Z</time></trkpt><trkpt lat="44.66281703930616" lon="11.7014836311741"><ele>7.0</ele><time>2026-03-29T15:22:17Z</time></trkpt><trkpt lat="44.662950294140416" lon="11.701455803936769"><ele>6.5</ele><time>2026-03-29T15:22:18Z</time></trkpt><trkpt lat="44.66308944504222" lon="11.7014288016761"><ele>6.0</ele><time>2026-03-29T15:22:19Z</time></trkpt><trkpt lat="44.663230902996204" lon="11.701386684123102"><ele>6.0</ele><time>2026-03-29T15:22:20Z</time></trkpt><trkpt lat="44.66336718527918" lon="11.701322308176387"><ele>6.0</ele><time>2026-03-29T15:22:21Z</time></trkpt><trkpt lat="44.66350484165305" lon="11.70126126581452"><ele>6.0</ele><time>2026-03-29T15:22:22Z</time></trkpt><trkpt lat="44.66362757978512" lon="11.701199764968388"><ele>6.0</ele><time>2026-03-29T15:22:23Z</time></trkpt><trkpt lat="44.663747930833665" lon="11.701152949630606"><ele>6.0</ele><time>2026-03-29T15:22:24Z</time></trkpt><trkpt lat="44.66387573375852" lon="11.701104132432102"><ele>6.0</ele><time>2026-03-29T15:22:25Z</time></trkpt><trkpt lat="44.66401589138083" lon="11.701065651965033"><ele>6.0</ele><time>2026-03-29T15:22:26Z</time></trkpt><trkpt lat="44.66415996446824" lon="11.701054571933096"><ele>6.0</ele><time>2026-03-29T15:22:27Z</time></trkpt><trkpt lat="44.66430197942913" lon="11.701069624515045"><ele>6.0</ele><time>2026-03-29T15:22:28Z</time></trkpt><trkpt lat="44.664442733851224" lon="11.701090652022629"><ele>6.0</ele><time>2026-03-29T15:22:29Z</time></trkpt><trkpt lat="44.66458042152641" lon="11.701089568725063"><ele>6.0</ele><time>2026-03-29T15:22:30Z</time></trkpt><trkpt lat="44.66472225999776" lon="11.70107832397539"><ele>6.0</ele><time>2026-03-29T15:22:31Z</time></trkpt><trkpt lat="44.66486345166121" lon="11.701059465550811"><ele>6.0</ele><time>2026-03-29T15:22:32Z</time></trkpt><trkpt lat="44.66500541422686" lon="11.701017824056457"><ele>6.0</ele><time>2026-03-29T15:22:33Z</time></trkpt><trkpt lat="44.66514129414583" lon="11.700966294379597"><ele>6.0</ele><time>2026-03-29T15:22:34Z</time></trkpt><trkpt lat="44.66527195446232" lon="11.700909830840962"><ele>6.0</ele><time>2026-03-29T15:22:35Z</time></trkpt><trkpt lat="44.66539794642666" lon="11.700857920860432"><ele>6.25</ele><time>2026-03-29T15:22:36Z</time></trkpt><trkpt lat="44.665532411852816" lon="11.700803332775862"><ele>6.5</ele><time>2026-03-29T15:22:37Z</time></trkpt><trkpt lat="44.6656598173761" lon="11.700742854585663"><ele>6.75</ele><time>2026-03-29T15:22:38Z</time></trkpt><trkpt lat="44.66578764573403" lon="11.700675900325537"><ele>7.0</ele><time>2026-03-29T15:22:39Z</time></trkpt><trkpt lat="44.66591094309187" lon="11.700603278428476"><ele>7.0</ele><time>2026-03-29T15:22:40Z</time></trkpt><trkpt lat="44.66603240289444" lon="11.700535563595986"><ele>7.0</ele><time>2026-03-29T15:22:41Z</time></trkpt><trkpt lat="44.666156835236045" lon="11.700464833193498"><ele>7.0</ele><time>2026-03-29T15:22:42Z</time></trkpt><trkpt lat="44.66627920118512" lon="11.700394970839183"><ele>7.0</ele><time>2026-03-29T15:22:43Z</time></trkpt><trkpt lat="44.66640221638953" lon="11.700330089913463"><ele>7.0</ele><time>2026-03-29T15:22:44Z</time></trkpt><trkpt lat="44.66651933285392" lon="11.700265323027374"><ele>7.0</ele><time>2026-03-29T15:22:45Z</time></trkpt><trkpt lat="44.66662464001709" lon="11.700209093187825"><ele>7.0</ele><time>2026-03-29T15:22:46Z</time></trkpt><trkpt lat="44.66672577143269" lon="11.700158039320396"><ele>7.0</ele><time>2026-03-29T15:22:47Z</time></trkpt><trkpt lat="44.66683347685149" lon="11.700109543524503"><ele>7.199999999999999</ele><time>2026-03-29T15:22:48Z</time></trkpt><trkpt lat="44.66693334743415" lon="11.700058109394822"><ele>7.3999999999999995</ele><time>2026-03-29T15:22:49Z</time></trkpt><trkpt lat="44.66702989850651" lon="11.700004086430605"><ele>7.6000000000000005</ele><time>2026-03-29T15:22:50Z</time></trkpt><trkpt lat="44.66713167051774" lon="11.699939434957807"><ele>7.800000000000001</ele><time>2026-03-29T15:22:51Z</time></trkpt><trkpt lat="44.667236421419574" lon="11.699856796749689"><ele>8.0</ele><time>2026-03-29T15:22:52Z</time></trkpt><trkpt lat="44.6673414621692" lon="11.699764976137857"><ele>7.75</ele><time>2026-03-29T15:22:53Z</time></trkpt><trkpt lat="44.667441266715095" lon="11.699675048057184"><ele>7.5</ele><time>2026-03-29T15:22:54Z</time></trkpt><trkpt lat="44.667549093786164" lon="11.69958953348017"><ele>7.25</ele><time>2026-03-29T15:22:55Z</time></trkpt><trkpt lat="44.66765315331419" lon="11.699494284852296"><ele>7.0</ele><time>2026-03-29T15:22:56Z</time></trkpt><trkpt lat="44.667753774964766" lon="11.699391859061386"><ele>7.0</ele><time>2026-03-29T15:22:57Z</time></trkpt><trkpt lat="44.66786032981144" lon="11.699287989074174"><ele>7.0</ele><time>2026-03-29T15:22:58Z</time></trkpt><trkpt lat="44.66796532357295" lon="11.699186036023947"><ele>7.0</ele><time>2026-03-29T15:22:59Z</time></trkpt><trkpt lat="44.66807301138713" lon="11.699079314459276"><ele>7.0</ele><time>2026-03-29T15:23:00Z</time></trkpt><trkpt lat="44.668174584682916" lon="11.69897699372304"><ele>7.0</ele><time>2026-03-29T15:23:01Z</time></trkpt><trkpt lat="44.668268587960846" lon="11.698866369451038"><ele>7.0</ele><time>2026-03-29T15:23:02Z</time></trkpt><trkpt lat="44.66835932109065" lon="11.698771126896801"><ele>7.0</ele><time>2026-03-29T15:23:03Z</time></trkpt><trkpt lat="44.668462897808766" lon="11.698700017730804"><ele>7.0</ele><time>2026-03-29T15:23:04Z</time></trkpt><trkpt lat="44.66857972122188" lon="11.698621306884503"><ele>6.5</ele><time>2026-03-29T15:23:05Z</time></trkpt><trkpt lat="44.66870310165295" lon="11.698550987979077"><ele>6.0</ele><time>2026-03-29T15:23:06Z</time></trkpt><trkpt lat="44.66883530974697" lon="11.698493463993893"><ele>5.5</ele><time>2026-03-29T15:23:07Z</time></trkpt><trkpt lat="44.668971019517116" lon="11.698443552269733"><ele>5.0</ele><time>2026-03-29T15:23:08Z</time></trkpt><trkpt lat="44.669106136682785" lon="11.698397667102755"><ele>5.0</ele><time>2026-03-29T15:23:09Z</time></trkpt><trkpt lat="44.669241072397995" lon="11.698348588900332"><ele>5.0</ele><time>2026-03-29T15:23:10Z</time></trkpt><trkpt lat="44.66938463956799" lon="11.698293113849736"><ele>5.0</ele><time>2026-03-29T15:23:11Z</time></trkpt><trkpt lat="44.66953429540478" lon="11.698231050822336"><ele>5.0</ele><time>2026-03-29T15:23:12Z</time></trkpt><trkpt lat="44.66968775091029" lon="11.698159119233328"><ele>5.0</ele><time>2026-03-29T15:23:13Z</time></trkpt><trkpt lat="44.66984131469489" lon="11.69808179785278"><ele>5.0</ele><time>2026-03-29T15:23:14Z</time></trkpt><trkpt lat="44.66999051226387" lon="11.698011554784216"><ele>5.0</ele><time>2026-03-29T15:23:15Z</time></trkpt><trkpt lat="44.67014100794492" lon="11.697935274788675"><ele>5.0</ele><time>2026-03-29T15:23:16Z</time></trkpt><trkpt lat="44.67029471389561" lon="11.697851495510466"><ele>5.0</ele><time>2026-03-29T15:23:17Z</time></trkpt><trkpt lat="44.67045215121309" lon="11.69776905681597"><ele>5.0</ele><time>2026-03-29T15:23:18Z</time></trkpt><trkpt lat="44.67060897833908" lon="11.697692698115677"><ele>5.0</ele><time>2026-03-29T15:23:19Z</time></trkpt><trkpt lat="44.67077586419767" lon="11.697616433898093"><ele>5.0</ele><time>2026-03-29T15:23:20Z</time></trkpt><trkpt lat="44.67094471180673" lon="11.697551653073397"><ele>5.0</ele><time>2026-03-29T15:23:21Z</time></trkpt><trkpt lat="44.67112242815075" lon="11.69750093264063"><ele>5.333333333333334</ele><time>2026-03-29T15:23:22Z</time></trkpt><trkpt lat="44.67132024303208" lon="11.697452746166974"><ele>5.666666666666667</ele><time>2026-03-29T15:23:23Z</time></trkpt><trkpt lat="44.67152717238686" lon="11.69740297039746"><ele>6.0</ele><time>2026-03-29T15:23:24Z</time></trkpt><trkpt lat="44.67172788898258" lon="11.69735642248468"><ele>6.0</ele><time>2026-03-29T15:23:24.999Z</time></trkpt><trkpt lat="44.67192263627675" lon="11.697310522879512"><ele>6.0</ele><time>2026-03-29T15:23:25.999Z</time></trkpt><trkpt lat="44.67209545222685" lon="11.697255032523186"><ele>6.0</ele><time>2026-03-29T15:23:26.999Z</time></trkpt><trkpt lat="44.6722620800119" lon="11.697215102395235"><ele>5.666666666666667</ele><time>2026-03-29T15:23:27.999Z</time></trkpt><trkpt lat="44.67242051295237" lon="11.69718883837626"><ele>5.333333333333334</ele><time>2026-03-29T15:23:28.999Z</time></trkpt><trkpt lat="44.672567222482186" lon="11.697153125784581"><ele>5.0</ele><time>2026-03-29T15:23:29.999Z</time></trkpt><trkpt lat="44.67272621763818" lon="11.6971322642454"><ele>4.666666666666667</ele><time>2026-03-29T15:23:30.999Z</time></trkpt><trkpt lat="44.67289199369437" lon="11.697144073023763"><ele>4.333333333333333</ele><time>2026-03-29T15:23:31.999Z</time></trkpt><trkpt lat="44.67306314743431" lon="11.697182759651941"><ele>4.0</ele><time>2026-03-29T15:23:32.999Z</time></trkpt><trkpt lat="44.67323702881343" lon="11.697256359487747"><ele>4.0</ele><time>2026-03-29T15:23:33.999Z</time></trkpt><trkpt lat="44.67340266734966" lon="11.697361178761636"><ele>4.0</ele><time>2026-03-29T15:23:34.999Z</time></trkpt><trkpt lat="44.673573846741355" lon="11.697476005753623"><ele>4.0</ele><time>2026-03-29T15:23:35.999Z</time></trkpt><trkpt lat="44.67374268337181" lon="11.697590769391066"><ele>4.0</ele><time>2026-03-29T15:23:36.999Z</time></trkpt><trkpt lat="44.67391010979849" lon="11.697706686587011"><ele>4.0</ele><time>2026-03-29T15:23:37.999Z</time></trkpt><trkpt lat="44.67408163470233" lon="11.697821655702333"><ele>4.0</ele><time>2026-03-29T15:23:38.999Z</time></trkpt><trkpt lat="44.67425686180944" lon="11.697943224744476"><ele>4.0</ele><time>2026-03-29T15:23:39.999Z</time></trkpt><trkpt lat="44.67443095774907" lon="11.698068601143733"><ele>4.0</ele><time>2026-03-29T15:23:40.999Z</time></trkpt><trkpt lat="44.67460549199891" lon="11.698191795165386"><ele>4.0</ele><time>2026-03-29T15:23:41.999Z</time></trkpt><trkpt lat="44.67477449571787" lon="11.698308166202963"><ele>4.0</ele><time>2026-03-29T15:23:42.999Z</time></trkpt><trkpt lat="44.67493161592852" lon="11.698416537804807"><ele>4.0</ele><time>2026-03-29T15:23:44Z</time></trkpt><trkpt lat="44.675085696796806" lon="11.698522826298476"><ele>4.0</ele><time>2026-03-29T15:23:45Z</time></trkpt><trkpt lat="44.67524290632847" lon="11.698622797758413"><ele>3.6666666666666665</ele><time>2026-03-29T15:23:46Z</time></trkpt><trkpt lat="44.675411792466626" lon="11.698716446672492"><ele>3.333333333333333</ele><time>2026-03-29T15:23:47Z</time></trkpt><trkpt lat="44.675586627244876" lon="11.698805040307143"><ele>3.0</ele><time>2026-03-29T15:23:48Z</time></trkpt><trkpt lat="44.67577265761152" lon="11.698884788281445"><ele>3.0</ele><time>2026-03-29T15:23:49Z</time></trkpt><trkpt lat="44.675967721097244" lon="11.698955579983739"><ele>3.0</ele><time>2026-03-29T15:23:50Z</time></trkpt><trkpt lat="44.67616768476911" lon="11.699016388514407"><ele>3.0</ele><time>2026-03-29T15:23:51Z</time></trkpt><trkpt lat="44.6763662461836" lon="11.699077939832206"><ele>3.333333333333333</ele><time>2026-03-29T15:23:52Z</time></trkpt><trkpt lat="44.67656444909934" lon="11.699142936288194"><ele>3.6666666666666665</ele><time>2026-03-29T15:23:53Z</time></trkpt><trkpt lat="44.67676407862664" lon="11.699200152409169"><ele>4.0</ele><time>2026-03-29T15:23:54Z</time></trkpt><trkpt lat="44.67697222903314" lon="11.699248189770096"><ele>4.0</ele><time>2026-03-29T15:23:55Z</time></trkpt><trkpt lat="44.677175061867395" lon="11.699288635873259"><ele>4.0</ele><time>2026-03-29T15:23:56Z</time></trkpt><trkpt lat="44.6773809779739" lon="11.69932633965034"><ele>4.0</ele><time>2026-03-29T15:23:57Z</time></trkpt><trkpt lat="44.67758118001824" lon="11.699359911429188"><ele>3.6666666666666665</ele><time>2026-03-29T15:23:58Z</time></trkpt><trkpt lat="44.677775081543984" lon="11.699396483815836"><ele>3.333333333333333</ele><time>2026-03-29T15:23:59Z</time></trkpt><trkpt lat="44.67796636589467" lon="11.699432007787971"><ele>3.0</ele><time>2026-03-29T15:24:00Z</time></trkpt><trkpt lat="44.6781534249256" lon="11.699462113257734"><ele>3.0</ele><time>2026-03-29T15:24:01Z</time></trkpt><trkpt lat="44.67833869826421" lon="11.699490876468406"><ele>3.0</ele><time>2026-03-29T15:24:02Z</time></trkpt><trkpt lat="44.67852222579767" lon="11.69951913497451"><ele>3.0</ele><time>2026-03-29T15:24:03Z</time></trkpt><trkpt lat="44.67870035635383" lon="11.699548269143406"><ele>3.0</ele><time>2026-03-29T15:24:04Z</time></trkpt><trkpt lat="44.67887702059745" lon="11.699574661270281"><ele>3.0</ele><time>2026-03-29T15:24:05Z</time></trkpt><trkpt lat="44.679054354737744" lon="11.69959632721484"><ele>3.0</ele><time>2026-03-29T15:24:06Z</time></trkpt><trkpt lat="44.6792335553091" lon="11.699614378214156"><ele>3.0</ele><time>2026-03-29T15:24:07Z</time></trkpt><trkpt lat="44.67941675468775" lon="11.69963363907855"><ele>3.0</ele><time>2026-03-29T15:24:08Z</time></trkpt><trkpt lat="44.67959461689818" lon="11.699649769326884"><ele>3.0</ele><time>2026-03-29T15:24:09Z</time></trkpt><trkpt lat="44.679774475515195" lon="11.699660410060446"><ele>2.6666666666666665</ele><time>2026-03-29T15:24:10Z</time></trkpt><trkpt lat="44.67995567633978" lon="11.699671153162667"><ele>2.333333333333333</ele><time>2026-03-29T15:24:11Z</time></trkpt><trkpt lat="44.68013704709029" lon="11.699684192525256"><ele>2.0</ele><time>2026-03-29T15:24:12Z</time></trkpt><trkpt lat="44.680320345137304" lon="11.69969426568784"><ele>2.0</ele><time>2026-03-29T15:24:13Z</time></trkpt><trkpt lat="44.68050495034125" lon="11.699697808960838"><ele>2.0</ele><time>2026-03-29T15:24:14Z</time></trkpt><trkpt lat="44.68068630706259" lon="11.699699104423056"><ele>2.0</ele><time>2026-03-29T15:24:15Z</time></trkpt><trkpt lat="44.68086260909292" lon="11.699689402182468"><ele>2.0</ele><time>2026-03-29T15:24:16Z</time></trkpt><trkpt lat="44.681044108728024" lon="11.699672147736548"><ele>2.0</ele><time>2026-03-29T15:24:17Z</time></trkpt><trkpt lat="44.68122034701935" lon="11.699652847326877"><ele>2.0</ele><time>2026-03-29T15:24:18Z</time></trkpt><trkpt lat="44.681399358969" lon="11.699626024725614"><ele>2.333333333333333</ele><time>2026-03-29T15:24:19Z</time></trkpt><trkpt lat="44.681575069829194" lon="11.699598401419964"><ele>2.6666666666666665</ele><time>2026-03-29T15:24:20Z</time></trkpt><trkpt lat="44.68175072395304" lon="11.699566843012699"><ele>3.0</ele><time>2026-03-29T15:24:21Z</time></trkpt><trkpt lat="44.68192519693088" lon="11.699528618125257"><ele>2.6666666666666665</ele><time>2026-03-29T15:24:22Z</time></trkpt><trkpt lat="44.68210203289634" lon="11.699487647239176"><ele>2.333333333333333</ele><time>2026-03-29T15:24:23Z</time></trkpt><trkpt lat="44.682278331804824" lon="11.699440782875485"><ele>2.0</ele><time>2026-03-29T15:24:24Z</time></trkpt><trkpt lat="44.682449337511706" lon="11.699381826861293"><ele>2.0</ele><time>2026-03-29T15:24:25Z</time></trkpt><trkpt lat="44.68261809023333" lon="11.699319325377468"><ele>2.0</ele><time>2026-03-29T15:24:26Z</time></trkpt><trkpt lat="44.682785494263946" lon="11.699254153411447"><ele>2.0</ele><time>2026-03-29T15:24:27Z</time></trkpt><trkpt lat="44.68294869663167" lon="11.699182028568863"><ele>3.0</ele><time>2026-03-29T15:24:28Z</time></trkpt><trkpt lat="44.683110814657546" lon="11.699102387073124"><ele>4.0</ele><time>2026-03-29T15:24:29Z</time></trkpt><trkpt lat="44.68327177119389" lon="11.699013915468862"><ele>5.0</ele><time>2026-03-29T15:24:30Z</time></trkpt><trkpt lat="44.68343298348552" lon="11.69892134077591"><ele>5.0</ele><time>2026-03-29T15:24:31Z</time></trkpt><trkpt lat="44.68358269573983" lon="11.698827316863746"><ele>5.0</ele><time>2026-03-29T15:24:32Z</time></trkpt><trkpt lat="44.68371656789389" lon="11.69873438501994"><ele>5.0</ele><time>2026-03-29T15:24:33Z</time></trkpt><trkpt lat="44.68383775195974" lon="11.6986377562071"><ele>4.75</ele><time>2026-03-29T15:24:34Z</time></trkpt><trkpt lat="44.68395582740347" lon="11.69853031355764"><ele>4.5</ele><time>2026-03-29T15:24:35Z</time></trkpt><trkpt lat="44.68406564243487" lon="11.698412351484869"><ele>4.25</ele><time>2026-03-29T15:24:36Z</time></trkpt><trkpt lat="44.684178508853826" lon="11.698281402482516"><ele>4.0</ele><time>2026-03-29T15:24:37Z</time></trkpt><trkpt lat="44.684276386800676" lon="11.698136949601482"><ele>4.0</ele><time>2026-03-29T15:24:38Z</time></trkpt><trkpt lat="44.68436979073195" lon="11.697972729877222"><ele>4.0</ele><time>2026-03-29T15:24:39Z</time></trkpt><trkpt lat="44.684456673840955" lon="11.697786656311084"><ele>4.0</ele><time>2026-03-29T15:24:40Z</time></trkpt><trkpt lat="44.68453838207651" lon="11.697597772866905"><ele>3.333333333333333</ele><time>2026-03-29T15:24:41Z</time></trkpt><trkpt lat="44.68461880573756" lon="11.697407833586075"><ele>2.6666666666666665</ele><time>2026-03-29T15:24:42Z</time></trkpt><trkpt lat="44.68469989159023" lon="11.697204031797217"><ele>2.0</ele><time>2026-03-29T15:24:43Z</time></trkpt><trkpt lat="44.684781202323535" lon="11.69698995632838"><ele>3.333333333333333</ele><time>2026-03-29T15:24:44Z</time></trkpt><trkpt lat="44.68487664376903" lon="11.696768148426264"><ele>4.666666666666667</ele><time>2026-03-29T15:24:45Z</time></trkpt><trkpt lat="44.684960617249715" lon="11.696545771064827"><ele>6.0</ele><time>2026-03-29T15:24:46Z</time></trkpt><trkpt lat="44.685047558876185" lon="11.696326754761259"><ele>6.0</ele><time>2026-03-29T15:24:47Z</time></trkpt><trkpt lat="44.685148149164306" lon="11.696136709181737"><ele>6.0</ele><time>2026-03-29T15:24:48Z</time></trkpt><trkpt lat="44.68526645164501" lon="11.695969123218822"><ele>6.0</ele><time>2026-03-29T15:24:49Z</time></trkpt><trkpt lat="44.68538834372817" lon="11.695791102808897"><ele>5.333333333333333</ele><time>2026-03-29T15:24:50Z</time></trkpt><trkpt lat="44.68553676052553" lon="11.695620272929027"><ele>4.666666666666666</ele><time>2026-03-29T15:24:51Z</time></trkpt><trkpt lat="44.6856977258575" lon="11.695445189369618"><ele>4.0</ele><time>2026-03-29T15:24:52Z</time></trkpt><trkpt lat="44.68587406742518" lon="11.695289534385324"><ele>3.6666666666666665</ele><time>2026-03-29T15:24:53Z</time></trkpt><trkpt lat="44.68604038204336" lon="11.695106934634664"><ele>3.333333333333333</ele><time>2026-03-29T15:24:54Z</time></trkpt><trkpt lat="44.68621710458062" lon="11.694961076230417"><ele>3.0</ele><time>2026-03-29T15:24:55Z</time></trkpt><trkpt lat="44.68639325025646" lon="11.694820471022195"><ele>3.0</ele><time>2026-03-29T15:24:56Z</time></trkpt><trkpt lat="44.68656330067238" lon="11.694688325029558"><ele>3.0</ele><time>2026-03-29T15:24:57Z</time></trkpt><trkpt lat="44.686733543520866" lon="11.694563442103192"><ele>3.0</ele><time>2026-03-29T15:24:58Z</time></trkpt><trkpt lat="44.68690810231372" lon="11.694443686975491"><ele>3.666666666666667</ele><time>2026-03-29T15:24:59Z</time></trkpt><trkpt lat="44.68708010231922" lon="11.694334461990788"><ele>4.333333333333334</ele><time>2026-03-29T15:25:00Z</time></trkpt><trkpt lat="44.68725050742533" lon="11.694226123187471"><ele>5.0</ele><time>2026-03-29T15:25:01Z</time></trkpt><trkpt lat="44.687419362244064" lon="11.694111461561853"><ele>5.0</ele><time>2026-03-29T15:25:02Z</time></trkpt><trkpt lat="44.68758628051904" lon="11.69398386131409"><ele>5.0</ele><time>2026-03-29T15:25:03Z</time></trkpt><trkpt lat="44.687756367715494" lon="11.693842361525995"><ele>5.0</ele><time>2026-03-29T15:25:04Z</time></trkpt><trkpt lat="44.68793211289707" lon="11.69369727224477"><ele>5.0</ele><time>2026-03-29T15:25:05Z</time></trkpt><trkpt lat="44.68810726648025" lon="11.693549700916696"><ele>5.0</ele><time>2026-03-29T15:25:06Z</time></trkpt><trkpt lat="44.6882794957169" lon="11.69340403714713"><ele>5.0</ele><time>2026-03-29T15:25:07Z</time></trkpt><trkpt lat="44.68843961147127" lon="11.693265893569416"><ele>5.0</ele><time>2026-03-29T15:25:08Z</time></trkpt><trkpt lat="44.68858865441316" lon="11.693136686349492"><ele>5.0</ele><time>2026-03-29T15:25:09Z</time></trkpt><trkpt lat="44.68872743637827" lon="11.693020096416314"><ele>5.0</ele><time>2026-03-29T15:25:10Z</time></trkpt><trkpt lat="44.68885777366299" lon="11.692909870969471"><ele>5.0</ele><time>2026-03-29T15:25:11Z</time></trkpt><trkpt lat="44.688979003949676" lon="11.692808686481271"><ele>5.0</ele><time>2026-03-29T15:25:12Z</time></trkpt><trkpt lat="44.68909678074038" lon="11.692707606968936"><ele>5.0</ele><time>2026-03-29T15:25:13Z</time></trkpt><trkpt lat="44.68921361211988" lon="11.692607098162355"><ele>5.0</ele><time>2026-03-29T15:25:14Z</time></trkpt><trkpt lat="44.68933711765983" lon="11.692500327830109"><ele>5.0</ele><time>2026-03-29T15:25:15Z</time></trkpt><trkpt lat="44.689459856559004" lon="11.69239222956958"><ele>5.0</ele><time>2026-03-29T15:25:16Z</time></trkpt><trkpt lat="44.6895749808394" lon="11.692296420219138"><ele>5.0</ele><time>2026-03-29T15:25:17Z</time></trkpt><trkpt lat="44.6896728039603" lon="11.692213536245095"><ele>5.0</ele><time>2026-03-29T15:25:18Z</time></trkpt><trkpt lat="44.6897664972508" lon="11.692131825441292"><ele>5.0</ele><time>2026-03-29T15:25:19Z</time></trkpt><trkpt lat="44.68985198608548" lon="11.692054246697127"><ele>5.0</ele><time>2026-03-29T15:25:20Z</time></trkpt><trkpt lat="44.68993152740606" lon="11.691982730916667"><ele>5.0</ele><time>2026-03-29T15:25:21Z</time></trkpt><trkpt lat="44.69000408283001" lon="11.691916621725358"><ele>5.0</ele><time>2026-03-29T15:25:22Z</time></trkpt><trkpt lat="44.690085441586916" lon="11.691844641239976"><ele>5.0</ele><time>2026-03-29T15:25:23Z</time></trkpt><trkpt lat="44.690172779039386" lon="11.691777314266393"><ele>5.0</ele><time>2026-03-29T15:25:24Z</time></trkpt><trkpt lat="44.690245361681235" lon="11.69170799041805"><ele>5.0</ele><time>2026-03-29T15:25:25Z</time></trkpt><trkpt lat="44.69031015789878" lon="11.6916530872239"><ele>5.0</ele><time>2026-03-29T15:25:26Z</time></trkpt><trkpt lat="44.69036912981222" lon="11.69160449341548"><ele>5.0</ele><time>2026-03-29T15:25:27Z</time></trkpt><trkpt lat="44.69042370947037" lon="11.69155721541096"><ele>5.0</ele><time>2026-03-29T15:25:28Z</time></trkpt><trkpt lat="44.69051343514942" lon="11.69148925848954"><ele>5.0</ele><time>2026-03-29T15:25:30Z</time></trkpt><trkpt lat="44.6904742479254" lon="11.691228452019962"><ele>5.0</ele><time>2026-03-29T15:25:32Z</time></trkpt><trkpt lat="44.690439620126156" lon="11.691118961962466"><ele>5.0</ele><time>2026-03-29T15:25:33Z</time></trkpt><trkpt lat="44.690403614638186" lon="11.6910042500887"><ele>5.0</ele><time>2026-03-29T15:25:34Z</time></trkpt><trkpt lat="44.690369703379254" lon="11.690895449520392"><ele>5.0</ele><time>2026-03-29T15:25:35Z</time></trkpt><trkpt lat="44.69033441233766" lon="11.690783329845331"><ele>5.0</ele><time>2026-03-29T15:25:36Z</time></trkpt><trkpt lat="44.690290782877376" lon="11.690669007662754"><ele>5.0</ele><time>2026-03-29T15:25:37Z</time></trkpt><trkpt lat="44.69024019973963" lon="11.690529691689669"><ele>5.0</ele><time>2026-03-29T15:25:38Z</time></trkpt><trkpt lat="44.69019875066483" lon="11.69037826838219"><ele>5.0</ele><time>2026-03-29T15:25:39Z</time></trkpt><trkpt lat="44.690169381290424" lon="11.69021381129482"><ele>5.0</ele><time>2026-03-29T15:25:40Z</time></trkpt><trkpt lat="44.6901160715221" lon="11.69005240774699"><ele>5.0</ele><time>2026-03-29T15:25:41Z</time></trkpt><trkpt lat="44.69008586585453" lon="11.68987482605907"><ele>5.0</ele><time>2026-03-29T15:25:42Z</time></trkpt><trkpt lat="44.69004183481157" lon="11.689669730986203"><ele>5.0</ele><time>2026-03-29T15:25:43Z</time></trkpt><trkpt lat="44.68999641445351" lon="11.689436460957035"><ele>5.0</ele><time>2026-03-29T15:25:44Z</time></trkpt><trkpt lat="44.68994788122573" lon="11.689195399657489"><ele>4.333333333333334</ele><time>2026-03-29T15:25:45Z</time></trkpt><trkpt lat="44.68989790243034" lon="11.688939020140161"><ele>3.666666666666667</ele><time>2026-03-29T15:25:46Z</time></trkpt><trkpt lat="44.689847878034655" lon="11.688685345538007"><ele>3.0</ele><time>2026-03-29T15:25:47Z</time></trkpt><trkpt lat="44.689802102157074" lon="11.688435728958373"><ele>3.0</ele><time>2026-03-29T15:25:48Z</time></trkpt><trkpt lat="44.6897530081699" lon="11.688176752978793"><ele>3.0</ele><time>2026-03-29T15:25:49Z</time></trkpt><trkpt lat="44.68970221637897" lon="11.687912585385522"><ele>3.0</ele><time>2026-03-29T15:25:50Z</time></trkpt><trkpt lat="44.68964773485565" lon="11.687638479668928"><ele>3.333333333333333</ele><time>2026-03-29T15:25:51Z</time></trkpt><trkpt lat="44.68959635891592" lon="11.687366754357685"><ele>3.6666666666666665</ele><time>2026-03-29T15:25:52Z</time></trkpt><trkpt lat="44.68954751878418" lon="11.68709106902055"><ele>4.0</ele><time>2026-03-29T15:25:53Z</time></trkpt><trkpt lat="44.689497041332885" lon="11.686819558747269"><ele>4.0</ele><time>2026-03-29T15:25:54Z</time></trkpt><trkpt lat="44.68944577956457" lon="11.686549295851723"><ele>4.0</ele><time>2026-03-29T15:25:55Z</time></trkpt><trkpt lat="44.68939746309333" lon="11.686288008679393"><ele>4.0</ele><time>2026-03-29T15:25:56Z</time></trkpt><trkpt lat="44.68935127654245" lon="11.686039298897345"><ele>3.0</ele><time>2026-03-29T15:25:57Z</time></trkpt><trkpt lat="44.68930273251233" lon="11.6857809627724"><ele>2.0</ele><time>2026-03-29T15:25:58Z</time></trkpt><trkpt lat="44.68925567489369" lon="11.685534398589658"><ele>1.0</ele><time>2026-03-29T15:25:59Z</time></trkpt><trkpt lat="44.68920729224369" lon="11.685281693638625"><ele>1.3333333333333333</ele><time>2026-03-29T15:26:00Z</time></trkpt><trkpt lat="44.689158242389595" lon="11.685029334159493"><ele>1.6666666666666665</ele><time>2026-03-29T15:26:01Z</time></trkpt><trkpt lat="44.68911320675801" lon="11.68478536457322"><ele>2.0</ele><time>2026-03-29T15:26:02Z</time></trkpt><trkpt lat="44.689066321825386" lon="11.684532533189557"><ele>3.0</ele><time>2026-03-29T15:26:03Z</time></trkpt><trkpt lat="44.68901714269921" lon="11.684285706588424"><ele>4.0</ele><time>2026-03-29T15:26:04Z</time></trkpt><trkpt lat="44.68898439674113" lon="11.684028836198173"><ele>5.0</ele><time>2026-03-29T15:26:05Z</time></trkpt><trkpt lat="44.688937399146816" lon="11.68377828134869"><ele>5.0</ele><time>2026-03-29T15:26:06Z</time></trkpt><trkpt lat="44.68889049837032" lon="11.683528242698996"><ele>5.0</ele><time>2026-03-29T15:26:07Z</time></trkpt><trkpt lat="44.68884293295131" lon="11.683274660604155"><ele>5.0</ele><time>2026-03-29T15:26:08Z</time></trkpt><trkpt lat="44.688796202351654" lon="11.683025529027157"><ele>5.0</ele><time>2026-03-29T15:26:09Z</time></trkpt><trkpt lat="44.688749886514735" lon="11.682778608929926"><ele>5.0</ele><time>2026-03-29T15:26:10Z</time></trkpt><trkpt lat="44.68870757249091" lon="11.682553023176041"><ele>5.0</ele><time>2026-03-29T15:26:11Z</time></trkpt><trkpt lat="44.688665855810015" lon="11.68233062244103"><ele>4.666666666666667</ele><time>2026-03-29T15:26:12Z</time></trkpt><trkpt lat="44.688625825122756" lon="11.682117209291851"><ele>4.333333333333333</ele><time>2026-03-29T15:26:13Z</time></trkpt><trkpt lat="44.68858547460966" lon="11.681902091519001"><ele>4.0</ele><time>2026-03-29T15:26:14Z</time></trkpt><trkpt lat="44.68854599539938" lon="11.681691618773757"><ele>4.0</ele><time>2026-03-29T15:26:15Z</time></trkpt><trkpt lat="44.68850702990651" lon="11.68148039700829"><ele>4.0</ele><time>2026-03-29T15:26:16Z</time></trkpt><trkpt lat="44.68845865845626" lon="11.681268978632437"><ele>4.0</ele><time>2026-03-29T15:26:17Z</time></trkpt><trkpt lat="44.688416797173836" lon="11.681055494569577"><ele>4.0</ele><time>2026-03-29T15:26:18Z</time></trkpt><trkpt lat="44.68839047528733" lon="11.680826460725529"><ele>4.0</ele><time>2026-03-29T15:26:19Z</time></trkpt><trkpt lat="44.688352325093135" lon="11.680598487580493"><ele>4.0</ele><time>2026-03-29T15:26:20Z</time></trkpt><trkpt lat="44.688312108385716" lon="11.680357895332502"><ele>4.0</ele><time>2026-03-29T15:26:21Z</time></trkpt><trkpt lat="44.68827023918171" lon="11.680104724586645"><ele>4.0</ele><time>2026-03-29T15:26:22Z</time></trkpt><trkpt lat="44.688227023456534" lon="11.679845178981305"><ele>4.0</ele><time>2026-03-29T15:26:23Z</time></trkpt><trkpt lat="44.68818213656939" lon="11.679581957439407"><ele>4.0</ele><time>2026-03-29T15:26:24Z</time></trkpt><trkpt lat="44.688118533256784" lon="11.679318952070533"><ele>4.0</ele><time>2026-03-29T15:26:25Z</time></trkpt><trkpt lat="44.688070820568285" lon="11.679048810228592"><ele>4.0</ele><time>2026-03-29T15:26:26Z</time></trkpt><trkpt lat="44.68803502406284" lon="11.678779304738777"><ele>4.0</ele><time>2026-03-29T15:26:27Z</time></trkpt><trkpt lat="44.68798523837061" lon="11.67851779312876"><ele>4.0</ele><time>2026-03-29T15:26:28Z</time></trkpt><trkpt lat="44.68792036053249" lon="11.67826352161812"><ele>4.0</ele><time>2026-03-29T15:26:29Z</time></trkpt><trkpt lat="44.687869518139436" lon="11.6780041618732"><ele>4.0</ele><time>2026-03-29T15:26:30Z</time></trkpt><trkpt lat="44.68782771592325" lon="11.677720439407656"><ele>4.0</ele><time>2026-03-29T15:26:31Z</time></trkpt><trkpt lat="44.68777428864979" lon="11.677450755156267"><ele>4.0</ele><time>2026-03-29T15:26:32Z</time></trkpt><trkpt lat="44.68772395682088" lon="11.677196695590045"><ele>4.0</ele><time>2026-03-29T15:26:33Z</time></trkpt><trkpt lat="44.687656610868885" lon="11.676943494796657"><ele>4.0</ele><time>2026-03-29T15:26:34Z</time></trkpt><trkpt lat="44.6876078065907" lon="11.676687103927128"><ele>4.0</ele><time>2026-03-29T15:26:35Z</time></trkpt><trkpt lat="44.68755477811141" lon="11.676421746691178"><ele>4.0</ele><time>2026-03-29T15:26:36Z</time></trkpt><trkpt lat="44.68750669960707" lon="11.676162601721309"><ele>4.0</ele><time>2026-03-29T15:26:37Z</time></trkpt><trkpt lat="44.687470287136655" lon="11.675885947888238"><ele>4.0</ele><time>2026-03-29T15:26:38Z</time></trkpt><trkpt lat="44.687423334096515" lon="11.675625423087618"><ele>4.0</ele><time>2026-03-29T15:26:39Z</time></trkpt><trkpt lat="44.687377058472826" lon="11.67535939159694"><ele>4.0</ele><time>2026-03-29T15:26:40Z</time></trkpt><trkpt lat="44.687316815362166" lon="11.675103006890403"><ele>4.0</ele><time>2026-03-29T15:26:41Z</time></trkpt><trkpt lat="44.687275704977765" lon="11.674834436263883"><ele>4.333333333333333</ele><time>2026-03-29T15:26:42Z</time></trkpt><trkpt lat="44.68724617630567" lon="11.674558635567761"><ele>4.666666666666667</ele><time>2026-03-29T15:26:43Z</time></trkpt><trkpt lat="44.68719182686182" lon="11.674300403062263"><ele>5.0</ele><time>2026-03-29T15:26:44Z</time></trkpt><trkpt lat="44.687168373099446" lon="11.674026215162966"><ele>5.333333333333334</ele><time>2026-03-29T15:26:45Z</time></trkpt><trkpt lat="44.68713092597278" lon="11.673764206162053"><ele>5.666666666666667</ele><time>2026-03-29T15:26:46Z</time></trkpt><trkpt lat="44.68708747942172" lon="11.67349635877863"><ele>6.0</ele><time>2026-03-29T15:26:47Z</time></trkpt><trkpt lat="44.68703901994554" lon="11.673241590070605"><ele>6.333333333333334</ele><time>2026-03-29T15:26:48Z</time></trkpt><trkpt lat="44.68698196063328" lon="11.672985610545576"><ele>6.666666666666667</ele><time>2026-03-29T15:26:49Z</time></trkpt><trkpt lat="44.686922740607606" lon="11.67273831910291"><ele>7.0</ele><time>2026-03-29T15:26:50Z</time></trkpt><trkpt lat="44.68686395180968" lon="11.672492828661111"><ele>6.333333333333334</ele><time>2026-03-29T15:26:51Z</time></trkpt><trkpt lat="44.68681171977775" lon="11.672267070282611"><ele>5.666666666666667</ele><time>2026-03-29T15:26:52Z</time></trkpt><trkpt lat="44.68676386035011" lon="11.672060232193433"><ele>5.0</ele><time>2026-03-29T15:26:53Z</time></trkpt><trkpt lat="44.686720109033324" lon="11.671871149042337"><ele>5.0</ele><time>2026-03-29T15:26:54Z</time></trkpt><trkpt lat="44.686679104500755" lon="11.671693936616952"><ele>5.0</ele><time>2026-03-29T15:26:55Z</time></trkpt><trkpt lat="44.68664102874095" lon="11.671529381551506"><ele>5.0</ele><time>2026-03-29T15:26:56Z</time></trkpt><trkpt lat="44.686604204045764" lon="11.671373800676882"><ele>5.0</ele><time>2026-03-29T15:26:57Z</time></trkpt><trkpt lat="44.68657208676862" lon="11.67123827842006"><ele>5.0</ele><time>2026-03-29T15:26:58Z</time></trkpt><trkpt lat="44.68652474757626" lon="11.671110896484821"><ele>5.0</ele><time>2026-03-29T15:26:59Z</time></trkpt><trkpt lat="44.68650513947874" lon="11.670992651401232"><ele>5.0</ele><time>2026-03-29T15:27:00Z</time></trkpt><trkpt lat="44.68647690915318" lon="11.670893808648081"><ele>5.0</ele><time>2026-03-29T15:27:01Z</time></trkpt><trkpt lat="44.686470636835544" lon="11.670788073720196"><ele>5.0</ele><time>2026-03-29T15:27:02Z</time></trkpt><trkpt lat="44.68651904363148" lon="11.670671765127846"><ele>5.0</ele><time>2026-03-29T15:27:03Z</time></trkpt><trkpt lat="44.68660463159845" lon="11.670581854045171"><ele>5.0</ele><time>2026-03-29T15:27:04Z</time></trkpt><trkpt lat="44.686719330028" lon="11.670513603515117"><ele>5.0</ele><time>2026-03-29T15:27:05Z</time></trkpt><trkpt lat="44.68687928996869" lon="11.670442956170273"><ele>5.0</ele><time>2026-03-29T15:27:06Z</time></trkpt><trkpt lat="44.687019873500596" lon="11.670366736403661"><ele>5.0</ele><time>2026-03-29T15:27:07Z</time></trkpt><trkpt lat="44.68711388166209" lon="11.670301456224452"><ele>5.0</ele><time>2026-03-29T15:27:08Z</time></trkpt><trkpt lat="44.687190052374106" lon="11.67025943924539"><ele>5.0</ele><time>2026-03-29T15:27:09Z</time></trkpt><trkpt lat="44.68728901401137" lon="11.670152882264746"><ele>5.0</ele><time>2026-03-29T15:27:11Z</time></trkpt><trkpt lat="44.68730354019631" lon="11.670036102668675"><ele>5.0</ele><time>2026-03-29T15:27:12Z</time></trkpt><trkpt lat="44.68727398740103" lon="11.669904440057262"><ele>5.0</ele><time>2026-03-29T15:27:13Z</time></trkpt><trkpt lat="44.68719740146876" lon="11.669776632386258"><ele>5.0</ele><time>2026-03-29T15:27:14Z</time></trkpt><trkpt lat="44.68710228377211" lon="11.669609936368229"><ele>5.0</ele><time>2026-03-29T15:27:15Z</time></trkpt><trkpt lat="44.68697627542164" lon="11.669412571918112"><ele>5.0</ele><time>2026-03-29T15:27:16Z</time></trkpt><trkpt lat="44.68685671047422" lon="11.669225299818226"><ele>5.0</ele><time>2026-03-29T15:27:17Z</time></trkpt><trkpt lat="44.686706009165825" lon="11.669023377713462"><ele>5.0</ele><time>2026-03-29T15:27:18Z</time></trkpt><trkpt lat="44.68656415793163" lon="11.668791030671553"><ele>5.0</ele><time>2026-03-29T15:27:19Z</time></trkpt><trkpt lat="44.68643080030983" lon="11.668583954830229"><ele>5.0</ele><time>2026-03-29T15:27:20Z</time></trkpt><trkpt lat="44.68631352010028" lon="11.66839739619196"><ele>5.0</ele><time>2026-03-29T15:27:21Z</time></trkpt><trkpt lat="44.68620327446859" lon="11.668220134975293"><ele>5.0</ele><time>2026-03-29T15:27:22Z</time></trkpt><trkpt lat="44.68609159411203" lon="11.66804748451441"><ele>5.0</ele><time>2026-03-29T15:27:23Z</time></trkpt><trkpt lat="44.685982834686875" lon="11.667880806273448"><ele>5.0</ele><time>2026-03-29T15:27:24Z</time></trkpt><trkpt lat="44.68587270942592" lon="11.667704790120727"><ele>5.0</ele><time>2026-03-29T15:27:25Z</time></trkpt><trkpt lat="44.68577604990181" lon="11.667504753932777"><ele>5.0</ele><time>2026-03-29T15:27:26Z</time></trkpt><trkpt lat="44.685665268159845" lon="11.66731091824633"><ele>5.0</ele><time>2026-03-29T15:27:27Z</time></trkpt><trkpt lat="44.6855574935157" lon="11.667116271038573"><ele>5.0</ele><time>2026-03-29T15:27:28Z</time></trkpt><trkpt lat="44.685448254105175" lon="11.666916560829511"><ele>5.0</ele><time>2026-03-29T15:27:29Z</time></trkpt><trkpt lat="44.685324918967474" lon="11.666724443572022"><ele>5.0</ele><time>2026-03-29T15:27:30Z</time></trkpt><trkpt lat="44.6852157431433" lon="11.666513511804313"><ele>5.0</ele><time>2026-03-29T15:27:31Z</time></trkpt><trkpt lat="44.68511016711276" lon="11.666306178263897"><ele>5.333333333333334</ele><time>2026-03-29T15:27:32Z</time></trkpt><trkpt lat="44.68500148178722" lon="11.66610919707085"><ele>5.666666666666667</ele><time>2026-03-29T15:27:33Z</time></trkpt><trkpt lat="44.68488306328178" lon="11.66591930605618"><ele>6.0</ele><time>2026-03-29T15:27:34Z</time></trkpt><trkpt lat="44.68476913712989" lon="11.66575542931507"><ele>6.0</ele><time>2026-03-29T15:27:35Z</time></trkpt><trkpt lat="44.68465790455287" lon="11.665605901176699"><ele>6.0</ele><time>2026-03-29T15:27:36Z</time></trkpt><trkpt lat="44.68453486961038" lon="11.665453875662866"><ele>6.0</ele><time>2026-03-29T15:27:37Z</time></trkpt><trkpt lat="44.68442024344639" lon="11.66527651548735"><ele>5.666666666666667</ele><time>2026-03-29T15:27:38Z</time></trkpt><trkpt lat="44.684301742297514" lon="11.665101378504934"><ele>5.333333333333334</ele><time>2026-03-29T15:27:39Z</time></trkpt><trkpt lat="44.6842050450468" lon="11.664911679564637"><ele>5.0</ele><time>2026-03-29T15:27:40Z</time></trkpt><trkpt lat="44.68411947320676" lon="11.664707490211105"><ele>5.0</ele><time>2026-03-29T15:27:41Z</time></trkpt><trkpt lat="44.68404097652865" lon="11.664498602511141"><ele>5.0</ele><time>2026-03-29T15:27:42Z</time></trkpt><trkpt lat="44.683981211333744" lon="11.664298978793356"><ele>5.0</ele><time>2026-03-29T15:27:43Z</time></trkpt><trkpt lat="44.68394088785439" lon="11.664113400481655"><ele>5.0</ele><time>2026-03-29T15:27:44Z</time></trkpt><trkpt lat="44.68390786847668" lon="11.663934584517708"><ele>5.0</ele><time>2026-03-29T15:27:45Z</time></trkpt><trkpt lat="44.683864988602636" lon="11.663774649627111"><ele>5.0</ele><time>2026-03-29T15:27:46Z</time></trkpt><trkpt lat="44.683846037673156" lon="11.663620444011535"><ele>5.0</ele><time>2026-03-29T15:27:47Z</time></trkpt><trkpt lat="44.683821701374185" lon="11.66347695403825"><ele>5.0</ele><time>2026-03-29T15:27:48Z</time></trkpt><trkpt lat="44.68378271486662" lon="11.663323343325013"><ele>5.0</ele><time>2026-03-29T15:27:49Z</time></trkpt><trkpt lat="44.683711488426745" lon="11.663172403447517"><ele>5.0</ele><time>2026-03-29T15:27:50Z</time></trkpt><trkpt lat="44.68360925274623" lon="11.663046056632185"><ele>5.0</ele><time>2026-03-29T15:27:51Z</time></trkpt><trkpt lat="44.68347336993647" lon="11.662963288374142"><ele>4.666666666666667</ele><time>2026-03-29T15:27:52Z</time></trkpt><trkpt lat="44.68331647108797" lon="11.662931463977655"><ele>4.333333333333333</ele><time>2026-03-29T15:27:53Z</time></trkpt><trkpt lat="44.683139232540164" lon="11.662917738234153"><ele>4.0</ele><time>2026-03-29T15:27:54Z</time></trkpt><trkpt lat="44.68293917194124" lon="11.662879915138934"><ele>4.0</ele><time>2026-03-29T15:27:55Z</time></trkpt><trkpt lat="44.682772573676424" lon="11.662885138607217"><ele>4.0</ele><time>2026-03-29T15:27:56Z</time></trkpt><trkpt lat="44.6826249775387" lon="11.662858739126055"><ele>4.0</ele><time>2026-03-29T15:27:57Z</time></trkpt><trkpt lat="44.68249410729919" lon="11.662845009655747"><ele>4.0</ele><time>2026-03-29T15:27:58Z</time></trkpt><trkpt lat="44.682369932845" lon="11.662793917940224"><ele>4.25</ele><time>2026-03-29T15:27:59Z</time></trkpt><trkpt lat="44.68224909210712" lon="11.662753593659986"><ele>4.5</ele><time>2026-03-29T15:28:00Z</time></trkpt><trkpt lat="44.682123379013625" lon="11.66268960588609"><ele>4.75</ele><time>2026-03-29T15:28:01Z</time></trkpt><trkpt lat="44.68200457691154" lon="11.662589328525703"><ele>5.0</ele><time>2026-03-29T15:28:02Z</time></trkpt><trkpt lat="44.68188651150496" lon="11.662466769815582"><ele>5.333333333333334</ele><time>2026-03-29T15:28:03Z</time></trkpt><trkpt lat="44.68175785360818" lon="11.66233610677827"><ele>5.666666666666667</ele><time>2026-03-29T15:28:04Z</time></trkpt><trkpt lat="44.68164582474543" lon="11.662165025229415"><ele>6.0</ele><time>2026-03-29T15:28:05Z</time></trkpt><trkpt lat="44.68153836696361" lon="11.661976473867092"><ele>5.666666666666667</ele><time>2026-03-29T15:28:06Z</time></trkpt><trkpt lat="44.68146952059403" lon="11.661759304589085"><ele>5.333333333333334</ele><time>2026-03-29T15:28:07Z</time></trkpt><trkpt lat="44.68138735857053" lon="11.661524789292377"><ele>5.0</ele><time>2026-03-29T15:28:08Z</time></trkpt><trkpt lat="44.6812874831096" lon="11.661267914699101"><ele>5.0</ele><time>2026-03-29T15:28:09Z</time></trkpt><trkpt lat="44.68121338942018" lon="11.661015142267043"><ele>5.0</ele><time>2026-03-29T15:28:10Z</time></trkpt><trkpt lat="44.681143717481845" lon="11.660796836573944"><ele>5.0</ele><time>2026-03-29T15:28:11Z</time></trkpt><trkpt lat="44.681079655018046" lon="11.660597328613843"><ele>5.0</ele><time>2026-03-29T15:28:12Z</time></trkpt><trkpt lat="44.681022361059476" lon="11.660410241901136"><ele>5.0</ele><time>2026-03-29T15:28:13Z</time></trkpt><trkpt lat="44.68097540894248" lon="11.660244465617552"><ele>5.0</ele><time>2026-03-29T15:28:14Z</time></trkpt><trkpt lat="44.680928797997865" lon="11.660114973356418"><ele>5.0</ele><time>2026-03-29T15:28:15Z</time></trkpt><trkpt lat="44.6808994221381" lon="11.65999933338359"><ele>5.2</ele><time>2026-03-29T15:28:16Z</time></trkpt><trkpt lat="44.68086171000675" lon="11.659904512439171"><ele>5.4</ele><time>2026-03-29T15:28:17Z</time></trkpt><trkpt lat="44.68080959849219" lon="11.659821786948344"><ele>5.6</ele><time>2026-03-29T15:28:18Z</time></trkpt><trkpt lat="44.68072187323318" lon="11.659756833334436"><ele>5.8</ele><time>2026-03-29T15:28:19Z</time></trkpt><trkpt lat="44.68061308097984" lon="11.65972373490729"><ele>6.0</ele><time>2026-03-29T15:28:20Z</time></trkpt><trkpt lat="44.680482083998186" lon="11.65974219942418"><ele>6.0</ele><time>2026-03-29T15:28:21Z</time></trkpt><trkpt lat="44.68034312149502" lon="11.659807331529866"><ele>6.0</ele><time>2026-03-29T15:28:22Z</time></trkpt><trkpt lat="44.68020223920217" lon="11.659862751441345"><ele>6.0</ele><time>2026-03-29T15:28:23Z</time></trkpt><trkpt lat="44.68006632386197" lon="11.659909116280181"><ele>6.0</ele><time>2026-03-29T15:28:24Z</time></trkpt><trkpt lat="44.67990772651878" lon="11.659962794466614"><ele>5.333333333333333</ele><time>2026-03-29T15:28:25Z</time></trkpt><trkpt lat="44.679740950728366" lon="11.660006397091946"><ele>4.666666666666666</ele><time>2026-03-29T15:28:26Z</time></trkpt><trkpt lat="44.67957684347899" lon="11.660050164935353"><ele>4.0</ele><time>2026-03-29T15:28:27Z</time></trkpt><trkpt lat="44.679415154841415" lon="11.660090259395627"><ele>4.0</ele><time>2026-03-29T15:28:28Z</time></trkpt><trkpt lat="44.679241583206604" lon="11.66013558224613"><ele>4.0</ele><time>2026-03-29T15:28:29Z</time></trkpt><trkpt lat="44.67905780760627" lon="11.660183291777102"><ele>4.0</ele><time>2026-03-29T15:28:30Z</time></trkpt><trkpt lat="44.67887355406044" lon="11.660194579517688"><ele>4.0</ele><time>2026-03-29T15:28:31Z</time></trkpt><trkpt lat="44.678705575769115" lon="11.660241677271278"><ele>4.0</ele><time>2026-03-29T15:28:32Z</time></trkpt><trkpt lat="44.678540879717765" lon="11.660259397520269"><ele>4.0</ele><time>2026-03-29T15:28:33Z</time></trkpt><trkpt lat="44.678365043374235" lon="11.660253919976936"><ele>4.666666666666666</ele><time>2026-03-29T15:28:34Z</time></trkpt><trkpt lat="44.67819352667959" lon="11.660257215356278"><ele>5.333333333333333</ele><time>2026-03-29T15:28:35Z</time></trkpt><trkpt lat="44.67802342086539" lon="11.660247241955306"><ele>6.0</ele><time>2026-03-29T15:28:36Z</time></trkpt><trkpt lat="44.67784299107199" lon="11.660238671857098"><ele>5.666666666666667</ele><time>2026-03-29T15:28:37Z</time></trkpt><trkpt lat="44.67767209224853" lon="11.660212241949734"><ele>5.333333333333334</ele><time>2026-03-29T15:28:38Z</time></trkpt><trkpt lat="44.6775168546546" lon="11.660182530575943"><ele>5.0</ele><time>2026-03-29T15:28:39Z</time></trkpt><trkpt lat="44.67738969488167" lon="11.66016018690511"><ele>5.0</ele><time>2026-03-29T15:28:40Z</time></trkpt><trkpt lat="44.677283809213954" lon="11.660141745027587"><ele>5.0</ele><time>2026-03-29T15:28:41Z</time></trkpt><trkpt lat="44.67719991536871" lon="11.660093496054325"><ele>5.0</ele><time>2026-03-29T15:28:42Z</time></trkpt><trkpt lat="44.67711587646307" lon="11.660050555457318"><ele>5.0</ele><time>2026-03-29T15:28:43Z</time></trkpt><trkpt lat="44.67704360540684" lon="11.659968822246402"><ele>5.0</ele><time>2026-03-29T15:28:44Z</time></trkpt><trkpt lat="44.67698314952295" lon="11.659855932783303"><ele>5.0</ele><time>2026-03-29T15:28:45Z</time></trkpt><trkpt lat="44.67694848817539" lon="11.659713232633491"><ele>5.0</ele><time>2026-03-29T15:28:46Z</time></trkpt><trkpt lat="44.67695793024083" lon="11.659551366009305"><ele>5.0</ele><time>2026-03-29T15:28:47Z</time></trkpt><trkpt lat="44.6769759176015" lon="11.659382047616612"><ele>5.0</ele><time>2026-03-29T15:28:48Z</time></trkpt><trkpt lat="44.67700916993502" lon="11.659221863969249"><ele>5.0</ele><time>2026-03-29T15:28:49Z</time></trkpt><trkpt lat="44.67701322754632" lon="11.65907177874724"><ele>5.0</ele><time>2026-03-29T15:28:50Z</time></trkpt><trkpt lat="44.67697467990382" lon="11.658933422658947"><ele>5.0</ele><time>2026-03-29T15:28:51Z</time></trkpt><trkpt lat="44.67689963103142" lon="11.658795625423496"><ele>5.0</ele><time>2026-03-29T15:28:52Z</time></trkpt><trkpt lat="44.67678350915107" lon="11.658683879404316"><ele>5.0</ele><time>2026-03-29T15:28:53Z</time></trkpt><trkpt lat="44.67664794920067" lon="11.65861800786074"><ele>5.0</ele><time>2026-03-29T15:28:54Z</time></trkpt><trkpt lat="44.67648895124502" lon="11.658597999173416"><ele>5.0</ele><time>2026-03-29T15:28:55Z</time></trkpt><trkpt lat="44.67630429490701" lon="11.658563050662732"><ele>5.0</ele><time>2026-03-29T15:28:56Z</time></trkpt><trkpt lat="44.676105953950405" lon="11.658532777695926"><ele>5.0</ele><time>2026-03-29T15:28:57Z</time></trkpt><trkpt lat="44.67591449170366" lon="11.658501276638882"><ele>5.0</ele><time>2026-03-29T15:28:58Z</time></trkpt><trkpt lat="44.67574073390632" lon="11.658492734744035"><ele>5.25</ele><time>2026-03-29T15:28:59Z</time></trkpt><trkpt lat="44.67558638318568" lon="11.658465430301487"><ele>5.5</ele><time>2026-03-29T15:29:00Z</time></trkpt><trkpt lat="44.67544224834184" lon="11.658441368798306"><ele>5.75</ele><time>2026-03-29T15:29:01Z</time></trkpt><trkpt lat="44.675308121439" lon="11.658410472049335"><ele>6.0</ele><time>2026-03-29T15:29:02Z</time></trkpt><trkpt lat="44.675182691139305" lon="11.658389816575648"><ele>6.0</ele><time>2026-03-29T15:29:03Z</time></trkpt><trkpt lat="44.675051493260774" lon="11.658366664424186"><ele>6.0</ele><time>2026-03-29T15:29:04Z</time></trkpt><trkpt lat="44.67492643935917" lon="11.658343052314246"><ele>6.0</ele><time>2026-03-29T15:29:05Z</time></trkpt><trkpt lat="44.67480139095137" lon="11.658321444255915"><ele>6.0</ele><time>2026-03-29T15:29:06Z</time></trkpt><trkpt lat="44.674676176754296" lon="11.658299890662455"><ele>6.0</ele><time>2026-03-29T15:29:07Z</time></trkpt><trkpt lat="44.67455355621047" lon="11.658274131409279"><ele>6.0</ele><time>2026-03-29T15:29:08Z</time></trkpt><trkpt lat="44.67443081185094" lon="11.658257329132576"><ele>6.0</ele><time>2026-03-29T15:29:09Z</time></trkpt><trkpt lat="44.674310905643445" lon="11.658255937123418"><ele>6.0</ele><time>2026-03-29T15:29:10Z</time></trkpt><trkpt lat="44.67419034794279" lon="11.658275730417467"><ele>6.0</ele><time>2026-03-29T15:29:11Z</time></trkpt><trkpt lat="44.674085055661806" lon="11.658314785951928"><ele>6.0</ele><time>2026-03-29T15:29:12Z</time></trkpt><trkpt lat="44.67399586316895" lon="11.658357975635466"><ele>6.0</ele><time>2026-03-29T15:29:13Z</time></trkpt><trkpt lat="44.67392685790401" lon="11.658394543458789"><ele>6.0</ele><time>2026-03-29T15:29:14Z</time></trkpt><trkpt lat="44.67381813440841" lon="11.658453326347345"><ele>6.0</ele><time>2026-03-29T15:29:16Z</time></trkpt><trkpt lat="44.67369443155973" lon="11.65840805326759"><ele>6.0</ele><time>2026-03-29T15:29:18Z</time></trkpt><trkpt lat="44.67365181335231" lon="11.658288609686716"><ele>6.0</ele><time>2026-03-29T15:29:19Z</time></trkpt><trkpt lat="44.673587283415735" lon="11.658194382376175"><ele>6.0</ele><time>2026-03-29T15:29:20Z</time></trkpt><trkpt lat="44.6735288329201" lon="11.658079396063778"><ele>6.0</ele><time>2026-03-29T15:29:21Z</time></trkpt><trkpt lat="44.67346895204154" lon="11.657972967789227"><ele>6.0</ele><time>2026-03-29T15:29:22Z</time></trkpt><trkpt lat="44.67340511674276" lon="11.657856470767543"><ele>6.25</ele><time>2026-03-29T15:29:23Z</time></trkpt><trkpt lat="44.67334354930237" lon="11.657720949533859"><ele>6.5</ele><time>2026-03-29T15:29:24Z</time></trkpt><trkpt lat="44.67329716367031" lon="11.65756915340521"><ele>6.75</ele><time>2026-03-29T15:29:25Z</time></trkpt><trkpt lat="44.673260890839636" lon="11.6574222677075"><ele>7.0</ele><time>2026-03-29T15:29:26Z</time></trkpt><trkpt lat="44.67322587825914" lon="11.657260006098975"><ele>7.0</ele><time>2026-03-29T15:29:27Z</time></trkpt><trkpt lat="44.673193804006644" lon="11.657080959121805"><ele>7.0</ele><time>2026-03-29T15:29:28Z</time></trkpt><trkpt lat="44.673150104565615" lon="11.656903666530123"><ele>7.0</ele><time>2026-03-29T15:29:29Z</time></trkpt><trkpt lat="44.67309886686656" lon="11.656734583656641"><ele>7.0</ele><time>2026-03-29T15:29:30Z</time></trkpt><trkpt lat="44.673041783878006" lon="11.65655806596352"><ele>7.0</ele><time>2026-03-29T15:29:31Z</time></trkpt><trkpt lat="44.672976119136784" lon="11.656379531948755"><ele>7.0</ele><time>2026-03-29T15:29:32Z</time></trkpt><trkpt lat="44.67291037662116" lon="11.656188974471414"><ele>7.0</ele><time>2026-03-29T15:29:33Z</time></trkpt><trkpt lat="44.67284003308259" lon="11.65599430354228"><ele>7.0</ele><time>2026-03-29T15:29:34Z</time></trkpt><trkpt lat="44.67277437283962" lon="11.655799166045464"><ele>7.333333333333334</ele><time>2026-03-29T15:29:35Z</time></trkpt><trkpt lat="44.67270449789492" lon="11.655609036539403"><ele>7.666666666666666</ele><time>2026-03-29T15:29:36Z</time></trkpt><trkpt lat="44.67263340837323" lon="11.655417111429866"><ele>8.0</ele><time>2026-03-29T15:29:37Z</time></trkpt><trkpt lat="44.67256651247795" lon="11.655221861731203"><ele>8.0</ele><time>2026-03-29T15:29:38Z</time></trkpt><trkpt lat="44.672495632814886" lon="11.655024201043867"><ele>8.0</ele><time>2026-03-29T15:29:39Z</time></trkpt><trkpt lat="44.672423489605265" lon="11.654826348679142"><ele>8.0</ele><time>2026-03-29T15:29:40Z</time></trkpt><trkpt lat="44.672354251842314" lon="11.65463259866563"><ele>8.0</ele><time>2026-03-29T15:29:41Z</time></trkpt><trkpt lat="44.67228850229305" lon="11.65446269084847"><ele>8.0</ele><time>2026-03-29T15:29:42Z</time></trkpt><trkpt lat="44.67223258664482" lon="11.65430255829629"><ele>8.0</ele><time>2026-03-29T15:29:43Z</time></trkpt><trkpt lat="44.67218447493573" lon="11.654155232507698"><ele>8.0</ele><time>2026-03-29T15:29:44Z</time></trkpt><trkpt lat="44.67215397216726" lon="11.653998220951822"><ele>7.999999999999999</ele><time>2026-03-29T15:29:45Z</time></trkpt><trkpt lat="44.672104621641964" lon="11.653871781632176"><ele>8.0</ele><time>2026-03-29T15:29:46Z</time></trkpt><trkpt lat="44.67205651064436" lon="11.653762119250837"><ele>8.0</ele><time>2026-03-29T15:29:47Z</time></trkpt><trkpt lat="44.671993405774074" lon="11.653676717343531"><ele>8.0</ele><time>2026-03-29T15:29:48Z</time></trkpt><trkpt lat="44.67194598507343" lon="11.653590472767414"><ele>7.999999999999999</ele><time>2026-03-29T15:29:49Z</time></trkpt><trkpt lat="44.67190026509738" lon="11.653514525761176"><ele>8.0</ele><time>2026-03-29T15:29:50Z</time></trkpt><trkpt lat="44.67186545846537" lon="11.6534210309805"><ele>7.999999999999999</ele><time>2026-03-29T15:29:51Z</time></trkpt><trkpt lat="44.67182426320443" lon="11.653352510539195"><ele>8.0</ele><time>2026-03-29T15:29:52Z</time></trkpt><trkpt lat="44.671777659963894" lon="11.653279302848315"><ele>8.0</ele><time>2026-03-29T15:29:53Z</time></trkpt><trkpt lat="44.67173307481889" lon="11.653210867302988"><ele>8.0</ele><time>2026-03-29T15:29:54Z</time></trkpt><trkpt lat="44.6716610821053" lon="11.653108128312587"><ele>7.999999999999999</ele><time>2026-03-29T15:29:56Z</time></trkpt><trkpt lat="44.67166004090539" lon="11.653016063650798"><ele>8.0</ele><time>2026-03-29T15:29:59Z</time></trkpt><trkpt lat="44.671726647845176" lon="11.652948938330137"><ele>7.999999999999999</ele><time>2026-03-29T15:30:00Z</time></trkpt><trkpt lat="44.67181868397885" lon="11.652874781301282"><ele>8.0</ele><time>2026-03-29T15:30:02Z</time></trkpt><trkpt lat="44.67192242019416" lon="11.652777190352579"><ele>8.0</ele><time>2026-03-29T15:30:04Z</time></trkpt><trkpt lat="44.67197482733372" lon="11.652723576535122"><ele>8.0</ele><time>2026-03-29T15:30:05Z</time></trkpt><trkpt lat="44.672033185687326" lon="11.652667077016082"><ele>7.999999999999999</ele><time>2026-03-29T15:30:06Z</time></trkpt><trkpt lat="44.672090034799105" lon="11.652607053650573"><ele>8.0</ele><time>2026-03-29T15:30:07Z</time></trkpt><trkpt lat="44.67217704286954" lon="11.652523535657807"><ele>7.800000000000001</ele><time>2026-03-29T15:30:09Z</time></trkpt><trkpt lat="44.67225015397084" lon="11.652455086842837"><ele>7.6000000000000005</ele><time>2026-03-29T15:30:11Z</time></trkpt><trkpt lat="44.672327147278196" lon="11.652369194015813"><ele>7.3999999999999995</ele><time>2026-03-29T15:30:13Z</time></trkpt><trkpt lat="44.672427012479986" lon="11.652300165921552"><ele>7.199999999999999</ele><time>2026-03-29T15:30:15Z</time></trkpt><trkpt lat="44.67249529607639" lon="11.65223705375464"><ele>7.0</ele><time>2026-03-29T15:30:17Z</time></trkpt><trkpt lat="44.67255868848543" lon="11.65217846217931"><ele>7.0</ele><time>2026-03-29T15:30:20Z</time></trkpt><trkpt lat="44.67263154014834" lon="11.652178704115302"><ele>7.0</ele><time>2026-03-29T15:34:07.001Z</time></trkpt><trkpt lat="44.67266714127872" lon="11.652257117405837"><ele>7.0</ele><time>2026-03-29T15:34:09.001Z</time></trkpt><trkpt lat="44.67272914849374" lon="11.652320225356913"><ele>7.0</ele><time>2026-03-29T15:34:12.001Z</time></trkpt><trkpt lat="44.67275337949025" lon="11.652422510839164"><ele>7.0</ele><time>2026-03-29T15:34:15.001Z</time></trkpt><trkpt lat="44.67277198331087" lon="11.652513369851672"><ele>7.0</ele><time>2026-03-29T15:34:18Z</time></trkpt><trkpt lat="44.672707876584994" lon="11.652549279778718"><ele>7.0</ele><time>2026-03-29T15:34:22Z</time></trkpt><trkpt lat="44.672683344457255" lon="11.652632407355533"><ele>7.0</ele><time>2026-03-29T15:37:41Z</time></trkpt><trkpt lat="44.67257641630953" lon="11.652389178395135"><ele>7.0</ele><time>2026-03-29T15:38:20Z</time></trkpt></trkseg></trk></gpx>